<?xml version='1.0' encoding='UTF-8'?><gpx version="1.1" creator="JPX - https://github.com/jenetics/jpx" xmlns="http://www.topografix.com/GPX/1/1"><trk><trkseg><trkpt lat="45.6099658" lon="9.4272019"><ele>200.33333333333334</ele><time>2026-04-15T12:16:15.103Z</time></trkpt><trkpt lat="45.609983" lon="9.4270849"><ele>200.66666666666669</ele><time>2026-04-15T12:19:24.103Z</time></trkpt><trkpt lat="45.6099882" lon="9.4269456"><ele>201.0</ele><time>2026-04-15T12:19:27.103Z</time></trkpt><trkpt lat="45.6099796" lon="9.426835"><ele>201.33333333333331</ele><time>2026-04-15T12:19:29.103Z</time></trkpt><trkpt lat="45.6099434" lon="9.4267427"><ele>201.66666666666666</ele><time>2026-04-15T12:19:31.104Z</time></trkpt><trkpt lat="45.6098598" lon="9.4267042"><ele>202.0</ele><time>2026-04-15T12:19:33.103Z</time></trkpt><trkpt lat="45.6097816" lon="9.4266815"><ele>201.99999999999997</ele><time>2026-04-15T12:19:35.103Z</time></trkpt><trkpt lat="45.6097269" lon="9.4266292"><ele>202.0</ele><time>2026-04-15T12:19:37.103Z</time></trkpt><trkpt lat="45.6097185" lon="9.4265304"><ele>202.0</ele><time>2026-04-15T12:19:39.104Z</time></trkpt><trkpt lat="45.6097088" lon="9.4264"><ele>202.0</ele><time>2026-04-15T12:19:42.104Z</time></trkpt><trkpt lat="45.6097131" lon="9.4262728"><ele>201.99999999999997</ele><time>2026-04-15T12:19:44.104Z</time></trkpt><trkpt lat="45.6096899" lon="9.4261641"><ele>202.0</ele><time>2026-04-15T12:19:46.103Z</time></trkpt><trkpt lat="45.6096652" lon="9.4260721"><ele>201.99999999999997</ele><time>2026-04-15T12:19:51.103Z</time></trkpt><trkpt lat="45.6095995" lon="9.426052"><ele>202.0</ele><time>2026-04-15T12:19:59.103Z</time></trkpt><trkpt lat="45.6095249" lon="9.4260486"><ele>202.0</ele><time>2026-04-15T12:20:01.104Z</time></trkpt><trkpt lat="45.6094429" lon="9.426044"><ele>202.0</ele><time>2026-04-15T12:20:03.103Z</time></trkpt><trkpt lat="45.6093588" lon="9.4260381"><ele>201.99999999999997</ele><time>2026-04-15T12:20:05.104Z</time></trkpt><trkpt lat="45.6092729" lon="9.4260349"><ele>202.0</ele><time>2026-04-15T12:20:07.103Z</time></trkpt><trkpt lat="45.6091912" lon="9.4260389"><ele>201.39999999999998</ele><time>2026-04-15T12:20:09.104Z</time></trkpt><trkpt lat="45.6091102" lon="9.426048"><ele>200.79999999999998</ele><time>2026-04-15T12:20:11.103Z</time></trkpt><trkpt lat="45.6090078" lon="9.4260352"><ele>200.2</ele><time>2026-04-15T12:20:13.103Z</time></trkpt><trkpt lat="45.6089048" lon="9.4260246"><ele>199.6</ele><time>2026-04-15T12:20:15.103Z</time></trkpt><trkpt lat="45.6087933" lon="9.4260255"><ele>199.0</ele><time>2026-04-15T12:20:17.103Z</time></trkpt><trkpt lat="45.6086776" lon="9.4260215"><ele>198.25</ele><time>2026-04-15T12:20:19.103Z</time></trkpt><trkpt lat="45.6085696" lon="9.4260277"><ele>197.5</ele><time>2026-04-15T12:20:21.103Z</time></trkpt><trkpt lat="45.6084518" lon="9.4260304"><ele>196.75</ele><time>2026-04-15T12:20:23.103Z</time></trkpt><trkpt lat="45.6083338" lon="9.4260327"><ele>196.0</ele><time>2026-04-15T12:20:25.103Z</time></trkpt><trkpt lat="45.6082204" lon="9.4260355"><ele>196.0</ele><time>2026-04-15T12:20:27.103Z</time></trkpt><trkpt lat="45.6080929" lon="9.4260232"><ele>196.0</ele><time>2026-04-15T12:20:29.103Z</time></trkpt><trkpt lat="45.6079722" lon="9.4260315"><ele>196.0</ele><time>2026-04-15T12:20:31.103Z</time></trkpt><trkpt lat="45.6079051" lon="9.426031"><ele>196.0</ele><time>2026-04-15T12:20:32.103Z</time></trkpt><trkpt lat="45.6077848" lon="9.4260181"><ele>196.0</ele><time>2026-04-15T12:20:34.103Z</time></trkpt><trkpt lat="45.6076673" lon="9.4260058"><ele>195.8</ele><time>2026-04-15T12:20:36.103Z</time></trkpt><trkpt lat="45.6075543" lon="9.426007"><ele>195.60000000000002</ele><time>2026-04-15T12:20:38.103Z</time></trkpt><trkpt lat="45.6074711" lon="9.4259686"><ele>195.4</ele><time>2026-04-15T12:20:40.103Z</time></trkpt><trkpt lat="45.607448" lon="9.4258618"><ele>195.2</ele><time>2026-04-15T12:20:42.104Z</time></trkpt><trkpt lat="45.6074329" lon="9.4257279"><ele>195.0</ele><time>2026-04-15T12:20:44.103Z</time></trkpt><trkpt lat="45.6074287" lon="9.4255737"><ele>195.2</ele><time>2026-04-15T12:20:46.103Z</time></trkpt><trkpt lat="45.6074254" lon="9.4254109"><ele>195.4</ele><time>2026-04-15T12:20:48.103Z</time></trkpt><trkpt lat="45.6074214" lon="9.42526"><ele>195.60000000000002</ele><time>2026-04-15T12:20:50.103Z</time></trkpt><trkpt lat="45.6074234" lon="9.425109"><ele>195.8</ele><time>2026-04-15T12:20:52.103Z</time></trkpt><trkpt lat="45.6074284" lon="9.4249566"><ele>196.0</ele><time>2026-04-15T12:20:54.103Z</time></trkpt><trkpt lat="45.6074268" lon="9.4248082"><ele>196.0</ele><time>2026-04-15T12:20:56.103Z</time></trkpt><trkpt lat="45.6074227" lon="9.424653"><ele>196.0</ele><time>2026-04-15T12:20:58.103Z</time></trkpt><trkpt lat="45.6074143" lon="9.4244798"><ele>196.0</ele><time>2026-04-15T12:21:00.104Z</time></trkpt><trkpt lat="45.6074082" lon="9.4243857"><ele>196.0</ele><time>2026-04-15T12:21:01.103Z</time></trkpt><trkpt lat="45.6073808" lon="9.4242061"><ele>196.0</ele><time>2026-04-15T12:21:03.103Z</time></trkpt><trkpt lat="45.6073617" lon="9.4241103"><ele>195.66666666666666</ele><time>2026-04-15T12:21:04.104Z</time></trkpt><trkpt lat="45.6073369" lon="9.4239984"><ele>195.33333333333331</ele><time>2026-04-15T12:21:05.103Z</time></trkpt><trkpt lat="45.6073167" lon="9.4238893"><ele>195.0</ele><time>2026-04-15T12:21:06.103Z</time></trkpt><trkpt lat="45.6072946" lon="9.4237809"><ele>194.66666666666669</ele><time>2026-04-15T12:21:07.103Z</time></trkpt><trkpt lat="45.6072728" lon="9.423675"><ele>194.33333333333334</ele><time>2026-04-15T12:21:08.103Z</time></trkpt><trkpt lat="45.6072663" lon="9.4235612"><ele>194.0</ele><time>2026-04-15T12:21:09.103Z</time></trkpt><trkpt lat="45.6072645" lon="9.423451"><ele>193.85714285714286</ele><time>2026-04-15T12:21:10.104Z</time></trkpt><trkpt lat="45.6072649" lon="9.4233356"><ele>193.71428571428572</ele><time>2026-04-15T12:21:11.103Z</time></trkpt><trkpt lat="45.6072647" lon="9.4232269"><ele>193.57142857142858</ele><time>2026-04-15T12:21:12.103Z</time></trkpt><trkpt lat="45.6072644" lon="9.4231212"><ele>193.42857142857144</ele><time>2026-04-15T12:21:13.103Z</time></trkpt><trkpt lat="45.6072672" lon="9.4230212"><ele>193.28571428571428</ele><time>2026-04-15T12:21:14.103Z</time></trkpt><trkpt lat="45.6072696" lon="9.4229217"><ele>193.14285714285717</ele><time>2026-04-15T12:21:15.104Z</time></trkpt><trkpt lat="45.6072715" lon="9.4228229"><ele>193.0</ele><time>2026-04-15T12:21:16.103Z</time></trkpt><trkpt lat="45.6072715" lon="9.4227205"><ele>193.00000000000003</ele><time>2026-04-15T12:21:17.103Z</time></trkpt><trkpt lat="45.6072747" lon="9.4226257"><ele>193.0</ele><time>2026-04-15T12:21:18.103Z</time></trkpt><trkpt lat="45.6072754" lon="9.4225263"><ele>193.0</ele><time>2026-04-15T12:21:19.103Z</time></trkpt><trkpt lat="45.6072741" lon="9.4224353"><ele>193.0</ele><time>2026-04-15T12:21:20.103Z</time></trkpt><trkpt lat="45.6072774" lon="9.4223409"><ele>193.0</ele><time>2026-04-15T12:21:21.103Z</time></trkpt><trkpt lat="45.6072773" lon="9.4222392"><ele>193.00000000000003</ele><time>2026-04-15T12:21:22.104Z</time></trkpt><trkpt lat="45.607283" lon="9.4221474"><ele>193.0</ele><time>2026-04-15T12:21:23.103Z</time></trkpt><trkpt lat="45.6072841" lon="9.4220561"><ele>193.0</ele><time>2026-04-15T12:21:24.103Z</time></trkpt><trkpt lat="45.6072865" lon="9.4219656"><ele>193.0</ele><time>2026-04-15T12:21:25.103Z</time></trkpt><trkpt lat="45.607291" lon="9.4217855"><ele>193.0</ele><time>2026-04-15T12:21:27.103Z</time></trkpt><trkpt lat="45.6073011" lon="9.4216123"><ele>193.0</ele><time>2026-04-15T12:21:29.104Z</time></trkpt><trkpt lat="45.6073125" lon="9.4214362"><ele>193.0</ele><time>2026-04-15T12:21:31.103Z</time></trkpt><trkpt lat="45.6073185" lon="9.4213447"><ele>192.8</ele><time>2026-04-15T12:21:32.103Z</time></trkpt><trkpt lat="45.6073247" lon="9.4212536"><ele>192.60000000000002</ele><time>2026-04-15T12:21:33.103Z</time></trkpt><trkpt lat="45.6073262" lon="9.4210811"><ele>192.39999999999998</ele><time>2026-04-15T12:21:35.104Z</time></trkpt><trkpt lat="45.6073312" lon="9.4209052"><ele>192.2</ele><time>2026-04-15T12:21:37.104Z</time></trkpt><trkpt lat="45.6073329" lon="9.4207364"><ele>192.0</ele><time>2026-04-15T12:21:39.103Z</time></trkpt><trkpt lat="45.6073298" lon="9.4205669"><ele>192.2</ele><time>2026-04-15T12:21:41.103Z</time></trkpt><trkpt lat="45.607347" lon="9.4204254"><ele>192.39999999999998</ele><time>2026-04-15T12:21:43.104Z</time></trkpt><trkpt lat="45.6074251" lon="9.4202967"><ele>192.60000000000002</ele><time>2026-04-15T12:21:45.103Z</time></trkpt><trkpt lat="45.6075143" lon="9.4201889"><ele>192.8</ele><time>2026-04-15T12:21:47.103Z</time></trkpt><trkpt lat="45.6076037" lon="9.4200956"><ele>193.0</ele><time>2026-04-15T12:21:49.103Z</time></trkpt><trkpt lat="45.6076168" lon="9.4199838"><ele>193.0</ele><time>2026-04-15T12:21:52.104Z</time></trkpt><trkpt lat="45.6075405" lon="9.4199355"><ele>193.0</ele><time>2026-04-15T12:21:54.104Z</time></trkpt><trkpt lat="45.6074685" lon="9.4198294"><ele>193.0</ele><time>2026-04-15T12:21:56.103Z</time></trkpt><trkpt lat="45.6074096" lon="9.4196984"><ele>193.0</ele><time>2026-04-15T12:21:58.103Z</time></trkpt><trkpt lat="45.6073248" lon="9.4195839"><ele>193.0</ele><time>2026-04-15T12:22:00.103Z</time></trkpt><trkpt lat="45.6072066" lon="9.4195415"><ele>193.00000000000003</ele><time>2026-04-15T12:22:02.103Z</time></trkpt><trkpt lat="45.607141" lon="9.4195345"><ele>193.0</ele><time>2026-04-15T12:22:03.103Z</time></trkpt><trkpt lat="45.6070744" lon="9.4195243"><ele>193.0</ele><time>2026-04-15T12:22:04.103Z</time></trkpt><trkpt lat="45.6070111" lon="9.4195097"><ele>193.0</ele><time>2026-04-15T12:22:05.103Z</time></trkpt><trkpt lat="45.6069436" lon="9.4195056"><ele>193.0</ele><time>2026-04-15T12:22:06.103Z</time></trkpt><trkpt lat="45.6068802" lon="9.4194947"><ele>193.00000000000003</ele><time>2026-04-15T12:22:07.103Z</time></trkpt><trkpt lat="45.6068146" lon="9.4194928"><ele>193.0</ele><time>2026-04-15T12:22:08.103Z</time></trkpt><trkpt lat="45.6067465" lon="9.419494"><ele>192.71428571428572</ele><time>2026-04-15T12:22:09.103Z</time></trkpt><trkpt lat="45.60668" lon="9.4194871"><ele>192.42857142857144</ele><time>2026-04-15T12:22:10.103Z</time></trkpt><trkpt lat="45.6066149" lon="9.419477"><ele>192.14285714285717</ele><time>2026-04-15T12:22:11.104Z</time></trkpt><trkpt lat="45.6065458" lon="9.4194687"><ele>191.85714285714286</ele><time>2026-04-15T12:22:12.103Z</time></trkpt><trkpt lat="45.6064786" lon="9.4194659"><ele>191.57142857142856</ele><time>2026-04-15T12:22:13.103Z</time></trkpt><trkpt lat="45.6064091" lon="9.4194636"><ele>191.2857142857143</ele><time>2026-04-15T12:22:14.103Z</time></trkpt><trkpt lat="45.6063396" lon="9.419463"><ele>191.0</ele><time>2026-04-15T12:22:15.103Z</time></trkpt><trkpt lat="45.6062727" lon="9.4194595"><ele>191.0</ele><time>2026-04-15T12:22:16.104Z</time></trkpt><trkpt lat="45.6062001" lon="9.4194609"><ele>191.0</ele><time>2026-04-15T12:22:17.103Z</time></trkpt><trkpt lat="45.6061332" lon="9.4194574"><ele>191.0</ele><time>2026-04-15T12:22:18.104Z</time></trkpt><trkpt lat="45.6060667" lon="9.4194504"><ele>191.0</ele><time>2026-04-15T12:22:19.104Z</time></trkpt><trkpt lat="45.6059972" lon="9.4194461"><ele>191.0</ele><time>2026-04-15T12:22:20.103Z</time></trkpt><trkpt lat="45.6059256" lon="9.4194431"><ele>191.0</ele><time>2026-04-15T12:22:21.104Z</time></trkpt><trkpt lat="45.6058553" lon="9.4194343"><ele>191.0</ele><time>2026-04-15T12:22:22.103Z</time></trkpt><trkpt lat="45.6057849" lon="9.4194276"><ele>191.0</ele><time>2026-04-15T12:22:23.104Z</time></trkpt><trkpt lat="45.6057124" lon="9.4194139"><ele>191.0</ele><time>2026-04-15T12:22:24.104Z</time></trkpt><trkpt lat="45.6056386" lon="9.4193999"><ele>191.0</ele><time>2026-04-15T12:22:25.104Z</time></trkpt><trkpt lat="45.6055617" lon="9.4193834"><ele>191.0</ele><time>2026-04-15T12:22:26.104Z</time></trkpt><trkpt lat="45.6054876" lon="9.4193626"><ele>191.0</ele><time>2026-04-15T12:22:27.103Z</time></trkpt><trkpt lat="45.6054147" lon="9.4193511"><ele>191.0</ele><time>2026-04-15T12:22:28.103Z</time></trkpt><trkpt lat="45.6053454" lon="9.4193472"><ele>191.0</ele><time>2026-04-15T12:22:29.103Z</time></trkpt><trkpt lat="45.6052735" lon="9.4193338"><ele>190.85714285714286</ele><time>2026-04-15T12:22:30.103Z</time></trkpt><trkpt lat="45.6052016" lon="9.4193242"><ele>190.7142857142857</ele><time>2026-04-15T12:22:31.103Z</time></trkpt><trkpt lat="45.6051284" lon="9.4193045"><ele>190.57142857142856</ele><time>2026-04-15T12:22:32.103Z</time></trkpt><trkpt lat="45.6050582" lon="9.4192992"><ele>190.42857142857144</ele><time>2026-04-15T12:22:33.104Z</time></trkpt><trkpt lat="45.6049897" lon="9.419296"><ele>190.28571428571428</ele><time>2026-04-15T12:22:34.103Z</time></trkpt><trkpt lat="45.6049178" lon="9.4192994"><ele>190.14285714285714</ele><time>2026-04-15T12:22:35.103Z</time></trkpt><trkpt lat="45.6048445" lon="9.4192801"><ele>190.0</ele><time>2026-04-15T12:22:36.103Z</time></trkpt><trkpt lat="45.6047727" lon="9.4192737"><ele>190.0</ele><time>2026-04-15T12:22:37.103Z</time></trkpt><trkpt lat="45.6046997" lon="9.4192599"><ele>190.0</ele><time>2026-04-15T12:22:38.103Z</time></trkpt><trkpt lat="45.6046315" lon="9.4192469"><ele>190.0</ele><time>2026-04-15T12:22:39.104Z</time></trkpt><trkpt lat="45.6045614" lon="9.419237"><ele>190.0</ele><time>2026-04-15T12:22:40.103Z</time></trkpt><trkpt lat="45.6044931" lon="9.4192374"><ele>190.0</ele><time>2026-04-15T12:22:41.103Z</time></trkpt><trkpt lat="45.6044261" lon="9.4192256"><ele>190.0</ele><time>2026-04-15T12:22:42.103Z</time></trkpt><trkpt lat="45.6043046" lon="9.4192174"><ele>189.66666666666669</ele><time>2026-04-15T12:22:44.104Z</time></trkpt><trkpt lat="45.6041976" lon="9.4192183"><ele>189.33333333333334</ele><time>2026-04-15T12:22:46.103Z</time></trkpt><trkpt lat="45.6041306" lon="9.4192218"><ele>189.0</ele><time>2026-04-15T12:22:48.103Z</time></trkpt><trkpt lat="45.6040519" lon="9.419235"><ele>188.66666666666666</ele><time>2026-04-15T12:22:51.104Z</time></trkpt><trkpt lat="45.6039865" lon="9.4192058"><ele>188.33333333333331</ele><time>2026-04-15T12:22:53.103Z</time></trkpt><trkpt lat="45.603918" lon="9.4191585"><ele>188.0</ele><time>2026-04-15T12:22:55.103Z</time></trkpt><trkpt lat="45.6038568" lon="9.4191368"><ele>188.0</ele><time>2026-04-15T12:22:56.103Z</time></trkpt><trkpt lat="45.6037546" lon="9.4191154"><ele>188.0</ele><time>2026-04-15T12:22:58.103Z</time></trkpt><trkpt lat="45.6036427" lon="9.419093"><ele>188.0</ele><time>2026-04-15T12:23:00.103Z</time></trkpt><trkpt lat="45.6035794" lon="9.4190929"><ele>188.0</ele><time>2026-04-15T12:23:01.103Z</time></trkpt><trkpt lat="45.6034574" lon="9.4190742"><ele>188.0</ele><time>2026-04-15T12:23:03.103Z</time></trkpt><trkpt lat="45.6033905" lon="9.4190702"><ele>188.14285714285714</ele><time>2026-04-15T12:23:04.103Z</time></trkpt><trkpt lat="45.6033274" lon="9.4190655"><ele>188.28571428571428</ele><time>2026-04-15T12:23:05.103Z</time></trkpt><trkpt lat="45.6032626" lon="9.4190656"><ele>188.42857142857144</ele><time>2026-04-15T12:23:06.103Z</time></trkpt><trkpt lat="45.6031971" lon="9.4190506"><ele>188.57142857142856</ele><time>2026-04-15T12:23:07.103Z</time></trkpt><trkpt lat="45.6031312" lon="9.4190445"><ele>188.71428571428572</ele><time>2026-04-15T12:23:08.103Z</time></trkpt><trkpt lat="45.6030631" lon="9.4190362"><ele>188.85714285714286</ele><time>2026-04-15T12:23:09.103Z</time></trkpt><trkpt lat="45.6029912" lon="9.4190288"><ele>189.0</ele><time>2026-04-15T12:23:10.103Z</time></trkpt><trkpt lat="45.6029222" lon="9.4190207"><ele>189.0</ele><time>2026-04-15T12:23:11.104Z</time></trkpt><trkpt lat="45.602848" lon="9.4190053"><ele>189.0</ele><time>2026-04-15T12:23:12.103Z</time></trkpt><trkpt lat="45.602783" lon="9.4189849"><ele>189.0</ele><time>2026-04-15T12:23:13.103Z</time></trkpt><trkpt lat="45.6027118" lon="9.4189879"><ele>189.0</ele><time>2026-04-15T12:23:14.103Z</time></trkpt><trkpt lat="45.6026429" lon="9.4189704"><ele>189.0</ele><time>2026-04-15T12:23:15.103Z</time></trkpt><trkpt lat="45.6025716" lon="9.4189686"><ele>189.0</ele><time>2026-04-15T12:23:16.104Z</time></trkpt><trkpt lat="45.6025023" lon="9.4189545"><ele>189.0</ele><time>2026-04-15T12:23:17.103Z</time></trkpt><trkpt lat="45.6024313" lon="9.41894"><ele>188.71428571428572</ele><time>2026-04-15T12:23:18.103Z</time></trkpt><trkpt lat="45.6023553" lon="9.4189339"><ele>188.42857142857144</ele><time>2026-04-15T12:23:19.103Z</time></trkpt><trkpt lat="45.6022902" lon="9.4189246"><ele>188.14285714285714</ele><time>2026-04-15T12:23:20.103Z</time></trkpt><trkpt lat="45.602218" lon="9.4189205"><ele>187.85714285714286</ele><time>2026-04-15T12:23:21.103Z</time></trkpt><trkpt lat="45.6021505" lon="9.4189139"><ele>187.57142857142858</ele><time>2026-04-15T12:23:22.103Z</time></trkpt><trkpt lat="45.602082" lon="9.418909"><ele>187.28571428571428</ele><time>2026-04-15T12:23:23.103Z</time></trkpt><trkpt lat="45.6020157" lon="9.4189029"><ele>187.0</ele><time>2026-04-15T12:23:24.104Z</time></trkpt><trkpt lat="45.6019457" lon="9.418902"><ele>187.0</ele><time>2026-04-15T12:23:25.103Z</time></trkpt><trkpt lat="45.6018771" lon="9.418895"><ele>187.0</ele><time>2026-04-15T12:23:26.103Z</time></trkpt><trkpt lat="45.6018046" lon="9.418884"><ele>187.0</ele><time>2026-04-15T12:23:27.103Z</time></trkpt><trkpt lat="45.6017325" lon="9.4188734"><ele>187.0</ele><time>2026-04-15T12:23:28.103Z</time></trkpt><trkpt lat="45.601661" lon="9.4188711"><ele>187.0</ele><time>2026-04-15T12:23:29.104Z</time></trkpt><trkpt lat="45.6015848" lon="9.418867"><ele>187.0</ele><time>2026-04-15T12:23:30.103Z</time></trkpt><trkpt lat="45.6015108" lon="9.4188573"><ele>187.0</ele><time>2026-04-15T12:23:31.104Z</time></trkpt><trkpt lat="45.6014393" lon="9.4188472"><ele>187.0</ele><time>2026-04-15T12:23:32.103Z</time></trkpt><trkpt lat="45.6013691" lon="9.4188362"><ele>187.0</ele><time>2026-04-15T12:23:33.103Z</time></trkpt><trkpt lat="45.6012994" lon="9.4188245"><ele>187.0</ele><time>2026-04-15T12:23:34.103Z</time></trkpt><trkpt lat="45.6012286" lon="9.4188204"><ele>187.0</ele><time>2026-04-15T12:23:35.103Z</time></trkpt><trkpt lat="45.6011581" lon="9.4188107"><ele>187.0</ele><time>2026-04-15T12:23:36.103Z</time></trkpt><trkpt lat="45.6010852" lon="9.4188071"><ele>187.0</ele><time>2026-04-15T12:23:37.103Z</time></trkpt><trkpt lat="45.6010088" lon="9.4188092"><ele>187.0</ele><time>2026-04-15T12:23:38.103Z</time></trkpt><trkpt lat="45.6009303" lon="9.4188107"><ele>186.85714285714286</ele><time>2026-04-15T12:23:39.104Z</time></trkpt><trkpt lat="45.6008602" lon="9.4188153"><ele>186.71428571428572</ele><time>2026-04-15T12:23:40.103Z</time></trkpt><trkpt lat="45.6007873" lon="9.4188274"><ele>186.57142857142858</ele><time>2026-04-15T12:23:41.103Z</time></trkpt><trkpt lat="45.6007152" lon="9.4188404"><ele>186.42857142857144</ele><time>2026-04-15T12:23:42.103Z</time></trkpt><trkpt lat="45.600639" lon="9.4188516"><ele>186.28571428571428</ele><time>2026-04-15T12:23:43.103Z</time></trkpt><trkpt lat="45.6005656" lon="9.4188622"><ele>186.14285714285717</ele><time>2026-04-15T12:23:44.104Z</time></trkpt><trkpt lat="45.6004895" lon="9.4188707"><ele>186.0</ele><time>2026-04-15T12:23:45.103Z</time></trkpt><trkpt lat="45.6004193" lon="9.418889"><ele>185.83333333333334</ele><time>2026-04-15T12:23:46.103Z</time></trkpt><trkpt lat="45.6003447" lon="9.4189103"><ele>185.66666666666666</ele><time>2026-04-15T12:23:47.103Z</time></trkpt><trkpt lat="45.6002682" lon="9.4189241"><ele>185.5</ele><time>2026-04-15T12:23:48.103Z</time></trkpt><trkpt lat="45.600193" lon="9.4189379"><ele>185.33333333333331</ele><time>2026-04-15T12:23:49.103Z</time></trkpt><trkpt lat="45.6001154" lon="9.4189505"><ele>185.16666666666666</ele><time>2026-04-15T12:23:50.104Z</time></trkpt><trkpt lat="45.60004" lon="9.4189725"><ele>185.0</ele><time>2026-04-15T12:23:51.103Z</time></trkpt><trkpt lat="45.5999646" lon="9.4189871"><ele>185.0</ele><time>2026-04-15T12:23:52.103Z</time></trkpt><trkpt lat="45.5998895" lon="9.4190065"><ele>185.0</ele><time>2026-04-15T12:23:53.103Z</time></trkpt><trkpt lat="45.599811" lon="9.419011"><ele>185.0</ele><time>2026-04-15T12:23:54.103Z</time></trkpt><trkpt lat="45.5997385" lon="9.4190293"><ele>185.0</ele><time>2026-04-15T12:23:55.103Z</time></trkpt><trkpt lat="45.5996628" lon="9.4190397"><ele>185.0</ele><time>2026-04-15T12:23:56.104Z</time></trkpt><trkpt lat="45.5995891" lon="9.4190604"><ele>185.0</ele><time>2026-04-15T12:23:57.104Z</time></trkpt><trkpt lat="45.5995129" lon="9.4190724"><ele>184.83333333333331</ele><time>2026-04-15T12:23:58.103Z</time></trkpt><trkpt lat="45.5994369" lon="9.4190879"><ele>184.66666666666666</ele><time>2026-04-15T12:23:59.103Z</time></trkpt><trkpt lat="45.5993612" lon="9.4191046"><ele>184.5</ele><time>2026-04-15T12:24:00.103Z</time></trkpt><trkpt lat="45.5992827" lon="9.4191021"><ele>184.33333333333334</ele><time>2026-04-15T12:24:01.103Z</time></trkpt><trkpt lat="45.5992097" lon="9.4191096"><ele>184.16666666666669</ele><time>2026-04-15T12:24:02.103Z</time></trkpt><trkpt lat="45.5991375" lon="9.4191209"><ele>184.0</ele><time>2026-04-15T12:24:03.104Z</time></trkpt><trkpt lat="45.5990631" lon="9.4191284"><ele>184.0</ele><time>2026-04-15T12:24:04.104Z</time></trkpt><trkpt lat="45.5989902" lon="9.4191473"><ele>184.0</ele><time>2026-04-15T12:24:05.103Z</time></trkpt><trkpt lat="45.5989204" lon="9.4191678"><ele>184.0</ele><time>2026-04-15T12:24:06.103Z</time></trkpt><trkpt lat="45.598846" lon="9.419188"><ele>184.0</ele><time>2026-04-15T12:24:07.103Z</time></trkpt><trkpt lat="45.5987743" lon="9.4192076"><ele>184.0</ele><time>2026-04-15T12:24:08.103Z</time></trkpt><trkpt lat="45.5986956" lon="9.4192237"><ele>184.0</ele><time>2026-04-15T12:24:09.104Z</time></trkpt><trkpt lat="45.598616" lon="9.4192382"><ele>184.16666666666669</ele><time>2026-04-15T12:24:10.104Z</time></trkpt><trkpt lat="45.5985428" lon="9.4192545"><ele>184.33333333333334</ele><time>2026-04-15T12:24:11.103Z</time></trkpt><trkpt lat="45.5984676" lon="9.4192603"><ele>184.5</ele><time>2026-04-15T12:24:12.103Z</time></trkpt><trkpt lat="45.5983934" lon="9.4192787"><ele>184.66666666666666</ele><time>2026-04-15T12:24:13.104Z</time></trkpt><trkpt lat="45.5983174" lon="9.419295"><ele>184.83333333333331</ele><time>2026-04-15T12:24:14.104Z</time></trkpt><trkpt lat="45.5982358" lon="9.4193088"><ele>185.0</ele><time>2026-04-15T12:24:15.103Z</time></trkpt><trkpt lat="45.5981628" lon="9.4193181"><ele>185.0</ele><time>2026-04-15T12:24:16.104Z</time></trkpt><trkpt lat="45.5980854" lon="9.4193276"><ele>185.0</ele><time>2026-04-15T12:24:17.103Z</time></trkpt><trkpt lat="45.598007" lon="9.4193435"><ele>185.0</ele><time>2026-04-15T12:24:18.103Z</time></trkpt><trkpt lat="45.5979293" lon="9.4193596"><ele>185.0</ele><time>2026-04-15T12:24:19.103Z</time></trkpt><trkpt lat="45.5978559" lon="9.4193697"><ele>185.0</ele><time>2026-04-15T12:24:20.104Z</time></trkpt><trkpt lat="45.5977777" lon="9.4193796"><ele>185.0</ele><time>2026-04-15T12:24:21.103Z</time></trkpt><trkpt lat="45.5976984" lon="9.4193925"><ele>184.83333333333331</ele><time>2026-04-15T12:24:22.103Z</time></trkpt><trkpt lat="45.5976241" lon="9.4194061"><ele>184.66666666666666</ele><time>2026-04-15T12:24:23.103Z</time></trkpt><trkpt lat="45.5975465" lon="9.4194192"><ele>184.5</ele><time>2026-04-15T12:24:24.103Z</time></trkpt><trkpt lat="45.5974692" lon="9.4194414"><ele>184.33333333333334</ele><time>2026-04-15T12:24:25.103Z</time></trkpt><trkpt lat="45.597391" lon="9.4194589"><ele>184.16666666666669</ele><time>2026-04-15T12:24:26.103Z</time></trkpt><trkpt lat="45.5973177" lon="9.4194727"><ele>184.0</ele><time>2026-04-15T12:24:27.103Z</time></trkpt><trkpt lat="45.5972345" lon="9.4194873"><ele>184.0</ele><time>2026-04-15T12:24:28.103Z</time></trkpt><trkpt lat="45.5971534" lon="9.4195062"><ele>184.0</ele><time>2026-04-15T12:24:29.103Z</time></trkpt><trkpt lat="45.5970787" lon="9.419528"><ele>184.0</ele><time>2026-04-15T12:24:30.103Z</time></trkpt><trkpt lat="45.5970046" lon="9.4195543"><ele>184.0</ele><time>2026-04-15T12:24:31.103Z</time></trkpt><trkpt lat="45.5969254" lon="9.4195518"><ele>184.0</ele><time>2026-04-15T12:24:32.104Z</time></trkpt><trkpt lat="45.5968511" lon="9.4195365"><ele>184.0</ele><time>2026-04-15T12:24:33.104Z</time></trkpt><trkpt lat="45.5967868" lon="9.4195034"><ele>183.57142857142858</ele><time>2026-04-15T12:24:34.103Z</time></trkpt><trkpt lat="45.5967189" lon="9.4194516"><ele>183.14285714285714</ele><time>2026-04-15T12:24:35.103Z</time></trkpt><trkpt lat="45.5966639" lon="9.4193843"><ele>182.71428571428572</ele><time>2026-04-15T12:24:36.104Z</time></trkpt><trkpt lat="45.5966232" lon="9.4193019"><ele>182.28571428571428</ele><time>2026-04-15T12:24:37.103Z</time></trkpt><trkpt lat="45.596598" lon="9.4192108"><ele>181.85714285714283</ele><time>2026-04-15T12:24:38.104Z</time></trkpt><trkpt lat="45.5965791" lon="9.4191149"><ele>181.42857142857142</ele><time>2026-04-15T12:24:39.103Z</time></trkpt><trkpt lat="45.5965683" lon="9.4190164"><ele>181.0</ele><time>2026-04-15T12:24:40.104Z</time></trkpt><trkpt lat="45.5965594" lon="9.4189263"><ele>181.0</ele><time>2026-04-15T12:24:41.103Z</time></trkpt><trkpt lat="45.5965488" lon="9.4188319"><ele>181.0</ele><time>2026-04-15T12:24:42.103Z</time></trkpt><trkpt lat="45.5965269" lon="9.4187399"><ele>181.0</ele><time>2026-04-15T12:24:43.103Z</time></trkpt><trkpt lat="45.5965171" lon="9.4186443"><ele>181.0</ele><time>2026-04-15T12:24:44.103Z</time></trkpt><trkpt lat="45.5964953" lon="9.4184688"><ele>181.0</ele><time>2026-04-15T12:24:46.103Z</time></trkpt><trkpt lat="45.5964768" lon="9.4183815"><ele>181.0</ele><time>2026-04-15T12:24:47.104Z</time></trkpt><trkpt lat="45.5964566" lon="9.4182893"><ele>181.16666666666669</ele><time>2026-04-15T12:24:48.103Z</time></trkpt><trkpt lat="45.5964406" lon="9.4181951"><ele>181.33333333333334</ele><time>2026-04-15T12:24:49.104Z</time></trkpt><trkpt lat="45.5964084" lon="9.4180132"><ele>181.5</ele><time>2026-04-15T12:24:51.104Z</time></trkpt><trkpt lat="45.5963876" lon="9.4179212"><ele>181.66666666666666</ele><time>2026-04-15T12:24:52.104Z</time></trkpt><trkpt lat="45.5963687" lon="9.4178334"><ele>181.83333333333331</ele><time>2026-04-15T12:24:53.103Z</time></trkpt><trkpt lat="45.5963526" lon="9.4177413"><ele>182.0</ele><time>2026-04-15T12:24:54.103Z</time></trkpt><trkpt lat="45.5963153" lon="9.4175657"><ele>182.0</ele><time>2026-04-15T12:24:56.104Z</time></trkpt><trkpt lat="45.5962954" lon="9.4174745"><ele>182.0</ele><time>2026-04-15T12:24:57.103Z</time></trkpt><trkpt lat="45.5962767" lon="9.4173123"><ele>182.0</ele><time>2026-04-15T12:24:59.103Z</time></trkpt><trkpt lat="45.5962582" lon="9.4171708"><ele>182.0</ele><time>2026-04-15T12:25:01.104Z</time></trkpt><trkpt lat="45.5962148" lon="9.4170434"><ele>182.0</ele><time>2026-04-15T12:25:03.103Z</time></trkpt><trkpt lat="45.5961383" lon="9.4169413"><ele>182.0</ele><time>2026-04-15T12:25:05.103Z</time></trkpt><trkpt lat="45.5960615" lon="9.4169072"><ele>182.0</ele><time>2026-04-15T12:25:07.103Z</time></trkpt><trkpt lat="45.5959885" lon="9.4169054"><ele>182.0</ele><time>2026-04-15T12:25:09.104Z</time></trkpt><trkpt lat="45.5958759" lon="9.4168446"><ele>182.0</ele><time>2026-04-15T12:25:11.104Z</time></trkpt><trkpt lat="45.5957656" lon="9.4167651"><ele>182.0</ele><time>2026-04-15T12:25:13.104Z</time></trkpt><trkpt lat="45.5957023" lon="9.4167465"><ele>182.0</ele><time>2026-04-15T12:25:14.103Z</time></trkpt><trkpt lat="45.595582" lon="9.4167157"><ele>182.0</ele><time>2026-04-15T12:25:16.103Z</time></trkpt><trkpt lat="45.5955149" lon="9.416728"><ele>182.0</ele><time>2026-04-15T12:25:17.104Z</time></trkpt><trkpt lat="45.5954463" lon="9.4167293"><ele>182.0</ele><time>2026-04-15T12:25:18.103Z</time></trkpt><trkpt lat="45.5953763" lon="9.4167131"><ele>182.0</ele><time>2026-04-15T12:25:19.104Z</time></trkpt><trkpt lat="45.5953021" lon="9.4166883"><ele>182.0</ele><time>2026-04-15T12:25:20.104Z</time></trkpt><trkpt lat="45.5952198" lon="9.4166676"><ele>181.57142857142858</ele><time>2026-04-15T12:25:21.103Z</time></trkpt><trkpt lat="45.5951513" lon="9.4166316"><ele>181.14285714285714</ele><time>2026-04-15T12:25:22.103Z</time></trkpt><trkpt lat="45.5950834" lon="9.416597"><ele>180.71428571428572</ele><time>2026-04-15T12:25:23.104Z</time></trkpt><trkpt lat="45.5950167" lon="9.4165667"><ele>180.28571428571428</ele><time>2026-04-15T12:25:24.103Z</time></trkpt><trkpt lat="45.5949482" lon="9.4165443"><ele>179.85714285714286</ele><time>2026-04-15T12:25:25.103Z</time></trkpt><trkpt lat="45.5948774" lon="9.4165259"><ele>179.42857142857144</ele><time>2026-04-15T12:25:26.103Z</time></trkpt><trkpt lat="45.5948042" lon="9.4165116"><ele>179.0</ele><time>2026-04-15T12:25:27.103Z</time></trkpt><trkpt lat="45.5947346" lon="9.4164908"><ele>179.0</ele><time>2026-04-15T12:25:28.103Z</time></trkpt><trkpt lat="45.5946653" lon="9.4164697"><ele>179.0</ele><time>2026-04-15T12:25:29.103Z</time></trkpt><trkpt lat="45.5945869" lon="9.4164478"><ele>179.0</ele><time>2026-04-15T12:25:30.103Z</time></trkpt><trkpt lat="45.5945142" lon="9.4164246"><ele>179.0</ele><time>2026-04-15T12:25:31.103Z</time></trkpt><trkpt lat="45.5944389" lon="9.4164083"><ele>179.0</ele><time>2026-04-15T12:25:32.103Z</time></trkpt><trkpt lat="45.5943575" lon="9.4163787"><ele>179.0</ele><time>2026-04-15T12:25:33.104Z</time></trkpt><trkpt lat="45.5942809" lon="9.4163542"><ele>178.85714285714286</ele><time>2026-04-15T12:25:34.103Z</time></trkpt><trkpt lat="45.5942076" lon="9.4163497"><ele>178.71428571428572</ele><time>2026-04-15T12:25:35.103Z</time></trkpt><trkpt lat="45.5941324" lon="9.4163584"><ele>178.57142857142856</ele><time>2026-04-15T12:25:36.103Z</time></trkpt><trkpt lat="45.5940615" lon="9.4163942"><ele>178.42857142857144</ele><time>2026-04-15T12:25:37.104Z</time></trkpt><trkpt lat="45.5939966" lon="9.4164307"><ele>178.28571428571428</ele><time>2026-04-15T12:25:38.103Z</time></trkpt><trkpt lat="45.5939314" lon="9.4164664"><ele>178.14285714285714</ele><time>2026-04-15T12:25:39.104Z</time></trkpt><trkpt lat="45.593867" lon="9.4165023"><ele>178.0</ele><time>2026-04-15T12:25:40.103Z</time></trkpt><trkpt lat="45.5937971" lon="9.4165326"><ele>177.99999999999997</ele><time>2026-04-15T12:25:41.104Z</time></trkpt><trkpt lat="45.5937265" lon="9.4165349"><ele>178.0</ele><time>2026-04-15T12:25:42.103Z</time></trkpt><trkpt lat="45.5936583" lon="9.4165129"><ele>178.0</ele><time>2026-04-15T12:25:43.103Z</time></trkpt><trkpt lat="45.5935896" lon="9.4164686"><ele>178.0</ele><time>2026-04-15T12:25:44.103Z</time></trkpt><trkpt lat="45.593524" lon="9.416406"><ele>178.0</ele><time>2026-04-15T12:25:45.103Z</time></trkpt><trkpt lat="45.593456" lon="9.4163424"><ele>177.99999999999997</ele><time>2026-04-15T12:25:46.103Z</time></trkpt><trkpt lat="45.5933967" lon="9.4162833"><ele>178.0</ele><time>2026-04-15T12:25:47.104Z</time></trkpt><trkpt lat="45.593328" lon="9.4162355"><ele>177.99999999999997</ele><time>2026-04-15T12:25:48.103Z</time></trkpt><trkpt lat="45.5932561" lon="9.4162055"><ele>178.0</ele><time>2026-04-15T12:25:49.104Z</time></trkpt><trkpt lat="45.5931845" lon="9.4161837"><ele>178.0</ele><time>2026-04-15T12:25:50.103Z</time></trkpt><trkpt lat="45.5931109" lon="9.416161"><ele>178.0</ele><time>2026-04-15T12:25:51.103Z</time></trkpt><trkpt lat="45.5930403" lon="9.416148"><ele>178.0</ele><time>2026-04-15T12:25:52.103Z</time></trkpt><trkpt lat="45.5929665" lon="9.4161273"><ele>177.99999999999997</ele><time>2026-04-15T12:25:53.103Z</time></trkpt><trkpt lat="45.5928925" lon="9.4161085"><ele>178.0</ele><time>2026-04-15T12:25:54.103Z</time></trkpt><trkpt lat="45.5928211" lon="9.416102"><ele>177.83333333333334</ele><time>2026-04-15T12:25:55.103Z</time></trkpt><trkpt lat="45.5927449" lon="9.4160808"><ele>177.66666666666669</ele><time>2026-04-15T12:25:56.103Z</time></trkpt><trkpt lat="45.5926695" lon="9.4160597"><ele>177.5</ele><time>2026-04-15T12:25:57.104Z</time></trkpt><trkpt lat="45.5925973" lon="9.4160411"><ele>177.33333333333334</ele><time>2026-04-15T12:25:58.104Z</time></trkpt><trkpt lat="45.5925189" lon="9.4160218"><ele>177.16666666666666</ele><time>2026-04-15T12:25:59.103Z</time></trkpt><trkpt lat="45.5924464" lon="9.4160062"><ele>177.0</ele><time>2026-04-15T12:26:00.103Z</time></trkpt><trkpt lat="45.5923713" lon="9.4159838"><ele>177.0</ele><time>2026-04-15T12:26:01.104Z</time></trkpt><trkpt lat="45.5923006" lon="9.4159587"><ele>177.0</ele><time>2026-04-15T12:26:02.103Z</time></trkpt><trkpt lat="45.5922293" lon="9.4159396"><ele>177.0</ele><time>2026-04-15T12:26:03.104Z</time></trkpt><trkpt lat="45.5921606" lon="9.4159142"><ele>177.0</ele><time>2026-04-15T12:26:04.103Z</time></trkpt><trkpt lat="45.5920866" lon="9.4158958"><ele>177.0</ele><time>2026-04-15T12:26:05.103Z</time></trkpt><trkpt lat="45.5920133" lon="9.415879"><ele>177.0</ele><time>2026-04-15T12:26:06.103Z</time></trkpt><trkpt lat="45.5919354" lon="9.4158633"><ele>177.0</ele><time>2026-04-15T12:26:07.104Z</time></trkpt><trkpt lat="45.5918637" lon="9.4158431"><ele>176.83333333333334</ele><time>2026-04-15T12:26:08.103Z</time></trkpt><trkpt lat="45.5917889" lon="9.4158264"><ele>176.66666666666666</ele><time>2026-04-15T12:26:09.103Z</time></trkpt><trkpt lat="45.5917153" lon="9.4158051"><ele>176.5</ele><time>2026-04-15T12:26:10.103Z</time></trkpt><trkpt lat="45.5916418" lon="9.4157883"><ele>176.33333333333331</ele><time>2026-04-15T12:26:11.103Z</time></trkpt><trkpt lat="45.5915675" lon="9.4157701"><ele>176.16666666666666</ele><time>2026-04-15T12:26:12.103Z</time></trkpt><trkpt lat="45.5914943" lon="9.41575"><ele>176.0</ele><time>2026-04-15T12:26:13.103Z</time></trkpt><trkpt lat="45.5914164" lon="9.4157313"><ele>176.0</ele><time>2026-04-15T12:26:14.103Z</time></trkpt><trkpt lat="45.5913439" lon="9.415705"><ele>176.0</ele><time>2026-04-15T12:26:15.103Z</time></trkpt><trkpt lat="45.5912701" lon="9.4156915"><ele>176.0</ele><time>2026-04-15T12:26:16.103Z</time></trkpt><trkpt lat="45.5911956" lon="9.4156728"><ele>176.0</ele><time>2026-04-15T12:26:17.103Z</time></trkpt><trkpt lat="45.591123" lon="9.4156549"><ele>176.0</ele><time>2026-04-15T12:26:18.103Z</time></trkpt><trkpt lat="45.5910497" lon="9.4156342"><ele>176.0</ele><time>2026-04-15T12:26:19.104Z</time></trkpt><trkpt lat="45.590977" lon="9.4156168"><ele>176.0</ele><time>2026-04-15T12:26:20.103Z</time></trkpt><trkpt lat="45.5908988" lon="9.4155897"><ele>176.14285714285714</ele><time>2026-04-15T12:26:21.103Z</time></trkpt><trkpt lat="45.5908271" lon="9.415573"><ele>176.28571428571428</ele><time>2026-04-15T12:26:22.103Z</time></trkpt><trkpt lat="45.5907581" lon="9.4155516"><ele>176.42857142857144</ele><time>2026-04-15T12:26:23.104Z</time></trkpt><trkpt lat="45.5906874" lon="9.4155311"><ele>176.57142857142856</ele><time>2026-04-15T12:26:24.103Z</time></trkpt><trkpt lat="45.5906118" lon="9.4155097"><ele>176.7142857142857</ele><time>2026-04-15T12:26:25.104Z</time></trkpt><trkpt lat="45.5905408" lon="9.4154881"><ele>176.85714285714286</ele><time>2026-04-15T12:26:26.103Z</time></trkpt><trkpt lat="45.5904734" lon="9.4154649"><ele>177.0</ele><time>2026-04-15T12:26:27.104Z</time></trkpt><trkpt lat="45.5904072" lon="9.4154375"><ele>177.33333333333334</ele><time>2026-04-15T12:26:28.103Z</time></trkpt><trkpt lat="45.5903435" lon="9.4154098"><ele>177.66666666666666</ele><time>2026-04-15T12:26:29.104Z</time></trkpt><trkpt lat="45.5902795" lon="9.4153955"><ele>178.0</ele><time>2026-04-15T12:26:30.103Z</time></trkpt><trkpt lat="45.5901404" lon="9.4153674"><ele>178.33333333333331</ele><time>2026-04-15T12:26:32.103Z</time></trkpt><trkpt lat="45.5900731" lon="9.4153474"><ele>178.66666666666666</ele><time>2026-04-15T12:26:33.103Z</time></trkpt><trkpt lat="45.5899984" lon="9.4153336"><ele>179.0</ele><time>2026-04-15T12:26:34.104Z</time></trkpt><trkpt lat="45.5899327" lon="9.4153076"><ele>179.0</ele><time>2026-04-15T12:26:35.104Z</time></trkpt><trkpt lat="45.589869" lon="9.4152896"><ele>179.0</ele><time>2026-04-15T12:26:36.103Z</time></trkpt><trkpt lat="45.5897961" lon="9.4152636"><ele>179.0</ele><time>2026-04-15T12:26:37.103Z</time></trkpt><trkpt lat="45.5896734" lon="9.4152073"><ele>179.0</ele><time>2026-04-15T12:26:39.103Z</time></trkpt><trkpt lat="45.5896085" lon="9.4151844"><ele>179.0</ele><time>2026-04-15T12:26:40.103Z</time></trkpt><trkpt lat="45.5895448" lon="9.4151715"><ele>179.0</ele><time>2026-04-15T12:26:41.103Z</time></trkpt><trkpt lat="45.5894814" lon="9.4151533"><ele>178.66666666666666</ele><time>2026-04-15T12:26:42.103Z</time></trkpt><trkpt lat="45.5894125" lon="9.415153"><ele>178.33333333333331</ele><time>2026-04-15T12:26:43.103Z</time></trkpt><trkpt lat="45.5893481" lon="9.4151515"><ele>178.0</ele><time>2026-04-15T12:26:44.103Z</time></trkpt><trkpt lat="45.5892464" lon="9.415171"><ele>177.66666666666666</ele><time>2026-04-15T12:26:46.103Z</time></trkpt><trkpt lat="45.5891729" lon="9.4150755"><ele>177.33333333333334</ele><time>2026-04-15T12:26:49.103Z</time></trkpt><trkpt lat="45.5890939" lon="9.4149843"><ele>177.0</ele><time>2026-04-15T12:26:51.103Z</time></trkpt><trkpt lat="45.5890519" lon="9.4148506"><ele>177.0</ele><time>2026-04-15T12:26:53.104Z</time></trkpt><trkpt lat="45.5890563" lon="9.4147077"><ele>177.0</ele><time>2026-04-15T12:26:55.103Z</time></trkpt><trkpt lat="45.5890836" lon="9.414596"><ele>177.0</ele><time>2026-04-15T12:26:57.103Z</time></trkpt><trkpt lat="45.5891071" lon="9.4145019"><ele>177.0</ele><time>2026-04-15T12:26:59.104Z</time></trkpt><trkpt lat="45.5891012" lon="9.4143916"><ele>177.0</ele><time>2026-04-15T12:27:01.103Z</time></trkpt><trkpt lat="45.5890793" lon="9.4142242"><ele>177.0</ele><time>2026-04-15T12:27:03.104Z</time></trkpt><trkpt lat="45.5890574" lon="9.4140772"><ele>177.25</ele><time>2026-04-15T12:27:05.103Z</time></trkpt><trkpt lat="45.5890169" lon="9.4139256"><ele>177.5</ele><time>2026-04-15T12:27:07.103Z</time></trkpt><trkpt lat="45.5889641" lon="9.413782"><ele>177.75</ele><time>2026-04-15T12:27:09.104Z</time></trkpt><trkpt lat="45.5889175" lon="9.4136328"><ele>178.0</ele><time>2026-04-15T12:27:11.103Z</time></trkpt><trkpt lat="45.5888753" lon="9.4134849"><ele>177.60000000000002</ele><time>2026-04-15T12:27:13.103Z</time></trkpt><trkpt lat="45.5888338" lon="9.413328"><ele>177.20000000000002</ele><time>2026-04-15T12:27:15.104Z</time></trkpt><trkpt lat="45.5887834" lon="9.4131563"><ele>176.8</ele><time>2026-04-15T12:27:17.103Z</time></trkpt><trkpt lat="45.5887293" lon="9.4129895"><ele>176.4</ele><time>2026-04-15T12:27:19.104Z</time></trkpt><trkpt lat="45.5887093" lon="9.4128982"><ele>176.0</ele><time>2026-04-15T12:27:20.103Z</time></trkpt><trkpt lat="45.5886806" lon="9.4128032"><ele>176.0</ele><time>2026-04-15T12:27:21.103Z</time></trkpt><trkpt lat="45.5886544" lon="9.4127017"><ele>176.0</ele><time>2026-04-15T12:27:22.103Z</time></trkpt><trkpt lat="45.5886203" lon="9.4126156"><ele>176.0</ele><time>2026-04-15T12:27:23.104Z</time></trkpt><trkpt lat="45.5885949" lon="9.4125122"><ele>176.0</ele><time>2026-04-15T12:27:24.104Z</time></trkpt><trkpt lat="45.58857" lon="9.4124158"><ele>176.0</ele><time>2026-04-15T12:27:25.103Z</time></trkpt><trkpt lat="45.5885418" lon="9.4123171"><ele>176.0</ele><time>2026-04-15T12:27:26.103Z</time></trkpt><trkpt lat="45.5885144" lon="9.4122261"><ele>176.0</ele><time>2026-04-15T12:27:27.103Z</time></trkpt><trkpt lat="45.5884813" lon="9.4121338"><ele>176.0</ele><time>2026-04-15T12:27:28.104Z</time></trkpt><trkpt lat="45.5884574" lon="9.4120416"><ele>176.0</ele><time>2026-04-15T12:27:29.103Z</time></trkpt><trkpt lat="45.5884278" lon="9.411947"><ele>176.0</ele><time>2026-04-15T12:27:30.104Z</time></trkpt><trkpt lat="45.5884017" lon="9.4118577"><ele>176.0</ele><time>2026-04-15T12:27:31.104Z</time></trkpt><trkpt lat="45.5883795" lon="9.4117609"><ele>176.0</ele><time>2026-04-15T12:27:32.103Z</time></trkpt><trkpt lat="45.5883475" lon="9.4116501"><ele>176.0</ele><time>2026-04-15T12:27:33.103Z</time></trkpt><trkpt lat="45.5883162" lon="9.4115487"><ele>176.0</ele><time>2026-04-15T12:27:34.103Z</time></trkpt><trkpt lat="45.5882859" lon="9.4114498"><ele>176.0</ele><time>2026-04-15T12:27:35.103Z</time></trkpt><trkpt lat="45.5882547" lon="9.4113528"><ele>176.0</ele><time>2026-04-15T12:27:36.104Z</time></trkpt><trkpt lat="45.588226" lon="9.4112554"><ele>176.0</ele><time>2026-04-15T12:27:37.103Z</time></trkpt><trkpt lat="45.5881918" lon="9.4111537"><ele>176.0</ele><time>2026-04-15T12:27:38.103Z</time></trkpt><trkpt lat="45.5881595" lon="9.4110608"><ele>176.0</ele><time>2026-04-15T12:27:39.104Z</time></trkpt><trkpt lat="45.5881319" lon="9.41096"><ele>176.0</ele><time>2026-04-15T12:27:40.103Z</time></trkpt><trkpt lat="45.5881032" lon="9.4108672"><ele>176.0</ele><time>2026-04-15T12:27:41.103Z</time></trkpt><trkpt lat="45.5880729" lon="9.4107722"><ele>175.83333333333331</ele><time>2026-04-15T12:27:42.103Z</time></trkpt><trkpt lat="45.5880422" lon="9.410669"><ele>175.66666666666666</ele><time>2026-04-15T12:27:43.103Z</time></trkpt><trkpt lat="45.5880125" lon="9.4105603"><ele>175.5</ele><time>2026-04-15T12:27:44.104Z</time></trkpt><trkpt lat="45.5879798" lon="9.4104628"><ele>175.33333333333334</ele><time>2026-04-15T12:27:45.103Z</time></trkpt><trkpt lat="45.5879483" lon="9.4103643"><ele>175.16666666666669</ele><time>2026-04-15T12:27:46.103Z</time></trkpt><trkpt lat="45.5879144" lon="9.4102653"><ele>175.0</ele><time>2026-04-15T12:27:47.104Z</time></trkpt><trkpt lat="45.5878909" lon="9.41017"><ele>175.0</ele><time>2026-04-15T12:27:48.103Z</time></trkpt><trkpt lat="45.5878671" lon="9.4100782"><ele>175.0</ele><time>2026-04-15T12:27:49.104Z</time></trkpt><trkpt lat="45.5878441" lon="9.4099667"><ele>175.0</ele><time>2026-04-15T12:27:50.103Z</time></trkpt><trkpt lat="45.5878192" lon="9.409865"><ele>175.0</ele><time>2026-04-15T12:27:51.103Z</time></trkpt><trkpt lat="45.5877877" lon="9.4097628"><ele>175.0</ele><time>2026-04-15T12:27:52.103Z</time></trkpt><trkpt lat="45.587756" lon="9.4096652"><ele>175.0</ele><time>2026-04-15T12:27:53.104Z</time></trkpt><trkpt lat="45.5877207" lon="9.409567"><ele>174.66666666666669</ele><time>2026-04-15T12:27:54.103Z</time></trkpt><trkpt lat="45.5876871" lon="9.4094705"><ele>174.33333333333334</ele><time>2026-04-15T12:27:55.103Z</time></trkpt><trkpt lat="45.5876461" lon="9.4093751"><ele>174.0</ele><time>2026-04-15T12:27:56.103Z</time></trkpt><trkpt lat="45.5876069" lon="9.4092813"><ele>173.66666666666666</ele><time>2026-04-15T12:27:57.104Z</time></trkpt><trkpt lat="45.5875687" lon="9.4091897"><ele>173.33333333333331</ele><time>2026-04-15T12:27:58.103Z</time></trkpt><trkpt lat="45.5875346" lon="9.4090897"><ele>173.0</ele><time>2026-04-15T12:27:59.103Z</time></trkpt><trkpt lat="45.5874956" lon="9.4089868"><ele>173.0</ele><time>2026-04-15T12:28:00.103Z</time></trkpt><trkpt lat="45.5874594" lon="9.4088862"><ele>173.0</ele><time>2026-04-15T12:28:01.103Z</time></trkpt><trkpt lat="45.5874222" lon="9.4087942"><ele>173.0</ele><time>2026-04-15T12:28:02.103Z</time></trkpt><trkpt lat="45.5873812" lon="9.4087027"><ele>173.0</ele><time>2026-04-15T12:28:03.104Z</time></trkpt><trkpt lat="45.5873387" lon="9.4086144"><ele>173.0</ele><time>2026-04-15T12:28:04.103Z</time></trkpt><trkpt lat="45.5872909" lon="9.4085312"><ele>173.0</ele><time>2026-04-15T12:28:05.103Z</time></trkpt><trkpt lat="45.587242" lon="9.4084523"><ele>173.0</ele><time>2026-04-15T12:28:06.104Z</time></trkpt><trkpt lat="45.5871888" lon="9.4083786"><ele>173.0</ele><time>2026-04-15T12:28:07.104Z</time></trkpt><trkpt lat="45.5871326" lon="9.408307"><ele>173.0</ele><time>2026-04-15T12:28:08.103Z</time></trkpt><trkpt lat="45.5870715" lon="9.4082376"><ele>173.0</ele><time>2026-04-15T12:28:09.103Z</time></trkpt><trkpt lat="45.5870056" lon="9.4081718"><ele>173.0</ele><time>2026-04-15T12:28:10.104Z</time></trkpt><trkpt lat="45.5869374" lon="9.4081111"><ele>173.0</ele><time>2026-04-15T12:28:11.104Z</time></trkpt><trkpt lat="45.5868675" lon="9.4080503"><ele>173.0</ele><time>2026-04-15T12:28:12.103Z</time></trkpt><trkpt lat="45.5867961" lon="9.408008"><ele>173.0</ele><time>2026-04-15T12:28:13.103Z</time></trkpt><trkpt lat="45.5867238" lon="9.407953"><ele>173.0</ele><time>2026-04-15T12:28:14.103Z</time></trkpt><trkpt lat="45.5866497" lon="9.4079147"><ele>173.0</ele><time>2026-04-15T12:28:15.103Z</time></trkpt><trkpt lat="45.5865718" lon="9.4078767"><ele>173.0</ele><time>2026-04-15T12:28:16.103Z</time></trkpt><trkpt lat="45.586492" lon="9.4078386"><ele>173.0</ele><time>2026-04-15T12:28:17.103Z</time></trkpt><trkpt lat="45.5864165" lon="9.4078031"><ele>172.5</ele><time>2026-04-15T12:28:18.103Z</time></trkpt><trkpt lat="45.5863377" lon="9.4077659"><ele>172.0</ele><time>2026-04-15T12:28:19.103Z</time></trkpt><trkpt lat="45.5862595" lon="9.4077495"><ele>171.5</ele><time>2026-04-15T12:28:20.103Z</time></trkpt><trkpt lat="45.5861795" lon="9.4077553"><ele>171.0</ele><time>2026-04-15T12:28:21.103Z</time></trkpt><trkpt lat="45.5860988" lon="9.4077665"><ele>170.5</ele><time>2026-04-15T12:28:22.103Z</time></trkpt><trkpt lat="45.5860178" lon="9.4077712"><ele>170.0</ele><time>2026-04-15T12:28:23.103Z</time></trkpt><trkpt lat="45.5859428" lon="9.407796"><ele>170.0</ele><time>2026-04-15T12:28:24.103Z</time></trkpt><trkpt lat="45.5858649" lon="9.4078252"><ele>170.0</ele><time>2026-04-15T12:28:25.103Z</time></trkpt><trkpt lat="45.585787" lon="9.4078534"><ele>170.0</ele><time>2026-04-15T12:28:26.103Z</time></trkpt><trkpt lat="45.5857116" lon="9.407887"><ele>170.0</ele><time>2026-04-15T12:28:27.103Z</time></trkpt><trkpt lat="45.5856378" lon="9.4079256"><ele>170.0</ele><time>2026-04-15T12:28:28.103Z</time></trkpt><trkpt lat="45.5855682" lon="9.4079566"><ele>170.0</ele><time>2026-04-15T12:28:29.104Z</time></trkpt><trkpt lat="45.5854953" lon="9.4080007"><ele>170.0</ele><time>2026-04-15T12:28:30.103Z</time></trkpt><trkpt lat="45.5854243" lon="9.4080299"><ele>170.0</ele><time>2026-04-15T12:28:31.104Z</time></trkpt><trkpt lat="45.585353" lon="9.4080702"><ele>170.0</ele><time>2026-04-15T12:28:32.103Z</time></trkpt><trkpt lat="45.5852837" lon="9.4081039"><ele>170.0</ele><time>2026-04-15T12:28:33.103Z</time></trkpt><trkpt lat="45.5852197" lon="9.4081375"><ele>170.0</ele><time>2026-04-15T12:28:34.103Z</time></trkpt><trkpt lat="45.5851508" lon="9.4081695"><ele>170.0</ele><time>2026-04-15T12:28:35.103Z</time></trkpt><trkpt lat="45.5850878" lon="9.4082057"><ele>170.0</ele><time>2026-04-15T12:28:36.103Z</time></trkpt><trkpt lat="45.5850232" lon="9.4082344"><ele>170.2</ele><time>2026-04-15T12:28:37.103Z</time></trkpt><trkpt lat="45.584907" lon="9.4082881"><ele>170.4</ele><time>2026-04-15T12:28:39.104Z</time></trkpt><trkpt lat="45.5848419" lon="9.4083238"><ele>170.60000000000002</ele><time>2026-04-15T12:28:41.104Z</time></trkpt><trkpt lat="45.5847656" lon="9.4083568"><ele>170.8</ele><time>2026-04-15T12:28:43.104Z</time></trkpt><trkpt lat="45.5846641" lon="9.4083865"><ele>171.0</ele><time>2026-04-15T12:28:45.103Z</time></trkpt><trkpt lat="45.5845583" lon="9.4083802"><ele>171.0</ele><time>2026-04-15T12:28:47.103Z</time></trkpt><trkpt lat="45.5844691" lon="9.4084299"><ele>171.0</ele><time>2026-04-15T12:28:49.104Z</time></trkpt><trkpt lat="45.5843636" lon="9.408492"><ele>171.0</ele><time>2026-04-15T12:28:52.104Z</time></trkpt><trkpt lat="45.5843003" lon="9.4085342"><ele>171.0</ele><time>2026-04-15T12:28:53.103Z</time></trkpt><trkpt lat="45.5841982" lon="9.4086052"><ele>171.0</ele><time>2026-04-15T12:28:55.103Z</time></trkpt><trkpt lat="45.5840961" lon="9.4086541"><ele>171.0</ele><time>2026-04-15T12:28:57.103Z</time></trkpt><trkpt lat="45.5839798" lon="9.4087269"><ele>171.0</ele><time>2026-04-15T12:28:59.103Z</time></trkpt><trkpt lat="45.5838633" lon="9.4087824"><ele>171.0</ele><time>2026-04-15T12:29:01.104Z</time></trkpt><trkpt lat="45.5837414" lon="9.4088428"><ele>171.0</ele><time>2026-04-15T12:29:03.103Z</time></trkpt><trkpt lat="45.5836399" lon="9.4089068"><ele>170.60000000000002</ele><time>2026-04-15T12:29:05.103Z</time></trkpt><trkpt lat="45.5835314" lon="9.4089637"><ele>170.2</ele><time>2026-04-15T12:29:07.103Z</time></trkpt><trkpt lat="45.583465" lon="9.4090051"><ele>169.8</ele><time>2026-04-15T12:29:08.104Z</time></trkpt><trkpt lat="45.5833545" lon="9.4090775"><ele>169.39999999999998</ele><time>2026-04-15T12:29:10.103Z</time></trkpt><trkpt lat="45.5832449" lon="9.4091321"><ele>169.0</ele><time>2026-04-15T12:29:12.104Z</time></trkpt><trkpt lat="45.5831871" lon="9.4091717"><ele>169.0</ele><time>2026-04-15T12:29:13.103Z</time></trkpt><trkpt lat="45.5830735" lon="9.4092511"><ele>169.0</ele><time>2026-04-15T12:29:15.103Z</time></trkpt><trkpt lat="45.5829634" lon="9.4093355"><ele>169.0</ele><time>2026-04-15T12:29:17.103Z</time></trkpt><trkpt lat="45.5828592" lon="9.4093939"><ele>169.0</ele><time>2026-04-15T12:29:19.103Z</time></trkpt><trkpt lat="45.582756" lon="9.4094413"><ele>169.39999999999998</ele><time>2026-04-15T12:29:21.104Z</time></trkpt><trkpt lat="45.5826729" lon="9.4095158"><ele>169.8</ele><time>2026-04-15T12:29:23.103Z</time></trkpt><trkpt lat="45.582569" lon="9.4095859"><ele>170.2</ele><time>2026-04-15T12:29:25.103Z</time></trkpt><trkpt lat="45.5824928" lon="9.4096156"><ele>170.60000000000002</ele><time>2026-04-15T12:29:26.103Z</time></trkpt><trkpt lat="45.5824501" lon="9.4097356"><ele>171.0</ele><time>2026-04-15T12:29:28.103Z</time></trkpt><trkpt lat="45.582423" lon="9.4098244"><ele>171.0</ele><time>2026-04-15T12:29:30.103Z</time></trkpt><trkpt lat="45.5823815" lon="9.4098949"><ele>171.0</ele><time>2026-04-15T12:29:35.103Z</time></trkpt><trkpt lat="45.5823224" lon="9.4099308"><ele>171.0</ele><time>2026-04-15T12:29:37.104Z</time></trkpt><trkpt lat="45.5822618" lon="9.4098859"><ele>171.0</ele><time>2026-04-15T12:29:39.103Z</time></trkpt><trkpt lat="45.5821906" lon="9.4098268"><ele>171.0</ele><time>2026-04-15T12:29:41.103Z</time></trkpt><trkpt lat="45.5820871" lon="9.4098522"><ele>171.0</ele><time>2026-04-15T12:29:43.103Z</time></trkpt><trkpt lat="45.5819827" lon="9.4099002"><ele>171.0</ele><time>2026-04-15T12:29:45.103Z</time></trkpt><trkpt lat="45.5818649" lon="9.4099473"><ele>171.0</ele><time>2026-04-15T12:29:47.104Z</time></trkpt><trkpt lat="45.581752" lon="9.4099946"><ele>171.0</ele><time>2026-04-15T12:29:49.104Z</time></trkpt><trkpt lat="45.5816419" lon="9.4100537"><ele>171.0</ele><time>2026-04-15T12:29:51.103Z</time></trkpt><trkpt lat="45.581528" lon="9.4100931"><ele>171.0</ele><time>2026-04-15T12:29:53.104Z</time></trkpt><trkpt lat="45.5814371" lon="9.4101481"><ele>171.0</ele><time>2026-04-15T12:29:55.103Z</time></trkpt><trkpt lat="45.5813755" lon="9.4101779"><ele>171.0</ele><time>2026-04-15T12:29:56.103Z</time></trkpt><trkpt lat="45.5812821" lon="9.4102184"><ele>171.0</ele><time>2026-04-15T12:29:58.104Z</time></trkpt><trkpt lat="45.5812207" lon="9.4102527"><ele>171.0</ele><time>2026-04-15T12:29:59.104Z</time></trkpt><trkpt lat="45.5811582" lon="9.4103064"><ele>171.0</ele><time>2026-04-15T12:30:01.103Z</time></trkpt><trkpt lat="45.5810874" lon="9.4103991"><ele>171.0</ele><time>2026-04-15T12:30:03.103Z</time></trkpt><trkpt lat="45.5810169" lon="9.4105167"><ele>171.0</ele><time>2026-04-15T12:30:05.103Z</time></trkpt><trkpt lat="45.5809768" lon="9.4105886"><ele>171.0</ele><time>2026-04-15T12:30:06.103Z</time></trkpt><trkpt lat="45.5808864" lon="9.4107231"><ele>171.0</ele><time>2026-04-15T12:30:08.103Z</time></trkpt><trkpt lat="45.5808543" lon="9.4108606"><ele>171.0</ele><time>2026-04-15T12:30:10.103Z</time></trkpt><trkpt lat="45.5808218" lon="9.4109887"><ele>171.0</ele><time>2026-04-15T12:30:12.104Z</time></trkpt><trkpt lat="45.5807974" lon="9.4110806"><ele>171.0</ele><time>2026-04-15T12:30:15.104Z</time></trkpt><trkpt lat="45.5807196" lon="9.4111101"><ele>171.0</ele><time>2026-04-15T12:30:19.103Z</time></trkpt><trkpt lat="45.5806466" lon="9.4110719"><ele>171.0</ele><time>2026-04-15T12:30:22.103Z</time></trkpt><trkpt lat="45.5805534" lon="9.4110916"><ele>171.0</ele><time>2026-04-15T12:30:25.103Z</time></trkpt><trkpt lat="45.5804757" lon="9.4111177"><ele>171.0</ele><time>2026-04-15T12:30:27.103Z</time></trkpt><trkpt lat="45.5803917" lon="9.4110968"><ele>171.0</ele><time>2026-04-15T12:30:29.103Z</time></trkpt><trkpt lat="45.5803325" lon="9.4110281"><ele>171.0</ele><time>2026-04-15T12:30:31.103Z</time></trkpt><trkpt lat="45.5802605" lon="9.4110012"><ele>171.0</ele><time>2026-04-15T12:30:34.103Z</time></trkpt><trkpt lat="45.5802398" lon="9.4111373"><ele>171.0</ele><time>2026-04-15T12:30:37.104Z</time></trkpt><trkpt lat="45.5802684" lon="9.4112517"><ele>171.0</ele><time>2026-04-15T12:30:39.104Z</time></trkpt><trkpt lat="45.5802603" lon="9.4113859"><ele>171.0</ele><time>2026-04-15T12:30:41.103Z</time></trkpt><trkpt lat="45.5802206" lon="9.4115376"><ele>171.0</ele><time>2026-04-15T12:30:43.103Z</time></trkpt><trkpt lat="45.580143" lon="9.4116444"><ele>171.0</ele><time>2026-04-15T12:30:45.103Z</time></trkpt><trkpt lat="45.580043" lon="9.4117156"><ele>171.0</ele><time>2026-04-15T12:30:47.103Z</time></trkpt><trkpt lat="45.5799433" lon="9.4117746"><ele>171.0</ele><time>2026-04-15T12:30:49.103Z</time></trkpt><trkpt lat="45.5798302" lon="9.4118475"><ele>171.0</ele><time>2026-04-15T12:30:51.103Z</time></trkpt><trkpt lat="45.5797689" lon="9.4118846"><ele>171.0</ele><time>2026-04-15T12:30:52.104Z</time></trkpt><trkpt lat="45.5796605" lon="9.4119457"><ele>171.0</ele><time>2026-04-15T12:30:54.103Z</time></trkpt><trkpt lat="45.5795982" lon="9.4119815"><ele>171.0</ele><time>2026-04-15T12:30:55.104Z</time></trkpt><trkpt lat="45.5794744" lon="9.4120409"><ele>171.0</ele><time>2026-04-15T12:30:57.103Z</time></trkpt><trkpt lat="45.5793528" lon="9.4120968"><ele>170.60000000000002</ele><time>2026-04-15T12:30:59.103Z</time></trkpt><trkpt lat="45.5792899" lon="9.4121279"><ele>170.2</ele><time>2026-04-15T12:31:00.103Z</time></trkpt><trkpt lat="45.5791701" lon="9.4121757"><ele>169.8</ele><time>2026-04-15T12:31:02.103Z</time></trkpt><trkpt lat="45.5790558" lon="9.4122145"><ele>169.39999999999998</ele><time>2026-04-15T12:31:04.104Z</time></trkpt><trkpt lat="45.5789454" lon="9.4122461"><ele>169.0</ele><time>2026-04-15T12:31:06.103Z</time></trkpt><trkpt lat="45.578834" lon="9.4122903"><ele>169.0</ele><time>2026-04-15T12:31:08.103Z</time></trkpt><trkpt lat="45.578742" lon="9.4123268"><ele>169.0</ele><time>2026-04-15T12:31:10.104Z</time></trkpt><trkpt lat="45.5786432" lon="9.4123502"><ele>169.0</ele><time>2026-04-15T12:31:12.103Z</time></trkpt><trkpt lat="45.5785471" lon="9.4123809"><ele>169.0</ele><time>2026-04-15T12:31:14.103Z</time></trkpt><trkpt lat="45.5784362" lon="9.4124251"><ele>169.0</ele><time>2026-04-15T12:31:16.103Z</time></trkpt><trkpt lat="45.5783179" lon="9.4124626"><ele>168.66666666666669</ele><time>2026-04-15T12:31:18.103Z</time></trkpt><trkpt lat="45.5782057" lon="9.4125021"><ele>168.33333333333334</ele><time>2026-04-15T12:31:20.103Z</time></trkpt><trkpt lat="45.5780862" lon="9.4125406"><ele>168.0</ele><time>2026-04-15T12:31:22.103Z</time></trkpt><trkpt lat="45.5780229" lon="9.4125714"><ele>167.66666666666666</ele><time>2026-04-15T12:31:23.103Z</time></trkpt><trkpt lat="45.5779569" lon="9.4125985"><ele>167.33333333333331</ele><time>2026-04-15T12:31:24.104Z</time></trkpt><trkpt lat="45.5778859" lon="9.4126216"><ele>167.0</ele><time>2026-04-15T12:31:25.104Z</time></trkpt><trkpt lat="45.5778112" lon="9.4126444"><ele>166.5</ele><time>2026-04-15T12:31:26.103Z</time></trkpt><trkpt lat="45.5777423" lon="9.4126728"><ele>166.0</ele><time>2026-04-15T12:31:27.104Z</time></trkpt><trkpt lat="45.5776651" lon="9.4126979"><ele>165.5</ele><time>2026-04-15T12:31:28.104Z</time></trkpt><trkpt lat="45.5775892" lon="9.4127169"><ele>165.0</ele><time>2026-04-15T12:31:29.104Z</time></trkpt><trkpt lat="45.5775105" lon="9.4127423"><ele>164.5</ele><time>2026-04-15T12:31:30.103Z</time></trkpt><trkpt lat="45.5774288" lon="9.4127768"><ele>164.0</ele><time>2026-04-15T12:31:31.103Z</time></trkpt><trkpt lat="45.5773503" lon="9.4128068"><ele>164.0</ele><time>2026-04-15T12:31:32.103Z</time></trkpt><trkpt lat="45.577268" lon="9.4128321"><ele>164.0</ele><time>2026-04-15T12:31:33.104Z</time></trkpt><trkpt lat="45.577189" lon="9.41286"><ele>164.0</ele><time>2026-04-15T12:31:34.103Z</time></trkpt><trkpt lat="45.5771076" lon="9.4128918"><ele>164.0</ele><time>2026-04-15T12:31:35.103Z</time></trkpt><trkpt lat="45.5770235" lon="9.4129221"><ele>164.0</ele><time>2026-04-15T12:31:36.103Z</time></trkpt><trkpt lat="45.5769451" lon="9.4129489"><ele>164.0</ele><time>2026-04-15T12:31:37.104Z</time></trkpt><trkpt lat="45.5768616" lon="9.4129816"><ele>164.33333333333331</ele><time>2026-04-15T12:31:38.104Z</time></trkpt><trkpt lat="45.5767815" lon="9.4130147"><ele>164.66666666666666</ele><time>2026-04-15T12:31:39.104Z</time></trkpt><trkpt lat="45.5767062" lon="9.4130397"><ele>165.0</ele><time>2026-04-15T12:31:40.104Z</time></trkpt><trkpt lat="45.5766277" lon="9.4130631"><ele>165.33333333333334</ele><time>2026-04-15T12:31:41.103Z</time></trkpt><trkpt lat="45.5765531" lon="9.4130919"><ele>165.66666666666669</ele><time>2026-04-15T12:31:42.102Z</time></trkpt><trkpt lat="45.5764735" lon="9.41312"><ele>166.0</ele><time>2026-04-15T12:31:43.103Z</time></trkpt><trkpt lat="45.5764033" lon="9.4131558"><ele>166.0</ele><time>2026-04-15T12:31:44.103Z</time></trkpt><trkpt lat="45.5763261" lon="9.413192"><ele>166.0</ele><time>2026-04-15T12:31:45.103Z</time></trkpt><trkpt lat="45.5762446" lon="9.4132231"><ele>166.0</ele><time>2026-04-15T12:31:46.103Z</time></trkpt><trkpt lat="45.576162" lon="9.4132479"><ele>166.0</ele><time>2026-04-15T12:31:47.103Z</time></trkpt><trkpt lat="45.5760743" lon="9.4132744"><ele>166.0</ele><time>2026-04-15T12:31:48.104Z</time></trkpt><trkpt lat="45.5759947" lon="9.4132974"><ele>166.0</ele><time>2026-04-15T12:31:49.104Z</time></trkpt><trkpt lat="45.5759186" lon="9.4133274"><ele>165.7142857142857</ele><time>2026-04-15T12:31:50.103Z</time></trkpt><trkpt lat="45.5758441" lon="9.4133535"><ele>165.42857142857144</ele><time>2026-04-15T12:31:51.103Z</time></trkpt><trkpt lat="45.5757737" lon="9.4133805"><ele>165.14285714285714</ele><time>2026-04-15T12:31:52.103Z</time></trkpt><trkpt lat="45.5757008" lon="9.4134039"><ele>164.85714285714283</ele><time>2026-04-15T12:31:53.104Z</time></trkpt><trkpt lat="45.5756362" lon="9.4134265"><ele>164.57142857142856</ele><time>2026-04-15T12:31:54.103Z</time></trkpt><trkpt lat="45.5755664" lon="9.4134446"><ele>164.28571428571428</ele><time>2026-04-15T12:31:55.104Z</time></trkpt><trkpt lat="45.5754964" lon="9.4134672"><ele>164.0</ele><time>2026-04-15T12:31:56.103Z</time></trkpt><trkpt lat="45.575423" lon="9.4134899"><ele>163.85714285714283</ele><time>2026-04-15T12:31:57.103Z</time></trkpt><trkpt lat="45.5753524" lon="9.4134999"><ele>163.71428571428572</ele><time>2026-04-15T12:31:58.103Z</time></trkpt><trkpt lat="45.5752818" lon="9.4135069"><ele>163.57142857142856</ele><time>2026-04-15T12:31:59.103Z</time></trkpt><trkpt lat="45.5752156" lon="9.4134977"><ele>163.42857142857142</ele><time>2026-04-15T12:32:00.103Z</time></trkpt><trkpt lat="45.575148" lon="9.4134672"><ele>163.28571428571428</ele><time>2026-04-15T12:32:01.103Z</time></trkpt><trkpt lat="45.5750754" lon="9.4134372"><ele>163.14285714285714</ele><time>2026-04-15T12:32:02.104Z</time></trkpt><trkpt lat="45.5750133" lon="9.4134139"><ele>163.0</ele><time>2026-04-15T12:32:03.103Z</time></trkpt><trkpt lat="45.5749471" lon="9.413418"><ele>163.0</ele><time>2026-04-15T12:32:04.103Z</time></trkpt><trkpt lat="45.5748821" lon="9.413447"><ele>163.0</ele><time>2026-04-15T12:32:05.103Z</time></trkpt><trkpt lat="45.5748258" lon="9.4134987"><ele>163.0</ele><time>2026-04-15T12:32:06.103Z</time></trkpt><trkpt lat="45.5747718" lon="9.4135589"><ele>163.0</ele><time>2026-04-15T12:32:07.103Z</time></trkpt><trkpt lat="45.5747241" lon="9.4136292"><ele>163.0</ele><time>2026-04-15T12:32:08.103Z</time></trkpt><trkpt lat="45.5746739" lon="9.4136962"><ele>163.0</ele><time>2026-04-15T12:32:09.103Z</time></trkpt><trkpt lat="45.5746193" lon="9.4137524"><ele>163.0</ele><time>2026-04-15T12:32:10.103Z</time></trkpt><trkpt lat="45.5745524" lon="9.41379"><ele>163.14285714285714</ele><time>2026-04-15T12:32:11.103Z</time></trkpt><trkpt lat="45.5744908" lon="9.4138255"><ele>163.28571428571428</ele><time>2026-04-15T12:32:12.103Z</time></trkpt><trkpt lat="45.5744246" lon="9.4138581"><ele>163.42857142857142</ele><time>2026-04-15T12:32:13.103Z</time></trkpt><trkpt lat="45.5743534" lon="9.4138852"><ele>163.57142857142856</ele><time>2026-04-15T12:32:14.103Z</time></trkpt><trkpt lat="45.5742863" lon="9.4139182"><ele>163.71428571428572</ele><time>2026-04-15T12:32:15.104Z</time></trkpt><trkpt lat="45.5742114" lon="9.4139473"><ele>163.85714285714283</ele><time>2026-04-15T12:32:16.104Z</time></trkpt><trkpt lat="45.5741367" lon="9.4139752"><ele>164.0</ele><time>2026-04-15T12:32:17.103Z</time></trkpt><trkpt lat="45.5740582" lon="9.4139929"><ele>164.0</ele><time>2026-04-15T12:32:18.103Z</time></trkpt><trkpt lat="45.5739823" lon="9.4140203"><ele>164.0</ele><time>2026-04-15T12:32:19.103Z</time></trkpt><trkpt lat="45.5739076" lon="9.4140498"><ele>164.0</ele><time>2026-04-15T12:32:20.104Z</time></trkpt><trkpt lat="45.5738354" lon="9.4140846"><ele>164.0</ele><time>2026-04-15T12:32:21.103Z</time></trkpt><trkpt lat="45.573764" lon="9.4141206"><ele>164.0</ele><time>2026-04-15T12:32:22.103Z</time></trkpt><trkpt lat="45.5736862" lon="9.4141447"><ele>164.0</ele><time>2026-04-15T12:32:23.103Z</time></trkpt><trkpt lat="45.5736159" lon="9.4141734"><ele>163.66666666666666</ele><time>2026-04-15T12:32:24.103Z</time></trkpt><trkpt lat="45.5735376" lon="9.4142016"><ele>163.33333333333331</ele><time>2026-04-15T12:32:25.103Z</time></trkpt><trkpt lat="45.5734577" lon="9.4142253"><ele>163.0</ele><time>2026-04-15T12:32:26.103Z</time></trkpt><trkpt lat="45.5733785" lon="9.4142598"><ele>162.66666666666666</ele><time>2026-04-15T12:32:27.103Z</time></trkpt><trkpt lat="45.5733004" lon="9.4142918"><ele>162.33333333333334</ele><time>2026-04-15T12:32:28.103Z</time></trkpt><trkpt lat="45.5732215" lon="9.4143248"><ele>162.0</ele><time>2026-04-15T12:32:29.103Z</time></trkpt><trkpt lat="45.573142" lon="9.4143496"><ele>162.0</ele><time>2026-04-15T12:32:30.103Z</time></trkpt><trkpt lat="45.5730621" lon="9.4143819"><ele>162.0</ele><time>2026-04-15T12:32:31.103Z</time></trkpt><trkpt lat="45.5729794" lon="9.4144037"><ele>162.0</ele><time>2026-04-15T12:32:32.103Z</time></trkpt><trkpt lat="45.5729029" lon="9.4144393"><ele>162.0</ele><time>2026-04-15T12:32:33.103Z</time></trkpt><trkpt lat="45.5728183" lon="9.4144714"><ele>162.0</ele><time>2026-04-15T12:32:34.104Z</time></trkpt><trkpt lat="45.5727329" lon="9.4145036"><ele>162.0</ele><time>2026-04-15T12:32:35.103Z</time></trkpt><trkpt lat="45.5726509" lon="9.4145325"><ele>161.66666666666666</ele><time>2026-04-15T12:32:36.104Z</time></trkpt><trkpt lat="45.5725666" lon="9.4145655"><ele>161.33333333333334</ele><time>2026-04-15T12:32:37.104Z</time></trkpt><trkpt lat="45.5724827" lon="9.4145979"><ele>161.0</ele><time>2026-04-15T12:32:38.103Z</time></trkpt><trkpt lat="45.5723985" lon="9.4146337"><ele>160.66666666666669</ele><time>2026-04-15T12:32:39.104Z</time></trkpt><trkpt lat="45.5723178" lon="9.4146666"><ele>160.33333333333334</ele><time>2026-04-15T12:32:40.103Z</time></trkpt><trkpt lat="45.5722389" lon="9.4147006"><ele>160.0</ele><time>2026-04-15T12:32:41.103Z</time></trkpt><trkpt lat="45.5721576" lon="9.41473"><ele>160.0</ele><time>2026-04-15T12:32:42.103Z</time></trkpt><trkpt lat="45.5720756" lon="9.4147668"><ele>160.0</ele><time>2026-04-15T12:32:43.104Z</time></trkpt><trkpt lat="45.5719934" lon="9.4148028"><ele>160.0</ele><time>2026-04-15T12:32:44.103Z</time></trkpt><trkpt lat="45.5719108" lon="9.4148384"><ele>160.0</ele><time>2026-04-15T12:32:45.104Z</time></trkpt><trkpt lat="45.5718329" lon="9.4148697"><ele>160.0</ele><time>2026-04-15T12:32:46.104Z</time></trkpt><trkpt lat="45.5717499" lon="9.4148959"><ele>160.0</ele><time>2026-04-15T12:32:47.104Z</time></trkpt><trkpt lat="45.5716681" lon="9.4149299"><ele>159.66666666666669</ele><time>2026-04-15T12:32:48.103Z</time></trkpt><trkpt lat="45.5715857" lon="9.414962"><ele>159.33333333333334</ele><time>2026-04-15T12:32:49.103Z</time></trkpt><trkpt lat="45.5715074" lon="9.414991"><ele>159.0</ele><time>2026-04-15T12:32:50.104Z</time></trkpt><trkpt lat="45.5714229" lon="9.4150187"><ele>158.66666666666666</ele><time>2026-04-15T12:32:51.104Z</time></trkpt><trkpt lat="45.5713384" lon="9.4150395"><ele>158.33333333333331</ele><time>2026-04-15T12:32:52.103Z</time></trkpt><trkpt lat="45.5712585" lon="9.4150671"><ele>158.0</ele><time>2026-04-15T12:32:53.103Z</time></trkpt><trkpt lat="45.5711801" lon="9.4150949"><ele>158.0</ele><time>2026-04-15T12:32:54.103Z</time></trkpt><trkpt lat="45.5711008" lon="9.4151278"><ele>158.0</ele><time>2026-04-15T12:32:55.103Z</time></trkpt><trkpt lat="45.5710207" lon="9.4151609"><ele>158.0</ele><time>2026-04-15T12:32:56.103Z</time></trkpt><trkpt lat="45.5709406" lon="9.4151988"><ele>158.0</ele><time>2026-04-15T12:32:57.103Z</time></trkpt><trkpt lat="45.5708545" lon="9.4152293"><ele>158.0</ele><time>2026-04-15T12:32:58.103Z</time></trkpt><trkpt lat="45.5707723" lon="9.415269"><ele>158.0</ele><time>2026-04-15T12:32:59.104Z</time></trkpt><trkpt lat="45.5706934" lon="9.4153038"><ele>158.0</ele><time>2026-04-15T12:33:00.103Z</time></trkpt><trkpt lat="45.5706015" lon="9.4153472"><ele>158.0</ele><time>2026-04-15T12:33:01.103Z</time></trkpt><trkpt lat="45.5705167" lon="9.4153807"><ele>158.0</ele><time>2026-04-15T12:33:02.103Z</time></trkpt><trkpt lat="45.5704329" lon="9.4154089"><ele>158.0</ele><time>2026-04-15T12:33:03.103Z</time></trkpt><trkpt lat="45.5703414" lon="9.4154293"><ele>158.0</ele><time>2026-04-15T12:33:04.103Z</time></trkpt><trkpt lat="45.5702599" lon="9.4154665"><ele>158.0</ele><time>2026-04-15T12:33:05.103Z</time></trkpt><trkpt lat="45.570177" lon="9.4154962"><ele>158.0</ele><time>2026-04-15T12:33:06.104Z</time></trkpt><trkpt lat="45.5700961" lon="9.4155339"><ele>158.0</ele><time>2026-04-15T12:33:07.103Z</time></trkpt><trkpt lat="45.570019" lon="9.4155738"><ele>158.0</ele><time>2026-04-15T12:33:08.103Z</time></trkpt><trkpt lat="45.5699373" lon="9.4156068"><ele>158.0</ele><time>2026-04-15T12:33:09.104Z</time></trkpt><trkpt lat="45.5698514" lon="9.4156316"><ele>158.0</ele><time>2026-04-15T12:33:10.104Z</time></trkpt><trkpt lat="45.5697683" lon="9.4156357"><ele>158.0</ele><time>2026-04-15T12:33:11.103Z</time></trkpt><trkpt lat="45.5696848" lon="9.4156213"><ele>158.0</ele><time>2026-04-15T12:33:12.103Z</time></trkpt><trkpt lat="45.5696082" lon="9.4156188"><ele>158.0</ele><time>2026-04-15T12:33:13.104Z</time></trkpt><trkpt lat="45.569529" lon="9.4156318"><ele>158.0</ele><time>2026-04-15T12:33:14.103Z</time></trkpt><trkpt lat="45.5694567" lon="9.4156655"><ele>158.0</ele><time>2026-04-15T12:33:15.103Z</time></trkpt><trkpt lat="45.5693865" lon="9.4157296"><ele>158.0</ele><time>2026-04-15T12:33:16.103Z</time></trkpt><trkpt lat="45.5693189" lon="9.4157882"><ele>158.0</ele><time>2026-04-15T12:33:17.103Z</time></trkpt><trkpt lat="45.5692437" lon="9.4158348"><ele>157.83333333333331</ele><time>2026-04-15T12:33:18.104Z</time></trkpt><trkpt lat="45.5691698" lon="9.4158681"><ele>157.66666666666666</ele><time>2026-04-15T12:33:19.104Z</time></trkpt><trkpt lat="45.569097" lon="9.4159069"><ele>157.5</ele><time>2026-04-15T12:33:20.103Z</time></trkpt><trkpt lat="45.5690233" lon="9.4159377"><ele>157.33333333333334</ele><time>2026-04-15T12:33:21.104Z</time></trkpt><trkpt lat="45.5689505" lon="9.4159671"><ele>157.16666666666669</ele><time>2026-04-15T12:33:22.104Z</time></trkpt><trkpt lat="45.5688789" lon="9.4159989"><ele>157.0</ele><time>2026-04-15T12:33:23.103Z</time></trkpt><trkpt lat="45.5688047" lon="9.4160371"><ele>157.0</ele><time>2026-04-15T12:33:24.103Z</time></trkpt><trkpt lat="45.5687327" lon="9.4160806"><ele>157.0</ele><time>2026-04-15T12:33:25.103Z</time></trkpt><trkpt lat="45.5686604" lon="9.4161255"><ele>157.0</ele><time>2026-04-15T12:33:26.103Z</time></trkpt><trkpt lat="45.5685872" lon="9.4161773"><ele>157.0</ele><time>2026-04-15T12:33:27.103Z</time></trkpt><trkpt lat="45.5685181" lon="9.4162233"><ele>157.0</ele><time>2026-04-15T12:33:28.104Z</time></trkpt><trkpt lat="45.5684493" lon="9.4162666"><ele>157.0</ele><time>2026-04-15T12:33:29.103Z</time></trkpt><trkpt lat="45.5683781" lon="9.4163173"><ele>156.66666666666669</ele><time>2026-04-15T12:33:30.104Z</time></trkpt><trkpt lat="45.5683051" lon="9.4163735"><ele>156.33333333333334</ele><time>2026-04-15T12:33:31.103Z</time></trkpt><trkpt lat="45.5682343" lon="9.4164306"><ele>156.0</ele><time>2026-04-15T12:33:32.104Z</time></trkpt><trkpt lat="45.5681651" lon="9.4164878"><ele>155.66666666666666</ele><time>2026-04-15T12:33:33.104Z</time></trkpt><trkpt lat="45.5680993" lon="9.4165411"><ele>155.33333333333331</ele><time>2026-04-15T12:33:34.103Z</time></trkpt><trkpt lat="45.5680336" lon="9.4165976"><ele>155.0</ele><time>2026-04-15T12:33:35.103Z</time></trkpt><trkpt lat="45.5679639" lon="9.4166635"><ele>155.0</ele><time>2026-04-15T12:33:36.103Z</time></trkpt><trkpt lat="45.5678985" lon="9.4167282"><ele>155.0</ele><time>2026-04-15T12:33:37.103Z</time></trkpt><trkpt lat="45.5678327" lon="9.4167978"><ele>155.0</ele><time>2026-04-15T12:33:38.103Z</time></trkpt><trkpt lat="45.5677673" lon="9.4168759"><ele>155.0</ele><time>2026-04-15T12:33:39.103Z</time></trkpt><trkpt lat="45.5677004" lon="9.4169438"><ele>155.0</ele><time>2026-04-15T12:33:40.104Z</time></trkpt><trkpt lat="45.5676355" lon="9.4170218"><ele>155.0</ele><time>2026-04-15T12:33:41.104Z</time></trkpt><trkpt lat="45.5675706" lon="9.4171005"><ele>155.33333333333331</ele><time>2026-04-15T12:33:42.103Z</time></trkpt><trkpt lat="45.5675084" lon="9.4171729"><ele>155.66666666666666</ele><time>2026-04-15T12:33:43.103Z</time></trkpt><trkpt lat="45.5674487" lon="9.4172579"><ele>156.0</ele><time>2026-04-15T12:33:44.103Z</time></trkpt><trkpt lat="45.5673916" lon="9.4173424"><ele>156.33333333333334</ele><time>2026-04-15T12:33:45.103Z</time></trkpt><trkpt lat="45.5673294" lon="9.4174271"><ele>156.66666666666669</ele><time>2026-04-15T12:33:46.104Z</time></trkpt><trkpt lat="45.5672721" lon="9.4175108"><ele>157.0</ele><time>2026-04-15T12:33:47.103Z</time></trkpt><trkpt lat="45.567216" lon="9.4176005"><ele>157.0</ele><time>2026-04-15T12:33:48.104Z</time></trkpt><trkpt lat="45.5671598" lon="9.417687"><ele>157.0</ele><time>2026-04-15T12:33:49.104Z</time></trkpt><trkpt lat="45.5671023" lon="9.4177741"><ele>157.0</ele><time>2026-04-15T12:33:50.104Z</time></trkpt><trkpt lat="45.5670528" lon="9.4178679"><ele>157.0</ele><time>2026-04-15T12:33:51.103Z</time></trkpt><trkpt lat="45.567003" lon="9.4179685"><ele>157.0</ele><time>2026-04-15T12:33:52.104Z</time></trkpt><trkpt lat="45.5669465" lon="9.418062"><ele>157.0</ele><time>2026-04-15T12:33:53.103Z</time></trkpt><trkpt lat="45.5668932" lon="9.4181506"><ele>156.5</ele><time>2026-04-15T12:33:54.104Z</time></trkpt><trkpt lat="45.5668459" lon="9.418252"><ele>156.0</ele><time>2026-04-15T12:33:55.103Z</time></trkpt><trkpt lat="45.5668048" lon="9.4183437"><ele>155.5</ele><time>2026-04-15T12:33:56.103Z</time></trkpt><trkpt lat="45.5667606" lon="9.4184454"><ele>155.0</ele><time>2026-04-15T12:33:57.103Z</time></trkpt><trkpt lat="45.5667201" lon="9.41855"><ele>154.5</ele><time>2026-04-15T12:33:58.103Z</time></trkpt><trkpt lat="45.5666788" lon="9.4186527"><ele>154.0</ele><time>2026-04-15T12:33:59.104Z</time></trkpt><trkpt lat="45.5666369" lon="9.418757"><ele>154.16666666666669</ele><time>2026-04-15T12:34:00.103Z</time></trkpt><trkpt lat="45.5665983" lon="9.4188649"><ele>154.33333333333334</ele><time>2026-04-15T12:34:01.103Z</time></trkpt><trkpt lat="45.5665661" lon="9.4189729"><ele>154.5</ele><time>2026-04-15T12:34:02.103Z</time></trkpt><trkpt lat="45.5665322" lon="9.4190775"><ele>154.66666666666666</ele><time>2026-04-15T12:34:03.103Z</time></trkpt><trkpt lat="45.5664999" lon="9.4191885"><ele>154.83333333333331</ele><time>2026-04-15T12:34:04.103Z</time></trkpt><trkpt lat="45.5664626" lon="9.4193006"><ele>155.0</ele><time>2026-04-15T12:34:05.104Z</time></trkpt><trkpt lat="45.5664311" lon="9.4194103"><ele>155.0</ele><time>2026-04-15T12:34:06.103Z</time></trkpt><trkpt lat="45.5664013" lon="9.4195259"><ele>155.0</ele><time>2026-04-15T12:34:07.103Z</time></trkpt><trkpt lat="45.5663744" lon="9.4196355"><ele>155.0</ele><time>2026-04-15T12:34:08.103Z</time></trkpt><trkpt lat="45.566347" lon="9.419753"><ele>155.0</ele><time>2026-04-15T12:34:09.103Z</time></trkpt><trkpt lat="45.5663165" lon="9.4198676"><ele>155.0</ele><time>2026-04-15T12:34:10.104Z</time></trkpt><trkpt lat="45.5662897" lon="9.4199825"><ele>155.0</ele><time>2026-04-15T12:34:11.103Z</time></trkpt><trkpt lat="45.5662748" lon="9.4200964"><ele>155.0</ele><time>2026-04-15T12:34:12.103Z</time></trkpt><trkpt lat="45.5662539" lon="9.4202162"><ele>155.0</ele><time>2026-04-15T12:34:13.103Z</time></trkpt><trkpt lat="45.566235" lon="9.4203336"><ele>155.0</ele><time>2026-04-15T12:34:14.103Z</time></trkpt><trkpt lat="45.5662229" lon="9.4204557"><ele>155.0</ele><time>2026-04-15T12:34:15.103Z</time></trkpt><trkpt lat="45.5662098" lon="9.4205737"><ele>155.0</ele><time>2026-04-15T12:34:16.103Z</time></trkpt><trkpt lat="45.5661951" lon="9.4206935"><ele>155.0</ele><time>2026-04-15T12:34:17.104Z</time></trkpt><trkpt lat="45.5661823" lon="9.4208113"><ele>154.83333333333331</ele><time>2026-04-15T12:34:18.104Z</time></trkpt><trkpt lat="45.5661687" lon="9.4209364"><ele>154.66666666666666</ele><time>2026-04-15T12:34:19.103Z</time></trkpt><trkpt lat="45.5661642" lon="9.4210526"><ele>154.5</ele><time>2026-04-15T12:34:20.103Z</time></trkpt><trkpt lat="45.5661561" lon="9.4211712"><ele>154.33333333333334</ele><time>2026-04-15T12:34:21.103Z</time></trkpt><trkpt lat="45.5661567" lon="9.4212912"><ele>154.16666666666669</ele><time>2026-04-15T12:34:22.103Z</time></trkpt><trkpt lat="45.5661567" lon="9.421411"><ele>154.0</ele><time>2026-04-15T12:34:23.103Z</time></trkpt><trkpt lat="45.566158" lon="9.4215254"><ele>154.16666666666669</ele><time>2026-04-15T12:34:24.104Z</time></trkpt><trkpt lat="45.5661486" lon="9.4216457"><ele>154.33333333333334</ele><time>2026-04-15T12:34:25.103Z</time></trkpt><trkpt lat="45.5661499" lon="9.4217585"><ele>154.5</ele><time>2026-04-15T12:34:26.103Z</time></trkpt><trkpt lat="45.5661524" lon="9.4218837"><ele>154.66666666666666</ele><time>2026-04-15T12:34:27.103Z</time></trkpt><trkpt lat="45.5661618" lon="9.4220028"><ele>154.83333333333331</ele><time>2026-04-15T12:34:28.103Z</time></trkpt><trkpt lat="45.5661734" lon="9.4221202"><ele>155.0</ele><time>2026-04-15T12:34:29.104Z</time></trkpt><trkpt lat="45.5661882" lon="9.4222347"><ele>154.83333333333331</ele><time>2026-04-15T12:34:30.103Z</time></trkpt><trkpt lat="45.5661999" lon="9.422356"><ele>154.66666666666666</ele><time>2026-04-15T12:34:31.103Z</time></trkpt><trkpt lat="45.5662135" lon="9.4224767"><ele>154.5</ele><time>2026-04-15T12:34:32.103Z</time></trkpt><trkpt lat="45.5662268" lon="9.4225996"><ele>154.33333333333334</ele><time>2026-04-15T12:34:33.103Z</time></trkpt><trkpt lat="45.5662353" lon="9.422717"><ele>154.16666666666669</ele><time>2026-04-15T12:34:34.103Z</time></trkpt><trkpt lat="45.5662511" lon="9.4228346"><ele>154.0</ele><time>2026-04-15T12:34:35.104Z</time></trkpt><trkpt lat="45.5662678" lon="9.4229511"><ele>154.0</ele><time>2026-04-15T12:34:36.103Z</time></trkpt><trkpt lat="45.5662868" lon="9.4230712"><ele>154.0</ele><time>2026-04-15T12:34:37.104Z</time></trkpt><trkpt lat="45.5662984" lon="9.423182"><ele>154.0</ele><time>2026-04-15T12:34:38.103Z</time></trkpt><trkpt lat="45.5663122" lon="9.4232993"><ele>154.0</ele><time>2026-04-15T12:34:39.104Z</time></trkpt><trkpt lat="45.5663207" lon="9.4234114"><ele>154.0</ele><time>2026-04-15T12:34:40.103Z</time></trkpt><trkpt lat="45.5663412" lon="9.4235315"><ele>154.0</ele><time>2026-04-15T12:34:41.103Z</time></trkpt><trkpt lat="45.5663619" lon="9.4236485"><ele>154.0</ele><time>2026-04-15T12:34:42.104Z</time></trkpt><trkpt lat="45.5663845" lon="9.4237659"><ele>154.0</ele><time>2026-04-15T12:34:43.104Z</time></trkpt><trkpt lat="45.5664075" lon="9.4238812"><ele>154.0</ele><time>2026-04-15T12:34:44.104Z</time></trkpt><trkpt lat="45.5664265" lon="9.4240023"><ele>154.0</ele><time>2026-04-15T12:34:45.103Z</time></trkpt><trkpt lat="45.566444" lon="9.4241216"><ele>154.0</ele><time>2026-04-15T12:34:46.103Z</time></trkpt><trkpt lat="45.5664657" lon="9.4242429"><ele>154.0</ele><time>2026-04-15T12:34:47.103Z</time></trkpt><trkpt lat="45.5664912" lon="9.4243582"><ele>153.83333333333334</ele><time>2026-04-15T12:34:48.104Z</time></trkpt><trkpt lat="45.566507" lon="9.4244722"><ele>153.66666666666669</ele><time>2026-04-15T12:34:49.103Z</time></trkpt><trkpt lat="45.5665297" lon="9.4245901"><ele>153.5</ele><time>2026-04-15T12:34:50.104Z</time></trkpt><trkpt lat="45.5665522" lon="9.4247062"><ele>153.33333333333334</ele><time>2026-04-15T12:34:51.104Z</time></trkpt><trkpt lat="45.5665755" lon="9.4248248"><ele>153.16666666666666</ele><time>2026-04-15T12:34:52.103Z</time></trkpt><trkpt lat="45.5665976" lon="9.4249364"><ele>153.0</ele><time>2026-04-15T12:34:53.103Z</time></trkpt><trkpt lat="45.5666164" lon="9.4250503"><ele>152.83333333333334</ele><time>2026-04-15T12:34:54.104Z</time></trkpt><trkpt lat="45.5666379" lon="9.4251633"><ele>152.66666666666666</ele><time>2026-04-15T12:34:55.104Z</time></trkpt><trkpt lat="45.5666612" lon="9.4252799"><ele>152.5</ele><time>2026-04-15T12:34:56.104Z</time></trkpt><trkpt lat="45.5666809" lon="9.4253977"><ele>152.33333333333331</ele><time>2026-04-15T12:34:57.103Z</time></trkpt><trkpt lat="45.5666953" lon="9.4255169"><ele>152.16666666666666</ele><time>2026-04-15T12:34:58.103Z</time></trkpt><trkpt lat="45.5667146" lon="9.4256333"><ele>152.0</ele><time>2026-04-15T12:34:59.103Z</time></trkpt><trkpt lat="45.5667291" lon="9.4257442"><ele>152.0</ele><time>2026-04-15T12:35:00.103Z</time></trkpt><trkpt lat="45.5667533" lon="9.4258614"><ele>152.0</ele><time>2026-04-15T12:35:01.104Z</time></trkpt><trkpt lat="45.5667766" lon="9.4259806"><ele>152.0</ele><time>2026-04-15T12:35:02.104Z</time></trkpt><trkpt lat="45.5667924" lon="9.4260926"><ele>152.0</ele><time>2026-04-15T12:35:03.103Z</time></trkpt><trkpt lat="45.5668162" lon="9.4262068"><ele>152.0</ele><time>2026-04-15T12:35:04.104Z</time></trkpt><trkpt lat="45.5668365" lon="9.426325"><ele>152.0</ele><time>2026-04-15T12:35:05.103Z</time></trkpt><trkpt lat="45.5668542" lon="9.4264394"><ele>152.0</ele><time>2026-04-15T12:35:06.103Z</time></trkpt><trkpt lat="45.5668775" lon="9.4265579"><ele>152.0</ele><time>2026-04-15T12:35:07.103Z</time></trkpt><trkpt lat="45.5668995" lon="9.4266696"><ele>152.0</ele><time>2026-04-15T12:35:08.103Z</time></trkpt><trkpt lat="45.5669214" lon="9.4267866"><ele>152.0</ele><time>2026-04-15T12:35:09.103Z</time></trkpt><trkpt lat="45.5669458" lon="9.4269013"><ele>152.0</ele><time>2026-04-15T12:35:10.103Z</time></trkpt><trkpt lat="45.5669625" lon="9.4270204"><ele>152.0</ele><time>2026-04-15T12:35:11.103Z</time></trkpt><trkpt lat="45.566987" lon="9.4271402"><ele>152.0</ele><time>2026-04-15T12:35:12.104Z</time></trkpt><trkpt lat="45.5670056" lon="9.4272579"><ele>152.0</ele><time>2026-04-15T12:35:13.103Z</time></trkpt><trkpt lat="45.5670246" lon="9.4273653"><ele>152.0</ele><time>2026-04-15T12:35:14.103Z</time></trkpt><trkpt lat="45.5670536" lon="9.4274795"><ele>152.0</ele><time>2026-04-15T12:35:15.103Z</time></trkpt><trkpt lat="45.5670806" lon="9.4275927"><ele>152.0</ele><time>2026-04-15T12:35:16.104Z</time></trkpt><trkpt lat="45.5671074" lon="9.427706"><ele>152.0</ele><time>2026-04-15T12:35:17.103Z</time></trkpt><trkpt lat="45.5671339" lon="9.4278224"><ele>152.0</ele><time>2026-04-15T12:35:18.103Z</time></trkpt><trkpt lat="45.5671571" lon="9.4279296"><ele>152.0</ele><time>2026-04-15T12:35:19.103Z</time></trkpt><trkpt lat="45.5671823" lon="9.4280474"><ele>152.0</ele><time>2026-04-15T12:35:20.104Z</time></trkpt><trkpt lat="45.5672092" lon="9.4281636"><ele>152.0</ele><time>2026-04-15T12:35:21.104Z</time></trkpt><trkpt lat="45.567244" lon="9.428271"><ele>152.0</ele><time>2026-04-15T12:35:22.103Z</time></trkpt><trkpt lat="45.5672763" lon="9.4283793"><ele>152.0</ele><time>2026-04-15T12:35:23.103Z</time></trkpt><trkpt lat="45.5673091" lon="9.4284873"><ele>152.33333333333331</ele><time>2026-04-15T12:35:24.103Z</time></trkpt><trkpt lat="45.5673487" lon="9.4285938"><ele>152.66666666666666</ele><time>2026-04-15T12:35:25.104Z</time></trkpt><trkpt lat="45.5673889" lon="9.4286901"><ele>153.0</ele><time>2026-04-15T12:35:26.103Z</time></trkpt><trkpt lat="45.56742" lon="9.4287942"><ele>153.33333333333334</ele><time>2026-04-15T12:35:27.103Z</time></trkpt><trkpt lat="45.5674579" lon="9.4288916"><ele>153.66666666666669</ele><time>2026-04-15T12:35:28.103Z</time></trkpt><trkpt lat="45.5674973" lon="9.4289933"><ele>154.0</ele><time>2026-04-15T12:35:29.103Z</time></trkpt><trkpt lat="45.567527" lon="9.4291062"><ele>154.16666666666669</ele><time>2026-04-15T12:35:30.103Z</time></trkpt><trkpt lat="45.5675363" lon="9.429216"><ele>154.33333333333334</ele><time>2026-04-15T12:35:31.103Z</time></trkpt><trkpt lat="45.5675307" lon="9.4293317"><ele>154.5</ele><time>2026-04-15T12:35:32.104Z</time></trkpt><trkpt lat="45.5675096" lon="9.4294367"><ele>154.66666666666666</ele><time>2026-04-15T12:35:33.104Z</time></trkpt><trkpt lat="45.567473" lon="9.429533"><ele>154.83333333333331</ele><time>2026-04-15T12:35:34.103Z</time></trkpt><trkpt lat="45.5674249" lon="9.4296101"><ele>155.0</ele><time>2026-04-15T12:35:35.103Z</time></trkpt><trkpt lat="45.5673721" lon="9.4296773"><ele>155.0</ele><time>2026-04-15T12:35:36.103Z</time></trkpt><trkpt lat="45.5673198" lon="9.4297542"><ele>155.0</ele><time>2026-04-15T12:35:37.103Z</time></trkpt><trkpt lat="45.5672647" lon="9.4298234"><ele>155.0</ele><time>2026-04-15T12:35:38.103Z</time></trkpt><trkpt lat="45.5671952" lon="9.4298701"><ele>155.0</ele><time>2026-04-15T12:35:39.103Z</time></trkpt><trkpt lat="45.5671265" lon="9.4299043"><ele>155.0</ele><time>2026-04-15T12:35:40.104Z</time></trkpt><trkpt lat="45.567055" lon="9.4299287"><ele>155.0</ele><time>2026-04-15T12:35:41.104Z</time></trkpt><trkpt lat="45.5669825" lon="9.4299618"><ele>155.0</ele><time>2026-04-15T12:35:42.103Z</time></trkpt><trkpt lat="45.5669147" lon="9.4299908"><ele>154.83333333333331</ele><time>2026-04-15T12:35:43.103Z</time></trkpt><trkpt lat="45.5668449" lon="9.4300166"><ele>154.66666666666666</ele><time>2026-04-15T12:35:44.103Z</time></trkpt><trkpt lat="45.5667743" lon="9.4300527"><ele>154.5</ele><time>2026-04-15T12:35:45.104Z</time></trkpt><trkpt lat="45.5666985" lon="9.4300879"><ele>154.33333333333334</ele><time>2026-04-15T12:35:46.103Z</time></trkpt><trkpt lat="45.566626" lon="9.4301197"><ele>154.16666666666669</ele><time>2026-04-15T12:35:47.103Z</time></trkpt><trkpt lat="45.5665499" lon="9.4301446"><ele>154.0</ele><time>2026-04-15T12:35:48.103Z</time></trkpt><trkpt lat="45.5664728" lon="9.4301685"><ele>154.0</ele><time>2026-04-15T12:35:49.103Z</time></trkpt><trkpt lat="45.5663983" lon="9.4301962"><ele>154.0</ele><time>2026-04-15T12:35:50.103Z</time></trkpt><trkpt lat="45.5663217" lon="9.4302255"><ele>154.0</ele><time>2026-04-15T12:35:51.103Z</time></trkpt><trkpt lat="45.5662459" lon="9.4302474"><ele>154.0</ele><time>2026-04-15T12:35:52.104Z</time></trkpt><trkpt lat="45.5661706" lon="9.4302816"><ele>154.0</ele><time>2026-04-15T12:35:53.103Z</time></trkpt><trkpt lat="45.5660956" lon="9.4303127"><ele>154.0</ele><time>2026-04-15T12:35:54.103Z</time></trkpt><trkpt lat="45.5660082" lon="9.4303484"><ele>153.66666666666669</ele><time>2026-04-15T12:35:55.103Z</time></trkpt><trkpt lat="45.5659301" lon="9.4303759"><ele>153.33333333333334</ele><time>2026-04-15T12:35:56.103Z</time></trkpt><trkpt lat="45.56585" lon="9.4304056"><ele>153.0</ele><time>2026-04-15T12:35:57.103Z</time></trkpt><trkpt lat="45.5657706" lon="9.4304446"><ele>152.66666666666666</ele><time>2026-04-15T12:35:58.104Z</time></trkpt><trkpt lat="45.5656967" lon="9.4304738"><ele>152.33333333333331</ele><time>2026-04-15T12:35:59.104Z</time></trkpt><trkpt lat="45.5656179" lon="9.4304983"><ele>152.0</ele><time>2026-04-15T12:36:00.103Z</time></trkpt><trkpt lat="45.5655366" lon="9.4305292"><ele>151.66666666666666</ele><time>2026-04-15T12:36:01.103Z</time></trkpt><trkpt lat="45.5654612" lon="9.430564"><ele>151.33333333333331</ele><time>2026-04-15T12:36:02.104Z</time></trkpt><trkpt lat="45.5653811" lon="9.4305996"><ele>151.0</ele><time>2026-04-15T12:36:03.104Z</time></trkpt><trkpt lat="45.5653" lon="9.4306263"><ele>150.66666666666666</ele><time>2026-04-15T12:36:04.103Z</time></trkpt><trkpt lat="45.5652279" lon="9.4306628"><ele>150.33333333333334</ele><time>2026-04-15T12:36:05.104Z</time></trkpt><trkpt lat="45.565146" lon="9.4306878"><ele>150.0</ele><time>2026-04-15T12:36:06.103Z</time></trkpt><trkpt lat="45.5650693" lon="9.4307189"><ele>150.0</ele><time>2026-04-15T12:36:07.103Z</time></trkpt><trkpt lat="45.564991" lon="9.4307398"><ele>150.0</ele><time>2026-04-15T12:36:08.103Z</time></trkpt><trkpt lat="45.5649136" lon="9.4307774"><ele>150.0</ele><time>2026-04-15T12:36:09.103Z</time></trkpt><trkpt lat="45.5648385" lon="9.430808"><ele>150.0</ele><time>2026-04-15T12:36:10.104Z</time></trkpt><trkpt lat="45.5647584" lon="9.4308428"><ele>150.0</ele><time>2026-04-15T12:36:11.103Z</time></trkpt><trkpt lat="45.5646771" lon="9.430865"><ele>150.0</ele><time>2026-04-15T12:36:12.103Z</time></trkpt><trkpt lat="45.5645963" lon="9.43089"><ele>150.0</ele><time>2026-04-15T12:36:13.103Z</time></trkpt><trkpt lat="45.5645162" lon="9.4309213"><ele>150.0</ele><time>2026-04-15T12:36:14.103Z</time></trkpt><trkpt lat="45.5644372" lon="9.4309565"><ele>150.0</ele><time>2026-04-15T12:36:15.104Z</time></trkpt><trkpt lat="45.5643623" lon="9.4309934"><ele>150.0</ele><time>2026-04-15T12:36:16.103Z</time></trkpt><trkpt lat="45.564281" lon="9.4310229"><ele>150.0</ele><time>2026-04-15T12:36:17.103Z</time></trkpt><trkpt lat="45.5641975" lon="9.4310645"><ele>150.0</ele><time>2026-04-15T12:36:18.103Z</time></trkpt><trkpt lat="45.5641149" lon="9.4310907"><ele>150.0</ele><time>2026-04-15T12:36:19.104Z</time></trkpt><trkpt lat="45.5640413" lon="9.4311273"><ele>150.0</ele><time>2026-04-15T12:36:20.103Z</time></trkpt><trkpt lat="45.5639558" lon="9.4311634"><ele>150.0</ele><time>2026-04-15T12:36:21.104Z</time></trkpt><trkpt lat="45.5638767" lon="9.4311977"><ele>150.0</ele><time>2026-04-15T12:36:22.103Z</time></trkpt><trkpt lat="45.5637949" lon="9.4312297"><ele>150.0</ele><time>2026-04-15T12:36:23.104Z</time></trkpt><trkpt lat="45.5637147" lon="9.4312611"><ele>150.0</ele><time>2026-04-15T12:36:24.103Z</time></trkpt><trkpt lat="45.5636358" lon="9.4312872"><ele>149.83333333333334</ele><time>2026-04-15T12:36:25.103Z</time></trkpt><trkpt lat="45.5635526" lon="9.4313245"><ele>149.66666666666666</ele><time>2026-04-15T12:36:26.104Z</time></trkpt><trkpt lat="45.5634761" lon="9.4313575"><ele>149.5</ele><time>2026-04-15T12:36:27.103Z</time></trkpt><trkpt lat="45.5633986" lon="9.4313908"><ele>149.33333333333331</ele><time>2026-04-15T12:36:28.103Z</time></trkpt><trkpt lat="45.5633174" lon="9.4314159"><ele>149.16666666666666</ele><time>2026-04-15T12:36:29.104Z</time></trkpt><trkpt lat="45.5632333" lon="9.4314438"><ele>149.0</ele><time>2026-04-15T12:36:30.103Z</time></trkpt><trkpt lat="45.5631577" lon="9.4314797"><ele>149.0</ele><time>2026-04-15T12:36:31.103Z</time></trkpt><trkpt lat="45.5630796" lon="9.4315065"><ele>149.0</ele><time>2026-04-15T12:36:32.103Z</time></trkpt><trkpt lat="45.5630074" lon="9.4315323"><ele>149.0</ele><time>2026-04-15T12:36:33.103Z</time></trkpt><trkpt lat="45.5629362" lon="9.4315659"><ele>149.0</ele><time>2026-04-15T12:36:34.104Z</time></trkpt><trkpt lat="45.5628626" lon="9.4315914"><ele>149.0</ele><time>2026-04-15T12:36:35.103Z</time></trkpt><trkpt lat="45.5627945" lon="9.4316133"><ele>149.0</ele><time>2026-04-15T12:36:36.103Z</time></trkpt><trkpt lat="45.5627303" lon="9.4316428"><ele>149.0</ele><time>2026-04-15T12:36:37.103Z</time></trkpt><trkpt lat="45.5626588" lon="9.4316693"><ele>148.71428571428572</ele><time>2026-04-15T12:36:38.103Z</time></trkpt><trkpt lat="45.562588" lon="9.4316921"><ele>148.42857142857142</ele><time>2026-04-15T12:36:39.104Z</time></trkpt><trkpt lat="45.5625243" lon="9.4317149"><ele>148.14285714285714</ele><time>2026-04-15T12:36:40.103Z</time></trkpt><trkpt lat="45.5624553" lon="9.4317368"><ele>147.85714285714286</ele><time>2026-04-15T12:36:41.103Z</time></trkpt><trkpt lat="45.5623802" lon="9.4317648"><ele>147.57142857142856</ele><time>2026-04-15T12:36:42.103Z</time></trkpt><trkpt lat="45.5623035" lon="9.4317994"><ele>147.28571428571428</ele><time>2026-04-15T12:36:43.103Z</time></trkpt><trkpt lat="45.5622255" lon="9.4318358"><ele>147.0</ele><time>2026-04-15T12:36:44.103Z</time></trkpt><trkpt lat="45.5621487" lon="9.4318737"><ele>147.0</ele><time>2026-04-15T12:36:45.104Z</time></trkpt><trkpt lat="45.5620727" lon="9.431905"><ele>147.0</ele><time>2026-04-15T12:36:46.103Z</time></trkpt><trkpt lat="45.5619942" lon="9.4319417"><ele>147.0</ele><time>2026-04-15T12:36:47.104Z</time></trkpt><trkpt lat="45.5619118" lon="9.4319769"><ele>147.0</ele><time>2026-04-15T12:36:48.104Z</time></trkpt><trkpt lat="45.5618311" lon="9.4320168"><ele>147.0</ele><time>2026-04-15T12:36:49.104Z</time></trkpt><trkpt lat="45.5617454" lon="9.4320419"><ele>147.0</ele><time>2026-04-15T12:36:50.103Z</time></trkpt><trkpt lat="45.5616656" lon="9.4320739"><ele>147.0</ele><time>2026-04-15T12:36:51.103Z</time></trkpt><trkpt lat="45.5615836" lon="9.4321049"><ele>147.0</ele><time>2026-04-15T12:36:52.103Z</time></trkpt><trkpt lat="45.5615059" lon="9.4321284"><ele>147.0</ele><time>2026-04-15T12:36:53.104Z</time></trkpt><trkpt lat="45.5614269" lon="9.4321649"><ele>147.0</ele><time>2026-04-15T12:36:54.103Z</time></trkpt><trkpt lat="45.5613484" lon="9.4321965"><ele>147.0</ele><time>2026-04-15T12:36:55.103Z</time></trkpt><trkpt lat="45.561267" lon="9.4322296"><ele>147.0</ele><time>2026-04-15T12:36:56.103Z</time></trkpt><trkpt lat="45.5611845" lon="9.4322623"><ele>147.16666666666666</ele><time>2026-04-15T12:36:57.103Z</time></trkpt><trkpt lat="45.5611042" lon="9.4322937"><ele>147.33333333333334</ele><time>2026-04-15T12:36:58.103Z</time></trkpt><trkpt lat="45.5610231" lon="9.4323262"><ele>147.5</ele><time>2026-04-15T12:36:59.104Z</time></trkpt><trkpt lat="45.5609519" lon="9.4323605"><ele>147.66666666666669</ele><time>2026-04-15T12:37:00.104Z</time></trkpt><trkpt lat="45.5608761" lon="9.4323916"><ele>147.83333333333334</ele><time>2026-04-15T12:37:01.103Z</time></trkpt><trkpt lat="45.5608044" lon="9.432422"><ele>148.0</ele><time>2026-04-15T12:37:02.103Z</time></trkpt><trkpt lat="45.5607341" lon="9.4324451"><ele>148.0</ele><time>2026-04-15T12:37:03.103Z</time></trkpt><trkpt lat="45.560665" lon="9.4324678"><ele>148.0</ele><time>2026-04-15T12:37:04.103Z</time></trkpt><trkpt lat="45.560562" lon="9.4325049"><ele>148.0</ele><time>2026-04-15T12:37:06.103Z</time></trkpt><trkpt lat="45.5604927" lon="9.4325454"><ele>148.0</ele><time>2026-04-15T12:37:08.103Z</time></trkpt><trkpt lat="45.5604041" lon="9.4325795"><ele>148.0</ele><time>2026-04-15T12:37:10.104Z</time></trkpt><trkpt lat="45.5603116" lon="9.4326382"><ele>148.0</ele><time>2026-04-15T12:37:12.104Z</time></trkpt><trkpt lat="45.5601968" lon="9.4326471"><ele>148.14285714285714</ele><time>2026-04-15T12:37:14.103Z</time></trkpt><trkpt lat="45.5600875" lon="9.4326326"><ele>148.28571428571428</ele><time>2026-04-15T12:37:16.104Z</time></trkpt><trkpt lat="45.5600242" lon="9.4326222"><ele>148.42857142857142</ele><time>2026-04-15T12:37:17.104Z</time></trkpt><trkpt lat="45.5599602" lon="9.4326298"><ele>148.57142857142856</ele><time>2026-04-15T12:37:18.103Z</time></trkpt><trkpt lat="45.5598947" lon="9.4326456"><ele>148.7142857142857</ele><time>2026-04-15T12:37:19.103Z</time></trkpt><trkpt lat="45.5598299" lon="9.4326687"><ele>148.85714285714286</ele><time>2026-04-15T12:37:20.104Z</time></trkpt><trkpt lat="45.5597646" lon="9.4326949"><ele>149.0</ele><time>2026-04-15T12:37:21.103Z</time></trkpt><trkpt lat="45.5596956" lon="9.4327094"><ele>149.0</ele><time>2026-04-15T12:37:22.103Z</time></trkpt><trkpt lat="45.5596255" lon="9.4327365"><ele>149.0</ele><time>2026-04-15T12:37:23.104Z</time></trkpt><trkpt lat="45.5595557" lon="9.432757"><ele>149.0</ele><time>2026-04-15T12:37:24.104Z</time></trkpt><trkpt lat="45.5594846" lon="9.4327923"><ele>149.0</ele><time>2026-04-15T12:37:25.103Z</time></trkpt><trkpt lat="45.5594123" lon="9.4328171"><ele>149.0</ele><time>2026-04-15T12:37:26.104Z</time></trkpt><trkpt lat="45.5593412" lon="9.4328527"><ele>149.0</ele><time>2026-04-15T12:37:27.104Z</time></trkpt><trkpt lat="45.5592669" lon="9.4328975"><ele>149.0</ele><time>2026-04-15T12:37:28.103Z</time></trkpt><trkpt lat="45.5591944" lon="9.4329319"><ele>148.66666666666666</ele><time>2026-04-15T12:37:29.103Z</time></trkpt><trkpt lat="45.5591233" lon="9.4329611"><ele>148.33333333333331</ele><time>2026-04-15T12:37:30.103Z</time></trkpt><trkpt lat="45.5590518" lon="9.4329904"><ele>148.0</ele><time>2026-04-15T12:37:31.103Z</time></trkpt><trkpt lat="45.5589779" lon="9.4330226"><ele>147.66666666666666</ele><time>2026-04-15T12:37:32.103Z</time></trkpt><trkpt lat="45.5588987" lon="9.4330563"><ele>147.33333333333334</ele><time>2026-04-15T12:37:33.104Z</time></trkpt><trkpt lat="45.5588225" lon="9.4330928"><ele>147.0</ele><time>2026-04-15T12:37:34.104Z</time></trkpt><trkpt lat="45.5587463" lon="9.4331244"><ele>146.66666666666666</ele><time>2026-04-15T12:37:35.103Z</time></trkpt><trkpt lat="45.5586734" lon="9.4331501"><ele>146.33333333333334</ele><time>2026-04-15T12:37:36.103Z</time></trkpt><trkpt lat="45.5586008" lon="9.4331781"><ele>146.0</ele><time>2026-04-15T12:37:37.103Z</time></trkpt><trkpt lat="45.5585214" lon="9.4332057"><ele>145.66666666666669</ele><time>2026-04-15T12:37:38.104Z</time></trkpt><trkpt lat="45.5584419" lon="9.4332355"><ele>145.33333333333334</ele><time>2026-04-15T12:37:39.103Z</time></trkpt><trkpt lat="45.5583645" lon="9.4332619"><ele>145.0</ele><time>2026-04-15T12:37:40.103Z</time></trkpt><trkpt lat="45.558291" lon="9.4333053"><ele>145.0</ele><time>2026-04-15T12:37:41.103Z</time></trkpt><trkpt lat="45.5582116" lon="9.4333328"><ele>145.0</ele><time>2026-04-15T12:37:42.103Z</time></trkpt><trkpt lat="45.5581395" lon="9.4333531"><ele>145.0</ele><time>2026-04-15T12:37:43.104Z</time></trkpt><trkpt lat="45.5580641" lon="9.433369"><ele>145.0</ele><time>2026-04-15T12:37:44.104Z</time></trkpt><trkpt lat="45.5579799" lon="9.4333726"><ele>145.0</ele><time>2026-04-15T12:37:45.103Z</time></trkpt><trkpt lat="45.5579118" lon="9.4333831"><ele>145.0</ele><time>2026-04-15T12:37:46.103Z</time></trkpt><trkpt lat="45.5578447" lon="9.4333964"><ele>145.0</ele><time>2026-04-15T12:37:47.103Z</time></trkpt><trkpt lat="45.5577913" lon="9.4335447"><ele>145.0</ele><time>2026-04-15T12:37:49.104Z</time></trkpt><trkpt lat="45.5577763" lon="9.4336345"><ele>145.0</ele><time>2026-04-15T12:37:50.103Z</time></trkpt><trkpt lat="45.557768" lon="9.4338124"><ele>145.0</ele><time>2026-04-15T12:37:52.104Z</time></trkpt><trkpt lat="45.5577669" lon="9.4339076"><ele>145.0</ele><time>2026-04-15T12:37:53.103Z</time></trkpt><trkpt lat="45.5577641" lon="9.4340097"><ele>145.0</ele><time>2026-04-15T12:37:54.104Z</time></trkpt><trkpt lat="45.5577629" lon="9.434106"><ele>145.0</ele><time>2026-04-15T12:37:55.103Z</time></trkpt><trkpt lat="45.5577494" lon="9.4342231"><ele>145.0</ele><time>2026-04-15T12:37:56.103Z</time></trkpt><trkpt lat="45.5577319" lon="9.4343348"><ele>145.0</ele><time>2026-04-15T12:37:57.103Z</time></trkpt><trkpt lat="45.5577207" lon="9.4344383"><ele>145.0</ele><time>2026-04-15T12:37:58.103Z</time></trkpt><trkpt lat="45.5577104" lon="9.434545"><ele>145.0</ele><time>2026-04-15T12:37:59.103Z</time></trkpt><trkpt lat="45.5576842" lon="9.4346467"><ele>145.0</ele><time>2026-04-15T12:38:00.103Z</time></trkpt><trkpt lat="45.557663" lon="9.4347499"><ele>145.0</ele><time>2026-04-15T12:38:01.104Z</time></trkpt><trkpt lat="45.5576434" lon="9.4348438"><ele>145.0</ele><time>2026-04-15T12:38:02.103Z</time></trkpt><trkpt lat="45.5575708" lon="9.434859"><ele>145.0</ele><time>2026-04-15T12:38:03.103Z</time></trkpt><trkpt lat="45.5574801" lon="9.4348661"><ele>145.0</ele><time>2026-04-15T12:38:04.103Z</time></trkpt><trkpt lat="45.5573571" lon="9.4348873"><ele>145.0</ele><time>2026-04-15T12:38:06.103Z</time></trkpt><trkpt lat="45.5572872" lon="9.4349001"><ele>145.0</ele><time>2026-04-15T12:38:07.103Z</time></trkpt><trkpt lat="45.5572142" lon="9.4349088"><ele>145.0</ele><time>2026-04-15T12:38:08.103Z</time></trkpt><trkpt lat="45.557092" lon="9.4349168"><ele>145.0</ele><time>2026-04-15T12:38:10.103Z</time></trkpt><trkpt lat="45.5570201" lon="9.434896"><ele>145.0</ele><time>2026-04-15T12:38:11.103Z</time></trkpt><trkpt lat="45.5569447" lon="9.4348904"><ele>145.0</ele><time>2026-04-15T12:38:12.103Z</time></trkpt><trkpt lat="45.5568741" lon="9.4348864"><ele>145.0</ele><time>2026-04-15T12:38:13.103Z</time></trkpt><trkpt lat="45.5568023" lon="9.4348904"><ele>145.0</ele><time>2026-04-15T12:38:14.103Z</time></trkpt><trkpt lat="45.556729" lon="9.4348956"><ele>145.14285714285714</ele><time>2026-04-15T12:38:15.103Z</time></trkpt><trkpt lat="45.5566585" lon="9.434907"><ele>145.2857142857143</ele><time>2026-04-15T12:38:16.103Z</time></trkpt><trkpt lat="45.5565913" lon="9.4349125"><ele>145.42857142857144</ele><time>2026-04-15T12:38:17.104Z</time></trkpt><trkpt lat="45.5565161" lon="9.4349156"><ele>145.57142857142858</ele><time>2026-04-15T12:38:18.103Z</time></trkpt><trkpt lat="45.5564461" lon="9.4349198"><ele>145.71428571428572</ele><time>2026-04-15T12:38:19.103Z</time></trkpt><trkpt lat="45.5563682" lon="9.4349173"><ele>145.85714285714286</ele><time>2026-04-15T12:38:20.104Z</time></trkpt><trkpt lat="45.5562921" lon="9.4349084"><ele>146.0</ele><time>2026-04-15T12:38:21.103Z</time></trkpt><trkpt lat="45.5562122" lon="9.4349037"><ele>146.16666666666666</ele><time>2026-04-15T12:38:22.103Z</time></trkpt><trkpt lat="45.5561362" lon="9.4348976"><ele>146.33333333333331</ele><time>2026-04-15T12:38:23.104Z</time></trkpt><trkpt lat="45.5560576" lon="9.4349005"><ele>146.5</ele><time>2026-04-15T12:38:24.104Z</time></trkpt><trkpt lat="45.5559779" lon="9.4349097"><ele>146.66666666666666</ele><time>2026-04-15T12:38:25.104Z</time></trkpt><trkpt lat="45.5559019" lon="9.4349257"><ele>146.83333333333334</ele><time>2026-04-15T12:38:26.103Z</time></trkpt><trkpt lat="45.5558259" lon="9.4349382"><ele>147.0</ele><time>2026-04-15T12:38:27.104Z</time></trkpt><trkpt lat="45.5557437" lon="9.4349513"><ele>147.0</ele><time>2026-04-15T12:38:28.103Z</time></trkpt><trkpt lat="45.5556538" lon="9.434966"><ele>147.0</ele><time>2026-04-15T12:38:29.104Z</time></trkpt><trkpt lat="45.5555706" lon="9.4349754"><ele>147.0</ele><time>2026-04-15T12:38:30.103Z</time></trkpt><trkpt lat="45.5554996" lon="9.4349942"><ele>147.0</ele><time>2026-04-15T12:38:31.103Z</time></trkpt><trkpt lat="45.5554165" lon="9.4350049"><ele>147.0</ele><time>2026-04-15T12:38:32.103Z</time></trkpt><trkpt lat="45.555343" lon="9.4349899"><ele>147.0</ele><time>2026-04-15T12:38:33.103Z</time></trkpt><trkpt lat="45.5552612" lon="9.4349908"><ele>147.0</ele><time>2026-04-15T12:38:34.104Z</time></trkpt><trkpt lat="45.5551742" lon="9.4349885"><ele>147.0</ele><time>2026-04-15T12:38:35.103Z</time></trkpt><trkpt lat="45.5550827" lon="9.4350061"><ele>147.0</ele><time>2026-04-15T12:38:36.103Z</time></trkpt><trkpt lat="45.5550003" lon="9.435001"><ele>147.0</ele><time>2026-04-15T12:38:37.104Z</time></trkpt><trkpt lat="45.5549163" lon="9.4350127"><ele>147.0</ele><time>2026-04-15T12:38:38.103Z</time></trkpt><trkpt lat="45.5548449" lon="9.4350153"><ele>147.0</ele><time>2026-04-15T12:38:39.103Z</time></trkpt><trkpt lat="45.5547626" lon="9.4350261"><ele>147.0</ele><time>2026-04-15T12:38:40.103Z</time></trkpt><trkpt lat="45.554689" lon="9.4350466"><ele>147.0</ele><time>2026-04-15T12:38:41.103Z</time></trkpt><trkpt lat="45.5546097" lon="9.4350539"><ele>147.0</ele><time>2026-04-15T12:38:42.103Z</time></trkpt><trkpt lat="45.5545283" lon="9.4350761"><ele>147.0</ele><time>2026-04-15T12:38:43.103Z</time></trkpt><trkpt lat="45.5544446" lon="9.4350818"><ele>147.0</ele><time>2026-04-15T12:38:44.103Z</time></trkpt><trkpt lat="45.5543626" lon="9.435095"><ele>147.0</ele><time>2026-04-15T12:38:45.103Z</time></trkpt><trkpt lat="45.5542876" lon="9.4351177"><ele>146.66666666666666</ele><time>2026-04-15T12:38:46.104Z</time></trkpt><trkpt lat="45.5542164" lon="9.4351385"><ele>146.33333333333334</ele><time>2026-04-15T12:38:47.104Z</time></trkpt><trkpt lat="45.5541443" lon="9.4351642"><ele>146.0</ele><time>2026-04-15T12:38:48.103Z</time></trkpt><trkpt lat="45.5540655" lon="9.4351945"><ele>145.66666666666669</ele><time>2026-04-15T12:38:49.104Z</time></trkpt><trkpt lat="45.5539869" lon="9.4352152"><ele>145.33333333333334</ele><time>2026-04-15T12:38:50.103Z</time></trkpt><trkpt lat="45.5539133" lon="9.4352451"><ele>145.0</ele><time>2026-04-15T12:38:51.104Z</time></trkpt><trkpt lat="45.5538484" lon="9.4352682"><ele>145.0</ele><time>2026-04-15T12:38:52.104Z</time></trkpt><trkpt lat="45.5537783" lon="9.4352936"><ele>145.0</ele><time>2026-04-15T12:38:53.104Z</time></trkpt><trkpt lat="45.553706" lon="9.4353219"><ele>145.0</ele><time>2026-04-15T12:38:54.103Z</time></trkpt><trkpt lat="45.5536237" lon="9.435342"><ele>145.0</ele><time>2026-04-15T12:38:55.103Z</time></trkpt><trkpt lat="45.5535503" lon="9.4353586"><ele>145.0</ele><time>2026-04-15T12:38:56.104Z</time></trkpt><trkpt lat="45.5534277" lon="9.4353809"><ele>145.0</ele><time>2026-04-15T12:38:58.103Z</time></trkpt><trkpt lat="45.553361" lon="9.4353968"><ele>144.4</ele><time>2026-04-15T12:39:00.103Z</time></trkpt><trkpt lat="45.5532698" lon="9.4354287"><ele>143.8</ele><time>2026-04-15T12:39:03.104Z</time></trkpt><trkpt lat="45.5531838" lon="9.4354553"><ele>143.2</ele><time>2026-04-15T12:39:06.103Z</time></trkpt><trkpt lat="45.5531212" lon="9.4354832"><ele>142.6</ele><time>2026-04-15T12:39:08.104Z</time></trkpt><trkpt lat="45.5530041" lon="9.4355145"><ele>142.0</ele><time>2026-04-15T12:39:10.103Z</time></trkpt><trkpt lat="45.5529049" lon="9.4355551"><ele>141.83333333333334</ele><time>2026-04-15T12:39:12.104Z</time></trkpt><trkpt lat="45.5527982" lon="9.4356016"><ele>141.66666666666669</ele><time>2026-04-15T12:39:14.103Z</time></trkpt><trkpt lat="45.5526976" lon="9.4356541"><ele>141.5</ele><time>2026-04-15T12:39:16.103Z</time></trkpt><trkpt lat="45.5526358" lon="9.4356892"><ele>141.33333333333334</ele><time>2026-04-15T12:39:17.103Z</time></trkpt><trkpt lat="45.5525746" lon="9.4357123"><ele>141.16666666666666</ele><time>2026-04-15T12:39:18.103Z</time></trkpt><trkpt lat="45.5525065" lon="9.435739"><ele>141.0</ele><time>2026-04-15T12:39:19.103Z</time></trkpt><trkpt lat="45.5524319" lon="9.4357626"><ele>141.0</ele><time>2026-04-15T12:39:20.103Z</time></trkpt><trkpt lat="45.5523055" lon="9.4358145"><ele>141.0</ele><time>2026-04-15T12:39:22.103Z</time></trkpt><trkpt lat="45.5522392" lon="9.4358434"><ele>141.0</ele><time>2026-04-15T12:39:23.104Z</time></trkpt><trkpt lat="45.5521737" lon="9.4358788"><ele>141.0</ele><time>2026-04-15T12:39:24.103Z</time></trkpt><trkpt lat="45.5521064" lon="9.4359079"><ele>141.0</ele><time>2026-04-15T12:39:25.104Z</time></trkpt><trkpt lat="45.5520364" lon="9.4359369"><ele>141.0</ele><time>2026-04-15T12:39:26.104Z</time></trkpt><trkpt lat="45.5519702" lon="9.4359675"><ele>140.85714285714286</ele><time>2026-04-15T12:39:27.103Z</time></trkpt><trkpt lat="45.5518971" lon="9.4360001"><ele>140.71428571428572</ele><time>2026-04-15T12:39:28.104Z</time></trkpt><trkpt lat="45.5518265" lon="9.4360295"><ele>140.57142857142856</ele><time>2026-04-15T12:39:29.104Z</time></trkpt><trkpt lat="45.5517579" lon="9.4360638"><ele>140.42857142857144</ele><time>2026-04-15T12:39:30.103Z</time></trkpt><trkpt lat="45.551688" lon="9.4360952"><ele>140.28571428571428</ele><time>2026-04-15T12:39:31.103Z</time></trkpt><trkpt lat="45.5516193" lon="9.43612"><ele>140.14285714285714</ele><time>2026-04-15T12:39:32.104Z</time></trkpt><trkpt lat="45.5515464" lon="9.436148"><ele>140.0</ele><time>2026-04-15T12:39:33.103Z</time></trkpt><trkpt lat="45.5514676" lon="9.4361811"><ele>140.0</ele><time>2026-04-15T12:39:34.103Z</time></trkpt><trkpt lat="45.5514005" lon="9.436214"><ele>140.0</ele><time>2026-04-15T12:39:35.104Z</time></trkpt><trkpt lat="45.5513288" lon="9.436249"><ele>140.0</ele><time>2026-04-15T12:39:36.103Z</time></trkpt><trkpt lat="45.5512562" lon="9.4362866"><ele>140.0</ele><time>2026-04-15T12:39:37.103Z</time></trkpt><trkpt lat="45.5511843" lon="9.4363287"><ele>140.0</ele><time>2026-04-15T12:39:38.104Z</time></trkpt><trkpt lat="45.5511037" lon="9.4363644"><ele>140.0</ele><time>2026-04-15T12:39:39.103Z</time></trkpt><trkpt lat="45.5510331" lon="9.4363972"><ele>139.85714285714286</ele><time>2026-04-15T12:39:40.103Z</time></trkpt><trkpt lat="45.5509623" lon="9.4364348"><ele>139.71428571428572</ele><time>2026-04-15T12:39:41.103Z</time></trkpt><trkpt lat="45.5508937" lon="9.4364749"><ele>139.57142857142856</ele><time>2026-04-15T12:39:42.103Z</time></trkpt><trkpt lat="45.5508224" lon="9.4365249"><ele>139.42857142857144</ele><time>2026-04-15T12:39:43.103Z</time></trkpt><trkpt lat="45.550766" lon="9.4365739"><ele>139.28571428571428</ele><time>2026-04-15T12:39:44.103Z</time></trkpt><trkpt lat="45.5507077" lon="9.4366509"><ele>139.14285714285714</ele><time>2026-04-15T12:39:45.103Z</time></trkpt><trkpt lat="45.5506682" lon="9.4367333"><ele>139.0</ele><time>2026-04-15T12:39:46.104Z</time></trkpt><trkpt lat="45.5506369" lon="9.436835"><ele>139.0</ele><time>2026-04-15T12:39:47.104Z</time></trkpt><trkpt lat="45.5506095" lon="9.4369462"><ele>139.0</ele><time>2026-04-15T12:39:48.104Z</time></trkpt><trkpt lat="45.5505908" lon="9.4370525"><ele>139.0</ele><time>2026-04-15T12:39:49.103Z</time></trkpt><trkpt lat="45.5505723" lon="9.4371606"><ele>139.0</ele><time>2026-04-15T12:39:50.103Z</time></trkpt><trkpt lat="45.5505578" lon="9.4372619"><ele>139.0</ele><time>2026-04-15T12:39:51.103Z</time></trkpt><trkpt lat="45.55054" lon="9.4373652"><ele>139.0</ele><time>2026-04-15T12:39:52.103Z</time></trkpt><trkpt lat="45.5505134" lon="9.4374666"><ele>139.0</ele><time>2026-04-15T12:39:53.103Z</time></trkpt><trkpt lat="45.5504942" lon="9.4375718"><ele>139.0</ele><time>2026-04-15T12:39:54.104Z</time></trkpt><trkpt lat="45.5504744" lon="9.4376771"><ele>139.0</ele><time>2026-04-15T12:39:55.103Z</time></trkpt><trkpt lat="45.550458" lon="9.4377885"><ele>139.0</ele><time>2026-04-15T12:39:56.103Z</time></trkpt><trkpt lat="45.5504433" lon="9.4378936"><ele>139.0</ele><time>2026-04-15T12:39:57.103Z</time></trkpt><trkpt lat="45.5504266" lon="9.4380047"><ele>139.0</ele><time>2026-04-15T12:39:58.103Z</time></trkpt><trkpt lat="45.5504059" lon="9.4381103"><ele>139.0</ele><time>2026-04-15T12:39:59.103Z</time></trkpt><trkpt lat="45.5503905" lon="9.4382155"><ele>139.0</ele><time>2026-04-15T12:40:00.103Z</time></trkpt><trkpt lat="45.5503648" lon="9.4383237"><ele>139.0</ele><time>2026-04-15T12:40:01.103Z</time></trkpt><trkpt lat="45.5503459" lon="9.4384302"><ele>139.0</ele><time>2026-04-15T12:40:02.103Z</time></trkpt><trkpt lat="45.5503282" lon="9.4385374"><ele>139.0</ele><time>2026-04-15T12:40:03.104Z</time></trkpt><trkpt lat="45.5503112" lon="9.4386491"><ele>139.0</ele><time>2026-04-15T12:40:04.103Z</time></trkpt><trkpt lat="45.5502908" lon="9.4387594"><ele>138.83333333333334</ele><time>2026-04-15T12:40:05.103Z</time></trkpt><trkpt lat="45.5502733" lon="9.4388615"><ele>138.66666666666669</ele><time>2026-04-15T12:40:06.103Z</time></trkpt><trkpt lat="45.5502562" lon="9.4389774"><ele>138.5</ele><time>2026-04-15T12:40:07.103Z</time></trkpt><trkpt lat="45.5502354" lon="9.4390819"><ele>138.33333333333334</ele><time>2026-04-15T12:40:08.103Z</time></trkpt><trkpt lat="45.5502126" lon="9.4391837"><ele>138.16666666666666</ele><time>2026-04-15T12:40:09.103Z</time></trkpt><trkpt lat="45.5501964" lon="9.4392891"><ele>138.0</ele><time>2026-04-15T12:40:10.103Z</time></trkpt><trkpt lat="45.5501785" lon="9.4393968"><ele>138.0</ele><time>2026-04-15T12:40:11.103Z</time></trkpt><trkpt lat="45.5501635" lon="9.4394956"><ele>138.0</ele><time>2026-04-15T12:40:12.103Z</time></trkpt><trkpt lat="45.5501416" lon="9.4396069"><ele>138.0</ele><time>2026-04-15T12:40:13.103Z</time></trkpt><trkpt lat="45.5501183" lon="9.4397193"><ele>138.0</ele><time>2026-04-15T12:40:14.103Z</time></trkpt><trkpt lat="45.5500961" lon="9.4398254"><ele>138.0</ele><time>2026-04-15T12:40:15.103Z</time></trkpt><trkpt lat="45.5500599" lon="9.4399263"><ele>138.0</ele><time>2026-04-15T12:40:16.103Z</time></trkpt><trkpt lat="45.5500102" lon="9.4400041"><ele>138.14285714285714</ele><time>2026-04-15T12:40:17.103Z</time></trkpt><trkpt lat="45.5499511" lon="9.4400709"><ele>138.2857142857143</ele><time>2026-04-15T12:40:18.103Z</time></trkpt><trkpt lat="45.5498825" lon="9.44012"><ele>138.42857142857144</ele><time>2026-04-15T12:40:19.103Z</time></trkpt><trkpt lat="45.5498135" lon="9.4401672"><ele>138.57142857142858</ele><time>2026-04-15T12:40:20.104Z</time></trkpt><trkpt lat="45.5497429" lon="9.4401951"><ele>138.71428571428572</ele><time>2026-04-15T12:40:21.103Z</time></trkpt><trkpt lat="45.5496734" lon="9.4402345"><ele>138.85714285714286</ele><time>2026-04-15T12:40:22.103Z</time></trkpt><trkpt lat="45.5496076" lon="9.4402716"><ele>139.0</ele><time>2026-04-15T12:40:23.103Z</time></trkpt><trkpt lat="45.5495345" lon="9.4403097"><ele>138.83333333333334</ele><time>2026-04-15T12:40:24.103Z</time></trkpt><trkpt lat="45.5494555" lon="9.4403521"><ele>138.66666666666669</ele><time>2026-04-15T12:40:25.103Z</time></trkpt><trkpt lat="45.5493746" lon="9.4403874"><ele>138.5</ele><time>2026-04-15T12:40:26.103Z</time></trkpt><trkpt lat="45.5492942" lon="9.4404271"><ele>138.33333333333334</ele><time>2026-04-15T12:40:27.103Z</time></trkpt><trkpt lat="45.54922" lon="9.4404621"><ele>138.16666666666666</ele><time>2026-04-15T12:40:28.103Z</time></trkpt><trkpt lat="45.5491478" lon="9.4404982"><ele>138.0</ele><time>2026-04-15T12:40:29.103Z</time></trkpt><trkpt lat="45.5490773" lon="9.4405394"><ele>138.0</ele><time>2026-04-15T12:40:30.103Z</time></trkpt><trkpt lat="45.5490025" lon="9.4405757"><ele>138.0</ele><time>2026-04-15T12:40:31.104Z</time></trkpt><trkpt lat="45.5489248" lon="9.4406189"><ele>138.0</ele><time>2026-04-15T12:40:32.103Z</time></trkpt><trkpt lat="45.5488494" lon="9.4406461"><ele>138.0</ele><time>2026-04-15T12:40:33.103Z</time></trkpt><trkpt lat="45.5487667" lon="9.440683"><ele>138.0</ele><time>2026-04-15T12:40:34.103Z</time></trkpt><trkpt lat="45.5486821" lon="9.4407218"><ele>138.0</ele><time>2026-04-15T12:40:35.104Z</time></trkpt><trkpt lat="45.548602" lon="9.4407537"><ele>138.33333333333334</ele><time>2026-04-15T12:40:36.103Z</time></trkpt><trkpt lat="45.5485267" lon="9.4407915"><ele>138.66666666666666</ele><time>2026-04-15T12:40:37.104Z</time></trkpt><trkpt lat="45.5484516" lon="9.4408151"><ele>139.0</ele><time>2026-04-15T12:40:38.103Z</time></trkpt><trkpt lat="45.5483736" lon="9.4408531"><ele>139.33333333333331</ele><time>2026-04-15T12:40:39.103Z</time></trkpt><trkpt lat="45.5483073" lon="9.4408805"><ele>139.66666666666666</ele><time>2026-04-15T12:40:40.104Z</time></trkpt><trkpt lat="45.5482336" lon="9.4408901"><ele>140.0</ele><time>2026-04-15T12:40:41.103Z</time></trkpt><trkpt lat="45.5481545" lon="9.4409149"><ele>140.0</ele><time>2026-04-15T12:40:42.103Z</time></trkpt><trkpt lat="45.5480868" lon="9.440946"><ele>140.0</ele><time>2026-04-15T12:40:43.104Z</time></trkpt><trkpt lat="45.5480103" lon="9.4409598"><ele>140.0</ele><time>2026-04-15T12:40:44.103Z</time></trkpt><trkpt lat="45.547939" lon="9.4410066"><ele>140.0</ele><time>2026-04-15T12:40:45.104Z</time></trkpt><trkpt lat="45.5478702" lon="9.4410575"><ele>140.0</ele><time>2026-04-15T12:40:46.103Z</time></trkpt><trkpt lat="45.5478061" lon="9.4411"><ele>140.0</ele><time>2026-04-15T12:40:47.103Z</time></trkpt><trkpt lat="45.5477288" lon="9.4411497"><ele>139.5</ele><time>2026-04-15T12:40:48.103Z</time></trkpt><trkpt lat="45.5476584" lon="9.4412042"><ele>139.0</ele><time>2026-04-15T12:40:49.103Z</time></trkpt><trkpt lat="45.5475845" lon="9.4412459"><ele>138.5</ele><time>2026-04-15T12:40:50.103Z</time></trkpt><trkpt lat="45.5475114" lon="9.4412815"><ele>138.0</ele><time>2026-04-15T12:40:51.103Z</time></trkpt><trkpt lat="45.5474357" lon="9.4413163"><ele>137.5</ele><time>2026-04-15T12:40:52.104Z</time></trkpt><trkpt lat="45.5473502" lon="9.4413613"><ele>137.0</ele><time>2026-04-15T12:40:53.103Z</time></trkpt><trkpt lat="45.5472745" lon="9.4413997"><ele>136.83333333333331</ele><time>2026-04-15T12:40:54.104Z</time></trkpt><trkpt lat="45.5471993" lon="9.44144"><ele>136.66666666666666</ele><time>2026-04-15T12:40:55.103Z</time></trkpt><trkpt lat="45.5471299" lon="9.4414804"><ele>136.5</ele><time>2026-04-15T12:40:56.103Z</time></trkpt><trkpt lat="45.5470509" lon="9.4415253"><ele>136.33333333333334</ele><time>2026-04-15T12:40:57.103Z</time></trkpt><trkpt lat="45.5469859" lon="9.4415706"><ele>136.16666666666669</ele><time>2026-04-15T12:40:58.104Z</time></trkpt><trkpt lat="45.5469093" lon="9.4416084"><ele>136.0</ele><time>2026-04-15T12:40:59.103Z</time></trkpt><trkpt lat="45.5468409" lon="9.4416396"><ele>135.83333333333334</ele><time>2026-04-15T12:41:00.103Z</time></trkpt><trkpt lat="45.5467773" lon="9.4416804"><ele>135.66666666666669</ele><time>2026-04-15T12:41:01.103Z</time></trkpt><trkpt lat="45.5467097" lon="9.441711"><ele>135.5</ele><time>2026-04-15T12:41:02.104Z</time></trkpt><trkpt lat="45.5466067" lon="9.4417757"><ele>135.33333333333334</ele><time>2026-04-15T12:41:04.103Z</time></trkpt><trkpt lat="45.5465278" lon="9.4418039"><ele>135.16666666666666</ele><time>2026-04-15T12:41:06.103Z</time></trkpt><trkpt lat="45.5464555" lon="9.4418187"><ele>135.0</ele><time>2026-04-15T12:41:20.104Z</time></trkpt><trkpt lat="45.5463806" lon="9.4418222"><ele>135.0</ele><time>2026-04-15T12:41:24.104Z</time></trkpt><trkpt lat="45.5463026" lon="9.4418384"><ele>135.0</ele><time>2026-04-15T12:41:26.103Z</time></trkpt><trkpt lat="45.5461963" lon="9.4418492"><ele>135.0</ele><time>2026-04-15T12:41:28.103Z</time></trkpt><trkpt lat="45.5461163" lon="9.4419486"><ele>135.0</ele><time>2026-04-15T12:41:30.103Z</time></trkpt><trkpt lat="45.5460357" lon="9.4420489"><ele>135.0</ele><time>2026-04-15T12:41:32.103Z</time></trkpt><trkpt lat="45.5459331" lon="9.4421459"><ele>134.85714285714286</ele><time>2026-04-15T12:41:34.104Z</time></trkpt><trkpt lat="45.545877" lon="9.4421935"><ele>134.7142857142857</ele><time>2026-04-15T12:41:35.103Z</time></trkpt><trkpt lat="45.5458206" lon="9.4422422"><ele>134.57142857142856</ele><time>2026-04-15T12:41:36.104Z</time></trkpt><trkpt lat="45.5457596" lon="9.442296"><ele>134.42857142857142</ele><time>2026-04-15T12:41:37.103Z</time></trkpt><trkpt lat="45.5456951" lon="9.4423464"><ele>134.28571428571428</ele><time>2026-04-15T12:41:38.103Z</time></trkpt><trkpt lat="45.5456257" lon="9.4423921"><ele>134.14285714285714</ele><time>2026-04-15T12:41:39.103Z</time></trkpt><trkpt lat="45.5455582" lon="9.4424415"><ele>134.0</ele><time>2026-04-15T12:41:40.104Z</time></trkpt><trkpt lat="45.5454974" lon="9.442484"><ele>134.0</ele><time>2026-04-15T12:41:41.103Z</time></trkpt><trkpt lat="45.5454249" lon="9.4425329"><ele>134.0</ele><time>2026-04-15T12:41:42.104Z</time></trkpt><trkpt lat="45.5453521" lon="9.4425813"><ele>134.0</ele><time>2026-04-15T12:41:43.103Z</time></trkpt><trkpt lat="45.5452933" lon="9.442636"><ele>134.0</ele><time>2026-04-15T12:41:44.103Z</time></trkpt><trkpt lat="45.5452283" lon="9.4426902"><ele>134.0</ele><time>2026-04-15T12:41:45.103Z</time></trkpt><trkpt lat="45.5451608" lon="9.4427384"><ele>134.0</ele><time>2026-04-15T12:41:46.103Z</time></trkpt><trkpt lat="45.5450944" lon="9.4427955"><ele>134.16666666666666</ele><time>2026-04-15T12:41:47.103Z</time></trkpt><trkpt lat="45.5450273" lon="9.4428352"><ele>134.33333333333331</ele><time>2026-04-15T12:41:48.103Z</time></trkpt><trkpt lat="45.5449616" lon="9.4428847"><ele>134.5</ele><time>2026-04-15T12:41:49.104Z</time></trkpt><trkpt lat="45.5448961" lon="9.4429349"><ele>134.66666666666666</ele><time>2026-04-15T12:41:50.103Z</time></trkpt><trkpt lat="45.5448239" lon="9.4429845"><ele>134.83333333333334</ele><time>2026-04-15T12:41:51.104Z</time></trkpt><trkpt lat="45.5447597" lon="9.4430332"><ele>135.0</ele><time>2026-04-15T12:41:52.103Z</time></trkpt><trkpt lat="45.5446867" lon="9.4430668"><ele>135.0</ele><time>2026-04-15T12:41:53.103Z</time></trkpt><trkpt lat="45.5446208" lon="9.4431079"><ele>135.0</ele><time>2026-04-15T12:41:54.104Z</time></trkpt><trkpt lat="45.5445558" lon="9.443132"><ele>135.0</ele><time>2026-04-15T12:41:55.103Z</time></trkpt><trkpt lat="45.544495" lon="9.443162"><ele>135.0</ele><time>2026-04-15T12:41:56.104Z</time></trkpt><trkpt lat="45.5443825" lon="9.4432327"><ele>135.0</ele><time>2026-04-15T12:41:58.103Z</time></trkpt><trkpt lat="45.5443026" lon="9.4432845"><ele>135.0</ele><time>2026-04-15T12:42:00.104Z</time></trkpt><trkpt lat="45.5442237" lon="9.4433529"><ele>135.0</ele><time>2026-04-15T12:42:25.103Z</time></trkpt><trkpt lat="45.5441571" lon="9.44346"><ele>135.0</ele><time>2026-04-15T12:42:27.103Z</time></trkpt><trkpt lat="45.5441032" lon="9.4435386"><ele>135.0</ele><time>2026-04-15T12:42:28.103Z</time></trkpt><trkpt lat="45.5440546" lon="9.4436756"><ele>135.0</ele><time>2026-04-15T12:42:30.103Z</time></trkpt><trkpt lat="45.5440517" lon="9.4438097"><ele>135.0</ele><time>2026-04-15T12:42:32.103Z</time></trkpt><trkpt lat="45.5440712" lon="9.4439581"><ele>135.0</ele><time>2026-04-15T12:42:34.104Z</time></trkpt><trkpt lat="45.5440825" lon="9.4441264"><ele>135.0</ele><time>2026-04-15T12:42:36.103Z</time></trkpt><trkpt lat="45.5441003" lon="9.4442161"><ele>135.0</ele><time>2026-04-15T12:42:37.104Z</time></trkpt><trkpt lat="45.5441091" lon="9.4443073"><ele>135.0</ele><time>2026-04-15T12:42:38.103Z</time></trkpt><trkpt lat="45.5441292" lon="9.4443927"><ele>135.0</ele><time>2026-04-15T12:42:39.103Z</time></trkpt><trkpt lat="45.5441387" lon="9.4444843"><ele>135.0</ele><time>2026-04-15T12:42:40.103Z</time></trkpt><trkpt lat="45.5441504" lon="9.4445828"><ele>135.0</ele><time>2026-04-15T12:42:41.104Z</time></trkpt><trkpt lat="45.5441553" lon="9.4446835"><ele>135.0</ele><time>2026-04-15T12:42:42.104Z</time></trkpt><trkpt lat="45.5441522" lon="9.444787"><ele>135.0</ele><time>2026-04-15T12:42:43.103Z</time></trkpt><trkpt lat="45.5441507" lon="9.4448919"><ele>135.0</ele><time>2026-04-15T12:42:44.103Z</time></trkpt><trkpt lat="45.5441487" lon="9.4449953"><ele>135.0</ele><time>2026-04-15T12:42:45.103Z</time></trkpt><trkpt lat="45.544137" lon="9.4451065"><ele>135.0</ele><time>2026-04-15T12:42:46.103Z</time></trkpt><trkpt lat="45.5441327" lon="9.4452024"><ele>135.0</ele><time>2026-04-15T12:42:47.104Z</time></trkpt><trkpt lat="45.544125" lon="9.4453085"><ele>135.0</ele><time>2026-04-15T12:42:48.103Z</time></trkpt><trkpt lat="45.5441211" lon="9.4454062"><ele>135.0</ele><time>2026-04-15T12:42:49.103Z</time></trkpt><trkpt lat="45.5441164" lon="9.4455108"><ele>135.0</ele><time>2026-04-15T12:42:50.104Z</time></trkpt><trkpt lat="45.5441103" lon="9.4456156"><ele>135.0</ele><time>2026-04-15T12:42:51.103Z</time></trkpt><trkpt lat="45.5441074" lon="9.445714"><ele>135.0</ele><time>2026-04-15T12:42:52.103Z</time></trkpt><trkpt lat="45.5441036" lon="9.4458146"><ele>135.0</ele><time>2026-04-15T12:42:53.104Z</time></trkpt><trkpt lat="45.5440969" lon="9.4459079"><ele>135.0</ele><time>2026-04-15T12:42:54.103Z</time></trkpt><trkpt lat="45.5440907" lon="9.446013"><ele>135.0</ele><time>2026-04-15T12:42:55.104Z</time></trkpt><trkpt lat="45.5440844" lon="9.4461144"><ele>135.0</ele><time>2026-04-15T12:42:56.104Z</time></trkpt><trkpt lat="45.5440786" lon="9.4462189"><ele>135.0</ele><time>2026-04-15T12:42:57.103Z</time></trkpt><trkpt lat="45.5440752" lon="9.4463148"><ele>135.0</ele><time>2026-04-15T12:42:58.103Z</time></trkpt><trkpt lat="45.5440702" lon="9.4464141"><ele>135.0</ele><time>2026-04-15T12:42:59.103Z</time></trkpt><trkpt lat="45.5440648" lon="9.4465171"><ele>135.0</ele><time>2026-04-15T12:43:00.103Z</time></trkpt><trkpt lat="45.5440603" lon="9.4466138"><ele>135.0</ele><time>2026-04-15T12:43:01.104Z</time></trkpt><trkpt lat="45.5440574" lon="9.4467104"><ele>135.0</ele><time>2026-04-15T12:43:02.104Z</time></trkpt><trkpt lat="45.5440513" lon="9.4468238"><ele>135.0</ele><time>2026-04-15T12:43:03.103Z</time></trkpt><trkpt lat="45.5440544" lon="9.4469263"><ele>135.0</ele><time>2026-04-15T12:43:04.104Z</time></trkpt><trkpt lat="45.5440576" lon="9.4470289"><ele>135.0</ele><time>2026-04-15T12:43:05.104Z</time></trkpt><trkpt lat="45.5440646" lon="9.4471335"><ele>135.0</ele><time>2026-04-15T12:43:06.103Z</time></trkpt><trkpt lat="45.5440804" lon="9.4472353"><ele>135.0</ele><time>2026-04-15T12:43:07.103Z</time></trkpt><trkpt lat="45.5440954" lon="9.447335"><ele>135.0</ele><time>2026-04-15T12:43:08.104Z</time></trkpt><trkpt lat="45.5441097" lon="9.4474373"><ele>135.0</ele><time>2026-04-15T12:43:09.104Z</time></trkpt><trkpt lat="45.5441249" lon="9.4475366"><ele>135.14285714285714</ele><time>2026-04-15T12:43:10.104Z</time></trkpt><trkpt lat="45.5441401" lon="9.4476457"><ele>135.28571428571428</ele><time>2026-04-15T12:43:11.103Z</time></trkpt><trkpt lat="45.5441508" lon="9.4477476"><ele>135.42857142857142</ele><time>2026-04-15T12:43:12.103Z</time></trkpt><trkpt lat="45.5441592" lon="9.4478551"><ele>135.57142857142856</ele><time>2026-04-15T12:43:13.103Z</time></trkpt><trkpt lat="45.5441708" lon="9.4479534"><ele>135.71428571428572</ele><time>2026-04-15T12:43:14.103Z</time></trkpt><trkpt lat="45.5441666" lon="9.4480684"><ele>135.85714285714283</ele><time>2026-04-15T12:43:15.103Z</time></trkpt><trkpt lat="45.5441772" lon="9.4481704"><ele>136.0</ele><time>2026-04-15T12:43:16.103Z</time></trkpt><trkpt lat="45.5441833" lon="9.4482821"><ele>135.57142857142856</ele><time>2026-04-15T12:43:17.103Z</time></trkpt><trkpt lat="45.5441849" lon="9.4483903"><ele>135.14285714285714</ele><time>2026-04-15T12:43:18.104Z</time></trkpt><trkpt lat="45.5441894" lon="9.4485024"><ele>134.71428571428572</ele><time>2026-04-15T12:43:19.103Z</time></trkpt><trkpt lat="45.5442026" lon="9.4485988"><ele>134.28571428571428</ele><time>2026-04-15T12:43:20.104Z</time></trkpt><trkpt lat="45.5442176" lon="9.4487004"><ele>133.85714285714286</ele><time>2026-04-15T12:43:21.103Z</time></trkpt><trkpt lat="45.5442311" lon="9.448796"><ele>133.42857142857142</ele><time>2026-04-15T12:43:22.104Z</time></trkpt><trkpt lat="45.5442382" lon="9.4488943"><ele>133.0</ele><time>2026-04-15T12:43:23.104Z</time></trkpt><trkpt lat="45.5442346" lon="9.448986"><ele>133.0</ele><time>2026-04-15T12:43:24.104Z</time></trkpt><trkpt lat="45.5442417" lon="9.4490805"><ele>133.0</ele><time>2026-04-15T12:43:25.103Z</time></trkpt><trkpt lat="45.5442366" lon="9.4491747"><ele>133.0</ele><time>2026-04-15T12:43:26.103Z</time></trkpt><trkpt lat="45.5442393" lon="9.4492656"><ele>133.0</ele><time>2026-04-15T12:43:27.104Z</time></trkpt><trkpt lat="45.5442417" lon="9.4493555"><ele>133.0</ele><time>2026-04-15T12:43:28.104Z</time></trkpt><trkpt lat="45.5442405" lon="9.4494494"><ele>133.0</ele><time>2026-04-15T12:43:29.103Z</time></trkpt><trkpt lat="45.5442446" lon="9.4495396"><ele>133.0</ele><time>2026-04-15T12:43:30.104Z</time></trkpt><trkpt lat="45.5442421" lon="9.4497002"><ele>133.0</ele><time>2026-04-15T12:43:32.103Z</time></trkpt><trkpt lat="45.5442283" lon="9.4498317"><ele>133.0</ele><time>2026-04-15T12:43:34.103Z</time></trkpt><trkpt lat="45.544237" lon="9.4499763"><ele>133.0</ele><time>2026-04-15T12:43:36.104Z</time></trkpt><trkpt lat="45.5442283" lon="9.450139"><ele>133.0</ele><time>2026-04-15T12:43:38.104Z</time></trkpt><trkpt lat="45.544228" lon="9.450236"><ele>133.0</ele><time>2026-04-15T12:43:39.103Z</time></trkpt><trkpt lat="45.5442165" lon="9.4504164"><ele>133.14285714285714</ele><time>2026-04-15T12:43:41.103Z</time></trkpt><trkpt lat="45.5442158" lon="9.4505169"><ele>133.28571428571428</ele><time>2026-04-15T12:43:42.104Z</time></trkpt><trkpt lat="45.5442152" lon="9.4506093"><ele>133.42857142857144</ele><time>2026-04-15T12:43:43.103Z</time></trkpt><trkpt lat="45.5442171" lon="9.4507073"><ele>133.57142857142856</ele><time>2026-04-15T12:43:44.104Z</time></trkpt><trkpt lat="45.5442116" lon="9.4507994"><ele>133.71428571428572</ele><time>2026-04-15T12:43:45.103Z</time></trkpt><trkpt lat="45.5442037" lon="9.4508997"><ele>133.85714285714286</ele><time>2026-04-15T12:43:46.104Z</time></trkpt><trkpt lat="45.5442015" lon="9.4509964"><ele>134.0</ele><time>2026-04-15T12:43:47.103Z</time></trkpt><trkpt lat="45.5442004" lon="9.4510963"><ele>134.0</ele><time>2026-04-15T12:43:48.103Z</time></trkpt><trkpt lat="45.5441929" lon="9.4511973"><ele>134.0</ele><time>2026-04-15T12:43:49.103Z</time></trkpt><trkpt lat="45.5441898" lon="9.4512989"><ele>134.0</ele><time>2026-04-15T12:43:50.104Z</time></trkpt><trkpt lat="45.5441821" lon="9.451393"><ele>134.0</ele><time>2026-04-15T12:43:51.103Z</time></trkpt><trkpt lat="45.5441768" lon="9.4514875"><ele>134.0</ele><time>2026-04-15T12:43:52.103Z</time></trkpt><trkpt lat="45.5441695" lon="9.4515891"><ele>134.0</ele><time>2026-04-15T12:43:53.103Z</time></trkpt><trkpt lat="45.5441589" lon="9.4516921"><ele>134.0</ele><time>2026-04-15T12:43:54.103Z</time></trkpt><trkpt lat="45.5441481" lon="9.4517912"><ele>134.0</ele><time>2026-04-15T12:43:55.103Z</time></trkpt><trkpt lat="45.5441353" lon="9.4519152"><ele>134.0</ele><time>2026-04-15T12:43:56.103Z</time></trkpt><trkpt lat="45.5441201" lon="9.4520959"><ele>134.0</ele><time>2026-04-15T12:43:58.103Z</time></trkpt><trkpt lat="45.5441098" lon="9.4521958"><ele>134.0</ele><time>2026-04-15T12:43:59.104Z</time></trkpt><trkpt lat="45.5440951" lon="9.4522926"><ele>134.0</ele><time>2026-04-15T12:44:00.103Z</time></trkpt><trkpt lat="45.5440787" lon="9.4524065"><ele>134.0</ele><time>2026-04-15T12:44:01.103Z</time></trkpt><trkpt lat="45.5440637" lon="9.452517"><ele>134.0</ele><time>2026-04-15T12:44:02.104Z</time></trkpt><trkpt lat="45.5440523" lon="9.4526141"><ele>134.0</ele><time>2026-04-15T12:44:03.103Z</time></trkpt><trkpt lat="45.5440401" lon="9.4527185"><ele>134.0</ele><time>2026-04-15T12:44:04.104Z</time></trkpt><trkpt lat="45.5440288" lon="9.4528242"><ele>134.0</ele><time>2026-04-15T12:44:05.103Z</time></trkpt><trkpt lat="45.5440316" lon="9.4529977"><ele>134.0</ele><time>2026-04-15T12:44:07.103Z</time></trkpt><trkpt lat="45.5440147" lon="9.4531028"><ele>134.0</ele><time>2026-04-15T12:44:08.103Z</time></trkpt><trkpt lat="45.5440002" lon="9.453196"><ele>134.0</ele><time>2026-04-15T12:44:09.103Z</time></trkpt><trkpt lat="45.5439961" lon="9.4533037"><ele>134.0</ele><time>2026-04-15T12:44:10.104Z</time></trkpt><trkpt lat="45.5439829" lon="9.4534135"><ele>134.0</ele><time>2026-04-15T12:44:11.103Z</time></trkpt><trkpt lat="45.5439726" lon="9.4535273"><ele>134.0</ele><time>2026-04-15T12:44:12.103Z</time></trkpt><trkpt lat="45.5439732" lon="9.4536181"><ele>134.0</ele><time>2026-04-15T12:44:13.103Z</time></trkpt><trkpt lat="45.5439604" lon="9.4537232"><ele>134.0</ele><time>2026-04-15T12:44:14.103Z</time></trkpt><trkpt lat="45.5439496" lon="9.4538232"><ele>134.0</ele><time>2026-04-15T12:44:15.103Z</time></trkpt><trkpt lat="45.5439408" lon="9.4539295"><ele>134.0</ele><time>2026-04-15T12:44:16.103Z</time></trkpt><trkpt lat="45.5439307" lon="9.4540273"><ele>134.0</ele><time>2026-04-15T12:44:17.103Z</time></trkpt><trkpt lat="45.5439251" lon="9.4541287"><ele>134.0</ele><time>2026-04-15T12:44:18.103Z</time></trkpt><trkpt lat="45.5439123" lon="9.4542277"><ele>134.0</ele><time>2026-04-15T12:44:19.103Z</time></trkpt><trkpt lat="45.5438931" lon="9.4543196"><ele>134.0</ele><time>2026-04-15T12:44:20.103Z</time></trkpt><trkpt lat="45.5438859" lon="9.4544469"><ele>134.0</ele><time>2026-04-15T12:44:21.103Z</time></trkpt><trkpt lat="45.543876" lon="9.4545634"><ele>134.16666666666666</ele><time>2026-04-15T12:44:22.104Z</time></trkpt><trkpt lat="45.5438633" lon="9.4546696"><ele>134.33333333333331</ele><time>2026-04-15T12:44:23.103Z</time></trkpt><trkpt lat="45.5438441" lon="9.4547781"><ele>134.5</ele><time>2026-04-15T12:44:24.103Z</time></trkpt><trkpt lat="45.5438381" lon="9.4548834"><ele>134.66666666666666</ele><time>2026-04-15T12:44:25.103Z</time></trkpt><trkpt lat="45.5438259" lon="9.4549844"><ele>134.83333333333334</ele><time>2026-04-15T12:44:26.103Z</time></trkpt><trkpt lat="45.5438129" lon="9.4551002"><ele>135.0</ele><time>2026-04-15T12:44:27.104Z</time></trkpt><trkpt lat="45.5438047" lon="9.4552276"><ele>135.0</ele><time>2026-04-15T12:44:28.103Z</time></trkpt><trkpt lat="45.5437975" lon="9.4553498"><ele>135.0</ele><time>2026-04-15T12:44:29.103Z</time></trkpt><trkpt lat="45.543791" lon="9.4554512"><ele>135.0</ele><time>2026-04-15T12:44:30.103Z</time></trkpt><trkpt lat="45.5437669" lon="9.455555"><ele>135.0</ele><time>2026-04-15T12:44:31.103Z</time></trkpt><trkpt lat="45.5437556" lon="9.4556691"><ele>135.0</ele><time>2026-04-15T12:44:32.103Z</time></trkpt><trkpt lat="45.5437494" lon="9.4557721"><ele>135.0</ele><time>2026-04-15T12:44:33.103Z</time></trkpt><trkpt lat="45.5437466" lon="9.4558651"><ele>135.28571428571428</ele><time>2026-04-15T12:44:34.103Z</time></trkpt><trkpt lat="45.5437417" lon="9.4559655"><ele>135.57142857142856</ele><time>2026-04-15T12:44:35.103Z</time></trkpt><trkpt lat="45.5437386" lon="9.4560723"><ele>135.85714285714286</ele><time>2026-04-15T12:44:36.103Z</time></trkpt><trkpt lat="45.5437301" lon="9.4561796"><ele>136.14285714285714</ele><time>2026-04-15T12:44:37.103Z</time></trkpt><trkpt lat="45.543718" lon="9.4562897"><ele>136.42857142857144</ele><time>2026-04-15T12:44:38.103Z</time></trkpt><trkpt lat="45.5437159" lon="9.4563899"><ele>136.71428571428572</ele><time>2026-04-15T12:44:39.103Z</time></trkpt><trkpt lat="45.5437063" lon="9.456499"><ele>137.0</ele><time>2026-04-15T12:44:40.103Z</time></trkpt><trkpt lat="45.5436929" lon="9.4566082"><ele>136.5</ele><time>2026-04-15T12:44:41.103Z</time></trkpt><trkpt lat="45.5436817" lon="9.4567165"><ele>136.0</ele><time>2026-04-15T12:44:42.103Z</time></trkpt><trkpt lat="45.543672" lon="9.4568208"><ele>135.5</ele><time>2026-04-15T12:44:43.104Z</time></trkpt><trkpt lat="45.5436679" lon="9.4569318"><ele>135.0</ele><time>2026-04-15T12:44:44.103Z</time></trkpt><trkpt lat="45.5436566" lon="9.4570447"><ele>134.5</ele><time>2026-04-15T12:44:45.103Z</time></trkpt><trkpt lat="45.5436463" lon="9.4571522"><ele>134.0</ele><time>2026-04-15T12:44:46.103Z</time></trkpt><trkpt lat="45.5436309" lon="9.4572596"><ele>134.0</ele><time>2026-04-15T12:44:47.104Z</time></trkpt><trkpt lat="45.5436245" lon="9.4573668"><ele>134.0</ele><time>2026-04-15T12:44:48.103Z</time></trkpt><trkpt lat="45.5436156" lon="9.4574709"><ele>134.0</ele><time>2026-04-15T12:44:49.103Z</time></trkpt><trkpt lat="45.5436058" lon="9.4575752"><ele>134.0</ele><time>2026-04-15T12:44:50.104Z</time></trkpt><trkpt lat="45.5435984" lon="9.4576807"><ele>134.0</ele><time>2026-04-15T12:44:51.103Z</time></trkpt><trkpt lat="45.5435883" lon="9.4577978"><ele>134.0</ele><time>2026-04-15T12:44:52.104Z</time></trkpt><trkpt lat="45.5435798" lon="9.457905"><ele>134.33333333333331</ele><time>2026-04-15T12:44:53.103Z</time></trkpt><trkpt lat="45.5435727" lon="9.4580076"><ele>134.66666666666666</ele><time>2026-04-15T12:44:54.103Z</time></trkpt><trkpt lat="45.543567" lon="9.4581105"><ele>135.0</ele><time>2026-04-15T12:44:55.104Z</time></trkpt><trkpt lat="45.5435541" lon="9.4582181"><ele>135.33333333333334</ele><time>2026-04-15T12:44:56.103Z</time></trkpt><trkpt lat="45.5435467" lon="9.4583303"><ele>135.66666666666669</ele><time>2026-04-15T12:44:57.104Z</time></trkpt><trkpt lat="45.5435342" lon="9.45844"><ele>136.0</ele><time>2026-04-15T12:44:58.104Z</time></trkpt><trkpt lat="45.5435313" lon="9.4585509"><ele>136.0</ele><time>2026-04-15T12:44:59.103Z</time></trkpt><trkpt lat="45.5435221" lon="9.4586585"><ele>136.0</ele><time>2026-04-15T12:45:00.104Z</time></trkpt><trkpt lat="45.5435036" lon="9.4587688"><ele>136.0</ele><time>2026-04-15T12:45:01.103Z</time></trkpt><trkpt lat="45.5434882" lon="9.4588703"><ele>136.0</ele><time>2026-04-15T12:45:02.104Z</time></trkpt><trkpt lat="45.5434691" lon="9.4589811"><ele>136.0</ele><time>2026-04-15T12:45:03.103Z</time></trkpt><trkpt lat="45.5434535" lon="9.4591971"><ele>135.5</ele><time>2026-04-15T12:45:05.103Z</time></trkpt><trkpt lat="45.5434312" lon="9.4593088"><ele>135.0</ele><time>2026-04-15T12:45:06.103Z</time></trkpt><trkpt lat="45.5434168" lon="9.4594129"><ele>134.5</ele><time>2026-04-15T12:45:07.103Z</time></trkpt><trkpt lat="45.543409" lon="9.4595263"><ele>134.0</ele><time>2026-04-15T12:45:08.103Z</time></trkpt><trkpt lat="45.543392" lon="9.4596358"><ele>133.5</ele><time>2026-04-15T12:45:09.104Z</time></trkpt><trkpt lat="45.5433804" lon="9.4597547"><ele>133.0</ele><time>2026-04-15T12:45:10.104Z</time></trkpt><trkpt lat="45.5433662" lon="9.459867"><ele>133.0</ele><time>2026-04-15T12:45:11.104Z</time></trkpt><trkpt lat="45.5433539" lon="9.4599748"><ele>133.0</ele><time>2026-04-15T12:45:12.103Z</time></trkpt><trkpt lat="45.5433435" lon="9.4600929"><ele>133.0</ele><time>2026-04-15T12:45:13.103Z</time></trkpt><trkpt lat="45.5433361" lon="9.4602016"><ele>133.0</ele><time>2026-04-15T12:45:14.103Z</time></trkpt><trkpt lat="45.5433162" lon="9.4603086"><ele>133.0</ele><time>2026-04-15T12:45:15.103Z</time></trkpt><trkpt lat="45.5432977" lon="9.4604213"><ele>133.0</ele><time>2026-04-15T12:45:16.104Z</time></trkpt><trkpt lat="45.5432785" lon="9.4605263"><ele>133.0</ele><time>2026-04-15T12:45:17.103Z</time></trkpt><trkpt lat="45.5432504" lon="9.4606306"><ele>133.0</ele><time>2026-04-15T12:45:18.103Z</time></trkpt><trkpt lat="45.5432334" lon="9.460735"><ele>133.0</ele><time>2026-04-15T12:45:19.104Z</time></trkpt><trkpt lat="45.5432086" lon="9.4608531"><ele>133.0</ele><time>2026-04-15T12:45:20.104Z</time></trkpt><trkpt lat="45.5431803" lon="9.4609417"><ele>133.0</ele><time>2026-04-15T12:45:21.103Z</time></trkpt><trkpt lat="45.5431513" lon="9.4610605"><ele>133.0</ele><time>2026-04-15T12:45:22.103Z</time></trkpt><trkpt lat="45.5431253" lon="9.4611616"><ele>133.0</ele><time>2026-04-15T12:45:23.104Z</time></trkpt><trkpt lat="45.5431062" lon="9.4612541"><ele>133.0</ele><time>2026-04-15T12:45:24.104Z</time></trkpt><trkpt lat="45.5430774" lon="9.4613556"><ele>133.0</ele><time>2026-04-15T12:45:25.104Z</time></trkpt><trkpt lat="45.5430519" lon="9.4614591"><ele>133.0</ele><time>2026-04-15T12:45:26.104Z</time></trkpt><trkpt lat="45.5430335" lon="9.4615611"><ele>133.0</ele><time>2026-04-15T12:45:27.103Z</time></trkpt><trkpt lat="45.5430088" lon="9.4616714"><ele>133.0</ele><time>2026-04-15T12:45:28.104Z</time></trkpt><trkpt lat="45.542981" lon="9.4617802"><ele>133.16666666666669</ele><time>2026-04-15T12:45:29.103Z</time></trkpt><trkpt lat="45.542958" lon="9.4618836"><ele>133.33333333333334</ele><time>2026-04-15T12:45:30.103Z</time></trkpt><trkpt lat="45.5429365" lon="9.4619846"><ele>133.5</ele><time>2026-04-15T12:45:31.104Z</time></trkpt><trkpt lat="45.5429102" lon="9.4620836"><ele>133.66666666666666</ele><time>2026-04-15T12:45:32.103Z</time></trkpt><trkpt lat="45.5428839" lon="9.4621813"><ele>133.83333333333331</ele><time>2026-04-15T12:45:33.103Z</time></trkpt><trkpt lat="45.5428532" lon="9.4622893"><ele>134.0</ele><time>2026-04-15T12:45:34.103Z</time></trkpt><trkpt lat="45.5428321" lon="9.4623953"><ele>134.0</ele><time>2026-04-15T12:45:35.104Z</time></trkpt><trkpt lat="45.5428027" lon="9.4624947"><ele>134.0</ele><time>2026-04-15T12:45:36.103Z</time></trkpt><trkpt lat="45.5427781" lon="9.4625981"><ele>134.0</ele><time>2026-04-15T12:45:37.103Z</time></trkpt><trkpt lat="45.5427423" lon="9.4627078"><ele>134.0</ele><time>2026-04-15T12:45:38.104Z</time></trkpt><trkpt lat="45.5426987" lon="9.4628201"><ele>134.0</ele><time>2026-04-15T12:45:39.103Z</time></trkpt><trkpt lat="45.5426679" lon="9.4629278"><ele>134.0</ele><time>2026-04-15T12:45:40.103Z</time></trkpt><trkpt lat="45.542639" lon="9.4630273"><ele>134.0</ele><time>2026-04-15T12:45:41.104Z</time></trkpt><trkpt lat="45.5426131" lon="9.4631266"><ele>134.0</ele><time>2026-04-15T12:45:42.104Z</time></trkpt><trkpt lat="45.5425875" lon="9.4632362"><ele>134.0</ele><time>2026-04-15T12:45:43.103Z</time></trkpt><trkpt lat="45.5425458" lon="9.4633441"><ele>134.0</ele><time>2026-04-15T12:45:44.104Z</time></trkpt><trkpt lat="45.542522" lon="9.463443"><ele>134.0</ele><time>2026-04-15T12:45:45.103Z</time></trkpt><trkpt lat="45.5424973" lon="9.4635593"><ele>134.0</ele><time>2026-04-15T12:45:46.103Z</time></trkpt><trkpt lat="45.5424702" lon="9.4636526"><ele>134.0</ele><time>2026-04-15T12:45:47.103Z</time></trkpt><trkpt lat="45.5424363" lon="9.4637571"><ele>134.0</ele><time>2026-04-15T12:45:48.103Z</time></trkpt><trkpt lat="45.5424097" lon="9.4638627"><ele>134.0</ele><time>2026-04-15T12:45:49.104Z</time></trkpt><trkpt lat="45.5423769" lon="9.4639648"><ele>134.0</ele><time>2026-04-15T12:45:50.103Z</time></trkpt><trkpt lat="45.542351" lon="9.464071"><ele>134.0</ele><time>2026-04-15T12:45:51.104Z</time></trkpt><trkpt lat="45.5423255" lon="9.4641791"><ele>134.0</ele><time>2026-04-15T12:45:52.103Z</time></trkpt><trkpt lat="45.5422976" lon="9.4642887"><ele>134.0</ele><time>2026-04-15T12:45:53.103Z</time></trkpt><trkpt lat="45.542273" lon="9.4643988"><ele>134.0</ele><time>2026-04-15T12:45:54.104Z</time></trkpt><trkpt lat="45.5422403" lon="9.464502"><ele>134.0</ele><time>2026-04-15T12:45:55.104Z</time></trkpt><trkpt lat="45.5422086" lon="9.4646087"><ele>134.0</ele><time>2026-04-15T12:45:56.103Z</time></trkpt><trkpt lat="45.5421827" lon="9.4647144"><ele>134.0</ele><time>2026-04-15T12:45:57.103Z</time></trkpt><trkpt lat="45.542152" lon="9.4648175"><ele>134.0</ele><time>2026-04-15T12:45:58.103Z</time></trkpt><trkpt lat="45.5421237" lon="9.4649218"><ele>133.83333333333331</ele><time>2026-04-15T12:45:59.103Z</time></trkpt><trkpt lat="45.5420964" lon="9.4650252"><ele>133.66666666666666</ele><time>2026-04-15T12:46:00.104Z</time></trkpt><trkpt lat="45.542075" lon="9.4651327"><ele>133.5</ele><time>2026-04-15T12:46:01.103Z</time></trkpt><trkpt lat="45.5420485" lon="9.4652404"><ele>133.33333333333334</ele><time>2026-04-15T12:46:02.104Z</time></trkpt><trkpt lat="45.5420264" lon="9.4653358"><ele>133.16666666666669</ele><time>2026-04-15T12:46:03.103Z</time></trkpt><trkpt lat="45.5420023" lon="9.4654376"><ele>133.0</ele><time>2026-04-15T12:46:04.103Z</time></trkpt><trkpt lat="45.5419695" lon="9.4655514"><ele>133.5</ele><time>2026-04-15T12:46:05.103Z</time></trkpt><trkpt lat="45.5419444" lon="9.4656551"><ele>134.0</ele><time>2026-04-15T12:46:06.103Z</time></trkpt><trkpt lat="45.5419234" lon="9.4657481"><ele>134.5</ele><time>2026-04-15T12:46:07.104Z</time></trkpt><trkpt lat="45.5418969" lon="9.465858"><ele>135.0</ele><time>2026-04-15T12:46:08.104Z</time></trkpt><trkpt lat="45.541871" lon="9.465964"><ele>135.5</ele><time>2026-04-15T12:46:09.104Z</time></trkpt><trkpt lat="45.5418458" lon="9.4660644"><ele>136.0</ele><time>2026-04-15T12:46:10.103Z</time></trkpt><trkpt lat="45.5418162" lon="9.4661639"><ele>136.0</ele><time>2026-04-15T12:46:11.104Z</time></trkpt><trkpt lat="45.5417918" lon="9.4662651"><ele>136.0</ele><time>2026-04-15T12:46:12.103Z</time></trkpt><trkpt lat="45.5417572" lon="9.4663681"><ele>136.0</ele><time>2026-04-15T12:46:13.104Z</time></trkpt><trkpt lat="45.541724" lon="9.4664671"><ele>136.0</ele><time>2026-04-15T12:46:14.103Z</time></trkpt><trkpt lat="45.5416928" lon="9.4665674"><ele>136.0</ele><time>2026-04-15T12:46:15.103Z</time></trkpt><trkpt lat="45.5416621" lon="9.4666723"><ele>136.0</ele><time>2026-04-15T12:46:16.104Z</time></trkpt><trkpt lat="45.5416284" lon="9.4667776"><ele>135.5</ele><time>2026-04-15T12:46:17.103Z</time></trkpt><trkpt lat="45.5415963" lon="9.4669009"><ele>135.0</ele><time>2026-04-15T12:46:18.103Z</time></trkpt><trkpt lat="45.5415685" lon="9.4670187"><ele>134.5</ele><time>2026-04-15T12:46:19.104Z</time></trkpt><trkpt lat="45.5415457" lon="9.4671169"><ele>134.0</ele><time>2026-04-15T12:46:20.103Z</time></trkpt><trkpt lat="45.5415203" lon="9.4672192"><ele>133.5</ele><time>2026-04-15T12:46:21.104Z</time></trkpt><trkpt lat="45.5414899" lon="9.4673238"><ele>133.0</ele><time>2026-04-15T12:46:22.103Z</time></trkpt><trkpt lat="45.5414621" lon="9.4674328"><ele>133.0</ele><time>2026-04-15T12:46:23.103Z</time></trkpt><trkpt lat="45.541428" lon="9.4675458"><ele>133.0</ele><time>2026-04-15T12:46:24.103Z</time></trkpt><trkpt lat="45.5414039" lon="9.4676634"><ele>133.0</ele><time>2026-04-15T12:46:25.104Z</time></trkpt><trkpt lat="45.5413748" lon="9.4677679"><ele>133.0</ele><time>2026-04-15T12:46:26.103Z</time></trkpt><trkpt lat="45.5413444" lon="9.467877"><ele>133.0</ele><time>2026-04-15T12:46:27.103Z</time></trkpt><trkpt lat="45.5413156" lon="9.4679805"><ele>133.0</ele><time>2026-04-15T12:46:28.103Z</time></trkpt><trkpt lat="45.5412813" lon="9.4680876"><ele>133.0</ele><time>2026-04-15T12:46:29.103Z</time></trkpt><trkpt lat="45.5412494" lon="9.4681989"><ele>133.0</ele><time>2026-04-15T12:46:30.103Z</time></trkpt><trkpt lat="45.5412133" lon="9.4683049"><ele>133.0</ele><time>2026-04-15T12:46:31.103Z</time></trkpt><trkpt lat="45.5411859" lon="9.4684084"><ele>133.0</ele><time>2026-04-15T12:46:32.103Z</time></trkpt><trkpt lat="45.5411518" lon="9.4685198"><ele>133.0</ele><time>2026-04-15T12:46:33.103Z</time></trkpt><trkpt lat="45.5411214" lon="9.4686253"><ele>133.0</ele><time>2026-04-15T12:46:34.103Z</time></trkpt><trkpt lat="45.5410931" lon="9.4687422"><ele>133.0</ele><time>2026-04-15T12:46:35.103Z</time></trkpt><trkpt lat="45.5410804" lon="9.4688469"><ele>133.0</ele><time>2026-04-15T12:46:36.103Z</time></trkpt><trkpt lat="45.5410545" lon="9.4689569"><ele>133.0</ele><time>2026-04-15T12:46:37.104Z</time></trkpt><trkpt lat="45.5410136" lon="9.4690559"><ele>133.0</ele><time>2026-04-15T12:46:38.104Z</time></trkpt><trkpt lat="45.5409933" lon="9.469162"><ele>133.0</ele><time>2026-04-15T12:46:39.103Z</time></trkpt><trkpt lat="45.5409637" lon="9.4692658"><ele>133.0</ele><time>2026-04-15T12:46:40.103Z</time></trkpt><trkpt lat="45.540936" lon="9.4693725"><ele>133.0</ele><time>2026-04-15T12:46:41.103Z</time></trkpt><trkpt lat="45.5409142" lon="9.4694726"><ele>133.0</ele><time>2026-04-15T12:46:42.103Z</time></trkpt><trkpt lat="45.5408829" lon="9.4695886"><ele>133.0</ele><time>2026-04-15T12:46:43.103Z</time></trkpt><trkpt lat="45.5408423" lon="9.4696877"><ele>133.0</ele><time>2026-04-15T12:46:44.103Z</time></trkpt><trkpt lat="45.5408165" lon="9.4697899"><ele>133.0</ele><time>2026-04-15T12:46:45.103Z</time></trkpt><trkpt lat="45.5407843" lon="9.4698972"><ele>133.0</ele><time>2026-04-15T12:46:46.103Z</time></trkpt><trkpt lat="45.5407595" lon="9.469995"><ele>132.83333333333334</ele><time>2026-04-15T12:46:47.103Z</time></trkpt><trkpt lat="45.5407338" lon="9.4700971"><ele>132.66666666666669</ele><time>2026-04-15T12:46:48.104Z</time></trkpt><trkpt lat="45.5407141" lon="9.4702068"><ele>132.5</ele><time>2026-04-15T12:46:49.103Z</time></trkpt><trkpt lat="45.5406864" lon="9.4703109"><ele>132.33333333333334</ele><time>2026-04-15T12:46:50.103Z</time></trkpt><trkpt lat="45.5406531" lon="9.4704271"><ele>132.16666666666666</ele><time>2026-04-15T12:46:51.103Z</time></trkpt><trkpt lat="45.5406239" lon="9.4705314"><ele>132.0</ele><time>2026-04-15T12:46:52.103Z</time></trkpt><trkpt lat="45.5405934" lon="9.4706301"><ele>131.83333333333334</ele><time>2026-04-15T12:46:53.104Z</time></trkpt><trkpt lat="45.5405607" lon="9.470736"><ele>131.66666666666666</ele><time>2026-04-15T12:46:54.103Z</time></trkpt><trkpt lat="45.5405269" lon="9.4708471"><ele>131.5</ele><time>2026-04-15T12:46:55.103Z</time></trkpt><trkpt lat="45.5404946" lon="9.4709592"><ele>131.33333333333331</ele><time>2026-04-15T12:46:56.103Z</time></trkpt><trkpt lat="45.5404619" lon="9.4710652"><ele>131.16666666666666</ele><time>2026-04-15T12:46:57.103Z</time></trkpt><trkpt lat="45.5404282" lon="9.471169"><ele>131.0</ele><time>2026-04-15T12:46:58.103Z</time></trkpt><trkpt lat="45.5403804" lon="9.4712623"><ele>131.0</ele><time>2026-04-15T12:46:59.103Z</time></trkpt><trkpt lat="45.5403686" lon="9.4713666"><ele>131.0</ele><time>2026-04-15T12:47:00.104Z</time></trkpt><trkpt lat="45.540327" lon="9.4714742"><ele>131.0</ele><time>2026-04-15T12:47:01.103Z</time></trkpt><trkpt lat="45.5403049" lon="9.4715752"><ele>131.0</ele><time>2026-04-15T12:47:02.103Z</time></trkpt><trkpt lat="45.5402744" lon="9.4716772"><ele>131.0</ele><time>2026-04-15T12:47:03.104Z</time></trkpt><trkpt lat="45.5402452" lon="9.4717861"><ele>131.0</ele><time>2026-04-15T12:47:04.104Z</time></trkpt><trkpt lat="45.5402208" lon="9.4718935"><ele>131.0</ele><time>2026-04-15T12:47:05.103Z</time></trkpt><trkpt lat="45.540201" lon="9.4720031"><ele>131.0</ele><time>2026-04-15T12:47:06.103Z</time></trkpt><trkpt lat="45.5401841" lon="9.4721106"><ele>131.0</ele><time>2026-04-15T12:47:07.104Z</time></trkpt><trkpt lat="45.5401552" lon="9.4722189"><ele>131.0</ele><time>2026-04-15T12:47:08.104Z</time></trkpt><trkpt lat="45.5401229" lon="9.4723387"><ele>131.0</ele><time>2026-04-15T12:47:09.104Z</time></trkpt><trkpt lat="45.5400971" lon="9.4724462"><ele>131.0</ele><time>2026-04-15T12:47:10.103Z</time></trkpt><trkpt lat="45.5400686" lon="9.4725508"><ele>131.16666666666666</ele><time>2026-04-15T12:47:11.103Z</time></trkpt><trkpt lat="45.5400394" lon="9.4726525"><ele>131.33333333333331</ele><time>2026-04-15T12:47:12.103Z</time></trkpt><trkpt lat="45.540011" lon="9.4727533"><ele>131.5</ele><time>2026-04-15T12:47:13.104Z</time></trkpt><trkpt lat="45.5399733" lon="9.4728667"><ele>131.66666666666666</ele><time>2026-04-15T12:47:14.104Z</time></trkpt><trkpt lat="45.5399414" lon="9.4729716"><ele>131.83333333333334</ele><time>2026-04-15T12:47:15.103Z</time></trkpt><trkpt lat="45.5399055" lon="9.4730794"><ele>132.0</ele><time>2026-04-15T12:47:16.104Z</time></trkpt><trkpt lat="45.5398803" lon="9.473176"><ele>131.83333333333334</ele><time>2026-04-15T12:47:17.103Z</time></trkpt><trkpt lat="45.5398476" lon="9.4732842"><ele>131.66666666666666</ele><time>2026-04-15T12:47:18.104Z</time></trkpt><trkpt lat="45.539811" lon="9.4733928"><ele>131.5</ele><time>2026-04-15T12:47:19.103Z</time></trkpt><trkpt lat="45.5397772" lon="9.4735104"><ele>131.33333333333331</ele><time>2026-04-15T12:47:20.103Z</time></trkpt><trkpt lat="45.5397491" lon="9.4736056"><ele>131.16666666666666</ele><time>2026-04-15T12:47:21.103Z</time></trkpt><trkpt lat="45.5397309" lon="9.473716"><ele>131.0</ele><time>2026-04-15T12:47:22.103Z</time></trkpt><trkpt lat="45.53971" lon="9.4738165"><ele>131.0</ele><time>2026-04-15T12:47:23.103Z</time></trkpt><trkpt lat="45.5396841" lon="9.4739352"><ele>131.0</ele><time>2026-04-15T12:47:24.103Z</time></trkpt><trkpt lat="45.5396566" lon="9.4740458"><ele>131.0</ele><time>2026-04-15T12:47:25.103Z</time></trkpt><trkpt lat="45.5396313" lon="9.4741516"><ele>131.0</ele><time>2026-04-15T12:47:26.103Z</time></trkpt><trkpt lat="45.5396103" lon="9.474263"><ele>131.0</ele><time>2026-04-15T12:47:27.103Z</time></trkpt><trkpt lat="45.5395756" lon="9.4743608"><ele>131.0</ele><time>2026-04-15T12:47:28.104Z</time></trkpt><trkpt lat="45.5395543" lon="9.4744645"><ele>131.4</ele><time>2026-04-15T12:47:29.103Z</time></trkpt><trkpt lat="45.5395124" lon="9.4746073"><ele>131.8</ele><time>2026-04-15T12:47:31.103Z</time></trkpt><trkpt lat="45.5394799" lon="9.4747322"><ele>132.20000000000002</ele><time>2026-04-15T12:47:33.104Z</time></trkpt><trkpt lat="45.539449" lon="9.4748661"><ele>132.6</ele><time>2026-04-15T12:47:35.103Z</time></trkpt><trkpt lat="45.5393831" lon="9.4750144"><ele>133.0</ele><time>2026-04-15T12:47:37.104Z</time></trkpt><trkpt lat="45.539358" lon="9.475105"><ele>133.0</ele><time>2026-04-15T12:47:38.103Z</time></trkpt><trkpt lat="45.5393311" lon="9.4751896"><ele>133.0</ele><time>2026-04-15T12:47:39.103Z</time></trkpt><trkpt lat="45.5392614" lon="9.4753607"><ele>133.0</ele><time>2026-04-15T12:47:41.103Z</time></trkpt><trkpt lat="45.5392328" lon="9.4754523"><ele>133.0</ele><time>2026-04-15T12:47:42.104Z</time></trkpt><trkpt lat="45.5392073" lon="9.4755381"><ele>133.0</ele><time>2026-04-15T12:47:43.103Z</time></trkpt><trkpt lat="45.5391804" lon="9.4756267"><ele>133.0</ele><time>2026-04-15T12:47:44.103Z</time></trkpt><trkpt lat="45.5391529" lon="9.4757222"><ele>132.85714285714286</ele><time>2026-04-15T12:47:45.104Z</time></trkpt><trkpt lat="45.5391245" lon="9.4758167"><ele>132.71428571428572</ele><time>2026-04-15T12:47:46.103Z</time></trkpt><trkpt lat="45.5390966" lon="9.4759121"><ele>132.57142857142856</ele><time>2026-04-15T12:47:47.103Z</time></trkpt><trkpt lat="45.539071" lon="9.476006"><ele>132.42857142857144</ele><time>2026-04-15T12:47:48.104Z</time></trkpt><trkpt lat="45.5390452" lon="9.4760975"><ele>132.28571428571428</ele><time>2026-04-15T12:47:49.103Z</time></trkpt><trkpt lat="45.5390188" lon="9.4761935"><ele>132.14285714285714</ele><time>2026-04-15T12:47:50.104Z</time></trkpt><trkpt lat="45.5389811" lon="9.4762906"><ele>132.0</ele><time>2026-04-15T12:47:51.103Z</time></trkpt><trkpt lat="45.5389376" lon="9.4763878"><ele>132.28571428571428</ele><time>2026-04-15T12:47:52.103Z</time></trkpt><trkpt lat="45.5389073" lon="9.4764862"><ele>132.57142857142858</ele><time>2026-04-15T12:47:53.103Z</time></trkpt><trkpt lat="45.538881" lon="9.4765851"><ele>132.85714285714286</ele><time>2026-04-15T12:47:54.104Z</time></trkpt><trkpt lat="45.538854" lon="9.4766716"><ele>133.14285714285714</ele><time>2026-04-15T12:47:55.103Z</time></trkpt><trkpt lat="45.5388395" lon="9.4767835"><ele>133.42857142857142</ele><time>2026-04-15T12:47:56.103Z</time></trkpt><trkpt lat="45.5388106" lon="9.4768784"><ele>133.71428571428572</ele><time>2026-04-15T12:47:57.103Z</time></trkpt><trkpt lat="45.5387946" lon="9.4769844"><ele>134.0</ele><time>2026-04-15T12:47:58.104Z</time></trkpt><trkpt lat="45.5387677" lon="9.4770869"><ele>134.33333333333331</ele><time>2026-04-15T12:47:59.104Z</time></trkpt><trkpt lat="45.5387374" lon="9.4771822"><ele>134.66666666666666</ele><time>2026-04-15T12:48:00.103Z</time></trkpt><trkpt lat="45.5387061" lon="9.4772878"><ele>135.0</ele><time>2026-04-15T12:48:01.103Z</time></trkpt><trkpt lat="45.5386676" lon="9.4773842"><ele>135.33333333333334</ele><time>2026-04-15T12:48:02.104Z</time></trkpt><trkpt lat="45.5386476" lon="9.47749"><ele>135.66666666666669</ele><time>2026-04-15T12:48:03.103Z</time></trkpt><trkpt lat="45.5386242" lon="9.4775836"><ele>136.0</ele><time>2026-04-15T12:48:04.103Z</time></trkpt><trkpt lat="45.5385903" lon="9.477678"><ele>136.0</ele><time>2026-04-15T12:48:05.104Z</time></trkpt><trkpt lat="45.538563" lon="9.4777741"><ele>136.0</ele><time>2026-04-15T12:48:06.104Z</time></trkpt><trkpt lat="45.5385397" lon="9.4778763"><ele>136.0</ele><time>2026-04-15T12:48:07.103Z</time></trkpt><trkpt lat="45.5385086" lon="9.4779699"><ele>136.0</ele><time>2026-04-15T12:48:08.104Z</time></trkpt><trkpt lat="45.5384843" lon="9.4780721"><ele>136.0</ele><time>2026-04-15T12:48:09.104Z</time></trkpt><trkpt lat="45.5384501" lon="9.4781816"><ele>136.0</ele><time>2026-04-15T12:48:10.103Z</time></trkpt><trkpt lat="45.5384174" lon="9.4782811"><ele>136.0</ele><time>2026-04-15T12:48:11.103Z</time></trkpt><trkpt lat="45.5383907" lon="9.4783778"><ele>136.0</ele><time>2026-04-15T12:48:12.103Z</time></trkpt><trkpt lat="45.5383564" lon="9.478478"><ele>136.0</ele><time>2026-04-15T12:48:13.103Z</time></trkpt><trkpt lat="45.538324" lon="9.4785788"><ele>136.0</ele><time>2026-04-15T12:48:14.103Z</time></trkpt><trkpt lat="45.5383026" lon="9.4786668"><ele>136.0</ele><time>2026-04-15T12:48:15.103Z</time></trkpt><trkpt lat="45.5382549" lon="9.4788402"><ele>136.0</ele><time>2026-04-15T12:48:17.103Z</time></trkpt><trkpt lat="45.5382256" lon="9.4789299"><ele>136.16666666666669</ele><time>2026-04-15T12:48:18.103Z</time></trkpt><trkpt lat="45.5381842" lon="9.4790785"><ele>136.33333333333334</ele><time>2026-04-15T12:48:20.103Z</time></trkpt><trkpt lat="45.5381544" lon="9.4791765"><ele>136.5</ele><time>2026-04-15T12:48:22.103Z</time></trkpt><trkpt lat="45.5381424" lon="9.4792903"><ele>136.66666666666666</ele><time>2026-04-15T12:48:25.103Z</time></trkpt><trkpt lat="45.5381416" lon="9.4793915"><ele>136.83333333333331</ele><time>2026-04-15T12:48:27.103Z</time></trkpt><trkpt lat="45.5381177" lon="9.4795332"><ele>137.0</ele><time>2026-04-15T12:48:29.104Z</time></trkpt><trkpt lat="45.5381059" lon="9.4796356"><ele>137.2</ele><time>2026-04-15T12:48:30.103Z</time></trkpt><trkpt lat="45.5380983" lon="9.4797317"><ele>137.39999999999998</ele><time>2026-04-15T12:48:31.103Z</time></trkpt><trkpt lat="45.538096" lon="9.4799158"><ele>137.60000000000002</ele><time>2026-04-15T12:48:33.103Z</time></trkpt><trkpt lat="45.5381089" lon="9.4800963"><ele>137.8</ele><time>2026-04-15T12:48:35.104Z</time></trkpt><trkpt lat="45.5381396" lon="9.4802561"><ele>138.0</ele><time>2026-04-15T12:48:37.104Z</time></trkpt><trkpt lat="45.5381503" lon="9.4803737"><ele>137.83333333333334</ele><time>2026-04-15T12:48:39.103Z</time></trkpt><trkpt lat="45.5381719" lon="9.4804597"><ele>137.66666666666666</ele><time>2026-04-15T12:48:42.103Z</time></trkpt><trkpt lat="45.5381929" lon="9.4805579"><ele>137.5</ele><time>2026-04-15T12:48:44.103Z</time></trkpt><trkpt lat="45.5382201" lon="9.4806946"><ele>137.33333333333331</ele><time>2026-04-15T12:48:46.104Z</time></trkpt><trkpt lat="45.5382525" lon="9.4808373"><ele>137.16666666666666</ele><time>2026-04-15T12:48:48.103Z</time></trkpt><trkpt lat="45.5382695" lon="9.4809251"><ele>137.0</ele><time>2026-04-15T12:48:49.103Z</time></trkpt><trkpt lat="45.5382873" lon="9.4810135"><ele>137.0</ele><time>2026-04-15T12:48:50.103Z</time></trkpt><trkpt lat="45.5383279" lon="9.4811642"><ele>137.0</ele><time>2026-04-15T12:48:52.103Z</time></trkpt><trkpt lat="45.5383584" lon="9.4813126"><ele>137.0</ele><time>2026-04-15T12:48:54.103Z</time></trkpt><trkpt lat="45.5383694" lon="9.4814332"><ele>137.0</ele><time>2026-04-15T12:48:57.103Z</time></trkpt><trkpt lat="45.5383762" lon="9.4815238"><ele>137.0</ele><time>2026-04-15T12:48:59.103Z</time></trkpt><trkpt lat="45.5384033" lon="9.4816479"><ele>136.79999999999998</ele><time>2026-04-15T12:49:01.103Z</time></trkpt><trkpt lat="45.5384463" lon="9.4817878"><ele>136.6</ele><time>2026-04-15T12:49:03.104Z</time></trkpt><trkpt lat="45.5384736" lon="9.4819457"><ele>136.39999999999998</ele><time>2026-04-15T12:49:05.104Z</time></trkpt><trkpt lat="45.53851" lon="9.4821138"><ele>136.2</ele><time>2026-04-15T12:49:07.103Z</time></trkpt><trkpt lat="45.5385295" lon="9.4822007"><ele>136.0</ele><time>2026-04-15T12:49:08.104Z</time></trkpt><trkpt lat="45.5385455" lon="9.4822906"><ele>136.0</ele><time>2026-04-15T12:49:09.103Z</time></trkpt><trkpt lat="45.5385811" lon="9.4824644"><ele>136.0</ele><time>2026-04-15T12:49:11.103Z</time></trkpt><trkpt lat="45.5386006" lon="9.4825631"><ele>136.0</ele><time>2026-04-15T12:49:12.103Z</time></trkpt><trkpt lat="45.5386203" lon="9.4826647"><ele>136.0</ele><time>2026-04-15T12:49:13.104Z</time></trkpt><trkpt lat="45.5386382" lon="9.4827568"><ele>136.0</ele><time>2026-04-15T12:49:14.104Z</time></trkpt><trkpt lat="45.5386592" lon="9.4828531"><ele>136.0</ele><time>2026-04-15T12:49:15.103Z</time></trkpt><trkpt lat="45.538679" lon="9.4829422"><ele>135.99999999999997</ele><time>2026-04-15T12:49:16.104Z</time></trkpt><trkpt lat="45.5386936" lon="9.4830381"><ele>136.0</ele><time>2026-04-15T12:49:17.103Z</time></trkpt><trkpt lat="45.5387085" lon="9.4831356"><ele>136.0</ele><time>2026-04-15T12:49:18.103Z</time></trkpt><trkpt lat="45.5387223" lon="9.4832351"><ele>136.0</ele><time>2026-04-15T12:49:19.103Z</time></trkpt><trkpt lat="45.5387347" lon="9.4833336"><ele>136.0</ele><time>2026-04-15T12:49:20.103Z</time></trkpt><trkpt lat="45.5387471" lon="9.4834273"><ele>135.99999999999997</ele><time>2026-04-15T12:49:21.104Z</time></trkpt><trkpt lat="45.5387531" lon="9.4835247"><ele>136.0</ele><time>2026-04-15T12:49:22.103Z</time></trkpt><trkpt lat="45.5387635" lon="9.4836174"><ele>136.2</ele><time>2026-04-15T12:49:23.103Z</time></trkpt><trkpt lat="45.5387685" lon="9.48371"><ele>136.39999999999998</ele><time>2026-04-15T12:49:24.103Z</time></trkpt><trkpt lat="45.538754" lon="9.4838536"><ele>136.6</ele><time>2026-04-15T12:49:26.103Z</time></trkpt><trkpt lat="45.5387301" lon="9.4839854"><ele>136.79999999999998</ele><time>2026-04-15T12:49:28.103Z</time></trkpt><trkpt lat="45.5387051" lon="9.4841473"><ele>137.0</ele><time>2026-04-15T12:49:30.103Z</time></trkpt><trkpt lat="45.5386791" lon="9.4843059"><ele>137.0</ele><time>2026-04-15T12:49:32.103Z</time></trkpt><trkpt lat="45.5386453" lon="9.4844501"><ele>137.0</ele><time>2026-04-15T12:49:34.103Z</time></trkpt><trkpt lat="45.5385968" lon="9.4846113"><ele>137.0</ele><time>2026-04-15T12:49:36.103Z</time></trkpt><trkpt lat="45.5385763" lon="9.4847028"><ele>137.0</ele><time>2026-04-15T12:49:37.103Z</time></trkpt><trkpt lat="45.5385487" lon="9.4847895"><ele>137.0</ele><time>2026-04-15T12:49:38.104Z</time></trkpt><trkpt lat="45.5385192" lon="9.4848765"><ele>137.0</ele><time>2026-04-15T12:49:39.104Z</time></trkpt><trkpt lat="45.5384983" lon="9.4849889"><ele>137.2</ele><time>2026-04-15T12:49:40.103Z</time></trkpt><trkpt lat="45.5384739" lon="9.4850975"><ele>137.39999999999998</ele><time>2026-04-15T12:49:41.104Z</time></trkpt><trkpt lat="45.5384408" lon="9.485269"><ele>137.60000000000002</ele><time>2026-04-15T12:49:43.103Z</time></trkpt><trkpt lat="45.5383949" lon="9.4854431"><ele>137.8</ele><time>2026-04-15T12:49:45.103Z</time></trkpt><trkpt lat="45.5383642" lon="9.4855382"><ele>138.0</ele><time>2026-04-15T12:49:46.103Z</time></trkpt><trkpt lat="45.5383187" lon="9.4856332"><ele>138.16666666666666</ele><time>2026-04-15T12:49:47.103Z</time></trkpt><trkpt lat="45.5382902" lon="9.4857315"><ele>138.33333333333334</ele><time>2026-04-15T12:49:48.103Z</time></trkpt><trkpt lat="45.538254" lon="9.4858202"><ele>138.5</ele><time>2026-04-15T12:49:49.103Z</time></trkpt><trkpt lat="45.5382198" lon="9.4859189"><ele>138.66666666666669</ele><time>2026-04-15T12:49:50.103Z</time></trkpt><trkpt lat="45.5381732" lon="9.4860205"><ele>138.83333333333334</ele><time>2026-04-15T12:49:51.103Z</time></trkpt><trkpt lat="45.5381394" lon="9.4861098"><ele>139.0</ele><time>2026-04-15T12:49:52.104Z</time></trkpt><trkpt lat="45.5381028" lon="9.4862107"><ele>139.2</ele><time>2026-04-15T12:49:53.104Z</time></trkpt><trkpt lat="45.5380504" lon="9.4863658"><ele>139.4</ele><time>2026-04-15T12:49:55.103Z</time></trkpt><trkpt lat="45.5380077" lon="9.4865231"><ele>139.6</ele><time>2026-04-15T12:49:57.103Z</time></trkpt><trkpt lat="45.5379617" lon="9.4866921"><ele>139.8</ele><time>2026-04-15T12:49:59.103Z</time></trkpt><trkpt lat="45.5379449" lon="9.486784"><ele>140.0</ele><time>2026-04-15T12:50:00.103Z</time></trkpt><trkpt lat="45.5379117" lon="9.4869108"><ele>139.6</ele><time>2026-04-15T12:50:01.104Z</time></trkpt><trkpt lat="45.5378609" lon="9.4871003"><ele>139.2</ele><time>2026-04-15T12:50:03.103Z</time></trkpt><trkpt lat="45.5378327" lon="9.4871837"><ele>138.8</ele><time>2026-04-15T12:50:04.103Z</time></trkpt><trkpt lat="45.5378082" lon="9.4872801"><ele>138.4</ele><time>2026-04-15T12:50:05.103Z</time></trkpt><trkpt lat="45.5377815" lon="9.4874079"><ele>138.0</ele><time>2026-04-15T12:50:06.104Z</time></trkpt><trkpt lat="45.5377545" lon="9.4875225"><ele>138.0</ele><time>2026-04-15T12:50:07.104Z</time></trkpt><trkpt lat="45.5377246" lon="9.4876357"><ele>138.0</ele><time>2026-04-15T12:50:08.103Z</time></trkpt><trkpt lat="45.5376986" lon="9.4877385"><ele>138.0</ele><time>2026-04-15T12:50:09.103Z</time></trkpt><trkpt lat="45.5376731" lon="9.4878374"><ele>138.0</ele><time>2026-04-15T12:50:10.103Z</time></trkpt><trkpt lat="45.5376465" lon="9.4879396"><ele>138.0</ele><time>2026-04-15T12:50:11.103Z</time></trkpt><trkpt lat="45.5376198" lon="9.4880389"><ele>138.0</ele><time>2026-04-15T12:50:12.104Z</time></trkpt><trkpt lat="45.5375934" lon="9.4881479"><ele>138.14285714285714</ele><time>2026-04-15T12:50:13.104Z</time></trkpt><trkpt lat="45.5375569" lon="9.4882488"><ele>138.2857142857143</ele><time>2026-04-15T12:50:14.104Z</time></trkpt><trkpt lat="45.5375266" lon="9.4883496"><ele>138.42857142857144</ele><time>2026-04-15T12:50:15.103Z</time></trkpt><trkpt lat="45.537505" lon="9.4884453"><ele>138.57142857142858</ele><time>2026-04-15T12:50:16.103Z</time></trkpt><trkpt lat="45.537476" lon="9.4885381"><ele>138.71428571428572</ele><time>2026-04-15T12:50:17.103Z</time></trkpt><trkpt lat="45.5374559" lon="9.4886376"><ele>138.85714285714286</ele><time>2026-04-15T12:50:18.103Z</time></trkpt><trkpt lat="45.5374296" lon="9.4887397"><ele>139.0</ele><time>2026-04-15T12:50:19.103Z</time></trkpt><trkpt lat="45.5374088" lon="9.488844"><ele>139.0</ele><time>2026-04-15T12:50:20.104Z</time></trkpt><trkpt lat="45.5373819" lon="9.4889395"><ele>139.0</ele><time>2026-04-15T12:50:21.103Z</time></trkpt><trkpt lat="45.5373522" lon="9.4890273"><ele>139.0</ele><time>2026-04-15T12:50:22.104Z</time></trkpt><trkpt lat="45.5373338" lon="9.4891206"><ele>139.0</ele><time>2026-04-15T12:50:23.103Z</time></trkpt><trkpt lat="45.5373093" lon="9.4892076"><ele>139.0</ele><time>2026-04-15T12:50:24.103Z</time></trkpt><trkpt lat="45.5372923" lon="9.489297"><ele>139.0</ele><time>2026-04-15T12:50:25.103Z</time></trkpt><trkpt lat="45.5372743" lon="9.4893948"><ele>139.0</ele><time>2026-04-15T12:50:26.103Z</time></trkpt><trkpt lat="45.5372609" lon="9.4895391"><ele>138.4</ele><time>2026-04-15T12:50:28.103Z</time></trkpt><trkpt lat="45.5372709" lon="9.4896921"><ele>137.8</ele><time>2026-04-15T12:50:31.103Z</time></trkpt><trkpt lat="45.5372599" lon="9.4898314"><ele>137.2</ele><time>2026-04-15T12:50:33.103Z</time></trkpt><trkpt lat="45.5372313" lon="9.489972"><ele>136.6</ele><time>2026-04-15T12:50:35.103Z</time></trkpt><trkpt lat="45.5372137" lon="9.4901489"><ele>136.0</ele><time>2026-04-15T12:50:37.104Z</time></trkpt><trkpt lat="45.5372077" lon="9.4903177"><ele>135.99999999999997</ele><time>2026-04-15T12:50:39.103Z</time></trkpt><trkpt lat="45.5371955" lon="9.4904153"><ele>136.0</ele><time>2026-04-15T12:50:40.103Z</time></trkpt><trkpt lat="45.5371844" lon="9.4905108"><ele>136.0</ele><time>2026-04-15T12:50:41.103Z</time></trkpt><trkpt lat="45.5371785" lon="9.4906056"><ele>136.0</ele><time>2026-04-15T12:50:42.103Z</time></trkpt><trkpt lat="45.5371691" lon="9.4907029"><ele>136.0</ele><time>2026-04-15T12:50:43.104Z</time></trkpt><trkpt lat="45.5371651" lon="9.4907961"><ele>135.99999999999997</ele><time>2026-04-15T12:50:44.103Z</time></trkpt><trkpt lat="45.5371533" lon="9.4908901"><ele>136.0</ele><time>2026-04-15T12:50:45.103Z</time></trkpt><trkpt lat="45.5371351" lon="9.4909997"><ele>136.0</ele><time>2026-04-15T12:50:46.104Z</time></trkpt><trkpt lat="45.5371091" lon="9.4911822"><ele>136.0</ele><time>2026-04-15T12:50:48.103Z</time></trkpt><trkpt lat="45.5370927" lon="9.4912871"><ele>136.0</ele><time>2026-04-15T12:50:49.104Z</time></trkpt><trkpt lat="45.537076" lon="9.4913861"><ele>136.0</ele><time>2026-04-15T12:50:50.103Z</time></trkpt><trkpt lat="45.5370635" lon="9.4914839"><ele>136.0</ele><time>2026-04-15T12:50:51.104Z</time></trkpt><trkpt lat="45.5370505" lon="9.4915777"><ele>136.0</ele><time>2026-04-15T12:50:52.103Z</time></trkpt><trkpt lat="45.5370358" lon="9.4916864"><ele>136.16666666666669</ele><time>2026-04-15T12:50:53.103Z</time></trkpt><trkpt lat="45.5370306" lon="9.4917859"><ele>136.33333333333334</ele><time>2026-04-15T12:50:54.104Z</time></trkpt><trkpt lat="45.537018" lon="9.49189"><ele>136.5</ele><time>2026-04-15T12:50:55.103Z</time></trkpt><trkpt lat="45.5369995" lon="9.4920035"><ele>136.66666666666666</ele><time>2026-04-15T12:50:56.103Z</time></trkpt><trkpt lat="45.5369827" lon="9.4921108"><ele>136.83333333333331</ele><time>2026-04-15T12:50:57.103Z</time></trkpt><trkpt lat="45.5369625" lon="9.4922233"><ele>137.0</ele><time>2026-04-15T12:50:58.103Z</time></trkpt><trkpt lat="45.5369369" lon="9.4923241"><ele>137.14285714285717</ele><time>2026-04-15T12:50:59.103Z</time></trkpt><trkpt lat="45.5369153" lon="9.4924296"><ele>137.28571428571428</ele><time>2026-04-15T12:51:00.104Z</time></trkpt><trkpt lat="45.5369017" lon="9.4925256"><ele>137.42857142857144</ele><time>2026-04-15T12:51:01.104Z</time></trkpt><trkpt lat="45.5368787" lon="9.492625"><ele>137.57142857142858</ele><time>2026-04-15T12:51:02.104Z</time></trkpt><trkpt lat="45.5368496" lon="9.4927274"><ele>137.71428571428572</ele><time>2026-04-15T12:51:03.103Z</time></trkpt><trkpt lat="45.5368253" lon="9.4928247"><ele>137.85714285714286</ele><time>2026-04-15T12:51:04.104Z</time></trkpt><trkpt lat="45.536797" lon="9.4929256"><ele>138.0</ele><time>2026-04-15T12:51:05.103Z</time></trkpt><trkpt lat="45.5367756" lon="9.4930227"><ele>138.0</ele><time>2026-04-15T12:51:06.103Z</time></trkpt><trkpt lat="45.5367318" lon="9.4931341"><ele>138.0</ele><time>2026-04-15T12:51:07.103Z</time></trkpt><trkpt lat="45.5367038" lon="9.4932347"><ele>138.0</ele><time>2026-04-15T12:51:08.104Z</time></trkpt><trkpt lat="45.5366809" lon="9.4933355"><ele>138.0</ele><time>2026-04-15T12:51:09.104Z</time></trkpt><trkpt lat="45.5366565" lon="9.4934262"><ele>138.0</ele><time>2026-04-15T12:51:10.103Z</time></trkpt><trkpt lat="45.5366275" lon="9.4935306"><ele>138.0</ele><time>2026-04-15T12:51:11.103Z</time></trkpt><trkpt lat="45.5365981" lon="9.4936324"><ele>138.0</ele><time>2026-04-15T12:51:12.103Z</time></trkpt><trkpt lat="45.5365711" lon="9.493731"><ele>138.0</ele><time>2026-04-15T12:51:13.103Z</time></trkpt><trkpt lat="45.5365437" lon="9.4938296"><ele>138.0</ele><time>2026-04-15T12:51:14.103Z</time></trkpt><trkpt lat="45.5365156" lon="9.4939373"><ele>138.0</ele><time>2026-04-15T12:51:15.103Z</time></trkpt><trkpt lat="45.5364918" lon="9.4940537"><ele>138.0</ele><time>2026-04-15T12:51:16.103Z</time></trkpt><trkpt lat="45.536466" lon="9.4941589"><ele>138.0</ele><time>2026-04-15T12:51:17.104Z</time></trkpt><trkpt lat="45.5364453" lon="9.4942725"><ele>137.83333333333334</ele><time>2026-04-15T12:51:18.103Z</time></trkpt><trkpt lat="45.5364204" lon="9.4943779"><ele>137.66666666666666</ele><time>2026-04-15T12:51:19.104Z</time></trkpt><trkpt lat="45.5363971" lon="9.494483"><ele>137.5</ele><time>2026-04-15T12:51:20.104Z</time></trkpt><trkpt lat="45.5363743" lon="9.4945779"><ele>137.33333333333331</ele><time>2026-04-15T12:51:21.103Z</time></trkpt><trkpt lat="45.5363529" lon="9.4946827"><ele>137.16666666666666</ele><time>2026-04-15T12:51:22.103Z</time></trkpt><trkpt lat="45.5363301" lon="9.4947961"><ele>137.0</ele><time>2026-04-15T12:51:23.103Z</time></trkpt><trkpt lat="45.5363032" lon="9.4949004"><ele>137.0</ele><time>2026-04-15T12:51:24.103Z</time></trkpt><trkpt lat="45.5362823" lon="9.4950067"><ele>137.0</ele><time>2026-04-15T12:51:25.104Z</time></trkpt><trkpt lat="45.5362501" lon="9.4951109"><ele>137.0</ele><time>2026-04-15T12:51:26.103Z</time></trkpt><trkpt lat="45.5362175" lon="9.495218"><ele>137.0</ele><time>2026-04-15T12:51:27.104Z</time></trkpt><trkpt lat="45.536193" lon="9.4953275"><ele>137.0</ele><time>2026-04-15T12:51:28.104Z</time></trkpt><trkpt lat="45.5361678" lon="9.4954376"><ele>137.0</ele><time>2026-04-15T12:51:29.103Z</time></trkpt><trkpt lat="45.5361435" lon="9.4955478"><ele>137.16666666666666</ele><time>2026-04-15T12:51:30.104Z</time></trkpt><trkpt lat="45.5361216" lon="9.4956544"><ele>137.33333333333331</ele><time>2026-04-15T12:51:31.104Z</time></trkpt><trkpt lat="45.536091" lon="9.4957658"><ele>137.5</ele><time>2026-04-15T12:51:32.103Z</time></trkpt><trkpt lat="45.536072" lon="9.4958653"><ele>137.66666666666666</ele><time>2026-04-15T12:51:33.103Z</time></trkpt><trkpt lat="45.5360572" lon="9.4959717"><ele>137.83333333333334</ele><time>2026-04-15T12:51:34.103Z</time></trkpt><trkpt lat="45.5360354" lon="9.4960785"><ele>138.0</ele><time>2026-04-15T12:51:35.103Z</time></trkpt><trkpt lat="45.5360127" lon="9.4961923"><ele>137.83333333333334</ele><time>2026-04-15T12:51:36.103Z</time></trkpt><trkpt lat="45.5359781" lon="9.4963001"><ele>137.66666666666666</ele><time>2026-04-15T12:51:37.103Z</time></trkpt><trkpt lat="45.5359503" lon="9.4963995"><ele>137.5</ele><time>2026-04-15T12:51:38.104Z</time></trkpt><trkpt lat="45.5359247" lon="9.496506"><ele>137.33333333333331</ele><time>2026-04-15T12:51:39.103Z</time></trkpt><trkpt lat="45.5359114" lon="9.4966162"><ele>137.16666666666666</ele><time>2026-04-15T12:51:40.104Z</time></trkpt><trkpt lat="45.5358895" lon="9.4967222"><ele>137.0</ele><time>2026-04-15T12:51:41.104Z</time></trkpt><trkpt lat="45.5358601" lon="9.4968341"><ele>137.0</ele><time>2026-04-15T12:51:42.103Z</time></trkpt><trkpt lat="45.5358355" lon="9.496941"><ele>137.0</ele><time>2026-04-15T12:51:43.103Z</time></trkpt><trkpt lat="45.5358179" lon="9.4970473"><ele>137.0</ele><time>2026-04-15T12:51:44.104Z</time></trkpt><trkpt lat="45.535798" lon="9.49717"><ele>137.0</ele><time>2026-04-15T12:51:45.103Z</time></trkpt><trkpt lat="45.5357709" lon="9.4972768"><ele>137.0</ele><time>2026-04-15T12:51:46.104Z</time></trkpt><trkpt lat="45.5357448" lon="9.4973863"><ele>137.0</ele><time>2026-04-15T12:51:47.104Z</time></trkpt><trkpt lat="45.5357213" lon="9.497498"><ele>137.0</ele><time>2026-04-15T12:51:48.104Z</time></trkpt><trkpt lat="45.5356928" lon="9.4975986"><ele>137.0</ele><time>2026-04-15T12:51:49.103Z</time></trkpt><trkpt lat="45.5356581" lon="9.4977183"><ele>137.0</ele><time>2026-04-15T12:51:50.103Z</time></trkpt><trkpt lat="45.5356316" lon="9.4978232"><ele>137.0</ele><time>2026-04-15T12:51:51.104Z</time></trkpt><trkpt lat="45.5356076" lon="9.4979295"><ele>137.0</ele><time>2026-04-15T12:51:52.104Z</time></trkpt><trkpt lat="45.5355822" lon="9.4980415"><ele>137.0</ele><time>2026-04-15T12:51:53.103Z</time></trkpt><trkpt lat="45.5355605" lon="9.4981484"><ele>136.83333333333331</ele><time>2026-04-15T12:51:54.104Z</time></trkpt><trkpt lat="45.5355273" lon="9.4982597"><ele>136.66666666666666</ele><time>2026-04-15T12:51:55.104Z</time></trkpt><trkpt lat="45.5354913" lon="9.4983808"><ele>136.5</ele><time>2026-04-15T12:51:56.103Z</time></trkpt><trkpt lat="45.5354623" lon="9.4984863"><ele>136.33333333333334</ele><time>2026-04-15T12:51:57.103Z</time></trkpt><trkpt lat="45.535427" lon="9.4985985"><ele>136.16666666666669</ele><time>2026-04-15T12:51:58.103Z</time></trkpt><trkpt lat="45.5353996" lon="9.4986975"><ele>136.0</ele><time>2026-04-15T12:51:59.103Z</time></trkpt><trkpt lat="45.5353785" lon="9.4988106"><ele>136.0</ele><time>2026-04-15T12:52:00.103Z</time></trkpt><trkpt lat="45.5353533" lon="9.4989168"><ele>136.0</ele><time>2026-04-15T12:52:01.103Z</time></trkpt><trkpt lat="45.5353185" lon="9.4990307"><ele>136.0</ele><time>2026-04-15T12:52:02.104Z</time></trkpt><trkpt lat="45.5352911" lon="9.4991431"><ele>136.0</ele><time>2026-04-15T12:52:03.103Z</time></trkpt><trkpt lat="45.5352661" lon="9.4992504"><ele>136.0</ele><time>2026-04-15T12:52:04.103Z</time></trkpt><trkpt lat="45.5352357" lon="9.4993601"><ele>136.0</ele><time>2026-04-15T12:52:05.103Z</time></trkpt><trkpt lat="45.5352042" lon="9.4994756"><ele>136.0</ele><time>2026-04-15T12:52:06.104Z</time></trkpt><trkpt lat="45.5351779" lon="9.4995872"><ele>136.0</ele><time>2026-04-15T12:52:07.103Z</time></trkpt><trkpt lat="45.5351499" lon="9.4996909"><ele>136.0</ele><time>2026-04-15T12:52:08.103Z</time></trkpt><trkpt lat="45.5351235" lon="9.4998047"><ele>136.0</ele><time>2026-04-15T12:52:09.103Z</time></trkpt><trkpt lat="45.5350952" lon="9.499918"><ele>136.0</ele><time>2026-04-15T12:52:10.103Z</time></trkpt><trkpt lat="45.5350635" lon="9.5000243"><ele>136.0</ele><time>2026-04-15T12:52:11.103Z</time></trkpt><trkpt lat="45.535032" lon="9.5001274"><ele>136.0</ele><time>2026-04-15T12:52:12.103Z</time></trkpt><trkpt lat="45.5350048" lon="9.5002373"><ele>136.0</ele><time>2026-04-15T12:52:13.103Z</time></trkpt><trkpt lat="45.5349717" lon="9.5003467"><ele>136.0</ele><time>2026-04-15T12:52:14.103Z</time></trkpt><trkpt lat="45.5349482" lon="9.5004511"><ele>136.0</ele><time>2026-04-15T12:52:15.103Z</time></trkpt><trkpt lat="45.5349143" lon="9.5005646"><ele>136.0</ele><time>2026-04-15T12:52:16.103Z</time></trkpt><trkpt lat="45.5348804" lon="9.5006806"><ele>136.0</ele><time>2026-04-15T12:52:17.104Z</time></trkpt><trkpt lat="45.5348601" lon="9.5007832"><ele>135.83333333333334</ele><time>2026-04-15T12:52:18.103Z</time></trkpt><trkpt lat="45.5348269" lon="9.5008947"><ele>135.66666666666669</ele><time>2026-04-15T12:52:19.103Z</time></trkpt><trkpt lat="45.5347958" lon="9.5010128"><ele>135.5</ele><time>2026-04-15T12:52:20.103Z</time></trkpt><trkpt lat="45.5347737" lon="9.5011128"><ele>135.33333333333334</ele><time>2026-04-15T12:52:21.103Z</time></trkpt><trkpt lat="45.5347473" lon="9.5012176"><ele>135.16666666666666</ele><time>2026-04-15T12:52:22.104Z</time></trkpt><trkpt lat="45.5347147" lon="9.5013269"><ele>135.0</ele><time>2026-04-15T12:52:23.103Z</time></trkpt><trkpt lat="45.5346877" lon="9.5014374"><ele>135.0</ele><time>2026-04-15T12:52:24.103Z</time></trkpt><trkpt lat="45.5346584" lon="9.5015495"><ele>135.0</ele><time>2026-04-15T12:52:25.103Z</time></trkpt><trkpt lat="45.5346349" lon="9.5016626"><ele>135.0</ele><time>2026-04-15T12:52:26.103Z</time></trkpt><trkpt lat="45.5346103" lon="9.5017753"><ele>135.0</ele><time>2026-04-15T12:52:27.103Z</time></trkpt><trkpt lat="45.5345818" lon="9.5018885"><ele>135.0</ele><time>2026-04-15T12:52:28.103Z</time></trkpt><trkpt lat="45.5345585" lon="9.5019993"><ele>135.0</ele><time>2026-04-15T12:52:29.104Z</time></trkpt><trkpt lat="45.5345328" lon="9.5021121"><ele>135.0</ele><time>2026-04-15T12:52:30.103Z</time></trkpt><trkpt lat="45.5345071" lon="9.5022269"><ele>135.0</ele><time>2026-04-15T12:52:31.103Z</time></trkpt><trkpt lat="45.5344874" lon="9.5023444"><ele>135.0</ele><time>2026-04-15T12:52:32.103Z</time></trkpt><trkpt lat="45.5344737" lon="9.5024534"><ele>135.0</ele><time>2026-04-15T12:52:33.103Z</time></trkpt><trkpt lat="45.53446" lon="9.5025694"><ele>135.0</ele><time>2026-04-15T12:52:34.103Z</time></trkpt><trkpt lat="45.5344463" lon="9.5026802"><ele>135.0</ele><time>2026-04-15T12:52:35.104Z</time></trkpt><trkpt lat="45.5344313" lon="9.502793"><ele>135.0</ele><time>2026-04-15T12:52:36.103Z</time></trkpt><trkpt lat="45.5344122" lon="9.5029136"><ele>135.0</ele><time>2026-04-15T12:52:37.103Z</time></trkpt><trkpt lat="45.534408" lon="9.5030357"><ele>135.0</ele><time>2026-04-15T12:52:38.104Z</time></trkpt><trkpt lat="45.5344094" lon="9.5031551"><ele>135.0</ele><time>2026-04-15T12:52:39.103Z</time></trkpt><trkpt lat="45.53441" lon="9.5032763"><ele>135.0</ele><time>2026-04-15T12:52:40.104Z</time></trkpt><trkpt lat="45.5344257" lon="9.5033898"><ele>135.0</ele><time>2026-04-15T12:52:41.103Z</time></trkpt><trkpt lat="45.5344358" lon="9.5035077"><ele>134.83333333333334</ele><time>2026-04-15T12:52:42.103Z</time></trkpt><trkpt lat="45.5344515" lon="9.5036231"><ele>134.66666666666666</ele><time>2026-04-15T12:52:43.103Z</time></trkpt><trkpt lat="45.5344715" lon="9.5037399"><ele>134.5</ele><time>2026-04-15T12:52:44.104Z</time></trkpt><trkpt lat="45.5344886" lon="9.5038558"><ele>134.33333333333331</ele><time>2026-04-15T12:52:45.103Z</time></trkpt><trkpt lat="45.5345072" lon="9.5039742"><ele>134.16666666666666</ele><time>2026-04-15T12:52:46.104Z</time></trkpt><trkpt lat="45.5345255" lon="9.5040948"><ele>134.0</ele><time>2026-04-15T12:52:47.103Z</time></trkpt><trkpt lat="45.5345458" lon="9.5042"><ele>134.0</ele><time>2026-04-15T12:52:48.104Z</time></trkpt><trkpt lat="45.5345631" lon="9.5043377"><ele>134.0</ele><time>2026-04-15T12:52:49.103Z</time></trkpt><trkpt lat="45.5345876" lon="9.5044544"><ele>134.0</ele><time>2026-04-15T12:52:50.104Z</time></trkpt><trkpt lat="45.5346056" lon="9.5045665"><ele>134.0</ele><time>2026-04-15T12:52:51.103Z</time></trkpt><trkpt lat="45.5346261" lon="9.5046834"><ele>134.0</ele><time>2026-04-15T12:52:52.103Z</time></trkpt><trkpt lat="45.5346433" lon="9.5048052"><ele>134.0</ele><time>2026-04-15T12:52:53.104Z</time></trkpt><trkpt lat="45.5346652" lon="9.5049253"><ele>134.16666666666666</ele><time>2026-04-15T12:52:54.103Z</time></trkpt><trkpt lat="45.5346907" lon="9.5050354"><ele>134.33333333333331</ele><time>2026-04-15T12:52:55.103Z</time></trkpt><trkpt lat="45.5347199" lon="9.5051423"><ele>134.5</ele><time>2026-04-15T12:52:56.103Z</time></trkpt><trkpt lat="45.5347441" lon="9.5052617"><ele>134.66666666666666</ele><time>2026-04-15T12:52:57.103Z</time></trkpt><trkpt lat="45.5347616" lon="9.5053793"><ele>134.83333333333334</ele><time>2026-04-15T12:52:58.103Z</time></trkpt><trkpt lat="45.5347821" lon="9.5054971"><ele>135.0</ele><time>2026-04-15T12:52:59.103Z</time></trkpt><trkpt lat="45.5348063" lon="9.5056086"><ele>135.16666666666666</ele><time>2026-04-15T12:53:00.104Z</time></trkpt><trkpt lat="45.5348248" lon="9.5057198"><ele>135.33333333333334</ele><time>2026-04-15T12:53:01.104Z</time></trkpt><trkpt lat="45.5348418" lon="9.5058341"><ele>135.5</ele><time>2026-04-15T12:53:02.103Z</time></trkpt><trkpt lat="45.5348625" lon="9.5059472"><ele>135.66666666666669</ele><time>2026-04-15T12:53:03.104Z</time></trkpt><trkpt lat="45.534883" lon="9.5060631"><ele>135.83333333333334</ele><time>2026-04-15T12:53:04.103Z</time></trkpt><trkpt lat="45.5349024" lon="9.506189"><ele>136.0</ele><time>2026-04-15T12:53:05.104Z</time></trkpt><trkpt lat="45.5349208" lon="9.5063247"><ele>136.16666666666669</ele><time>2026-04-15T12:53:06.103Z</time></trkpt><trkpt lat="45.534951" lon="9.5064127"><ele>136.33333333333334</ele><time>2026-04-15T12:53:07.103Z</time></trkpt><trkpt lat="45.5349689" lon="9.5065244"><ele>136.5</ele><time>2026-04-15T12:53:08.103Z</time></trkpt><trkpt lat="45.5349906" lon="9.5066319"><ele>136.66666666666666</ele><time>2026-04-15T12:53:09.103Z</time></trkpt><trkpt lat="45.5350098" lon="9.5067348"><ele>136.83333333333331</ele><time>2026-04-15T12:53:10.103Z</time></trkpt><trkpt lat="45.5350252" lon="9.5068396"><ele>137.0</ele><time>2026-04-15T12:53:11.103Z</time></trkpt><trkpt lat="45.5350468" lon="9.5069515"><ele>137.0</ele><time>2026-04-15T12:53:12.103Z</time></trkpt><trkpt lat="45.5350671" lon="9.5070565"><ele>137.0</ele><time>2026-04-15T12:53:13.103Z</time></trkpt><trkpt lat="45.5350912" lon="9.5071687"><ele>137.0</ele><time>2026-04-15T12:53:14.103Z</time></trkpt><trkpt lat="45.5351031" lon="9.5072759"><ele>137.0</ele><time>2026-04-15T12:53:15.103Z</time></trkpt><trkpt lat="45.5351207" lon="9.5073888"><ele>137.0</ele><time>2026-04-15T12:53:16.103Z</time></trkpt><trkpt lat="45.53514" lon="9.507502"><ele>137.0</ele><time>2026-04-15T12:53:17.103Z</time></trkpt><trkpt lat="45.5351644" lon="9.5076129"><ele>137.00000000000003</ele><time>2026-04-15T12:53:18.104Z</time></trkpt><trkpt lat="45.5351757" lon="9.5077182"><ele>137.0</ele><time>2026-04-15T12:53:19.103Z</time></trkpt><trkpt lat="45.5351982" lon="9.5078254"><ele>137.0</ele><time>2026-04-15T12:53:20.103Z</time></trkpt><trkpt lat="45.5352177" lon="9.5079366"><ele>137.0</ele><time>2026-04-15T12:53:21.103Z</time></trkpt><trkpt lat="45.5352343" lon="9.5080316"><ele>137.0</ele><time>2026-04-15T12:53:22.104Z</time></trkpt><trkpt lat="45.5352406" lon="9.5081259"><ele>137.00000000000003</ele><time>2026-04-15T12:53:23.103Z</time></trkpt><trkpt lat="45.5352306" lon="9.5082157"><ele>137.0</ele><time>2026-04-15T12:53:24.103Z</time></trkpt><trkpt lat="45.5351784" lon="9.5083822"><ele>137.0</ele><time>2026-04-15T12:53:26.103Z</time></trkpt><trkpt lat="45.5351482" lon="9.508499"><ele>137.0</ele><time>2026-04-15T12:53:27.103Z</time></trkpt><trkpt lat="45.5351204" lon="9.5086055"><ele>137.0</ele><time>2026-04-15T12:53:28.103Z</time></trkpt><trkpt lat="45.535099" lon="9.5087298"><ele>137.0</ele><time>2026-04-15T12:53:29.103Z</time></trkpt><trkpt lat="45.535077" lon="9.5088468"><ele>137.0</ele><time>2026-04-15T12:53:30.104Z</time></trkpt><trkpt lat="45.5350506" lon="9.5089743"><ele>137.0</ele><time>2026-04-15T12:53:31.103Z</time></trkpt><trkpt lat="45.5350212" lon="9.5091275"><ele>137.0</ele><time>2026-04-15T12:53:32.103Z</time></trkpt><trkpt lat="45.5350088" lon="9.509218"><ele>137.0</ele><time>2026-04-15T12:53:33.103Z</time></trkpt><trkpt lat="45.5349991" lon="9.5093185"><ele>137.0</ele><time>2026-04-15T12:53:34.103Z</time></trkpt><trkpt lat="45.5349896" lon="9.5094249"><ele>137.0</ele><time>2026-04-15T12:53:35.103Z</time></trkpt><trkpt lat="45.5349783" lon="9.509537"><ele>137.0</ele><time>2026-04-15T12:53:36.104Z</time></trkpt><trkpt lat="45.5349665" lon="9.50965"><ele>137.0</ele><time>2026-04-15T12:53:37.104Z</time></trkpt><trkpt lat="45.5349467" lon="9.5097655"><ele>137.0</ele><time>2026-04-15T12:53:38.103Z</time></trkpt><trkpt lat="45.5349271" lon="9.5098781"><ele>137.0</ele><time>2026-04-15T12:53:39.103Z</time></trkpt><trkpt lat="45.5348999" lon="9.5100103"><ele>137.0</ele><time>2026-04-15T12:53:40.103Z</time></trkpt><trkpt lat="45.5348769" lon="9.5101208"><ele>137.0</ele><time>2026-04-15T12:53:41.103Z</time></trkpt><trkpt lat="45.5348508" lon="9.5102391"><ele>137.0</ele><time>2026-04-15T12:53:42.103Z</time></trkpt><trkpt lat="45.5348182" lon="9.5103483"><ele>137.0</ele><time>2026-04-15T12:53:43.103Z</time></trkpt><trkpt lat="45.5347826" lon="9.5104575"><ele>137.0</ele><time>2026-04-15T12:53:44.103Z</time></trkpt><trkpt lat="45.5347448" lon="9.5105761"><ele>137.0</ele><time>2026-04-15T12:53:45.103Z</time></trkpt><trkpt lat="45.5347072" lon="9.5106856"><ele>137.0</ele><time>2026-04-15T12:53:46.104Z</time></trkpt><trkpt lat="45.5346746" lon="9.5107959"><ele>137.0</ele><time>2026-04-15T12:53:47.103Z</time></trkpt><trkpt lat="45.534646" lon="9.5109181"><ele>137.0</ele><time>2026-04-15T12:53:48.103Z</time></trkpt><trkpt lat="45.5346115" lon="9.5110419"><ele>137.0</ele><time>2026-04-15T12:53:49.103Z</time></trkpt><trkpt lat="45.534583" lon="9.5111484"><ele>136.83333333333331</ele><time>2026-04-15T12:53:50.103Z</time></trkpt><trkpt lat="45.5345582" lon="9.5112631"><ele>136.66666666666666</ele><time>2026-04-15T12:53:51.104Z</time></trkpt><trkpt lat="45.5345317" lon="9.5113872"><ele>136.5</ele><time>2026-04-15T12:53:52.104Z</time></trkpt><trkpt lat="45.5345032" lon="9.5114997"><ele>136.33333333333334</ele><time>2026-04-15T12:53:53.103Z</time></trkpt><trkpt lat="45.5344758" lon="9.5116123"><ele>136.16666666666669</ele><time>2026-04-15T12:53:54.104Z</time></trkpt><trkpt lat="45.5344409" lon="9.5117328"><ele>136.0</ele><time>2026-04-15T12:53:55.103Z</time></trkpt><trkpt lat="45.5344137" lon="9.5118462"><ele>136.0</ele><time>2026-04-15T12:53:56.103Z</time></trkpt><trkpt lat="45.5343883" lon="9.5119578"><ele>136.0</ele><time>2026-04-15T12:53:57.103Z</time></trkpt><trkpt lat="45.5343601" lon="9.5120703"><ele>136.0</ele><time>2026-04-15T12:53:58.103Z</time></trkpt><trkpt lat="45.5343284" lon="9.5121844"><ele>136.0</ele><time>2026-04-15T12:53:59.103Z</time></trkpt><trkpt lat="45.5342967" lon="9.5123032"><ele>136.0</ele><time>2026-04-15T12:54:00.103Z</time></trkpt><trkpt lat="45.5342693" lon="9.512412"><ele>136.0</ele><time>2026-04-15T12:54:01.103Z</time></trkpt><trkpt lat="45.5342453" lon="9.5125285"><ele>136.0</ele><time>2026-04-15T12:54:02.103Z</time></trkpt><trkpt lat="45.5342161" lon="9.5126419"><ele>136.0</ele><time>2026-04-15T12:54:03.104Z</time></trkpt><trkpt lat="45.5341993" lon="9.5127487"><ele>136.0</ele><time>2026-04-15T12:54:04.103Z</time></trkpt><trkpt lat="45.5341635" lon="9.5128603"><ele>136.0</ele><time>2026-04-15T12:54:05.103Z</time></trkpt><trkpt lat="45.5341346" lon="9.5129775"><ele>136.0</ele><time>2026-04-15T12:54:06.104Z</time></trkpt><trkpt lat="45.5341063" lon="9.5131127"><ele>136.0</ele><time>2026-04-15T12:54:07.103Z</time></trkpt><trkpt lat="45.5340526" lon="9.5133234"><ele>136.16666666666669</ele><time>2026-04-15T12:54:09.103Z</time></trkpt><trkpt lat="45.5340212" lon="9.5134522"><ele>136.33333333333334</ele><time>2026-04-15T12:54:10.104Z</time></trkpt><trkpt lat="45.5339894" lon="9.5135827"><ele>136.5</ele><time>2026-04-15T12:54:11.103Z</time></trkpt><trkpt lat="45.5339656" lon="9.5136963"><ele>136.66666666666666</ele><time>2026-04-15T12:54:12.103Z</time></trkpt><trkpt lat="45.5339444" lon="9.5138079"><ele>136.83333333333331</ele><time>2026-04-15T12:54:13.104Z</time></trkpt><trkpt lat="45.5339142" lon="9.5138995"><ele>137.0</ele><time>2026-04-15T12:54:14.104Z</time></trkpt><trkpt lat="45.5338918" lon="9.5140234"><ele>136.83333333333331</ele><time>2026-04-15T12:54:15.103Z</time></trkpt><trkpt lat="45.5338596" lon="9.5141336"><ele>136.66666666666666</ele><time>2026-04-15T12:54:16.103Z</time></trkpt><trkpt lat="45.5338296" lon="9.5142522"><ele>136.5</ele><time>2026-04-15T12:54:17.103Z</time></trkpt><trkpt lat="45.5338011" lon="9.5143679"><ele>136.33333333333334</ele><time>2026-04-15T12:54:18.103Z</time></trkpt><trkpt lat="45.5337795" lon="9.5144919"><ele>136.16666666666669</ele><time>2026-04-15T12:54:19.103Z</time></trkpt><trkpt lat="45.5337557" lon="9.5146033"><ele>136.0</ele><time>2026-04-15T12:54:20.104Z</time></trkpt><trkpt lat="45.5337302" lon="9.5147241"><ele>136.16666666666669</ele><time>2026-04-15T12:54:21.103Z</time></trkpt><trkpt lat="45.5337046" lon="9.5148404"><ele>136.33333333333334</ele><time>2026-04-15T12:54:22.103Z</time></trkpt><trkpt lat="45.5336787" lon="9.5149511"><ele>136.5</ele><time>2026-04-15T12:54:23.103Z</time></trkpt><trkpt lat="45.5336521" lon="9.5150641"><ele>136.66666666666666</ele><time>2026-04-15T12:54:24.104Z</time></trkpt><trkpt lat="45.5336312" lon="9.5151728"><ele>136.83333333333331</ele><time>2026-04-15T12:54:25.104Z</time></trkpt><trkpt lat="45.5335991" lon="9.5152941"><ele>137.0</ele><time>2026-04-15T12:54:26.104Z</time></trkpt><trkpt lat="45.5335787" lon="9.5154162"><ele>137.16666666666666</ele><time>2026-04-15T12:54:27.104Z</time></trkpt><trkpt lat="45.5335465" lon="9.5155203"><ele>137.33333333333331</ele><time>2026-04-15T12:54:28.103Z</time></trkpt><trkpt lat="45.5335196" lon="9.515631"><ele>137.5</ele><time>2026-04-15T12:54:29.104Z</time></trkpt><trkpt lat="45.5334965" lon="9.5157461"><ele>137.66666666666666</ele><time>2026-04-15T12:54:30.103Z</time></trkpt><trkpt lat="45.5334646" lon="9.5158654"><ele>137.83333333333334</ele><time>2026-04-15T12:54:31.104Z</time></trkpt><trkpt lat="45.5334283" lon="9.5159803"><ele>138.0</ele><time>2026-04-15T12:54:32.103Z</time></trkpt><trkpt lat="45.5333947" lon="9.5160953"><ele>138.0</ele><time>2026-04-15T12:54:33.103Z</time></trkpt><trkpt lat="45.5333501" lon="9.5162177"><ele>138.0</ele><time>2026-04-15T12:54:34.103Z</time></trkpt><trkpt lat="45.5333182" lon="9.5163207"><ele>138.0</ele><time>2026-04-15T12:54:35.104Z</time></trkpt><trkpt lat="45.5332769" lon="9.5164394"><ele>138.0</ele><time>2026-04-15T12:54:36.104Z</time></trkpt><trkpt lat="45.5332396" lon="9.516545"><ele>138.0</ele><time>2026-04-15T12:54:37.103Z</time></trkpt><trkpt lat="45.5332014" lon="9.5166682"><ele>138.0</ele><time>2026-04-15T12:54:38.103Z</time></trkpt><trkpt lat="45.5331654" lon="9.5167705"><ele>138.0</ele><time>2026-04-15T12:54:39.103Z</time></trkpt><trkpt lat="45.5331371" lon="9.5168865"><ele>138.0</ele><time>2026-04-15T12:54:40.103Z</time></trkpt><trkpt lat="45.533105" lon="9.517007"><ele>138.0</ele><time>2026-04-15T12:54:41.104Z</time></trkpt><trkpt lat="45.5330712" lon="9.5171198"><ele>138.0</ele><time>2026-04-15T12:54:42.104Z</time></trkpt><trkpt lat="45.5330383" lon="9.5172356"><ele>138.0</ele><time>2026-04-15T12:54:43.104Z</time></trkpt><trkpt lat="45.5330051" lon="9.517344"><ele>138.0</ele><time>2026-04-15T12:54:44.104Z</time></trkpt><trkpt lat="45.5329658" lon="9.5174488"><ele>138.0</ele><time>2026-04-15T12:54:45.103Z</time></trkpt><trkpt lat="45.5329388" lon="9.5175611"><ele>138.0</ele><time>2026-04-15T12:54:46.103Z</time></trkpt><trkpt lat="45.5329066" lon="9.5176668"><ele>138.0</ele><time>2026-04-15T12:54:47.103Z</time></trkpt><trkpt lat="45.5328764" lon="9.5177616"><ele>138.0</ele><time>2026-04-15T12:54:48.103Z</time></trkpt><trkpt lat="45.5328404" lon="9.5178547"><ele>138.0</ele><time>2026-04-15T12:54:49.103Z</time></trkpt><trkpt lat="45.5328106" lon="9.5179571"><ele>138.0</ele><time>2026-04-15T12:54:50.103Z</time></trkpt><trkpt lat="45.5327781" lon="9.5180593"><ele>137.83333333333334</ele><time>2026-04-15T12:54:51.103Z</time></trkpt><trkpt lat="45.5327466" lon="9.5181557"><ele>137.66666666666666</ele><time>2026-04-15T12:54:52.104Z</time></trkpt><trkpt lat="45.5327155" lon="9.5182559"><ele>137.5</ele><time>2026-04-15T12:54:53.103Z</time></trkpt><trkpt lat="45.5326818" lon="9.5183653"><ele>137.33333333333331</ele><time>2026-04-15T12:54:54.103Z</time></trkpt><trkpt lat="45.5326569" lon="9.5184723"><ele>137.16666666666666</ele><time>2026-04-15T12:54:55.103Z</time></trkpt><trkpt lat="45.5326337" lon="9.518586"><ele>137.0</ele><time>2026-04-15T12:54:56.103Z</time></trkpt><trkpt lat="45.532597" lon="9.5186969"><ele>137.14285714285717</ele><time>2026-04-15T12:54:57.103Z</time></trkpt><trkpt lat="45.5325749" lon="9.5187967"><ele>137.28571428571428</ele><time>2026-04-15T12:54:58.104Z</time></trkpt><trkpt lat="45.5325516" lon="9.5188923"><ele>137.42857142857144</ele><time>2026-04-15T12:54:59.103Z</time></trkpt><trkpt lat="45.5325301" lon="9.5189965"><ele>137.57142857142858</ele><time>2026-04-15T12:55:00.103Z</time></trkpt><trkpt lat="45.5325146" lon="9.519097"><ele>137.71428571428572</ele><time>2026-04-15T12:55:01.103Z</time></trkpt><trkpt lat="45.5325127" lon="9.5192018"><ele>137.85714285714286</ele><time>2026-04-15T12:55:02.103Z</time></trkpt><trkpt lat="45.5325089" lon="9.5193028"><ele>138.0</ele><time>2026-04-15T12:55:03.104Z</time></trkpt><trkpt lat="45.532522" lon="9.5194374"><ele>138.0</ele><time>2026-04-15T12:55:05.103Z</time></trkpt><trkpt lat="45.5325296" lon="9.5195348"><ele>138.0</ele><time>2026-04-15T12:55:07.104Z</time></trkpt><trkpt lat="45.5325248" lon="9.5196655"><ele>138.0</ele><time>2026-04-15T12:55:09.104Z</time></trkpt><trkpt lat="45.5325406" lon="9.5198077"><ele>138.0</ele><time>2026-04-15T12:55:11.103Z</time></trkpt><trkpt lat="45.5325721" lon="9.519919"><ele>138.0</ele><time>2026-04-15T12:55:13.104Z</time></trkpt><trkpt lat="45.5326574" lon="9.5200137"><ele>138.0</ele><time>2026-04-15T12:55:15.104Z</time></trkpt><trkpt lat="45.53274" lon="9.5201195"><ele>138.0</ele><time>2026-04-15T12:55:17.104Z</time></trkpt><trkpt lat="45.5328282" lon="9.5202175"><ele>138.0</ele><time>2026-04-15T12:55:19.103Z</time></trkpt><trkpt lat="45.5328846" lon="9.5202648"><ele>138.0</ele><time>2026-04-15T12:55:20.103Z</time></trkpt><trkpt lat="45.5329455" lon="9.5203129"><ele>138.0</ele><time>2026-04-15T12:55:21.103Z</time></trkpt><trkpt lat="45.5330009" lon="9.5203644"><ele>138.0</ele><time>2026-04-15T12:55:22.103Z</time></trkpt><trkpt lat="45.5330631" lon="9.5204022"><ele>138.0</ele><time>2026-04-15T12:55:23.103Z</time></trkpt><trkpt lat="45.5331736" lon="9.5204504"><ele>138.0</ele><time>2026-04-15T12:55:25.104Z</time></trkpt><trkpt lat="45.5332395" lon="9.5204736"><ele>138.0</ele><time>2026-04-15T12:55:26.103Z</time></trkpt><trkpt lat="45.5333001" lon="9.5205002"><ele>138.0</ele><time>2026-04-15T12:55:27.103Z</time></trkpt><trkpt lat="45.5333623" lon="9.5205276"><ele>138.0</ele><time>2026-04-15T12:55:28.103Z</time></trkpt><trkpt lat="45.5334332" lon="9.5205504"><ele>138.0</ele><time>2026-04-15T12:55:29.104Z</time></trkpt><trkpt lat="45.5334948" lon="9.5205749"><ele>138.0</ele><time>2026-04-15T12:55:30.103Z</time></trkpt><trkpt lat="45.5335703" lon="9.5206265"><ele>138.0</ele><time>2026-04-15T12:55:31.103Z</time></trkpt><trkpt lat="45.533698" lon="9.5206828"><ele>138.0</ele><time>2026-04-15T12:55:33.104Z</time></trkpt><trkpt lat="45.5338256" lon="9.5207322"><ele>138.0</ele><time>2026-04-15T12:55:35.104Z</time></trkpt><trkpt lat="45.5339028" lon="9.5207584"><ele>138.0</ele><time>2026-04-15T12:55:36.103Z</time></trkpt><trkpt lat="45.5339773" lon="9.5207872"><ele>138.0</ele><time>2026-04-15T12:55:37.104Z</time></trkpt><trkpt lat="45.5340397" lon="9.5208107"><ele>137.83333333333334</ele><time>2026-04-15T12:55:38.104Z</time></trkpt><trkpt lat="45.5341092" lon="9.5208301"><ele>137.66666666666666</ele><time>2026-04-15T12:55:39.103Z</time></trkpt><trkpt lat="45.5341761" lon="9.5208628"><ele>137.5</ele><time>2026-04-15T12:55:40.104Z</time></trkpt><trkpt lat="45.5342399" lon="9.5208736"><ele>137.33333333333331</ele><time>2026-04-15T12:55:41.103Z</time></trkpt><trkpt lat="45.5343703" lon="9.5209238"><ele>137.16666666666666</ele><time>2026-04-15T12:55:43.103Z</time></trkpt><trkpt lat="45.5344382" lon="9.5209565"><ele>137.0</ele><time>2026-04-15T12:55:44.103Z</time></trkpt><trkpt lat="45.5345091" lon="9.5209795"><ele>137.14285714285717</ele><time>2026-04-15T12:55:45.103Z</time></trkpt><trkpt lat="45.5345743" lon="9.5209961"><ele>137.28571428571428</ele><time>2026-04-15T12:55:46.103Z</time></trkpt><trkpt lat="45.5346448" lon="9.5210359"><ele>137.42857142857144</ele><time>2026-04-15T12:55:47.104Z</time></trkpt><trkpt lat="45.5347087" lon="9.5210691"><ele>137.57142857142858</ele><time>2026-04-15T12:55:48.104Z</time></trkpt><trkpt lat="45.534773" lon="9.5211032"><ele>137.71428571428572</ele><time>2026-04-15T12:55:49.103Z</time></trkpt><trkpt lat="45.5348428" lon="9.5211528"><ele>137.85714285714286</ele><time>2026-04-15T12:55:50.103Z</time></trkpt><trkpt lat="45.5349253" lon="9.5211918"><ele>138.0</ele><time>2026-04-15T12:55:51.103Z</time></trkpt><trkpt lat="45.5349946" lon="9.5212388"><ele>138.4</ele><time>2026-04-15T12:55:52.103Z</time></trkpt><trkpt lat="45.5350552" lon="9.5212689"><ele>138.8</ele><time>2026-04-15T12:55:53.103Z</time></trkpt><trkpt lat="45.5351769" lon="9.5212966"><ele>139.2</ele><time>2026-04-15T12:55:55.103Z</time></trkpt><trkpt lat="45.5353021" lon="9.521316"><ele>139.6</ele><time>2026-04-15T12:55:57.103Z</time></trkpt><trkpt lat="45.5353888" lon="9.5213394"><ele>140.0</ele><time>2026-04-15T12:55:58.104Z</time></trkpt><trkpt lat="45.5355083" lon="9.5213435"><ele>140.25</ele><time>2026-04-15T12:56:00.103Z</time></trkpt><trkpt lat="45.5356494" lon="9.5213584"><ele>140.5</ele><time>2026-04-15T12:56:02.103Z</time></trkpt><trkpt lat="45.5357349" lon="9.5213554"><ele>140.75</ele><time>2026-04-15T12:56:03.103Z</time></trkpt><trkpt lat="45.5358679" lon="9.5214003"><ele>141.0</ele><time>2026-04-15T12:56:05.104Z</time></trkpt><trkpt lat="45.5359963" lon="9.5214445"><ele>141.0</ele><time>2026-04-15T12:56:07.103Z</time></trkpt><trkpt lat="45.5360701" lon="9.5214742"><ele>141.0</ele><time>2026-04-15T12:56:08.104Z</time></trkpt><trkpt lat="45.536158" lon="9.521534"><ele>141.0</ele><time>2026-04-15T12:56:09.103Z</time></trkpt><trkpt lat="45.5362807" lon="9.5215346"><ele>141.0</ele><time>2026-04-15T12:56:11.103Z</time></trkpt><trkpt lat="45.5363659" lon="9.5215758"><ele>141.0</ele><time>2026-04-15T12:56:12.104Z</time></trkpt><trkpt lat="45.5364476" lon="9.5216095"><ele>140.71428571428572</ele><time>2026-04-15T12:56:13.103Z</time></trkpt><trkpt lat="45.5365178" lon="9.521627"><ele>140.42857142857142</ele><time>2026-04-15T12:56:14.103Z</time></trkpt><trkpt lat="45.5365853" lon="9.5216538"><ele>140.14285714285714</ele><time>2026-04-15T12:56:15.103Z</time></trkpt><trkpt lat="45.5366585" lon="9.5216601"><ele>139.85714285714286</ele><time>2026-04-15T12:56:16.104Z</time></trkpt><trkpt lat="45.5367211" lon="9.5216803"><ele>139.57142857142858</ele><time>2026-04-15T12:56:17.104Z</time></trkpt><trkpt lat="45.5368025" lon="9.521717"><ele>139.28571428571428</ele><time>2026-04-15T12:56:18.103Z</time></trkpt><trkpt lat="45.536882" lon="9.5217377"><ele>139.0</ele><time>2026-04-15T12:56:19.103Z</time></trkpt><trkpt lat="45.5369508" lon="9.5217296"><ele>139.0</ele><time>2026-04-15T12:56:20.103Z</time></trkpt><trkpt lat="45.5370185" lon="9.5217545"><ele>139.0</ele><time>2026-04-15T12:56:21.103Z</time></trkpt><trkpt lat="45.537091" lon="9.5217606"><ele>139.0</ele><time>2026-04-15T12:56:22.103Z</time></trkpt><trkpt lat="45.5372184" lon="9.5218122"><ele>139.0</ele><time>2026-04-15T12:56:24.104Z</time></trkpt><trkpt lat="45.5372932" lon="9.5218286"><ele>139.0</ele><time>2026-04-15T12:56:25.103Z</time></trkpt><trkpt lat="45.5373717" lon="9.5218828"><ele>139.0</ele><time>2026-04-15T12:56:26.104Z</time></trkpt><trkpt lat="45.5374338" lon="9.5218996"><ele>139.0</ele><time>2026-04-15T12:56:27.104Z</time></trkpt><trkpt lat="45.5375062" lon="9.5219311"><ele>139.0</ele><time>2026-04-15T12:56:28.103Z</time></trkpt><trkpt lat="45.537625" lon="9.521956"><ele>139.0</ele><time>2026-04-15T12:56:30.103Z</time></trkpt><trkpt lat="45.5376884" lon="9.5219581"><ele>139.0</ele><time>2026-04-15T12:56:31.103Z</time></trkpt><trkpt lat="45.5377705" lon="9.5219983"><ele>139.0</ele><time>2026-04-15T12:56:32.103Z</time></trkpt><trkpt lat="45.5378637" lon="9.5220356"><ele>139.0</ele><time>2026-04-15T12:56:33.103Z</time></trkpt><trkpt lat="45.5379373" lon="9.5220506"><ele>139.33333333333334</ele><time>2026-04-15T12:56:34.104Z</time></trkpt><trkpt lat="45.538017" lon="9.5220831"><ele>139.66666666666669</ele><time>2026-04-15T12:56:35.103Z</time></trkpt><trkpt lat="45.5380893" lon="9.522094"><ele>140.0</ele><time>2026-04-15T12:56:36.103Z</time></trkpt><trkpt lat="45.5381614" lon="9.5221209"><ele>140.33333333333334</ele><time>2026-04-15T12:56:37.103Z</time></trkpt><trkpt lat="45.5382438" lon="9.522143"><ele>140.66666666666666</ele><time>2026-04-15T12:56:38.104Z</time></trkpt><trkpt lat="45.5383142" lon="9.5221552"><ele>141.0</ele><time>2026-04-15T12:56:39.103Z</time></trkpt><trkpt lat="45.5383847" lon="9.5221628"><ele>141.0</ele><time>2026-04-15T12:56:40.103Z</time></trkpt><trkpt lat="45.5384642" lon="9.5221988"><ele>141.0</ele><time>2026-04-15T12:56:41.104Z</time></trkpt><trkpt lat="45.5386063" lon="9.5222319"><ele>141.0</ele><time>2026-04-15T12:56:43.103Z</time></trkpt><trkpt lat="45.5386805" lon="9.5222604"><ele>141.0</ele><time>2026-04-15T12:56:44.103Z</time></trkpt><trkpt lat="45.5387658" lon="9.5222964"><ele>141.0</ele><time>2026-04-15T12:56:45.103Z</time></trkpt><trkpt lat="45.5388513" lon="9.5223206"><ele>141.16666666666666</ele><time>2026-04-15T12:56:46.103Z</time></trkpt><trkpt lat="45.5389206" lon="9.5223194"><ele>141.33333333333334</ele><time>2026-04-15T12:56:47.103Z</time></trkpt><trkpt lat="45.5389943" lon="9.5223376"><ele>141.5</ele><time>2026-04-15T12:56:48.103Z</time></trkpt><trkpt lat="45.539067" lon="9.5223509"><ele>141.66666666666669</ele><time>2026-04-15T12:56:49.103Z</time></trkpt><trkpt lat="45.5391471" lon="9.5223717"><ele>141.83333333333334</ele><time>2026-04-15T12:56:50.103Z</time></trkpt><trkpt lat="45.5392261" lon="9.5223972"><ele>142.0</ele><time>2026-04-15T12:56:51.103Z</time></trkpt><trkpt lat="45.5393035" lon="9.5224176"><ele>142.0</ele><time>2026-04-15T12:56:52.104Z</time></trkpt><trkpt lat="45.5393871" lon="9.5224481"><ele>142.0</ele><time>2026-04-15T12:56:53.103Z</time></trkpt><trkpt lat="45.5394547" lon="9.5224595"><ele>142.0</ele><time>2026-04-15T12:56:54.103Z</time></trkpt><trkpt lat="45.5395186" lon="9.5224725"><ele>142.0</ele><time>2026-04-15T12:56:55.103Z</time></trkpt><trkpt lat="45.5395974" lon="9.5224995"><ele>142.0</ele><time>2026-04-15T12:56:56.104Z</time></trkpt><trkpt lat="45.5396646" lon="9.5225206"><ele>142.0</ele><time>2026-04-15T12:56:57.104Z</time></trkpt><trkpt lat="45.5397436" lon="9.5225329"><ele>142.0</ele><time>2026-04-15T12:56:58.103Z</time></trkpt><trkpt lat="45.5398144" lon="9.5225517"><ele>142.16666666666669</ele><time>2026-04-15T12:56:59.104Z</time></trkpt><trkpt lat="45.5398962" lon="9.5225675"><ele>142.33333333333334</ele><time>2026-04-15T12:57:00.104Z</time></trkpt><trkpt lat="45.5399743" lon="9.5225786"><ele>142.5</ele><time>2026-04-15T12:57:01.104Z</time></trkpt><trkpt lat="45.5400548" lon="9.5225987"><ele>142.66666666666666</ele><time>2026-04-15T12:57:02.104Z</time></trkpt><trkpt lat="45.540128" lon="9.5226227"><ele>142.83333333333331</ele><time>2026-04-15T12:57:03.103Z</time></trkpt><trkpt lat="45.5401955" lon="9.5226527"><ele>143.0</ele><time>2026-04-15T12:57:04.103Z</time></trkpt><trkpt lat="45.5402873" lon="9.5227172"><ele>143.0</ele><time>2026-04-15T12:57:05.103Z</time></trkpt><trkpt lat="45.5403691" lon="9.5227505"><ele>143.0</ele><time>2026-04-15T12:57:06.104Z</time></trkpt><trkpt lat="45.5404883" lon="9.5227785"><ele>143.0</ele><time>2026-04-15T12:57:08.103Z</time></trkpt><trkpt lat="45.5405686" lon="9.5227985"><ele>143.0</ele><time>2026-04-15T12:57:09.103Z</time></trkpt><trkpt lat="45.5406327" lon="9.5227979"><ele>143.0</ele><time>2026-04-15T12:57:10.103Z</time></trkpt><trkpt lat="45.540769" lon="9.5228383"><ele>142.66666666666666</ele><time>2026-04-15T12:57:12.104Z</time></trkpt><trkpt lat="45.5408361" lon="9.5228426"><ele>142.33333333333331</ele><time>2026-04-15T12:57:13.103Z</time></trkpt><trkpt lat="45.5409176" lon="9.5228693"><ele>142.0</ele><time>2026-04-15T12:57:14.103Z</time></trkpt><trkpt lat="45.5410004" lon="9.5229022"><ele>141.66666666666666</ele><time>2026-04-15T12:57:15.103Z</time></trkpt><trkpt lat="45.5410677" lon="9.5229156"><ele>141.33333333333334</ele><time>2026-04-15T12:57:16.103Z</time></trkpt><trkpt lat="45.541134" lon="9.5229296"><ele>141.0</ele><time>2026-04-15T12:57:17.103Z</time></trkpt><trkpt lat="45.5412264" lon="9.5229795"><ele>141.0</ele><time>2026-04-15T12:57:18.103Z</time></trkpt><trkpt lat="45.5413015" lon="9.5230171"><ele>141.0</ele><time>2026-04-15T12:57:19.104Z</time></trkpt><trkpt lat="45.5414423" lon="9.5230677"><ele>141.0</ele><time>2026-04-15T12:57:21.103Z</time></trkpt><trkpt lat="45.5415115" lon="9.5230869"><ele>141.0</ele><time>2026-04-15T12:57:22.103Z</time></trkpt><trkpt lat="45.5415887" lon="9.5231006"><ele>141.0</ele><time>2026-04-15T12:57:23.104Z</time></trkpt><trkpt lat="45.5416721" lon="9.5231221"><ele>141.0</ele><time>2026-04-15T12:57:24.104Z</time></trkpt><trkpt lat="45.5417492" lon="9.5231428"><ele>141.0</ele><time>2026-04-15T12:57:25.103Z</time></trkpt><trkpt lat="45.541825" lon="9.523161"><ele>141.0</ele><time>2026-04-15T12:57:26.104Z</time></trkpt><trkpt lat="45.5419012" lon="9.5231706"><ele>141.0</ele><time>2026-04-15T12:57:27.103Z</time></trkpt><trkpt lat="45.5420371" lon="9.5231917"><ele>141.0</ele><time>2026-04-15T12:57:29.103Z</time></trkpt><trkpt lat="45.5421174" lon="9.5231927"><ele>141.0</ele><time>2026-04-15T12:57:30.103Z</time></trkpt><trkpt lat="45.5421882" lon="9.5232068"><ele>141.0</ele><time>2026-04-15T12:57:31.103Z</time></trkpt><trkpt lat="45.5422541" lon="9.5232311"><ele>141.0</ele><time>2026-04-15T12:57:32.104Z</time></trkpt><trkpt lat="45.5423409" lon="9.5232756"><ele>141.0</ele><time>2026-04-15T12:57:33.103Z</time></trkpt><trkpt lat="45.5424126" lon="9.5232875"><ele>141.0</ele><time>2026-04-15T12:57:34.103Z</time></trkpt><trkpt lat="45.5425034" lon="9.5233309"><ele>141.0</ele><time>2026-04-15T12:57:35.103Z</time></trkpt><trkpt lat="45.5425951" lon="9.5233336"><ele>141.0</ele><time>2026-04-15T12:57:36.103Z</time></trkpt><trkpt lat="45.5426907" lon="9.5233471"><ele>141.0</ele><time>2026-04-15T12:57:37.103Z</time></trkpt><trkpt lat="45.5428195" lon="9.5234282"><ele>141.0</ele><time>2026-04-15T12:57:39.103Z</time></trkpt><trkpt lat="45.5428854" lon="9.5234436"><ele>141.0</ele><time>2026-04-15T12:57:40.103Z</time></trkpt><trkpt lat="45.5429516" lon="9.5234485"><ele>141.0</ele><time>2026-04-15T12:57:41.104Z</time></trkpt><trkpt lat="45.5430394" lon="9.5234794"><ele>141.0</ele><time>2026-04-15T12:57:42.104Z</time></trkpt><trkpt lat="45.5431197" lon="9.5234941"><ele>141.0</ele><time>2026-04-15T12:57:43.103Z</time></trkpt><trkpt lat="45.5431968" lon="9.5235291"><ele>141.0</ele><time>2026-04-15T12:57:44.103Z</time></trkpt><trkpt lat="45.5432903" lon="9.5235569"><ele>141.0</ele><time>2026-04-15T12:57:45.104Z</time></trkpt><trkpt lat="45.5433626" lon="9.5235726"><ele>141.0</ele><time>2026-04-15T12:57:46.103Z</time></trkpt><trkpt lat="45.5434354" lon="9.5235872"><ele>141.0</ele><time>2026-04-15T12:57:47.103Z</time></trkpt><trkpt lat="45.5435178" lon="9.5236119"><ele>141.0</ele><time>2026-04-15T12:57:48.103Z</time></trkpt><trkpt lat="45.5435885" lon="9.5236437"><ele>141.0</ele><time>2026-04-15T12:57:49.103Z</time></trkpt><trkpt lat="45.5436704" lon="9.5236637"><ele>141.28571428571428</ele><time>2026-04-15T12:57:50.104Z</time></trkpt><trkpt lat="45.5437504" lon="9.5236896"><ele>141.57142857142856</ele><time>2026-04-15T12:57:51.103Z</time></trkpt><trkpt lat="45.5438327" lon="9.5237132"><ele>141.85714285714283</ele><time>2026-04-15T12:57:52.103Z</time></trkpt><trkpt lat="45.5439082" lon="9.523719"><ele>142.14285714285714</ele><time>2026-04-15T12:57:53.103Z</time></trkpt><trkpt lat="45.5439815" lon="9.5237303"><ele>142.42857142857142</ele><time>2026-04-15T12:57:54.104Z</time></trkpt><trkpt lat="45.5440445" lon="9.5237422"><ele>142.7142857142857</ele><time>2026-04-15T12:57:55.104Z</time></trkpt><trkpt lat="45.5441119" lon="9.523744"><ele>143.0</ele><time>2026-04-15T12:57:56.103Z</time></trkpt><trkpt lat="45.5441815" lon="9.523741"><ele>143.0</ele><time>2026-04-15T12:57:57.104Z</time></trkpt><trkpt lat="45.5442521" lon="9.5237631"><ele>143.0</ele><time>2026-04-15T12:57:58.103Z</time></trkpt><trkpt lat="45.5443654" lon="9.5238298"><ele>143.0</ele><time>2026-04-15T12:58:00.104Z</time></trkpt><trkpt lat="45.5444276" lon="9.5238637"><ele>143.0</ele><time>2026-04-15T12:58:01.103Z</time></trkpt><trkpt lat="45.5444937" lon="9.5239012"><ele>143.0</ele><time>2026-04-15T12:58:02.104Z</time></trkpt><trkpt lat="45.5445549" lon="9.5239263"><ele>143.0</ele><time>2026-04-15T12:58:03.103Z</time></trkpt><trkpt lat="45.5446208" lon="9.5239774"><ele>142.85714285714283</ele><time>2026-04-15T12:58:04.103Z</time></trkpt><trkpt lat="45.5446802" lon="9.5240096"><ele>142.71428571428572</ele><time>2026-04-15T12:58:05.104Z</time></trkpt><trkpt lat="45.5447418" lon="9.5240472"><ele>142.57142857142856</ele><time>2026-04-15T12:58:06.103Z</time></trkpt><trkpt lat="45.5448116" lon="9.5240875"><ele>142.42857142857142</ele><time>2026-04-15T12:58:07.103Z</time></trkpt><trkpt lat="45.5448864" lon="9.5241217"><ele>142.28571428571428</ele><time>2026-04-15T12:58:08.104Z</time></trkpt><trkpt lat="45.5449492" lon="9.524158"><ele>142.14285714285714</ele><time>2026-04-15T12:58:09.103Z</time></trkpt><trkpt lat="45.5450106" lon="9.5242004"><ele>142.0</ele><time>2026-04-15T12:58:10.103Z</time></trkpt><trkpt lat="45.5450858" lon="9.5242438"><ele>142.0</ele><time>2026-04-15T12:58:11.103Z</time></trkpt><trkpt lat="45.5451522" lon="9.5242759"><ele>142.0</ele><time>2026-04-15T12:58:12.103Z</time></trkpt><trkpt lat="45.5452229" lon="9.5243202"><ele>142.0</ele><time>2026-04-15T12:58:13.101Z</time></trkpt><trkpt lat="45.5452967" lon="9.5243726"><ele>142.0</ele><time>2026-04-15T12:58:14.103Z</time></trkpt><trkpt lat="45.5453687" lon="9.5244255"><ele>142.0</ele><time>2026-04-15T12:58:15.104Z</time></trkpt><trkpt lat="45.5454434" lon="9.5244679"><ele>142.0</ele><time>2026-04-15T12:58:16.103Z</time></trkpt><trkpt lat="45.5455239" lon="9.5245116"><ele>142.16666666666669</ele><time>2026-04-15T12:58:17.103Z</time></trkpt><trkpt lat="45.5456189" lon="9.5245591"><ele>142.33333333333334</ele><time>2026-04-15T12:58:18.104Z</time></trkpt><trkpt lat="45.5456886" lon="9.5245966"><ele>142.5</ele><time>2026-04-15T12:58:19.103Z</time></trkpt><trkpt lat="45.5457801" lon="9.5246424"><ele>142.66666666666666</ele><time>2026-04-15T12:58:20.103Z</time></trkpt><trkpt lat="45.545858" lon="9.5246737"><ele>142.83333333333331</ele><time>2026-04-15T12:58:21.104Z</time></trkpt><trkpt lat="45.5459344" lon="9.5247053"><ele>143.0</ele><time>2026-04-15T12:58:22.103Z</time></trkpt><trkpt lat="45.5460092" lon="9.5247089"><ele>141.33333333333331</ele><time>2026-04-15T12:58:23.103Z</time></trkpt><trkpt lat="45.5460917" lon="9.5247298"><ele>139.66666666666666</ele><time>2026-04-15T12:58:24.103Z</time></trkpt><trkpt lat="45.5461633" lon="9.5247367"><ele>138.0</ele><time>2026-04-15T12:58:25.103Z</time></trkpt><trkpt lat="45.5462457" lon="9.5247541"><ele>136.33333333333334</ele><time>2026-04-15T12:58:26.103Z</time></trkpt><trkpt lat="45.5463258" lon="9.5247753"><ele>134.66666666666669</ele><time>2026-04-15T12:58:27.104Z</time></trkpt><trkpt lat="45.5463925" lon="9.5247874"><ele>133.0</ele><time>2026-04-15T12:58:28.104Z</time></trkpt><trkpt lat="45.5464794" lon="9.5248002"><ele>133.0</ele><time>2026-04-15T12:58:29.104Z</time></trkpt><trkpt lat="45.5465613" lon="9.5248061"><ele>133.0</ele><time>2026-04-15T12:58:30.104Z</time></trkpt><trkpt lat="45.5467009" lon="9.5248213"><ele>133.0</ele><time>2026-04-15T12:58:32.103Z</time></trkpt><trkpt lat="45.5467803" lon="9.5248076"><ele>133.0</ele><time>2026-04-15T12:58:33.103Z</time></trkpt><trkpt lat="45.5469151" lon="9.5247892"><ele>133.0</ele><time>2026-04-15T12:58:35.103Z</time></trkpt><trkpt lat="45.5469946" lon="9.5247612"><ele>133.16666666666669</ele><time>2026-04-15T12:58:36.104Z</time></trkpt><trkpt lat="45.5470795" lon="9.5247675"><ele>133.33333333333334</ele><time>2026-04-15T12:58:37.103Z</time></trkpt><trkpt lat="45.5471629" lon="9.5247568"><ele>133.5</ele><time>2026-04-15T12:58:38.103Z</time></trkpt><trkpt lat="45.5472377" lon="9.5247354"><ele>133.66666666666666</ele><time>2026-04-15T12:58:39.104Z</time></trkpt><trkpt lat="45.5473275" lon="9.5247476"><ele>133.83333333333331</ele><time>2026-04-15T12:58:40.103Z</time></trkpt><trkpt lat="45.5474075" lon="9.5247289"><ele>134.0</ele><time>2026-04-15T12:58:41.103Z</time></trkpt><trkpt lat="45.5474836" lon="9.5247072"><ele>134.0</ele><time>2026-04-15T12:58:42.103Z</time></trkpt><trkpt lat="45.5475422" lon="9.5246643"><ele>134.0</ele><time>2026-04-15T12:58:43.104Z</time></trkpt><trkpt lat="45.547636" lon="9.5246649"><ele>134.0</ele><time>2026-04-15T12:58:44.103Z</time></trkpt><trkpt lat="45.5477314" lon="9.5246376"><ele>134.0</ele><time>2026-04-15T12:58:45.103Z</time></trkpt><trkpt lat="45.5478017" lon="9.5245987"><ele>134.0</ele><time>2026-04-15T12:58:46.103Z</time></trkpt><trkpt lat="45.5478828" lon="9.5245788"><ele>134.0</ele><time>2026-04-15T12:58:47.104Z</time></trkpt><trkpt lat="45.5479716" lon="9.5245474"><ele>135.5</ele><time>2026-04-15T12:58:48.103Z</time></trkpt><trkpt lat="45.5480397" lon="9.5245154"><ele>137.0</ele><time>2026-04-15T12:58:49.104Z</time></trkpt><trkpt lat="45.5481153" lon="9.524503"><ele>138.5</ele><time>2026-04-15T12:58:50.103Z</time></trkpt><trkpt lat="45.5481964" lon="9.5244843"><ele>140.0</ele><time>2026-04-15T12:58:51.104Z</time></trkpt><trkpt lat="45.5482692" lon="9.5244624"><ele>141.5</ele><time>2026-04-15T12:58:52.103Z</time></trkpt><trkpt lat="45.5483388" lon="9.5244398"><ele>143.0</ele><time>2026-04-15T12:58:53.103Z</time></trkpt><trkpt lat="45.5484144" lon="9.5243995"><ele>143.0</ele><time>2026-04-15T12:58:54.103Z</time></trkpt><trkpt lat="45.5484757" lon="9.5243452"><ele>143.0</ele><time>2026-04-15T12:58:55.103Z</time></trkpt><trkpt lat="45.5485526" lon="9.5243585"><ele>143.0</ele><time>2026-04-15T12:58:56.104Z</time></trkpt><trkpt lat="45.5486222" lon="9.5243292"><ele>143.0</ele><time>2026-04-15T12:58:57.103Z</time></trkpt><trkpt lat="45.5487077" lon="9.5242869"><ele>143.0</ele><time>2026-04-15T12:58:58.103Z</time></trkpt><trkpt lat="45.5487813" lon="9.5242761"><ele>143.0</ele><time>2026-04-15T12:58:59.103Z</time></trkpt><trkpt lat="45.5488535" lon="9.5242546"><ele>142.0</ele><time>2026-04-15T12:59:00.103Z</time></trkpt><trkpt lat="45.5489252" lon="9.5242423"><ele>141.0</ele><time>2026-04-15T12:59:01.103Z</time></trkpt><trkpt lat="45.5489994" lon="9.5242204"><ele>140.0</ele><time>2026-04-15T12:59:02.103Z</time></trkpt><trkpt lat="45.5490972" lon="9.52422"><ele>139.0</ele><time>2026-04-15T12:59:03.103Z</time></trkpt><trkpt lat="45.5491721" lon="9.5242002"><ele>138.0</ele><time>2026-04-15T12:59:04.104Z</time></trkpt><trkpt lat="45.5492416" lon="9.5241934"><ele>137.0</ele><time>2026-04-15T12:59:05.103Z</time></trkpt><trkpt lat="45.5493134" lon="9.5241801"><ele>137.0</ele><time>2026-04-15T12:59:06.104Z</time></trkpt><trkpt lat="45.549389" lon="9.5241619"><ele>137.0</ele><time>2026-04-15T12:59:07.103Z</time></trkpt><trkpt lat="45.5494524" lon="9.5241398"><ele>137.0</ele><time>2026-04-15T12:59:08.103Z</time></trkpt><trkpt lat="45.5495358" lon="9.5241335"><ele>137.0</ele><time>2026-04-15T12:59:09.103Z</time></trkpt><trkpt lat="45.5496829" lon="9.5241164"><ele>137.0</ele><time>2026-04-15T12:59:11.104Z</time></trkpt><trkpt lat="45.5497554" lon="9.524115"><ele>137.0</ele><time>2026-04-15T12:59:12.103Z</time></trkpt><trkpt lat="45.5498261" lon="9.5241097"><ele>136.66666666666666</ele><time>2026-04-15T12:59:13.103Z</time></trkpt><trkpt lat="45.5499035" lon="9.5241156"><ele>136.33333333333331</ele><time>2026-04-15T12:59:14.104Z</time></trkpt><trkpt lat="45.5499743" lon="9.5241069"><ele>136.0</ele><time>2026-04-15T12:59:15.103Z</time></trkpt><trkpt lat="45.5500611" lon="9.5241177"><ele>135.66666666666666</ele><time>2026-04-15T12:59:16.103Z</time></trkpt><trkpt lat="45.5501345" lon="9.5241111"><ele>135.33333333333334</ele><time>2026-04-15T12:59:17.103Z</time></trkpt><trkpt lat="45.5502082" lon="9.5241202"><ele>135.0</ele><time>2026-04-15T12:59:18.103Z</time></trkpt><trkpt lat="45.5502845" lon="9.524118"><ele>135.0</ele><time>2026-04-15T12:59:19.103Z</time></trkpt><trkpt lat="45.5503503" lon="9.5241133"><ele>135.0</ele><time>2026-04-15T12:59:20.103Z</time></trkpt><trkpt lat="45.5504302" lon="9.5241157"><ele>135.0</ele><time>2026-04-15T12:59:21.104Z</time></trkpt><trkpt lat="45.550493" lon="9.5240768"><ele>135.0</ele><time>2026-04-15T12:59:22.103Z</time></trkpt><trkpt lat="45.5505622" lon="9.5240679"><ele>135.0</ele><time>2026-04-15T12:59:23.103Z</time></trkpt><trkpt lat="45.5506266" lon="9.5240654"><ele>135.0</ele><time>2026-04-15T12:59:24.103Z</time></trkpt><trkpt lat="45.5506919" lon="9.5240548"><ele>135.0</ele><time>2026-04-15T12:59:25.104Z</time></trkpt><trkpt lat="45.5507917" lon="9.5241065"><ele>135.2</ele><time>2026-04-15T12:59:26.104Z</time></trkpt><trkpt lat="45.5508829" lon="9.5241188"><ele>135.4</ele><time>2026-04-15T12:59:27.103Z</time></trkpt><trkpt lat="45.5509589" lon="9.5241257"><ele>135.6</ele><time>2026-04-15T12:59:28.103Z</time></trkpt><trkpt lat="45.5510983" lon="9.5240682"><ele>135.8</ele><time>2026-04-15T12:59:30.103Z</time></trkpt><trkpt lat="45.5511712" lon="9.5240822"><ele>136.0</ele><time>2026-04-15T12:59:31.104Z</time></trkpt><trkpt lat="45.5512489" lon="9.5240866"><ele>136.0</ele><time>2026-04-15T12:59:32.103Z</time></trkpt><trkpt lat="45.5513661" lon="9.5240414"><ele>136.0</ele><time>2026-04-15T12:59:34.103Z</time></trkpt><trkpt lat="45.5514453" lon="9.5240554"><ele>136.0</ele><time>2026-04-15T12:59:35.103Z</time></trkpt><trkpt lat="45.5515318" lon="9.5240871"><ele>136.0</ele><time>2026-04-15T12:59:36.103Z</time></trkpt><trkpt lat="45.5516152" lon="9.524081"><ele>136.0</ele><time>2026-04-15T12:59:37.103Z</time></trkpt><trkpt lat="45.5516886" lon="9.5240843"><ele>136.0</ele><time>2026-04-15T12:59:38.104Z</time></trkpt><trkpt lat="45.5517665" lon="9.5240536"><ele>136.0</ele><time>2026-04-15T12:59:39.103Z</time></trkpt><trkpt lat="45.5518425" lon="9.5240227"><ele>136.0</ele><time>2026-04-15T12:59:40.103Z</time></trkpt><trkpt lat="45.5519117" lon="9.5239831"><ele>136.0</ele><time>2026-04-15T12:59:41.104Z</time></trkpt><trkpt lat="45.5519881" lon="9.5239581"><ele>136.0</ele><time>2026-04-15T12:59:42.103Z</time></trkpt><trkpt lat="45.5520645" lon="9.5239173"><ele>136.0</ele><time>2026-04-15T12:59:43.103Z</time></trkpt><trkpt lat="45.5521407" lon="9.5238796"><ele>136.0</ele><time>2026-04-15T12:59:44.103Z</time></trkpt><trkpt lat="45.5522167" lon="9.5238299"><ele>135.33333333333334</ele><time>2026-04-15T12:59:45.103Z</time></trkpt><trkpt lat="45.552291" lon="9.5237959"><ele>134.66666666666669</ele><time>2026-04-15T12:59:46.103Z</time></trkpt><trkpt lat="45.5523689" lon="9.5237687"><ele>134.0</ele><time>2026-04-15T12:59:47.103Z</time></trkpt><trkpt lat="45.5524366" lon="9.5237121"><ele>133.33333333333334</ele><time>2026-04-15T12:59:48.103Z</time></trkpt><trkpt lat="45.5525161" lon="9.5236747"><ele>132.66666666666666</ele><time>2026-04-15T12:59:49.103Z</time></trkpt><trkpt lat="45.5525826" lon="9.5236398"><ele>132.0</ele><time>2026-04-15T12:59:50.104Z</time></trkpt><trkpt lat="45.5526608" lon="9.5236139"><ele>132.33333333333334</ele><time>2026-04-15T12:59:51.103Z</time></trkpt><trkpt lat="45.552733" lon="9.5235679"><ele>132.66666666666666</ele><time>2026-04-15T12:59:52.103Z</time></trkpt><trkpt lat="45.5527989" lon="9.5235149"><ele>133.0</ele><time>2026-04-15T12:59:53.103Z</time></trkpt><trkpt lat="45.5528649" lon="9.5234672"><ele>133.33333333333331</ele><time>2026-04-15T12:59:54.103Z</time></trkpt><trkpt lat="45.5529435" lon="9.5234152"><ele>133.66666666666666</ele><time>2026-04-15T12:59:55.104Z</time></trkpt><trkpt lat="45.5530093" lon="9.5233625"><ele>134.0</ele><time>2026-04-15T12:59:56.103Z</time></trkpt><trkpt lat="45.5530734" lon="9.5233088"><ele>134.0</ele><time>2026-04-15T12:59:57.104Z</time></trkpt><trkpt lat="45.5531559" lon="9.5232591"><ele>134.0</ele><time>2026-04-15T12:59:58.103Z</time></trkpt><trkpt lat="45.5532203" lon="9.5231989"><ele>134.0</ele><time>2026-04-15T12:59:59.103Z</time></trkpt><trkpt lat="45.5532791" lon="9.5231507"><ele>134.0</ele><time>2026-04-15T13:00:00.103Z</time></trkpt><trkpt lat="45.5533536" lon="9.5230972"><ele>134.0</ele><time>2026-04-15T13:00:01.103Z</time></trkpt><trkpt lat="45.5534192" lon="9.523046"><ele>134.0</ele><time>2026-04-15T13:00:02.104Z</time></trkpt><trkpt lat="45.5534827" lon="9.5229964"><ele>134.0</ele><time>2026-04-15T13:00:03.104Z</time></trkpt><trkpt lat="45.5535382" lon="9.5229447"><ele>134.0</ele><time>2026-04-15T13:00:04.103Z</time></trkpt><trkpt lat="45.5536052" lon="9.5228967"><ele>134.0</ele><time>2026-04-15T13:00:05.103Z</time></trkpt><trkpt lat="45.5536714" lon="9.5228372"><ele>134.0</ele><time>2026-04-15T13:00:06.103Z</time></trkpt><trkpt lat="45.5537345" lon="9.5227901"><ele>134.0</ele><time>2026-04-15T13:00:07.103Z</time></trkpt><trkpt lat="45.553795" lon="9.5227481"><ele>134.0</ele><time>2026-04-15T13:00:08.104Z</time></trkpt><trkpt lat="45.5538653" lon="9.5226886"><ele>134.0</ele><time>2026-04-15T13:00:09.104Z</time></trkpt><trkpt lat="45.5539318" lon="9.5226333"><ele>134.5</ele><time>2026-04-15T13:00:10.104Z</time></trkpt><trkpt lat="45.5539987" lon="9.5225805"><ele>135.0</ele><time>2026-04-15T13:00:11.104Z</time></trkpt><trkpt lat="45.5540681" lon="9.5225261"><ele>135.5</ele><time>2026-04-15T13:00:12.103Z</time></trkpt><trkpt lat="45.5541354" lon="9.5224736"><ele>136.0</ele><time>2026-04-15T13:00:13.103Z</time></trkpt><trkpt lat="45.5542087" lon="9.5224222"><ele>136.5</ele><time>2026-04-15T13:00:14.103Z</time></trkpt><trkpt lat="45.5542804" lon="9.5223783"><ele>137.0</ele><time>2026-04-15T13:00:15.104Z</time></trkpt><trkpt lat="45.5543568" lon="9.522331"><ele>137.0</ele><time>2026-04-15T13:00:16.104Z</time></trkpt><trkpt lat="45.5544346" lon="9.5223042"><ele>137.0</ele><time>2026-04-15T13:00:17.103Z</time></trkpt><trkpt lat="45.5545107" lon="9.52227"><ele>137.0</ele><time>2026-04-15T13:00:18.104Z</time></trkpt><trkpt lat="45.554584" lon="9.5222532"><ele>137.0</ele><time>2026-04-15T13:00:19.103Z</time></trkpt><trkpt lat="45.5546557" lon="9.5222339"><ele>137.0</ele><time>2026-04-15T13:00:20.103Z</time></trkpt><trkpt lat="45.5547336" lon="9.5222157"><ele>137.0</ele><time>2026-04-15T13:00:21.103Z</time></trkpt><trkpt lat="45.5548151" lon="9.5222075"><ele>136.5</ele><time>2026-04-15T13:00:22.104Z</time></trkpt><trkpt lat="45.5548864" lon="9.5221927"><ele>136.0</ele><time>2026-04-15T13:00:23.103Z</time></trkpt><trkpt lat="45.5549564" lon="9.5221812"><ele>135.5</ele><time>2026-04-15T13:00:24.104Z</time></trkpt><trkpt lat="45.5550473" lon="9.5221716"><ele>135.0</ele><time>2026-04-15T13:00:25.103Z</time></trkpt><trkpt lat="45.5551294" lon="9.5221559"><ele>134.5</ele><time>2026-04-15T13:00:26.103Z</time></trkpt><trkpt lat="45.5551958" lon="9.5221485"><ele>134.0</ele><time>2026-04-15T13:00:27.104Z</time></trkpt><trkpt lat="45.5552769" lon="9.5221476"><ele>134.0</ele><time>2026-04-15T13:00:28.103Z</time></trkpt><trkpt lat="45.5553534" lon="9.5221401"><ele>134.0</ele><time>2026-04-15T13:00:29.104Z</time></trkpt><trkpt lat="45.5554302" lon="9.5221388"><ele>134.0</ele><time>2026-04-15T13:00:30.104Z</time></trkpt><trkpt lat="45.5555061" lon="9.5221262"><ele>134.0</ele><time>2026-04-15T13:00:31.103Z</time></trkpt><trkpt lat="45.5555802" lon="9.5221056"><ele>134.0</ele><time>2026-04-15T13:00:32.103Z</time></trkpt><trkpt lat="45.5556636" lon="9.5221067"><ele>134.0</ele><time>2026-04-15T13:00:33.103Z</time></trkpt><trkpt lat="45.5557392" lon="9.5220908"><ele>135.66666666666666</ele><time>2026-04-15T13:00:34.103Z</time></trkpt><trkpt lat="45.5558029" lon="9.5220482"><ele>137.33333333333331</ele><time>2026-04-15T13:00:35.104Z</time></trkpt><trkpt lat="45.5558687" lon="9.5220032"><ele>139.0</ele><time>2026-04-15T13:00:36.103Z</time></trkpt><trkpt lat="45.5559365" lon="9.5219616"><ele>140.66666666666666</ele><time>2026-04-15T13:00:37.104Z</time></trkpt><trkpt lat="45.556005" lon="9.521905"><ele>142.33333333333334</ele><time>2026-04-15T13:00:38.104Z</time></trkpt><trkpt lat="45.5560791" lon="9.5218511"><ele>144.0</ele><time>2026-04-15T13:00:39.104Z</time></trkpt><trkpt lat="45.5561494" lon="9.5217881"><ele>142.66666666666666</ele><time>2026-04-15T13:00:40.103Z</time></trkpt><trkpt lat="45.5562161" lon="9.521733"><ele>141.33333333333334</ele><time>2026-04-15T13:00:41.103Z</time></trkpt><trkpt lat="45.5562799" lon="9.5216704"><ele>140.0</ele><time>2026-04-15T13:00:42.104Z</time></trkpt><trkpt lat="45.5563408" lon="9.5216024"><ele>138.66666666666669</ele><time>2026-04-15T13:00:43.103Z</time></trkpt><trkpt lat="45.5564102" lon="9.5215478"><ele>137.33333333333334</ele><time>2026-04-15T13:00:44.103Z</time></trkpt><trkpt lat="45.5564672" lon="9.5214831"><ele>136.0</ele><time>2026-04-15T13:00:45.104Z</time></trkpt><trkpt lat="45.5565218" lon="9.5214063"><ele>136.0</ele><time>2026-04-15T13:00:46.103Z</time></trkpt><trkpt lat="45.556584" lon="9.5213385"><ele>136.0</ele><time>2026-04-15T13:00:47.103Z</time></trkpt><trkpt lat="45.5566966" lon="9.5212182"><ele>136.0</ele><time>2026-04-15T13:00:49.103Z</time></trkpt><trkpt lat="45.5567396" lon="9.521127"><ele>136.0</ele><time>2026-04-15T13:00:50.103Z</time></trkpt><trkpt lat="45.5567975" lon="9.5210336"><ele>136.0</ele><time>2026-04-15T13:00:51.104Z</time></trkpt><trkpt lat="45.5568427" lon="9.5209495"><ele>135.66666666666669</ele><time>2026-04-15T13:00:52.103Z</time></trkpt><trkpt lat="45.5568811" lon="9.5208573"><ele>135.33333333333334</ele><time>2026-04-15T13:00:53.103Z</time></trkpt><trkpt lat="45.5569183" lon="9.5207762"><ele>135.0</ele><time>2026-04-15T13:00:54.104Z</time></trkpt><trkpt lat="45.5569675" lon="9.5207079"><ele>134.66666666666666</ele><time>2026-04-15T13:00:55.103Z</time></trkpt><trkpt lat="45.5570432" lon="9.520603"><ele>134.33333333333331</ele><time>2026-04-15T13:00:56.104Z</time></trkpt><trkpt lat="45.5570965" lon="9.5205405"><ele>134.0</ele><time>2026-04-15T13:00:57.104Z</time></trkpt><trkpt lat="45.5571514" lon="9.5204596"><ele>135.0</ele><time>2026-04-15T13:00:58.104Z</time></trkpt><trkpt lat="45.5572084" lon="9.5203853"><ele>136.0</ele><time>2026-04-15T13:00:59.103Z</time></trkpt><trkpt lat="45.5572762" lon="9.5203115"><ele>137.0</ele><time>2026-04-15T13:01:00.103Z</time></trkpt><trkpt lat="45.5573425" lon="9.5202539"><ele>138.0</ele><time>2026-04-15T13:01:01.104Z</time></trkpt><trkpt lat="45.5573973" lon="9.520183"><ele>139.0</ele><time>2026-04-15T13:01:02.104Z</time></trkpt><trkpt lat="45.5574579" lon="9.5201063"><ele>140.0</ele><time>2026-04-15T13:01:03.104Z</time></trkpt><trkpt lat="45.5575093" lon="9.520038"><ele>140.0</ele><time>2026-04-15T13:01:04.103Z</time></trkpt><trkpt lat="45.5575646" lon="9.5199895"><ele>140.0</ele><time>2026-04-15T13:01:05.103Z</time></trkpt><trkpt lat="45.5576514" lon="9.5199478"><ele>140.0</ele><time>2026-04-15T13:01:06.104Z</time></trkpt><trkpt lat="45.5577319" lon="9.5199214"><ele>140.0</ele><time>2026-04-15T13:01:07.103Z</time></trkpt><trkpt lat="45.5578094" lon="9.5198743"><ele>140.0</ele><time>2026-04-15T13:01:08.103Z</time></trkpt><trkpt lat="45.5578871" lon="9.519831"><ele>140.0</ele><time>2026-04-15T13:01:09.104Z</time></trkpt><trkpt lat="45.5579645" lon="9.5197904"><ele>139.2</ele><time>2026-04-15T13:01:10.103Z</time></trkpt><trkpt lat="45.5580475" lon="9.5197507"><ele>138.4</ele><time>2026-04-15T13:01:11.103Z</time></trkpt><trkpt lat="45.558155" lon="9.5197232"><ele>137.6</ele><time>2026-04-15T13:01:12.103Z</time></trkpt><trkpt lat="45.5582422" lon="9.5197114"><ele>136.8</ele><time>2026-04-15T13:01:13.104Z</time></trkpt><trkpt lat="45.5583269" lon="9.5196895"><ele>136.0</ele><time>2026-04-15T13:01:14.103Z</time></trkpt><trkpt lat="45.5584073" lon="9.5196731"><ele>136.0</ele><time>2026-04-15T13:01:15.103Z</time></trkpt><trkpt lat="45.558479" lon="9.519665"><ele>136.0</ele><time>2026-04-15T13:01:16.103Z</time></trkpt><trkpt lat="45.5585648" lon="9.5196611"><ele>136.0</ele><time>2026-04-15T13:01:17.103Z</time></trkpt><trkpt lat="45.5586397" lon="9.5196306"><ele>136.0</ele><time>2026-04-15T13:01:18.103Z</time></trkpt><trkpt lat="45.5587349" lon="9.5195656"><ele>136.0</ele><time>2026-04-15T13:01:20.103Z</time></trkpt><trkpt lat="45.5588367" lon="9.5196284"><ele>136.0</ele><time>2026-04-15T13:01:21.103Z</time></trkpt><trkpt lat="45.5589294" lon="9.5196695"><ele>136.0</ele><time>2026-04-15T13:01:22.103Z</time></trkpt><trkpt lat="45.5590158" lon="9.5196751"><ele>136.0</ele><time>2026-04-15T13:01:23.103Z</time></trkpt><trkpt lat="45.5590923" lon="9.5196995"><ele>136.0</ele><time>2026-04-15T13:01:24.103Z</time></trkpt><trkpt lat="45.5591741" lon="9.5197318"><ele>136.0</ele><time>2026-04-15T13:01:25.104Z</time></trkpt><trkpt lat="45.5592521" lon="9.5197707"><ele>136.0</ele><time>2026-04-15T13:01:26.103Z</time></trkpt><trkpt lat="45.5593506" lon="9.5198303"><ele>136.0</ele><time>2026-04-15T13:01:27.104Z</time></trkpt><trkpt lat="45.5594203" lon="9.5198658"><ele>136.0</ele><time>2026-04-15T13:01:28.103Z</time></trkpt><trkpt lat="45.5594925" lon="9.5199216"><ele>136.0</ele><time>2026-04-15T13:01:29.104Z</time></trkpt><trkpt lat="45.559571" lon="9.5199593"><ele>136.0</ele><time>2026-04-15T13:01:30.104Z</time></trkpt><trkpt lat="45.5596425" lon="9.5200149"><ele>136.0</ele><time>2026-04-15T13:01:31.103Z</time></trkpt><trkpt lat="45.5597144" lon="9.5200599"><ele>136.0</ele><time>2026-04-15T13:01:32.103Z</time></trkpt><trkpt lat="45.5597932" lon="9.520104"><ele>135.33333333333334</ele><time>2026-04-15T13:01:33.103Z</time></trkpt><trkpt lat="45.5598754" lon="9.5201838"><ele>134.66666666666669</ele><time>2026-04-15T13:01:34.103Z</time></trkpt><trkpt lat="45.5599401" lon="9.520247"><ele>134.0</ele><time>2026-04-15T13:01:35.103Z</time></trkpt><trkpt lat="45.5600128" lon="9.5203178"><ele>133.33333333333334</ele><time>2026-04-15T13:01:36.104Z</time></trkpt><trkpt lat="45.5600797" lon="9.5203844"><ele>132.66666666666666</ele><time>2026-04-15T13:01:37.103Z</time></trkpt><trkpt lat="45.5601549" lon="9.5204484"><ele>132.0</ele><time>2026-04-15T13:01:38.103Z</time></trkpt><trkpt lat="45.5602171" lon="9.5205077"><ele>132.0</ele><time>2026-04-15T13:01:39.103Z</time></trkpt><trkpt lat="45.5602927" lon="9.5205841"><ele>132.0</ele><time>2026-04-15T13:01:40.104Z</time></trkpt><trkpt lat="45.5603599" lon="9.5206451"><ele>132.0</ele><time>2026-04-15T13:01:41.103Z</time></trkpt><trkpt lat="45.5604187" lon="9.5207107"><ele>132.0</ele><time>2026-04-15T13:01:42.104Z</time></trkpt><trkpt lat="45.560489" lon="9.5207736"><ele>132.0</ele><time>2026-04-15T13:01:43.104Z</time></trkpt><trkpt lat="45.5605658" lon="9.5208374"><ele>132.0</ele><time>2026-04-15T13:01:44.103Z</time></trkpt><trkpt lat="45.5606433" lon="9.5208989"><ele>131.5</ele><time>2026-04-15T13:01:45.104Z</time></trkpt><trkpt lat="45.5607323" lon="9.5209555"><ele>131.0</ele><time>2026-04-15T13:01:46.104Z</time></trkpt><trkpt lat="45.5608052" lon="9.5210059"><ele>130.5</ele><time>2026-04-15T13:01:47.103Z</time></trkpt><trkpt lat="45.5608711" lon="9.5210653"><ele>130.0</ele><time>2026-04-15T13:01:48.104Z</time></trkpt><trkpt lat="45.5609434" lon="9.5211118"><ele>129.5</ele><time>2026-04-15T13:01:49.104Z</time></trkpt><trkpt lat="45.5610154" lon="9.5211814"><ele>129.0</ele><time>2026-04-15T13:01:50.103Z</time></trkpt><trkpt lat="45.5610826" lon="9.5212353"><ele>129.0</ele><time>2026-04-15T13:01:51.104Z</time></trkpt><trkpt lat="45.5611525" lon="9.5213011"><ele>129.0</ele><time>2026-04-15T13:01:52.103Z</time></trkpt><trkpt lat="45.5612131" lon="9.5213605"><ele>129.0</ele><time>2026-04-15T13:01:53.103Z</time></trkpt><trkpt lat="45.5612827" lon="9.5214192"><ele>129.0</ele><time>2026-04-15T13:01:54.104Z</time></trkpt><trkpt lat="45.5613499" lon="9.5214727"><ele>129.0</ele><time>2026-04-15T13:01:55.103Z</time></trkpt><trkpt lat="45.5614181" lon="9.5215274"><ele>129.0</ele><time>2026-04-15T13:01:56.104Z</time></trkpt><trkpt lat="45.5614882" lon="9.5215917"><ele>130.33333333333334</ele><time>2026-04-15T13:01:57.103Z</time></trkpt><trkpt lat="45.5615565" lon="9.5216442"><ele>131.66666666666666</ele><time>2026-04-15T13:01:58.104Z</time></trkpt><trkpt lat="45.5616241" lon="9.5217045"><ele>133.0</ele><time>2026-04-15T13:01:59.103Z</time></trkpt><trkpt lat="45.5616925" lon="9.5217606"><ele>134.33333333333331</ele><time>2026-04-15T13:02:00.103Z</time></trkpt><trkpt lat="45.5617642" lon="9.5218243"><ele>135.66666666666666</ele><time>2026-04-15T13:02:01.103Z</time></trkpt><trkpt lat="45.561829" lon="9.5218773"><ele>137.0</ele><time>2026-04-15T13:02:02.103Z</time></trkpt><trkpt lat="45.5618964" lon="9.5219295"><ele>137.0</ele><time>2026-04-15T13:02:03.103Z</time></trkpt><trkpt lat="45.5619698" lon="9.5219962"><ele>137.0</ele><time>2026-04-15T13:02:04.103Z</time></trkpt><trkpt lat="45.5620508" lon="9.5220479"><ele>137.0</ele><time>2026-04-15T13:02:05.103Z</time></trkpt><trkpt lat="45.5621354" lon="9.5221137"><ele>137.0</ele><time>2026-04-15T13:02:06.104Z</time></trkpt><trkpt lat="45.5622153" lon="9.5221816"><ele>137.0</ele><time>2026-04-15T13:02:07.103Z</time></trkpt><trkpt lat="45.5623259" lon="9.5223105"><ele>137.16666666666666</ele><time>2026-04-15T13:02:09.103Z</time></trkpt><trkpt lat="45.5623771" lon="9.5223817"><ele>137.33333333333331</ele><time>2026-04-15T13:02:10.103Z</time></trkpt><trkpt lat="45.5624374" lon="9.5224563"><ele>137.5</ele><time>2026-04-15T13:02:11.103Z</time></trkpt><trkpt lat="45.5625042" lon="9.5225214"><ele>137.66666666666666</ele><time>2026-04-15T13:02:12.104Z</time></trkpt><trkpt lat="45.5625632" lon="9.5225912"><ele>137.83333333333334</ele><time>2026-04-15T13:02:13.103Z</time></trkpt><trkpt lat="45.5626275" lon="9.5226739"><ele>138.0</ele><time>2026-04-15T13:02:14.104Z</time></trkpt><trkpt lat="45.5626926" lon="9.5227785"><ele>138.0</ele><time>2026-04-15T13:02:15.103Z</time></trkpt><trkpt lat="45.5627538" lon="9.5228324"><ele>138.0</ele><time>2026-04-15T13:02:16.104Z</time></trkpt><trkpt lat="45.5628047" lon="9.5229078"><ele>138.0</ele><time>2026-04-15T13:02:17.103Z</time></trkpt><trkpt lat="45.5628569" lon="9.5229794"><ele>138.0</ele><time>2026-04-15T13:02:18.103Z</time></trkpt><trkpt lat="45.5629252" lon="9.5230601"><ele>138.0</ele><time>2026-04-15T13:02:19.103Z</time></trkpt><trkpt lat="45.5629883" lon="9.5231402"><ele>138.0</ele><time>2026-04-15T13:02:20.103Z</time></trkpt><trkpt lat="45.5630484" lon="9.5232088"><ele>138.33333333333334</ele><time>2026-04-15T13:02:21.103Z</time></trkpt><trkpt lat="45.5631148" lon="9.5232882"><ele>138.66666666666666</ele><time>2026-04-15T13:02:22.103Z</time></trkpt><trkpt lat="45.5631748" lon="9.5233721"><ele>139.0</ele><time>2026-04-15T13:02:23.103Z</time></trkpt><trkpt lat="45.5632419" lon="9.5234528"><ele>139.33333333333331</ele><time>2026-04-15T13:02:24.103Z</time></trkpt><trkpt lat="45.5632974" lon="9.5235378"><ele>139.66666666666666</ele><time>2026-04-15T13:02:25.103Z</time></trkpt><trkpt lat="45.5633558" lon="9.5236244"><ele>140.0</ele><time>2026-04-15T13:02:26.103Z</time></trkpt><trkpt lat="45.5634049" lon="9.5237143"><ele>140.16666666666666</ele><time>2026-04-15T13:02:27.103Z</time></trkpt><trkpt lat="45.5634595" lon="9.5237969"><ele>140.33333333333331</ele><time>2026-04-15T13:02:28.103Z</time></trkpt><trkpt lat="45.5635212" lon="9.5238723"><ele>140.5</ele><time>2026-04-15T13:02:29.103Z</time></trkpt><trkpt lat="45.5635888" lon="9.5239526"><ele>140.66666666666666</ele><time>2026-04-15T13:02:30.104Z</time></trkpt><trkpt lat="45.5636556" lon="9.5240082"><ele>140.83333333333334</ele><time>2026-04-15T13:02:31.103Z</time></trkpt><trkpt lat="45.5637228" lon="9.5240628"><ele>141.0</ele><time>2026-04-15T13:02:32.103Z</time></trkpt><trkpt lat="45.5638004" lon="9.5240979"><ele>141.0</ele><time>2026-04-15T13:02:33.104Z</time></trkpt><trkpt lat="45.563881" lon="9.5241376"><ele>141.0</ele><time>2026-04-15T13:02:34.103Z</time></trkpt><trkpt lat="45.5639682" lon="9.5241602"><ele>141.0</ele><time>2026-04-15T13:02:35.103Z</time></trkpt><trkpt lat="45.5640336" lon="9.5241889"><ele>141.0</ele><time>2026-04-15T13:02:36.103Z</time></trkpt><trkpt lat="45.5640966" lon="9.5241696"><ele>141.0</ele><time>2026-04-15T13:02:37.103Z</time></trkpt><trkpt lat="45.564182" lon="9.5241232"><ele>141.0</ele><time>2026-04-15T13:02:38.103Z</time></trkpt><trkpt lat="45.5642594" lon="9.5241259"><ele>141.0</ele><time>2026-04-15T13:02:39.103Z</time></trkpt><trkpt lat="45.5643277" lon="9.5241278"><ele>141.0</ele><time>2026-04-15T13:02:40.104Z</time></trkpt><trkpt lat="45.5643975" lon="9.5241058"><ele>141.0</ele><time>2026-04-15T13:02:41.103Z</time></trkpt><trkpt lat="45.5644887" lon="9.5240783"><ele>141.0</ele><time>2026-04-15T13:02:42.104Z</time></trkpt><trkpt lat="45.5645697" lon="9.5240537"><ele>141.0</ele><time>2026-04-15T13:02:43.103Z</time></trkpt><trkpt lat="45.5646569" lon="9.5239928"><ele>141.0</ele><time>2026-04-15T13:02:44.104Z</time></trkpt><trkpt lat="45.5647348" lon="9.5240276"><ele>141.2</ele><time>2026-04-15T13:02:45.103Z</time></trkpt><trkpt lat="45.564833" lon="9.5240502"><ele>141.39999999999998</ele><time>2026-04-15T13:02:46.103Z</time></trkpt><trkpt lat="45.5649176" lon="9.524105"><ele>141.6</ele><time>2026-04-15T13:02:47.103Z</time></trkpt><trkpt lat="45.5650714" lon="9.5241582"><ele>141.79999999999998</ele><time>2026-04-15T13:02:49.104Z</time></trkpt><trkpt lat="45.5651456" lon="9.5241813"><ele>142.0</ele><time>2026-04-15T13:02:50.104Z</time></trkpt><trkpt lat="45.5652329" lon="9.5242268"><ele>142.0</ele><time>2026-04-15T13:02:51.103Z</time></trkpt><trkpt lat="45.5653093" lon="9.5242359"><ele>142.0</ele><time>2026-04-15T13:02:52.104Z</time></trkpt><trkpt lat="45.5653891" lon="9.5242405"><ele>142.0</ele><time>2026-04-15T13:02:53.103Z</time></trkpt><trkpt lat="45.5654813" lon="9.524285"><ele>142.0</ele><time>2026-04-15T13:02:54.103Z</time></trkpt><trkpt lat="45.5655606" lon="9.5243308"><ele>142.0</ele><time>2026-04-15T13:02:55.103Z</time></trkpt><trkpt lat="45.5656253" lon="9.5243619"><ele>142.0</ele><time>2026-04-15T13:02:56.103Z</time></trkpt><trkpt lat="45.5657085" lon="9.5243947"><ele>142.5</ele><time>2026-04-15T13:02:57.103Z</time></trkpt><trkpt lat="45.5657806" lon="9.5244251"><ele>143.0</ele><time>2026-04-15T13:02:58.104Z</time></trkpt><trkpt lat="45.5658719" lon="9.5244641"><ele>143.5</ele><time>2026-04-15T13:02:59.103Z</time></trkpt><trkpt lat="45.5659376" lon="9.5245034"><ele>144.0</ele><time>2026-04-15T13:03:00.103Z</time></trkpt><trkpt lat="45.566017" lon="9.5245409"><ele>144.5</ele><time>2026-04-15T13:03:01.104Z</time></trkpt><trkpt lat="45.5660985" lon="9.5245642"><ele>145.0</ele><time>2026-04-15T13:03:02.104Z</time></trkpt><trkpt lat="45.5661743" lon="9.5245892"><ele>144.14285714285714</ele><time>2026-04-15T13:03:03.103Z</time></trkpt><trkpt lat="45.5662487" lon="9.5246261"><ele>143.2857142857143</ele><time>2026-04-15T13:03:04.104Z</time></trkpt><trkpt lat="45.5663133" lon="9.5246457"><ele>142.42857142857144</ele><time>2026-04-15T13:03:05.104Z</time></trkpt><trkpt lat="45.5663894" lon="9.5246725"><ele>141.57142857142858</ele><time>2026-04-15T13:03:06.104Z</time></trkpt><trkpt lat="45.5664564" lon="9.5246985"><ele>140.71428571428572</ele><time>2026-04-15T13:03:07.103Z</time></trkpt><trkpt lat="45.566528" lon="9.5247272"><ele>139.85714285714286</ele><time>2026-04-15T13:03:08.104Z</time></trkpt><trkpt lat="45.5666008" lon="9.5247439"><ele>139.0</ele><time>2026-04-15T13:03:09.104Z</time></trkpt><trkpt lat="45.5666757" lon="9.5247802"><ele>139.0</ele><time>2026-04-15T13:03:10.103Z</time></trkpt><trkpt lat="45.5667437" lon="9.5248069"><ele>139.0</ele><time>2026-04-15T13:03:11.103Z</time></trkpt><trkpt lat="45.5668226" lon="9.5248653"><ele>139.0</ele><time>2026-04-15T13:03:12.104Z</time></trkpt><trkpt lat="45.5668943" lon="9.5249125"><ele>139.0</ele><time>2026-04-15T13:03:13.103Z</time></trkpt><trkpt lat="45.5669719" lon="9.5249672"><ele>139.0</ele><time>2026-04-15T13:03:14.103Z</time></trkpt><trkpt lat="45.5670518" lon="9.5250119"><ele>139.0</ele><time>2026-04-15T13:03:15.103Z</time></trkpt><trkpt lat="45.5671247" lon="9.5250591"><ele>140.5</ele><time>2026-04-15T13:03:16.103Z</time></trkpt><trkpt lat="45.5672" lon="9.5251146"><ele>142.0</ele><time>2026-04-15T13:03:17.103Z</time></trkpt><trkpt lat="45.5672797" lon="9.5251671"><ele>143.5</ele><time>2026-04-15T13:03:18.103Z</time></trkpt><trkpt lat="45.5673488" lon="9.5252045"><ele>145.0</ele><time>2026-04-15T13:03:19.103Z</time></trkpt><trkpt lat="45.5674155" lon="9.5252547"><ele>146.5</ele><time>2026-04-15T13:03:20.103Z</time></trkpt><trkpt lat="45.5675009" lon="9.5253085"><ele>148.0</ele><time>2026-04-15T13:03:21.103Z</time></trkpt><trkpt lat="45.5675763" lon="9.5253483"><ele>146.66666666666669</ele><time>2026-04-15T13:03:22.103Z</time></trkpt><trkpt lat="45.5676552" lon="9.5253978"><ele>145.33333333333334</ele><time>2026-04-15T13:03:23.103Z</time></trkpt><trkpt lat="45.5677328" lon="9.5254318"><ele>144.0</ele><time>2026-04-15T13:03:24.104Z</time></trkpt><trkpt lat="45.5678021" lon="9.5254618"><ele>142.66666666666666</ele><time>2026-04-15T13:03:25.103Z</time></trkpt><trkpt lat="45.5678873" lon="9.5255089"><ele>141.33333333333331</ele><time>2026-04-15T13:03:26.103Z</time></trkpt><trkpt lat="45.5679722" lon="9.5255431"><ele>140.0</ele><time>2026-04-15T13:03:27.103Z</time></trkpt><trkpt lat="45.5680539" lon="9.5255747"><ele>140.0</ele><time>2026-04-15T13:03:28.104Z</time></trkpt><trkpt lat="45.5681366" lon="9.5255976"><ele>140.0</ele><time>2026-04-15T13:03:29.104Z</time></trkpt><trkpt lat="45.5682104" lon="9.5256309"><ele>140.0</ele><time>2026-04-15T13:03:30.103Z</time></trkpt><trkpt lat="45.5683006" lon="9.5256515"><ele>140.0</ele><time>2026-04-15T13:03:31.103Z</time></trkpt><trkpt lat="45.5683869" lon="9.5256561"><ele>140.0</ele><time>2026-04-15T13:03:32.104Z</time></trkpt><trkpt lat="45.568469" lon="9.5256831"><ele>140.0</ele><time>2026-04-15T13:03:33.103Z</time></trkpt><trkpt lat="45.5685382" lon="9.5256956"><ele>140.0</ele><time>2026-04-15T13:03:34.103Z</time></trkpt><trkpt lat="45.5686034" lon="9.5256914"><ele>140.0</ele><time>2026-04-15T13:03:35.104Z</time></trkpt><trkpt lat="45.5686841" lon="9.5257155"><ele>140.0</ele><time>2026-04-15T13:03:36.103Z</time></trkpt><trkpt lat="45.5687516" lon="9.5257326"><ele>140.0</ele><time>2026-04-15T13:03:37.103Z</time></trkpt><trkpt lat="45.5688463" lon="9.5257307"><ele>140.0</ele><time>2026-04-15T13:03:38.103Z</time></trkpt><trkpt lat="45.5689207" lon="9.5257169"><ele>140.0</ele><time>2026-04-15T13:03:39.103Z</time></trkpt><trkpt lat="45.568995" lon="9.5257242"><ele>140.33333333333331</ele><time>2026-04-15T13:03:40.103Z</time></trkpt><trkpt lat="45.5690927" lon="9.5256922"><ele>140.66666666666666</ele><time>2026-04-15T13:03:41.104Z</time></trkpt><trkpt lat="45.5691723" lon="9.5256911"><ele>141.0</ele><time>2026-04-15T13:03:42.103Z</time></trkpt><trkpt lat="45.569248" lon="9.5257119"><ele>141.33333333333334</ele><time>2026-04-15T13:03:43.103Z</time></trkpt><trkpt lat="45.5693166" lon="9.5257162"><ele>141.66666666666669</ele><time>2026-04-15T13:03:44.104Z</time></trkpt><trkpt lat="45.5693996" lon="9.5257022"><ele>142.0</ele><time>2026-04-15T13:03:45.103Z</time></trkpt><trkpt lat="45.5694672" lon="9.5256888"><ele>142.66666666666669</ele><time>2026-04-15T13:03:46.104Z</time></trkpt><trkpt lat="45.5695428" lon="9.5257043"><ele>143.33333333333334</ele><time>2026-04-15T13:03:47.103Z</time></trkpt><trkpt lat="45.5696376" lon="9.5257164"><ele>144.0</ele><time>2026-04-15T13:03:48.103Z</time></trkpt><trkpt lat="45.5697372" lon="9.5257655"><ele>144.66666666666666</ele><time>2026-04-15T13:03:49.104Z</time></trkpt><trkpt lat="45.5698053" lon="9.5257896"><ele>145.33333333333331</ele><time>2026-04-15T13:03:50.103Z</time></trkpt><trkpt lat="45.569876" lon="9.5258145"><ele>146.0</ele><time>2026-04-15T13:03:51.103Z</time></trkpt><trkpt lat="45.5699685" lon="9.5258269"><ele>146.0</ele><time>2026-04-15T13:03:52.103Z</time></trkpt><trkpt lat="45.5700407" lon="9.5258417"><ele>146.0</ele><time>2026-04-15T13:03:53.103Z</time></trkpt><trkpt lat="45.5701188" lon="9.525896"><ele>146.0</ele><time>2026-04-15T13:03:54.103Z</time></trkpt><trkpt lat="45.570202" lon="9.525885"><ele>146.0</ele><time>2026-04-15T13:03:55.103Z</time></trkpt><trkpt lat="45.5702726" lon="9.5259497"><ele>146.0</ele><time>2026-04-15T13:03:56.103Z</time></trkpt><trkpt lat="45.570402" lon="9.5259479"><ele>147.0</ele><time>2026-04-15T13:03:58.103Z</time></trkpt><trkpt lat="45.57048" lon="9.5260046"><ele>148.0</ele><time>2026-04-15T13:03:59.103Z</time></trkpt><trkpt lat="45.5705551" lon="9.52603"><ele>149.0</ele><time>2026-04-15T13:04:00.103Z</time></trkpt><trkpt lat="45.5706615" lon="9.5260662"><ele>150.0</ele><time>2026-04-15T13:04:01.103Z</time></trkpt><trkpt lat="45.5707463" lon="9.5261013"><ele>151.0</ele><time>2026-04-15T13:04:02.104Z</time></trkpt><trkpt lat="45.5708131" lon="9.5261334"><ele>152.0</ele><time>2026-04-15T13:04:03.103Z</time></trkpt><trkpt lat="45.570898" lon="9.5262215"><ele>151.79999999999998</ele><time>2026-04-15T13:04:04.103Z</time></trkpt><trkpt lat="45.5709684" lon="9.5262814"><ele>151.6</ele><time>2026-04-15T13:04:05.103Z</time></trkpt><trkpt lat="45.5710393" lon="9.5263421"><ele>151.39999999999998</ele><time>2026-04-15T13:04:06.103Z</time></trkpt><trkpt lat="45.5711024" lon="9.5263928"><ele>151.2</ele><time>2026-04-15T13:04:07.103Z</time></trkpt><trkpt lat="45.5712247" lon="9.5264917"><ele>151.0</ele><time>2026-04-15T13:04:09.103Z</time></trkpt><trkpt lat="45.5712874" lon="9.526544"><ele>151.0</ele><time>2026-04-15T13:04:10.104Z</time></trkpt><trkpt lat="45.571366" lon="9.5266107"><ele>151.0</ele><time>2026-04-15T13:04:11.103Z</time></trkpt><trkpt lat="45.5714352" lon="9.5266706"><ele>151.0</ele><time>2026-04-15T13:04:12.104Z</time></trkpt><trkpt lat="45.5715103" lon="9.5267326"><ele>151.0</ele><time>2026-04-15T13:04:13.103Z</time></trkpt><trkpt lat="45.5715922" lon="9.5268094"><ele>151.0</ele><time>2026-04-15T13:04:14.103Z</time></trkpt><trkpt lat="45.5716681" lon="9.5268562"><ele>151.0</ele><time>2026-04-15T13:04:15.104Z</time></trkpt><trkpt lat="45.5717361" lon="9.5269133"><ele>151.0</ele><time>2026-04-15T13:04:16.104Z</time></trkpt><trkpt lat="45.5718013" lon="9.5269704"><ele>151.0</ele><time>2026-04-15T13:04:17.103Z</time></trkpt><trkpt lat="45.5718708" lon="9.5270302"><ele>151.0</ele><time>2026-04-15T13:04:18.103Z</time></trkpt><trkpt lat="45.5719481" lon="9.5271144"><ele>151.0</ele><time>2026-04-15T13:04:19.103Z</time></trkpt><trkpt lat="45.5720259" lon="9.5271824"><ele>151.0</ele><time>2026-04-15T13:04:20.104Z</time></trkpt><trkpt lat="45.5720923" lon="9.5272606"><ele>151.0</ele><time>2026-04-15T13:04:21.103Z</time></trkpt><trkpt lat="45.5721567" lon="9.5273201"><ele>150.8</ele><time>2026-04-15T13:04:22.103Z</time></trkpt><trkpt lat="45.5722221" lon="9.5273965"><ele>150.6</ele><time>2026-04-15T13:04:23.104Z</time></trkpt><trkpt lat="45.5723086" lon="9.5274797"><ele>150.4</ele><time>2026-04-15T13:04:24.103Z</time></trkpt><trkpt lat="45.5724125" lon="9.527576"><ele>150.2</ele><time>2026-04-15T13:04:25.103Z</time></trkpt><trkpt lat="45.5724546" lon="9.5276471"><ele>150.0</ele><time>2026-04-15T13:04:26.104Z</time></trkpt><trkpt lat="45.5725059" lon="9.5277293"><ele>150.0</ele><time>2026-04-15T13:04:27.104Z</time></trkpt><trkpt lat="45.5725601" lon="9.5278083"><ele>150.0</ele><time>2026-04-15T13:04:28.103Z</time></trkpt><trkpt lat="45.5726202" lon="9.5278882"><ele>150.0</ele><time>2026-04-15T13:04:29.103Z</time></trkpt><trkpt lat="45.5726899" lon="9.5279726"><ele>150.0</ele><time>2026-04-15T13:04:30.104Z</time></trkpt><trkpt lat="45.5727368" lon="9.5280436"><ele>150.0</ele><time>2026-04-15T13:04:31.104Z</time></trkpt><trkpt lat="45.5728025" lon="9.5281145"><ele>150.0</ele><time>2026-04-15T13:04:32.103Z</time></trkpt><trkpt lat="45.5728676" lon="9.5281752"><ele>150.83333333333334</ele><time>2026-04-15T13:04:33.103Z</time></trkpt><trkpt lat="45.5729251" lon="9.528231"><ele>151.66666666666666</ele><time>2026-04-15T13:04:34.104Z</time></trkpt><trkpt lat="45.5729933" lon="9.5283207"><ele>152.5</ele><time>2026-04-15T13:04:35.103Z</time></trkpt><trkpt lat="45.5730527" lon="9.5283818"><ele>153.33333333333331</ele><time>2026-04-15T13:04:36.103Z</time></trkpt><trkpt lat="45.5731184" lon="9.5284416"><ele>154.16666666666666</ele><time>2026-04-15T13:04:37.103Z</time></trkpt><trkpt lat="45.5731917" lon="9.5285024"><ele>155.0</ele><time>2026-04-15T13:04:38.103Z</time></trkpt><trkpt lat="45.5732599" lon="9.528552"><ele>155.0</ele><time>2026-04-15T13:04:39.103Z</time></trkpt><trkpt lat="45.5733262" lon="9.5286183"><ele>155.0</ele><time>2026-04-15T13:04:40.103Z</time></trkpt><trkpt lat="45.5733955" lon="9.528686"><ele>155.0</ele><time>2026-04-15T13:04:41.103Z</time></trkpt><trkpt lat="45.573467" lon="9.5287448"><ele>155.0</ele><time>2026-04-15T13:04:42.104Z</time></trkpt><trkpt lat="45.5735363" lon="9.5288177"><ele>155.0</ele><time>2026-04-15T13:04:43.103Z</time></trkpt><trkpt lat="45.5736018" lon="9.5288798"><ele>155.0</ele><time>2026-04-15T13:04:44.103Z</time></trkpt><trkpt lat="45.5736666" lon="9.5289453"><ele>153.83333333333331</ele><time>2026-04-15T13:04:45.103Z</time></trkpt><trkpt lat="45.5737293" lon="9.5290288"><ele>152.66666666666666</ele><time>2026-04-15T13:04:46.104Z</time></trkpt><trkpt lat="45.5737856" lon="9.5290947"><ele>151.5</ele><time>2026-04-15T13:04:47.104Z</time></trkpt><trkpt lat="45.5738524" lon="9.529168"><ele>150.33333333333334</ele><time>2026-04-15T13:04:48.103Z</time></trkpt><trkpt lat="45.5739109" lon="9.5292448"><ele>149.16666666666669</ele><time>2026-04-15T13:04:49.103Z</time></trkpt><trkpt lat="45.573963" lon="9.5293166"><ele>148.0</ele><time>2026-04-15T13:04:50.103Z</time></trkpt><trkpt lat="45.574027" lon="9.5294025"><ele>148.0</ele><time>2026-04-15T13:04:51.104Z</time></trkpt><trkpt lat="45.5740797" lon="9.5294983"><ele>148.0</ele><time>2026-04-15T13:04:52.103Z</time></trkpt><trkpt lat="45.5741278" lon="9.5295816"><ele>148.0</ele><time>2026-04-15T13:04:53.104Z</time></trkpt><trkpt lat="45.5741712" lon="9.5296785"><ele>148.0</ele><time>2026-04-15T13:04:54.103Z</time></trkpt><trkpt lat="45.5742086" lon="9.5297806"><ele>148.0</ele><time>2026-04-15T13:04:55.103Z</time></trkpt><trkpt lat="45.5742473" lon="9.5298616"><ele>148.0</ele><time>2026-04-15T13:04:56.103Z</time></trkpt><trkpt lat="45.5742734" lon="9.5299687"><ele>146.66666666666669</ele><time>2026-04-15T13:04:57.103Z</time></trkpt><trkpt lat="45.5742785" lon="9.5300845"><ele>145.33333333333334</ele><time>2026-04-15T13:04:58.103Z</time></trkpt><trkpt lat="45.5742978" lon="9.5301999"><ele>144.0</ele><time>2026-04-15T13:04:59.104Z</time></trkpt><trkpt lat="45.5743128" lon="9.5303027"><ele>142.66666666666666</ele><time>2026-04-15T13:05:00.103Z</time></trkpt><trkpt lat="45.5743197" lon="9.5304044"><ele>141.33333333333331</ele><time>2026-04-15T13:05:01.103Z</time></trkpt><trkpt lat="45.5743204" lon="9.5305362"><ele>140.0</ele><time>2026-04-15T13:05:02.103Z</time></trkpt><trkpt lat="45.5743265" lon="9.5306384"><ele>139.83333333333331</ele><time>2026-04-15T13:05:03.103Z</time></trkpt><trkpt lat="45.5743314" lon="9.5307536"><ele>139.66666666666666</ele><time>2026-04-15T13:05:04.104Z</time></trkpt><trkpt lat="45.5743165" lon="9.5308651"><ele>139.5</ele><time>2026-04-15T13:05:05.103Z</time></trkpt><trkpt lat="45.5742973" lon="9.5309843"><ele>139.33333333333334</ele><time>2026-04-15T13:05:06.103Z</time></trkpt><trkpt lat="45.574275" lon="9.5310985"><ele>139.16666666666669</ele><time>2026-04-15T13:05:07.103Z</time></trkpt><trkpt lat="45.5742624" lon="9.5312097"><ele>139.0</ele><time>2026-04-15T13:05:08.103Z</time></trkpt><trkpt lat="45.5742457" lon="9.5313266"><ele>139.0</ele><time>2026-04-15T13:05:09.104Z</time></trkpt><trkpt lat="45.5742307" lon="9.5314383"><ele>139.0</ele><time>2026-04-15T13:05:10.104Z</time></trkpt><trkpt lat="45.5742101" lon="9.5315555"><ele>139.0</ele><time>2026-04-15T13:05:11.103Z</time></trkpt><trkpt lat="45.5741895" lon="9.5316665"><ele>139.0</ele><time>2026-04-15T13:05:12.104Z</time></trkpt><trkpt lat="45.5741656" lon="9.5317743"><ele>139.0</ele><time>2026-04-15T13:05:13.103Z</time></trkpt><trkpt lat="45.5741295" lon="9.5318929"><ele>139.0</ele><time>2026-04-15T13:05:14.103Z</time></trkpt><trkpt lat="45.5740991" lon="9.5319946"><ele>140.0</ele><time>2026-04-15T13:05:15.103Z</time></trkpt><trkpt lat="45.5740736" lon="9.5321037"><ele>141.0</ele><time>2026-04-15T13:05:16.103Z</time></trkpt><trkpt lat="45.5740418" lon="9.5322085"><ele>142.0</ele><time>2026-04-15T13:05:17.103Z</time></trkpt><trkpt lat="45.5740152" lon="9.5323147"><ele>143.0</ele><time>2026-04-15T13:05:18.103Z</time></trkpt><trkpt lat="45.5739699" lon="9.5324162"><ele>144.0</ele><time>2026-04-15T13:05:19.103Z</time></trkpt><trkpt lat="45.5739315" lon="9.5325111"><ele>145.0</ele><time>2026-04-15T13:05:20.104Z</time></trkpt><trkpt lat="45.5738908" lon="9.5326096"><ele>145.0</ele><time>2026-04-15T13:05:21.103Z</time></trkpt><trkpt lat="45.5738486" lon="9.5327186"><ele>145.0</ele><time>2026-04-15T13:05:22.103Z</time></trkpt><trkpt lat="45.5738073" lon="9.5328262"><ele>145.0</ele><time>2026-04-15T13:05:23.103Z</time></trkpt><trkpt lat="45.5737708" lon="9.5329151"><ele>145.0</ele><time>2026-04-15T13:05:24.103Z</time></trkpt><trkpt lat="45.5737307" lon="9.5330011"><ele>145.0</ele><time>2026-04-15T13:05:25.103Z</time></trkpt><trkpt lat="45.573688" lon="9.5330866"><ele>145.0</ele><time>2026-04-15T13:05:26.103Z</time></trkpt><trkpt lat="45.5736134" lon="9.5332356"><ele>143.83333333333334</ele><time>2026-04-15T13:05:28.103Z</time></trkpt><trkpt lat="45.5735649" lon="9.5334007"><ele>142.66666666666669</ele><time>2026-04-15T13:05:30.104Z</time></trkpt><trkpt lat="45.5735541" lon="9.5334895"><ele>141.5</ele><time>2026-04-15T13:05:31.104Z</time></trkpt><trkpt lat="45.5735582" lon="9.5335827"><ele>140.33333333333334</ele><time>2026-04-15T13:05:32.103Z</time></trkpt><trkpt lat="45.5735759" lon="9.5336765"><ele>139.16666666666666</ele><time>2026-04-15T13:05:33.103Z</time></trkpt><trkpt lat="45.5736054" lon="9.5337636"><ele>138.0</ele><time>2026-04-15T13:05:34.103Z</time></trkpt><trkpt lat="45.5736559" lon="9.5338271"><ele>137.42857142857144</ele><time>2026-04-15T13:05:35.103Z</time></trkpt><trkpt lat="45.5737115" lon="9.5338808"><ele>136.85714285714286</ele><time>2026-04-15T13:05:36.103Z</time></trkpt><trkpt lat="45.5737823" lon="9.5339058"><ele>136.28571428571428</ele><time>2026-04-15T13:05:37.104Z</time></trkpt><trkpt lat="45.5738561" lon="9.5339191"><ele>135.71428571428572</ele><time>2026-04-15T13:05:38.104Z</time></trkpt><trkpt lat="45.5739207" lon="9.5339288"><ele>135.14285714285714</ele><time>2026-04-15T13:05:39.103Z</time></trkpt><trkpt lat="45.5739907" lon="9.5339335"><ele>134.57142857142858</ele><time>2026-04-15T13:05:40.103Z</time></trkpt><trkpt lat="45.5740581" lon="9.5339345"><ele>134.0</ele><time>2026-04-15T13:05:41.103Z</time></trkpt><trkpt lat="45.5741236" lon="9.533948"><ele>134.0</ele><time>2026-04-15T13:05:42.103Z</time></trkpt><trkpt lat="45.574197" lon="9.5339545"><ele>134.0</ele><time>2026-04-15T13:05:43.103Z</time></trkpt><trkpt lat="45.5743334" lon="9.533959"><ele>134.0</ele><time>2026-04-15T13:05:45.103Z</time></trkpt><trkpt lat="45.5744051" lon="9.5339675"><ele>134.0</ele><time>2026-04-15T13:05:46.103Z</time></trkpt><trkpt lat="45.5744787" lon="9.5339755"><ele>134.0</ele><time>2026-04-15T13:05:47.103Z</time></trkpt><trkpt lat="45.5745487" lon="9.533971"><ele>134.0</ele><time>2026-04-15T13:05:48.103Z</time></trkpt><trkpt lat="45.5746175" lon="9.5339567"><ele>134.16666666666666</ele><time>2026-04-15T13:05:49.104Z</time></trkpt><trkpt lat="45.5746956" lon="9.5339497"><ele>134.33333333333331</ele><time>2026-04-15T13:05:50.103Z</time></trkpt><trkpt lat="45.5747834" lon="9.5339393"><ele>134.5</ele><time>2026-04-15T13:05:51.104Z</time></trkpt><trkpt lat="45.5748641" lon="9.5339204"><ele>134.66666666666666</ele><time>2026-04-15T13:05:52.103Z</time></trkpt><trkpt lat="45.5749406" lon="9.5338979"><ele>134.83333333333334</ele><time>2026-04-15T13:05:53.103Z</time></trkpt><trkpt lat="45.5750265" lon="9.5338988"><ele>135.0</ele><time>2026-04-15T13:05:54.103Z</time></trkpt><trkpt lat="45.5751003" lon="9.5339058"><ele>135.0</ele><time>2026-04-15T13:05:55.103Z</time></trkpt><trkpt lat="45.5751734" lon="9.53392"><ele>135.0</ele><time>2026-04-15T13:05:56.103Z</time></trkpt><trkpt lat="45.5752533" lon="9.5339377"><ele>135.0</ele><time>2026-04-15T13:05:57.103Z</time></trkpt><trkpt lat="45.5753354" lon="9.5339431"><ele>135.0</ele><time>2026-04-15T13:05:58.104Z</time></trkpt><trkpt lat="45.5754149" lon="9.5339197"><ele>135.0</ele><time>2026-04-15T13:05:59.103Z</time></trkpt><trkpt lat="45.5754837" lon="9.5338829"><ele>135.0</ele><time>2026-04-15T13:06:00.104Z</time></trkpt><trkpt lat="45.5755598" lon="9.5338564"><ele>134.85714285714286</ele><time>2026-04-15T13:06:01.103Z</time></trkpt><trkpt lat="45.5756215" lon="9.5338143"><ele>134.7142857142857</ele><time>2026-04-15T13:06:02.104Z</time></trkpt><trkpt lat="45.5756934" lon="9.5337852"><ele>134.57142857142856</ele><time>2026-04-15T13:06:03.104Z</time></trkpt><trkpt lat="45.5757555" lon="9.5337579"><ele>134.42857142857142</ele><time>2026-04-15T13:06:04.103Z</time></trkpt><trkpt lat="45.575838" lon="9.5337404"><ele>134.28571428571428</ele><time>2026-04-15T13:06:05.103Z</time></trkpt><trkpt lat="45.5759071" lon="9.533754"><ele>134.14285714285714</ele><time>2026-04-15T13:06:06.103Z</time></trkpt><trkpt lat="45.5759868" lon="9.5337364"><ele>134.0</ele><time>2026-04-15T13:06:07.104Z</time></trkpt><trkpt lat="45.576047" lon="9.5337846"><ele>134.0</ele><time>2026-04-15T13:06:08.103Z</time></trkpt><trkpt lat="45.5761588" lon="9.5338151"><ele>134.0</ele><time>2026-04-15T13:06:10.103Z</time></trkpt><trkpt lat="45.5762686" lon="9.5338646"><ele>134.0</ele><time>2026-04-15T13:06:12.103Z</time></trkpt><trkpt lat="45.5763835" lon="9.5338806"><ele>134.0</ele><time>2026-04-15T13:06:14.103Z</time></trkpt><trkpt lat="45.5764478" lon="9.5339052"><ele>134.0</ele><time>2026-04-15T13:06:15.103Z</time></trkpt><trkpt lat="45.5765145" lon="9.533919"><ele>134.8</ele><time>2026-04-15T13:06:16.103Z</time></trkpt><trkpt lat="45.576579" lon="9.5339356"><ele>135.60000000000002</ele><time>2026-04-15T13:06:17.103Z</time></trkpt><trkpt lat="45.5766997" lon="9.533976"><ele>136.4</ele><time>2026-04-15T13:06:19.103Z</time></trkpt><trkpt lat="45.5767683" lon="9.5340205"><ele>137.20000000000002</ele><time>2026-04-15T13:06:20.104Z</time></trkpt><trkpt lat="45.5768725" lon="9.5341117"><ele>138.0</ele><time>2026-04-15T13:06:22.104Z</time></trkpt><trkpt lat="45.5769319" lon="9.5341655"><ele>138.0</ele><time>2026-04-15T13:06:23.103Z</time></trkpt><trkpt lat="45.5770057" lon="9.5342489"><ele>138.0</ele><time>2026-04-15T13:06:25.103Z</time></trkpt><trkpt lat="45.5770823" lon="9.5342855"><ele>138.0</ele><time>2026-04-15T13:06:27.103Z</time></trkpt><trkpt lat="45.5771405" lon="9.5343364"><ele>138.0</ele><time>2026-04-15T13:06:29.103Z</time></trkpt><trkpt lat="45.5772153" lon="9.5343709"><ele>138.0</ele><time>2026-04-15T13:06:31.103Z</time></trkpt><trkpt lat="45.5773015" lon="9.5344083"><ele>138.0</ele><time>2026-04-15T13:06:33.103Z</time></trkpt><trkpt lat="45.5773841" lon="9.5344535"><ele>137.6</ele><time>2026-04-15T13:06:35.103Z</time></trkpt><trkpt lat="45.5774755" lon="9.5344872"><ele>137.20000000000002</ele><time>2026-04-15T13:06:37.103Z</time></trkpt><trkpt lat="45.5775806" lon="9.5345326"><ele>136.8</ele><time>2026-04-15T13:06:39.104Z</time></trkpt><trkpt lat="45.5776771" lon="9.5345424"><ele>136.4</ele><time>2026-04-15T13:06:41.103Z</time></trkpt><trkpt lat="45.5777899" lon="9.5345706"><ele>136.0</ele><time>2026-04-15T13:06:43.103Z</time></trkpt><trkpt lat="45.5778906" lon="9.5346192"><ele>136.0</ele><time>2026-04-15T13:06:45.103Z</time></trkpt><trkpt lat="45.5780053" lon="9.5346562"><ele>136.0</ele><time>2026-04-15T13:06:47.103Z</time></trkpt><trkpt lat="45.5781196" lon="9.5346782"><ele>136.0</ele><time>2026-04-15T13:06:49.103Z</time></trkpt><trkpt lat="45.5782443" lon="9.5346994"><ele>136.0</ele><time>2026-04-15T13:06:51.104Z</time></trkpt><trkpt lat="45.5783146" lon="9.5347043"><ele>136.0</ele><time>2026-04-15T13:06:52.103Z</time></trkpt><trkpt lat="45.5783933" lon="9.534712"><ele>136.0</ele><time>2026-04-15T13:06:53.103Z</time></trkpt><trkpt lat="45.5784709" lon="9.5347228"><ele>136.0</ele><time>2026-04-15T13:06:54.103Z</time></trkpt><trkpt lat="45.5785477" lon="9.5347282"><ele>136.0</ele><time>2026-04-15T13:06:55.103Z</time></trkpt><trkpt lat="45.5786294" lon="9.5347351"><ele>136.0</ele><time>2026-04-15T13:06:56.103Z</time></trkpt><trkpt lat="45.5787162" lon="9.5347336"><ele>136.0</ele><time>2026-04-15T13:06:57.103Z</time></trkpt><trkpt lat="45.5787942" lon="9.5347366"><ele>136.0</ele><time>2026-04-15T13:06:58.103Z</time></trkpt><trkpt lat="45.5788728" lon="9.5347396"><ele>136.66666666666669</ele><time>2026-04-15T13:06:59.103Z</time></trkpt><trkpt lat="45.5789587" lon="9.5347684"><ele>137.33333333333334</ele><time>2026-04-15T13:07:00.103Z</time></trkpt><trkpt lat="45.5790265" lon="9.5347828"><ele>138.0</ele><time>2026-04-15T13:07:01.103Z</time></trkpt><trkpt lat="45.5790972" lon="9.5347889"><ele>138.66666666666666</ele><time>2026-04-15T13:07:02.103Z</time></trkpt><trkpt lat="45.5791651" lon="9.5347884"><ele>139.33333333333331</ele><time>2026-04-15T13:07:03.103Z</time></trkpt><trkpt lat="45.579288" lon="9.5348389"><ele>140.0</ele><time>2026-04-15T13:07:05.103Z</time></trkpt><trkpt lat="45.5793613" lon="9.5348724"><ele>140.0</ele><time>2026-04-15T13:07:06.103Z</time></trkpt><trkpt lat="45.5794509" lon="9.534926"><ele>140.0</ele><time>2026-04-15T13:07:07.103Z</time></trkpt><trkpt lat="45.5795096" lon="9.5349616"><ele>140.0</ele><time>2026-04-15T13:07:08.103Z</time></trkpt><trkpt lat="45.5795846" lon="9.5350004"><ele>140.0</ele><time>2026-04-15T13:07:09.103Z</time></trkpt><trkpt lat="45.5796556" lon="9.5350466"><ele>140.0</ele><time>2026-04-15T13:07:10.103Z</time></trkpt><trkpt lat="45.5797318" lon="9.5351076"><ele>140.0</ele><time>2026-04-15T13:07:11.103Z</time></trkpt><trkpt lat="45.5797973" lon="9.5351359"><ele>139.85714285714286</ele><time>2026-04-15T13:07:12.103Z</time></trkpt><trkpt lat="45.579854" lon="9.535175"><ele>139.71428571428572</ele><time>2026-04-15T13:07:13.104Z</time></trkpt><trkpt lat="45.5799276" lon="9.5352313"><ele>139.57142857142856</ele><time>2026-04-15T13:07:14.103Z</time></trkpt><trkpt lat="45.5799989" lon="9.535266"><ele>139.42857142857144</ele><time>2026-04-15T13:07:15.104Z</time></trkpt><trkpt lat="45.5800719" lon="9.5353358"><ele>139.28571428571428</ele><time>2026-04-15T13:07:16.103Z</time></trkpt><trkpt lat="45.5801252" lon="9.5353929"><ele>139.14285714285714</ele><time>2026-04-15T13:07:17.103Z</time></trkpt><trkpt lat="45.5801817" lon="9.5354583"><ele>139.0</ele><time>2026-04-15T13:07:18.104Z</time></trkpt><trkpt lat="45.580239" lon="9.5355293"><ele>139.0</ele><time>2026-04-15T13:07:19.104Z</time></trkpt><trkpt lat="45.580303" lon="9.5355931"><ele>139.0</ele><time>2026-04-15T13:07:20.104Z</time></trkpt><trkpt lat="45.580367" lon="9.5356616"><ele>139.0</ele><time>2026-04-15T13:07:21.103Z</time></trkpt><trkpt lat="45.5804156" lon="9.5357196"><ele>139.0</ele><time>2026-04-15T13:07:22.103Z</time></trkpt><trkpt lat="45.580492" lon="9.5357758"><ele>139.0</ele><time>2026-04-15T13:07:23.103Z</time></trkpt><trkpt lat="45.5805576" lon="9.5358419"><ele>139.0</ele><time>2026-04-15T13:07:24.104Z</time></trkpt><trkpt lat="45.5806236" lon="9.5359124"><ele>139.28571428571428</ele><time>2026-04-15T13:07:25.104Z</time></trkpt><trkpt lat="45.580673" lon="9.5359834"><ele>139.57142857142858</ele><time>2026-04-15T13:07:26.103Z</time></trkpt><trkpt lat="45.5807228" lon="9.5360396"><ele>139.85714285714286</ele><time>2026-04-15T13:07:27.103Z</time></trkpt><trkpt lat="45.5807878" lon="9.5361058"><ele>140.14285714285714</ele><time>2026-04-15T13:07:28.104Z</time></trkpt><trkpt lat="45.5808478" lon="9.5361801"><ele>140.42857142857142</ele><time>2026-04-15T13:07:29.104Z</time></trkpt><trkpt lat="45.5809067" lon="9.5362421"><ele>140.71428571428572</ele><time>2026-04-15T13:07:30.103Z</time></trkpt><trkpt lat="45.5809696" lon="9.5363115"><ele>141.0</ele><time>2026-04-15T13:07:31.103Z</time></trkpt><trkpt lat="45.5810102" lon="9.5363947"><ele>141.0</ele><time>2026-04-15T13:07:32.104Z</time></trkpt><trkpt lat="45.5810669" lon="9.5364629"><ele>141.0</ele><time>2026-04-15T13:07:33.103Z</time></trkpt><trkpt lat="45.5811317" lon="9.5365537"><ele>141.0</ele><time>2026-04-15T13:07:34.103Z</time></trkpt><trkpt lat="45.5811961" lon="9.536637"><ele>141.0</ele><time>2026-04-15T13:07:35.103Z</time></trkpt><trkpt lat="45.5812608" lon="9.5367138"><ele>141.0</ele><time>2026-04-15T13:07:36.104Z</time></trkpt><trkpt lat="45.5813307" lon="9.5367829"><ele>141.0</ele><time>2026-04-15T13:07:37.104Z</time></trkpt><trkpt lat="45.5813901" lon="9.5368681"><ele>140.83333333333334</ele><time>2026-04-15T13:07:38.103Z</time></trkpt><trkpt lat="45.5814495" lon="9.5369486"><ele>140.66666666666666</ele><time>2026-04-15T13:07:39.103Z</time></trkpt><trkpt lat="45.5815184" lon="9.5370211"><ele>140.5</ele><time>2026-04-15T13:07:40.104Z</time></trkpt><trkpt lat="45.5815809" lon="9.5370865"><ele>140.33333333333331</ele><time>2026-04-15T13:07:41.104Z</time></trkpt><trkpt lat="45.5816344" lon="9.5371547"><ele>140.16666666666666</ele><time>2026-04-15T13:07:42.103Z</time></trkpt><trkpt lat="45.5816906" lon="9.5372267"><ele>140.0</ele><time>2026-04-15T13:07:43.103Z</time></trkpt><trkpt lat="45.5817524" lon="9.5372874"><ele>140.0</ele><time>2026-04-15T13:07:44.104Z</time></trkpt><trkpt lat="45.5818172" lon="9.5373614"><ele>140.0</ele><time>2026-04-15T13:07:45.104Z</time></trkpt><trkpt lat="45.5818819" lon="9.5374245"><ele>140.0</ele><time>2026-04-15T13:07:46.103Z</time></trkpt><trkpt lat="45.5819356" lon="9.5374806"><ele>140.0</ele><time>2026-04-15T13:07:47.104Z</time></trkpt><trkpt lat="45.5819998" lon="9.5375704"><ele>140.0</ele><time>2026-04-15T13:07:48.104Z</time></trkpt><trkpt lat="45.5820991" lon="9.5376597"><ele>140.0</ele><time>2026-04-15T13:07:50.103Z</time></trkpt><trkpt lat="45.5821672" lon="9.5376889"><ele>139.33333333333331</ele><time>2026-04-15T13:07:52.103Z</time></trkpt><trkpt lat="45.5822402" lon="9.5376964"><ele>138.66666666666666</ele><time>2026-04-15T13:07:54.104Z</time></trkpt><trkpt lat="45.5823414" lon="9.5377594"><ele>138.0</ele><time>2026-04-15T13:07:56.104Z</time></trkpt><trkpt lat="45.582408" lon="9.5377795"><ele>137.33333333333334</ele><time>2026-04-15T13:07:57.103Z</time></trkpt><trkpt lat="45.5825289" lon="9.5378244"><ele>136.66666666666669</ele><time>2026-04-15T13:07:59.104Z</time></trkpt><trkpt lat="45.5825982" lon="9.5378451"><ele>136.0</ele><time>2026-04-15T13:08:00.103Z</time></trkpt><trkpt lat="45.5826983" lon="9.5378926"><ele>136.0</ele><time>2026-04-15T13:08:02.103Z</time></trkpt><trkpt lat="45.582762" lon="9.5379166"><ele>136.0</ele><time>2026-04-15T13:08:03.103Z</time></trkpt><trkpt lat="45.5828711" lon="9.5379441"><ele>136.0</ele><time>2026-04-15T13:08:05.104Z</time></trkpt><trkpt lat="45.582935" lon="9.5379672"><ele>136.0</ele><time>2026-04-15T13:08:06.103Z</time></trkpt><trkpt lat="45.5830505" lon="9.5379696"><ele>136.0</ele><time>2026-04-15T13:08:08.104Z</time></trkpt><trkpt lat="45.583125" lon="9.537954"><ele>136.0</ele><time>2026-04-15T13:08:09.103Z</time></trkpt><trkpt lat="45.5831915" lon="9.5379493"><ele>136.0</ele><time>2026-04-15T13:08:10.103Z</time></trkpt><trkpt lat="45.5832587" lon="9.5379224"><ele>136.0</ele><time>2026-04-15T13:08:11.104Z</time></trkpt><trkpt lat="45.5833337" lon="9.5378661"><ele>136.0</ele><time>2026-04-15T13:08:12.103Z</time></trkpt><trkpt lat="45.5834632" lon="9.5378304"><ele>136.0</ele><time>2026-04-15T13:08:14.103Z</time></trkpt><trkpt lat="45.5835308" lon="9.5378268"><ele>136.0</ele><time>2026-04-15T13:08:15.103Z</time></trkpt><trkpt lat="45.5835938" lon="9.5378048"><ele>136.0</ele><time>2026-04-15T13:08:16.103Z</time></trkpt><trkpt lat="45.5837186" lon="9.5377664"><ele>137.33333333333334</ele><time>2026-04-15T13:08:18.103Z</time></trkpt><trkpt lat="45.5837794" lon="9.5377402"><ele>138.66666666666669</ele><time>2026-04-15T13:08:19.104Z</time></trkpt><trkpt lat="45.5838479" lon="9.5377045"><ele>140.0</ele><time>2026-04-15T13:08:20.104Z</time></trkpt><trkpt lat="45.5839112" lon="9.5376526"><ele>141.33333333333334</ele><time>2026-04-15T13:08:21.103Z</time></trkpt><trkpt lat="45.5839686" lon="9.5375714"><ele>142.66666666666666</ele><time>2026-04-15T13:08:22.104Z</time></trkpt><trkpt lat="45.5840966" lon="9.5374826"><ele>144.0</ele><time>2026-04-15T13:08:24.103Z</time></trkpt><trkpt lat="45.584158" lon="9.5374354"><ele>144.0</ele><time>2026-04-15T13:08:25.104Z</time></trkpt><trkpt lat="45.5842158" lon="9.5373604"><ele>144.0</ele><time>2026-04-15T13:08:26.104Z</time></trkpt><trkpt lat="45.5842727" lon="9.5373028"><ele>144.0</ele><time>2026-04-15T13:08:27.103Z</time></trkpt><trkpt lat="45.5843407" lon="9.5372184"><ele>144.0</ele><time>2026-04-15T13:08:28.104Z</time></trkpt><trkpt lat="45.5843951" lon="9.5371534"><ele>144.0</ele><time>2026-04-15T13:08:29.103Z</time></trkpt><trkpt lat="45.5844582" lon="9.5370951"><ele>144.0</ele><time>2026-04-15T13:08:30.103Z</time></trkpt><trkpt lat="45.5844972" lon="9.5370086"><ele>144.0</ele><time>2026-04-15T13:08:31.104Z</time></trkpt><trkpt lat="45.5845478" lon="9.5369303"><ele>144.0</ele><time>2026-04-15T13:08:32.103Z</time></trkpt><trkpt lat="45.5846036" lon="9.536857"><ele>144.0</ele><time>2026-04-15T13:08:33.103Z</time></trkpt><trkpt lat="45.584659" lon="9.5367937"><ele>144.0</ele><time>2026-04-15T13:08:34.103Z</time></trkpt><trkpt lat="45.584719" lon="9.5367264"><ele>144.0</ele><time>2026-04-15T13:08:35.104Z</time></trkpt><trkpt lat="45.5847573" lon="9.5366396"><ele>144.0</ele><time>2026-04-15T13:08:36.103Z</time></trkpt><trkpt lat="45.5848396" lon="9.536566"><ele>144.0</ele><time>2026-04-15T13:08:38.104Z</time></trkpt><trkpt lat="45.584898" lon="9.5364921"><ele>144.0</ele><time>2026-04-15T13:08:39.103Z</time></trkpt><trkpt lat="45.5849675" lon="9.5364111"><ele>144.0</ele><time>2026-04-15T13:08:40.103Z</time></trkpt><trkpt lat="45.5851055" lon="9.5363421"><ele>144.0</ele><time>2026-04-15T13:08:42.103Z</time></trkpt><trkpt lat="45.585173" lon="9.5362714"><ele>144.0</ele><time>2026-04-15T13:08:43.103Z</time></trkpt><trkpt lat="45.5852515" lon="9.5361634"><ele>143.66666666666666</ele><time>2026-04-15T13:08:44.103Z</time></trkpt><trkpt lat="45.5853088" lon="9.5361127"><ele>143.33333333333334</ele><time>2026-04-15T13:08:45.103Z</time></trkpt><trkpt lat="45.5854018" lon="9.535976"><ele>143.0</ele><time>2026-04-15T13:08:47.103Z</time></trkpt><trkpt lat="45.5854466" lon="9.5358954"><ele>142.66666666666669</ele><time>2026-04-15T13:08:48.104Z</time></trkpt><trkpt lat="45.5854837" lon="9.5358208"><ele>142.33333333333334</ele><time>2026-04-15T13:08:49.104Z</time></trkpt><trkpt lat="45.5855175" lon="9.5357371"><ele>142.0</ele><time>2026-04-15T13:08:50.104Z</time></trkpt><trkpt lat="45.5856009" lon="9.5355881"><ele>142.0</ele><time>2026-04-15T13:08:52.103Z</time></trkpt><trkpt lat="45.5856571" lon="9.5355114"><ele>142.0</ele><time>2026-04-15T13:08:53.103Z</time></trkpt><trkpt lat="45.5857119" lon="9.5354163"><ele>142.0</ele><time>2026-04-15T13:08:54.103Z</time></trkpt><trkpt lat="45.5857665" lon="9.5353325"><ele>142.0</ele><time>2026-04-15T13:08:55.104Z</time></trkpt><trkpt lat="45.5858215" lon="9.535267"><ele>142.0</ele><time>2026-04-15T13:08:56.103Z</time></trkpt><trkpt lat="45.5858854" lon="9.5351698"><ele>142.0</ele><time>2026-04-15T13:08:57.103Z</time></trkpt><trkpt lat="45.5859467" lon="9.535083"><ele>142.16666666666669</ele><time>2026-04-15T13:08:58.104Z</time></trkpt><trkpt lat="45.5859868" lon="9.5349809"><ele>142.33333333333334</ele><time>2026-04-15T13:08:59.103Z</time></trkpt><trkpt lat="45.5860598" lon="9.5348216"><ele>142.5</ele><time>2026-04-15T13:09:01.103Z</time></trkpt><trkpt lat="45.5860992" lon="9.5347341"><ele>142.66666666666666</ele><time>2026-04-15T13:09:02.103Z</time></trkpt><trkpt lat="45.5861369" lon="9.5346494"><ele>142.83333333333331</ele><time>2026-04-15T13:09:03.103Z</time></trkpt><trkpt lat="45.5861882" lon="9.534559"><ele>143.0</ele><time>2026-04-15T13:09:04.103Z</time></trkpt><trkpt lat="45.5862314" lon="9.5344643"><ele>142.99999999999997</ele><time>2026-04-15T13:09:05.104Z</time></trkpt><trkpt lat="45.5862869" lon="9.5344178"><ele>143.0</ele><time>2026-04-15T13:09:06.103Z</time></trkpt><trkpt lat="45.5863469" lon="9.5343517"><ele>143.0</ele><time>2026-04-15T13:09:07.103Z</time></trkpt><trkpt lat="45.5864017" lon="9.534282"><ele>143.0</ele><time>2026-04-15T13:09:08.104Z</time></trkpt><trkpt lat="45.5864543" lon="9.5342197"><ele>143.0</ele><time>2026-04-15T13:09:09.103Z</time></trkpt><trkpt lat="45.5865169" lon="9.5341815"><ele>142.99999999999997</ele><time>2026-04-15T13:09:10.103Z</time></trkpt><trkpt lat="45.5865789" lon="9.5341078"><ele>143.0</ele><time>2026-04-15T13:09:11.103Z</time></trkpt><trkpt lat="45.5866414" lon="9.5340575"><ele>143.0</ele><time>2026-04-15T13:09:12.103Z</time></trkpt><trkpt lat="45.5866988" lon="9.5339823"><ele>143.0</ele><time>2026-04-15T13:09:13.103Z</time></trkpt><trkpt lat="45.5867776" lon="9.5338847"><ele>143.0</ele><time>2026-04-15T13:09:14.103Z</time></trkpt><trkpt lat="45.586884" lon="9.5337747"><ele>143.0</ele><time>2026-04-15T13:09:16.103Z</time></trkpt><trkpt lat="45.5869374" lon="9.5336943"><ele>143.0</ele><time>2026-04-15T13:09:17.103Z</time></trkpt><trkpt lat="45.587007" lon="9.5336269"><ele>143.14285714285714</ele><time>2026-04-15T13:09:18.103Z</time></trkpt><trkpt lat="45.587063" lon="9.5335697"><ele>143.28571428571428</ele><time>2026-04-15T13:09:19.104Z</time></trkpt><trkpt lat="45.587115" lon="9.5334983"><ele>143.42857142857144</ele><time>2026-04-15T13:09:20.103Z</time></trkpt><trkpt lat="45.5871783" lon="9.5334415"><ele>143.57142857142856</ele><time>2026-04-15T13:09:21.104Z</time></trkpt><trkpt lat="45.5872343" lon="9.5333869"><ele>143.71428571428572</ele><time>2026-04-15T13:09:22.103Z</time></trkpt><trkpt lat="45.5872939" lon="9.5333198"><ele>143.85714285714286</ele><time>2026-04-15T13:09:23.103Z</time></trkpt><trkpt lat="45.5873449" lon="9.5332574"><ele>144.0</ele><time>2026-04-15T13:09:24.104Z</time></trkpt><trkpt lat="45.5874208" lon="9.5332157"><ele>144.0</ele><time>2026-04-15T13:09:25.104Z</time></trkpt><trkpt lat="45.5874958" lon="9.5331442"><ele>144.0</ele><time>2026-04-15T13:09:26.103Z</time></trkpt><trkpt lat="45.5875598" lon="9.5330788"><ele>144.0</ele><time>2026-04-15T13:09:27.103Z</time></trkpt><trkpt lat="45.5876808" lon="9.5329732"><ele>144.0</ele><time>2026-04-15T13:09:29.104Z</time></trkpt><trkpt lat="45.5877537" lon="9.5329459"><ele>144.0</ele><time>2026-04-15T13:09:30.103Z</time></trkpt><trkpt lat="45.5878533" lon="9.532908"><ele>144.83333333333334</ele><time>2026-04-15T13:09:31.104Z</time></trkpt><trkpt lat="45.5879176" lon="9.532879"><ele>145.66666666666666</ele><time>2026-04-15T13:09:32.103Z</time></trkpt><trkpt lat="45.5879947" lon="9.5328399"><ele>146.5</ele><time>2026-04-15T13:09:33.103Z</time></trkpt><trkpt lat="45.5880853" lon="9.5327945"><ele>147.33333333333331</ele><time>2026-04-15T13:09:34.103Z</time></trkpt><trkpt lat="45.5881706" lon="9.5327863"><ele>148.16666666666666</ele><time>2026-04-15T13:09:35.104Z</time></trkpt><trkpt lat="45.5882623" lon="9.5327769"><ele>149.0</ele><time>2026-04-15T13:09:36.103Z</time></trkpt><trkpt lat="45.5883472" lon="9.5327864"><ele>149.0</ele><time>2026-04-15T13:09:37.103Z</time></trkpt><trkpt lat="45.5884132" lon="9.5327877"><ele>149.0</ele><time>2026-04-15T13:09:38.103Z</time></trkpt><trkpt lat="45.5884803" lon="9.5327791"><ele>149.0</ele><time>2026-04-15T13:09:39.103Z</time></trkpt><trkpt lat="45.5886183" lon="9.5327553"><ele>149.0</ele><time>2026-04-15T13:09:41.103Z</time></trkpt><trkpt lat="45.5887522" lon="9.5327348"><ele>149.0</ele><time>2026-04-15T13:09:43.103Z</time></trkpt><trkpt lat="45.5888246" lon="9.5327551"><ele>149.0</ele><time>2026-04-15T13:09:44.103Z</time></trkpt><trkpt lat="45.5889015" lon="9.5327223"><ele>149.0</ele><time>2026-04-15T13:09:45.103Z</time></trkpt><trkpt lat="45.5889681" lon="9.5327298"><ele>149.0</ele><time>2026-04-15T13:09:46.103Z</time></trkpt><trkpt lat="45.5890266" lon="9.5326853"><ele>149.0</ele><time>2026-04-15T13:09:47.103Z</time></trkpt><trkpt lat="45.5891206" lon="9.532719"><ele>149.0</ele><time>2026-04-15T13:09:48.103Z</time></trkpt><trkpt lat="45.5892458" lon="9.5326968"><ele>149.0</ele><time>2026-04-15T13:09:50.104Z</time></trkpt><trkpt lat="45.5893274" lon="9.5326894"><ele>149.0</ele><time>2026-04-15T13:09:51.104Z</time></trkpt><trkpt lat="45.5894266" lon="9.5326667"><ele>149.0</ele><time>2026-04-15T13:09:52.103Z</time></trkpt><trkpt lat="45.5894964" lon="9.5326593"><ele>149.0</ele><time>2026-04-15T13:09:53.104Z</time></trkpt><trkpt lat="45.5895677" lon="9.5326417"><ele>149.0</ele><time>2026-04-15T13:09:54.103Z</time></trkpt><trkpt lat="45.5896366" lon="9.5326243"><ele>149.0</ele><time>2026-04-15T13:09:55.103Z</time></trkpt><trkpt lat="45.5897121" lon="9.5326188"><ele>149.0</ele><time>2026-04-15T13:09:56.103Z</time></trkpt><trkpt lat="45.5897892" lon="9.5326071"><ele>148.83333333333331</ele><time>2026-04-15T13:09:57.104Z</time></trkpt><trkpt lat="45.5898878" lon="9.5326266"><ele>148.66666666666666</ele><time>2026-04-15T13:09:58.104Z</time></trkpt><trkpt lat="45.5899458" lon="9.5325777"><ele>148.5</ele><time>2026-04-15T13:09:59.103Z</time></trkpt><trkpt lat="45.5900223" lon="9.5325642"><ele>148.33333333333334</ele><time>2026-04-15T13:10:00.103Z</time></trkpt><trkpt lat="45.5900931" lon="9.53255"><ele>148.16666666666669</ele><time>2026-04-15T13:10:01.103Z</time></trkpt><trkpt lat="45.5901578" lon="9.5325143"><ele>148.0</ele><time>2026-04-15T13:10:02.103Z</time></trkpt><trkpt lat="45.5902354" lon="9.5324862"><ele>148.0</ele><time>2026-04-15T13:10:03.103Z</time></trkpt><trkpt lat="45.590311" lon="9.5324676"><ele>148.0</ele><time>2026-04-15T13:10:04.104Z</time></trkpt><trkpt lat="45.5903966" lon="9.5324786"><ele>148.0</ele><time>2026-04-15T13:10:05.103Z</time></trkpt><trkpt lat="45.5905345" lon="9.5324721"><ele>148.0</ele><time>2026-04-15T13:10:07.104Z</time></trkpt><trkpt lat="45.5906181" lon="9.5324633"><ele>148.0</ele><time>2026-04-15T13:10:08.104Z</time></trkpt><trkpt lat="45.5907073" lon="9.5324484"><ele>147.66666666666669</ele><time>2026-04-15T13:10:09.103Z</time></trkpt><trkpt lat="45.5907868" lon="9.5324325"><ele>147.33333333333334</ele><time>2026-04-15T13:10:10.104Z</time></trkpt><trkpt lat="45.5908589" lon="9.5324406"><ele>147.0</ele><time>2026-04-15T13:10:11.104Z</time></trkpt><trkpt lat="45.590936" lon="9.5324322"><ele>146.66666666666666</ele><time>2026-04-15T13:10:12.103Z</time></trkpt><trkpt lat="45.5910221" lon="9.5324335"><ele>146.33333333333331</ele><time>2026-04-15T13:10:13.104Z</time></trkpt><trkpt lat="45.5911024" lon="9.5324451"><ele>146.0</ele><time>2026-04-15T13:10:14.103Z</time></trkpt><trkpt lat="45.591177" lon="9.5324366"><ele>145.2</ele><time>2026-04-15T13:10:15.103Z</time></trkpt><trkpt lat="45.5912604" lon="9.532431"><ele>144.39999999999998</ele><time>2026-04-15T13:10:16.103Z</time></trkpt><trkpt lat="45.5913572" lon="9.5324431"><ele>143.6</ele><time>2026-04-15T13:10:17.103Z</time></trkpt><trkpt lat="45.5914225" lon="9.5324125"><ele>142.79999999999998</ele><time>2026-04-15T13:10:18.104Z</time></trkpt><trkpt lat="45.5915011" lon="9.5324091"><ele>142.0</ele><time>2026-04-15T13:10:19.103Z</time></trkpt><trkpt lat="45.59165" lon="9.53239"><ele>142.0</ele><time>2026-04-15T13:10:21.103Z</time></trkpt><trkpt lat="45.5917323" lon="9.532372"><ele>142.0</ele><time>2026-04-15T13:10:22.104Z</time></trkpt><trkpt lat="45.5918153" lon="9.5323561"><ele>142.0</ele><time>2026-04-15T13:10:23.103Z</time></trkpt><trkpt lat="45.5918875" lon="9.5323528"><ele>142.0</ele><time>2026-04-15T13:10:24.103Z</time></trkpt><trkpt lat="45.5919581" lon="9.53234"><ele>142.0</ele><time>2026-04-15T13:10:25.103Z</time></trkpt><trkpt lat="45.5920442" lon="9.5323259"><ele>142.0</ele><time>2026-04-15T13:10:26.103Z</time></trkpt><trkpt lat="45.5921281" lon="9.5323169"><ele>141.5</ele><time>2026-04-15T13:10:27.103Z</time></trkpt><trkpt lat="45.5922151" lon="9.5323014"><ele>141.0</ele><time>2026-04-15T13:10:28.103Z</time></trkpt><trkpt lat="45.5922869" lon="9.5322909"><ele>140.5</ele><time>2026-04-15T13:10:29.104Z</time></trkpt><trkpt lat="45.5923615" lon="9.532278"><ele>140.0</ele><time>2026-04-15T13:10:30.103Z</time></trkpt><trkpt lat="45.5924335" lon="9.5322707"><ele>139.5</ele><time>2026-04-15T13:10:31.103Z</time></trkpt><trkpt lat="45.5925042" lon="9.5322524"><ele>139.0</ele><time>2026-04-15T13:10:32.104Z</time></trkpt><trkpt lat="45.5925835" lon="9.5322493"><ele>139.0</ele><time>2026-04-15T13:10:33.103Z</time></trkpt><trkpt lat="45.5926522" lon="9.5322243"><ele>139.0</ele><time>2026-04-15T13:10:34.103Z</time></trkpt><trkpt lat="45.5927352" lon="9.5322161"><ele>139.0</ele><time>2026-04-15T13:10:35.104Z</time></trkpt><trkpt lat="45.5928035" lon="9.5322004"><ele>139.0</ele><time>2026-04-15T13:10:36.103Z</time></trkpt><trkpt lat="45.5928679" lon="9.5321792"><ele>139.0</ele><time>2026-04-15T13:10:37.103Z</time></trkpt><trkpt lat="45.5929463" lon="9.5321807"><ele>139.0</ele><time>2026-04-15T13:10:38.103Z</time></trkpt><trkpt lat="45.5930795" lon="9.5321624"><ele>139.2</ele><time>2026-04-15T13:10:40.103Z</time></trkpt><trkpt lat="45.593184" lon="9.5321569"><ele>139.4</ele><time>2026-04-15T13:10:41.103Z</time></trkpt><trkpt lat="45.593328" lon="9.5321149"><ele>139.6</ele><time>2026-04-15T13:10:43.104Z</time></trkpt><trkpt lat="45.5933919" lon="9.5321058"><ele>139.8</ele><time>2026-04-15T13:10:44.103Z</time></trkpt><trkpt lat="45.5934728" lon="9.5320986"><ele>140.0</ele><time>2026-04-15T13:10:45.104Z</time></trkpt><trkpt lat="45.5935504" lon="9.5320838"><ele>140.0</ele><time>2026-04-15T13:10:46.103Z</time></trkpt><trkpt lat="45.5936198" lon="9.5320649"><ele>140.0</ele><time>2026-04-15T13:10:47.103Z</time></trkpt><trkpt lat="45.593688" lon="9.5320572"><ele>140.0</ele><time>2026-04-15T13:10:48.103Z</time></trkpt><trkpt lat="45.5937567" lon="9.5320393"><ele>140.0</ele><time>2026-04-15T13:10:49.104Z</time></trkpt><trkpt lat="45.5939098" lon="9.5319919"><ele>140.0</ele><time>2026-04-15T13:10:51.104Z</time></trkpt><trkpt lat="45.5939855" lon="9.5319845"><ele>140.0</ele><time>2026-04-15T13:10:52.104Z</time></trkpt><trkpt lat="45.5940549" lon="9.5319656"><ele>140.5</ele><time>2026-04-15T13:10:53.103Z</time></trkpt><trkpt lat="45.5941368" lon="9.5319673"><ele>141.0</ele><time>2026-04-15T13:10:54.104Z</time></trkpt><trkpt lat="45.5942128" lon="9.5319421"><ele>141.5</ele><time>2026-04-15T13:10:55.104Z</time></trkpt><trkpt lat="45.5942847" lon="9.5319243"><ele>142.0</ele><time>2026-04-15T13:10:56.104Z</time></trkpt><trkpt lat="45.5943635" lon="9.5319159"><ele>142.5</ele><time>2026-04-15T13:10:57.103Z</time></trkpt><trkpt lat="45.5944426" lon="9.5318886"><ele>143.0</ele><time>2026-04-15T13:10:58.103Z</time></trkpt><trkpt lat="45.5945099" lon="9.5318595"><ele>142.99999999999997</ele><time>2026-04-15T13:10:59.103Z</time></trkpt><trkpt lat="45.5945906" lon="9.5318546"><ele>143.0</ele><time>2026-04-15T13:11:00.104Z</time></trkpt><trkpt lat="45.5946611" lon="9.5318307"><ele>143.0</ele><time>2026-04-15T13:11:01.103Z</time></trkpt><trkpt lat="45.5947258" lon="9.5318132"><ele>143.0</ele><time>2026-04-15T13:11:02.103Z</time></trkpt><trkpt lat="45.5948081" lon="9.5317967"><ele>143.0</ele><time>2026-04-15T13:11:03.103Z</time></trkpt><trkpt lat="45.594873" lon="9.531768"><ele>142.99999999999997</ele><time>2026-04-15T13:11:04.104Z</time></trkpt><trkpt lat="45.5949494" lon="9.5317496"><ele>143.0</ele><time>2026-04-15T13:11:05.103Z</time></trkpt><trkpt lat="45.5950248" lon="9.531722"><ele>142.99999999999997</ele><time>2026-04-15T13:11:06.103Z</time></trkpt><trkpt lat="45.5950976" lon="9.5317072"><ele>143.0</ele><time>2026-04-15T13:11:07.103Z</time></trkpt><trkpt lat="45.5951755" lon="9.5316798"><ele>143.0</ele><time>2026-04-15T13:11:08.104Z</time></trkpt><trkpt lat="45.5952458" lon="9.5316625"><ele>143.0</ele><time>2026-04-15T13:11:09.103Z</time></trkpt><trkpt lat="45.5953162" lon="9.5316413"><ele>143.0</ele><time>2026-04-15T13:11:10.103Z</time></trkpt><trkpt lat="45.595385" lon="9.5316216"><ele>142.99999999999997</ele><time>2026-04-15T13:11:11.104Z</time></trkpt><trkpt lat="45.595459" lon="9.5316042"><ele>143.0</ele><time>2026-04-15T13:11:12.104Z</time></trkpt><trkpt lat="45.5955322" lon="9.5315775"><ele>142.33333333333331</ele><time>2026-04-15T13:11:13.104Z</time></trkpt><trkpt lat="45.5956005" lon="9.5315619"><ele>141.66666666666666</ele><time>2026-04-15T13:11:14.104Z</time></trkpt><trkpt lat="45.5956649" lon="9.5315361"><ele>141.0</ele><time>2026-04-15T13:11:15.103Z</time></trkpt><trkpt lat="45.5957583" lon="9.5315138"><ele>140.33333333333334</ele><time>2026-04-15T13:11:16.103Z</time></trkpt><trkpt lat="45.59583" lon="9.5315001"><ele>139.66666666666669</ele><time>2026-04-15T13:11:17.103Z</time></trkpt><trkpt lat="45.5959127" lon="9.5314653"><ele>139.0</ele><time>2026-04-15T13:11:18.103Z</time></trkpt><trkpt lat="45.5959787" lon="9.531442"><ele>139.0</ele><time>2026-04-15T13:11:19.103Z</time></trkpt><trkpt lat="45.5960585" lon="9.5314198"><ele>139.0</ele><time>2026-04-15T13:11:20.104Z</time></trkpt><trkpt lat="45.596126" lon="9.5313962"><ele>139.0</ele><time>2026-04-15T13:11:21.103Z</time></trkpt><trkpt lat="45.5962032" lon="9.531367"><ele>139.0</ele><time>2026-04-15T13:11:22.103Z</time></trkpt><trkpt lat="45.5962821" lon="9.5313469"><ele>139.0</ele><time>2026-04-15T13:11:23.104Z</time></trkpt><trkpt lat="45.5963463" lon="9.5313151"><ele>139.0</ele><time>2026-04-15T13:11:24.103Z</time></trkpt><trkpt lat="45.5964136" lon="9.5312855"><ele>139.0</ele><time>2026-04-15T13:11:25.103Z</time></trkpt><trkpt lat="45.5964853" lon="9.5312674"><ele>138.66666666666669</ele><time>2026-04-15T13:11:26.103Z</time></trkpt><trkpt lat="45.5965563" lon="9.5312517"><ele>138.33333333333334</ele><time>2026-04-15T13:11:27.103Z</time></trkpt><trkpt lat="45.5966196" lon="9.5312306"><ele>138.0</ele><time>2026-04-15T13:11:28.103Z</time></trkpt><trkpt lat="45.5967295" lon="9.5311684"><ele>137.66666666666666</ele><time>2026-04-15T13:11:30.104Z</time></trkpt><trkpt lat="45.5968217" lon="9.5311765"><ele>137.33333333333331</ele><time>2026-04-15T13:11:31.103Z</time></trkpt><trkpt lat="45.5969061" lon="9.5311906"><ele>137.0</ele><time>2026-04-15T13:11:32.103Z</time></trkpt><trkpt lat="45.5969731" lon="9.5311826"><ele>139.33333333333331</ele><time>2026-04-15T13:11:33.103Z</time></trkpt><trkpt lat="45.5970466" lon="9.5311761"><ele>141.66666666666666</ele><time>2026-04-15T13:11:34.103Z</time></trkpt><trkpt lat="45.5971166" lon="9.5311725"><ele>144.0</ele><time>2026-04-15T13:11:35.104Z</time></trkpt><trkpt lat="45.5972058" lon="9.5311652"><ele>146.33333333333334</ele><time>2026-04-15T13:11:36.103Z</time></trkpt><trkpt lat="45.5972881" lon="9.531172"><ele>148.66666666666669</ele><time>2026-04-15T13:11:37.103Z</time></trkpt><trkpt lat="45.5973684" lon="9.5311754"><ele>151.0</ele><time>2026-04-15T13:11:38.103Z</time></trkpt><trkpt lat="45.597441" lon="9.531178"><ele>151.0</ele><time>2026-04-15T13:11:39.103Z</time></trkpt><trkpt lat="45.5975156" lon="9.5311945"><ele>151.0</ele><time>2026-04-15T13:11:40.103Z</time></trkpt><trkpt lat="45.5975935" lon="9.531185"><ele>151.0</ele><time>2026-04-15T13:11:41.103Z</time></trkpt><trkpt lat="45.5976756" lon="9.5311833"><ele>151.0</ele><time>2026-04-15T13:11:42.103Z</time></trkpt><trkpt lat="45.5978093" lon="9.5311595"><ele>151.0</ele><time>2026-04-15T13:11:44.103Z</time></trkpt><trkpt lat="45.5978824" lon="9.5311326"><ele>151.0</ele><time>2026-04-15T13:11:45.103Z</time></trkpt><trkpt lat="45.5979659" lon="9.5311167"><ele>149.5</ele><time>2026-04-15T13:11:46.104Z</time></trkpt><trkpt lat="45.5980293" lon="9.5310849"><ele>148.0</ele><time>2026-04-15T13:11:47.103Z</time></trkpt><trkpt lat="45.5981133" lon="9.5310741"><ele>146.5</ele><time>2026-04-15T13:11:48.103Z</time></trkpt><trkpt lat="45.5981894" lon="9.5310565"><ele>145.0</ele><time>2026-04-15T13:11:49.103Z</time></trkpt><trkpt lat="45.5982557" lon="9.5310098"><ele>143.5</ele><time>2026-04-15T13:11:50.104Z</time></trkpt><trkpt lat="45.5983328" lon="9.5309813"><ele>142.0</ele><time>2026-04-15T13:11:51.103Z</time></trkpt><trkpt lat="45.5984088" lon="9.5309461"><ele>142.0</ele><time>2026-04-15T13:11:52.103Z</time></trkpt><trkpt lat="45.5984774" lon="9.5309143"><ele>142.0</ele><time>2026-04-15T13:11:53.103Z</time></trkpt><trkpt lat="45.5985543" lon="9.5308897"><ele>142.0</ele><time>2026-04-15T13:11:54.103Z</time></trkpt><trkpt lat="45.5986274" lon="9.530859"><ele>142.0</ele><time>2026-04-15T13:11:55.103Z</time></trkpt><trkpt lat="45.5987015" lon="9.5308173"><ele>142.0</ele><time>2026-04-15T13:11:56.103Z</time></trkpt><trkpt lat="45.5987652" lon="9.530779"><ele>142.0</ele><time>2026-04-15T13:11:57.103Z</time></trkpt><trkpt lat="45.5988339" lon="9.5307278"><ele>140.83333333333334</ele><time>2026-04-15T13:11:58.103Z</time></trkpt><trkpt lat="45.5988992" lon="9.5306762"><ele>139.66666666666669</ele><time>2026-04-15T13:11:59.104Z</time></trkpt><trkpt lat="45.5989764" lon="9.5306349"><ele>138.5</ele><time>2026-04-15T13:12:00.103Z</time></trkpt><trkpt lat="45.5990417" lon="9.5305938"><ele>137.33333333333334</ele><time>2026-04-15T13:12:01.103Z</time></trkpt><trkpt lat="45.5991021" lon="9.5305432"><ele>136.16666666666666</ele><time>2026-04-15T13:12:02.104Z</time></trkpt><trkpt lat="45.5991772" lon="9.5305007"><ele>135.0</ele><time>2026-04-15T13:12:03.104Z</time></trkpt><trkpt lat="45.5992465" lon="9.5304575"><ele>135.0</ele><time>2026-04-15T13:12:04.103Z</time></trkpt><trkpt lat="45.5993225" lon="9.5304113"><ele>135.0</ele><time>2026-04-15T13:12:05.104Z</time></trkpt><trkpt lat="45.5993883" lon="9.5303545"><ele>135.0</ele><time>2026-04-15T13:12:06.104Z</time></trkpt><trkpt lat="45.5994514" lon="9.5303187"><ele>135.0</ele><time>2026-04-15T13:12:07.103Z</time></trkpt><trkpt lat="45.5995108" lon="9.5302824"><ele>135.0</ele><time>2026-04-15T13:12:08.103Z</time></trkpt><trkpt lat="45.5995899" lon="9.5302499"><ele>135.0</ele><time>2026-04-15T13:12:09.103Z</time></trkpt><trkpt lat="45.5996689" lon="9.5302286"><ele>135.33333333333334</ele><time>2026-04-15T13:12:10.104Z</time></trkpt><trkpt lat="45.5997445" lon="9.5301866"><ele>135.66666666666666</ele><time>2026-04-15T13:12:11.104Z</time></trkpt><trkpt lat="45.5998055" lon="9.5301607"><ele>136.0</ele><time>2026-04-15T13:12:12.104Z</time></trkpt><trkpt lat="45.5998785" lon="9.5301296"><ele>136.33333333333331</ele><time>2026-04-15T13:12:13.103Z</time></trkpt><trkpt lat="45.5999443" lon="9.530101"><ele>136.66666666666666</ele><time>2026-04-15T13:12:14.103Z</time></trkpt><trkpt lat="45.6000308" lon="9.5300652"><ele>137.0</ele><time>2026-04-15T13:12:15.103Z</time></trkpt><trkpt lat="45.6001059" lon="9.5300214"><ele>137.0</ele><time>2026-04-15T13:12:16.103Z</time></trkpt><trkpt lat="45.6001735" lon="9.529991"><ele>137.0</ele><time>2026-04-15T13:12:17.103Z</time></trkpt><trkpt lat="45.6002395" lon="9.529965"><ele>137.0</ele><time>2026-04-15T13:12:18.103Z</time></trkpt><trkpt lat="45.6003136" lon="9.5299368"><ele>137.0</ele><time>2026-04-15T13:12:19.103Z</time></trkpt><trkpt lat="45.6004012" lon="9.5299083"><ele>137.0</ele><time>2026-04-15T13:12:20.103Z</time></trkpt><trkpt lat="45.6004662" lon="9.529862"><ele>137.0</ele><time>2026-04-15T13:12:21.104Z</time></trkpt><trkpt lat="45.6005377" lon="9.5298252"><ele>136.83333333333331</ele><time>2026-04-15T13:12:22.103Z</time></trkpt><trkpt lat="45.6006061" lon="9.5297795"><ele>136.66666666666666</ele><time>2026-04-15T13:12:23.103Z</time></trkpt><trkpt lat="45.6006745" lon="9.52974"><ele>136.5</ele><time>2026-04-15T13:12:24.103Z</time></trkpt><trkpt lat="45.6007482" lon="9.5297025"><ele>136.33333333333334</ele><time>2026-04-15T13:12:25.104Z</time></trkpt><trkpt lat="45.6008342" lon="9.5296848"><ele>136.16666666666669</ele><time>2026-04-15T13:12:26.103Z</time></trkpt><trkpt lat="45.6009077" lon="9.5296441"><ele>136.0</ele><time>2026-04-15T13:12:27.104Z</time></trkpt><trkpt lat="45.6009821" lon="9.5296056"><ele>136.0</ele><time>2026-04-15T13:12:28.103Z</time></trkpt><trkpt lat="45.6010584" lon="9.5295662"><ele>136.0</ele><time>2026-04-15T13:12:29.104Z</time></trkpt><trkpt lat="45.6011309" lon="9.5295301"><ele>136.0</ele><time>2026-04-15T13:12:30.104Z</time></trkpt><trkpt lat="45.6012017" lon="9.5294923"><ele>136.0</ele><time>2026-04-15T13:12:31.104Z</time></trkpt><trkpt lat="45.6012714" lon="9.529462"><ele>136.0</ele><time>2026-04-15T13:12:32.104Z</time></trkpt><trkpt lat="45.6013417" lon="9.5294394"><ele>136.0</ele><time>2026-04-15T13:12:33.103Z</time></trkpt><trkpt lat="45.601419" lon="9.5294187"><ele>137.4</ele><time>2026-04-15T13:12:34.104Z</time></trkpt><trkpt lat="45.601502" lon="9.5294121"><ele>138.8</ele><time>2026-04-15T13:12:35.103Z</time></trkpt><trkpt lat="45.6015758" lon="9.5294113"><ele>140.20000000000002</ele><time>2026-04-15T13:12:36.104Z</time></trkpt><trkpt lat="45.6017135" lon="9.5294255"><ele>141.6</ele><time>2026-04-15T13:12:38.103Z</time></trkpt><trkpt lat="45.6017791" lon="9.5294359"><ele>143.0</ele><time>2026-04-15T13:12:39.104Z</time></trkpt><trkpt lat="45.6018876" lon="9.5294508"><ele>143.0</ele><time>2026-04-15T13:12:41.103Z</time></trkpt><trkpt lat="45.6019846" lon="9.529459"><ele>143.0</ele><time>2026-04-15T13:12:43.104Z</time></trkpt><trkpt lat="45.6020877" lon="9.5294857"><ele>143.0</ele><time>2026-04-15T13:12:45.104Z</time></trkpt><trkpt lat="45.6021685" lon="9.5294445"><ele>143.0</ele><time>2026-04-15T13:12:47.103Z</time></trkpt><trkpt lat="45.6022195" lon="9.5293589"><ele>143.0</ele><time>2026-04-15T13:12:50.103Z</time></trkpt><trkpt lat="45.6022513" lon="9.5292725"><ele>143.0</ele><time>2026-04-15T13:12:52.103Z</time></trkpt><trkpt lat="45.6023126" lon="9.5292396"><ele>143.16666666666666</ele><time>2026-04-15T13:12:54.103Z</time></trkpt><trkpt lat="45.6023774" lon="9.5292276"><ele>143.33333333333331</ele><time>2026-04-15T13:12:56.103Z</time></trkpt><trkpt lat="45.6024543" lon="9.5292027"><ele>143.5</ele><time>2026-04-15T13:12:58.104Z</time></trkpt><trkpt lat="45.6025338" lon="9.5291749"><ele>143.66666666666666</ele><time>2026-04-15T13:13:00.104Z</time></trkpt><trkpt lat="45.602626" lon="9.5291444"><ele>143.83333333333334</ele><time>2026-04-15T13:13:02.104Z</time></trkpt><trkpt lat="45.6027411" lon="9.5291096"><ele>144.0</ele><time>2026-04-15T13:13:04.103Z</time></trkpt><trkpt lat="45.6028522" lon="9.5290654"><ele>144.0</ele><time>2026-04-15T13:13:06.103Z</time></trkpt><trkpt lat="45.6029595" lon="9.5290245"><ele>144.0</ele><time>2026-04-15T13:13:08.103Z</time></trkpt><trkpt lat="45.6030672" lon="9.5289723"><ele>144.0</ele><time>2026-04-15T13:13:10.103Z</time></trkpt><trkpt lat="45.6031698" lon="9.5288919"><ele>144.0</ele><time>2026-04-15T13:13:12.103Z</time></trkpt><trkpt lat="45.6032672" lon="9.5287893"><ele>145.0</ele><time>2026-04-15T13:13:14.103Z</time></trkpt><trkpt lat="45.6033544" lon="9.5286936"><ele>146.0</ele><time>2026-04-15T13:13:16.104Z</time></trkpt><trkpt lat="45.6034498" lon="9.5286044"><ele>147.0</ele><time>2026-04-15T13:13:18.104Z</time></trkpt><trkpt lat="45.6035644" lon="9.5285332"><ele>148.0</ele><time>2026-04-15T13:13:20.103Z</time></trkpt><trkpt lat="45.6036664" lon="9.5284722"><ele>148.0</ele><time>2026-04-15T13:13:22.104Z</time></trkpt><trkpt lat="45.603767" lon="9.5283899"><ele>148.0</ele><time>2026-04-15T13:13:24.103Z</time></trkpt><trkpt lat="45.6038726" lon="9.5283356"><ele>148.0</ele><time>2026-04-15T13:13:26.103Z</time></trkpt><trkpt lat="45.6039818" lon="9.5282737"><ele>148.0</ele><time>2026-04-15T13:13:28.103Z</time></trkpt><trkpt lat="45.604089" lon="9.5282092"><ele>148.0</ele><time>2026-04-15T13:13:30.104Z</time></trkpt><trkpt lat="45.6041912" lon="9.5281614"><ele>148.0</ele><time>2026-04-15T13:13:32.103Z</time></trkpt><trkpt lat="45.6042999" lon="9.5281324"><ele>148.0</ele><time>2026-04-15T13:13:34.103Z</time></trkpt><trkpt lat="45.6044093" lon="9.5280743"><ele>148.0</ele><time>2026-04-15T13:13:36.103Z</time></trkpt><trkpt lat="45.6045151" lon="9.5280119"><ele>148.0</ele><time>2026-04-15T13:13:38.103Z</time></trkpt><trkpt lat="45.6046196" lon="9.5279471"><ele>151.0</ele><time>2026-04-15T13:13:40.103Z</time></trkpt><trkpt lat="45.6047169" lon="9.5278752"><ele>154.0</ele><time>2026-04-15T13:13:42.104Z</time></trkpt><trkpt lat="45.6048092" lon="9.5278127"><ele>157.0</ele><time>2026-04-15T13:13:44.103Z</time></trkpt><trkpt lat="45.6049116" lon="9.5277363"><ele>160.0</ele><time>2026-04-15T13:13:46.104Z</time></trkpt><trkpt lat="45.6049702" lon="9.5277026"><ele>163.0</ele><time>2026-04-15T13:13:47.103Z</time></trkpt><trkpt lat="45.6050606" lon="9.527666"><ele>163.0</ele><time>2026-04-15T13:13:49.103Z</time></trkpt><trkpt lat="45.6051182" lon="9.5276114"><ele>163.0</ele><time>2026-04-15T13:13:51.103Z</time></trkpt><trkpt lat="45.6051894" lon="9.527548"><ele>163.0</ele><time>2026-04-15T13:13:53.104Z</time></trkpt><trkpt lat="45.6053066" lon="9.5275033"><ele>163.0</ele><time>2026-04-15T13:13:55.104Z</time></trkpt><trkpt lat="45.6054042" lon="9.5274354"><ele>163.0</ele><time>2026-04-15T13:13:57.104Z</time></trkpt><trkpt lat="45.6055249" lon="9.5273728"><ele>164.0</ele><time>2026-04-15T13:13:59.103Z</time></trkpt><trkpt lat="45.6055889" lon="9.5273323"><ele>165.0</ele><time>2026-04-15T13:14:00.104Z</time></trkpt><trkpt lat="45.6056594" lon="9.5272736"><ele>166.0</ele><time>2026-04-15T13:14:02.103Z</time></trkpt><trkpt lat="45.6057504" lon="9.5272379"><ele>167.0</ele><time>2026-04-15T13:14:04.103Z</time></trkpt><trkpt lat="45.6058462" lon="9.5271674"><ele>168.0</ele><time>2026-04-15T13:14:06.103Z</time></trkpt><trkpt lat="45.605966" lon="9.5271103"><ele>168.0</ele><time>2026-04-15T13:14:08.103Z</time></trkpt><trkpt lat="45.60606" lon="9.527061"><ele>168.0</ele><time>2026-04-15T13:14:10.103Z</time></trkpt><trkpt lat="45.606145" lon="9.5270191"><ele>168.0</ele><time>2026-04-15T13:14:12.103Z</time></trkpt><trkpt lat="45.6062837" lon="9.5269522"><ele>168.0</ele><time>2026-04-15T13:14:15.104Z</time></trkpt><trkpt lat="45.6063904" lon="9.5268465"><ele>166.5</ele><time>2026-04-15T13:14:17.103Z</time></trkpt><trkpt lat="45.6064777" lon="9.5268055"><ele>165.0</ele><time>2026-04-15T13:14:19.103Z</time></trkpt><trkpt lat="45.6065358" lon="9.5267524"><ele>163.5</ele><time>2026-04-15T13:14:20.103Z</time></trkpt><trkpt lat="45.6066404" lon="9.5266909"><ele>162.0</ele><time>2026-04-15T13:14:22.103Z</time></trkpt><trkpt lat="45.6067016" lon="9.5266271"><ele>160.5</ele><time>2026-04-15T13:14:23.103Z</time></trkpt><trkpt lat="45.6067653" lon="9.5265787"><ele>159.0</ele><time>2026-04-15T13:14:24.103Z</time></trkpt><trkpt lat="45.6068637" lon="9.5264819"><ele>157.5</ele><time>2026-04-15T13:14:26.103Z</time></trkpt><trkpt lat="45.6070309" lon="9.5263278"><ele>156.0</ele><time>2026-04-15T13:14:28.103Z</time></trkpt><trkpt lat="45.6070943" lon="9.5262413"><ele>154.5</ele><time>2026-04-15T13:14:29.104Z</time></trkpt><trkpt lat="45.6071612" lon="9.5261939"><ele>153.0</ele><time>2026-04-15T13:14:30.103Z</time></trkpt><trkpt lat="45.6072846" lon="9.5260915"><ele>155.4</ele><time>2026-04-15T13:14:32.103Z</time></trkpt><trkpt lat="45.60739" lon="9.5260251"><ele>157.8</ele><time>2026-04-15T13:14:34.103Z</time></trkpt><trkpt lat="45.6074496" lon="9.5259785"><ele>160.2</ele><time>2026-04-15T13:14:35.104Z</time></trkpt><trkpt lat="45.6075109" lon="9.5259327"><ele>162.6</ele><time>2026-04-15T13:14:36.103Z</time></trkpt><trkpt lat="45.6076198" lon="9.525792"><ele>165.0</ele><time>2026-04-15T13:14:38.103Z</time></trkpt><trkpt lat="45.6076915" lon="9.5256875"><ele>165.0</ele><time>2026-04-15T13:14:40.103Z</time></trkpt><trkpt lat="45.6077885" lon="9.5255954"><ele>165.0</ele><time>2026-04-15T13:14:42.104Z</time></trkpt><trkpt lat="45.6078362" lon="9.5255168"><ele>165.0</ele><time>2026-04-15T13:14:43.103Z</time></trkpt><trkpt lat="45.6079156" lon="9.5254038"><ele>165.0</ele><time>2026-04-15T13:14:45.103Z</time></trkpt><trkpt lat="45.6080224" lon="9.525295"><ele>165.0</ele><time>2026-04-15T13:14:47.104Z</time></trkpt><trkpt lat="45.6081075" lon="9.5252542"><ele>165.5</ele><time>2026-04-15T13:14:48.103Z</time></trkpt><trkpt lat="45.6081715" lon="9.5251871"><ele>166.0</ele><time>2026-04-15T13:14:49.103Z</time></trkpt><trkpt lat="45.6082619" lon="9.5251472"><ele>166.5</ele><time>2026-04-15T13:14:50.104Z</time></trkpt><trkpt lat="45.6083265" lon="9.5251115"><ele>167.0</ele><time>2026-04-15T13:14:51.103Z</time></trkpt><trkpt lat="45.6083902" lon="9.5250709"><ele>167.5</ele><time>2026-04-15T13:14:52.103Z</time></trkpt><trkpt lat="45.608497" lon="9.5249762"><ele>168.0</ele><time>2026-04-15T13:14:54.103Z</time></trkpt><trkpt lat="45.608548" lon="9.5249129"><ele>168.0</ele><time>2026-04-15T13:14:55.104Z</time></trkpt><trkpt lat="45.6086049" lon="9.5248479"><ele>168.0</ele><time>2026-04-15T13:14:56.103Z</time></trkpt><trkpt lat="45.6086646" lon="9.5248095"><ele>168.0</ele><time>2026-04-15T13:14:57.103Z</time></trkpt><trkpt lat="45.608726" lon="9.5247706"><ele>168.0</ele><time>2026-04-15T13:14:58.103Z</time></trkpt><trkpt lat="45.6088125" lon="9.5247646"><ele>168.0</ele><time>2026-04-15T13:14:59.103Z</time></trkpt><trkpt lat="45.608865" lon="9.5247079"><ele>168.0</ele><time>2026-04-15T13:15:00.104Z</time></trkpt><trkpt lat="45.6089138" lon="9.5246405"><ele>168.0</ele><time>2026-04-15T13:15:01.103Z</time></trkpt><trkpt lat="45.6089652" lon="9.5245743"><ele>168.60000000000002</ele><time>2026-04-15T13:15:02.103Z</time></trkpt><trkpt lat="45.6090222" lon="9.5245222"><ele>169.20000000000002</ele><time>2026-04-15T13:15:03.104Z</time></trkpt><trkpt lat="45.6090938" lon="9.5244917"><ele>169.8</ele><time>2026-04-15T13:15:04.103Z</time></trkpt><trkpt lat="45.6092104" lon="9.5244064"><ele>170.4</ele><time>2026-04-15T13:15:06.103Z</time></trkpt><trkpt lat="45.6093134" lon="9.5243033"><ele>171.0</ele><time>2026-04-15T13:15:08.104Z</time></trkpt><trkpt lat="45.6094323" lon="9.5242523"><ele>171.0</ele><time>2026-04-15T13:15:10.104Z</time></trkpt><trkpt lat="45.6094914" lon="9.5241979"><ele>171.0</ele><time>2026-04-15T13:15:11.103Z</time></trkpt><trkpt lat="45.6095614" lon="9.5241507"><ele>171.0</ele><time>2026-04-15T13:15:12.103Z</time></trkpt><trkpt lat="45.6096658" lon="9.5240869"><ele>171.0</ele><time>2026-04-15T13:15:14.103Z</time></trkpt><trkpt lat="45.6097249" lon="9.5240387"><ele>171.0</ele><time>2026-04-15T13:15:15.104Z</time></trkpt><trkpt lat="45.6097879" lon="9.5240173"><ele>171.0</ele><time>2026-04-15T13:15:16.104Z</time></trkpt><trkpt lat="45.6098595" lon="9.5239942"><ele>168.8</ele><time>2026-04-15T13:15:17.104Z</time></trkpt><trkpt lat="45.6099249" lon="9.523969"><ele>166.60000000000002</ele><time>2026-04-15T13:15:18.103Z</time></trkpt><trkpt lat="45.6100629" lon="9.5239331"><ele>164.4</ele><time>2026-04-15T13:15:20.103Z</time></trkpt><trkpt lat="45.6101677" lon="9.5238881"><ele>162.2</ele><time>2026-04-15T13:15:22.103Z</time></trkpt><trkpt lat="45.6102669" lon="9.5238215"><ele>160.0</ele><time>2026-04-15T13:15:24.103Z</time></trkpt><trkpt lat="45.6103297" lon="9.5237049"><ele>160.0</ele><time>2026-04-15T13:15:26.103Z</time></trkpt><trkpt lat="45.6103706" lon="9.5236357"><ele>160.0</ele><time>2026-04-15T13:15:28.103Z</time></trkpt><trkpt lat="45.6104744" lon="9.5235981"><ele>160.0</ele><time>2026-04-15T13:15:32.103Z</time></trkpt><trkpt lat="45.6105608" lon="9.5235687"><ele>160.0</ele><time>2026-04-15T13:15:35.103Z</time></trkpt><trkpt lat="45.6106326" lon="9.5235237"><ele>160.0</ele><time>2026-04-15T13:15:37.104Z</time></trkpt><trkpt lat="45.6107095" lon="9.5234943"><ele>160.0</ele><time>2026-04-15T13:15:39.104Z</time></trkpt><trkpt lat="45.6107862" lon="9.523463"><ele>160.0</ele><time>2026-04-15T13:15:41.104Z</time></trkpt><trkpt lat="45.6108631" lon="9.5233999"><ele>160.0</ele><time>2026-04-15T13:15:43.103Z</time></trkpt><trkpt lat="45.610941" lon="9.5233656"><ele>160.0</ele><time>2026-04-15T13:15:46.103Z</time></trkpt><trkpt lat="45.6110034" lon="9.5233467"><ele>160.0</ele><time>2026-04-15T13:15:48.103Z</time></trkpt><trkpt lat="45.6110666" lon="9.5233163"><ele>160.0</ele><time>2026-04-15T13:15:50.103Z</time></trkpt><trkpt lat="45.6111346" lon="9.5232666"><ele>160.0</ele><time>2026-04-15T13:15:52.103Z</time></trkpt><trkpt lat="45.6112057" lon="9.5232304"><ele>159.0</ele><time>2026-04-15T13:15:54.104Z</time></trkpt><trkpt lat="45.6112724" lon="9.5231877"><ele>158.0</ele><time>2026-04-15T13:15:56.104Z</time></trkpt><trkpt lat="45.6113397" lon="9.5231465"><ele>157.0</ele><time>2026-04-15T13:15:58.103Z</time></trkpt><trkpt lat="45.6114088" lon="9.5231098"><ele>156.0</ele><time>2026-04-15T13:16:00.102Z</time></trkpt><trkpt lat="45.6114743" lon="9.5230801"><ele>155.0</ele><time>2026-04-15T13:16:02.103Z</time></trkpt><trkpt lat="45.6115423" lon="9.523053"><ele>154.0</ele><time>2026-04-15T13:16:04.103Z</time></trkpt><trkpt lat="45.6116055" lon="9.5230192"><ele>153.0</ele><time>2026-04-15T13:16:06.103Z</time></trkpt><trkpt lat="45.611665" lon="9.5229872"><ele>153.0</ele><time>2026-04-15T13:16:08.103Z</time></trkpt><trkpt lat="45.6116073" lon="9.5229202"><ele>153.0</ele><time>2026-04-15T13:16:12.104Z</time></trkpt><trkpt lat="45.6115463" lon="9.5229449"><ele>153.0</ele><time>2026-04-15T13:16:14.104Z</time></trkpt><trkpt lat="45.6114713" lon="9.5229984"><ele>153.0</ele><time>2026-04-15T13:16:17.104Z</time></trkpt><trkpt lat="45.611386" lon="9.5230521"><ele>153.0</ele><time>2026-04-15T13:16:20.103Z</time></trkpt><trkpt lat="45.6113202" lon="9.5230749"><ele>153.0</ele><time>2026-04-15T13:16:22.103Z</time></trkpt><trkpt lat="45.6112593" lon="9.5231062"><ele>153.0</ele><time>2026-04-15T13:16:24.103Z</time></trkpt><trkpt lat="45.6111739" lon="9.5231394"><ele>153.0</ele><time>2026-04-15T13:16:27.104Z</time></trkpt><trkpt lat="45.6110893" lon="9.5231448"><ele>153.0</ele><time>2026-04-15T13:16:30.103Z</time></trkpt><trkpt lat="45.6110774" lon="9.5230509"><ele>153.0</ele><time>2026-04-15T13:16:33.103Z</time></trkpt><trkpt lat="45.6111182" lon="9.5229668"><ele>153.0</ele><time>2026-04-15T13:16:36.104Z</time></trkpt><trkpt lat="45.6112141" lon="9.5229455"><ele>153.0</ele><time>2026-04-15T13:16:39.104Z</time></trkpt><trkpt lat="45.6112847" lon="9.5229249"><ele>153.0</ele><time>2026-04-15T13:16:41.104Z</time></trkpt><trkpt lat="45.6113601" lon="9.5229007"><ele>153.0</ele><time>2026-04-15T13:16:43.103Z</time></trkpt><trkpt lat="45.6114331" lon="9.5228792"><ele>153.0</ele><time>2026-04-15T13:16:45.103Z</time></trkpt><trkpt lat="45.6114937" lon="9.5227973"><ele>153.0</ele><time>2026-04-15T13:16:48.103Z</time></trkpt><trkpt lat="45.6114137" lon="9.5227632"><ele>153.0</ele><time>2026-04-15T13:16:51.103Z</time></trkpt><trkpt lat="45.6113501" lon="9.5228006"><ele>153.0</ele><time>2026-04-15T13:16:53.103Z</time></trkpt><trkpt lat="45.6112744" lon="9.5228704"><ele>153.0</ele><time>2026-04-15T13:16:56.103Z</time></trkpt><trkpt lat="45.6112179" lon="9.5229131"><ele>154.16666666666666</ele><time>2026-04-15T13:16:58.104Z</time></trkpt><trkpt lat="45.6111358" lon="9.5229656"><ele>155.33333333333334</ele><time>2026-04-15T13:17:01.103Z</time></trkpt><trkpt lat="45.6110504" lon="9.5229822"><ele>156.5</ele><time>2026-04-15T13:17:04.103Z</time></trkpt><trkpt lat="45.6110314" lon="9.5228871"><ele>157.66666666666669</ele><time>2026-04-15T13:17:07.104Z</time></trkpt><trkpt lat="45.6110073" lon="9.522767"><ele>158.83333333333334</ele><time>2026-04-15T13:17:10.104Z</time></trkpt><trkpt lat="45.6109938" lon="9.5226741"><ele>160.0</ele><time>2026-04-15T13:17:12.103Z</time></trkpt><trkpt lat="45.6109817" lon="9.5225798"><ele>162.28571428571428</ele><time>2026-04-15T13:17:14.104Z</time></trkpt><trkpt lat="45.610967" lon="9.5224892"><ele>164.57142857142858</ele><time>2026-04-15T13:17:16.103Z</time></trkpt><trkpt lat="45.6109564" lon="9.5223993"><ele>166.85714285714286</ele><time>2026-04-15T13:17:18.104Z</time></trkpt><trkpt lat="45.6109458" lon="9.5223046"><ele>169.14285714285714</ele><time>2026-04-15T13:17:20.103Z</time></trkpt><trkpt lat="45.6109167" lon="9.5222216"><ele>171.42857142857142</ele><time>2026-04-15T13:17:22.103Z</time></trkpt><trkpt lat="45.6108565" lon="9.5221749"><ele>173.71428571428572</ele><time>2026-04-15T13:17:24.104Z</time></trkpt><trkpt lat="45.6107759" lon="9.5221606"><ele>176.0</ele><time>2026-04-15T13:17:27.103Z</time></trkpt><trkpt lat="45.6107091" lon="9.5221027"><ele>175.83333333333331</ele><time>2026-04-15T13:17:29.103Z</time></trkpt><trkpt lat="45.6106586" lon="9.5219935"><ele>175.66666666666666</ele><time>2026-04-15T13:17:32.103Z</time></trkpt><trkpt lat="45.6106647" lon="9.5218884"><ele>175.5</ele><time>2026-04-15T13:17:34.103Z</time></trkpt><trkpt lat="45.610663" lon="9.5217262"><ele>175.33333333333334</ele><time>2026-04-15T13:17:36.103Z</time></trkpt><trkpt lat="45.6106868" lon="9.5216345"><ele>175.16666666666669</ele><time>2026-04-15T13:17:37.103Z</time></trkpt><trkpt lat="45.6107215" lon="9.5215307"><ele>175.0</ele><time>2026-04-15T13:17:38.104Z</time></trkpt><trkpt lat="45.6107519" lon="9.5213599"><ele>175.33333333333334</ele><time>2026-04-15T13:17:40.103Z</time></trkpt><trkpt lat="45.6108134" lon="9.5212129"><ele>175.66666666666669</ele><time>2026-04-15T13:17:42.103Z</time></trkpt><trkpt lat="45.6109002" lon="9.521119"><ele>176.0</ele><time>2026-04-15T13:17:44.103Z</time></trkpt><trkpt lat="45.610969" lon="9.5210789"><ele>176.33333333333334</ele><time>2026-04-15T13:17:45.103Z</time></trkpt><trkpt lat="45.6110252" lon="9.5210218"><ele>176.66666666666666</ele><time>2026-04-15T13:17:46.104Z</time></trkpt><trkpt lat="45.6110857" lon="9.5209641"><ele>177.0</ele><time>2026-04-15T13:17:47.103Z</time></trkpt><trkpt lat="45.611155" lon="9.5209135"><ele>173.5</ele><time>2026-04-15T13:17:48.103Z</time></trkpt><trkpt lat="45.6112065" lon="9.5208502"><ele>170.0</ele><time>2026-04-15T13:17:49.103Z</time></trkpt><trkpt lat="45.6112458" lon="9.5207675"><ele>166.5</ele><time>2026-04-15T13:17:50.103Z</time></trkpt><trkpt lat="45.6113037" lon="9.5207053"><ele>163.0</ele><time>2026-04-15T13:17:51.103Z</time></trkpt><trkpt lat="45.611364" lon="9.5206095"><ele>159.5</ele><time>2026-04-15T13:17:52.103Z</time></trkpt><trkpt lat="45.6114147" lon="9.520529"><ele>156.0</ele><time>2026-04-15T13:17:53.103Z</time></trkpt><trkpt lat="45.6114756" lon="9.5204299"><ele>156.66666666666666</ele><time>2026-04-15T13:17:54.103Z</time></trkpt><trkpt lat="45.6115325" lon="9.5203671"><ele>157.33333333333334</ele><time>2026-04-15T13:17:55.103Z</time></trkpt><trkpt lat="45.6116045" lon="9.5203022"><ele>158.0</ele><time>2026-04-15T13:17:56.103Z</time></trkpt><trkpt lat="45.6116364" lon="9.5202053"><ele>158.66666666666669</ele><time>2026-04-15T13:17:57.103Z</time></trkpt><trkpt lat="45.6116892" lon="9.520118"><ele>159.33333333333334</ele><time>2026-04-15T13:17:58.103Z</time></trkpt><trkpt lat="45.6117402" lon="9.5200324"><ele>160.0</ele><time>2026-04-15T13:17:59.103Z</time></trkpt><trkpt lat="45.6117766" lon="9.5199431"><ele>160.0</ele><time>2026-04-15T13:18:00.103Z</time></trkpt><trkpt lat="45.6118223" lon="9.5198472"><ele>160.0</ele><time>2026-04-15T13:18:01.103Z</time></trkpt><trkpt lat="45.6118522" lon="9.5197455"><ele>160.0</ele><time>2026-04-15T13:18:02.103Z</time></trkpt><trkpt lat="45.6118773" lon="9.5196439"><ele>160.0</ele><time>2026-04-15T13:18:03.104Z</time></trkpt><trkpt lat="45.6119086" lon="9.5194749"><ele>160.0</ele><time>2026-04-15T13:18:05.104Z</time></trkpt><trkpt lat="45.6119279" lon="9.5193852"><ele>160.0</ele><time>2026-04-15T13:18:06.104Z</time></trkpt><trkpt lat="45.6119689" lon="9.5192193"><ele>157.8</ele><time>2026-04-15T13:18:08.103Z</time></trkpt><trkpt lat="45.6119929" lon="9.5190435"><ele>155.6</ele><time>2026-04-15T13:18:10.104Z</time></trkpt><trkpt lat="45.6120058" lon="9.5189444"><ele>153.4</ele><time>2026-04-15T13:18:11.103Z</time></trkpt><trkpt lat="45.6120245" lon="9.5188467"><ele>151.2</ele><time>2026-04-15T13:18:12.103Z</time></trkpt><trkpt lat="45.6120595" lon="9.5186786"><ele>149.0</ele><time>2026-04-15T13:18:14.103Z</time></trkpt><trkpt lat="45.6120821" lon="9.5185712"><ele>149.0</ele><time>2026-04-15T13:18:15.103Z</time></trkpt><trkpt lat="45.6121233" lon="9.5184667"><ele>149.0</ele><time>2026-04-15T13:18:16.103Z</time></trkpt><trkpt lat="45.6121423" lon="9.5183747"><ele>149.0</ele><time>2026-04-15T13:18:17.104Z</time></trkpt><trkpt lat="45.6121855" lon="9.5182005"><ele>149.0</ele><time>2026-04-15T13:18:19.104Z</time></trkpt><trkpt lat="45.6122025" lon="9.5181114"><ele>149.0</ele><time>2026-04-15T13:18:20.103Z</time></trkpt><trkpt lat="45.6122267" lon="9.518022"><ele>149.0</ele><time>2026-04-15T13:18:21.103Z</time></trkpt><trkpt lat="45.6122769" lon="9.5178575"><ele>150.0</ele><time>2026-04-15T13:18:23.104Z</time></trkpt><trkpt lat="45.6123332" lon="9.5176853"><ele>151.0</ele><time>2026-04-15T13:18:25.103Z</time></trkpt><trkpt lat="45.6123699" lon="9.5176039"><ele>152.0</ele><time>2026-04-15T13:18:26.103Z</time></trkpt><trkpt lat="45.6124481" lon="9.5174779"><ele>153.0</ele><time>2026-04-15T13:18:28.103Z</time></trkpt><trkpt lat="45.6124911" lon="9.5173902"><ele>154.0</ele><time>2026-04-15T13:18:29.103Z</time></trkpt><trkpt lat="45.6125317" lon="9.5173206"><ele>154.0</ele><time>2026-04-15T13:18:30.103Z</time></trkpt><trkpt lat="45.6125696" lon="9.5172445"><ele>154.0</ele><time>2026-04-15T13:18:31.103Z</time></trkpt><trkpt lat="45.6126149" lon="9.5171742"><ele>154.0</ele><time>2026-04-15T13:18:32.103Z</time></trkpt><trkpt lat="45.6127143" lon="9.5171385"><ele>154.0</ele><time>2026-04-15T13:18:33.103Z</time></trkpt><trkpt lat="45.6127891" lon="9.5170191"><ele>154.0</ele><time>2026-04-15T13:18:35.103Z</time></trkpt><trkpt lat="45.6128781" lon="9.5169212"><ele>156.0</ele><time>2026-04-15T13:18:37.104Z</time></trkpt><trkpt lat="45.6129563" lon="9.5169072"><ele>158.0</ele><time>2026-04-15T13:18:38.104Z</time></trkpt><trkpt lat="45.6130042" lon="9.516841"><ele>160.0</ele><time>2026-04-15T13:18:39.103Z</time></trkpt><trkpt lat="45.6130905" lon="9.5167243"><ele>162.0</ele><time>2026-04-15T13:18:41.103Z</time></trkpt><trkpt lat="45.6131937" lon="9.5166392"><ele>164.0</ele><time>2026-04-15T13:18:43.103Z</time></trkpt><trkpt lat="45.6132485" lon="9.5165782"><ele>164.0</ele><time>2026-04-15T13:18:45.104Z</time></trkpt><trkpt lat="45.6133123" lon="9.5165337"><ele>164.0</ele><time>2026-04-15T13:18:46.103Z</time></trkpt><trkpt lat="45.6134098" lon="9.5164887"><ele>164.0</ele><time>2026-04-15T13:18:48.104Z</time></trkpt><trkpt lat="45.6135314" lon="9.5164141"><ele>164.0</ele><time>2026-04-15T13:18:50.104Z</time></trkpt><trkpt lat="45.6136149" lon="9.5163581"><ele>164.0</ele><time>2026-04-15T13:18:51.103Z</time></trkpt><trkpt lat="45.6136828" lon="9.5163314"><ele>165.16666666666666</ele><time>2026-04-15T13:18:52.104Z</time></trkpt><trkpt lat="45.613765" lon="9.5163025"><ele>166.33333333333331</ele><time>2026-04-15T13:18:53.103Z</time></trkpt><trkpt lat="45.6138469" lon="9.5162641"><ele>167.5</ele><time>2026-04-15T13:18:54.103Z</time></trkpt><trkpt lat="45.6139217" lon="9.5162383"><ele>168.66666666666666</ele><time>2026-04-15T13:18:55.104Z</time></trkpt><trkpt lat="45.6140002" lon="9.5161897"><ele>169.83333333333334</ele><time>2026-04-15T13:18:56.103Z</time></trkpt><trkpt lat="45.6140749" lon="9.5161725"><ele>171.0</ele><time>2026-04-15T13:18:57.103Z</time></trkpt><trkpt lat="45.6141491" lon="9.5161366"><ele>171.0</ele><time>2026-04-15T13:18:58.103Z</time></trkpt><trkpt lat="45.6142175" lon="9.5160947"><ele>171.0</ele><time>2026-04-15T13:18:59.103Z</time></trkpt><trkpt lat="45.6143017" lon="9.5160927"><ele>171.0</ele><time>2026-04-15T13:19:00.104Z</time></trkpt><trkpt lat="45.6143723" lon="9.5160602"><ele>171.0</ele><time>2026-04-15T13:19:01.104Z</time></trkpt><trkpt lat="45.6144529" lon="9.516016"><ele>171.0</ele><time>2026-04-15T13:19:02.103Z</time></trkpt><trkpt lat="45.6145223" lon="9.5159962"><ele>171.0</ele><time>2026-04-15T13:19:03.104Z</time></trkpt><trkpt lat="45.6145815" lon="9.5159469"><ele>168.83333333333334</ele><time>2026-04-15T13:19:04.103Z</time></trkpt><trkpt lat="45.6146494" lon="9.5159351"><ele>166.66666666666666</ele><time>2026-04-15T13:19:05.104Z</time></trkpt><trkpt lat="45.6147304" lon="9.5159142"><ele>164.5</ele><time>2026-04-15T13:19:06.103Z</time></trkpt><trkpt lat="45.6148505" lon="9.5159196"><ele>162.33333333333331</ele><time>2026-04-15T13:19:08.104Z</time></trkpt><trkpt lat="45.6149128" lon="9.5159343"><ele>160.16666666666666</ele><time>2026-04-15T13:19:09.103Z</time></trkpt><trkpt lat="45.6150065" lon="9.5159426"><ele>158.0</ele><time>2026-04-15T13:19:10.103Z</time></trkpt><trkpt lat="45.6150769" lon="9.5159372"><ele>158.0</ele><time>2026-04-15T13:19:11.104Z</time></trkpt><trkpt lat="45.6152084" lon="9.5159553"><ele>158.0</ele><time>2026-04-15T13:19:13.103Z</time></trkpt><trkpt lat="45.6152923" lon="9.5159688"><ele>158.0</ele><time>2026-04-15T13:19:14.103Z</time></trkpt><trkpt lat="45.6154058" lon="9.5159898"><ele>158.0</ele><time>2026-04-15T13:19:16.104Z</time></trkpt><trkpt lat="45.6154747" lon="9.5160028"><ele>158.0</ele><time>2026-04-15T13:19:17.103Z</time></trkpt><trkpt lat="45.615551" lon="9.5159796"><ele>157.66666666666666</ele><time>2026-04-15T13:19:19.103Z</time></trkpt><trkpt lat="45.6156252" lon="9.5159922"><ele>157.33333333333331</ele><time>2026-04-15T13:19:20.104Z</time></trkpt><trkpt lat="45.6157034" lon="9.5160078"><ele>157.0</ele><time>2026-04-15T13:19:21.103Z</time></trkpt><trkpt lat="45.6157943" lon="9.5160424"><ele>156.66666666666666</ele><time>2026-04-15T13:19:22.104Z</time></trkpt><trkpt lat="45.6158535" lon="9.5160762"><ele>156.33333333333334</ele><time>2026-04-15T13:19:23.103Z</time></trkpt><trkpt lat="45.6159802" lon="9.5161388"><ele>156.0</ele><time>2026-04-15T13:19:25.104Z</time></trkpt><trkpt lat="45.6160556" lon="9.5161744"><ele>156.0</ele><time>2026-04-15T13:19:26.103Z</time></trkpt><trkpt lat="45.6161356" lon="9.5162046"><ele>156.0</ele><time>2026-04-15T13:19:27.103Z</time></trkpt><trkpt lat="45.6162057" lon="9.5162348"><ele>156.0</ele><time>2026-04-15T13:19:28.103Z</time></trkpt><trkpt lat="45.6162689" lon="9.5162764"><ele>156.0</ele><time>2026-04-15T13:19:29.103Z</time></trkpt><trkpt lat="45.6163824" lon="9.5162778"><ele>156.0</ele><time>2026-04-15T13:19:31.103Z</time></trkpt><trkpt lat="45.6164439" lon="9.5163092"><ele>156.0</ele><time>2026-04-15T13:19:32.103Z</time></trkpt><trkpt lat="45.6165571" lon="9.5162761"><ele>155.5</ele><time>2026-04-15T13:19:34.104Z</time></trkpt><trkpt lat="45.6166239" lon="9.5163173"><ele>155.0</ele><time>2026-04-15T13:19:35.103Z</time></trkpt><trkpt lat="45.6166958" lon="9.5163476"><ele>154.5</ele><time>2026-04-15T13:19:36.103Z</time></trkpt><trkpt lat="45.6167745" lon="9.5163466"><ele>154.0</ele><time>2026-04-15T13:19:37.103Z</time></trkpt><trkpt lat="45.6168552" lon="9.516358"><ele>153.5</ele><time>2026-04-15T13:19:38.104Z</time></trkpt><trkpt lat="45.6169165" lon="9.5163815"><ele>153.0</ele><time>2026-04-15T13:19:39.103Z</time></trkpt><trkpt lat="45.6170237" lon="9.5164032"><ele>153.0</ele><time>2026-04-15T13:19:41.103Z</time></trkpt><trkpt lat="45.6170877" lon="9.5164159"><ele>153.0</ele><time>2026-04-15T13:19:42.104Z</time></trkpt><trkpt lat="45.6171942" lon="9.5164752"><ele>153.0</ele><time>2026-04-15T13:19:44.104Z</time></trkpt><trkpt lat="45.6172543" lon="9.5165117"><ele>153.0</ele><time>2026-04-15T13:19:45.103Z</time></trkpt><trkpt lat="45.617373" lon="9.5165429"><ele>153.0</ele><time>2026-04-15T13:19:47.103Z</time></trkpt><trkpt lat="45.6174885" lon="9.5165637"><ele>153.0</ele><time>2026-04-15T13:19:49.103Z</time></trkpt><trkpt lat="45.6175797" lon="9.5165908"><ele>153.0</ele><time>2026-04-15T13:19:51.103Z</time></trkpt><trkpt lat="45.6176449" lon="9.5166436"><ele>153.0</ele><time>2026-04-15T13:19:52.103Z</time></trkpt><trkpt lat="45.6177235" lon="9.5166767"><ele>153.0</ele><time>2026-04-15T13:19:53.104Z</time></trkpt><trkpt lat="45.617792" lon="9.5166918"><ele>153.0</ele><time>2026-04-15T13:19:54.103Z</time></trkpt><trkpt lat="45.6178549" lon="9.5167146"><ele>153.0</ele><time>2026-04-15T13:19:55.104Z</time></trkpt><trkpt lat="45.6179235" lon="9.5167315"><ele>153.0</ele><time>2026-04-15T13:19:56.103Z</time></trkpt><trkpt lat="45.6179928" lon="9.5167525"><ele>153.0</ele><time>2026-04-15T13:19:57.103Z</time></trkpt><trkpt lat="45.6180629" lon="9.5167843"><ele>153.0</ele><time>2026-04-15T13:19:58.103Z</time></trkpt><trkpt lat="45.6181546" lon="9.5168035"><ele>153.0</ele><time>2026-04-15T13:19:59.104Z</time></trkpt><trkpt lat="45.618283" lon="9.51683"><ele>153.0</ele><time>2026-04-15T13:20:01.104Z</time></trkpt><trkpt lat="45.6183559" lon="9.5168543"><ele>153.0</ele><time>2026-04-15T13:20:02.104Z</time></trkpt><trkpt lat="45.6184847" lon="9.5168856"><ele>153.0</ele><time>2026-04-15T13:20:04.103Z</time></trkpt><trkpt lat="45.6185536" lon="9.5169143"><ele>153.0</ele><time>2026-04-15T13:20:05.104Z</time></trkpt><trkpt lat="45.6186223" lon="9.5169375"><ele>153.0</ele><time>2026-04-15T13:20:06.103Z</time></trkpt><trkpt lat="45.6186847" lon="9.5169787"><ele>153.0</ele><time>2026-04-15T13:20:07.104Z</time></trkpt><trkpt lat="45.6187543" lon="9.5170216"><ele>153.0</ele><time>2026-04-15T13:20:08.103Z</time></trkpt><trkpt lat="45.6188216" lon="9.5170419"><ele>153.0</ele><time>2026-04-15T13:20:09.103Z</time></trkpt><trkpt lat="45.6188776" lon="9.5170893"><ele>153.0</ele><time>2026-04-15T13:20:10.104Z</time></trkpt><trkpt lat="45.6190632" lon="9.5171143"><ele>153.0</ele><time>2026-04-15T13:20:14.104Z</time></trkpt><trkpt lat="45.6191759" lon="9.5171369"><ele>153.0</ele><time>2026-04-15T13:20:16.103Z</time></trkpt><trkpt lat="45.619244" lon="9.5171633"><ele>153.0</ele><time>2026-04-15T13:20:17.104Z</time></trkpt><trkpt lat="45.619368" lon="9.5172007"><ele>153.0</ele><time>2026-04-15T13:20:19.103Z</time></trkpt><trkpt lat="45.6194292" lon="9.5172218"><ele>153.0</ele><time>2026-04-15T13:20:20.103Z</time></trkpt><trkpt lat="45.6195227" lon="9.517253"><ele>153.0</ele><time>2026-04-15T13:20:22.104Z</time></trkpt><trkpt lat="45.6195876" lon="9.5172677"><ele>153.0</ele><time>2026-04-15T13:20:23.103Z</time></trkpt><trkpt lat="45.6196558" lon="9.5172883"><ele>153.0</ele><time>2026-04-15T13:20:24.103Z</time></trkpt><trkpt lat="45.6197197" lon="9.5172956"><ele>153.0</ele><time>2026-04-15T13:20:25.103Z</time></trkpt><trkpt lat="45.6197869" lon="9.5173098"><ele>153.0</ele><time>2026-04-15T13:20:26.103Z</time></trkpt><trkpt lat="45.6199153" lon="9.5173197"><ele>153.0</ele><time>2026-04-15T13:20:28.103Z</time></trkpt><trkpt lat="45.6199799" lon="9.5173344"><ele>153.0</ele><time>2026-04-15T13:20:29.104Z</time></trkpt><trkpt lat="45.6200486" lon="9.5173465"><ele>153.0</ele><time>2026-04-15T13:20:30.103Z</time></trkpt><trkpt lat="45.6201761" lon="9.5173568"><ele>153.0</ele><time>2026-04-15T13:20:32.103Z</time></trkpt><trkpt lat="45.6202487" lon="9.5173754"><ele>153.0</ele><time>2026-04-15T13:20:33.103Z</time></trkpt><trkpt lat="45.6203171" lon="9.5173855"><ele>153.0</ele><time>2026-04-15T13:20:34.103Z</time></trkpt><trkpt lat="45.6204294" lon="9.5174057"><ele>153.20000000000002</ele><time>2026-04-15T13:20:36.104Z</time></trkpt><trkpt lat="45.6205031" lon="9.5174231"><ele>153.4</ele><time>2026-04-15T13:20:37.104Z</time></trkpt><trkpt lat="45.6206078" lon="9.5174863"><ele>153.60000000000002</ele><time>2026-04-15T13:20:39.103Z</time></trkpt><trkpt lat="45.6206688" lon="9.5175166"><ele>153.8</ele><time>2026-04-15T13:20:40.103Z</time></trkpt><trkpt lat="45.6207349" lon="9.517573"><ele>154.0</ele><time>2026-04-15T13:20:41.103Z</time></trkpt><trkpt lat="45.6208617" lon="9.5176033"><ele>154.0</ele><time>2026-04-15T13:20:43.103Z</time></trkpt><trkpt lat="45.6209524" lon="9.5175854"><ele>154.0</ele><time>2026-04-15T13:20:44.103Z</time></trkpt><trkpt lat="45.6210135" lon="9.517543"><ele>154.0</ele><time>2026-04-15T13:20:45.103Z</time></trkpt><trkpt lat="45.6211622" lon="9.5175763"><ele>154.0</ele><time>2026-04-15T13:20:47.104Z</time></trkpt><trkpt lat="45.6212251" lon="9.5175819"><ele>154.0</ele><time>2026-04-15T13:20:48.103Z</time></trkpt><trkpt lat="45.6213412" lon="9.5175894"><ele>153.25</ele><time>2026-04-15T13:20:50.103Z</time></trkpt><trkpt lat="45.6214483" lon="9.5175639"><ele>152.5</ele><time>2026-04-15T13:20:52.103Z</time></trkpt><trkpt lat="45.6215578" lon="9.5175324"><ele>151.75</ele><time>2026-04-15T13:20:54.103Z</time></trkpt><trkpt lat="45.6216649" lon="9.5174867"><ele>151.0</ele><time>2026-04-15T13:20:56.103Z</time></trkpt><trkpt lat="45.6217892" lon="9.5174404"><ele>151.0</ele><time>2026-04-15T13:20:58.103Z</time></trkpt><trkpt lat="45.6218489" lon="9.517407"><ele>151.0</ele><time>2026-04-15T13:20:59.103Z</time></trkpt><trkpt lat="45.621911" lon="9.5173875"><ele>151.0</ele><time>2026-04-15T13:21:00.103Z</time></trkpt><trkpt lat="45.6219707" lon="9.5173575"><ele>151.0</ele><time>2026-04-15T13:21:01.103Z</time></trkpt><trkpt lat="45.622031" lon="9.5173245"><ele>151.0</ele><time>2026-04-15T13:21:02.103Z</time></trkpt><trkpt lat="45.6221547" lon="9.5172646"><ele>151.0</ele><time>2026-04-15T13:21:04.103Z</time></trkpt><trkpt lat="45.62222" lon="9.5172467"><ele>150.71428571428572</ele><time>2026-04-15T13:21:05.103Z</time></trkpt><trkpt lat="45.6222826" lon="9.5172108"><ele>150.42857142857144</ele><time>2026-04-15T13:21:06.103Z</time></trkpt><trkpt lat="45.6223456" lon="9.5171878"><ele>150.14285714285714</ele><time>2026-04-15T13:21:07.104Z</time></trkpt><trkpt lat="45.6224109" lon="9.517154"><ele>149.85714285714286</ele><time>2026-04-15T13:21:08.103Z</time></trkpt><trkpt lat="45.6224773" lon="9.5171443"><ele>149.57142857142856</ele><time>2026-04-15T13:21:09.103Z</time></trkpt><trkpt lat="45.6225403" lon="9.5171346"><ele>149.28571428571428</ele><time>2026-04-15T13:21:10.104Z</time></trkpt><trkpt lat="45.6226066" lon="9.5171018"><ele>149.0</ele><time>2026-04-15T13:21:11.104Z</time></trkpt><trkpt lat="45.6227179" lon="9.5170693"><ele>149.0</ele><time>2026-04-15T13:21:13.104Z</time></trkpt><trkpt lat="45.62281" lon="9.5170711"><ele>149.0</ele><time>2026-04-15T13:21:15.284Z</time></trkpt><trkpt lat="45.6229944" lon="9.5170077"><ele>149.0</ele><time>2026-04-15T13:21:18.097Z</time></trkpt><trkpt lat="45.6230586" lon="9.5169627"><ele>149.0</ele><time>2026-04-15T13:21:19.096Z</time></trkpt><trkpt lat="45.6231796" lon="9.5169011"><ele>149.5</ele><time>2026-04-15T13:21:21.093Z</time></trkpt><trkpt lat="45.623251" lon="9.5168675"><ele>150.0</ele><time>2026-04-15T13:21:22.098Z</time></trkpt><trkpt lat="45.6233063" lon="9.5168203"><ele>150.5</ele><time>2026-04-15T13:21:23.098Z</time></trkpt><trkpt lat="45.6234136" lon="9.5167257"><ele>151.0</ele><time>2026-04-15T13:21:25.098Z</time></trkpt><trkpt lat="45.623482" lon="9.5166381"><ele>151.5</ele><time>2026-04-15T13:21:26.099Z</time></trkpt><trkpt lat="45.6235311" lon="9.5165756"><ele>152.0</ele><time>2026-04-15T13:21:27.098Z</time></trkpt><trkpt lat="45.6235895" lon="9.5165103"><ele>152.2</ele><time>2026-04-15T13:21:28.098Z</time></trkpt><trkpt lat="45.6236512" lon="9.5164244"><ele>152.39999999999998</ele><time>2026-04-15T13:21:29.099Z</time></trkpt><trkpt lat="45.623711" lon="9.5163385"><ele>152.60000000000002</ele><time>2026-04-15T13:21:30.099Z</time></trkpt><trkpt lat="45.6238166" lon="9.5162388"><ele>152.8</ele><time>2026-04-15T13:21:32.098Z</time></trkpt><trkpt lat="45.6238931" lon="9.5162031"><ele>153.0</ele><time>2026-04-15T13:21:33.098Z</time></trkpt><trkpt lat="45.6239905" lon="9.5161063"><ele>152.6</ele><time>2026-04-15T13:21:35.098Z</time></trkpt><trkpt lat="45.6240375" lon="9.5159973"><ele>152.20000000000002</ele><time>2026-04-15T13:21:37.099Z</time></trkpt><trkpt lat="45.6241187" lon="9.5158682"><ele>151.8</ele><time>2026-04-15T13:21:39.098Z</time></trkpt><trkpt lat="45.6242182" lon="9.5158244"><ele>151.4</ele><time>2026-04-15T13:21:40.099Z</time></trkpt><trkpt lat="45.6242197" lon="9.5157331"><ele>151.0</ele><time>2026-04-15T13:21:41.098Z</time></trkpt><trkpt lat="45.6242818" lon="9.5156794"><ele>151.0</ele><time>2026-04-15T13:21:42.098Z</time></trkpt><trkpt lat="45.6243454" lon="9.5155537"><ele>151.0</ele><time>2026-04-15T13:21:43.098Z</time></trkpt><trkpt lat="45.6244019" lon="9.5154968"><ele>151.0</ele><time>2026-04-15T13:21:44.098Z</time></trkpt><trkpt lat="45.6245073" lon="9.5154048"><ele>151.0</ele><time>2026-04-15T13:21:46.098Z</time></trkpt><trkpt lat="45.6245495" lon="9.5153311"><ele>151.0</ele><time>2026-04-15T13:21:47.098Z</time></trkpt><trkpt lat="45.624575" lon="9.5152383"><ele>151.0</ele><time>2026-04-15T13:21:48.099Z</time></trkpt><trkpt lat="45.6246553" lon="9.5151141"><ele>150.85714285714286</ele><time>2026-04-15T13:21:50.098Z</time></trkpt><trkpt lat="45.6247098" lon="9.5150351"><ele>150.71428571428572</ele><time>2026-04-15T13:21:51.098Z</time></trkpt><trkpt lat="45.6247282" lon="9.5149195"><ele>150.57142857142856</ele><time>2026-04-15T13:21:52.098Z</time></trkpt><trkpt lat="45.6247662" lon="9.5148411"><ele>150.42857142857144</ele><time>2026-04-15T13:21:53.098Z</time></trkpt><trkpt lat="45.6247946" lon="9.514759"><ele>150.28571428571428</ele><time>2026-04-15T13:21:54.099Z</time></trkpt><trkpt lat="45.624809" lon="9.5146639"><ele>150.14285714285714</ele><time>2026-04-15T13:21:55.098Z</time></trkpt><trkpt lat="45.624817" lon="9.5145698"><ele>150.0</ele><time>2026-04-15T13:21:56.098Z</time></trkpt><trkpt lat="45.6248153" lon="9.5144606"><ele>150.0</ele><time>2026-04-15T13:21:57.098Z</time></trkpt><trkpt lat="45.6248361" lon="9.5143743"><ele>150.0</ele><time>2026-04-15T13:21:58.099Z</time></trkpt><trkpt lat="45.6248545" lon="9.5142785"><ele>150.0</ele><time>2026-04-15T13:21:59.098Z</time></trkpt><trkpt lat="45.6248676" lon="9.5140898"><ele>150.0</ele><time>2026-04-15T13:22:01.098Z</time></trkpt><trkpt lat="45.6248889" lon="9.51399"><ele>150.0</ele><time>2026-04-15T13:22:02.098Z</time></trkpt><trkpt lat="45.6248951" lon="9.5138942"><ele>150.0</ele><time>2026-04-15T13:22:03.098Z</time></trkpt><trkpt lat="45.6249091" lon="9.5137956"><ele>150.2</ele><time>2026-04-15T13:22:04.098Z</time></trkpt><trkpt lat="45.6249407" lon="9.5136329"><ele>150.4</ele><time>2026-04-15T13:22:06.098Z</time></trkpt><trkpt lat="45.6249492" lon="9.5134518"><ele>150.6</ele><time>2026-04-15T13:22:08.099Z</time></trkpt><trkpt lat="45.6249742" lon="9.5133644"><ele>150.8</ele><time>2026-04-15T13:22:09.098Z</time></trkpt><trkpt lat="45.6249697" lon="9.5132478"><ele>151.0</ele><time>2026-04-15T13:22:10.098Z</time></trkpt><trkpt lat="45.6249933" lon="9.5131471"><ele>151.0</ele><time>2026-04-15T13:22:11.098Z</time></trkpt><trkpt lat="45.6250294" lon="9.5129694"><ele>151.0</ele><time>2026-04-15T13:22:13.098Z</time></trkpt><trkpt lat="45.6250534" lon="9.5127875"><ele>151.0</ele><time>2026-04-15T13:22:15.098Z</time></trkpt><trkpt lat="45.6250712" lon="9.512615"><ele>151.0</ele><time>2026-04-15T13:22:17.098Z</time></trkpt><trkpt lat="45.6250976" lon="9.5124391"><ele>151.6</ele><time>2026-04-15T13:22:19.099Z</time></trkpt><trkpt lat="45.6251294" lon="9.5122686"><ele>152.2</ele><time>2026-04-15T13:22:21.098Z</time></trkpt><trkpt lat="45.6251481" lon="9.5121602"><ele>152.8</ele><time>2026-04-15T13:22:22.098Z</time></trkpt><trkpt lat="45.6251743" lon="9.5120585"><ele>153.4</ele><time>2026-04-15T13:22:23.098Z</time></trkpt><trkpt lat="45.6252053" lon="9.5118717"><ele>154.0</ele><time>2026-04-15T13:22:25.098Z</time></trkpt><trkpt lat="45.6252403" lon="9.5117604"><ele>154.2</ele><time>2026-04-15T13:22:26.099Z</time></trkpt><trkpt lat="45.6252561" lon="9.5116677"><ele>154.4</ele><time>2026-04-15T13:22:27.098Z</time></trkpt><trkpt lat="45.6252678" lon="9.5115708"><ele>154.6</ele><time>2026-04-15T13:22:28.098Z</time></trkpt><trkpt lat="45.6252844" lon="9.5114053"><ele>154.8</ele><time>2026-04-15T13:22:30.098Z</time></trkpt><trkpt lat="45.6252965" lon="9.5113105"><ele>155.0</ele><time>2026-04-15T13:22:31.098Z</time></trkpt><trkpt lat="45.6253305" lon="9.5111175"><ele>154.66666666666666</ele><time>2026-04-15T13:22:33.098Z</time></trkpt><trkpt lat="45.6253534" lon="9.5110235"><ele>154.33333333333331</ele><time>2026-04-15T13:22:34.098Z</time></trkpt><trkpt lat="45.6253756" lon="9.510923"><ele>154.0</ele><time>2026-04-15T13:22:35.098Z</time></trkpt><trkpt lat="45.6253975" lon="9.5108205"><ele>153.66666666666666</ele><time>2026-04-15T13:22:36.099Z</time></trkpt><trkpt lat="45.6254165" lon="9.5107309"><ele>153.33333333333334</ele><time>2026-04-15T13:22:37.099Z</time></trkpt><trkpt lat="45.6254604" lon="9.5105539"><ele>153.0</ele><time>2026-04-15T13:22:39.099Z</time></trkpt><trkpt lat="45.6254964" lon="9.5104716"><ele>153.16666666666666</ele><time>2026-04-15T13:22:40.099Z</time></trkpt><trkpt lat="45.6255137" lon="9.510382"><ele>153.33333333333334</ele><time>2026-04-15T13:22:41.098Z</time></trkpt><trkpt lat="45.6255662" lon="9.5102162"><ele>153.5</ele><time>2026-04-15T13:22:43.098Z</time></trkpt><trkpt lat="45.6255893" lon="9.5101253"><ele>153.66666666666669</ele><time>2026-04-15T13:22:44.098Z</time></trkpt><trkpt lat="45.6255875" lon="9.5100299"><ele>153.83333333333334</ele><time>2026-04-15T13:22:45.098Z</time></trkpt><trkpt lat="45.6256029" lon="9.5099212"><ele>154.0</ele><time>2026-04-15T13:22:46.098Z</time></trkpt><trkpt lat="45.6256246" lon="9.5098311"><ele>154.0</ele><time>2026-04-15T13:22:47.099Z</time></trkpt><trkpt lat="45.6256454" lon="9.5096511"><ele>154.0</ele><time>2026-04-15T13:22:49.099Z</time></trkpt><trkpt lat="45.6256562" lon="9.5095372"><ele>154.0</ele><time>2026-04-15T13:22:50.098Z</time></trkpt><trkpt lat="45.6256823" lon="9.5094464"><ele>154.0</ele><time>2026-04-15T13:22:51.098Z</time></trkpt><trkpt lat="45.6257074" lon="9.5093394"><ele>154.0</ele><time>2026-04-15T13:22:52.098Z</time></trkpt><trkpt lat="45.6257208" lon="9.5092338"><ele>154.0</ele><time>2026-04-15T13:22:53.099Z</time></trkpt><trkpt lat="45.6257378" lon="9.5091362"><ele>154.28571428571428</ele><time>2026-04-15T13:22:54.099Z</time></trkpt><trkpt lat="45.6257556" lon="9.5090399"><ele>154.57142857142856</ele><time>2026-04-15T13:22:55.099Z</time></trkpt><trkpt lat="45.6257853" lon="9.5089412"><ele>154.85714285714286</ele><time>2026-04-15T13:22:56.098Z</time></trkpt><trkpt lat="45.6258036" lon="9.5088432"><ele>155.14285714285714</ele><time>2026-04-15T13:22:57.098Z</time></trkpt><trkpt lat="45.6258254" lon="9.508738"><ele>155.42857142857142</ele><time>2026-04-15T13:22:58.098Z</time></trkpt><trkpt lat="45.6258451" lon="9.5086441"><ele>155.71428571428572</ele><time>2026-04-15T13:22:59.098Z</time></trkpt><trkpt lat="45.6258614" lon="9.5085367"><ele>156.0</ele><time>2026-04-15T13:23:00.098Z</time></trkpt><trkpt lat="45.6258742" lon="9.5084431"><ele>156.71428571428572</ele><time>2026-04-15T13:23:01.099Z</time></trkpt><trkpt lat="45.6258797" lon="9.5083249"><ele>157.42857142857142</ele><time>2026-04-15T13:23:02.098Z</time></trkpt><trkpt lat="45.6258995" lon="9.5082366"><ele>158.14285714285714</ele><time>2026-04-15T13:23:03.098Z</time></trkpt><trkpt lat="45.6259121" lon="9.5081346"><ele>158.85714285714286</ele><time>2026-04-15T13:23:04.098Z</time></trkpt><trkpt lat="45.6259491" lon="9.5080422"><ele>159.57142857142856</ele><time>2026-04-15T13:23:05.098Z</time></trkpt><trkpt lat="45.6259812" lon="9.5079489"><ele>160.28571428571428</ele><time>2026-04-15T13:23:06.099Z</time></trkpt><trkpt lat="45.6260163" lon="9.5078598"><ele>161.0</ele><time>2026-04-15T13:23:07.099Z</time></trkpt><trkpt lat="45.6260615" lon="9.5077756"><ele>161.66666666666666</ele><time>2026-04-15T13:23:08.098Z</time></trkpt><trkpt lat="45.6260851" lon="9.5076841"><ele>162.33333333333331</ele><time>2026-04-15T13:23:09.098Z</time></trkpt><trkpt lat="45.6261334" lon="9.5075877"><ele>163.0</ele><time>2026-04-15T13:23:10.098Z</time></trkpt><trkpt lat="45.6261704" lon="9.5075069"><ele>163.66666666666666</ele><time>2026-04-15T13:23:11.098Z</time></trkpt><trkpt lat="45.6262212" lon="9.5074159"><ele>164.33333333333334</ele><time>2026-04-15T13:23:12.098Z</time></trkpt><trkpt lat="45.6262682" lon="9.5073157"><ele>165.0</ele><time>2026-04-15T13:23:13.098Z</time></trkpt><trkpt lat="45.6263499" lon="9.5071545"><ele>162.8</ele><time>2026-04-15T13:23:15.098Z</time></trkpt><trkpt lat="45.6263919" lon="9.5070771"><ele>160.6</ele><time>2026-04-15T13:23:16.098Z</time></trkpt><trkpt lat="45.6264712" lon="9.5069235"><ele>158.4</ele><time>2026-04-15T13:23:18.098Z</time></trkpt><trkpt lat="45.626535" lon="9.5067418"><ele>156.2</ele><time>2026-04-15T13:23:20.099Z</time></trkpt><trkpt lat="45.6265655" lon="9.5066603"><ele>154.0</ele><time>2026-04-15T13:23:21.098Z</time></trkpt><trkpt lat="45.6265943" lon="9.5065627"><ele>154.0</ele><time>2026-04-15T13:23:22.098Z</time></trkpt><trkpt lat="45.6266698" lon="9.506422"><ele>154.0</ele><time>2026-04-15T13:23:24.098Z</time></trkpt><trkpt lat="45.6267038" lon="9.5063143"><ele>154.0</ele><time>2026-04-15T13:23:25.098Z</time></trkpt><trkpt lat="45.6267446" lon="9.5062257"><ele>154.0</ele><time>2026-04-15T13:23:26.098Z</time></trkpt><trkpt lat="45.6268188" lon="9.5060685"><ele>154.0</ele><time>2026-04-15T13:23:28.098Z</time></trkpt><trkpt lat="45.6268626" lon="9.5059942"><ele>153.85714285714286</ele><time>2026-04-15T13:23:29.098Z</time></trkpt><trkpt lat="45.6269149" lon="9.5059249"><ele>153.71428571428572</ele><time>2026-04-15T13:23:30.098Z</time></trkpt><trkpt lat="45.6269591" lon="9.5058535"><ele>153.57142857142856</ele><time>2026-04-15T13:23:31.098Z</time></trkpt><trkpt lat="45.6270041" lon="9.5057748"><ele>153.42857142857144</ele><time>2026-04-15T13:23:32.099Z</time></trkpt><trkpt lat="45.6270386" lon="9.5056985"><ele>153.28571428571428</ele><time>2026-04-15T13:23:33.098Z</time></trkpt><trkpt lat="45.6270908" lon="9.5056111"><ele>153.14285714285714</ele><time>2026-04-15T13:23:34.098Z</time></trkpt><trkpt lat="45.6271455" lon="9.50552"><ele>153.0</ele><time>2026-04-15T13:23:35.098Z</time></trkpt><trkpt lat="45.627194" lon="9.5054314"><ele>153.4</ele><time>2026-04-15T13:23:36.098Z</time></trkpt><trkpt lat="45.627232" lon="9.5053509"><ele>153.8</ele><time>2026-04-15T13:23:37.099Z</time></trkpt><trkpt lat="45.6273047" lon="9.5051919"><ele>154.2</ele><time>2026-04-15T13:23:39.098Z</time></trkpt><trkpt lat="45.627384" lon="9.5050371"><ele>154.6</ele><time>2026-04-15T13:23:41.098Z</time></trkpt><trkpt lat="45.6274278" lon="9.5049387"><ele>155.0</ele><time>2026-04-15T13:23:42.099Z</time></trkpt><trkpt lat="45.6274544" lon="9.504853"><ele>155.0</ele><time>2026-04-15T13:23:43.099Z</time></trkpt><trkpt lat="45.6274903" lon="9.5047764"><ele>155.0</ele><time>2026-04-15T13:23:44.099Z</time></trkpt><trkpt lat="45.6275286" lon="9.5046973"><ele>155.0</ele><time>2026-04-15T13:23:45.098Z</time></trkpt><trkpt lat="45.6275924" lon="9.5045133"><ele>155.0</ele><time>2026-04-15T13:23:47.098Z</time></trkpt><trkpt lat="45.6276233" lon="9.504418"><ele>155.0</ele><time>2026-04-15T13:23:48.098Z</time></trkpt><trkpt lat="45.6276582" lon="9.504335"><ele>155.0</ele><time>2026-04-15T13:23:49.098Z</time></trkpt><trkpt lat="45.6276849" lon="9.5042374"><ele>154.66666666666666</ele><time>2026-04-15T13:23:50.098Z</time></trkpt><trkpt lat="45.6277521" lon="9.5041378"><ele>154.33333333333331</ele><time>2026-04-15T13:23:51.098Z</time></trkpt><trkpt lat="45.6277698" lon="9.5040397"><ele>154.0</ele><time>2026-04-15T13:23:52.098Z</time></trkpt><trkpt lat="45.6277951" lon="9.5039564"><ele>153.66666666666666</ele><time>2026-04-15T13:23:53.098Z</time></trkpt><trkpt lat="45.6278365" lon="9.5037862"><ele>153.33333333333334</ele><time>2026-04-15T13:23:55.098Z</time></trkpt><trkpt lat="45.6278612" lon="9.5036784"><ele>153.0</ele><time>2026-04-15T13:23:56.098Z</time></trkpt><trkpt lat="45.6278901" lon="9.5035865"><ele>153.0</ele><time>2026-04-15T13:23:57.098Z</time></trkpt><trkpt lat="45.6279142" lon="9.5035016"><ele>153.0</ele><time>2026-04-15T13:23:58.098Z</time></trkpt><trkpt lat="45.6279677" lon="9.5033202"><ele>153.0</ele><time>2026-04-15T13:24:00.098Z</time></trkpt><trkpt lat="45.6279884" lon="9.503197"><ele>153.0</ele><time>2026-04-15T13:24:01.098Z</time></trkpt><trkpt lat="45.6280345" lon="9.5030139"><ele>153.0</ele><time>2026-04-15T13:24:03.098Z</time></trkpt><trkpt lat="45.6280664" lon="9.5029034"><ele>153.85714285714286</ele><time>2026-04-15T13:24:04.098Z</time></trkpt><trkpt lat="45.6280913" lon="9.5028035"><ele>154.71428571428572</ele><time>2026-04-15T13:24:05.098Z</time></trkpt><trkpt lat="45.6281215" lon="9.5027116"><ele>155.57142857142856</ele><time>2026-04-15T13:24:06.098Z</time></trkpt><trkpt lat="45.6281504" lon="9.5026294"><ele>156.42857142857144</ele><time>2026-04-15T13:24:07.098Z</time></trkpt><trkpt lat="45.628168" lon="9.502534"><ele>157.2857142857143</ele><time>2026-04-15T13:24:08.098Z</time></trkpt><trkpt lat="45.6281942" lon="9.5024449"><ele>158.14285714285714</ele><time>2026-04-15T13:24:09.098Z</time></trkpt><trkpt lat="45.6282301" lon="9.5023435"><ele>159.0</ele><time>2026-04-15T13:24:10.098Z</time></trkpt><trkpt lat="45.628249" lon="9.5022343"><ele>159.0</ele><time>2026-04-15T13:24:11.098Z</time></trkpt><trkpt lat="45.6282599" lon="9.5021281"><ele>159.0</ele><time>2026-04-15T13:24:12.099Z</time></trkpt><trkpt lat="45.6282951" lon="9.5020247"><ele>159.0</ele><time>2026-04-15T13:24:13.098Z</time></trkpt><trkpt lat="45.6283201" lon="9.5019381"><ele>159.0</ele><time>2026-04-15T13:24:14.098Z</time></trkpt><trkpt lat="45.6283486" lon="9.5018394"><ele>159.0</ele><time>2026-04-15T13:24:15.098Z</time></trkpt><trkpt lat="45.6283705" lon="9.5017498"><ele>159.0</ele><time>2026-04-15T13:24:16.098Z</time></trkpt><trkpt lat="45.6283985" lon="9.5016329"><ele>159.0</ele><time>2026-04-15T13:24:17.098Z</time></trkpt><trkpt lat="45.6284193" lon="9.5015344"><ele>159.5</ele><time>2026-04-15T13:24:18.098Z</time></trkpt><trkpt lat="45.6284366" lon="9.5014294"><ele>160.0</ele><time>2026-04-15T13:24:19.098Z</time></trkpt><trkpt lat="45.6284725" lon="9.5013368"><ele>160.5</ele><time>2026-04-15T13:24:20.098Z</time></trkpt><trkpt lat="45.6285208" lon="9.5011591"><ele>161.0</ele><time>2026-04-15T13:24:22.099Z</time></trkpt><trkpt lat="45.6285527" lon="9.5010634"><ele>161.5</ele><time>2026-04-15T13:24:23.099Z</time></trkpt><trkpt lat="45.6285741" lon="9.5009666"><ele>162.0</ele><time>2026-04-15T13:24:24.099Z</time></trkpt><trkpt lat="45.6286041" lon="9.5008617"><ele>161.57142857142858</ele><time>2026-04-15T13:24:25.098Z</time></trkpt><trkpt lat="45.6286355" lon="9.5007685"><ele>161.14285714285714</ele><time>2026-04-15T13:24:26.098Z</time></trkpt><trkpt lat="45.628675" lon="9.5006589"><ele>160.71428571428572</ele><time>2026-04-15T13:24:27.098Z</time></trkpt><trkpt lat="45.6287012" lon="9.5005728"><ele>160.28571428571428</ele><time>2026-04-15T13:24:28.098Z</time></trkpt><trkpt lat="45.6287272" lon="9.5004823"><ele>159.85714285714286</ele><time>2026-04-15T13:24:29.098Z</time></trkpt><trkpt lat="45.6287555" lon="9.5003968"><ele>159.42857142857142</ele><time>2026-04-15T13:24:30.098Z</time></trkpt><trkpt lat="45.6287898" lon="9.500309"><ele>159.0</ele><time>2026-04-15T13:24:31.098Z</time></trkpt><trkpt lat="45.6288246" lon="9.5002286"><ele>159.0</ele><time>2026-04-15T13:24:32.098Z</time></trkpt><trkpt lat="45.6288427" lon="9.5001219"><ele>159.0</ele><time>2026-04-15T13:24:33.098Z</time></trkpt><trkpt lat="45.6288911" lon="9.5000326"><ele>159.0</ele><time>2026-04-15T13:24:34.099Z</time></trkpt><trkpt lat="45.6289355" lon="9.4999537"><ele>159.0</ele><time>2026-04-15T13:24:35.098Z</time></trkpt><trkpt lat="45.628973" lon="9.4998663"><ele>159.0</ele><time>2026-04-15T13:24:36.098Z</time></trkpt><trkpt lat="45.6290056" lon="9.4997768"><ele>159.0</ele><time>2026-04-15T13:24:37.099Z</time></trkpt><trkpt lat="45.6290453" lon="9.4996884"><ele>159.0</ele><time>2026-04-15T13:24:38.099Z</time></trkpt><trkpt lat="45.6290847" lon="9.4995978"><ele>159.57142857142856</ele><time>2026-04-15T13:24:39.098Z</time></trkpt><trkpt lat="45.6291223" lon="9.4995142"><ele>160.14285714285717</ele><time>2026-04-15T13:24:40.098Z</time></trkpt><trkpt lat="45.6291564" lon="9.4994302"><ele>160.71428571428572</ele><time>2026-04-15T13:24:41.099Z</time></trkpt><trkpt lat="45.6291891" lon="9.4993415"><ele>161.28571428571428</ele><time>2026-04-15T13:24:42.099Z</time></trkpt><trkpt lat="45.6292133" lon="9.4992568"><ele>161.85714285714283</ele><time>2026-04-15T13:24:43.099Z</time></trkpt><trkpt lat="45.6292759" lon="9.4991465"><ele>162.42857142857144</ele><time>2026-04-15T13:24:44.098Z</time></trkpt><trkpt lat="45.6293046" lon="9.4990641"><ele>163.0</ele><time>2026-04-15T13:24:45.098Z</time></trkpt><trkpt lat="45.6293239" lon="9.4989629"><ele>163.0</ele><time>2026-04-15T13:24:46.098Z</time></trkpt><trkpt lat="45.6293793" lon="9.4988875"><ele>163.0</ele><time>2026-04-15T13:24:47.098Z</time></trkpt><trkpt lat="45.6294123" lon="9.4987929"><ele>163.0</ele><time>2026-04-15T13:24:48.098Z</time></trkpt><trkpt lat="45.6294593" lon="9.4987003"><ele>163.0</ele><time>2026-04-15T13:24:49.098Z</time></trkpt><trkpt lat="45.6295083" lon="9.4986188"><ele>163.0</ele><time>2026-04-15T13:24:50.098Z</time></trkpt><trkpt lat="45.6295312" lon="9.4985012"><ele>163.0</ele><time>2026-04-15T13:24:51.099Z</time></trkpt><trkpt lat="45.6295854" lon="9.4983369"><ele>162.66666666666669</ele><time>2026-04-15T13:24:53.098Z</time></trkpt><trkpt lat="45.6296392" lon="9.4982411"><ele>162.33333333333334</ele><time>2026-04-15T13:24:54.098Z</time></trkpt><trkpt lat="45.6296983" lon="9.4981559"><ele>162.0</ele><time>2026-04-15T13:24:55.098Z</time></trkpt><trkpt lat="45.6297525" lon="9.4980724"><ele>161.66666666666666</ele><time>2026-04-15T13:24:56.098Z</time></trkpt><trkpt lat="45.6297882" lon="9.4979961"><ele>161.33333333333331</ele><time>2026-04-15T13:24:57.099Z</time></trkpt><trkpt lat="45.6298227" lon="9.497907"><ele>161.0</ele><time>2026-04-15T13:24:58.098Z</time></trkpt><trkpt lat="45.6298578" lon="9.4978124"><ele>161.0</ele><time>2026-04-15T13:24:59.099Z</time></trkpt><trkpt lat="45.6299043" lon="9.4977225"><ele>161.0</ele><time>2026-04-15T13:25:00.098Z</time></trkpt><trkpt lat="45.6299383" lon="9.4976444"><ele>161.0</ele><time>2026-04-15T13:25:01.098Z</time></trkpt><trkpt lat="45.6299768" lon="9.4975654"><ele>161.0</ele><time>2026-04-15T13:25:02.098Z</time></trkpt><trkpt lat="45.6300187" lon="9.4974613"><ele>161.0</ele><time>2026-04-15T13:25:03.098Z</time></trkpt><trkpt lat="45.6300632" lon="9.497376"><ele>161.0</ele><time>2026-04-15T13:25:04.098Z</time></trkpt><trkpt lat="45.6301067" lon="9.4972948"><ele>161.0</ele><time>2026-04-15T13:25:05.098Z</time></trkpt><trkpt lat="45.6301606" lon="9.4972118"><ele>161.0</ele><time>2026-04-15T13:25:06.098Z</time></trkpt><trkpt lat="45.630199" lon="9.4971268"><ele>161.0</ele><time>2026-04-15T13:25:07.099Z</time></trkpt><trkpt lat="45.630256" lon="9.4970564"><ele>161.0</ele><time>2026-04-15T13:25:08.098Z</time></trkpt><trkpt lat="45.6303067" lon="9.4969752"><ele>161.0</ele><time>2026-04-15T13:25:09.098Z</time></trkpt><trkpt lat="45.6303602" lon="9.4969144"><ele>161.0</ele><time>2026-04-15T13:25:10.098Z</time></trkpt><trkpt lat="45.6304167" lon="9.4968357"><ele>161.0</ele><time>2026-04-15T13:25:11.099Z</time></trkpt><trkpt lat="45.6304633" lon="9.4967715"><ele>161.0</ele><time>2026-04-15T13:25:12.099Z</time></trkpt><trkpt lat="45.6305083" lon="9.496693"><ele>161.42857142857142</ele><time>2026-04-15T13:25:13.098Z</time></trkpt><trkpt lat="45.6305598" lon="9.4966209"><ele>161.85714285714286</ele><time>2026-04-15T13:25:14.098Z</time></trkpt><trkpt lat="45.6306024" lon="9.4965426"><ele>162.28571428571428</ele><time>2026-04-15T13:25:15.099Z</time></trkpt><trkpt lat="45.6306487" lon="9.496452"><ele>162.71428571428572</ele><time>2026-04-15T13:25:16.098Z</time></trkpt><trkpt lat="45.6306941" lon="9.4963698"><ele>163.14285714285714</ele><time>2026-04-15T13:25:17.098Z</time></trkpt><trkpt lat="45.6307441" lon="9.4962932"><ele>163.57142857142856</ele><time>2026-04-15T13:25:18.098Z</time></trkpt><trkpt lat="45.6307811" lon="9.4962071"><ele>164.0</ele><time>2026-04-15T13:25:19.098Z</time></trkpt><trkpt lat="45.6308119" lon="9.4961139"><ele>163.99999999999997</ele><time>2026-04-15T13:25:20.098Z</time></trkpt><trkpt lat="45.6308449" lon="9.4960349"><ele>164.0</ele><time>2026-04-15T13:25:21.098Z</time></trkpt><trkpt lat="45.6308826" lon="9.4959482"><ele>164.0</ele><time>2026-04-15T13:25:22.098Z</time></trkpt><trkpt lat="45.6309245" lon="9.4958719"><ele>164.0</ele><time>2026-04-15T13:25:23.098Z</time></trkpt><trkpt lat="45.6309748" lon="9.495792"><ele>164.0</ele><time>2026-04-15T13:25:24.098Z</time></trkpt><trkpt lat="45.6310213" lon="9.4957176"><ele>163.99999999999997</ele><time>2026-04-15T13:25:25.098Z</time></trkpt><trkpt lat="45.6310632" lon="9.4956338"><ele>164.0</ele><time>2026-04-15T13:25:26.098Z</time></trkpt><trkpt lat="45.6311041" lon="9.4955568"><ele>163.57142857142856</ele><time>2026-04-15T13:25:27.098Z</time></trkpt><trkpt lat="45.6311534" lon="9.4954775"><ele>163.14285714285714</ele><time>2026-04-15T13:25:28.098Z</time></trkpt><trkpt lat="45.6311959" lon="9.4954019"><ele>162.71428571428572</ele><time>2026-04-15T13:25:29.098Z</time></trkpt><trkpt lat="45.6312403" lon="9.4953363"><ele>162.28571428571428</ele><time>2026-04-15T13:25:30.098Z</time></trkpt><trkpt lat="45.6312794" lon="9.4952522"><ele>161.85714285714286</ele><time>2026-04-15T13:25:31.098Z</time></trkpt><trkpt lat="45.6313175" lon="9.4951703"><ele>161.42857142857142</ele><time>2026-04-15T13:25:32.099Z</time></trkpt><trkpt lat="45.631351" lon="9.4950913"><ele>161.0</ele><time>2026-04-15T13:25:33.098Z</time></trkpt><trkpt lat="45.6314003" lon="9.4950287"><ele>161.0</ele><time>2026-04-15T13:25:34.098Z</time></trkpt><trkpt lat="45.6314579" lon="9.4949714"><ele>161.0</ele><time>2026-04-15T13:25:35.098Z</time></trkpt><trkpt lat="45.6315056" lon="9.4949051"><ele>161.0</ele><time>2026-04-15T13:25:36.098Z</time></trkpt><trkpt lat="45.6315608" lon="9.4948535"><ele>161.0</ele><time>2026-04-15T13:25:37.098Z</time></trkpt><trkpt lat="45.6316354" lon="9.4947589"><ele>161.0</ele><time>2026-04-15T13:25:39.098Z</time></trkpt><trkpt lat="45.6316892" lon="9.4947105"><ele>161.0</ele><time>2026-04-15T13:25:40.098Z</time></trkpt><trkpt lat="45.6317942" lon="9.4946354"><ele>161.0</ele><time>2026-04-15T13:25:42.098Z</time></trkpt><trkpt lat="45.6318576" lon="9.4946043"><ele>161.0</ele><time>2026-04-15T13:25:43.099Z</time></trkpt><trkpt lat="45.6319065" lon="9.4945437"><ele>161.0</ele><time>2026-04-15T13:25:44.098Z</time></trkpt><trkpt lat="45.6301606" lon="9.4972118"><ele>161.0</ele><time>2026-04-15T13:25:06.098Z</time></trkpt><trkpt lat="45.630199" lon="9.4971268"><ele>161.0</ele><time>2026-04-15T13:25:07.099Z</time></trkpt><trkpt lat="45.630256" lon="9.4970564"><ele>161.0</ele><time>2026-04-15T13:25:08.098Z</time></trkpt><trkpt lat="45.6303067" lon="9.4969752"><ele>161.0</ele><time>2026-04-15T13:25:09.098Z</time></trkpt><trkpt lat="45.6303602" lon="9.4969144"><ele>161.0</ele><time>2026-04-15T13:25:10.098Z</time></trkpt><trkpt lat="45.6304167" lon="9.4968357"><ele>161.0</ele><time>2026-04-15T13:25:11.099Z</time></trkpt><trkpt lat="45.6304633" lon="9.4967715"><ele>161.0</ele><time>2026-04-15T13:25:12.099Z</time></trkpt><trkpt lat="45.6305083" lon="9.496693"><ele>161.42857142857142</ele><time>2026-04-15T13:25:13.098Z</time></trkpt><trkpt lat="45.6305598" lon="9.4966209"><ele>161.85714285714286</ele><time>2026-04-15T13:25:14.098Z</time></trkpt><trkpt lat="45.6306024" lon="9.4965426"><ele>162.28571428571428</ele><time>2026-04-15T13:25:15.099Z</time></trkpt><trkpt lat="45.6306487" lon="9.496452"><ele>162.71428571428572</ele><time>2026-04-15T13:25:16.098Z</time></trkpt><trkpt lat="45.6306941" lon="9.4963698"><ele>163.14285714285714</ele><time>2026-04-15T13:25:17.098Z</time></trkpt><trkpt lat="45.6307441" lon="9.4962932"><ele>163.57142857142856</ele><time>2026-04-15T13:25:18.098Z</time></trkpt><trkpt lat="45.6307811" lon="9.4962071"><ele>164.0</ele><time>2026-04-15T13:25:19.098Z</time></trkpt><trkpt lat="45.6308119" lon="9.4961139"><ele>163.99999999999997</ele><time>2026-04-15T13:25:20.098Z</time></trkpt><trkpt lat="45.6308449" lon="9.4960349"><ele>164.0</ele><time>2026-04-15T13:25:21.098Z</time></trkpt><trkpt lat="45.6308826" lon="9.4959482"><ele>164.0</ele><time>2026-04-15T13:25:22.098Z</time></trkpt><trkpt lat="45.6309245" lon="9.4958719"><ele>164.0</ele><time>2026-04-15T13:25:23.098Z</time></trkpt><trkpt lat="45.6309748" lon="9.495792"><ele>164.0</ele><time>2026-04-15T13:25:24.098Z</time></trkpt><trkpt lat="45.6310213" lon="9.4957176"><ele>163.99999999999997</ele><time>2026-04-15T13:25:25.098Z</time></trkpt><trkpt lat="45.6310632" lon="9.4956338"><ele>164.0</ele><time>2026-04-15T13:25:26.098Z</time></trkpt><trkpt lat="45.6311041" lon="9.4955568"><ele>163.57142857142856</ele><time>2026-04-15T13:25:27.098Z</time></trkpt><trkpt lat="45.6311534" lon="9.4954775"><ele>163.14285714285714</ele><time>2026-04-15T13:25:28.098Z</time></trkpt><trkpt lat="45.6311959" lon="9.4954019"><ele>162.71428571428572</ele><time>2026-04-15T13:25:29.098Z</time></trkpt><trkpt lat="45.6312403" lon="9.4953363"><ele>162.28571428571428</ele><time>2026-04-15T13:25:30.098Z</time></trkpt><trkpt lat="45.6312794" lon="9.4952522"><ele>161.85714285714286</ele><time>2026-04-15T13:25:31.098Z</time></trkpt><trkpt lat="45.6313175" lon="9.4951703"><ele>161.42857142857142</ele><time>2026-04-15T13:25:32.099Z</time></trkpt><trkpt lat="45.631351" lon="9.4950913"><ele>161.0</ele><time>2026-04-15T13:25:33.098Z</time></trkpt><trkpt lat="45.6314003" lon="9.4950287"><ele>161.0</ele><time>2026-04-15T13:25:34.098Z</time></trkpt><trkpt lat="45.6314579" lon="9.4949714"><ele>161.0</ele><time>2026-04-15T13:25:35.098Z</time></trkpt><trkpt lat="45.6315056" lon="9.4949051"><ele>161.0</ele><time>2026-04-15T13:25:36.098Z</time></trkpt><trkpt lat="45.6315608" lon="9.4948535"><ele>161.0</ele><time>2026-04-15T13:25:37.098Z</time></trkpt><trkpt lat="45.6316354" lon="9.4947589"><ele>161.0</ele><time>2026-04-15T13:25:39.098Z</time></trkpt><trkpt lat="45.6316892" lon="9.4947105"><ele>161.0</ele><time>2026-04-15T13:25:40.098Z</time></trkpt><trkpt lat="45.6317942" lon="9.4946354"><ele>161.0</ele><time>2026-04-15T13:25:42.098Z</time></trkpt><trkpt lat="45.6318576" lon="9.4946043"><ele>161.0</ele><time>2026-04-15T13:25:43.099Z</time></trkpt><trkpt lat="45.6319065" lon="9.4945437"><ele>161.0</ele><time>2026-04-15T13:25:44.098Z</time></trkpt><trkpt lat="45.6319636" lon="9.4945043"><ele>161.0</ele><time>2026-04-15T13:25:45.098Z</time></trkpt><trkpt lat="45.6320576" lon="9.4943827"><ele>161.0</ele><time>2026-04-15T13:25:47.098Z</time></trkpt><trkpt lat="45.6321553" lon="9.4942698"><ele>161.0</ele><time>2026-04-15T13:25:49.098Z</time></trkpt><trkpt lat="45.632219" lon="9.4942139"><ele>160.83333333333331</ele><time>2026-04-15T13:25:50.098Z</time></trkpt><trkpt lat="45.6322827" lon="9.4941766"><ele>160.66666666666666</ele><time>2026-04-15T13:25:51.098Z</time></trkpt><trkpt lat="45.6323573" lon="9.4941381"><ele>160.5</ele><time>2026-04-15T13:25:52.098Z</time></trkpt><trkpt lat="45.6324267" lon="9.4940676"><ele>160.33333333333334</ele><time>2026-04-15T13:25:53.098Z</time></trkpt><trkpt lat="45.6324994" lon="9.4940426"><ele>160.16666666666669</ele><time>2026-04-15T13:25:54.098Z</time></trkpt><trkpt lat="45.6325797" lon="9.494005"><ele>160.0</ele><time>2026-04-15T13:25:55.099Z</time></trkpt><trkpt lat="45.6326554" lon="9.4939776"><ele>160.0</ele><time>2026-04-15T13:25:56.098Z</time></trkpt><trkpt lat="45.6327362" lon="9.4939631"><ele>160.0</ele><time>2026-04-15T13:25:57.098Z</time></trkpt><trkpt lat="45.6328384" lon="9.4939019"><ele>160.0</ele><time>2026-04-15T13:25:59.099Z</time></trkpt><trkpt lat="45.632974" lon="9.4939046"><ele>160.0</ele><time>2026-04-15T13:26:01.098Z</time></trkpt><trkpt lat="45.6330984" lon="9.4938879"><ele>158.5</ele><time>2026-04-15T13:26:03.098Z</time></trkpt><trkpt lat="45.6331659" lon="9.4938727"><ele>157.0</ele><time>2026-04-15T13:26:04.098Z</time></trkpt><trkpt lat="45.6332474" lon="9.4938372"><ele>155.5</ele><time>2026-04-15T13:26:05.098Z</time></trkpt><trkpt lat="45.633311" lon="9.4938165"><ele>154.0</ele><time>2026-04-15T13:26:06.098Z</time></trkpt><trkpt lat="45.6334538" lon="9.4937781"><ele>152.5</ele><time>2026-04-15T13:26:08.098Z</time></trkpt><trkpt lat="45.6335264" lon="9.4937829"><ele>151.0</ele><time>2026-04-15T13:26:09.098Z</time></trkpt><trkpt lat="45.6336111" lon="9.4937901"><ele>151.33333333333334</ele><time>2026-04-15T13:26:10.099Z</time></trkpt><trkpt lat="45.6336778" lon="9.4937766"><ele>151.66666666666669</ele><time>2026-04-15T13:26:11.099Z</time></trkpt><trkpt lat="45.6337749" lon="9.493806"><ele>152.0</ele><time>2026-04-15T13:26:12.099Z</time></trkpt><trkpt lat="45.6339194" lon="9.4938309"><ele>152.33333333333334</ele><time>2026-04-15T13:26:14.098Z</time></trkpt><trkpt lat="45.6339856" lon="9.4938382"><ele>152.66666666666666</ele><time>2026-04-15T13:26:15.099Z</time></trkpt><trkpt lat="45.6340535" lon="9.4938627"><ele>153.0</ele><time>2026-04-15T13:26:16.098Z</time></trkpt><trkpt lat="45.6341222" lon="9.4938768"><ele>153.0</ele><time>2026-04-15T13:26:17.098Z</time></trkpt><trkpt lat="45.634257" lon="9.4938962"><ele>153.0</ele><time>2026-04-15T13:26:19.099Z</time></trkpt><trkpt lat="45.6343817" lon="9.493925"><ele>153.0</ele><time>2026-04-15T13:26:21.098Z</time></trkpt><trkpt lat="45.6344532" lon="9.4939387"><ele>153.0</ele><time>2026-04-15T13:26:22.098Z</time></trkpt><trkpt lat="45.6345315" lon="9.4939553"><ele>153.0</ele><time>2026-04-15T13:26:23.098Z</time></trkpt><trkpt lat="45.6346116" lon="9.4939646"><ele>152.66666666666666</ele><time>2026-04-15T13:26:24.098Z</time></trkpt><trkpt lat="45.6346822" lon="9.4939957"><ele>152.33333333333334</ele><time>2026-04-15T13:26:25.098Z</time></trkpt><trkpt lat="45.6347968" lon="9.4940486"><ele>152.0</ele><time>2026-04-15T13:26:27.098Z</time></trkpt><trkpt lat="45.6348719" lon="9.4940651"><ele>151.66666666666669</ele><time>2026-04-15T13:26:28.099Z</time></trkpt><trkpt lat="45.6349394" lon="9.494088"><ele>151.33333333333334</ele><time>2026-04-15T13:26:29.098Z</time></trkpt><trkpt lat="45.6350055" lon="9.4941174"><ele>151.0</ele><time>2026-04-15T13:26:30.098Z</time></trkpt><trkpt lat="45.6350739" lon="9.4941237"><ele>151.0</ele><time>2026-04-15T13:26:31.098Z</time></trkpt><trkpt lat="45.6352053" lon="9.4941724"><ele>151.0</ele><time>2026-04-15T13:26:33.098Z</time></trkpt><trkpt lat="45.6353374" lon="9.4942241"><ele>151.0</ele><time>2026-04-15T13:26:35.098Z</time></trkpt><trkpt lat="45.6354622" lon="9.4942681"><ele>151.0</ele><time>2026-04-15T13:26:37.099Z</time></trkpt><trkpt lat="45.6355279" lon="9.4942973"><ele>151.33333333333334</ele><time>2026-04-15T13:26:38.098Z</time></trkpt><trkpt lat="45.6355915" lon="9.4943377"><ele>151.66666666666669</ele><time>2026-04-15T13:26:39.098Z</time></trkpt><trkpt lat="45.6356705" lon="9.4943598"><ele>152.0</ele><time>2026-04-15T13:26:40.098Z</time></trkpt><trkpt lat="45.6357327" lon="9.4943879"><ele>152.33333333333334</ele><time>2026-04-15T13:26:41.098Z</time></trkpt><trkpt lat="45.6358013" lon="9.4944252"><ele>152.66666666666666</ele><time>2026-04-15T13:26:42.098Z</time></trkpt><trkpt lat="45.6359334" lon="9.4944663"><ele>153.0</ele><time>2026-04-15T13:26:44.098Z</time></trkpt><trkpt lat="45.6360034" lon="9.4945221"><ele>153.0</ele><time>2026-04-15T13:26:45.098Z</time></trkpt><trkpt lat="45.6360844" lon="9.4945556"><ele>153.0</ele><time>2026-04-15T13:26:46.098Z</time></trkpt><trkpt lat="45.6361859" lon="9.4945666"><ele>153.0</ele><time>2026-04-15T13:26:48.099Z</time></trkpt><trkpt lat="45.6362517" lon="9.4945816"><ele>153.0</ele><time>2026-04-15T13:26:49.098Z</time></trkpt><trkpt lat="45.6363647" lon="9.494583"><ele>153.0</ele><time>2026-04-15T13:26:51.098Z</time></trkpt><trkpt lat="45.6364292" lon="9.4945907"><ele>153.0</ele><time>2026-04-15T13:26:52.099Z</time></trkpt><trkpt lat="45.6365004" lon="9.4945857"><ele>152.6</ele><time>2026-04-15T13:26:53.098Z</time></trkpt><trkpt lat="45.6366393" lon="9.4945798"><ele>152.20000000000002</ele><time>2026-04-15T13:26:55.099Z</time></trkpt><trkpt lat="45.636706" lon="9.4945798"><ele>151.8</ele><time>2026-04-15T13:26:56.098Z</time></trkpt><trkpt lat="45.6368001" lon="9.4945056"><ele>151.4</ele><time>2026-04-15T13:26:57.099Z</time></trkpt><trkpt lat="45.6368645" lon="9.4945124"><ele>151.0</ele><time>2026-04-15T13:26:58.099Z</time></trkpt><trkpt lat="45.6369415" lon="9.4945166"><ele>151.6</ele><time>2026-04-15T13:26:59.099Z</time></trkpt><trkpt lat="45.6370291" lon="9.4945308"><ele>152.2</ele><time>2026-04-15T13:27:00.099Z</time></trkpt><trkpt lat="45.6371273" lon="9.494535"><ele>152.8</ele><time>2026-04-15T13:27:01.099Z</time></trkpt><trkpt lat="45.6372679" lon="9.4945086"><ele>153.4</ele><time>2026-04-15T13:27:03.098Z</time></trkpt><trkpt lat="45.6373311" lon="9.4944706"><ele>154.0</ele><time>2026-04-15T13:27:04.099Z</time></trkpt><trkpt lat="45.637394" lon="9.4944628"><ele>154.0</ele><time>2026-04-15T13:27:05.098Z</time></trkpt><trkpt lat="45.637456" lon="9.4944427"><ele>154.0</ele><time>2026-04-15T13:27:06.099Z</time></trkpt><trkpt lat="45.6375822" lon="9.4944036"><ele>154.0</ele><time>2026-04-15T13:27:08.098Z</time></trkpt><trkpt lat="45.6376521" lon="9.4943597"><ele>154.0</ele><time>2026-04-15T13:27:09.099Z</time></trkpt><trkpt lat="45.6377195" lon="9.4943449"><ele>154.0</ele><time>2026-04-15T13:27:10.098Z</time></trkpt><trkpt lat="45.6377854" lon="9.4943009"><ele>154.0</ele><time>2026-04-15T13:27:11.098Z</time></trkpt><trkpt lat="45.6378838" lon="9.494252"><ele>153.83333333333334</ele><time>2026-04-15T13:27:13.098Z</time></trkpt><trkpt lat="45.6379486" lon="9.4942419"><ele>153.66666666666669</ele><time>2026-04-15T13:27:14.099Z</time></trkpt><trkpt lat="45.6380566" lon="9.4942045"><ele>153.5</ele><time>2026-04-15T13:27:16.098Z</time></trkpt><trkpt lat="45.638122" lon="9.4941769"><ele>153.33333333333334</ele><time>2026-04-15T13:27:17.099Z</time></trkpt><trkpt lat="45.6381839" lon="9.4941523"><ele>153.16666666666666</ele><time>2026-04-15T13:27:18.099Z</time></trkpt><trkpt lat="45.6382591" lon="9.4941357"><ele>153.0</ele><time>2026-04-15T13:27:19.098Z</time></trkpt><trkpt lat="45.6383254" lon="9.4941201"><ele>153.0</ele><time>2026-04-15T13:27:20.099Z</time></trkpt><trkpt lat="45.6384024" lon="9.4940984"><ele>153.0</ele><time>2026-04-15T13:27:21.098Z</time></trkpt><trkpt lat="45.6384904" lon="9.4940882"><ele>153.0</ele><time>2026-04-15T13:27:22.098Z</time></trkpt><trkpt lat="45.6385608" lon="9.4940753"><ele>153.0</ele><time>2026-04-15T13:27:23.098Z</time></trkpt><trkpt lat="45.6386329" lon="9.494029"><ele>153.0</ele><time>2026-04-15T13:27:24.098Z</time></trkpt><trkpt lat="45.6387037" lon="9.4940113"><ele>153.0</ele><time>2026-04-15T13:27:25.098Z</time></trkpt><trkpt lat="45.6387783" lon="9.4939963"><ele>152.5</ele><time>2026-04-15T13:27:26.098Z</time></trkpt><trkpt lat="45.6388556" lon="9.4940046"><ele>152.0</ele><time>2026-04-15T13:27:27.098Z</time></trkpt><trkpt lat="45.6389496" lon="9.4940292"><ele>151.5</ele><time>2026-04-15T13:27:28.098Z</time></trkpt><trkpt lat="45.6390289" lon="9.4940082"><ele>151.0</ele><time>2026-04-15T13:27:29.099Z</time></trkpt><trkpt lat="45.6391134" lon="9.493985"><ele>150.5</ele><time>2026-04-15T13:27:30.098Z</time></trkpt><trkpt lat="45.6391838" lon="9.4939475"><ele>150.0</ele><time>2026-04-15T13:27:31.098Z</time></trkpt><trkpt lat="45.6393228" lon="9.4939386"><ele>149.99999999999997</ele><time>2026-04-15T13:27:33.098Z</time></trkpt><trkpt lat="45.6393972" lon="9.4939481"><ele>150.0</ele><time>2026-04-15T13:27:34.098Z</time></trkpt><trkpt lat="45.6394607" lon="9.4939511"><ele>150.0</ele><time>2026-04-15T13:27:35.099Z</time></trkpt><trkpt lat="45.6395449" lon="9.493944"><ele>150.0</ele><time>2026-04-15T13:27:36.099Z</time></trkpt><trkpt lat="45.6396098" lon="9.4939344"><ele>150.0</ele><time>2026-04-15T13:27:37.098Z</time></trkpt><trkpt lat="45.6396836" lon="9.4939215"><ele>149.99999999999997</ele><time>2026-04-15T13:27:38.099Z</time></trkpt><trkpt lat="45.6397604" lon="9.4939168"><ele>150.0</ele><time>2026-04-15T13:27:39.098Z</time></trkpt><trkpt lat="45.6398262" lon="9.4939152"><ele>149.83333333333334</ele><time>2026-04-15T13:27:40.098Z</time></trkpt><trkpt lat="45.6398914" lon="9.4939253"><ele>149.66666666666666</ele><time>2026-04-15T13:27:41.098Z</time></trkpt><trkpt lat="45.6400138" lon="9.4939096"><ele>149.5</ele><time>2026-04-15T13:27:43.098Z</time></trkpt><trkpt lat="45.6401187" lon="9.4939308"><ele>149.33333333333331</ele><time>2026-04-15T13:27:45.098Z</time></trkpt><trkpt lat="45.640204" lon="9.4939295"><ele>149.16666666666666</ele><time>2026-04-15T13:27:46.099Z</time></trkpt><trkpt lat="45.6402689" lon="9.493912"><ele>149.0</ele><time>2026-04-15T13:27:47.099Z</time></trkpt><trkpt lat="45.6403516" lon="9.4939076"><ele>149.5</ele><time>2026-04-15T13:27:48.098Z</time></trkpt><trkpt lat="45.6404931" lon="9.4939271"><ele>150.0</ele><time>2026-04-15T13:27:50.099Z</time></trkpt><trkpt lat="45.6405723" lon="9.493953"><ele>150.5</ele><time>2026-04-15T13:27:51.099Z</time></trkpt><trkpt lat="45.6406487" lon="9.4939643"><ele>151.0</ele><time>2026-04-15T13:27:52.098Z</time></trkpt><trkpt lat="45.6407175" lon="9.4939609"><ele>151.5</ele><time>2026-04-15T13:27:53.098Z</time></trkpt><trkpt lat="45.6407954" lon="9.4939684"><ele>152.0</ele><time>2026-04-15T13:27:54.098Z</time></trkpt><trkpt lat="45.6408726" lon="9.4939732"><ele>152.0</ele><time>2026-04-15T13:27:55.099Z</time></trkpt><trkpt lat="45.6410037" lon="9.4939939"><ele>152.0</ele><time>2026-04-15T13:27:57.098Z</time></trkpt><trkpt lat="45.6411179" lon="9.493992"><ele>152.0</ele><time>2026-04-15T13:27:59.098Z</time></trkpt><trkpt lat="45.6412154" lon="9.4940151"><ele>152.0</ele><time>2026-04-15T13:28:00.098Z</time></trkpt><trkpt lat="45.6412898" lon="9.4940125"><ele>152.0</ele><time>2026-04-15T13:28:01.099Z</time></trkpt><trkpt lat="45.6413784" lon="9.4940377"><ele>152.7142857142857</ele><time>2026-04-15T13:28:02.099Z</time></trkpt><trkpt lat="45.6414507" lon="9.4940279"><ele>153.42857142857144</ele><time>2026-04-15T13:28:03.098Z</time></trkpt><trkpt lat="45.6415151" lon="9.4940399"><ele>154.14285714285714</ele><time>2026-04-15T13:28:04.099Z</time></trkpt><trkpt lat="45.6415882" lon="9.494046"><ele>154.85714285714283</ele><time>2026-04-15T13:28:05.098Z</time></trkpt><trkpt lat="45.6416659" lon="9.4940699"><ele>155.57142857142856</ele><time>2026-04-15T13:28:06.098Z</time></trkpt><trkpt lat="45.6417421" lon="9.4940794"><ele>156.28571428571428</ele><time>2026-04-15T13:28:07.098Z</time></trkpt><trkpt lat="45.6418141" lon="9.4940892"><ele>157.0</ele><time>2026-04-15T13:28:08.098Z</time></trkpt><trkpt lat="45.6418944" lon="9.4940974"><ele>156.33333333333334</ele><time>2026-04-15T13:28:09.099Z</time></trkpt><trkpt lat="45.6419697" lon="9.4941008"><ele>155.66666666666669</ele><time>2026-04-15T13:28:10.098Z</time></trkpt><trkpt lat="45.6420445" lon="9.4941122"><ele>155.0</ele><time>2026-04-15T13:28:11.098Z</time></trkpt><trkpt lat="45.6421198" lon="9.4941146"><ele>154.33333333333334</ele><time>2026-04-15T13:28:12.098Z</time></trkpt><trkpt lat="45.6421853" lon="9.4941125"><ele>153.66666666666666</ele><time>2026-04-15T13:28:13.098Z</time></trkpt><trkpt lat="45.642252" lon="9.4941169"><ele>153.0</ele><time>2026-04-15T13:28:14.098Z</time></trkpt><trkpt lat="45.6423583" lon="9.4940969"><ele>153.0</ele><time>2026-04-15T13:28:16.099Z</time></trkpt><trkpt lat="45.6424356" lon="9.4941099"><ele>153.0</ele><time>2026-04-15T13:28:17.099Z</time></trkpt><trkpt lat="45.6425055" lon="9.4941278"><ele>153.0</ele><time>2026-04-15T13:28:18.099Z</time></trkpt><trkpt lat="45.6425758" lon="9.4941285"><ele>153.0</ele><time>2026-04-15T13:28:19.098Z</time></trkpt><trkpt lat="45.6426422" lon="9.4941424"><ele>153.0</ele><time>2026-04-15T13:28:20.099Z</time></trkpt><trkpt lat="45.6427132" lon="9.4941476"><ele>153.0</ele><time>2026-04-15T13:28:21.098Z</time></trkpt><trkpt lat="45.6427874" lon="9.4941588"><ele>153.0</ele><time>2026-04-15T13:28:22.098Z</time></trkpt><trkpt lat="45.6428609" lon="9.494166"><ele>153.16666666666666</ele><time>2026-04-15T13:28:23.098Z</time></trkpt><trkpt lat="45.6429338" lon="9.4941669"><ele>153.33333333333334</ele><time>2026-04-15T13:28:24.098Z</time></trkpt><trkpt lat="45.6430062" lon="9.4941684"><ele>153.5</ele><time>2026-04-15T13:28:25.098Z</time></trkpt><trkpt lat="45.6430725" lon="9.4941603"><ele>153.66666666666669</ele><time>2026-04-15T13:28:26.099Z</time></trkpt><trkpt lat="45.6431572" lon="9.4941751"><ele>153.83333333333334</ele><time>2026-04-15T13:28:27.098Z</time></trkpt><trkpt lat="45.6432408" lon="9.4941932"><ele>154.0</ele><time>2026-04-15T13:28:28.098Z</time></trkpt><trkpt lat="45.6433204" lon="9.4942035"><ele>154.0</ele><time>2026-04-15T13:28:29.099Z</time></trkpt><trkpt lat="45.6433945" lon="9.4942069"><ele>154.0</ele><time>2026-04-15T13:28:30.098Z</time></trkpt><trkpt lat="45.6434822" lon="9.4942501"><ele>154.0</ele><time>2026-04-15T13:28:31.099Z</time></trkpt><trkpt lat="45.6435579" lon="9.4942404"><ele>154.0</ele><time>2026-04-15T13:28:32.099Z</time></trkpt><trkpt lat="45.6436554" lon="9.4941789"><ele>154.0</ele><time>2026-04-15T13:28:33.098Z</time></trkpt><trkpt lat="45.643723" lon="9.49419"><ele>154.0</ele><time>2026-04-15T13:28:34.099Z</time></trkpt><trkpt lat="45.6437995" lon="9.4941856"><ele>154.28571428571428</ele><time>2026-04-15T13:28:35.098Z</time></trkpt><trkpt lat="45.6438687" lon="9.4941854"><ele>154.57142857142856</ele><time>2026-04-15T13:28:36.098Z</time></trkpt><trkpt lat="45.6439415" lon="9.4941538"><ele>154.85714285714286</ele><time>2026-04-15T13:28:37.098Z</time></trkpt><trkpt lat="45.6440148" lon="9.4941044"><ele>155.14285714285714</ele><time>2026-04-15T13:28:38.099Z</time></trkpt><trkpt lat="45.6440831" lon="9.4940905"><ele>155.42857142857142</ele><time>2026-04-15T13:28:39.098Z</time></trkpt><trkpt lat="45.6441513" lon="9.4940958"><ele>155.71428571428572</ele><time>2026-04-15T13:28:40.098Z</time></trkpt><trkpt lat="45.6442317" lon="9.4940707"><ele>156.0</ele><time>2026-04-15T13:28:41.098Z</time></trkpt><trkpt lat="45.6443048" lon="9.4940757"><ele>156.0</ele><time>2026-04-15T13:28:42.098Z</time></trkpt><trkpt lat="45.6443823" lon="9.4940899"><ele>156.0</ele><time>2026-04-15T13:28:43.098Z</time></trkpt><trkpt lat="45.6444432" lon="9.4940662"><ele>156.0</ele><time>2026-04-15T13:28:44.099Z</time></trkpt><trkpt lat="45.6445106" lon="9.4940587"><ele>156.0</ele><time>2026-04-15T13:28:45.099Z</time></trkpt><trkpt lat="45.6445865" lon="9.4940499"><ele>156.0</ele><time>2026-04-15T13:28:46.098Z</time></trkpt><trkpt lat="45.6446549" lon="9.4940383"><ele>156.0</ele><time>2026-04-15T13:28:47.098Z</time></trkpt><trkpt lat="45.6447265" lon="9.4940441"><ele>156.0</ele><time>2026-04-15T13:28:48.098Z</time></trkpt><trkpt lat="45.6448287" lon="9.4940805"><ele>156.16666666666666</ele><time>2026-04-15T13:28:49.099Z</time></trkpt><trkpt lat="45.644906" lon="9.4940894"><ele>156.33333333333334</ele><time>2026-04-15T13:28:50.098Z</time></trkpt><trkpt lat="45.644984" lon="9.4941009"><ele>156.5</ele><time>2026-04-15T13:28:51.098Z</time></trkpt><trkpt lat="45.6450601" lon="9.4940996"><ele>156.66666666666669</ele><time>2026-04-15T13:28:52.098Z</time></trkpt><trkpt lat="45.6451425" lon="9.4940996"><ele>156.83333333333334</ele><time>2026-04-15T13:28:53.099Z</time></trkpt><trkpt lat="45.6452206" lon="9.4940931"><ele>157.0</ele><time>2026-04-15T13:28:54.098Z</time></trkpt><trkpt lat="45.6452991" lon="9.4940985"><ele>157.57142857142856</ele><time>2026-04-15T13:28:55.099Z</time></trkpt><trkpt lat="45.6453698" lon="9.494096"><ele>158.14285714285714</ele><time>2026-04-15T13:28:56.098Z</time></trkpt><trkpt lat="45.645443" lon="9.494097"><ele>158.71428571428572</ele><time>2026-04-15T13:28:57.099Z</time></trkpt><trkpt lat="45.6455142" lon="9.4940981"><ele>159.28571428571428</ele><time>2026-04-15T13:28:58.099Z</time></trkpt><trkpt lat="45.6455855" lon="9.494095"><ele>159.85714285714286</ele><time>2026-04-15T13:28:59.099Z</time></trkpt><trkpt lat="45.64567" lon="9.4940964"><ele>160.42857142857142</ele><time>2026-04-15T13:29:00.098Z</time></trkpt><trkpt lat="45.6457383" lon="9.4940815"><ele>161.0</ele><time>2026-04-15T13:29:01.098Z</time></trkpt><trkpt lat="45.6458083" lon="9.49408"><ele>161.0</ele><time>2026-04-15T13:29:02.098Z</time></trkpt><trkpt lat="45.6458793" lon="9.4940904"><ele>161.0</ele><time>2026-04-15T13:29:03.098Z</time></trkpt><trkpt lat="45.6459536" lon="9.4941038"><ele>161.0</ele><time>2026-04-15T13:29:04.099Z</time></trkpt><trkpt lat="45.6460301" lon="9.494099"><ele>161.0</ele><time>2026-04-15T13:29:05.098Z</time></trkpt><trkpt lat="45.6461032" lon="9.4940973"><ele>161.0</ele><time>2026-04-15T13:29:06.098Z</time></trkpt><trkpt lat="45.6461926" lon="9.4940697"><ele>161.0</ele><time>2026-04-15T13:29:07.098Z</time></trkpt><trkpt lat="45.6462633" lon="9.4940758"><ele>161.0</ele><time>2026-04-15T13:29:08.099Z</time></trkpt><trkpt lat="45.6463358" lon="9.4940806"><ele>161.0</ele><time>2026-04-15T13:29:09.099Z</time></trkpt><trkpt lat="45.6464273" lon="9.4940813"><ele>161.0</ele><time>2026-04-15T13:29:10.098Z</time></trkpt><trkpt lat="45.646506" lon="9.4940816"><ele>161.0</ele><time>2026-04-15T13:29:11.098Z</time></trkpt><trkpt lat="45.6465781" lon="9.4940639"><ele>161.0</ele><time>2026-04-15T13:29:12.099Z</time></trkpt><trkpt lat="45.6466539" lon="9.4940667"><ele>161.0</ele><time>2026-04-15T13:29:13.098Z</time></trkpt><trkpt lat="45.6467325" lon="9.4940626"><ele>161.0</ele><time>2026-04-15T13:29:14.098Z</time></trkpt><trkpt lat="45.6468122" lon="9.4940362"><ele>161.0</ele><time>2026-04-15T13:29:15.098Z</time></trkpt><trkpt lat="45.6468969" lon="9.4940299"><ele>161.0</ele><time>2026-04-15T13:29:16.098Z</time></trkpt><trkpt lat="45.6469713" lon="9.4940093"><ele>161.0</ele><time>2026-04-15T13:29:17.098Z</time></trkpt><trkpt lat="45.6470494" lon="9.4939987"><ele>161.0</ele><time>2026-04-15T13:29:18.098Z</time></trkpt><trkpt lat="45.6471219" lon="9.4939627"><ele>161.0</ele><time>2026-04-15T13:29:19.099Z</time></trkpt><trkpt lat="45.6472039" lon="9.4939345"><ele>160.0</ele><time>2026-04-15T13:29:20.098Z</time></trkpt><trkpt lat="45.6472752" lon="9.4938884"><ele>159.0</ele><time>2026-04-15T13:29:21.098Z</time></trkpt><trkpt lat="45.6473471" lon="9.4938314"><ele>158.0</ele><time>2026-04-15T13:29:22.098Z</time></trkpt><trkpt lat="45.6474129" lon="9.493776"><ele>157.0</ele><time>2026-04-15T13:29:23.098Z</time></trkpt><trkpt lat="45.6474911" lon="9.4937352"><ele>156.0</ele><time>2026-04-15T13:29:24.098Z</time></trkpt><trkpt lat="45.6475507" lon="9.4936871"><ele>155.0</ele><time>2026-04-15T13:29:25.098Z</time></trkpt><trkpt lat="45.6476148" lon="9.493624"><ele>154.5</ele><time>2026-04-15T13:29:26.098Z</time></trkpt><trkpt lat="45.6476797" lon="9.4935725"><ele>154.0</ele><time>2026-04-15T13:29:27.098Z</time></trkpt><trkpt lat="45.6477352" lon="9.4935247"><ele>153.5</ele><time>2026-04-15T13:29:28.098Z</time></trkpt><trkpt lat="45.6477995" lon="9.4934531"><ele>153.0</ele><time>2026-04-15T13:29:29.098Z</time></trkpt><trkpt lat="45.6478479" lon="9.4933782"><ele>152.5</ele><time>2026-04-15T13:29:30.098Z</time></trkpt><trkpt lat="45.6479123" lon="9.4933029"><ele>152.0</ele><time>2026-04-15T13:29:31.098Z</time></trkpt><trkpt lat="45.647968" lon="9.493202"><ele>152.0</ele><time>2026-04-15T13:29:32.099Z</time></trkpt><trkpt lat="45.6480138" lon="9.4931205"><ele>152.0</ele><time>2026-04-15T13:29:33.098Z</time></trkpt><trkpt lat="45.6480557" lon="9.4930338"><ele>152.0</ele><time>2026-04-15T13:29:34.098Z</time></trkpt><trkpt lat="45.6480918" lon="9.4929402"><ele>152.0</ele><time>2026-04-15T13:29:35.098Z</time></trkpt><trkpt lat="45.6481346" lon="9.4928381"><ele>152.0</ele><time>2026-04-15T13:29:36.098Z</time></trkpt><trkpt lat="45.648165" lon="9.4927393"><ele>152.0</ele><time>2026-04-15T13:29:37.098Z</time></trkpt><trkpt lat="45.6481887" lon="9.4926453"><ele>152.4</ele><time>2026-04-15T13:29:38.098Z</time></trkpt><trkpt lat="45.6482302" lon="9.4924729"><ele>152.79999999999998</ele><time>2026-04-15T13:29:40.098Z</time></trkpt><trkpt lat="45.6482543" lon="9.4923848"><ele>153.2</ele><time>2026-04-15T13:29:41.098Z</time></trkpt><trkpt lat="45.6483058" lon="9.4922246"><ele>153.6</ele><time>2026-04-15T13:29:43.099Z</time></trkpt><trkpt lat="45.6483183" lon="9.4921233"><ele>154.0</ele><time>2026-04-15T13:29:44.098Z</time></trkpt><trkpt lat="45.6483429" lon="9.492022"><ele>154.0</ele><time>2026-04-15T13:29:45.098Z</time></trkpt><trkpt lat="45.6483684" lon="9.4919364"><ele>154.0</ele><time>2026-04-15T13:29:46.098Z</time></trkpt><trkpt lat="45.6484047" lon="9.4918506"><ele>154.0</ele><time>2026-04-15T13:29:47.099Z</time></trkpt><trkpt lat="45.648446" lon="9.491689"><ele>154.0</ele><time>2026-04-15T13:29:49.099Z</time></trkpt><trkpt lat="45.6484868" lon="9.4915799"><ele>154.0</ele><time>2026-04-15T13:29:50.098Z</time></trkpt><trkpt lat="45.6485515" lon="9.491404"><ele>154.0</ele><time>2026-04-15T13:29:52.098Z</time></trkpt><trkpt lat="45.6485749" lon="9.4913137"><ele>154.0</ele><time>2026-04-15T13:29:53.098Z</time></trkpt><trkpt lat="45.6485705" lon="9.4912091"><ele>154.0</ele><time>2026-04-15T13:29:54.098Z</time></trkpt><trkpt lat="45.6486159" lon="9.4911455"><ele>154.0</ele><time>2026-04-15T13:29:55.099Z</time></trkpt><trkpt lat="45.6486466" lon="9.4910602"><ele>154.0</ele><time>2026-04-15T13:29:56.098Z</time></trkpt><trkpt lat="45.6486906" lon="9.4909652"><ele>154.0</ele><time>2026-04-15T13:29:57.098Z</time></trkpt><trkpt lat="45.6487173" lon="9.4908721"><ele>154.0</ele><time>2026-04-15T13:29:58.098Z</time></trkpt><trkpt lat="45.6487518" lon="9.4907702"><ele>153.85714285714286</ele><time>2026-04-15T13:29:59.099Z</time></trkpt><trkpt lat="45.6487892" lon="9.4906786"><ele>153.71428571428572</ele><time>2026-04-15T13:30:00.098Z</time></trkpt><trkpt lat="45.6488431" lon="9.4905861"><ele>153.57142857142856</ele><time>2026-04-15T13:30:01.099Z</time></trkpt><trkpt lat="45.6488721" lon="9.4904982"><ele>153.42857142857144</ele><time>2026-04-15T13:30:02.099Z</time></trkpt><trkpt lat="45.6489258" lon="9.4904326"><ele>153.28571428571428</ele><time>2026-04-15T13:30:03.098Z</time></trkpt><trkpt lat="45.6489735" lon="9.4903738"><ele>153.14285714285714</ele><time>2026-04-15T13:30:04.098Z</time></trkpt><trkpt lat="45.6490215" lon="9.4903146"><ele>153.0</ele><time>2026-04-15T13:30:05.098Z</time></trkpt><trkpt lat="45.6490732" lon="9.4902308"><ele>153.6</ele><time>2026-04-15T13:30:06.099Z</time></trkpt><trkpt lat="45.6491102" lon="9.4901258"><ele>154.20000000000002</ele><time>2026-04-15T13:30:07.098Z</time></trkpt><trkpt lat="45.6491878" lon="9.4899429"><ele>154.8</ele><time>2026-04-15T13:30:09.098Z</time></trkpt><trkpt lat="45.649231" lon="9.4898353"><ele>155.4</ele><time>2026-04-15T13:30:11.098Z</time></trkpt><trkpt lat="45.6492717" lon="9.4897426"><ele>156.0</ele><time>2026-04-15T13:30:12.098Z</time></trkpt><trkpt lat="45.6493182" lon="9.4896182"><ele>155.66666666666666</ele><time>2026-04-15T13:30:14.098Z</time></trkpt><trkpt lat="45.64936" lon="9.4895443"><ele>155.33333333333334</ele><time>2026-04-15T13:30:15.099Z</time></trkpt><trkpt lat="45.6493994" lon="9.4894738"><ele>155.0</ele><time>2026-04-15T13:30:16.098Z</time></trkpt><trkpt lat="45.6494413" lon="9.4893847"><ele>154.66666666666669</ele><time>2026-04-15T13:30:17.098Z</time></trkpt><trkpt lat="45.6495162" lon="9.4892131"><ele>154.33333333333334</ele><time>2026-04-15T13:30:19.098Z</time></trkpt><trkpt lat="45.6495572" lon="9.4891291"><ele>154.0</ele><time>2026-04-15T13:30:20.098Z</time></trkpt><trkpt lat="45.6495898" lon="9.4890398"><ele>154.0</ele><time>2026-04-15T13:30:21.098Z</time></trkpt><trkpt lat="45.649636" lon="9.4889416"><ele>154.0</ele><time>2026-04-15T13:30:22.098Z</time></trkpt><trkpt lat="45.6496727" lon="9.4888294"><ele>154.0</ele><time>2026-04-15T13:30:23.098Z</time></trkpt><trkpt lat="45.6496928" lon="9.4887328"><ele>154.0</ele><time>2026-04-15T13:30:24.098Z</time></trkpt><trkpt lat="45.6497199" lon="9.488632"><ele>154.0</ele><time>2026-04-15T13:30:25.099Z</time></trkpt><trkpt lat="45.6497828" lon="9.4883985"><ele>153.83333333333334</ele><time>2026-04-15T13:30:27.099Z</time></trkpt><trkpt lat="45.6498284" lon="9.488323"><ele>153.66666666666669</ele><time>2026-04-15T13:30:28.098Z</time></trkpt><trkpt lat="45.6498805" lon="9.4881772"><ele>153.5</ele><time>2026-04-15T13:30:29.098Z</time></trkpt><trkpt lat="45.6498962" lon="9.4880654"><ele>153.33333333333334</ele><time>2026-04-15T13:30:30.099Z</time></trkpt><trkpt lat="45.6499218" lon="9.4879526"><ele>153.16666666666666</ele><time>2026-04-15T13:30:31.099Z</time></trkpt><trkpt lat="45.649944" lon="9.4878462"><ele>153.0</ele><time>2026-04-15T13:30:32.098Z</time></trkpt><trkpt lat="45.6499829" lon="9.4876607"><ele>154.0</ele><time>2026-04-15T13:30:34.098Z</time></trkpt><trkpt lat="45.6500424" lon="9.487582"><ele>155.0</ele><time>2026-04-15T13:30:35.099Z</time></trkpt><trkpt lat="45.6500779" lon="9.4874998"><ele>156.0</ele><time>2026-04-15T13:30:36.099Z</time></trkpt><trkpt lat="45.6501289" lon="9.4874366"><ele>157.0</ele><time>2026-04-15T13:30:37.098Z</time></trkpt><trkpt lat="45.6501787" lon="9.487365"><ele>158.0</ele><time>2026-04-15T13:30:38.099Z</time></trkpt><trkpt lat="45.6502438" lon="9.4872175"><ele>159.0</ele><time>2026-04-15T13:30:40.099Z</time></trkpt><trkpt lat="45.6502913" lon="9.4871179"><ele>157.66666666666666</ele><time>2026-04-15T13:30:41.099Z</time></trkpt><trkpt lat="45.6503515" lon="9.4869658"><ele>156.33333333333334</ele><time>2026-04-15T13:30:43.098Z</time></trkpt><trkpt lat="45.6503914" lon="9.4868275"><ele>155.0</ele><time>2026-04-15T13:30:45.098Z</time></trkpt><trkpt lat="45.650412" lon="9.4867287"><ele>153.66666666666669</ele><time>2026-04-15T13:30:46.098Z</time></trkpt><trkpt lat="45.6504266" lon="9.4866268"><ele>152.33333333333334</ele><time>2026-04-15T13:30:47.098Z</time></trkpt><trkpt lat="45.6504475" lon="9.4865309"><ele>151.0</ele><time>2026-04-15T13:30:48.098Z</time></trkpt><trkpt lat="45.6504883" lon="9.4863722"><ele>151.0</ele><time>2026-04-15T13:30:50.098Z</time></trkpt><trkpt lat="45.6504944" lon="9.4862663"><ele>151.0</ele><time>2026-04-15T13:30:51.098Z</time></trkpt><trkpt lat="45.6505369" lon="9.4861827"><ele>151.0</ele><time>2026-04-15T13:30:53.099Z</time></trkpt><trkpt lat="45.6505874" lon="9.4861065"><ele>151.0</ele><time>2026-04-15T13:30:55.098Z</time></trkpt><trkpt lat="45.6506394" lon="9.4860244"><ele>151.0</ele><time>2026-04-15T13:30:57.099Z</time></trkpt><trkpt lat="45.6506935" lon="9.4859293"><ele>151.0</ele><time>2026-04-15T13:30:59.098Z</time></trkpt><trkpt lat="45.6507752" lon="9.4858307"><ele>152.8</ele><time>2026-04-15T13:31:01.098Z</time></trkpt><trkpt lat="45.6508298" lon="9.4857167"><ele>154.6</ele><time>2026-04-15T13:31:03.098Z</time></trkpt><trkpt lat="45.6508648" lon="9.4856255"><ele>156.4</ele><time>2026-04-15T13:31:05.098Z</time></trkpt><trkpt lat="45.6509268" lon="9.4855181"><ele>158.2</ele><time>2026-04-15T13:31:08.099Z</time></trkpt><trkpt lat="45.6509865" lon="9.4854448"><ele>160.0</ele><time>2026-04-15T13:31:10.099Z</time></trkpt><trkpt lat="45.6510833" lon="9.4853254"><ele>161.0</ele><time>2026-04-15T13:31:12.099Z</time></trkpt><trkpt lat="45.6511621" lon="9.4852566"><ele>162.0</ele><time>2026-04-15T13:31:14.099Z</time></trkpt><trkpt lat="45.6512563" lon="9.4851606"><ele>163.0</ele><time>2026-04-15T13:31:16.099Z</time></trkpt><trkpt lat="45.6513179" lon="9.4850724"><ele>164.0</ele><time>2026-04-15T13:31:18.098Z</time></trkpt><trkpt lat="45.651396" lon="9.4849793"><ele>165.0</ele><time>2026-04-15T13:31:20.099Z</time></trkpt><trkpt lat="45.6514775" lon="9.4849229"><ele>165.0</ele><time>2026-04-15T13:31:22.099Z</time></trkpt><trkpt lat="45.6515677" lon="9.4848544"><ele>165.0</ele><time>2026-04-15T13:31:24.098Z</time></trkpt><trkpt lat="45.6516408" lon="9.4847874"><ele>165.0</ele><time>2026-04-15T13:31:26.098Z</time></trkpt><trkpt lat="45.6517382" lon="9.4847615"><ele>165.0</ele><time>2026-04-15T13:31:28.098Z</time></trkpt><trkpt lat="45.651778" lon="9.484689"><ele>165.0</ele><time>2026-04-15T13:31:29.098Z</time></trkpt><trkpt lat="45.6518231" lon="9.4846138"><ele>165.0</ele><time>2026-04-15T13:31:30.098Z</time></trkpt><trkpt lat="45.6518717" lon="9.484552"><ele>165.25</ele><time>2026-04-15T13:31:31.098Z</time></trkpt><trkpt lat="45.6519152" lon="9.4844767"><ele>165.5</ele><time>2026-04-15T13:31:32.098Z</time></trkpt><trkpt lat="45.6519925" lon="9.4843988"><ele>165.75</ele><time>2026-04-15T13:31:34.098Z</time></trkpt><trkpt lat="45.6521862" lon="9.4842929"><ele>166.0</ele><time>2026-04-15T13:31:40.098Z</time></trkpt><trkpt lat="45.65232" lon="9.4842368"><ele>166.0</ele><time>2026-04-15T13:31:42.098Z</time></trkpt><trkpt lat="45.6525993" lon="9.4841855"><ele>166.0</ele><time>2026-04-15T13:31:48.098Z</time></trkpt><trkpt lat="45.6526927" lon="9.4841916"><ele>166.0</ele><time>2026-04-15T13:31:50.098Z</time></trkpt><trkpt lat="45.6527961" lon="9.4841978"><ele>164.8</ele><time>2026-04-15T13:31:52.098Z</time></trkpt><trkpt lat="45.652901" lon="9.4842146"><ele>163.60000000000002</ele><time>2026-04-15T13:31:54.099Z</time></trkpt><trkpt lat="45.6530018" lon="9.4842105"><ele>162.4</ele><time>2026-04-15T13:31:56.098Z</time></trkpt><trkpt lat="45.6531009" lon="9.4842342"><ele>161.2</ele><time>2026-04-15T13:31:58.098Z</time></trkpt><trkpt lat="45.6532206" lon="9.4842634"><ele>160.0</ele><time>2026-04-15T13:32:00.098Z</time></trkpt><trkpt lat="45.6533259" lon="9.4842508"><ele>160.0</ele><time>2026-04-15T13:32:02.098Z</time></trkpt><trkpt lat="45.6534349" lon="9.4842539"><ele>160.0</ele><time>2026-04-15T13:32:04.099Z</time></trkpt><trkpt lat="45.6535541" lon="9.4843142"><ele>160.0</ele><time>2026-04-15T13:32:06.098Z</time></trkpt><trkpt lat="45.6536395" lon="9.4843778"><ele>160.0</ele><time>2026-04-15T13:32:08.099Z</time></trkpt><trkpt lat="45.6537576" lon="9.4845039"><ele>160.0</ele><time>2026-04-15T13:32:10.098Z</time></trkpt><trkpt lat="45.6538161" lon="9.4845792"><ele>160.0</ele><time>2026-04-15T13:32:11.098Z</time></trkpt><trkpt lat="45.6539252" lon="9.4846448"><ele>160.0</ele><time>2026-04-15T13:32:13.098Z</time></trkpt><trkpt lat="45.6540386" lon="9.484668"><ele>160.0</ele><time>2026-04-15T13:32:15.099Z</time></trkpt><trkpt lat="45.6541158" lon="9.4846901"><ele>160.0</ele><time>2026-04-15T13:32:17.099Z</time></trkpt><trkpt lat="45.6541791" lon="9.4846813"><ele>159.8</ele><time>2026-04-15T13:32:19.099Z</time></trkpt><trkpt lat="45.6543851" lon="9.4846778"><ele>159.6</ele><time>2026-04-15T13:32:25.098Z</time></trkpt><trkpt lat="45.6544565" lon="9.4846618"><ele>159.4</ele><time>2026-04-15T13:32:27.098Z</time></trkpt><trkpt lat="45.6545436" lon="9.4846006"><ele>159.2</ele><time>2026-04-15T13:32:30.099Z</time></trkpt><trkpt lat="45.6545946" lon="9.4845351"><ele>159.0</ele><time>2026-04-15T13:32:32.098Z</time></trkpt><trkpt lat="45.6546305" lon="9.4844595"><ele>159.14285714285714</ele><time>2026-04-15T13:32:34.098Z</time></trkpt><trkpt lat="45.6546697" lon="9.4843639"><ele>159.2857142857143</ele><time>2026-04-15T13:32:37.098Z</time></trkpt><trkpt lat="45.6546383" lon="9.4842835"><ele>159.42857142857144</ele><time>2026-04-15T13:33:51.098Z</time></trkpt><trkpt lat="45.6545932" lon="9.4842181"><ele>159.57142857142856</ele><time>2026-04-15T13:33:54.099Z</time></trkpt><trkpt lat="45.6545448" lon="9.48415"><ele>159.71428571428572</ele><time>2026-04-15T13:33:57.098Z</time></trkpt><trkpt lat="45.6544738" lon="9.4840833"><ele>159.85714285714286</ele><time>2026-04-15T13:34:01.098Z</time></trkpt><trkpt lat="45.6544052" lon="9.4840221"><ele>160.0</ele><time>2026-04-15T13:34:04.098Z</time></trkpt><trkpt lat="45.6543289" lon="9.4839541"><ele>160.0</ele><time>2026-04-15T13:34:07.099Z</time></trkpt><trkpt lat="45.6542462" lon="9.4838851"><ele>160.0</ele><time>2026-04-15T13:34:10.099Z</time></trkpt><trkpt lat="45.6541788" lon="9.4838455"><ele>160.0</ele><time>2026-04-15T13:34:12.098Z</time></trkpt><trkpt lat="45.6541142" lon="9.4838082"><ele>160.0</ele><time>2026-04-15T13:34:14.099Z</time></trkpt><trkpt lat="45.6540541" lon="9.483756"><ele>160.0</ele><time>2026-04-15T13:34:16.098Z</time></trkpt><trkpt lat="45.6540068" lon="9.4836856"><ele>160.0</ele><time>2026-04-15T13:34:18.099Z</time></trkpt><trkpt lat="45.6539681" lon="9.4835685"><ele>161.14285714285714</ele><time>2026-04-15T13:34:21.098Z</time></trkpt><trkpt lat="45.6539665" lon="9.483478"><ele>162.28571428571428</ele><time>2026-04-15T13:34:23.099Z</time></trkpt><trkpt lat="45.6539944" lon="9.4833883"><ele>163.42857142857144</ele><time>2026-04-15T13:34:25.098Z</time></trkpt><trkpt lat="45.6540478" lon="9.4833208"><ele>164.57142857142856</ele><time>2026-04-15T13:34:27.098Z</time></trkpt><trkpt lat="45.6541173" lon="9.4832758"><ele>165.71428571428572</ele><time>2026-04-15T13:34:29.099Z</time></trkpt><trkpt lat="45.6541873" lon="9.483223"><ele>166.85714285714286</ele><time>2026-04-15T13:34:31.098Z</time></trkpt><trkpt lat="45.6542582" lon="9.4831818"><ele>168.0</ele><time>2026-04-15T13:34:33.098Z</time></trkpt><trkpt lat="45.6543301" lon="9.4831423"><ele>168.0</ele><time>2026-04-15T13:34:35.098Z</time></trkpt><trkpt lat="45.6544011" lon="9.4831164"><ele>168.0</ele><time>2026-04-15T13:34:37.098Z</time></trkpt><trkpt lat="45.6544974" lon="9.4830815"><ele>168.0</ele><time>2026-04-15T13:34:39.098Z</time></trkpt><trkpt lat="45.6545682" lon="9.4830517"><ele>168.0</ele><time>2026-04-15T13:34:41.098Z</time></trkpt><trkpt lat="45.6546667" lon="9.483056"><ele>168.0</ele><time>2026-04-15T13:34:43.098Z</time></trkpt><trkpt lat="45.6547562" lon="9.4830803"><ele>168.0</ele><time>2026-04-15T13:34:46.099Z</time></trkpt><trkpt lat="45.6548199" lon="9.4831018"><ele>168.5</ele><time>2026-04-15T13:34:48.098Z</time></trkpt><trkpt lat="45.6548992" lon="9.4831098"><ele>169.0</ele><time>2026-04-15T13:34:50.098Z</time></trkpt><trkpt lat="45.6549779" lon="9.4831111"><ele>169.5</ele><time>2026-04-15T13:34:52.099Z</time></trkpt><trkpt lat="45.6550558" lon="9.483115"><ele>170.0</ele><time>2026-04-15T13:34:54.098Z</time></trkpt><trkpt lat="45.6551742" lon="9.4831119"><ele>170.5</ele><time>2026-04-15T13:34:57.098Z</time></trkpt><trkpt lat="45.6552529" lon="9.4831143"><ele>171.0</ele><time>2026-04-15T13:34:59.098Z</time></trkpt><trkpt lat="45.6553326" lon="9.4831164"><ele>171.0</ele><time>2026-04-15T13:35:01.098Z</time></trkpt><trkpt lat="45.6554106" lon="9.4831196"><ele>171.0</ele><time>2026-04-15T13:35:03.098Z</time></trkpt><trkpt lat="45.6554889" lon="9.4831118"><ele>171.0</ele><time>2026-04-15T13:35:05.098Z</time></trkpt><trkpt lat="45.6555764" lon="9.4831182"><ele>171.0</ele><time>2026-04-15T13:35:07.098Z</time></trkpt><trkpt lat="45.6556606" lon="9.4831246"><ele>171.0</ele><time>2026-04-15T13:35:09.099Z</time></trkpt><trkpt lat="45.6557408" lon="9.4831291"><ele>171.0</ele><time>2026-04-15T13:35:11.099Z</time></trkpt><trkpt lat="45.6558316" lon="9.4831352"><ele>171.0</ele><time>2026-04-15T13:35:13.098Z</time></trkpt><trkpt lat="45.6559183" lon="9.4831408"><ele>171.0</ele><time>2026-04-15T13:35:15.098Z</time></trkpt><trkpt lat="45.6560042" lon="9.4831516"><ele>171.0</ele><time>2026-04-15T13:35:17.099Z</time></trkpt><trkpt lat="45.6560927" lon="9.4831564"><ele>171.0</ele><time>2026-04-15T13:35:19.099Z</time></trkpt><trkpt lat="45.6561793" lon="9.4831683"><ele>171.0</ele><time>2026-04-15T13:35:21.099Z</time></trkpt><trkpt lat="45.656268" lon="9.4831598"><ele>171.0</ele><time>2026-04-15T13:35:23.098Z</time></trkpt><trkpt lat="45.656363" lon="9.4831675"><ele>171.20000000000002</ele><time>2026-04-15T13:35:25.099Z</time></trkpt><trkpt lat="45.6564596" lon="9.4831748"><ele>171.4</ele><time>2026-04-15T13:35:27.099Z</time></trkpt><trkpt lat="45.6565621" lon="9.4831883"><ele>171.6</ele><time>2026-04-15T13:35:29.098Z</time></trkpt><trkpt lat="45.6566564" lon="9.4832066"><ele>171.8</ele><time>2026-04-15T13:35:31.098Z</time></trkpt><trkpt lat="45.6567531" lon="9.4832157"><ele>172.0</ele><time>2026-04-15T13:35:33.098Z</time></trkpt><trkpt lat="45.6568515" lon="9.4832213"><ele>172.0</ele><time>2026-04-15T13:35:35.097Z</time></trkpt><trkpt lat="45.6569491" lon="9.4832285"><ele>172.0</ele><time>2026-04-15T13:35:37.098Z</time></trkpt><trkpt lat="45.657045" lon="9.4832371"><ele>172.0</ele><time>2026-04-15T13:35:39.099Z</time></trkpt><trkpt lat="45.6571437" lon="9.4832494"><ele>172.0</ele><time>2026-04-15T13:35:41.098Z</time></trkpt><trkpt lat="45.657242" lon="9.4832659"><ele>172.0</ele><time>2026-04-15T13:35:43.099Z</time></trkpt><trkpt lat="45.6573379" lon="9.4832732"><ele>171.83333333333334</ele><time>2026-04-15T13:35:45.099Z</time></trkpt><trkpt lat="45.6574338" lon="9.483282"><ele>171.66666666666669</ele><time>2026-04-15T13:35:47.098Z</time></trkpt><trkpt lat="45.6575341" lon="9.4832908"><ele>171.5</ele><time>2026-04-15T13:35:49.098Z</time></trkpt><trkpt lat="45.657626" lon="9.4832858"><ele>171.33333333333334</ele><time>2026-04-15T13:35:51.098Z</time></trkpt><trkpt lat="45.6577078" lon="9.4832865"><ele>171.16666666666666</ele><time>2026-04-15T13:35:53.098Z</time></trkpt><trkpt lat="45.6577851" lon="9.4832771"><ele>171.0</ele><time>2026-04-15T13:35:55.098Z</time></trkpt><trkpt lat="45.6578683" lon="9.4832244"><ele>171.4</ele><time>2026-04-15T13:35:58.099Z</time></trkpt><trkpt lat="45.6579558" lon="9.4832268"><ele>171.8</ele><time>2026-04-15T13:36:00.098Z</time></trkpt><trkpt lat="45.6580681" lon="9.4832473"><ele>172.20000000000002</ele><time>2026-04-15T13:36:02.098Z</time></trkpt><trkpt lat="45.6581773" lon="9.4832633"><ele>172.60000000000002</ele><time>2026-04-15T13:36:04.098Z</time></trkpt><trkpt lat="45.6582805" lon="9.4832691"><ele>173.0</ele><time>2026-04-15T13:36:06.099Z</time></trkpt><trkpt lat="45.6583806" lon="9.4832823"><ele>173.0</ele><time>2026-04-15T13:36:08.098Z</time></trkpt><trkpt lat="45.6584909" lon="9.4832968"><ele>173.0</ele><time>2026-04-15T13:36:10.098Z</time></trkpt><trkpt lat="45.6585965" lon="9.4833125"><ele>173.0</ele><time>2026-04-15T13:36:12.098Z</time></trkpt><trkpt lat="45.6587086" lon="9.4833346"><ele>173.0</ele><time>2026-04-15T13:36:14.099Z</time></trkpt><trkpt lat="45.658772" lon="9.4833472"><ele>173.0</ele><time>2026-04-15T13:36:15.098Z</time></trkpt><trkpt lat="45.65887" lon="9.4833449"><ele>172.8</ele><time>2026-04-15T13:36:17.098Z</time></trkpt><trkpt lat="45.658963" lon="9.4833514"><ele>172.60000000000002</ele><time>2026-04-15T13:36:19.099Z</time></trkpt><trkpt lat="45.6590621" lon="9.4833635"><ele>172.39999999999998</ele><time>2026-04-15T13:36:21.098Z</time></trkpt><trkpt lat="45.6591606" lon="9.4833741"><ele>172.2</ele><time>2026-04-15T13:36:23.098Z</time></trkpt><trkpt lat="45.6592591" lon="9.4833825"><ele>172.0</ele><time>2026-04-15T13:36:25.098Z</time></trkpt><trkpt lat="45.6593579" lon="9.4834027"><ele>173.6</ele><time>2026-04-15T13:36:27.098Z</time></trkpt><trkpt lat="45.65946" lon="9.4834186"><ele>175.2</ele><time>2026-04-15T13:36:29.098Z</time></trkpt><trkpt lat="45.6595586" lon="9.4834289"><ele>176.8</ele><time>2026-04-15T13:36:31.098Z</time></trkpt><trkpt lat="45.6596524" lon="9.4834316"><ele>178.4</ele><time>2026-04-15T13:36:33.098Z</time></trkpt><trkpt lat="45.6597161" lon="9.4834199"><ele>180.0</ele><time>2026-04-15T13:36:35.098Z</time></trkpt><trkpt lat="45.6598174" lon="9.483437"><ele>180.0</ele><time>2026-04-15T13:36:37.098Z</time></trkpt><trkpt lat="45.6599232" lon="9.4834522"><ele>180.0</ele><time>2026-04-15T13:36:39.098Z</time></trkpt><trkpt lat="45.6600213" lon="9.4834643"><ele>180.0</ele><time>2026-04-15T13:36:41.098Z</time></trkpt><trkpt lat="45.6601358" lon="9.4834675"><ele>180.0</ele><time>2026-04-15T13:36:44.099Z</time></trkpt><trkpt lat="45.6602244" lon="9.4834307"><ele>180.0</ele><time>2026-04-15T13:36:47.098Z</time></trkpt><trkpt lat="45.6602921" lon="9.4834168"><ele>180.16666666666666</ele><time>2026-04-15T13:36:49.098Z</time></trkpt><trkpt lat="45.660366" lon="9.4834186"><ele>180.33333333333334</ele><time>2026-04-15T13:36:51.098Z</time></trkpt><trkpt lat="45.6604395" lon="9.4834187"><ele>180.5</ele><time>2026-04-15T13:36:53.098Z</time></trkpt><trkpt lat="45.6605166" lon="9.4834287"><ele>180.66666666666669</ele><time>2026-04-15T13:36:55.098Z</time></trkpt><trkpt lat="45.6606014" lon="9.4834427"><ele>180.83333333333334</ele><time>2026-04-15T13:36:57.098Z</time></trkpt><trkpt lat="45.6606917" lon="9.4834655"><ele>181.0</ele><time>2026-04-15T13:36:59.099Z</time></trkpt><trkpt lat="45.6608984" lon="9.4834662"><ele>181.5</ele><time>2026-04-15T13:37:04.098Z</time></trkpt><trkpt lat="45.6611373" lon="9.4834693"><ele>182.0</ele><time>2026-04-15T13:37:10.099Z</time></trkpt><trkpt lat="45.661217" lon="9.4834762"><ele>182.5</ele><time>2026-04-15T13:37:12.098Z</time></trkpt><trkpt lat="45.6612928" lon="9.4835004"><ele>183.0</ele><time>2026-04-15T13:37:14.098Z</time></trkpt><trkpt lat="45.661358" lon="9.4835108"><ele>183.0</ele><time>2026-04-15T13:37:16.099Z</time></trkpt><trkpt lat="45.6614317" lon="9.4835293"><ele>183.0</ele><time>2026-04-15T13:37:18.098Z</time></trkpt><trkpt lat="45.6615304" lon="9.4835652"><ele>183.0</ele><time>2026-04-15T13:37:20.099Z</time></trkpt><trkpt lat="45.661648" lon="9.4836045"><ele>183.0</ele><time>2026-04-15T13:37:22.098Z</time></trkpt><trkpt lat="45.6617105" lon="9.483637"><ele>183.0</ele><time>2026-04-15T13:37:23.099Z</time></trkpt><trkpt lat="45.6617746" lon="9.4836804"><ele>183.0</ele><time>2026-04-15T13:37:24.098Z</time></trkpt><trkpt lat="45.6618347" lon="9.4837424"><ele>183.75</ele><time>2026-04-15T13:37:25.099Z</time></trkpt><trkpt lat="45.6618878" lon="9.4838237"><ele>184.5</ele><time>2026-04-15T13:37:26.099Z</time></trkpt><trkpt lat="45.6619245" lon="9.4839067"><ele>185.25</ele><time>2026-04-15T13:37:27.098Z</time></trkpt><trkpt lat="45.6619527" lon="9.4839946"><ele>186.0</ele><time>2026-04-15T13:37:28.098Z</time></trkpt><trkpt lat="45.6623863" lon="9.4841868"><ele>186.0</ele><time>2026-04-15T13:37:29.098Z</time></trkpt><trkpt lat="45.6624007" lon="9.4843657"><ele>186.0</ele><time>2026-04-15T13:37:31.098Z</time></trkpt><trkpt lat="45.6624258" lon="9.4845262"><ele>186.0</ele><time>2026-04-15T13:37:33.098Z</time></trkpt><trkpt lat="45.6624404" lon="9.4846232"><ele>186.0</ele><time>2026-04-15T13:37:34.099Z</time></trkpt><trkpt lat="45.6624753" lon="9.4847009"><ele>186.0</ele><time>2026-04-15T13:37:35.098Z</time></trkpt><trkpt lat="45.6625483" lon="9.4848189"><ele>186.0</ele><time>2026-04-15T13:37:37.099Z</time></trkpt><trkpt lat="45.6626444" lon="9.484895"><ele>186.0</ele><time>2026-04-15T13:37:39.098Z</time></trkpt><trkpt lat="45.662746" lon="9.4848931"><ele>186.0</ele><time>2026-04-15T13:37:41.098Z</time></trkpt><trkpt lat="45.6628357" lon="9.4847982"><ele>186.0</ele><time>2026-04-15T13:37:43.099Z</time></trkpt><trkpt lat="45.6628694" lon="9.4846716"><ele>186.0</ele><time>2026-04-15T13:37:45.099Z</time></trkpt><trkpt lat="45.6629032" lon="9.484543"><ele>186.8</ele><time>2026-04-15T13:37:47.099Z</time></trkpt><trkpt lat="45.6629445" lon="9.4844018"><ele>187.60000000000002</ele><time>2026-04-15T13:37:49.098Z</time></trkpt><trkpt lat="45.6629759" lon="9.4842637"><ele>188.4</ele><time>2026-04-15T13:37:51.099Z</time></trkpt><trkpt lat="45.6630149" lon="9.4841297"><ele>189.2</ele><time>2026-04-15T13:37:53.098Z</time></trkpt><trkpt lat="45.6630703" lon="9.4839926"><ele>190.0</ele><time>2026-04-15T13:37:55.098Z</time></trkpt><trkpt lat="45.6631091" lon="9.4838445"><ele>189.75</ele><time>2026-04-15T13:37:57.098Z</time></trkpt><trkpt lat="45.6631538" lon="9.4836915"><ele>189.5</ele><time>2026-04-15T13:37:59.099Z</time></trkpt><trkpt lat="45.6632015" lon="9.4835523"><ele>189.25</ele><time>2026-04-15T13:38:01.099Z</time></trkpt><trkpt lat="45.6632443" lon="9.4834077"><ele>189.0</ele><time>2026-04-15T13:38:03.098Z</time></trkpt><trkpt lat="45.6633008" lon="9.4832587"><ele>189.0</ele><time>2026-04-15T13:38:05.098Z</time></trkpt><trkpt lat="45.6633534" lon="9.4831201"><ele>189.0</ele><time>2026-04-15T13:38:07.099Z</time></trkpt><trkpt lat="45.6633968" lon="9.4829826"><ele>189.0</ele><time>2026-04-15T13:38:09.098Z</time></trkpt><trkpt lat="45.6634377" lon="9.4828536"><ele>189.0</ele><time>2026-04-15T13:38:11.098Z</time></trkpt><trkpt lat="45.663472" lon="9.4827328"><ele>189.0</ele><time>2026-04-15T13:38:13.098Z</time></trkpt><trkpt lat="45.6635145" lon="9.4826097"><ele>189.28571428571428</ele><time>2026-04-15T13:38:15.098Z</time></trkpt><trkpt lat="45.6635455" lon="9.4825"><ele>189.57142857142856</ele><time>2026-04-15T13:38:17.098Z</time></trkpt><trkpt lat="45.663575" lon="9.4824102"><ele>189.85714285714286</ele><time>2026-04-15T13:38:19.098Z</time></trkpt><trkpt lat="45.6635996" lon="9.4823137"><ele>190.14285714285714</ele><time>2026-04-15T13:38:21.098Z</time></trkpt><trkpt lat="45.6636279" lon="9.4822231"><ele>190.42857142857142</ele><time>2026-04-15T13:38:23.098Z</time></trkpt><trkpt lat="45.6636535" lon="9.4821349"><ele>190.71428571428572</ele><time>2026-04-15T13:38:25.098Z</time></trkpt><trkpt lat="45.6636817" lon="9.4820386"><ele>191.0</ele><time>2026-04-15T13:38:27.099Z</time></trkpt><trkpt lat="45.6637137" lon="9.4819481"><ele>194.16666666666666</ele><time>2026-04-15T13:38:29.098Z</time></trkpt><trkpt lat="45.6636746" lon="9.4820377"><ele>197.33333333333331</ele><time>2026-04-15T13:38:30.138Z</time></trkpt><trkpt lat="45.6637297" lon="9.4819264"><ele>200.5</ele><time>2026-04-15T13:38:33.098Z</time></trkpt><trkpt lat="45.6637975" lon="9.4818404"><ele>203.66666666666666</ele><time>2026-04-15T13:38:36.009Z</time></trkpt><trkpt lat="45.6638538" lon="9.4817995"><ele>206.83333333333334</ele><time>2026-04-15T13:38:38.098Z</time></trkpt><trkpt lat="45.6639307" lon="9.4818011"><ele>210.0</ele><time>2026-04-15T13:38:41.098Z</time></trkpt><trkpt lat="45.6640075" lon="9.4818664"><ele>210.0</ele><time>2026-04-15T13:38:44.099Z</time></trkpt><trkpt lat="45.664061" lon="9.4819144"><ele>210.0</ele><time>2026-04-15T13:38:46.027Z</time></trkpt><trkpt lat="45.6641276" lon="9.4819888"><ele>210.0</ele><time>2026-04-15T13:38:48.099Z</time></trkpt><trkpt lat="45.6641843" lon="9.4820654"><ele>210.0</ele><time>2026-04-15T13:38:50.154Z</time></trkpt><trkpt lat="45.6642473" lon="9.4821413"><ele>210.0</ele><time>2026-04-15T13:38:52.098Z</time></trkpt><trkpt lat="45.664301" lon="9.4822164"><ele>210.0</ele><time>2026-04-15T13:38:54.129Z</time></trkpt><trkpt lat="45.6643511" lon="9.4823043"><ele>210.83333333333334</ele><time>2026-04-15T13:38:56.099Z</time></trkpt><trkpt lat="45.6643749" lon="9.4824042"><ele>211.66666666666669</ele><time>2026-04-15T13:38:58.098Z</time></trkpt><trkpt lat="45.6644252" lon="9.4824782"><ele>212.5</ele><time>2026-04-15T13:39:02.098Z</time></trkpt><trkpt lat="45.6644482" lon="9.4825755"><ele>213.33333333333334</ele><time>2026-04-15T13:39:04.098Z</time></trkpt><trkpt lat="45.664481" lon="9.4826795"><ele>214.16666666666669</ele><time>2026-04-15T13:39:06.099Z</time></trkpt><trkpt lat="45.6645371" lon="9.4827779"><ele>215.0</ele><time>2026-04-15T13:39:08.098Z</time></trkpt><trkpt lat="45.6645908" lon="9.4828315"><ele>215.00000000000003</ele><time>2026-04-15T13:39:10.098Z</time></trkpt><trkpt lat="45.6646703" lon="9.4827833"><ele>215.0</ele><time>2026-04-15T13:39:13.098Z</time></trkpt><trkpt lat="45.6646851" lon="9.4826703"><ele>215.0</ele><time>2026-04-15T13:39:16.098Z</time></trkpt><trkpt lat="45.6646606" lon="9.4825864"><ele>215.0</ele><time>2026-04-15T13:39:18.097Z</time></trkpt><trkpt lat="45.6646129" lon="9.482498"><ele>215.00000000000003</ele><time>2026-04-15T13:39:21.099Z</time></trkpt><trkpt lat="45.6645878" lon="9.482408"><ele>215.0</ele><time>2026-04-15T13:39:23.098Z</time></trkpt><trkpt lat="45.6645432" lon="9.4822924"><ele>215.00000000000003</ele><time>2026-04-15T13:39:26.098Z</time></trkpt><trkpt lat="45.6644989" lon="9.4821746"><ele>215.0</ele><time>2026-04-15T13:39:29.098Z</time></trkpt><trkpt lat="45.6644557" lon="9.4820638"><ele>215.0</ele><time>2026-04-15T13:39:32.098Z</time></trkpt><trkpt lat="45.6644104" lon="9.4819446"><ele>215.0</ele><time>2026-04-15T13:39:35.099Z</time></trkpt><trkpt lat="45.664375" lon="9.4818589"><ele>215.00000000000003</ele><time>2026-04-15T13:39:37.098Z</time></trkpt><trkpt lat="45.6643425" lon="9.481777"><ele>215.0</ele><time>2026-04-15T13:39:39.098Z</time></trkpt><trkpt lat="45.6643116" lon="9.481692"><ele>215.57142857142856</ele><time>2026-04-15T13:39:41.098Z</time></trkpt><trkpt lat="45.6642813" lon="9.4816052"><ele>216.14285714285717</ele><time>2026-04-15T13:39:43.098Z</time></trkpt><trkpt lat="45.6642511" lon="9.4815234"><ele>216.71428571428572</ele><time>2026-04-15T13:39:45.098Z</time></trkpt><trkpt lat="45.6642142" lon="9.4814351"><ele>217.28571428571428</ele><time>2026-04-15T13:39:47.098Z</time></trkpt><trkpt lat="45.6641777" lon="9.4813473"><ele>217.85714285714283</ele><time>2026-04-15T13:39:49.098Z</time></trkpt><trkpt lat="45.6641404" lon="9.4812615"><ele>218.42857142857144</ele><time>2026-04-15T13:39:51.098Z</time></trkpt><trkpt lat="45.6640974" lon="9.4811762"><ele>219.0</ele><time>2026-04-15T13:39:53.098Z</time></trkpt><trkpt lat="45.6640585" lon="9.4810975"><ele>219.0</ele><time>2026-04-15T13:39:55.098Z</time></trkpt><trkpt lat="45.6640194" lon="9.4810217"><ele>219.0</ele><time>2026-04-15T13:39:57.098Z</time></trkpt><trkpt lat="45.6639527" lon="9.4809234"><ele>219.0</ele><time>2026-04-15T13:40:00.098Z</time></trkpt><trkpt lat="45.6639055" lon="9.4808471"><ele>219.0</ele><time>2026-04-15T13:40:02.098Z</time></trkpt><trkpt lat="45.6638672" lon="9.4807667"><ele>219.0</ele><time>2026-04-15T13:40:04.098Z</time></trkpt><trkpt lat="45.6638243" lon="9.4806956"><ele>219.0</ele><time>2026-04-15T13:40:06.098Z</time></trkpt><trkpt lat="45.6637763" lon="9.4806116"><ele>219.0</ele><time>2026-04-15T13:40:08.099Z</time></trkpt><trkpt lat="45.6637331" lon="9.4805418"><ele>219.0</ele><time>2026-04-15T13:40:10.098Z</time></trkpt><trkpt lat="45.66369" lon="9.4804628"><ele>219.0</ele><time>2026-04-15T13:40:12.099Z</time></trkpt><trkpt lat="45.6636484" lon="9.4803845"><ele>219.0</ele><time>2026-04-15T13:40:14.098Z</time></trkpt><trkpt lat="45.6636082" lon="9.4803057"><ele>219.0</ele><time>2026-04-15T13:40:16.098Z</time></trkpt><trkpt lat="45.6635678" lon="9.480221"><ele>219.0</ele><time>2026-04-15T13:40:18.098Z</time></trkpt><trkpt lat="45.6635206" lon="9.4801286"><ele>219.0</ele><time>2026-04-15T13:40:20.098Z</time></trkpt><trkpt lat="45.6634645" lon="9.4800227"><ele>219.14285714285714</ele><time>2026-04-15T13:40:23.098Z</time></trkpt><trkpt lat="45.6634273" lon="9.4799447"><ele>219.28571428571428</ele><time>2026-04-15T13:40:25.098Z</time></trkpt><trkpt lat="45.6633922" lon="9.4798607"><ele>219.42857142857142</ele><time>2026-04-15T13:40:27.098Z</time></trkpt><trkpt lat="45.6633578" lon="9.4797666"><ele>219.57142857142856</ele><time>2026-04-15T13:40:29.099Z</time></trkpt><trkpt lat="45.6633346" lon="9.4796796"><ele>219.71428571428572</ele><time>2026-04-15T13:40:31.099Z</time></trkpt><trkpt lat="45.6633248" lon="9.479582"><ele>219.85714285714283</ele><time>2026-04-15T13:40:33.098Z</time></trkpt><trkpt lat="45.6633148" lon="9.4794771"><ele>220.0</ele><time>2026-04-15T13:40:35.098Z</time></trkpt><trkpt lat="45.6633008" lon="9.4793837"><ele>221.42857142857142</ele><time>2026-04-15T13:40:37.098Z</time></trkpt><trkpt lat="45.6632905" lon="9.4792906"><ele>222.85714285714283</ele><time>2026-04-15T13:40:39.098Z</time></trkpt><trkpt lat="45.663286" lon="9.4791896"><ele>224.28571428571428</ele><time>2026-04-15T13:40:41.098Z</time></trkpt><trkpt lat="45.6632882" lon="9.4790851"><ele>225.7142857142857</ele><time>2026-04-15T13:40:43.098Z</time></trkpt><trkpt lat="45.6632839" lon="9.4789757"><ele>227.14285714285714</ele><time>2026-04-15T13:40:45.098Z</time></trkpt><trkpt lat="45.6632827" lon="9.4788624"><ele>228.57142857142853</ele><time>2026-04-15T13:40:47.098Z</time></trkpt><trkpt lat="45.6632807" lon="9.4787576"><ele>229.99999999999997</ele><time>2026-04-15T13:40:49.098Z</time></trkpt><trkpt lat="45.6632754" lon="9.4786469"><ele>230.16666666666669</ele><time>2026-04-15T13:40:51.099Z</time></trkpt><trkpt lat="45.6632651" lon="9.4785377"><ele>230.33333333333334</ele><time>2026-04-15T13:40:53.099Z</time></trkpt><trkpt lat="45.663255" lon="9.4784321"><ele>230.5</ele><time>2026-04-15T13:40:55.098Z</time></trkpt><trkpt lat="45.663251" lon="9.478323"><ele>230.66666666666669</ele><time>2026-04-15T13:40:57.098Z</time></trkpt><trkpt lat="45.6632457" lon="9.4782103"><ele>230.83333333333334</ele><time>2026-04-15T13:40:59.098Z</time></trkpt><trkpt lat="45.6632422" lon="9.4781067"><ele>231.0</ele><time>2026-04-15T13:41:01.099Z</time></trkpt><trkpt lat="45.6632315" lon="9.4779936"><ele>231.33333333333334</ele><time>2026-04-15T13:41:03.098Z</time></trkpt><trkpt lat="45.6632216" lon="9.4778821"><ele>231.66666666666669</ele><time>2026-04-15T13:41:05.098Z</time></trkpt><trkpt lat="45.6632041" lon="9.4777727"><ele>232.0</ele><time>2026-04-15T13:41:07.099Z</time></trkpt><trkpt lat="45.6631942" lon="9.4776667"><ele>232.33333333333334</ele><time>2026-04-15T13:41:09.098Z</time></trkpt><trkpt lat="45.6631807" lon="9.4775388"><ele>232.66666666666669</ele><time>2026-04-15T13:41:11.098Z</time></trkpt><trkpt lat="45.6631723" lon="9.4774125"><ele>233.0</ele><time>2026-04-15T13:41:13.099Z</time></trkpt><trkpt lat="45.6631659" lon="9.4772867"><ele>233.00000000000003</ele><time>2026-04-15T13:41:15.098Z</time></trkpt><trkpt lat="45.6631636" lon="9.4771647"><ele>233.0</ele><time>2026-04-15T13:41:17.099Z</time></trkpt><trkpt lat="45.663165" lon="9.4770419"><ele>233.0</ele><time>2026-04-15T13:41:19.098Z</time></trkpt><trkpt lat="45.663167" lon="9.4769348"><ele>233.0</ele><time>2026-04-15T13:41:21.098Z</time></trkpt><trkpt lat="45.6631899" lon="9.476843"><ele>233.00000000000003</ele><time>2026-04-15T13:41:23.098Z</time></trkpt><trkpt lat="45.6632591" lon="9.4767928"><ele>233.0</ele><time>2026-04-15T13:41:25.098Z</time></trkpt><trkpt lat="45.6633431" lon="9.4767458"><ele>234.16666666666669</ele><time>2026-04-15T13:41:27.098Z</time></trkpt><trkpt lat="45.6633666" lon="9.4766328"><ele>235.33333333333334</ele><time>2026-04-15T13:41:29.098Z</time></trkpt><trkpt lat="45.6633688" lon="9.476522"><ele>236.5</ele><time>2026-04-15T13:41:31.099Z</time></trkpt><trkpt lat="45.6633633" lon="9.4764054"><ele>237.66666666666669</ele><time>2026-04-15T13:41:33.098Z</time></trkpt><trkpt lat="45.6633514" lon="9.4762867"><ele>238.83333333333334</ele><time>2026-04-15T13:41:35.099Z</time></trkpt><trkpt lat="45.6633386" lon="9.4761737"><ele>240.0</ele><time>2026-04-15T13:41:37.098Z</time></trkpt><trkpt lat="45.6633294" lon="9.4760474"><ele>240.0</ele><time>2026-04-15T13:41:39.098Z</time></trkpt><trkpt lat="45.663319" lon="9.4759192"><ele>240.0</ele><time>2026-04-15T13:41:41.099Z</time></trkpt><trkpt lat="45.6633171" lon="9.4757868"><ele>240.0</ele><time>2026-04-15T13:41:43.098Z</time></trkpt><trkpt lat="45.6633148" lon="9.475646"><ele>240.0</ele><time>2026-04-15T13:41:45.098Z</time></trkpt><trkpt lat="45.6633185" lon="9.4755205"><ele>240.0</ele><time>2026-04-15T13:41:47.098Z</time></trkpt><trkpt lat="45.663316" lon="9.4753801"><ele>240.16666666666666</ele><time>2026-04-15T13:41:49.098Z</time></trkpt><trkpt lat="45.6633096" lon="9.47524"><ele>240.33333333333331</ele><time>2026-04-15T13:41:51.098Z</time></trkpt><trkpt lat="45.6633009" lon="9.4751109"><ele>240.5</ele><time>2026-04-15T13:41:53.098Z</time></trkpt><trkpt lat="45.6632902" lon="9.4749886"><ele>240.66666666666666</ele><time>2026-04-15T13:41:55.098Z</time></trkpt><trkpt lat="45.6632768" lon="9.4748726"><ele>240.83333333333331</ele><time>2026-04-15T13:41:57.098Z</time></trkpt><trkpt lat="45.6632516" lon="9.4747552"><ele>241.0</ele><time>2026-04-15T13:41:59.099Z</time></trkpt><trkpt lat="45.6632301" lon="9.474627"><ele>241.8</ele><time>2026-04-15T13:42:01.099Z</time></trkpt><trkpt lat="45.6632053" lon="9.4744882"><ele>242.60000000000002</ele><time>2026-04-15T13:42:03.098Z</time></trkpt><trkpt lat="45.6631815" lon="9.4743863"><ele>243.4</ele><time>2026-04-15T13:42:05.098Z</time></trkpt><trkpt lat="45.6631683" lon="9.4742802"><ele>244.2</ele><time>2026-04-15T13:42:07.098Z</time></trkpt><trkpt lat="45.6631374" lon="9.4741623"><ele>245.0</ele><time>2026-04-15T13:42:09.099Z</time></trkpt><trkpt lat="45.6630575" lon="9.473958"><ele>245.00000000000003</ele><time>2026-04-15T13:42:13.096Z</time></trkpt><trkpt lat="45.6630426" lon="9.4738321"><ele>245.0</ele><time>2026-04-15T13:42:15.092Z</time></trkpt><trkpt lat="45.6630275" lon="9.4737011"><ele>245.0</ele><time>2026-04-15T13:42:17.094Z</time></trkpt><trkpt lat="45.6630144" lon="9.4735935"><ele>245.0</ele><time>2026-04-15T13:42:19.094Z</time></trkpt><trkpt lat="45.6629914" lon="9.4734786"><ele>245.00000000000003</ele><time>2026-04-15T13:42:21.094Z</time></trkpt><trkpt lat="45.6629683" lon="9.4733556"><ele>245.0</ele><time>2026-04-15T13:42:23.093Z</time></trkpt><trkpt lat="45.6629554" lon="9.473204"><ele>245.2</ele><time>2026-04-15T13:42:25.093Z</time></trkpt><trkpt lat="45.6629334" lon="9.4730531"><ele>245.4</ele><time>2026-04-15T13:42:27.093Z</time></trkpt><trkpt lat="45.6629075" lon="9.4729198"><ele>245.60000000000002</ele><time>2026-04-15T13:42:29.094Z</time></trkpt><trkpt lat="45.6628954" lon="9.472749"><ele>245.8</ele><time>2026-04-15T13:42:31.093Z</time></trkpt><trkpt lat="45.662866" lon="9.4725829"><ele>246.0</ele><time>2026-04-15T13:42:33.093Z</time></trkpt><trkpt lat="45.6628409" lon="9.4724221"><ele>246.0</ele><time>2026-04-15T13:42:35.093Z</time></trkpt><trkpt lat="45.6628218" lon="9.4722592"><ele>246.0</ele><time>2026-04-15T13:42:37.094Z</time></trkpt><trkpt lat="45.6627939" lon="9.4720887"><ele>246.0</ele><time>2026-04-15T13:42:39.093Z</time></trkpt><trkpt lat="45.6627748" lon="9.4719145"><ele>246.0</ele><time>2026-04-15T13:42:41.093Z</time></trkpt><trkpt lat="45.6627505" lon="9.4717527"><ele>245.8</ele><time>2026-04-15T13:42:43.093Z</time></trkpt><trkpt lat="45.6627372" lon="9.4716627"><ele>245.60000000000002</ele><time>2026-04-15T13:42:44.094Z</time></trkpt><trkpt lat="45.6627232" lon="9.47149"><ele>245.4</ele><time>2026-04-15T13:42:46.093Z</time></trkpt><trkpt lat="45.6627167" lon="9.4713192"><ele>245.2</ele><time>2026-04-15T13:42:48.094Z</time></trkpt><trkpt lat="45.6627204" lon="9.4711584"><ele>245.0</ele><time>2026-04-15T13:42:50.093Z</time></trkpt><trkpt lat="45.6627163" lon="9.4710174"><ele>245.4</ele><time>2026-04-15T13:42:52.093Z</time></trkpt><trkpt lat="45.6627278" lon="9.4708548"><ele>245.8</ele><time>2026-04-15T13:42:54.093Z</time></trkpt><trkpt lat="45.662737" lon="9.4707148"><ele>246.2</ele><time>2026-04-15T13:42:56.093Z</time></trkpt><trkpt lat="45.6627532" lon="9.4705599"><ele>246.6</ele><time>2026-04-15T13:42:58.093Z</time></trkpt><trkpt lat="45.6627515" lon="9.4704012"><ele>247.0</ele><time>2026-04-15T13:43:00.094Z</time></trkpt><trkpt lat="45.6627571" lon="9.4702497"><ele>247.25</ele><time>2026-04-15T13:43:02.094Z</time></trkpt><trkpt lat="45.6627595" lon="9.470082"><ele>247.5</ele><time>2026-04-15T13:43:04.093Z</time></trkpt><trkpt lat="45.6627519" lon="9.4699219"><ele>247.75</ele><time>2026-04-15T13:43:06.094Z</time></trkpt><trkpt lat="45.6627423" lon="9.4697465"><ele>248.0</ele><time>2026-04-15T13:43:08.093Z</time></trkpt><trkpt lat="45.6627296" lon="9.4695895"><ele>248.25</ele><time>2026-04-15T13:43:10.093Z</time></trkpt><trkpt lat="45.6627091" lon="9.4694274"><ele>248.5</ele><time>2026-04-15T13:43:12.094Z</time></trkpt><trkpt lat="45.6626835" lon="9.4692656"><ele>248.75</ele><time>2026-04-15T13:43:14.093Z</time></trkpt><trkpt lat="45.662648" lon="9.4691057"><ele>249.0</ele><time>2026-04-15T13:43:16.093Z</time></trkpt><trkpt lat="45.662605" lon="9.4689508"><ele>249.0</ele><time>2026-04-15T13:43:18.093Z</time></trkpt><trkpt lat="45.6625653" lon="9.4687954"><ele>248.99999999999997</ele><time>2026-04-15T13:43:20.093Z</time></trkpt><trkpt lat="45.6625332" lon="9.4686382"><ele>248.99999999999997</ele><time>2026-04-15T13:43:22.094Z</time></trkpt><trkpt lat="45.6625563" lon="9.4684842"><ele>249.0</ele><time>2026-04-15T13:43:24.094Z</time></trkpt><trkpt lat="45.6626433" lon="9.4684134"><ele>249.0</ele><time>2026-04-15T13:43:26.093Z</time></trkpt><trkpt lat="45.6627534" lon="9.4683685"><ele>249.0</ele><time>2026-04-15T13:43:28.093Z</time></trkpt><trkpt lat="45.6628613" lon="9.4683192"><ele>248.99999999999997</ele><time>2026-04-15T13:43:30.094Z</time></trkpt><trkpt lat="45.662973" lon="9.4682761"><ele>248.99999999999997</ele><time>2026-04-15T13:43:32.093Z</time></trkpt><trkpt lat="45.6630852" lon="9.4682338"><ele>249.0</ele><time>2026-04-15T13:43:34.093Z</time></trkpt><trkpt lat="45.6631451" lon="9.4682015"><ele>249.0</ele><time>2026-04-15T13:43:35.094Z</time></trkpt><trkpt lat="45.6632598" lon="9.4681683"><ele>249.0</ele><time>2026-04-15T13:43:37.093Z</time></trkpt><trkpt lat="45.6633224" lon="9.468135"><ele>249.0</ele><time>2026-04-15T13:43:38.093Z</time></trkpt><trkpt lat="45.6634913" lon="9.4680795"><ele>249.0</ele><time>2026-04-15T13:43:41.094Z</time></trkpt><trkpt lat="45.6635943" lon="9.4680384"><ele>249.0</ele><time>2026-04-15T13:43:43.093Z</time></trkpt><trkpt lat="45.6637005" lon="9.4680032"><ele>249.2</ele><time>2026-04-15T13:43:45.093Z</time></trkpt><trkpt lat="45.663808" lon="9.4679541"><ele>249.39999999999998</ele><time>2026-04-15T13:43:47.093Z</time></trkpt><trkpt lat="45.6638495" lon="9.4678004"><ele>249.6</ele><time>2026-04-15T13:43:49.093Z</time></trkpt><trkpt lat="45.6638663" lon="9.4676564"><ele>249.8</ele><time>2026-04-15T13:43:51.093Z</time></trkpt><trkpt lat="45.6638581" lon="9.4675646"><ele>250.0</ele><time>2026-04-15T13:43:52.094Z</time></trkpt><trkpt lat="45.6638483" lon="9.4674093"><ele>250.0</ele><time>2026-04-15T13:43:54.093Z</time></trkpt><trkpt lat="45.6638549" lon="9.4672693"><ele>250.0</ele><time>2026-04-15T13:43:56.093Z</time></trkpt><trkpt lat="45.6638432" lon="9.4670899"><ele>250.0</ele><time>2026-04-15T13:43:58.093Z</time></trkpt><trkpt lat="45.6638387" lon="9.4669081"><ele>250.0</ele><time>2026-04-15T13:44:00.093Z</time></trkpt><trkpt lat="45.6638296" lon="9.4667437"><ele>250.0</ele><time>2026-04-15T13:44:02.093Z</time></trkpt><trkpt lat="45.663816" lon="9.4665741"><ele>250.0</ele><time>2026-04-15T13:44:04.094Z</time></trkpt><trkpt lat="45.6638163" lon="9.4664801"><ele>250.0</ele><time>2026-04-15T13:44:05.093Z</time></trkpt><trkpt lat="45.6638133" lon="9.4663123"><ele>250.0</ele><time>2026-04-15T13:44:07.093Z</time></trkpt><trkpt lat="45.6638109" lon="9.4662207"><ele>250.0</ele><time>2026-04-15T13:44:08.093Z</time></trkpt><trkpt lat="45.6637973" lon="9.4660499"><ele>250.16666666666666</ele><time>2026-04-15T13:44:10.093Z</time></trkpt><trkpt lat="45.6637802" lon="9.465875"><ele>250.33333333333331</ele><time>2026-04-15T13:44:12.094Z</time></trkpt><trkpt lat="45.663776" lon="9.4657846"><ele>250.5</ele><time>2026-04-15T13:44:13.094Z</time></trkpt><trkpt lat="45.6637714" lon="9.4656912"><ele>250.66666666666669</ele><time>2026-04-15T13:44:14.094Z</time></trkpt><trkpt lat="45.6637698" lon="9.4655937"><ele>250.83333333333334</ele><time>2026-04-15T13:44:15.093Z</time></trkpt><trkpt lat="45.6637577" lon="9.4654126"><ele>251.0</ele><time>2026-04-15T13:44:17.093Z</time></trkpt><trkpt lat="45.6637543" lon="9.4653211"><ele>251.00000000000003</ele><time>2026-04-15T13:44:18.093Z</time></trkpt><trkpt lat="45.6637501" lon="9.4652295"><ele>251.0</ele><time>2026-04-15T13:44:19.094Z</time></trkpt><trkpt lat="45.66374" lon="9.4651314"><ele>251.0</ele><time>2026-04-15T13:44:20.093Z</time></trkpt><trkpt lat="45.663742" lon="9.465039"><ele>251.0</ele><time>2026-04-15T13:44:21.094Z</time></trkpt><trkpt lat="45.6637385" lon="9.4649454"><ele>251.00000000000003</ele><time>2026-04-15T13:44:22.093Z</time></trkpt><trkpt lat="45.6637352" lon="9.4648512"><ele>251.0</ele><time>2026-04-15T13:44:23.093Z</time></trkpt><trkpt lat="45.663757" lon="9.4646738"><ele>251.00000000000003</ele><time>2026-04-15T13:44:25.093Z</time></trkpt><trkpt lat="45.6638322" lon="9.4645223"><ele>251.0</ele><time>2026-04-15T13:44:27.093Z</time></trkpt><trkpt lat="45.66387" lon="9.4644463"><ele>251.0</ele><time>2026-04-15T13:44:28.093Z</time></trkpt><trkpt lat="45.6639098" lon="9.4643705"><ele>251.0</ele><time>2026-04-15T13:44:29.094Z</time></trkpt><trkpt lat="45.6639481" lon="9.4642977"><ele>251.00000000000003</ele><time>2026-04-15T13:44:30.093Z</time></trkpt><trkpt lat="45.66399" lon="9.4642198"><ele>251.0</ele><time>2026-04-15T13:44:31.093Z</time></trkpt><trkpt lat="45.6640333" lon="9.4641436"><ele>251.00000000000003</ele><time>2026-04-15T13:44:32.093Z</time></trkpt><trkpt lat="45.6640753" lon="9.4640647"><ele>251.0</ele><time>2026-04-15T13:44:33.093Z</time></trkpt><trkpt lat="45.6641183" lon="9.4639958"><ele>251.0</ele><time>2026-04-15T13:44:34.093Z</time></trkpt><trkpt lat="45.6641588" lon="9.4639237"><ele>251.0</ele><time>2026-04-15T13:44:35.094Z</time></trkpt><trkpt lat="45.6642445" lon="9.4637826"><ele>251.00000000000003</ele><time>2026-04-15T13:44:37.094Z</time></trkpt><trkpt lat="45.6642995" lon="9.4637011"><ele>251.0</ele><time>2026-04-15T13:44:38.093Z</time></trkpt><trkpt lat="45.6643365" lon="9.463627"><ele>251.16666666666669</ele><time>2026-04-15T13:44:39.094Z</time></trkpt><trkpt lat="45.6644136" lon="9.4634855"><ele>251.33333333333334</ele><time>2026-04-15T13:44:41.093Z</time></trkpt><trkpt lat="45.6644547" lon="9.4634054"><ele>251.5</ele><time>2026-04-15T13:44:42.094Z</time></trkpt><trkpt lat="45.6644939" lon="9.4633316"><ele>251.66666666666669</ele><time>2026-04-15T13:44:43.093Z</time></trkpt><trkpt lat="45.6645672" lon="9.4631926"><ele>251.83333333333334</ele><time>2026-04-15T13:44:45.094Z</time></trkpt><trkpt lat="45.6646033" lon="9.4631131"><ele>252.0</ele><time>2026-04-15T13:44:46.094Z</time></trkpt><trkpt lat="45.6646352" lon="9.4630313"><ele>252.16666666666666</ele><time>2026-04-15T13:44:47.093Z</time></trkpt><trkpt lat="45.664671" lon="9.4629558"><ele>252.33333333333331</ele><time>2026-04-15T13:44:48.094Z</time></trkpt><trkpt lat="45.664703" lon="9.4628765"><ele>252.5</ele><time>2026-04-15T13:44:49.093Z</time></trkpt><trkpt lat="45.6647393" lon="9.4627988"><ele>252.66666666666666</ele><time>2026-04-15T13:44:50.094Z</time></trkpt><trkpt lat="45.6648065" lon="9.4626368"><ele>252.83333333333331</ele><time>2026-04-15T13:44:52.093Z</time></trkpt><trkpt lat="45.6648633" lon="9.4624784"><ele>253.0</ele><time>2026-04-15T13:44:54.093Z</time></trkpt><trkpt lat="45.6648924" lon="9.4623933"><ele>253.4</ele><time>2026-04-15T13:44:55.094Z</time></trkpt><trkpt lat="45.6649221" lon="9.4623135"><ele>253.8</ele><time>2026-04-15T13:44:56.094Z</time></trkpt><trkpt lat="45.6649899" lon="9.46216"><ele>254.2</ele><time>2026-04-15T13:44:58.093Z</time></trkpt><trkpt lat="45.6650281" lon="9.4620748"><ele>254.6</ele><time>2026-04-15T13:44:59.093Z</time></trkpt><trkpt lat="45.6651067" lon="9.4619236"><ele>255.0</ele><time>2026-04-15T13:45:01.094Z</time></trkpt><trkpt lat="45.6651344" lon="9.4618389"><ele>255.0</ele><time>2026-04-15T13:45:02.093Z</time></trkpt><trkpt lat="45.6651645" lon="9.461756"><ele>255.0</ele><time>2026-04-15T13:45:03.093Z</time></trkpt><trkpt lat="45.6652083" lon="9.4615992"><ele>255.0</ele><time>2026-04-15T13:45:05.093Z</time></trkpt><trkpt lat="45.6652453" lon="9.4614236"><ele>255.0</ele><time>2026-04-15T13:45:07.093Z</time></trkpt><trkpt lat="45.6652659" lon="9.4613359"><ele>255.0</ele><time>2026-04-15T13:45:08.093Z</time></trkpt><trkpt lat="45.6653023" lon="9.4611711"><ele>254.5</ele><time>2026-04-15T13:45:10.093Z</time></trkpt><trkpt lat="45.6653776" lon="9.4610269"><ele>254.0</ele><time>2026-04-15T13:45:12.093Z</time></trkpt><trkpt lat="45.6654613" lon="9.4609277"><ele>253.5</ele><time>2026-04-15T13:45:14.093Z</time></trkpt><trkpt lat="45.6655715" lon="9.4609123"><ele>253.0</ele><time>2026-04-15T13:45:16.093Z</time></trkpt><trkpt lat="45.6656922" lon="9.460942"><ele>253.0</ele><time>2026-04-15T13:45:18.093Z</time></trkpt><trkpt lat="45.6658054" lon="9.460947"><ele>253.0</ele><time>2026-04-15T13:45:20.093Z</time></trkpt><trkpt lat="45.6659271" lon="9.4609733"><ele>253.0</ele><time>2026-04-15T13:45:22.093Z</time></trkpt><trkpt lat="45.6660531" lon="9.4609887"><ele>253.0</ele><time>2026-04-15T13:45:24.093Z</time></trkpt><trkpt lat="45.6661763" lon="9.4609999"><ele>252.8</ele><time>2026-04-15T13:45:26.093Z</time></trkpt><trkpt lat="45.6663062" lon="9.4610248"><ele>252.60000000000002</ele><time>2026-04-15T13:45:28.093Z</time></trkpt><trkpt lat="45.6663796" lon="9.4610403"><ele>252.39999999999998</ele><time>2026-04-15T13:45:29.094Z</time></trkpt><trkpt lat="45.6664537" lon="9.4610447"><ele>252.2</ele><time>2026-04-15T13:45:30.093Z</time></trkpt><trkpt lat="45.6665694" lon="9.4610615"><ele>252.0</ele><time>2026-04-15T13:45:32.093Z</time></trkpt><trkpt lat="45.6666323" lon="9.4610792"><ele>252.0</ele><time>2026-04-15T13:45:33.093Z</time></trkpt><trkpt lat="45.6667358" lon="9.4610927"><ele>252.0</ele><time>2026-04-15T13:45:35.094Z</time></trkpt><trkpt lat="45.6667986" lon="9.4611116"><ele>252.0</ele><time>2026-04-15T13:45:36.094Z</time></trkpt><trkpt lat="45.666863" lon="9.4611289"><ele>252.0</ele><time>2026-04-15T13:45:37.093Z</time></trkpt><trkpt lat="45.6669302" lon="9.4611234"><ele>252.0</ele><time>2026-04-15T13:45:38.094Z</time></trkpt><trkpt lat="45.6669963" lon="9.4611442"><ele>252.0</ele><time>2026-04-15T13:45:39.093Z</time></trkpt><trkpt lat="45.6671105" lon="9.4611673"><ele>252.39999999999998</ele><time>2026-04-15T13:45:41.093Z</time></trkpt><trkpt lat="45.6672366" lon="9.4612145"><ele>252.79999999999998</ele><time>2026-04-15T13:45:43.093Z</time></trkpt><trkpt lat="45.6673004" lon="9.4612238"><ele>253.2</ele><time>2026-04-15T13:45:44.094Z</time></trkpt><trkpt lat="45.66742" lon="9.4612343"><ele>253.6</ele><time>2026-04-15T13:45:46.093Z</time></trkpt><trkpt lat="45.6675411" lon="9.4612518"><ele>254.0</ele><time>2026-04-15T13:45:48.093Z</time></trkpt><trkpt lat="45.6676452" lon="9.4612922"><ele>254.0</ele><time>2026-04-15T13:45:50.093Z</time></trkpt><trkpt lat="45.6677537" lon="9.461308"><ele>253.99999999999997</ele><time>2026-04-15T13:45:52.094Z</time></trkpt><trkpt lat="45.6678709" lon="9.4613114"><ele>253.99999999999997</ele><time>2026-04-15T13:45:54.093Z</time></trkpt><trkpt lat="45.6679924" lon="9.4613087"><ele>254.0</ele><time>2026-04-15T13:45:56.093Z</time></trkpt><trkpt lat="45.6680581" lon="9.4612757"><ele>254.0</ele><time>2026-04-15T13:45:57.093Z</time></trkpt><trkpt lat="45.6681185" lon="9.4612283"><ele>254.00000000000003</ele><time>2026-04-15T13:45:58.094Z</time></trkpt><trkpt lat="45.6681906" lon="9.4610798"><ele>254.0</ele><time>2026-04-15T13:46:00.093Z</time></trkpt><trkpt lat="45.6682137" lon="9.4609922"><ele>254.0</ele><time>2026-04-15T13:46:01.094Z</time></trkpt><trkpt lat="45.6682299" lon="9.460899"><ele>254.0</ele><time>2026-04-15T13:46:02.093Z</time></trkpt><trkpt lat="45.6682442" lon="9.4608036"><ele>254.00000000000003</ele><time>2026-04-15T13:46:03.094Z</time></trkpt><trkpt lat="45.6682519" lon="9.460698"><ele>254.0</ele><time>2026-04-15T13:46:04.093Z</time></trkpt><trkpt lat="45.668261" lon="9.4606055"><ele>254.0</ele><time>2026-04-15T13:46:05.093Z</time></trkpt><trkpt lat="45.668267" lon="9.4605038"><ele>254.0</ele><time>2026-04-15T13:46:06.093Z</time></trkpt><trkpt lat="45.6682732" lon="9.4604113"><ele>254.0</ele><time>2026-04-15T13:46:07.093Z</time></trkpt><trkpt lat="45.6682821" lon="9.4603087"><ele>254.0</ele><time>2026-04-15T13:46:08.094Z</time></trkpt><trkpt lat="45.6682889" lon="9.4602118"><ele>254.0</ele><time>2026-04-15T13:46:09.093Z</time></trkpt><trkpt lat="45.6682985" lon="9.4601116"><ele>254.0</ele><time>2026-04-15T13:46:10.094Z</time></trkpt><trkpt lat="45.6683049" lon="9.4600205"><ele>254.0</ele><time>2026-04-15T13:46:11.093Z</time></trkpt><trkpt lat="45.6683133" lon="9.4599215"><ele>254.14285714285717</ele><time>2026-04-15T13:46:12.093Z</time></trkpt><trkpt lat="45.6683213" lon="9.4598265"><ele>254.28571428571428</ele><time>2026-04-15T13:46:13.093Z</time></trkpt><trkpt lat="45.6683249" lon="9.4597312"><ele>254.42857142857144</ele><time>2026-04-15T13:46:14.094Z</time></trkpt><trkpt lat="45.6683347" lon="9.4596355"><ele>254.57142857142858</ele><time>2026-04-15T13:46:15.093Z</time></trkpt><trkpt lat="45.6683395" lon="9.4595389"><ele>254.71428571428572</ele><time>2026-04-15T13:46:16.094Z</time></trkpt><trkpt lat="45.6683517" lon="9.4594464"><ele>254.85714285714286</ele><time>2026-04-15T13:46:17.093Z</time></trkpt><trkpt lat="45.6683594" lon="9.4593485"><ele>255.0</ele><time>2026-04-15T13:46:18.093Z</time></trkpt><trkpt lat="45.668367" lon="9.4592492"><ele>255.16666666666666</ele><time>2026-04-15T13:46:19.094Z</time></trkpt><trkpt lat="45.6683759" lon="9.4591538"><ele>255.33333333333331</ele><time>2026-04-15T13:46:20.094Z</time></trkpt><trkpt lat="45.668381" lon="9.4590571"><ele>255.5</ele><time>2026-04-15T13:46:21.094Z</time></trkpt><trkpt lat="45.668393" lon="9.4589592"><ele>255.66666666666666</ele><time>2026-04-15T13:46:22.093Z</time></trkpt><trkpt lat="45.6684087" lon="9.4587701"><ele>255.83333333333331</ele><time>2026-04-15T13:46:24.094Z</time></trkpt><trkpt lat="45.6684175" lon="9.4586761"><ele>256.0</ele><time>2026-04-15T13:46:25.093Z</time></trkpt><trkpt lat="45.6684238" lon="9.458577"><ele>256.2</ele><time>2026-04-15T13:46:26.094Z</time></trkpt><trkpt lat="45.6684412" lon="9.458392"><ele>256.40000000000003</ele><time>2026-04-15T13:46:28.093Z</time></trkpt><trkpt lat="45.6684655" lon="9.458305"><ele>256.6</ele><time>2026-04-15T13:46:29.094Z</time></trkpt><trkpt lat="45.6685415" lon="9.4581619"><ele>256.8</ele><time>2026-04-15T13:46:31.093Z</time></trkpt><trkpt lat="45.6685934" lon="9.4581048"><ele>257.0</ele><time>2026-04-15T13:46:32.093Z</time></trkpt><trkpt lat="45.668657" lon="9.4580561"><ele>256.6666666666667</ele><time>2026-04-15T13:46:33.094Z</time></trkpt><trkpt lat="45.6687173" lon="9.4580162"><ele>256.33333333333337</ele><time>2026-04-15T13:46:34.093Z</time></trkpt><trkpt lat="45.6687787" lon="9.4579776"><ele>256.0</ele><time>2026-04-15T13:46:35.093Z</time></trkpt><trkpt lat="45.66885" lon="9.4579279"><ele>255.66666666666669</ele><time>2026-04-15T13:46:36.094Z</time></trkpt><trkpt lat="45.6689178" lon="9.4578767"><ele>255.33333333333334</ele><time>2026-04-15T13:46:37.094Z</time></trkpt><trkpt lat="45.6690274" lon="9.4577968"><ele>255.0</ele><time>2026-04-15T13:46:39.093Z</time></trkpt><trkpt lat="45.6690828" lon="9.4577516"><ele>255.0</ele><time>2026-04-15T13:46:40.093Z</time></trkpt><trkpt lat="45.6691426" lon="9.4577051"><ele>255.0</ele><time>2026-04-15T13:46:41.093Z</time></trkpt><trkpt lat="45.6692027" lon="9.4576574"><ele>255.0</ele><time>2026-04-15T13:46:42.093Z</time></trkpt><trkpt lat="45.6693192" lon="9.4575961"><ele>255.0</ele><time>2026-04-15T13:46:44.093Z</time></trkpt><trkpt lat="45.6693801" lon="9.4575589"><ele>255.0</ele><time>2026-04-15T13:46:45.093Z</time></trkpt><trkpt lat="45.6694389" lon="9.4575164"><ele>255.0</ele><time>2026-04-15T13:46:46.093Z</time></trkpt><trkpt lat="45.6695538" lon="9.4574437"><ele>255.0</ele><time>2026-04-15T13:46:48.093Z</time></trkpt><trkpt lat="45.6696194" lon="9.4574089"><ele>255.00000000000003</ele><time>2026-04-15T13:46:49.094Z</time></trkpt><trkpt lat="45.6696873" lon="9.4573825"><ele>255.0</ele><time>2026-04-15T13:46:50.093Z</time></trkpt><trkpt lat="45.669753" lon="9.4573422"><ele>255.0</ele><time>2026-04-15T13:46:51.093Z</time></trkpt><trkpt lat="45.6698332" lon="9.4573543"><ele>255.00000000000003</ele><time>2026-04-15T13:46:52.093Z</time></trkpt><trkpt lat="45.6699022" lon="9.4573403"><ele>255.0</ele><time>2026-04-15T13:46:53.093Z</time></trkpt><trkpt lat="45.6699714" lon="9.4573463"><ele>255.0</ele><time>2026-04-15T13:46:54.094Z</time></trkpt><trkpt lat="45.6701046" lon="9.4573592"><ele>255.0</ele><time>2026-04-15T13:46:56.094Z</time></trkpt><trkpt lat="45.6701687" lon="9.4573733"><ele>255.0</ele><time>2026-04-15T13:46:57.093Z</time></trkpt><trkpt lat="45.6702893" lon="9.4573767"><ele>255.0</ele><time>2026-04-15T13:46:59.093Z</time></trkpt><trkpt lat="45.6704085" lon="9.4573912"><ele>255.0</ele><time>2026-04-15T13:47:01.094Z</time></trkpt><trkpt lat="45.670473" lon="9.4573839"><ele>255.0</ele><time>2026-04-15T13:47:02.093Z</time></trkpt><trkpt lat="45.6705524" lon="9.4573981"><ele>255.4</ele><time>2026-04-15T13:47:03.094Z</time></trkpt><trkpt lat="45.6706202" lon="9.4574147"><ele>255.8</ele><time>2026-04-15T13:47:04.093Z</time></trkpt><trkpt lat="45.6706861" lon="9.4574319"><ele>256.2</ele><time>2026-04-15T13:47:05.094Z</time></trkpt><trkpt lat="45.6708236" lon="9.4574611"><ele>256.6</ele><time>2026-04-15T13:47:07.094Z</time></trkpt><trkpt lat="45.6708973" lon="9.4574692"><ele>257.0</ele><time>2026-04-15T13:47:08.093Z</time></trkpt><trkpt lat="45.6710043" lon="9.4574913"><ele>257.0</ele><time>2026-04-15T13:47:10.093Z</time></trkpt><trkpt lat="45.6710701" lon="9.4574969"><ele>257.0</ele><time>2026-04-15T13:47:11.093Z</time></trkpt><trkpt lat="45.671135" lon="9.4575098"><ele>257.0</ele><time>2026-04-15T13:47:12.093Z</time></trkpt><trkpt lat="45.6712625" lon="9.4575402"><ele>257.0</ele><time>2026-04-15T13:47:14.093Z</time></trkpt><trkpt lat="45.6713778" lon="9.4575552"><ele>257.0</ele><time>2026-04-15T13:47:16.093Z</time></trkpt><trkpt lat="45.6714394" lon="9.4575759"><ele>257.0</ele><time>2026-04-15T13:47:17.093Z</time></trkpt><trkpt lat="45.671522" lon="9.4576144"><ele>257.1666666666667</ele><time>2026-04-15T13:47:18.093Z</time></trkpt><trkpt lat="45.6716444" lon="9.4576182"><ele>257.33333333333337</ele><time>2026-04-15T13:47:20.093Z</time></trkpt><trkpt lat="45.6717639" lon="9.4576117"><ele>257.5</ele><time>2026-04-15T13:47:22.093Z</time></trkpt><trkpt lat="45.671829" lon="9.4576077"><ele>257.6666666666667</ele><time>2026-04-15T13:47:23.093Z</time></trkpt><trkpt lat="45.6718963" lon="9.4575993"><ele>257.8333333333333</ele><time>2026-04-15T13:47:24.094Z</time></trkpt><trkpt lat="45.6719585" lon="9.4575759"><ele>258.0</ele><time>2026-04-15T13:47:25.093Z</time></trkpt><trkpt lat="45.6720237" lon="9.4575424"><ele>257.99999999999994</ele><time>2026-04-15T13:47:26.093Z</time></trkpt><trkpt lat="45.6720861" lon="9.4575066"><ele>258.0</ele><time>2026-04-15T13:47:27.093Z</time></trkpt><trkpt lat="45.6721419" lon="9.4574643"><ele>258.0</ele><time>2026-04-15T13:47:28.094Z</time></trkpt><trkpt lat="45.6721951" lon="9.4574151"><ele>258.0</ele><time>2026-04-15T13:47:29.093Z</time></trkpt><trkpt lat="45.672253" lon="9.4573644"><ele>258.0</ele><time>2026-04-15T13:47:30.093Z</time></trkpt><trkpt lat="45.6723147" lon="9.4573218"><ele>257.99999999999994</ele><time>2026-04-15T13:47:31.093Z</time></trkpt><trkpt lat="45.6723742" lon="9.4572708"><ele>258.0</ele><time>2026-04-15T13:47:32.093Z</time></trkpt><trkpt lat="45.6724303" lon="9.4572194"><ele>258.0</ele><time>2026-04-15T13:47:33.093Z</time></trkpt><trkpt lat="45.6724927" lon="9.4571705"><ele>258.0</ele><time>2026-04-15T13:47:34.094Z</time></trkpt><trkpt lat="45.6725554" lon="9.4571287"><ele>258.0</ele><time>2026-04-15T13:47:35.094Z</time></trkpt><trkpt lat="45.6726148" lon="9.4570777"><ele>258.0</ele><time>2026-04-15T13:47:36.094Z</time></trkpt><trkpt lat="45.6727343" lon="9.457015"><ele>258.0</ele><time>2026-04-15T13:47:38.094Z</time></trkpt><trkpt lat="45.6727983" lon="9.4569829"><ele>258.0</ele><time>2026-04-15T13:47:39.093Z</time></trkpt><trkpt lat="45.6728633" lon="9.4569592"><ele>258.6</ele><time>2026-04-15T13:47:40.094Z</time></trkpt><trkpt lat="45.6729906" lon="9.4569645"><ele>259.20000000000005</ele><time>2026-04-15T13:47:42.093Z</time></trkpt><trkpt lat="45.6731152" lon="9.4569652"><ele>259.8</ele><time>2026-04-15T13:47:44.093Z</time></trkpt><trkpt lat="45.6731787" lon="9.4569556"><ele>260.40000000000003</ele><time>2026-04-15T13:47:45.093Z</time></trkpt><trkpt lat="45.673303" lon="9.4569518"><ele>261.0</ele><time>2026-04-15T13:47:47.093Z</time></trkpt><trkpt lat="45.6734255" lon="9.4569431"><ele>261.0</ele><time>2026-04-15T13:47:49.094Z</time></trkpt><trkpt lat="45.6735562" lon="9.4569171"><ele>261.0</ele><time>2026-04-15T13:47:51.093Z</time></trkpt><trkpt lat="45.6736208" lon="9.4568997"><ele>261.0</ele><time>2026-04-15T13:47:52.093Z</time></trkpt><trkpt lat="45.6736842" lon="9.4568752"><ele>261.0</ele><time>2026-04-15T13:47:53.094Z</time></trkpt><trkpt lat="45.6737449" lon="9.4568417"><ele>261.0</ele><time>2026-04-15T13:47:54.093Z</time></trkpt><trkpt lat="45.6738749" lon="9.4567805"><ele>261.0</ele><time>2026-04-15T13:47:56.094Z</time></trkpt><trkpt lat="45.6739454" lon="9.4567533"><ele>261.0</ele><time>2026-04-15T13:47:57.094Z</time></trkpt><trkpt lat="45.6740161" lon="9.4567158"><ele>261.0</ele><time>2026-04-15T13:47:58.093Z</time></trkpt><trkpt lat="45.6740866" lon="9.4566761"><ele>261.0</ele><time>2026-04-15T13:47:59.093Z</time></trkpt><trkpt lat="45.6741561" lon="9.4566218"><ele>261.0</ele><time>2026-04-15T13:48:00.094Z</time></trkpt><trkpt lat="45.6742152" lon="9.4565571"><ele>261.0</ele><time>2026-04-15T13:48:01.093Z</time></trkpt><trkpt lat="45.674279" lon="9.4564902"><ele>261.0</ele><time>2026-04-15T13:48:02.094Z</time></trkpt><trkpt lat="45.6743345" lon="9.4564127"><ele>261.0</ele><time>2026-04-15T13:48:03.093Z</time></trkpt><trkpt lat="45.6743811" lon="9.45633"><ele>261.0</ele><time>2026-04-15T13:48:04.093Z</time></trkpt><trkpt lat="45.6744249" lon="9.4562392"><ele>261.0</ele><time>2026-04-15T13:48:05.094Z</time></trkpt><trkpt lat="45.6744649" lon="9.4561485"><ele>261.0</ele><time>2026-04-15T13:48:06.093Z</time></trkpt><trkpt lat="45.6745126" lon="9.4560629"><ele>261.0</ele><time>2026-04-15T13:48:07.093Z</time></trkpt><trkpt lat="45.6745551" lon="9.4559707"><ele>260.1666666666667</ele><time>2026-04-15T13:48:08.093Z</time></trkpt><trkpt lat="45.6745934" lon="9.455868"><ele>259.3333333333333</ele><time>2026-04-15T13:48:09.093Z</time></trkpt><trkpt lat="45.6746333" lon="9.455769"><ele>258.5</ele><time>2026-04-15T13:48:10.094Z</time></trkpt><trkpt lat="45.6746728" lon="9.4556694"><ele>257.66666666666663</ele><time>2026-04-15T13:48:11.093Z</time></trkpt><trkpt lat="45.6747028" lon="9.455579"><ele>256.8333333333333</ele><time>2026-04-15T13:48:12.093Z</time></trkpt><trkpt lat="45.6747313" lon="9.4554881"><ele>256.0</ele><time>2026-04-15T13:48:13.093Z</time></trkpt><trkpt lat="45.6747632" lon="9.4553844"><ele>256.0</ele><time>2026-04-15T13:48:14.093Z</time></trkpt><trkpt lat="45.6747882" lon="9.4552901"><ele>255.99999999999997</ele><time>2026-04-15T13:48:15.094Z</time></trkpt><trkpt lat="45.6748212" lon="9.4551949"><ele>256.0</ele><time>2026-04-15T13:48:16.093Z</time></trkpt><trkpt lat="45.6748527" lon="9.4551047"><ele>256.0</ele><time>2026-04-15T13:48:17.093Z</time></trkpt><trkpt lat="45.6748826" lon="9.4550035"><ele>255.99999999999997</ele><time>2026-04-15T13:48:18.093Z</time></trkpt><trkpt lat="45.6749078" lon="9.4549082"><ele>256.0</ele><time>2026-04-15T13:48:19.093Z</time></trkpt><trkpt lat="45.6749385" lon="9.4548106"><ele>256.0</ele><time>2026-04-15T13:48:20.094Z</time></trkpt><trkpt lat="45.674961" lon="9.4547164"><ele>256.2857142857143</ele><time>2026-04-15T13:48:21.094Z</time></trkpt><trkpt lat="45.6749853" lon="9.4546171"><ele>256.57142857142856</ele><time>2026-04-15T13:48:22.093Z</time></trkpt><trkpt lat="45.6750069" lon="9.4545253"><ele>256.85714285714283</ele><time>2026-04-15T13:48:23.093Z</time></trkpt><trkpt lat="45.6750301" lon="9.454427"><ele>257.1428571428571</ele><time>2026-04-15T13:48:24.093Z</time></trkpt><trkpt lat="45.6750458" lon="9.4543285"><ele>257.42857142857144</ele><time>2026-04-15T13:48:25.094Z</time></trkpt><trkpt lat="45.6750567" lon="9.4542372"><ele>257.71428571428567</ele><time>2026-04-15T13:48:26.093Z</time></trkpt><trkpt lat="45.6750639" lon="9.4541459"><ele>258.0</ele><time>2026-04-15T13:48:27.093Z</time></trkpt><trkpt lat="45.6750717" lon="9.4540539"><ele>258.0</ele><time>2026-04-15T13:48:28.093Z</time></trkpt><trkpt lat="45.6750824" lon="9.453954"><ele>258.0</ele><time>2026-04-15T13:48:29.093Z</time></trkpt><trkpt lat="45.6750908" lon="9.4538606"><ele>258.0</ele><time>2026-04-15T13:48:30.093Z</time></trkpt><trkpt lat="45.6750949" lon="9.4537677"><ele>258.0</ele><time>2026-04-15T13:48:31.094Z</time></trkpt><trkpt lat="45.6751157" lon="9.4535931"><ele>258.0</ele><time>2026-04-15T13:48:33.093Z</time></trkpt><trkpt lat="45.6751273" lon="9.4535043"><ele>258.0</ele><time>2026-04-15T13:48:34.094Z</time></trkpt><trkpt lat="45.6751371" lon="9.4534128"><ele>258.3333333333333</ele><time>2026-04-15T13:48:35.093Z</time></trkpt><trkpt lat="45.6751526" lon="9.4533225"><ele>258.6666666666667</ele><time>2026-04-15T13:48:36.093Z</time></trkpt><trkpt lat="45.6751791" lon="9.453238"><ele>259.0</ele><time>2026-04-15T13:48:37.093Z</time></trkpt><trkpt lat="45.6752278" lon="9.4530824"><ele>259.33333333333337</ele><time>2026-04-15T13:48:39.093Z</time></trkpt><trkpt lat="45.6753014" lon="9.4529444"><ele>259.6666666666667</ele><time>2026-04-15T13:48:41.094Z</time></trkpt><trkpt lat="45.6753433" lon="9.4528762"><ele>260.0</ele><time>2026-04-15T13:48:42.093Z</time></trkpt><trkpt lat="45.6753901" lon="9.4528062"><ele>260.2</ele><time>2026-04-15T13:48:43.094Z</time></trkpt><trkpt lat="45.6754855" lon="9.4526683"><ele>260.4</ele><time>2026-04-15T13:48:45.093Z</time></trkpt><trkpt lat="45.6755294" lon="9.4526018"><ele>260.6</ele><time>2026-04-15T13:48:46.093Z</time></trkpt><trkpt lat="45.6755783" lon="9.4525244"><ele>260.8</ele><time>2026-04-15T13:48:47.093Z</time></trkpt><trkpt lat="45.6756518" lon="9.4523992"><ele>261.0</ele><time>2026-04-15T13:48:49.094Z</time></trkpt><trkpt lat="45.6757261" lon="9.4522553"><ele>261.0</ele><time>2026-04-15T13:48:51.093Z</time></trkpt><trkpt lat="45.6758142" lon="9.4521284"><ele>261.0</ele><time>2026-04-15T13:48:53.093Z</time></trkpt><trkpt lat="45.6758681" lon="9.452041"><ele>261.0</ele><time>2026-04-15T13:48:54.093Z</time></trkpt><trkpt lat="45.675913" lon="9.451956"><ele>261.0</ele><time>2026-04-15T13:48:55.093Z</time></trkpt><trkpt lat="45.6759461" lon="9.4518733"><ele>261.0</ele><time>2026-04-15T13:48:56.093Z</time></trkpt><trkpt lat="45.6759818" lon="9.4517913"><ele>261.0</ele><time>2026-04-15T13:48:57.094Z</time></trkpt><trkpt lat="45.6760081" lon="9.4516988"><ele>261.0</ele><time>2026-04-15T13:48:58.094Z</time></trkpt><trkpt lat="45.6760497" lon="9.4516154"><ele>261.0</ele><time>2026-04-15T13:48:59.093Z</time></trkpt><trkpt lat="45.6760777" lon="9.4515281"><ele>261.0</ele><time>2026-04-15T13:49:00.093Z</time></trkpt><trkpt lat="45.676105" lon="9.4514412"><ele>261.0</ele><time>2026-04-15T13:49:01.093Z</time></trkpt><trkpt lat="45.6761348" lon="9.4513467"><ele>261.0</ele><time>2026-04-15T13:49:02.094Z</time></trkpt><trkpt lat="45.6761571" lon="9.4512616"><ele>261.0</ele><time>2026-04-15T13:49:03.094Z</time></trkpt><trkpt lat="45.6762102" lon="9.4510827"><ele>260.8333333333333</ele><time>2026-04-15T13:49:05.094Z</time></trkpt><trkpt lat="45.6762387" lon="9.4509994"><ele>260.6666666666667</ele><time>2026-04-15T13:49:06.093Z</time></trkpt><trkpt lat="45.6762723" lon="9.4509078"><ele>260.5</ele><time>2026-04-15T13:49:07.094Z</time></trkpt><trkpt lat="45.6763156" lon="9.4508255"><ele>260.33333333333337</ele><time>2026-04-15T13:49:08.093Z</time></trkpt><trkpt lat="45.6763555" lon="9.4507519"><ele>260.1666666666667</ele><time>2026-04-15T13:49:09.094Z</time></trkpt><trkpt lat="45.6764385" lon="9.450616"><ele>260.0</ele><time>2026-04-15T13:49:11.093Z</time></trkpt><trkpt lat="45.6765288" lon="9.4504875"><ele>260.5714285714286</ele><time>2026-04-15T13:49:13.093Z</time></trkpt><trkpt lat="45.6765818" lon="9.45042"><ele>261.14285714285717</ele><time>2026-04-15T13:49:14.093Z</time></trkpt><trkpt lat="45.6766374" lon="9.4503499"><ele>261.7142857142857</ele><time>2026-04-15T13:49:15.093Z</time></trkpt><trkpt lat="45.6766867" lon="9.450293"><ele>262.28571428571433</ele><time>2026-04-15T13:49:16.093Z</time></trkpt><trkpt lat="45.6767538" lon="9.4502231"><ele>262.8571428571429</ele><time>2026-04-15T13:49:17.093Z</time></trkpt><trkpt lat="45.6768054" lon="9.4501673"><ele>263.42857142857144</ele><time>2026-04-15T13:49:18.094Z</time></trkpt><trkpt lat="45.6768679" lon="9.4501164"><ele>264.0</ele><time>2026-04-15T13:49:19.093Z</time></trkpt><trkpt lat="45.6769248" lon="9.450071"><ele>263.2</ele><time>2026-04-15T13:49:20.093Z</time></trkpt><trkpt lat="45.6770185" lon="9.4499692"><ele>262.4</ele><time>2026-04-15T13:49:22.094Z</time></trkpt><trkpt lat="45.6771099" lon="9.449881"><ele>261.6</ele><time>2026-04-15T13:49:24.093Z</time></trkpt><trkpt lat="45.6771853" lon="9.4498015"><ele>260.8</ele><time>2026-04-15T13:49:26.093Z</time></trkpt><trkpt lat="45.6772467" lon="9.4497676"><ele>260.0</ele><time>2026-04-15T13:49:28.094Z</time></trkpt><trkpt lat="45.6774316" lon="9.4499254"><ele>260.0</ele><time>2026-04-15T13:49:38.093Z</time></trkpt><trkpt lat="45.6774825" lon="9.4500497"><ele>260.0</ele><time>2026-04-15T13:49:40.093Z</time></trkpt><trkpt lat="45.6775387" lon="9.4501814"><ele>260.0</ele><time>2026-04-15T13:49:42.094Z</time></trkpt><trkpt lat="45.6775833" lon="9.4502635"><ele>260.0</ele><time>2026-04-15T13:49:43.094Z</time></trkpt><trkpt lat="45.677627" lon="9.4503423"><ele>260.0</ele><time>2026-04-15T13:49:44.093Z</time></trkpt><trkpt lat="45.6777094" lon="9.4504861"><ele>260.0</ele><time>2026-04-15T13:49:46.093Z</time></trkpt><trkpt lat="45.6777552" lon="9.4505601"><ele>260.0</ele><time>2026-04-15T13:49:47.093Z</time></trkpt><trkpt lat="45.6778068" lon="9.4506434"><ele>260.0</ele><time>2026-04-15T13:49:48.093Z</time></trkpt><trkpt lat="45.6778535" lon="9.4507126"><ele>260.0</ele><time>2026-04-15T13:49:49.093Z</time></trkpt><trkpt lat="45.6779097" lon="9.4507981"><ele>260.0</ele><time>2026-04-15T13:49:50.093Z</time></trkpt><trkpt lat="45.6779594" lon="9.450854"><ele>260.0</ele><time>2026-04-15T13:49:51.093Z</time></trkpt><trkpt lat="45.6780543" lon="9.4509409"><ele>260.0</ele><time>2026-04-15T13:49:53.093Z</time></trkpt><trkpt lat="45.6781665" lon="9.4510364"><ele>260.0</ele><time>2026-04-15T13:49:55.093Z</time></trkpt><trkpt lat="45.6782287" lon="9.4510965"><ele>260.0</ele><time>2026-04-15T13:49:56.093Z</time></trkpt><trkpt lat="45.6782982" lon="9.4511408"><ele>260.0</ele><time>2026-04-15T13:49:57.093Z</time></trkpt><trkpt lat="45.6783563" lon="9.4511814"><ele>260.0</ele><time>2026-04-15T13:49:58.094Z</time></trkpt><trkpt lat="45.6784351" lon="9.4512321"><ele>260.0</ele><time>2026-04-15T13:49:59.093Z</time></trkpt><trkpt lat="45.6784964" lon="9.4512622"><ele>259.83333333333337</ele><time>2026-04-15T13:50:00.094Z</time></trkpt><trkpt lat="45.6785544" lon="9.4513054"><ele>259.6666666666667</ele><time>2026-04-15T13:50:01.093Z</time></trkpt><trkpt lat="45.6786169" lon="9.4513309"><ele>259.5</ele><time>2026-04-15T13:50:02.094Z</time></trkpt><trkpt lat="45.6786795" lon="9.4513521"><ele>259.3333333333333</ele><time>2026-04-15T13:50:03.094Z</time></trkpt><trkpt lat="45.6787475" lon="9.4513791"><ele>259.16666666666663</ele><time>2026-04-15T13:50:04.093Z</time></trkpt><trkpt lat="45.6788761" lon="9.4514173"><ele>259.0</ele><time>2026-04-15T13:50:06.094Z</time></trkpt><trkpt lat="45.6789432" lon="9.4514275"><ele>258.8333333333333</ele><time>2026-04-15T13:50:07.093Z</time></trkpt><trkpt lat="45.6790065" lon="9.4514392"><ele>258.66666666666663</ele><time>2026-04-15T13:50:08.093Z</time></trkpt><trkpt lat="45.6790808" lon="9.4514445"><ele>258.5</ele><time>2026-04-15T13:50:09.093Z</time></trkpt><trkpt lat="45.6792106" lon="9.4514506"><ele>258.3333333333333</ele><time>2026-04-15T13:50:11.094Z</time></trkpt><trkpt lat="45.6792755" lon="9.4514468"><ele>258.1666666666667</ele><time>2026-04-15T13:50:12.094Z</time></trkpt><trkpt lat="45.6793462" lon="9.4514434"><ele>258.0</ele><time>2026-04-15T13:50:13.093Z</time></trkpt><trkpt lat="45.6794132" lon="9.4514398"><ele>258.5</ele><time>2026-04-15T13:50:14.093Z</time></trkpt><trkpt lat="45.6794764" lon="9.4514193"><ele>259.0</ele><time>2026-04-15T13:50:15.093Z</time></trkpt><trkpt lat="45.6795982" lon="9.4514112"><ele>259.5</ele><time>2026-04-15T13:50:17.094Z</time></trkpt><trkpt lat="45.6796692" lon="9.4514277"><ele>260.0</ele><time>2026-04-15T13:50:18.093Z</time></trkpt><trkpt lat="45.6797329" lon="9.4514286"><ele>260.5</ele><time>2026-04-15T13:50:19.093Z</time></trkpt><trkpt lat="45.6798058" lon="9.4514313"><ele>261.0</ele><time>2026-04-15T13:50:20.093Z</time></trkpt><trkpt lat="45.6798792" lon="9.4514445"><ele>261.0</ele><time>2026-04-15T13:50:21.093Z</time></trkpt><trkpt lat="45.679944" lon="9.4514383"><ele>261.0</ele><time>2026-04-15T13:50:22.093Z</time></trkpt><trkpt lat="45.680016" lon="9.451431"><ele>261.0</ele><time>2026-04-15T13:50:23.094Z</time></trkpt><trkpt lat="45.6800985" lon="9.4514502"><ele>261.0</ele><time>2026-04-15T13:50:24.093Z</time></trkpt><trkpt lat="45.6802245" lon="9.4514506"><ele>261.0</ele><time>2026-04-15T13:50:26.093Z</time></trkpt><trkpt lat="45.6802947" lon="9.4514524"><ele>261.0</ele><time>2026-04-15T13:50:27.094Z</time></trkpt><trkpt lat="45.6803642" lon="9.4514581"><ele>261.3333333333333</ele><time>2026-04-15T13:50:28.093Z</time></trkpt><trkpt lat="45.6805028" lon="9.4514413"><ele>261.6666666666667</ele><time>2026-04-15T13:50:30.094Z</time></trkpt><trkpt lat="45.6805709" lon="9.4514488"><ele>262.0</ele><time>2026-04-15T13:50:31.093Z</time></trkpt><trkpt lat="45.6806369" lon="9.4514535"><ele>262.33333333333337</ele><time>2026-04-15T13:50:32.093Z</time></trkpt><trkpt lat="45.6807047" lon="9.4514707"><ele>262.6666666666667</ele><time>2026-04-15T13:50:33.093Z</time></trkpt><trkpt lat="45.6807716" lon="9.4514578"><ele>263.0</ele><time>2026-04-15T13:50:34.093Z</time></trkpt><trkpt lat="45.6808505" lon="9.4514979"><ele>263.0</ele><time>2026-04-15T13:50:35.093Z</time></trkpt><trkpt lat="45.6809546" lon="9.4514868"><ele>263.0</ele><time>2026-04-15T13:50:37.093Z</time></trkpt><trkpt lat="45.6810651" lon="9.4515079"><ele>263.0</ele><time>2026-04-15T13:50:39.093Z</time></trkpt><trkpt lat="45.6811664" lon="9.4514975"><ele>263.0</ele><time>2026-04-15T13:50:41.093Z</time></trkpt><trkpt lat="45.6812311" lon="9.4514803"><ele>263.0</ele><time>2026-04-15T13:50:42.093Z</time></trkpt><trkpt lat="45.6813236" lon="9.4514538"><ele>262.1666666666667</ele><time>2026-04-15T13:50:44.094Z</time></trkpt><trkpt lat="45.681418" lon="9.4514154"><ele>261.33333333333337</ele><time>2026-04-15T13:50:46.094Z</time></trkpt><trkpt lat="45.6814731" lon="9.4513208"><ele>260.5</ele><time>2026-04-15T13:50:49.093Z</time></trkpt><trkpt lat="45.6815548" lon="9.4512399"><ele>259.6666666666667</ele><time>2026-04-15T13:51:05.094Z</time></trkpt><trkpt lat="45.6816095" lon="9.4511695"><ele>258.8333333333333</ele><time>2026-04-15T13:51:07.093Z</time></trkpt><trkpt lat="45.6816673" lon="9.4510722"><ele>258.0</ele><time>2026-04-15T13:51:09.093Z</time></trkpt><trkpt lat="45.6817236" lon="9.4509716"><ele>258.0</ele><time>2026-04-15T13:51:11.093Z</time></trkpt><trkpt lat="45.681786" lon="9.4508377"><ele>258.0</ele><time>2026-04-15T13:51:13.094Z</time></trkpt><trkpt lat="45.6818655" lon="9.4507173"><ele>258.0</ele><time>2026-04-15T13:51:15.093Z</time></trkpt><trkpt lat="45.6819198" lon="9.4506006"><ele>258.0</ele><time>2026-04-15T13:51:17.093Z</time></trkpt><trkpt lat="45.6819871" lon="9.4504632"><ele>258.0</ele><time>2026-04-15T13:51:19.093Z</time></trkpt><trkpt lat="45.6820523" lon="9.450332"><ele>256.8</ele><time>2026-04-15T13:51:21.093Z</time></trkpt><trkpt lat="45.6821499" lon="9.4502513"><ele>255.60000000000002</ele><time>2026-04-15T13:51:23.093Z</time></trkpt><trkpt lat="45.6822534" lon="9.4501702"><ele>254.39999999999998</ele><time>2026-04-15T13:51:25.093Z</time></trkpt><trkpt lat="45.6823125" lon="9.4501137"><ele>253.2</ele><time>2026-04-15T13:51:26.093Z</time></trkpt><trkpt lat="45.6823689" lon="9.4500694"><ele>252.0</ele><time>2026-04-15T13:51:27.094Z</time></trkpt><trkpt lat="45.6824809" lon="9.4499848"><ele>252.0</ele><time>2026-04-15T13:51:29.093Z</time></trkpt><trkpt lat="45.6825368" lon="9.4499336"><ele>252.0</ele><time>2026-04-15T13:51:30.094Z</time></trkpt><trkpt lat="45.6826079" lon="9.4499058"><ele>252.0</ele><time>2026-04-15T13:51:31.093Z</time></trkpt><trkpt lat="45.6826708" lon="9.4498725"><ele>252.0</ele><time>2026-04-15T13:51:32.094Z</time></trkpt><trkpt lat="45.682743" lon="9.4498487"><ele>252.0</ele><time>2026-04-15T13:51:33.094Z</time></trkpt><trkpt lat="45.6828195" lon="9.4498131"><ele>252.0</ele><time>2026-04-15T13:51:34.093Z</time></trkpt><trkpt lat="45.6828957" lon="9.4497799"><ele>252.0</ele><time>2026-04-15T13:51:35.094Z</time></trkpt><trkpt lat="45.6829632" lon="9.4497352"><ele>253.16666666666666</ele><time>2026-04-15T13:51:36.093Z</time></trkpt><trkpt lat="45.6830472" lon="9.449695"><ele>254.33333333333331</ele><time>2026-04-15T13:51:37.094Z</time></trkpt><trkpt lat="45.6831218" lon="9.4496617"><ele>255.5</ele><time>2026-04-15T13:51:38.093Z</time></trkpt><trkpt lat="45.6831916" lon="9.4496228"><ele>256.66666666666663</ele><time>2026-04-15T13:51:39.093Z</time></trkpt><trkpt lat="45.6832712" lon="9.4495808"><ele>257.8333333333333</ele><time>2026-04-15T13:51:40.094Z</time></trkpt><trkpt lat="45.6833444" lon="9.4495665"><ele>259.0</ele><time>2026-04-15T13:51:41.093Z</time></trkpt><trkpt lat="45.6834097" lon="9.4495421"><ele>259.0</ele><time>2026-04-15T13:51:42.093Z</time></trkpt><trkpt lat="45.6834886" lon="9.449519"><ele>259.0</ele><time>2026-04-15T13:51:43.093Z</time></trkpt><trkpt lat="45.6835597" lon="9.4495065"><ele>259.0</ele><time>2026-04-15T13:51:44.094Z</time></trkpt><trkpt lat="45.6836349" lon="9.4494849"><ele>259.0</ele><time>2026-04-15T13:51:45.094Z</time></trkpt><trkpt lat="45.683715" lon="9.4494978"><ele>259.0</ele><time>2026-04-15T13:51:46.094Z</time></trkpt><trkpt lat="45.6838024" lon="9.4495132"><ele>259.0</ele><time>2026-04-15T13:51:47.093Z</time></trkpt><trkpt lat="45.6839279" lon="9.4495506"><ele>257.16666666666663</ele><time>2026-04-15T13:51:49.093Z</time></trkpt><trkpt lat="45.6840134" lon="9.4495885"><ele>255.33333333333331</ele><time>2026-04-15T13:51:50.093Z</time></trkpt><trkpt lat="45.6840898" lon="9.4495957"><ele>253.5</ele><time>2026-04-15T13:51:51.094Z</time></trkpt><trkpt lat="45.6841634" lon="9.4496337"><ele>251.66666666666669</ele><time>2026-04-15T13:51:52.094Z</time></trkpt><trkpt lat="45.684268" lon="9.4496563"><ele>249.83333333333334</ele><time>2026-04-15T13:51:53.093Z</time></trkpt><trkpt lat="45.684333" lon="9.4496622"><ele>248.0</ele><time>2026-04-15T13:51:54.094Z</time></trkpt><trkpt lat="45.6844096" lon="9.449651"><ele>247.60000000000002</ele><time>2026-04-15T13:51:55.093Z</time></trkpt><trkpt lat="45.6844975" lon="9.4496282"><ele>247.20000000000002</ele><time>2026-04-15T13:51:56.094Z</time></trkpt><trkpt lat="45.6845754" lon="9.4496002"><ele>246.8</ele><time>2026-04-15T13:51:57.094Z</time></trkpt><trkpt lat="45.6846575" lon="9.4495856"><ele>246.4</ele><time>2026-04-15T13:51:58.093Z</time></trkpt><trkpt lat="45.6848056" lon="9.4495697"><ele>246.0</ele><time>2026-04-15T13:52:00.093Z</time></trkpt><trkpt lat="45.6848738" lon="9.4495829"><ele>240.16666666666666</ele><time>2026-04-15T13:52:01.094Z</time></trkpt><trkpt lat="45.6849443" lon="9.4496326"><ele>234.33333333333331</ele><time>2026-04-15T13:52:02.093Z</time></trkpt><trkpt lat="45.6850039" lon="9.4496708"><ele>228.5</ele><time>2026-04-15T13:52:03.093Z</time></trkpt><trkpt lat="45.6850662" lon="9.4497174"><ele>222.66666666666666</ele><time>2026-04-15T13:52:04.093Z</time></trkpt><trkpt lat="45.6851418" lon="9.4497629"><ele>216.83333333333331</ele><time>2026-04-15T13:52:05.094Z</time></trkpt><trkpt lat="45.6852345" lon="9.4498339"><ele>211.0</ele><time>2026-04-15T13:52:06.093Z</time></trkpt><trkpt lat="45.6853193" lon="9.4498786"><ele>211.0</ele><time>2026-04-15T13:52:07.093Z</time></trkpt><trkpt lat="45.6854148" lon="9.4499041"><ele>211.0</ele><time>2026-04-15T13:52:08.093Z</time></trkpt><trkpt lat="45.6855081" lon="9.4499441"><ele>211.0</ele><time>2026-04-15T13:52:09.093Z</time></trkpt><trkpt lat="45.6856181" lon="9.4499662"><ele>211.0</ele><time>2026-04-15T13:52:10.093Z</time></trkpt><trkpt lat="45.6857147" lon="9.4500181"><ele>211.0</ele><time>2026-04-15T13:52:11.093Z</time></trkpt><trkpt lat="45.6858134" lon="9.4500737"><ele>211.0</ele><time>2026-04-15T13:52:12.093Z</time></trkpt><trkpt lat="45.6859043" lon="9.4501196"><ele>211.0</ele><time>2026-04-15T13:52:13.094Z</time></trkpt><trkpt lat="45.6859809" lon="9.4501831"><ele>211.0</ele><time>2026-04-15T13:52:14.093Z</time></trkpt><trkpt lat="45.6860628" lon="9.4502273"><ele>211.0</ele><time>2026-04-15T13:52:15.093Z</time></trkpt><trkpt lat="45.6861427" lon="9.4502998"><ele>211.0</ele><time>2026-04-15T13:52:16.094Z</time></trkpt><trkpt lat="45.6862229" lon="9.4503566"><ele>212.83333333333331</ele><time>2026-04-15T13:52:17.094Z</time></trkpt><trkpt lat="45.6863033" lon="9.4504313"><ele>214.66666666666666</ele><time>2026-04-15T13:52:18.093Z</time></trkpt><trkpt lat="45.6863718" lon="9.4504957"><ele>216.5</ele><time>2026-04-15T13:52:19.094Z</time></trkpt><trkpt lat="45.6864417" lon="9.4505616"><ele>218.33333333333331</ele><time>2026-04-15T13:52:20.093Z</time></trkpt><trkpt lat="45.6865253" lon="9.4506369"><ele>220.16666666666666</ele><time>2026-04-15T13:52:21.094Z</time></trkpt><trkpt lat="45.6866013" lon="9.4506891"><ele>222.0</ele><time>2026-04-15T13:52:22.093Z</time></trkpt><trkpt lat="45.6866744" lon="9.4507429"><ele>219.83333333333334</ele><time>2026-04-15T13:52:23.093Z</time></trkpt><trkpt lat="45.6867534" lon="9.4507961"><ele>217.66666666666669</ele><time>2026-04-15T13:52:24.093Z</time></trkpt><trkpt lat="45.6868218" lon="9.4508284"><ele>215.5</ele><time>2026-04-15T13:52:25.093Z</time></trkpt><trkpt lat="45.6868877" lon="9.4508674"><ele>213.33333333333334</ele><time>2026-04-15T13:52:26.093Z</time></trkpt><trkpt lat="45.6869625" lon="9.4509166"><ele>211.16666666666669</ele><time>2026-04-15T13:52:27.094Z</time></trkpt><trkpt lat="45.6870305" lon="9.4509364"><ele>209.0</ele><time>2026-04-15T13:52:28.093Z</time></trkpt><trkpt lat="45.6871614" lon="9.4509963"><ele>209.0</ele><time>2026-04-15T13:52:30.094Z</time></trkpt><trkpt lat="45.6873154" lon="9.451038"><ele>209.0</ele><time>2026-04-15T13:52:32.094Z</time></trkpt><trkpt lat="45.6873918" lon="9.451076"><ele>209.0</ele><time>2026-04-15T13:52:33.093Z</time></trkpt><trkpt lat="45.6875273" lon="9.4510767"><ele>209.0</ele><time>2026-04-15T13:52:35.093Z</time></trkpt><trkpt lat="45.6876558" lon="9.4510581"><ele>209.00000000000003</ele><time>2026-04-15T13:52:37.093Z</time></trkpt><trkpt lat="45.6877192" lon="9.4510579"><ele>209.0</ele><time>2026-04-15T13:52:38.093Z</time></trkpt><trkpt lat="45.6878493" lon="9.4510384"><ele>209.0</ele><time>2026-04-15T13:52:40.093Z</time></trkpt><trkpt lat="45.6879381" lon="9.4510446"><ele>209.0</ele><time>2026-04-15T13:52:41.093Z</time></trkpt><trkpt lat="45.6880106" lon="9.4510603"><ele>209.00000000000003</ele><time>2026-04-15T13:52:42.093Z</time></trkpt><trkpt lat="45.6880721" lon="9.451022"><ele>209.0</ele><time>2026-04-15T13:52:43.094Z</time></trkpt><trkpt lat="45.6881481" lon="9.4510037"><ele>210.0</ele><time>2026-04-15T13:52:44.093Z</time></trkpt><trkpt lat="45.6882245" lon="9.4509838"><ele>211.0</ele><time>2026-04-15T13:52:45.093Z</time></trkpt><trkpt lat="45.6883368" lon="9.4509368"><ele>211.99999999999997</ele><time>2026-04-15T13:52:47.093Z</time></trkpt><trkpt lat="45.6884455" lon="9.4509281"><ele>213.0</ele><time>2026-04-15T13:52:49.093Z</time></trkpt><trkpt lat="45.6885527" lon="9.4508942"><ele>214.0</ele><time>2026-04-15T13:52:51.093Z</time></trkpt><trkpt lat="45.6886156" lon="9.4508865"><ele>214.0</ele><time>2026-04-15T13:52:52.093Z</time></trkpt><trkpt lat="45.6887745" lon="9.450856"><ele>213.99999999999997</ele><time>2026-04-15T13:52:56.093Z</time></trkpt><trkpt lat="45.6888745" lon="9.4508351"><ele>213.99999999999997</ele><time>2026-04-15T13:52:58.093Z</time></trkpt><trkpt lat="45.6889533" lon="9.450843"><ele>214.0</ele><time>2026-04-15T13:53:00.093Z</time></trkpt><trkpt lat="45.6890436" lon="9.4508614"><ele>214.0</ele><time>2026-04-15T13:53:02.094Z</time></trkpt><trkpt lat="45.6891465" lon="9.4508911"><ele>214.0</ele><time>2026-04-15T13:53:04.093Z</time></trkpt><trkpt lat="45.6892639" lon="9.45091"><ele>214.0</ele><time>2026-04-15T13:53:06.093Z</time></trkpt><trkpt lat="45.6893834" lon="9.4509503"><ele>214.0</ele><time>2026-04-15T13:53:08.094Z</time></trkpt><trkpt lat="45.6894862" lon="9.4510099"><ele>214.0</ele><time>2026-04-15T13:53:10.093Z</time></trkpt><trkpt lat="45.6895866" lon="9.4511335"><ele>213.0</ele><time>2026-04-15T13:53:11.092Z</time></trkpt><trkpt lat="45.6896434" lon="9.4512232"><ele>211.99999999999997</ele><time>2026-04-15T13:53:12.094Z</time></trkpt><trkpt lat="45.6897452" lon="9.4513104"><ele>211.0</ele><time>2026-04-15T13:53:14.093Z</time></trkpt><trkpt lat="45.6897947" lon="9.4513924"><ele>210.0</ele><time>2026-04-15T13:53:15.093Z</time></trkpt><trkpt lat="45.6898427" lon="9.4514618"><ele>209.0</ele><time>2026-04-15T13:53:16.093Z</time></trkpt><trkpt lat="45.6899232" lon="9.4515744"><ele>209.0</ele><time>2026-04-15T13:53:18.093Z</time></trkpt><trkpt lat="45.689999" lon="9.4516858"><ele>209.0</ele><time>2026-04-15T13:53:20.093Z</time></trkpt><trkpt lat="45.6900656" lon="9.4517558"><ele>209.0</ele><time>2026-04-15T13:53:22.093Z</time></trkpt><trkpt lat="45.69014" lon="9.4518247"><ele>209.0</ele><time>2026-04-15T13:53:23.094Z</time></trkpt><trkpt lat="45.6903332" lon="9.4519255"><ele>215.00000000000003</ele><time>2026-04-15T13:53:27.094Z</time></trkpt><trkpt lat="45.6904004" lon="9.4519608"><ele>221.0</ele><time>2026-04-15T13:53:28.093Z</time></trkpt><trkpt lat="45.6904691" lon="9.4519874"><ele>227.0</ele><time>2026-04-15T13:53:30.094Z</time></trkpt><trkpt lat="45.6905925" lon="9.4519836"><ele>233.0</ele><time>2026-04-15T13:53:32.093Z</time></trkpt><trkpt lat="45.6906499" lon="9.4520317"><ele>239.00000000000003</ele><time>2026-04-15T13:53:33.093Z</time></trkpt><trkpt lat="45.6907543" lon="9.4520628"><ele>245.0</ele><time>2026-04-15T13:53:35.093Z</time></trkpt><trkpt lat="45.6908695" lon="9.4520784"><ele>245.0</ele><time>2026-04-15T13:53:37.094Z</time></trkpt><trkpt lat="45.6909914" lon="9.4520961"><ele>245.0</ele><time>2026-04-15T13:53:39.093Z</time></trkpt><trkpt lat="45.6910877" lon="9.4521864"><ele>245.0</ele><time>2026-04-15T13:53:41.093Z</time></trkpt><trkpt lat="45.6911847" lon="9.4522434"><ele>245.0</ele><time>2026-04-15T13:53:43.093Z</time></trkpt><trkpt lat="45.6912585" lon="9.4522867"><ele>245.0</ele><time>2026-04-15T13:53:44.093Z</time></trkpt><trkpt lat="45.6913164" lon="9.4523331"><ele>239.2</ele><time>2026-04-15T13:53:45.094Z</time></trkpt><trkpt lat="45.6913806" lon="9.4523888"><ele>233.4</ele><time>2026-04-15T13:53:46.093Z</time></trkpt><trkpt lat="45.6914935" lon="9.4524785"><ele>227.60000000000002</ele><time>2026-04-15T13:53:48.093Z</time></trkpt><trkpt lat="45.6916114" lon="9.4525316"><ele>221.8</ele><time>2026-04-15T13:53:50.093Z</time></trkpt><trkpt lat="45.691676" lon="9.4525856"><ele>216.0</ele><time>2026-04-15T13:53:51.093Z</time></trkpt><trkpt lat="45.6918023" lon="9.4526572"><ele>216.0</ele><time>2026-04-15T13:53:53.093Z</time></trkpt><trkpt lat="45.6919147" lon="9.4526988"><ele>216.00000000000003</ele><time>2026-04-15T13:53:55.093Z</time></trkpt><trkpt lat="45.6920379" lon="9.4528071"><ele>216.00000000000003</ele><time>2026-04-15T13:53:57.093Z</time></trkpt><trkpt lat="45.6920958" lon="9.4528599"><ele>216.0</ele><time>2026-04-15T13:53:58.093Z</time></trkpt><trkpt lat="45.6922004" lon="9.4529262"><ele>216.0</ele><time>2026-04-15T13:54:00.093Z</time></trkpt><trkpt lat="45.6922635" lon="9.4529615"><ele>214.0</ele><time>2026-04-15T13:54:01.093Z</time></trkpt><trkpt lat="45.692371" lon="9.45303"><ele>212.00000000000003</ele><time>2026-04-15T13:54:03.093Z</time></trkpt><trkpt lat="45.6924182" lon="9.4530897"><ele>210.0</ele><time>2026-04-15T13:54:04.093Z</time></trkpt><trkpt lat="45.6925059" lon="9.453148"><ele>208.0</ele><time>2026-04-15T13:54:05.094Z</time></trkpt><trkpt lat="45.6925668" lon="9.4531771"><ele>206.0</ele><time>2026-04-15T13:54:06.094Z</time></trkpt><trkpt lat="45.692688" lon="9.4532504"><ele>206.0</ele><time>2026-04-15T13:54:08.093Z</time></trkpt><trkpt lat="45.6927504" lon="9.4532883"><ele>206.0</ele><time>2026-04-15T13:54:09.093Z</time></trkpt><trkpt lat="45.6928546" lon="9.4532932"><ele>206.0</ele><time>2026-04-15T13:54:11.093Z</time></trkpt><trkpt lat="45.6929591" lon="9.4533754"><ele>206.0</ele><time>2026-04-15T13:54:13.093Z</time></trkpt><trkpt lat="45.6930369" lon="9.4534752"><ele>206.0</ele><time>2026-04-15T13:54:14.093Z</time></trkpt><trkpt lat="45.693101" lon="9.453477"><ele>207.0</ele><time>2026-04-15T13:54:15.093Z</time></trkpt><trkpt lat="45.6931635" lon="9.4535372"><ele>208.0</ele><time>2026-04-15T13:54:16.093Z</time></trkpt><trkpt lat="45.6933785" lon="9.4536192"><ele>209.0</ele><time>2026-04-15T13:54:21.093Z</time></trkpt><trkpt lat="45.6934571" lon="9.453702"><ele>210.0</ele><time>2026-04-15T13:54:23.093Z</time></trkpt><trkpt lat="45.6935424" lon="9.4538234"><ele>212.4</ele><time>2026-04-15T13:54:25.093Z</time></trkpt><trkpt lat="45.6936303" lon="9.4538938"><ele>214.8</ele><time>2026-04-15T13:54:26.094Z</time></trkpt><trkpt lat="45.6936816" lon="9.4539486"><ele>217.2</ele><time>2026-04-15T13:54:27.093Z</time></trkpt><trkpt lat="45.6937338" lon="9.4540063"><ele>219.6</ele><time>2026-04-15T13:54:28.093Z</time></trkpt><trkpt lat="45.6938657" lon="9.4540835"><ele>222.0</ele><time>2026-04-15T13:54:30.093Z</time></trkpt><trkpt lat="45.6939634" lon="9.4541297"><ele>222.0</ele><time>2026-04-15T13:54:31.093Z</time></trkpt><trkpt lat="45.6940936" lon="9.4542006"><ele>222.0</ele><time>2026-04-15T13:54:33.093Z</time></trkpt><trkpt lat="45.6941513" lon="9.4542596"><ele>222.0</ele><time>2026-04-15T13:54:34.094Z</time></trkpt><trkpt lat="45.6942605" lon="9.4543379"><ele>222.0</ele><time>2026-04-15T13:54:36.093Z</time></trkpt><trkpt lat="45.6943795" lon="9.4544373"><ele>223.83333333333334</ele><time>2026-04-15T13:54:38.093Z</time></trkpt><trkpt lat="45.6945006" lon="9.4545052"><ele>225.66666666666669</ele><time>2026-04-15T13:54:40.093Z</time></trkpt><trkpt lat="45.6945564" lon="9.4545554"><ele>227.5</ele><time>2026-04-15T13:54:41.093Z</time></trkpt><trkpt lat="45.6946278" lon="9.4546454"><ele>229.33333333333334</ele><time>2026-04-15T13:54:42.094Z</time></trkpt><trkpt lat="45.6947029" lon="9.4547091"><ele>231.16666666666669</ele><time>2026-04-15T13:54:43.093Z</time></trkpt><trkpt lat="45.6947639" lon="9.4547361"><ele>233.0</ele><time>2026-04-15T13:54:44.094Z</time></trkpt><trkpt lat="45.6948363" lon="9.4547848"><ele>229.50000000000003</ele><time>2026-04-15T13:54:45.093Z</time></trkpt><trkpt lat="45.694897" lon="9.4548216"><ele>226.0</ele><time>2026-04-15T13:54:46.093Z</time></trkpt><trkpt lat="45.6949658" lon="9.4548325"><ele>222.5</ele><time>2026-04-15T13:54:47.094Z</time></trkpt><trkpt lat="45.695049" lon="9.4548426"><ele>219.0</ele><time>2026-04-15T13:54:48.094Z</time></trkpt><trkpt lat="45.6951658" lon="9.4548601"><ele>215.50000000000003</ele><time>2026-04-15T13:54:49.093Z</time></trkpt><trkpt lat="45.695246" lon="9.4548242"><ele>212.0</ele><time>2026-04-15T13:54:50.093Z</time></trkpt><trkpt lat="45.6952983" lon="9.4548867"><ele>212.0</ele><time>2026-04-15T13:54:51.093Z</time></trkpt><trkpt lat="45.6953654" lon="9.4549461"><ele>212.0</ele><time>2026-04-15T13:54:52.093Z</time></trkpt><trkpt lat="45.6954593" lon="9.454978"><ele>212.0</ele><time>2026-04-15T13:54:54.093Z</time></trkpt><trkpt lat="45.6955885" lon="9.4549998"><ele>212.0</ele><time>2026-04-15T13:54:56.093Z</time></trkpt><trkpt lat="45.6956828" lon="9.4550592"><ele>212.0</ele><time>2026-04-15T13:54:58.093Z</time></trkpt><trkpt lat="45.6957645" lon="9.4550509"><ele>212.0</ele><time>2026-04-15T13:54:59.093Z</time></trkpt><trkpt lat="45.6958472" lon="9.4550828"><ele>212.0</ele><time>2026-04-15T13:55:00.093Z</time></trkpt><trkpt lat="45.6959122" lon="9.4551035"><ele>212.0</ele><time>2026-04-15T13:55:01.093Z</time></trkpt><trkpt lat="45.6959956" lon="9.4551772"><ele>212.0</ele><time>2026-04-15T13:55:03.093Z</time></trkpt><trkpt lat="45.6961108" lon="9.4552389"><ele>212.0</ele><time>2026-04-15T13:55:05.093Z</time></trkpt><trkpt lat="45.6961965" lon="9.4551411"><ele>212.00000000000003</ele><time>2026-04-15T13:55:06.093Z</time></trkpt><trkpt lat="45.6962501" lon="9.4551911"><ele>212.0</ele><time>2026-04-15T13:55:07.093Z</time></trkpt><trkpt lat="45.696329" lon="9.4551675"><ele>212.0</ele><time>2026-04-15T13:55:08.093Z</time></trkpt><trkpt lat="45.6964002" lon="9.4551682"><ele>212.0</ele><time>2026-04-15T13:55:09.094Z</time></trkpt><trkpt lat="45.6964759" lon="9.4551653"><ele>212.00000000000003</ele><time>2026-04-15T13:55:10.093Z</time></trkpt><trkpt lat="45.6965582" lon="9.4551592"><ele>212.0</ele><time>2026-04-15T13:55:11.093Z</time></trkpt><trkpt lat="45.6966725" lon="9.4551552"><ele>212.00000000000003</ele><time>2026-04-15T13:55:13.093Z</time></trkpt><trkpt lat="45.6967541" lon="9.4551496"><ele>212.0</ele><time>2026-04-15T13:55:14.093Z</time></trkpt><trkpt lat="45.6968588" lon="9.4551364"><ele>212.0</ele><time>2026-04-15T13:55:16.094Z</time></trkpt><trkpt lat="45.6969285" lon="9.4551439"><ele>212.0</ele><time>2026-04-15T13:55:17.093Z</time></trkpt><trkpt lat="45.6970075" lon="9.4551315"><ele>212.00000000000003</ele><time>2026-04-15T13:55:18.093Z</time></trkpt><trkpt lat="45.6970702" lon="9.4550932"><ele>212.0</ele><time>2026-04-15T13:55:19.093Z</time></trkpt><trkpt lat="45.6971316" lon="9.4550694"><ele>212.0</ele><time>2026-04-15T13:55:20.093Z</time></trkpt><trkpt lat="45.6972477" lon="9.4550724"><ele>212.0</ele><time>2026-04-15T13:55:22.093Z</time></trkpt><trkpt lat="45.6973132" lon="9.4550316"><ele>212.0</ele><time>2026-04-15T13:55:23.093Z</time></trkpt><trkpt lat="45.6974345" lon="9.4550201"><ele>212.0</ele><time>2026-04-15T13:55:25.093Z</time></trkpt><trkpt lat="45.6975833" lon="9.4549942"><ele>212.00000000000003</ele><time>2026-04-15T13:55:27.093Z</time></trkpt><trkpt lat="45.6976641" lon="9.4550068"><ele>212.0</ele><time>2026-04-15T13:55:28.093Z</time></trkpt><trkpt lat="45.6977868" lon="9.4549708"><ele>212.0</ele><time>2026-04-15T13:55:30.093Z</time></trkpt><trkpt lat="45.6978503" lon="9.4549499"><ele>212.0</ele><time>2026-04-15T13:55:31.093Z</time></trkpt><trkpt lat="45.6979311" lon="9.4549704"><ele>212.00000000000003</ele><time>2026-04-15T13:55:32.094Z</time></trkpt><trkpt lat="45.6980065" lon="9.4549631"><ele>212.0</ele><time>2026-04-15T13:55:33.093Z</time></trkpt><trkpt lat="45.698074" lon="9.4549617"><ele>211.0</ele><time>2026-04-15T13:55:34.093Z</time></trkpt><trkpt lat="45.6981551" lon="9.4549715"><ele>210.0</ele><time>2026-04-15T13:55:35.093Z</time></trkpt><trkpt lat="45.6982274" lon="9.4549827"><ele>209.0</ele><time>2026-04-15T13:55:36.093Z</time></trkpt><trkpt lat="45.6982961" lon="9.4549824"><ele>208.0</ele><time>2026-04-15T13:55:37.093Z</time></trkpt><trkpt lat="45.6984224" lon="9.4550054"><ele>207.0</ele><time>2026-04-15T13:55:39.093Z</time></trkpt><trkpt lat="45.69855" lon="9.4550247"><ele>205.8</ele><time>2026-04-15T13:55:41.093Z</time></trkpt><trkpt lat="45.6986322" lon="9.4550235"><ele>204.6</ele><time>2026-04-15T13:55:42.093Z</time></trkpt><trkpt lat="45.6986894" lon="9.4550661"><ele>203.4</ele><time>2026-04-15T13:55:43.093Z</time></trkpt><trkpt lat="45.6988066" lon="9.4550757"><ele>202.20000000000002</ele><time>2026-04-15T13:55:45.093Z</time></trkpt><trkpt lat="45.6989342" lon="9.4551237"><ele>201.0</ele><time>2026-04-15T13:55:47.094Z</time></trkpt><trkpt lat="45.6990093" lon="9.4551623"><ele>201.0</ele><time>2026-04-15T13:55:48.093Z</time></trkpt><trkpt lat="45.6990794" lon="9.4551905"><ele>201.0</ele><time>2026-04-15T13:55:49.093Z</time></trkpt><trkpt lat="45.6991543" lon="9.4552372"><ele>201.0</ele><time>2026-04-15T13:55:50.094Z</time></trkpt><trkpt lat="45.6992381" lon="9.4552761"><ele>201.0</ele><time>2026-04-15T13:55:51.093Z</time></trkpt><trkpt lat="45.6993134" lon="9.4552901"><ele>201.0</ele><time>2026-04-15T13:55:52.093Z</time></trkpt><trkpt lat="45.6993793" lon="9.4552857"><ele>201.0</ele><time>2026-04-15T13:55:53.093Z</time></trkpt><trkpt lat="45.6994493" lon="9.4552799"><ele>202.16666666666666</ele><time>2026-04-15T13:55:54.094Z</time></trkpt><trkpt lat="45.6995163" lon="9.4553043"><ele>203.33333333333331</ele><time>2026-04-15T13:55:55.094Z</time></trkpt><trkpt lat="45.6996222" lon="9.4552912"><ele>204.5</ele><time>2026-04-15T13:55:57.093Z</time></trkpt><trkpt lat="45.6997272" lon="9.4553014"><ele>205.66666666666666</ele><time>2026-04-15T13:55:59.093Z</time></trkpt><trkpt lat="45.6997919" lon="9.4553287"><ele>206.83333333333331</ele><time>2026-04-15T13:56:00.093Z</time></trkpt><trkpt lat="45.6998692" lon="9.4553602"><ele>208.0</ele><time>2026-04-15T13:56:02.094Z</time></trkpt><trkpt lat="45.6999207" lon="9.4554463"><ele>206.66666666666666</ele><time>2026-04-15T13:56:04.093Z</time></trkpt><trkpt lat="45.6999746" lon="9.4554995"><ele>205.33333333333331</ele><time>2026-04-15T13:56:05.094Z</time></trkpt><trkpt lat="45.7000651" lon="9.4556181"><ele>204.0</ele><time>2026-04-15T13:56:07.093Z</time></trkpt><trkpt lat="45.7001423" lon="9.455705"><ele>202.66666666666669</ele><time>2026-04-15T13:56:09.094Z</time></trkpt><trkpt lat="45.7001812" lon="9.4557831"><ele>201.33333333333334</ele><time>2026-04-15T13:56:10.093Z</time></trkpt><trkpt lat="45.7002618" lon="9.4558352"><ele>200.0</ele><time>2026-04-15T13:56:12.093Z</time></trkpt><trkpt lat="45.7003408" lon="9.4559095"><ele>200.00000000000003</ele><time>2026-04-15T13:56:13.093Z</time></trkpt><trkpt lat="45.7003929" lon="9.4559616"><ele>200.0</ele><time>2026-04-15T13:56:14.093Z</time></trkpt><trkpt lat="45.7004471" lon="9.4560253"><ele>200.0</ele><time>2026-04-15T13:56:15.094Z</time></trkpt><trkpt lat="45.7005033" lon="9.456082"><ele>200.0</ele><time>2026-04-15T13:56:16.093Z</time></trkpt><trkpt lat="45.7005485" lon="9.4561871"><ele>200.0</ele><time>2026-04-15T13:56:17.094Z</time></trkpt><trkpt lat="45.7006028" lon="9.4562685"><ele>200.00000000000003</ele><time>2026-04-15T13:56:18.094Z</time></trkpt><trkpt lat="45.7006556" lon="9.4563385"><ele>200.0</ele><time>2026-04-15T13:56:19.094Z</time></trkpt><trkpt lat="45.7006987" lon="9.4564127"><ele>199.16666666666669</ele><time>2026-04-15T13:56:20.093Z</time></trkpt><trkpt lat="45.7007782" lon="9.4565178"><ele>198.33333333333334</ele><time>2026-04-15T13:56:21.093Z</time></trkpt><trkpt lat="45.7008324" lon="9.4565802"><ele>197.5</ele><time>2026-04-15T13:56:22.093Z</time></trkpt><trkpt lat="45.7008865" lon="9.456646"><ele>196.66666666666669</ele><time>2026-04-15T13:56:23.093Z</time></trkpt><trkpt lat="45.7009665" lon="9.4567273"><ele>195.83333333333334</ele><time>2026-04-15T13:56:25.094Z</time></trkpt><trkpt lat="45.7010308" lon="9.4568209"><ele>195.0</ele><time>2026-04-15T13:56:27.094Z</time></trkpt><trkpt lat="45.7010894" lon="9.4568807"><ele>195.66666666666666</ele><time>2026-04-15T13:56:28.093Z</time></trkpt><trkpt lat="45.7011456" lon="9.4569355"><ele>196.33333333333331</ele><time>2026-04-15T13:56:29.093Z</time></trkpt><trkpt lat="45.7011996" lon="9.4570059"><ele>197.0</ele><time>2026-04-15T13:56:30.093Z</time></trkpt><trkpt lat="45.7012548" lon="9.4570832"><ele>197.66666666666666</ele><time>2026-04-15T13:56:31.093Z</time></trkpt><trkpt lat="45.7013426" lon="9.4571791"><ele>198.33333333333331</ele><time>2026-04-15T13:56:33.093Z</time></trkpt><trkpt lat="45.7014164" lon="9.4572533"><ele>199.0</ele><time>2026-04-15T13:56:34.094Z</time></trkpt><trkpt lat="45.7014636" lon="9.4573166"><ele>199.0</ele><time>2026-04-15T13:56:35.094Z</time></trkpt><trkpt lat="45.7015356" lon="9.4573852"><ele>199.0</ele><time>2026-04-15T13:56:36.093Z</time></trkpt><trkpt lat="45.701591" lon="9.4574308"><ele>199.0</ele><time>2026-04-15T13:56:37.093Z</time></trkpt><trkpt lat="45.7016973" lon="9.4575237"><ele>199.0</ele><time>2026-04-15T13:56:39.094Z</time></trkpt><trkpt lat="45.7017826" lon="9.4575839"><ele>199.0</ele><time>2026-04-15T13:56:41.093Z</time></trkpt><trkpt lat="45.7018985" lon="9.4576484"><ele>199.33333333333331</ele><time>2026-04-15T13:56:43.094Z</time></trkpt><trkpt lat="45.7019897" lon="9.4576756"><ele>199.66666666666666</ele><time>2026-04-15T13:56:45.094Z</time></trkpt><trkpt lat="45.7020512" lon="9.4577061"><ele>200.0</ele><time>2026-04-15T13:56:46.093Z</time></trkpt><trkpt lat="45.7021168" lon="9.4577387"><ele>200.33333333333331</ele><time>2026-04-15T13:56:47.093Z</time></trkpt><trkpt lat="45.7022078" lon="9.4578052"><ele>200.66666666666666</ele><time>2026-04-15T13:56:48.094Z</time></trkpt><trkpt lat="45.7022813" lon="9.4578427"><ele>201.0</ele><time>2026-04-15T13:56:49.093Z</time></trkpt><trkpt lat="45.7023833" lon="9.4578862"><ele>201.0</ele><time>2026-04-15T13:56:50.094Z</time></trkpt><trkpt lat="45.7025269" lon="9.4579364"><ele>201.0</ele><time>2026-04-15T13:56:52.093Z</time></trkpt><trkpt lat="45.7026242" lon="9.4579648"><ele>201.0</ele><time>2026-04-15T13:56:53.093Z</time></trkpt><trkpt lat="45.7026935" lon="9.4579673"><ele>201.0</ele><time>2026-04-15T13:56:54.093Z</time></trkpt><trkpt lat="45.7027889" lon="9.4579959"><ele>201.0</ele><time>2026-04-15T13:56:55.093Z</time></trkpt><trkpt lat="45.7028538" lon="9.4579894"><ele>201.5</ele><time>2026-04-15T13:56:56.094Z</time></trkpt><trkpt lat="45.7029278" lon="9.4579757"><ele>202.0</ele><time>2026-04-15T13:56:57.094Z</time></trkpt><trkpt lat="45.7030608" lon="9.4579538"><ele>202.5</ele><time>2026-04-15T13:56:59.094Z</time></trkpt><trkpt lat="45.7031285" lon="9.4579478"><ele>203.0</ele><time>2026-04-15T13:57:00.094Z</time></trkpt><trkpt lat="45.7031934" lon="9.4579218"><ele>203.5</ele><time>2026-04-15T13:57:01.093Z</time></trkpt><trkpt lat="45.7032591" lon="9.4578983"><ele>204.0</ele><time>2026-04-15T13:57:02.093Z</time></trkpt><trkpt lat="45.7033316" lon="9.4578582"><ele>204.5</ele><time>2026-04-15T13:57:03.093Z</time></trkpt><trkpt lat="45.7033973" lon="9.4578277"><ele>205.0</ele><time>2026-04-15T13:57:04.093Z</time></trkpt><trkpt lat="45.703464" lon="9.4578069"><ele>205.5</ele><time>2026-04-15T13:57:05.094Z</time></trkpt><trkpt lat="45.7035202" lon="9.4577629"><ele>206.0</ele><time>2026-04-15T13:57:06.093Z</time></trkpt><trkpt lat="45.70363" lon="9.4576878"><ele>206.5</ele><time>2026-04-15T13:57:08.093Z</time></trkpt><trkpt lat="45.7037421" lon="9.4576073"><ele>207.0</ele><time>2026-04-15T13:57:10.094Z</time></trkpt><trkpt lat="45.7038087" lon="9.4575234"><ele>207.0</ele><time>2026-04-15T13:57:12.093Z</time></trkpt><trkpt lat="45.703897" lon="9.4574246"><ele>207.0</ele><time>2026-04-15T13:57:14.094Z</time></trkpt><trkpt lat="45.7039901" lon="9.4573151"><ele>207.0</ele><time>2026-04-15T13:57:16.094Z</time></trkpt><trkpt lat="45.7040835" lon="9.4572087"><ele>207.0</ele><time>2026-04-15T13:57:18.094Z</time></trkpt><trkpt lat="45.7041845" lon="9.4571186"><ele>206.83333333333334</ele><time>2026-04-15T13:57:20.093Z</time></trkpt><trkpt lat="45.7042584" lon="9.4570799"><ele>206.66666666666669</ele><time>2026-04-15T13:57:22.093Z</time></trkpt><trkpt lat="45.7043351" lon="9.4570161"><ele>206.5</ele><time>2026-04-15T13:57:24.094Z</time></trkpt><trkpt lat="45.7043963" lon="9.4569512"><ele>206.33333333333334</ele><time>2026-04-15T13:57:25.093Z</time></trkpt><trkpt lat="45.7044546" lon="9.4568779"><ele>206.16666666666669</ele><time>2026-04-15T13:57:26.093Z</time></trkpt><trkpt lat="45.7045228" lon="9.4568307"><ele>206.0</ele><time>2026-04-15T13:57:27.093Z</time></trkpt><trkpt lat="45.7045821" lon="9.4567856"><ele>206.0</ele><time>2026-04-15T13:57:28.093Z</time></trkpt><trkpt lat="45.7046844" lon="9.4567603"><ele>206.0</ele><time>2026-04-15T13:57:30.093Z</time></trkpt><trkpt lat="45.7047893" lon="9.4567542"><ele>206.0</ele><time>2026-04-15T13:57:32.093Z</time></trkpt><trkpt lat="45.704852" lon="9.4567722"><ele>206.0</ele><time>2026-04-15T13:57:33.093Z</time></trkpt><trkpt lat="45.7049174" lon="9.4567918"><ele>206.0</ele><time>2026-04-15T13:57:34.093Z</time></trkpt><trkpt lat="45.7050331" lon="9.4568538"><ele>206.0</ele><time>2026-04-15T13:57:36.094Z</time></trkpt><trkpt lat="45.705117" lon="9.4568708"><ele>206.0</ele><time>2026-04-15T13:57:37.093Z</time></trkpt><trkpt lat="45.7052134" lon="9.4568853"><ele>206.0</ele><time>2026-04-15T13:57:39.093Z</time></trkpt><trkpt lat="45.7052751" lon="9.4569115"><ele>206.0</ele><time>2026-04-15T13:57:40.094Z</time></trkpt><trkpt lat="45.7054086" lon="9.4568834"><ele>206.0</ele><time>2026-04-15T13:57:42.093Z</time></trkpt><trkpt lat="45.705519" lon="9.4568437"><ele>205.8</ele><time>2026-04-15T13:57:44.093Z</time></trkpt><trkpt lat="45.7055968" lon="9.4567821"><ele>205.60000000000002</ele><time>2026-04-15T13:57:45.093Z</time></trkpt><trkpt lat="45.7056686" lon="9.4567692"><ele>205.4</ele><time>2026-04-15T13:57:46.093Z</time></trkpt><trkpt lat="45.7057943" lon="9.4567442"><ele>205.2</ele><time>2026-04-15T13:57:48.093Z</time></trkpt><trkpt lat="45.7059219" lon="9.4567387"><ele>205.0</ele><time>2026-04-15T13:57:50.093Z</time></trkpt><trkpt lat="45.7060428" lon="9.4567707"><ele>204.33333333333331</ele><time>2026-04-15T13:57:52.093Z</time></trkpt><trkpt lat="45.7061176" lon="9.456767"><ele>203.66666666666666</ele><time>2026-04-15T13:57:54.093Z</time></trkpt><trkpt lat="45.7062076" lon="9.4567981"><ele>203.0</ele><time>2026-04-15T13:57:56.094Z</time></trkpt><trkpt lat="45.7062873" lon="9.4568293"><ele>202.33333333333331</ele><time>2026-04-15T13:57:58.093Z</time></trkpt><trkpt lat="45.7063577" lon="9.4568183"><ele>201.66666666666666</ele><time>2026-04-15T13:57:59.094Z</time></trkpt><trkpt lat="45.7064353" lon="9.4567994"><ele>201.0</ele><time>2026-04-15T13:58:00.093Z</time></trkpt><trkpt lat="45.7065658" lon="9.4567858"><ele>201.0</ele><time>2026-04-15T13:58:02.093Z</time></trkpt><trkpt lat="45.7066423" lon="9.4567661"><ele>201.0</ele><time>2026-04-15T13:58:03.094Z</time></trkpt><trkpt lat="45.7067124" lon="9.4567703"><ele>201.0</ele><time>2026-04-15T13:58:04.093Z</time></trkpt><trkpt lat="45.7067815" lon="9.4567689"><ele>201.0</ele><time>2026-04-15T13:58:05.094Z</time></trkpt><trkpt lat="45.7068452" lon="9.4567522"><ele>201.0</ele><time>2026-04-15T13:58:06.093Z</time></trkpt><trkpt lat="45.7069503" lon="9.4567215"><ele>201.0</ele><time>2026-04-15T13:58:08.093Z</time></trkpt><trkpt lat="45.7070495" lon="9.4566744"><ele>200.16666666666666</ele><time>2026-04-15T13:58:10.094Z</time></trkpt><trkpt lat="45.7071173" lon="9.4566214"><ele>199.33333333333331</ele><time>2026-04-15T13:58:12.094Z</time></trkpt><trkpt lat="45.7072403" lon="9.4565737"><ele>198.5</ele><time>2026-04-15T13:58:16.094Z</time></trkpt><trkpt lat="45.7073177" lon="9.4565314"><ele>197.66666666666666</ele><time>2026-04-15T13:58:18.093Z</time></trkpt><trkpt lat="45.7073929" lon="9.4565015"><ele>196.83333333333331</ele><time>2026-04-15T13:58:20.094Z</time></trkpt><trkpt lat="45.707463" lon="9.4564433"><ele>196.0</ele><time>2026-04-15T13:58:23.093Z</time></trkpt><trkpt lat="45.7073838" lon="9.4564405"><ele>195.99999999999997</ele><time>2026-04-15T13:58:27.093Z</time></trkpt><trkpt lat="45.7072894" lon="9.4564864"><ele>196.0</ele><time>2026-04-15T13:58:30.094Z</time></trkpt><trkpt lat="45.7072014" lon="9.4565054"><ele>196.0</ele><time>2026-04-15T13:58:33.093Z</time></trkpt><trkpt lat="45.7071159" lon="9.4565338"><ele>196.0</ele><time>2026-04-15T13:58:36.093Z</time></trkpt><trkpt lat="45.7070346" lon="9.4565767"><ele>195.99999999999997</ele><time>2026-04-15T13:58:40.094Z</time></trkpt><trkpt lat="45.7069603" lon="9.4566347"><ele>196.0</ele><time>2026-04-15T13:58:43.093Z</time></trkpt><trkpt lat="45.7068879" lon="9.4566412"><ele>196.71428571428572</ele><time>2026-04-15T13:58:45.093Z</time></trkpt><trkpt lat="45.7068157" lon="9.456641"><ele>197.42857142857144</ele><time>2026-04-15T13:58:47.093Z</time></trkpt><trkpt lat="45.7067249" lon="9.4566294"><ele>198.14285714285714</ele><time>2026-04-15T13:58:50.093Z</time></trkpt><trkpt lat="45.7066539" lon="9.4566143"><ele>198.85714285714286</ele><time>2026-04-15T13:58:52.094Z</time></trkpt><trkpt lat="45.7065901" lon="9.4565786"><ele>199.57142857142858</ele><time>2026-04-15T13:58:54.094Z</time></trkpt><trkpt lat="45.7065248" lon="9.4565262"><ele>200.28571428571428</ele><time>2026-04-15T13:58:56.093Z</time></trkpt><trkpt lat="45.7064634" lon="9.4564751"><ele>201.0</ele><time>2026-04-15T13:58:58.094Z</time></trkpt><trkpt lat="45.7064028" lon="9.4564275"><ele>201.0</ele><time>2026-04-15T13:59:00.093Z</time></trkpt><trkpt lat="45.7063303" lon="9.456371"><ele>201.0</ele><time>2026-04-15T13:59:03.093Z</time></trkpt><trkpt lat="45.7062509" lon="9.4563443"><ele>201.0</ele><time>2026-04-15T13:59:06.093Z</time></trkpt><trkpt lat="45.7061864" lon="9.4563211"><ele>201.0</ele><time>2026-04-15T13:59:08.094Z</time></trkpt><trkpt lat="45.7061123" lon="9.4563139"><ele>201.0</ele><time>2026-04-15T13:59:11.093Z</time></trkpt><trkpt lat="45.7060497" lon="9.4563295"><ele>201.0</ele><time>2026-04-15T13:59:14.094Z</time></trkpt><trkpt lat="45.7059756" lon="9.4563563"><ele>201.0</ele><time>2026-04-15T13:59:17.093Z</time></trkpt><trkpt lat="45.7058882" lon="9.4564004"><ele>201.8</ele><time>2026-04-15T13:59:21.094Z</time></trkpt><trkpt lat="45.7057861" lon="9.4564023"><ele>202.60000000000002</ele><time>2026-04-15T13:59:24.094Z</time></trkpt><trkpt lat="45.7056918" lon="9.4564132"><ele>203.4</ele><time>2026-04-15T13:59:26.093Z</time></trkpt><trkpt lat="45.7056112" lon="9.4563662"><ele>204.2</ele><time>2026-04-15T13:59:28.093Z</time></trkpt><trkpt lat="45.7056007" lon="9.4562632"><ele>205.0</ele><time>2026-04-15T13:59:31.093Z</time></trkpt><trkpt lat="45.7057258" lon="9.456226"><ele>206.66666666666666</ele><time>2026-04-15T13:59:34.138Z</time></trkpt><trkpt lat="45.7057377" lon="9.4561348"><ele>208.33333333333331</ele><time>2026-04-15T13:59:37.093Z</time></trkpt><trkpt lat="45.7057687" lon="9.4559918"><ele>210.0</ele><time>2026-04-15T13:59:39.093Z</time></trkpt><trkpt lat="45.7058075" lon="9.4558718"><ele>211.66666666666669</ele><time>2026-04-15T13:59:41.094Z</time></trkpt><trkpt lat="45.7058489" lon="9.45577"><ele>213.33333333333334</ele><time>2026-04-15T13:59:44.093Z</time></trkpt><trkpt lat="45.7058947" lon="9.4556923"><ele>215.0</ele><time>2026-04-15T13:59:47.093Z</time></trkpt><trkpt lat="45.7059493" lon="9.4555931"><ele>215.0</ele><time>2026-04-15T13:59:50.094Z</time></trkpt><trkpt lat="45.7059895" lon="9.4555065"><ele>215.0</ele><time>2026-04-15T13:59:52.093Z</time></trkpt><trkpt lat="45.7060333" lon="9.4554263"><ele>215.0</ele><time>2026-04-15T13:59:54.093Z</time></trkpt><trkpt lat="45.7060774" lon="9.455351"><ele>215.0</ele><time>2026-04-15T13:59:56.093Z</time></trkpt><trkpt lat="45.7061228" lon="9.4552764"><ele>215.0</ele><time>2026-04-15T13:59:58.093Z</time></trkpt><trkpt lat="45.7061661" lon="9.4552013"><ele>215.0</ele><time>2026-04-15T14:00:00.093Z</time></trkpt><trkpt lat="45.7062114" lon="9.455123"><ele>215.0</ele><time>2026-04-15T14:00:02.094Z</time></trkpt><trkpt lat="45.706252" lon="9.455046"><ele>215.14285714285714</ele><time>2026-04-15T14:00:04.093Z</time></trkpt><trkpt lat="45.7062913" lon="9.4549631"><ele>215.2857142857143</ele><time>2026-04-15T14:00:06.093Z</time></trkpt><trkpt lat="45.7063311" lon="9.4548809"><ele>215.42857142857144</ele><time>2026-04-15T14:00:08.093Z</time></trkpt><trkpt lat="45.7063745" lon="9.4548027"><ele>215.57142857142856</ele><time>2026-04-15T14:00:10.094Z</time></trkpt><trkpt lat="45.7064216" lon="9.4547191"><ele>215.71428571428572</ele><time>2026-04-15T14:00:12.093Z</time></trkpt><trkpt lat="45.7064666" lon="9.4546303"><ele>215.85714285714286</ele><time>2026-04-15T14:00:14.094Z</time></trkpt><trkpt lat="45.7065067" lon="9.4545412"><ele>216.0</ele><time>2026-04-15T14:00:16.093Z</time></trkpt><trkpt lat="45.7065471" lon="9.4544495"><ele>217.42857142857142</ele><time>2026-04-15T14:00:18.094Z</time></trkpt><trkpt lat="45.7065796" lon="9.4543606"><ele>218.85714285714283</ele><time>2026-04-15T14:00:20.093Z</time></trkpt><trkpt lat="45.7066107" lon="9.4542776"><ele>220.28571428571428</ele><time>2026-04-15T14:00:22.093Z</time></trkpt><trkpt lat="45.7066296" lon="9.4541907"><ele>221.71428571428572</ele><time>2026-04-15T14:00:24.094Z</time></trkpt><trkpt lat="45.7066327" lon="9.4540935"><ele>223.14285714285714</ele><time>2026-04-15T14:00:26.093Z</time></trkpt><trkpt lat="45.7066224" lon="9.4539977"><ele>224.57142857142858</ele><time>2026-04-15T14:00:28.093Z</time></trkpt><trkpt lat="45.7066032" lon="9.4539068"><ele>226.0</ele><time>2026-04-15T14:00:30.093Z</time></trkpt><trkpt lat="45.7065781" lon="9.4538187"><ele>227.0</ele><time>2026-04-15T14:00:32.094Z</time></trkpt><trkpt lat="45.7065491" lon="9.4536904"><ele>228.0</ele><time>2026-04-15T14:00:35.094Z</time></trkpt><trkpt lat="45.7065348" lon="9.4536011"><ele>229.0</ele><time>2026-04-15T14:00:37.093Z</time></trkpt><trkpt lat="45.7065298" lon="9.4535112"><ele>230.0</ele><time>2026-04-15T14:00:39.093Z</time></trkpt><trkpt lat="45.7065344" lon="9.4534183"><ele>231.0</ele><time>2026-04-15T14:00:41.094Z</time></trkpt><trkpt lat="45.7065472" lon="9.4533236"><ele>232.0</ele><time>2026-04-15T14:00:43.094Z</time></trkpt><trkpt lat="45.7065632" lon="9.4532318"><ele>233.0</ele><time>2026-04-15T14:00:45.093Z</time></trkpt><trkpt lat="45.7065882" lon="9.4531256"><ele>233.00000000000003</ele><time>2026-04-15T14:00:48.094Z</time></trkpt><trkpt lat="45.7066236" lon="9.4530105"><ele>233.0</ele><time>2026-04-15T14:00:51.093Z</time></trkpt><trkpt lat="45.7066459" lon="9.4529243"><ele>233.0</ele><time>2026-04-15T14:00:53.093Z</time></trkpt><trkpt lat="45.7066757" lon="9.4528006"><ele>233.0</ele><time>2026-04-15T14:00:56.093Z</time></trkpt><trkpt lat="45.7067119" lon="9.4526793"><ele>233.00000000000003</ele><time>2026-04-15T14:00:59.094Z</time></trkpt><trkpt lat="45.7067432" lon="9.4525908"><ele>233.0</ele><time>2026-04-15T14:01:01.094Z</time></trkpt><trkpt lat="45.7067806" lon="9.4524769"><ele>233.28571428571428</ele><time>2026-04-15T14:01:04.093Z</time></trkpt><trkpt lat="45.7068128" lon="9.4523803"><ele>233.57142857142856</ele><time>2026-04-15T14:01:06.094Z</time></trkpt><trkpt lat="45.7068431" lon="9.452289"><ele>233.85714285714283</ele><time>2026-04-15T14:01:08.094Z</time></trkpt><trkpt lat="45.7068742" lon="9.4521924"><ele>234.14285714285714</ele><time>2026-04-15T14:01:10.093Z</time></trkpt><trkpt lat="45.7068965" lon="9.4521047"><ele>234.4285714285714</ele><time>2026-04-15T14:01:12.094Z</time></trkpt><trkpt lat="45.7069066" lon="9.4520039"><ele>234.7142857142857</ele><time>2026-04-15T14:01:14.094Z</time></trkpt><trkpt lat="45.7069165" lon="9.4519045"><ele>235.0</ele><time>2026-04-15T14:01:16.093Z</time></trkpt><trkpt lat="45.7069164" lon="9.4518108"><ele>235.0</ele><time>2026-04-15T14:01:18.093Z</time></trkpt><trkpt lat="45.706911" lon="9.4517193"><ele>234.99999999999997</ele><time>2026-04-15T14:01:20.094Z</time></trkpt><trkpt lat="45.7069011" lon="9.4516248"><ele>235.0</ele><time>2026-04-15T14:01:22.093Z</time></trkpt><trkpt lat="45.7068906" lon="9.4515285"><ele>235.0</ele><time>2026-04-15T14:01:24.093Z</time></trkpt><trkpt lat="45.7068768" lon="9.4514276"><ele>234.99999999999997</ele><time>2026-04-15T14:01:26.093Z</time></trkpt><trkpt lat="45.7068677" lon="9.4513322"><ele>235.0</ele><time>2026-04-15T14:01:28.093Z</time></trkpt><trkpt lat="45.7068573" lon="9.4512379"><ele>235.0</ele><time>2026-04-15T14:01:30.094Z</time></trkpt><trkpt lat="45.7068448" lon="9.4511453"><ele>235.7142857142857</ele><time>2026-04-15T14:01:32.094Z</time></trkpt><trkpt lat="45.706835" lon="9.4510517"><ele>236.4285714285714</ele><time>2026-04-15T14:01:34.093Z</time></trkpt><trkpt lat="45.706824" lon="9.4509504"><ele>237.14285714285714</ele><time>2026-04-15T14:01:36.093Z</time></trkpt><trkpt lat="45.70681" lon="9.4508443"><ele>237.85714285714283</ele><time>2026-04-15T14:01:38.093Z</time></trkpt><trkpt lat="45.7067969" lon="9.450736"><ele>238.57142857142856</ele><time>2026-04-15T14:01:40.093Z</time></trkpt><trkpt lat="45.7067859" lon="9.4506275"><ele>239.28571428571428</ele><time>2026-04-15T14:01:42.093Z</time></trkpt><trkpt lat="45.7067725" lon="9.4505218"><ele>240.0</ele><time>2026-04-15T14:01:44.094Z</time></trkpt><trkpt lat="45.7067631" lon="9.4504138"><ele>240.5</ele><time>2026-04-15T14:01:46.094Z</time></trkpt><trkpt lat="45.7067561" lon="9.4503042"><ele>241.0</ele><time>2026-04-15T14:01:48.094Z</time></trkpt><trkpt lat="45.7067497" lon="9.4501939"><ele>241.5</ele><time>2026-04-15T14:01:50.093Z</time></trkpt><trkpt lat="45.7067473" lon="9.4500769"><ele>242.0</ele><time>2026-04-15T14:01:52.093Z</time></trkpt><trkpt lat="45.706742" lon="9.4499594"><ele>242.5</ele><time>2026-04-15T14:01:54.093Z</time></trkpt><trkpt lat="45.7067422" lon="9.4498418"><ele>243.0</ele><time>2026-04-15T14:01:56.093Z</time></trkpt><trkpt lat="45.7067553" lon="9.4497282"><ele>243.0</ele><time>2026-04-15T14:01:58.094Z</time></trkpt><trkpt lat="45.7067871" lon="9.4496278"><ele>243.0</ele><time>2026-04-15T14:02:00.093Z</time></trkpt><trkpt lat="45.706837" lon="9.4495505"><ele>243.0</ele><time>2026-04-15T14:02:02.093Z</time></trkpt><trkpt lat="45.7069174" lon="9.4495005"><ele>243.0</ele><time>2026-04-15T14:02:04.093Z</time></trkpt><trkpt lat="45.7069839" lon="9.4494643"><ele>243.0</ele><time>2026-04-15T14:02:06.094Z</time></trkpt><trkpt lat="45.7070823" lon="9.4494361"><ele>243.0</ele><time>2026-04-15T14:02:08.093Z</time></trkpt><trkpt lat="45.7071909" lon="9.4494112"><ele>243.4</ele><time>2026-04-15T14:02:10.094Z</time></trkpt><trkpt lat="45.7072555" lon="9.4493889"><ele>243.8</ele><time>2026-04-15T14:02:11.093Z</time></trkpt><trkpt lat="45.7073609" lon="9.4493616"><ele>244.2</ele><time>2026-04-15T14:02:13.093Z</time></trkpt><trkpt lat="45.7074742" lon="9.4493392"><ele>244.6</ele><time>2026-04-15T14:02:15.093Z</time></trkpt><trkpt lat="45.7075956" lon="9.4493158"><ele>245.0</ele><time>2026-04-15T14:02:17.093Z</time></trkpt><trkpt lat="45.7077037" lon="9.4492889"><ele>244.8</ele><time>2026-04-15T14:02:19.093Z</time></trkpt><trkpt lat="45.7078191" lon="9.4492642"><ele>244.6</ele><time>2026-04-15T14:02:21.093Z</time></trkpt><trkpt lat="45.7079239" lon="9.4492291"><ele>244.39999999999998</ele><time>2026-04-15T14:02:23.093Z</time></trkpt><trkpt lat="45.7080472" lon="9.4492014"><ele>244.2</ele><time>2026-04-15T14:02:25.094Z</time></trkpt><trkpt lat="45.708116" lon="9.4491876"><ele>244.0</ele><time>2026-04-15T14:02:26.093Z</time></trkpt><trkpt lat="45.7082294" lon="9.4491543"><ele>244.0</ele><time>2026-04-15T14:02:28.093Z</time></trkpt><trkpt lat="45.7083545" lon="9.4491213"><ele>244.0</ele><time>2026-04-15T14:02:30.094Z</time></trkpt><trkpt lat="45.7084665" lon="9.4490952"><ele>244.0</ele><time>2026-04-15T14:02:32.094Z</time></trkpt><trkpt lat="45.7085924" lon="9.4490799"><ele>244.0</ele><time>2026-04-15T14:02:34.093Z</time></trkpt><trkpt lat="45.7087138" lon="9.4490495"><ele>243.79999999999998</ele><time>2026-04-15T14:02:36.093Z</time></trkpt><trkpt lat="45.7088469" lon="9.4490298"><ele>243.59999999999997</ele><time>2026-04-15T14:02:38.094Z</time></trkpt><trkpt lat="45.7089603" lon="9.4490105"><ele>243.4</ele><time>2026-04-15T14:02:40.093Z</time></trkpt><trkpt lat="45.7090286" lon="9.4489954"><ele>243.2</ele><time>2026-04-15T14:02:41.093Z</time></trkpt><trkpt lat="45.7091013" lon="9.4489854"><ele>243.0</ele><time>2026-04-15T14:02:42.093Z</time></trkpt><trkpt lat="45.7091714" lon="9.4489769"><ele>243.0</ele><time>2026-04-15T14:02:43.093Z</time></trkpt><trkpt lat="45.7092343" lon="9.4489646"><ele>243.0</ele><time>2026-04-15T14:02:44.093Z</time></trkpt><trkpt lat="45.709301" lon="9.448957"><ele>243.0</ele><time>2026-04-15T14:02:45.093Z</time></trkpt><trkpt lat="45.7093698" lon="9.4489526"><ele>243.0</ele><time>2026-04-15T14:02:46.093Z</time></trkpt><trkpt lat="45.7094959" lon="9.4489396"><ele>243.0</ele><time>2026-04-15T14:02:48.094Z</time></trkpt><trkpt lat="45.7096268" lon="9.4489216"><ele>243.33333333333334</ele><time>2026-04-15T14:02:50.093Z</time></trkpt><trkpt lat="45.7096928" lon="9.4489151"><ele>243.66666666666669</ele><time>2026-04-15T14:02:51.094Z</time></trkpt><trkpt lat="45.7097609" lon="9.4489066"><ele>244.0</ele><time>2026-04-15T14:02:52.093Z</time></trkpt><trkpt lat="45.7098225" lon="9.4488823"><ele>244.33333333333334</ele><time>2026-04-15T14:02:53.094Z</time></trkpt><trkpt lat="45.7098904" lon="9.4488709"><ele>244.66666666666669</ele><time>2026-04-15T14:02:54.093Z</time></trkpt><trkpt lat="45.7099516" lon="9.4488455"><ele>245.0</ele><time>2026-04-15T14:02:55.094Z</time></trkpt><trkpt lat="45.7100687" lon="9.448796"><ele>245.33333333333334</ele><time>2026-04-15T14:02:57.093Z</time></trkpt><trkpt lat="45.710138" lon="9.4487709"><ele>245.66666666666669</ele><time>2026-04-15T14:02:58.094Z</time></trkpt><trkpt lat="45.7102568" lon="9.44871"><ele>246.0</ele><time>2026-04-15T14:03:00.093Z</time></trkpt><trkpt lat="45.7103245" lon="9.4486737"><ele>246.33333333333331</ele><time>2026-04-15T14:03:01.094Z</time></trkpt><trkpt lat="45.7103812" lon="9.4486264"><ele>246.66666666666666</ele><time>2026-04-15T14:03:02.093Z</time></trkpt><trkpt lat="45.710443" lon="9.4485742"><ele>247.0</ele><time>2026-04-15T14:03:03.093Z</time></trkpt><trkpt lat="45.7104977" lon="9.4485272"><ele>246.99999999999997</ele><time>2026-04-15T14:03:04.093Z</time></trkpt><trkpt lat="45.7105482" lon="9.4484687"><ele>247.0</ele><time>2026-04-15T14:03:05.093Z</time></trkpt><trkpt lat="45.7106045" lon="9.4484202"><ele>247.0</ele><time>2026-04-15T14:03:06.094Z</time></trkpt><trkpt lat="45.7107148" lon="9.4483386"><ele>247.0</ele><time>2026-04-15T14:03:08.093Z</time></trkpt><trkpt lat="45.7107743" lon="9.4482971"><ele>246.99999999999997</ele><time>2026-04-15T14:03:09.094Z</time></trkpt><trkpt lat="45.710862" lon="9.4481962"><ele>247.0</ele><time>2026-04-15T14:03:11.093Z</time></trkpt><trkpt lat="45.7108518" lon="9.4480638"><ele>249.16666666666666</ele><time>2026-04-15T14:03:13.093Z</time></trkpt><trkpt lat="45.7108229" lon="9.4479315"><ele>251.33333333333331</ele><time>2026-04-15T14:03:15.093Z</time></trkpt><trkpt lat="45.7108107" lon="9.4478178"><ele>253.5</ele><time>2026-04-15T14:03:17.093Z</time></trkpt><trkpt lat="45.710838" lon="9.4477058"><ele>255.66666666666669</ele><time>2026-04-15T14:03:20.094Z</time></trkpt><trkpt lat="45.7108795" lon="9.4476135"><ele>257.83333333333337</ele><time>2026-04-15T14:03:24.094Z</time></trkpt><trkpt lat="45.7109313" lon="9.4475065"><ele>260.0</ele><time>2026-04-15T14:03:28.093Z</time></trkpt><trkpt lat="45.7109858" lon="9.4474395"><ele>260.00000000000006</ele><time>2026-04-15T14:03:32.093Z</time></trkpt><trkpt lat="45.7110284" lon="9.4473544"><ele>260.0</ele><time>2026-04-15T14:03:36.094Z</time></trkpt><trkpt lat="45.7110648" lon="9.4472782"><ele>260.0</ele><time>2026-04-15T14:03:39.093Z</time></trkpt><trkpt lat="45.7111208" lon="9.4472143"><ele>260.0</ele><time>2026-04-15T14:03:42.093Z</time></trkpt><trkpt lat="45.7111817" lon="9.4471475"><ele>260.0</ele><time>2026-04-15T14:03:45.093Z</time></trkpt><trkpt lat="45.7112389" lon="9.4470741"><ele>260.00000000000006</ele><time>2026-04-15T14:03:48.093Z</time></trkpt><trkpt lat="45.7112999" lon="9.4469993"><ele>260.0</ele><time>2026-04-15T14:03:51.093Z</time></trkpt><trkpt lat="45.7113559" lon="9.4469293"><ele>260.8571428571429</ele><time>2026-04-15T14:03:54.094Z</time></trkpt><trkpt lat="45.711418" lon="9.4468653"><ele>261.7142857142857</ele><time>2026-04-15T14:03:57.094Z</time></trkpt><trkpt lat="45.7114675" lon="9.4468065"><ele>262.57142857142856</ele><time>2026-04-15T14:04:00.093Z</time></trkpt><trkpt lat="45.7115235" lon="9.4467263"><ele>263.42857142857144</ele><time>2026-04-15T14:04:04.093Z</time></trkpt><trkpt lat="45.7115715" lon="9.4466571"><ele>264.2857142857143</ele><time>2026-04-15T14:04:07.093Z</time></trkpt><trkpt lat="45.711621" lon="9.4465942"><ele>265.14285714285717</ele><time>2026-04-15T14:04:10.093Z</time></trkpt><trkpt lat="45.7116752" lon="9.4465327"><ele>266.0</ele><time>2026-04-15T14:04:13.093Z</time></trkpt><trkpt lat="45.711733" lon="9.4464667"><ele>266.0</ele><time>2026-04-15T14:04:16.093Z</time></trkpt><trkpt lat="45.7117881" lon="9.4464035"><ele>266.0</ele><time>2026-04-15T14:04:19.094Z</time></trkpt><trkpt lat="45.7118519" lon="9.4463229"><ele>266.0</ele><time>2026-04-15T14:04:23.093Z</time></trkpt><trkpt lat="45.7119055" lon="9.4462638"><ele>266.0</ele><time>2026-04-15T14:04:26.093Z</time></trkpt><trkpt lat="45.7119568" lon="9.4461976"><ele>266.0</ele><time>2026-04-15T14:04:29.093Z</time></trkpt><trkpt lat="45.7120144" lon="9.4461326"><ele>266.0</ele><time>2026-04-15T14:04:32.093Z</time></trkpt><trkpt lat="45.7120672" lon="9.4460605"><ele>266.0</ele><time>2026-04-15T14:04:35.093Z</time></trkpt><trkpt lat="45.7121152" lon="9.4459988"><ele>266.5</ele><time>2026-04-15T14:04:38.093Z</time></trkpt><trkpt lat="45.712179" lon="9.445924"><ele>267.0</ele><time>2026-04-15T14:04:42.093Z</time></trkpt><trkpt lat="45.7122427" lon="9.4458396"><ele>267.5</ele><time>2026-04-15T14:04:46.093Z</time></trkpt><trkpt lat="45.7122928" lon="9.4457767"><ele>268.0</ele><time>2026-04-15T14:04:49.093Z</time></trkpt><trkpt lat="45.7123531" lon="9.445694"><ele>268.5</ele><time>2026-04-15T14:04:53.093Z</time></trkpt><trkpt lat="45.7124077" lon="9.4456188"><ele>269.0</ele><time>2026-04-15T14:04:56.093Z</time></trkpt><trkpt lat="45.7124593" lon="9.4455454"><ele>269.0</ele><time>2026-04-15T14:04:59.094Z</time></trkpt><trkpt lat="45.7125168" lon="9.4454739"><ele>269.0</ele><time>2026-04-15T14:05:02.094Z</time></trkpt><trkpt lat="45.7125659" lon="9.4454004"><ele>269.0</ele><time>2026-04-15T14:05:05.094Z</time></trkpt><trkpt lat="45.7126196" lon="9.4453346"><ele>269.0</ele><time>2026-04-15T14:05:08.094Z</time></trkpt><trkpt lat="45.7126757" lon="9.4452818"><ele>269.0</ele><time>2026-04-15T14:05:11.093Z</time></trkpt><trkpt lat="45.712743" lon="9.4452056"><ele>269.0</ele><time>2026-04-15T14:05:15.093Z</time></trkpt><trkpt lat="45.7127989" lon="9.4451394"><ele>269.0</ele><time>2026-04-15T14:05:18.094Z</time></trkpt><trkpt lat="45.7128528" lon="9.4450726"><ele>268.6666666666667</ele><time>2026-04-15T14:05:21.093Z</time></trkpt><trkpt lat="45.7129091" lon="9.4450043"><ele>268.33333333333337</ele><time>2026-04-15T14:05:24.093Z</time></trkpt><trkpt lat="45.7129637" lon="9.4449333"><ele>268.0</ele><time>2026-04-15T14:05:27.094Z</time></trkpt><trkpt lat="45.7130118" lon="9.4448474"><ele>267.6666666666667</ele><time>2026-04-15T14:05:30.094Z</time></trkpt><trkpt lat="45.7130538" lon="9.4447643"><ele>267.3333333333333</ele><time>2026-04-15T14:05:33.093Z</time></trkpt><trkpt lat="45.7130842" lon="9.4446698"><ele>267.0</ele><time>2026-04-15T14:05:36.093Z</time></trkpt><trkpt lat="45.7131334" lon="9.4445775"><ele>272.3333333333333</ele><time>2026-04-15T14:05:39.093Z</time></trkpt><trkpt lat="45.7131721" lon="9.4444866"><ele>277.6666666666667</ele><time>2026-04-15T14:05:42.093Z</time></trkpt><trkpt lat="45.7132014" lon="9.4443972"><ele>283.0</ele><time>2026-04-15T14:05:45.093Z</time></trkpt><trkpt lat="45.7132337" lon="9.4442976"><ele>288.33333333333337</ele><time>2026-04-15T14:05:48.093Z</time></trkpt><trkpt lat="45.7132785" lon="9.4441888"><ele>293.6666666666667</ele><time>2026-04-15T14:05:51.093Z</time></trkpt><trkpt lat="45.7133206" lon="9.4441054"><ele>299.0</ele><time>2026-04-15T14:05:54.094Z</time></trkpt><trkpt lat="45.7133696" lon="9.4440073"><ele>299.0</ele><time>2026-04-15T14:05:57.093Z</time></trkpt><trkpt lat="45.7134165" lon="9.4439206"><ele>299.0</ele><time>2026-04-15T14:06:00.094Z</time></trkpt><trkpt lat="45.7134722" lon="9.443844"><ele>299.0</ele><time>2026-04-15T14:06:03.094Z</time></trkpt><trkpt lat="45.7135179" lon="9.44376"><ele>299.0</ele><time>2026-04-15T14:06:06.093Z</time></trkpt><trkpt lat="45.7135783" lon="9.4436602"><ele>299.0</ele><time>2026-04-15T14:06:09.093Z</time></trkpt><trkpt lat="45.7136351" lon="9.4435643"><ele>299.0</ele><time>2026-04-15T14:06:12.094Z</time></trkpt><trkpt lat="45.7136851" lon="9.4434607"><ele>297.5</ele><time>2026-04-15T14:06:15.093Z</time></trkpt><trkpt lat="45.7137391" lon="9.4433511"><ele>296.0</ele><time>2026-04-15T14:06:18.093Z</time></trkpt><trkpt lat="45.7137908" lon="9.4432303"><ele>294.5</ele><time>2026-04-15T14:06:21.093Z</time></trkpt><trkpt lat="45.7138224" lon="9.4431329"><ele>293.0</ele><time>2026-04-15T14:06:23.093Z</time></trkpt><trkpt lat="45.7138371" lon="9.4430326"><ele>291.5</ele><time>2026-04-15T14:06:25.093Z</time></trkpt><trkpt lat="45.7138513" lon="9.4429293"><ele>290.0</ele><time>2026-04-15T14:06:27.093Z</time></trkpt><trkpt lat="45.7138685" lon="9.4428271"><ele>293.0</ele><time>2026-04-15T14:06:29.094Z</time></trkpt><trkpt lat="45.7138809" lon="9.4427181"><ele>296.0</ele><time>2026-04-15T14:06:31.093Z</time></trkpt><trkpt lat="45.7138953" lon="9.442603"><ele>299.0</ele><time>2026-04-15T14:06:33.093Z</time></trkpt><trkpt lat="45.7139146" lon="9.4425157"><ele>302.0</ele><time>2026-04-15T14:06:35.093Z</time></trkpt><trkpt lat="45.7139453" lon="9.4424333"><ele>305.0</ele><time>2026-04-15T14:06:37.093Z</time></trkpt><trkpt lat="45.714003" lon="9.4423639"><ele>308.0</ele><time>2026-04-15T14:06:39.093Z</time></trkpt><trkpt lat="45.7141101" lon="9.442369"><ele>308.0</ele><time>2026-04-15T14:06:41.094Z</time></trkpt><trkpt lat="45.7141974" lon="9.4424127"><ele>308.0</ele><time>2026-04-15T14:06:42.093Z</time></trkpt><trkpt lat="45.7143864" lon="9.4424012"><ele>308.0</ele><time>2026-04-15T14:06:48.094Z</time></trkpt><trkpt lat="45.7144557" lon="9.4423599"><ele>308.0</ele><time>2026-04-15T14:06:50.093Z</time></trkpt><trkpt lat="45.7145298" lon="9.4423159"><ele>308.0</ele><time>2026-04-15T14:06:52.094Z</time></trkpt><trkpt lat="45.7145995" lon="9.4422759"><ele>308.6666666666667</ele><time>2026-04-15T14:06:54.093Z</time></trkpt><trkpt lat="45.7146671" lon="9.4422298"><ele>309.33333333333337</ele><time>2026-04-15T14:06:56.093Z</time></trkpt><trkpt lat="45.7147324" lon="9.4421779"><ele>310.0</ele><time>2026-04-15T14:06:58.093Z</time></trkpt><trkpt lat="45.7148015" lon="9.4421197"><ele>310.6666666666667</ele><time>2026-04-15T14:07:00.093Z</time></trkpt><trkpt lat="45.714869" lon="9.4420611"><ele>311.3333333333333</ele><time>2026-04-15T14:07:02.094Z</time></trkpt><trkpt lat="45.7149336" lon="9.4420019"><ele>312.0</ele><time>2026-04-15T14:07:04.093Z</time></trkpt><trkpt lat="45.7149922" lon="9.4419414"><ele>312.0</ele><time>2026-04-15T14:07:06.093Z</time></trkpt><trkpt lat="45.7150563" lon="9.4418836"><ele>312.0</ele><time>2026-04-15T14:07:08.093Z</time></trkpt><trkpt lat="45.7151223" lon="9.4418266"><ele>312.0</ele><time>2026-04-15T14:07:10.093Z</time></trkpt><trkpt lat="45.7151835" lon="9.4417684"><ele>312.0</ele><time>2026-04-15T14:07:12.093Z</time></trkpt><trkpt lat="45.7152515" lon="9.4417159"><ele>312.0</ele><time>2026-04-15T14:07:14.093Z</time></trkpt><trkpt lat="45.7153177" lon="9.4416559"><ele>312.0</ele><time>2026-04-15T14:07:16.093Z</time></trkpt><trkpt lat="45.7153834" lon="9.4415994"><ele>311.1666666666667</ele><time>2026-04-15T14:07:18.093Z</time></trkpt><trkpt lat="45.7154481" lon="9.4415414"><ele>310.3333333333333</ele><time>2026-04-15T14:07:20.094Z</time></trkpt><trkpt lat="45.715513" lon="9.4414866"><ele>309.5</ele><time>2026-04-15T14:07:22.093Z</time></trkpt><trkpt lat="45.7155677" lon="9.4414384"><ele>308.66666666666663</ele><time>2026-04-15T14:07:24.093Z</time></trkpt><trkpt lat="45.715622" lon="9.4413861"><ele>307.8333333333333</ele><time>2026-04-15T14:07:26.093Z</time></trkpt><trkpt lat="45.7157031" lon="9.4413161"><ele>307.0</ele><time>2026-04-15T14:07:29.093Z</time></trkpt><trkpt lat="45.7157679" lon="9.4412656"><ele>307.99999999999994</ele><time>2026-04-15T14:07:31.093Z</time></trkpt><trkpt lat="45.7158276" lon="9.4412192"><ele>309.0</ele><time>2026-04-15T14:07:33.094Z</time></trkpt><trkpt lat="45.7158901" lon="9.44117"><ele>310.0</ele><time>2026-04-15T14:07:35.093Z</time></trkpt><trkpt lat="45.7159557" lon="9.441118"><ele>311.0</ele><time>2026-04-15T14:07:37.093Z</time></trkpt><trkpt lat="45.7160174" lon="9.441073"><ele>312.0</ele><time>2026-04-15T14:07:39.093Z</time></trkpt><trkpt lat="45.7160807" lon="9.4410205"><ele>312.99999999999994</ele><time>2026-04-15T14:07:41.093Z</time></trkpt><trkpt lat="45.7161499" lon="9.4409555"><ele>314.0</ele><time>2026-04-15T14:07:43.094Z</time></trkpt><trkpt lat="45.7162157" lon="9.4408979"><ele>313.99999999999994</ele><time>2026-04-15T14:07:45.094Z</time></trkpt><trkpt lat="45.7162779" lon="9.440838"><ele>314.0</ele><time>2026-04-15T14:07:47.093Z</time></trkpt><trkpt lat="45.7163435" lon="9.4407811"><ele>314.0</ele><time>2026-04-15T14:07:49.093Z</time></trkpt><trkpt lat="45.7164014" lon="9.4407316"><ele>314.0</ele><time>2026-04-15T14:07:51.093Z</time></trkpt><trkpt lat="45.7164538" lon="9.4406782"><ele>314.0</ele><time>2026-04-15T14:07:53.093Z</time></trkpt><trkpt lat="45.7165138" lon="9.4406277"><ele>313.99999999999994</ele><time>2026-04-15T14:07:55.093Z</time></trkpt><trkpt lat="45.7165917" lon="9.4405526"><ele>314.0</ele><time>2026-04-15T14:07:58.094Z</time></trkpt><trkpt lat="45.7166556" lon="9.4405078"><ele>314.83333333333337</ele><time>2026-04-15T14:08:00.093Z</time></trkpt><trkpt lat="45.7167155" lon="9.4404639"><ele>315.6666666666667</ele><time>2026-04-15T14:08:02.093Z</time></trkpt><trkpt lat="45.7167882" lon="9.4403891"><ele>316.5</ele><time>2026-04-15T14:08:05.093Z</time></trkpt><trkpt lat="45.7168561" lon="9.4403057"><ele>317.3333333333333</ele><time>2026-04-15T14:08:08.093Z</time></trkpt><trkpt lat="45.7169148" lon="9.4402727"><ele>318.16666666666663</ele><time>2026-04-15T14:08:09.093Z</time></trkpt><trkpt lat="45.7169603" lon="9.4402014"><ele>319.0</ele><time>2026-04-15T14:08:12.094Z</time></trkpt><trkpt lat="45.717021" lon="9.4401335"><ele>319.0</ele><time>2026-04-15T14:08:15.093Z</time></trkpt><trkpt lat="45.7170713" lon="9.4400628"><ele>319.0</ele><time>2026-04-15T14:08:18.093Z</time></trkpt><trkpt lat="45.7171164" lon="9.4399828"><ele>319.0</ele><time>2026-04-15T14:08:21.093Z</time></trkpt><trkpt lat="45.7171704" lon="9.4399063"><ele>319.0</ele><time>2026-04-15T14:08:24.093Z</time></trkpt><trkpt lat="45.7172263" lon="9.4398287"><ele>319.0</ele><time>2026-04-15T14:08:29.093Z</time></trkpt><trkpt lat="45.7172795" lon="9.4397501"><ele>319.0</ele><time>2026-04-15T14:08:32.095Z</time></trkpt><trkpt lat="45.7173392" lon="9.439659"><ele>321.2857142857143</ele><time>2026-04-15T14:08:35.093Z</time></trkpt><trkpt lat="45.7173815" lon="9.4395895"><ele>323.57142857142856</ele><time>2026-04-15T14:08:37.093Z</time></trkpt><trkpt lat="45.7174234" lon="9.4395154"><ele>325.85714285714283</ele><time>2026-04-15T14:08:39.101Z</time></trkpt><trkpt lat="45.7174683" lon="9.439426"><ele>328.1428571428571</ele><time>2026-04-15T14:08:41.093Z</time></trkpt><trkpt lat="45.7175121" lon="9.4393589"><ele>330.42857142857144</ele><time>2026-04-15T14:08:43.07Z</time></trkpt><trkpt lat="45.717558" lon="9.4392889"><ele>332.71428571428567</ele><time>2026-04-15T14:08:45.106Z</time></trkpt><trkpt lat="45.7176115" lon="9.4392192"><ele>335.0</ele><time>2026-04-15T14:08:47.093Z</time></trkpt><trkpt lat="45.7176809" lon="9.4391205"><ele>335.0</ele><time>2026-04-15T14:08:50.094Z</time></trkpt><trkpt lat="45.7177311" lon="9.4390514"><ele>335.0</ele><time>2026-04-15T14:08:52.044Z</time></trkpt><trkpt lat="45.7177872" lon="9.4389617"><ele>335.0</ele><time>2026-04-15T14:08:54.093Z</time></trkpt><trkpt lat="45.717835" lon="9.4388768"><ele>335.0</ele><time>2026-04-15T14:08:56.094Z</time></trkpt><trkpt lat="45.7178845" lon="9.438794"><ele>335.0</ele><time>2026-04-15T14:08:58.093Z</time></trkpt><trkpt lat="45.7179253" lon="9.4387046"><ele>335.0</ele><time>2026-04-15T14:09:00.093Z</time></trkpt><trkpt lat="45.717958" lon="9.4386095"><ele>333.99999999999994</ele><time>2026-04-15T14:09:02.093Z</time></trkpt><trkpt lat="45.7179797" lon="9.4385142"><ele>333.0</ele><time>2026-04-15T14:09:04.093Z</time></trkpt><trkpt lat="45.7180026" lon="9.4384099"><ele>332.0</ele><time>2026-04-15T14:09:06.094Z</time></trkpt><trkpt lat="45.7180055" lon="9.4383181"><ele>331.0</ele><time>2026-04-15T14:09:08.094Z</time></trkpt><trkpt lat="45.718" lon="9.4382202"><ele>330.0</ele><time>2026-04-15T14:09:10.094Z</time></trkpt><trkpt lat="45.7179875" lon="9.4381154"><ele>328.99999999999994</ele><time>2026-04-15T14:09:12.093Z</time></trkpt><trkpt lat="45.7179855" lon="9.4379815"><ele>328.0</ele><time>2026-04-15T14:09:14.093Z</time></trkpt><trkpt lat="45.7180011" lon="9.4378288"><ele>328.0</ele><time>2026-04-15T14:09:16.093Z</time></trkpt><trkpt lat="45.718011" lon="9.4376964"><ele>328.0</ele><time>2026-04-15T14:09:18.094Z</time></trkpt><trkpt lat="45.7180226" lon="9.4375701"><ele>328.0</ele><time>2026-04-15T14:09:20.094Z</time></trkpt><trkpt lat="45.7180382" lon="9.4374177"><ele>328.0</ele><time>2026-04-15T14:09:22.093Z</time></trkpt><trkpt lat="45.7180496" lon="9.4372751"><ele>328.0</ele><time>2026-04-15T14:09:24.093Z</time></trkpt><trkpt lat="45.7180306" lon="9.4371129"><ele>327.59999999999997</ele><time>2026-04-15T14:09:26.093Z</time></trkpt><trkpt lat="45.7179826" lon="9.4369627"><ele>327.2</ele><time>2026-04-15T14:09:28.094Z</time></trkpt><trkpt lat="45.7179476" lon="9.4368785"><ele>326.8</ele><time>2026-04-15T14:09:29.093Z</time></trkpt><trkpt lat="45.7178725" lon="9.4367518"><ele>326.4</ele><time>2026-04-15T14:09:31.093Z</time></trkpt><trkpt lat="45.7178212" lon="9.4366841"><ele>326.0</ele><time>2026-04-15T14:09:32.093Z</time></trkpt><trkpt lat="45.7177334" lon="9.4365612"><ele>327.0</ele><time>2026-04-15T14:09:34.093Z</time></trkpt><trkpt lat="45.7176831" lon="9.4364809"><ele>328.0</ele><time>2026-04-15T14:09:35.093Z</time></trkpt><trkpt lat="45.7176376" lon="9.4364047"><ele>329.0</ele><time>2026-04-15T14:09:36.093Z</time></trkpt><trkpt lat="45.717585" lon="9.43634"><ele>330.0</ele><time>2026-04-15T14:09:37.093Z</time></trkpt><trkpt lat="45.7175361" lon="9.4362794"><ele>331.0</ele><time>2026-04-15T14:09:38.093Z</time></trkpt><trkpt lat="45.7174879" lon="9.4362108"><ele>332.0</ele><time>2026-04-15T14:09:39.094Z</time></trkpt><trkpt lat="45.7174129" lon="9.4360843"><ele>332.0</ele><time>2026-04-15T14:09:41.093Z</time></trkpt><trkpt lat="45.7173624" lon="9.4359353"><ele>332.0</ele><time>2026-04-15T14:09:43.093Z</time></trkpt><trkpt lat="45.7173485" lon="9.4358411"><ele>332.0</ele><time>2026-04-15T14:09:44.093Z</time></trkpt><trkpt lat="45.7173361" lon="9.4356818"><ele>332.0</ele><time>2026-04-15T14:09:46.093Z</time></trkpt><trkpt lat="45.7173653" lon="9.4355064"><ele>332.0</ele><time>2026-04-15T14:09:48.094Z</time></trkpt><trkpt lat="45.7173709" lon="9.435413"><ele>331.8</ele><time>2026-04-15T14:09:49.093Z</time></trkpt><trkpt lat="45.7173784" lon="9.4353133"><ele>331.6</ele><time>2026-04-15T14:09:50.093Z</time></trkpt><trkpt lat="45.7174305" lon="9.4351464"><ele>331.40000000000003</ele><time>2026-04-15T14:09:52.093Z</time></trkpt><trkpt lat="45.7174574" lon="9.4350578"><ele>331.20000000000005</ele><time>2026-04-15T14:09:53.094Z</time></trkpt><trkpt lat="45.7174769" lon="9.434893"><ele>331.0</ele><time>2026-04-15T14:09:55.093Z</time></trkpt><trkpt lat="45.7174907" lon="9.4347468"><ele>331.4</ele><time>2026-04-15T14:09:57.094Z</time></trkpt><trkpt lat="45.7174917" lon="9.4345809"><ele>331.8</ele><time>2026-04-15T14:09:59.093Z</time></trkpt><trkpt lat="45.7175034" lon="9.4344895"><ele>332.2</ele><time>2026-04-15T14:10:00.094Z</time></trkpt><trkpt lat="45.7175218" lon="9.4344003"><ele>332.59999999999997</ele><time>2026-04-15T14:10:01.094Z</time></trkpt><trkpt lat="45.7176073" lon="9.4342699"><ele>333.0</ele><time>2026-04-15T14:10:03.093Z</time></trkpt><trkpt lat="45.7177014" lon="9.4341607"><ele>333.0</ele><time>2026-04-15T14:10:05.094Z</time></trkpt><trkpt lat="45.7177821" lon="9.4340316"><ele>333.0</ele><time>2026-04-15T14:10:07.094Z</time></trkpt><trkpt lat="45.7178229" lon="9.4338921"><ele>333.0</ele><time>2026-04-15T14:10:09.094Z</time></trkpt><trkpt lat="45.7178517" lon="9.4337434"><ele>333.0</ele><time>2026-04-15T14:10:11.093Z</time></trkpt><trkpt lat="45.7178784" lon="9.4336006"><ele>333.0</ele><time>2026-04-15T14:10:13.093Z</time></trkpt><trkpt lat="45.7178942" lon="9.4334426"><ele>333.0</ele><time>2026-04-15T14:10:15.093Z</time></trkpt><trkpt lat="45.7178891" lon="9.4333034"><ele>333.0</ele><time>2026-04-15T14:10:17.094Z</time></trkpt><trkpt lat="45.7178701" lon="9.4331852"><ele>333.0</ele><time>2026-04-15T14:10:19.094Z</time></trkpt><trkpt lat="45.7178666" lon="9.4330593"><ele>333.0</ele><time>2026-04-15T14:10:21.094Z</time></trkpt><trkpt lat="45.7179908" lon="9.4329971"><ele>333.0</ele><time>2026-04-15T14:10:24.094Z</time></trkpt><trkpt lat="45.7180914" lon="9.4329993"><ele>333.0</ele><time>2026-04-15T14:10:26.093Z</time></trkpt><trkpt lat="45.7181892" lon="9.4330103"><ele>333.0</ele><time>2026-04-15T14:10:28.093Z</time></trkpt><trkpt lat="45.7182969" lon="9.4330505"><ele>333.0</ele><time>2026-04-15T14:10:30.093Z</time></trkpt><trkpt lat="45.7183073" lon="9.4328931"><ele>333.0</ele><time>2026-04-15T14:10:33.093Z</time></trkpt><trkpt lat="45.7183124" lon="9.432731"><ele>333.0</ele><time>2026-04-15T14:10:35.093Z</time></trkpt><trkpt lat="45.7182733" lon="9.432566"><ele>332.0</ele><time>2026-04-15T14:10:37.094Z</time></trkpt><trkpt lat="45.7182662" lon="9.4324576"><ele>331.0</ele><time>2026-04-15T14:10:38.094Z</time></trkpt><trkpt lat="45.7182295" lon="9.4323645"><ele>330.0</ele><time>2026-04-15T14:10:39.093Z</time></trkpt><trkpt lat="45.7181939" lon="9.4322791"><ele>329.0</ele><time>2026-04-15T14:10:40.093Z</time></trkpt><trkpt lat="45.7181535" lon="9.432196"><ele>328.0</ele><time>2026-04-15T14:10:41.093Z</time></trkpt><trkpt lat="45.7181107" lon="9.4320961"><ele>327.0</ele><time>2026-04-15T14:10:42.093Z</time></trkpt><trkpt lat="45.7180741" lon="9.4319834"><ele>326.1666666666667</ele><time>2026-04-15T14:10:43.093Z</time></trkpt><trkpt lat="45.7180455" lon="9.4318849"><ele>325.3333333333333</ele><time>2026-04-15T14:10:44.093Z</time></trkpt><trkpt lat="45.7180153" lon="9.431782"><ele>324.5</ele><time>2026-04-15T14:10:45.094Z</time></trkpt><trkpt lat="45.7179871" lon="9.4316833"><ele>323.66666666666663</ele><time>2026-04-15T14:10:46.093Z</time></trkpt><trkpt lat="45.7179489" lon="9.4315819"><ele>322.8333333333333</ele><time>2026-04-15T14:10:47.094Z</time></trkpt><trkpt lat="45.7179094" lon="9.4314866"><ele>322.0</ele><time>2026-04-15T14:10:48.093Z</time></trkpt><trkpt lat="45.717867" lon="9.4313836"><ele>322.0</ele><time>2026-04-15T14:10:49.093Z</time></trkpt><trkpt lat="45.7178308" lon="9.4313041"><ele>322.0</ele><time>2026-04-15T14:10:50.093Z</time></trkpt><trkpt lat="45.717788" lon="9.431224"><ele>322.0</ele><time>2026-04-15T14:10:51.093Z</time></trkpt><trkpt lat="45.7177483" lon="9.4311488"><ele>322.0</ele><time>2026-04-15T14:10:52.094Z</time></trkpt><trkpt lat="45.7176982" lon="9.4310902"><ele>322.0</ele><time>2026-04-15T14:10:53.093Z</time></trkpt><trkpt lat="45.7176406" lon="9.4310492"><ele>322.0</ele><time>2026-04-15T14:10:54.094Z</time></trkpt><trkpt lat="45.7175726" lon="9.4310031"><ele>322.0</ele><time>2026-04-15T14:10:55.093Z</time></trkpt><trkpt lat="45.7174933" lon="9.4310026"><ele>322.0</ele><time>2026-04-15T14:10:56.093Z</time></trkpt><trkpt lat="45.7174302" lon="9.430999"><ele>322.0</ele><time>2026-04-15T14:10:57.093Z</time></trkpt><trkpt lat="45.7172875" lon="9.431014"><ele>322.0</ele><time>2026-04-15T14:10:59.093Z</time></trkpt><trkpt lat="45.7172105" lon="9.4310138"><ele>322.0</ele><time>2026-04-15T14:11:00.093Z</time></trkpt><trkpt lat="45.7171385" lon="9.4310067"><ele>322.0</ele><time>2026-04-15T14:11:01.093Z</time></trkpt><trkpt lat="45.7170296" lon="9.4310456"><ele>322.0</ele><time>2026-04-15T14:11:03.094Z</time></trkpt><trkpt lat="45.7169561" lon="9.4310797"><ele>322.0</ele><time>2026-04-15T14:11:04.093Z</time></trkpt><trkpt lat="45.7169013" lon="9.4311298"><ele>322.0</ele><time>2026-04-15T14:11:05.093Z</time></trkpt><trkpt lat="45.7167792" lon="9.4311741"><ele>322.0</ele><time>2026-04-15T14:11:07.093Z</time></trkpt><trkpt lat="45.716694" lon="9.4312183"><ele>322.0</ele><time>2026-04-15T14:11:08.094Z</time></trkpt><trkpt lat="45.7166293" lon="9.4312745"><ele>322.0</ele><time>2026-04-15T14:11:09.093Z</time></trkpt><trkpt lat="45.7165629" lon="9.4313066"><ele>321.8333333333333</ele><time>2026-04-15T14:11:10.093Z</time></trkpt><trkpt lat="45.7164853" lon="9.431337"><ele>321.66666666666663</ele><time>2026-04-15T14:11:11.093Z</time></trkpt><trkpt lat="45.7164099" lon="9.4313449"><ele>321.5</ele><time>2026-04-15T14:11:12.093Z</time></trkpt><trkpt lat="45.7163292" lon="9.4313899"><ele>321.3333333333333</ele><time>2026-04-15T14:11:13.093Z</time></trkpt><trkpt lat="45.7162555" lon="9.4314216"><ele>321.1666666666667</ele><time>2026-04-15T14:11:14.093Z</time></trkpt><trkpt lat="45.7161532" lon="9.4314507"><ele>321.0</ele><time>2026-04-15T14:11:15.093Z</time></trkpt><trkpt lat="45.7160899" lon="9.4315053"><ele>321.1666666666667</ele><time>2026-04-15T14:11:16.093Z</time></trkpt><trkpt lat="45.7160132" lon="9.4315364"><ele>321.3333333333333</ele><time>2026-04-15T14:11:17.093Z</time></trkpt><trkpt lat="45.7159528" lon="9.431565"><ele>321.5</ele><time>2026-04-15T14:11:18.094Z</time></trkpt><trkpt lat="45.7158837" lon="9.4315906"><ele>321.66666666666663</ele><time>2026-04-15T14:11:19.093Z</time></trkpt><trkpt lat="45.7158055" lon="9.4316093"><ele>321.8333333333333</ele><time>2026-04-15T14:11:20.093Z</time></trkpt><trkpt lat="45.7156818" lon="9.4316796"><ele>322.0</ele><time>2026-04-15T14:11:22.094Z</time></trkpt><trkpt lat="45.7155891" lon="9.431718"><ele>322.0</ele><time>2026-04-15T14:11:23.093Z</time></trkpt><trkpt lat="45.7155207" lon="9.4317519"><ele>322.0</ele><time>2026-04-15T14:11:24.093Z</time></trkpt><trkpt lat="45.7154552" lon="9.4317893"><ele>322.0</ele><time>2026-04-15T14:11:25.093Z</time></trkpt><trkpt lat="45.7153663" lon="9.4318163"><ele>322.0</ele><time>2026-04-15T14:11:26.094Z</time></trkpt><trkpt lat="45.7152935" lon="9.4318449"><ele>322.0</ele><time>2026-04-15T14:11:27.094Z</time></trkpt><trkpt lat="45.715218" lon="9.4318702"><ele>322.0</ele><time>2026-04-15T14:11:28.093Z</time></trkpt><trkpt lat="45.7151268" lon="9.4318904"><ele>322.3333333333333</ele><time>2026-04-15T14:11:29.094Z</time></trkpt><trkpt lat="45.7150495" lon="9.4318904"><ele>322.66666666666663</ele><time>2026-04-15T14:11:30.093Z</time></trkpt><trkpt lat="45.7149647" lon="9.4318813"><ele>323.0</ele><time>2026-04-15T14:11:31.093Z</time></trkpt><trkpt lat="45.7148848" lon="9.431855"><ele>323.3333333333333</ele><time>2026-04-15T14:11:32.093Z</time></trkpt><trkpt lat="45.7147999" lon="9.4318206"><ele>323.6666666666667</ele><time>2026-04-15T14:11:33.093Z</time></trkpt><trkpt lat="45.714714" lon="9.4317821"><ele>324.0</ele><time>2026-04-15T14:11:34.094Z</time></trkpt><trkpt lat="45.7146275" lon="9.4317384"><ele>324.0</ele><time>2026-04-15T14:11:35.093Z</time></trkpt><trkpt lat="45.7145492" lon="9.4316964"><ele>324.0</ele><time>2026-04-15T14:11:36.093Z</time></trkpt><trkpt lat="45.7144851" lon="9.4316517"><ele>324.0</ele><time>2026-04-15T14:11:37.093Z</time></trkpt><trkpt lat="45.7144107" lon="9.4316129"><ele>324.0</ele><time>2026-04-15T14:11:38.093Z</time></trkpt><trkpt lat="45.7143353" lon="9.431578"><ele>324.0</ele><time>2026-04-15T14:11:39.093Z</time></trkpt><trkpt lat="45.7142628" lon="9.4315513"><ele>324.0</ele><time>2026-04-15T14:11:40.093Z</time></trkpt><trkpt lat="45.7141775" lon="9.431525"><ele>323.5</ele><time>2026-04-15T14:11:41.094Z</time></trkpt><trkpt lat="45.7141053" lon="9.431513"><ele>323.0</ele><time>2026-04-15T14:11:42.093Z</time></trkpt><trkpt lat="45.7140241" lon="9.4315148"><ele>322.5</ele><time>2026-04-15T14:11:43.093Z</time></trkpt><trkpt lat="45.7139517" lon="9.4315124"><ele>322.0</ele><time>2026-04-15T14:11:44.093Z</time></trkpt><trkpt lat="45.7138754" lon="9.4315146"><ele>321.5</ele><time>2026-04-15T14:11:45.093Z</time></trkpt><trkpt lat="45.7138011" lon="9.4315291"><ele>321.0</ele><time>2026-04-15T14:11:46.093Z</time></trkpt><trkpt lat="45.7136605" lon="9.4315263"><ele>321.0</ele><time>2026-04-15T14:11:48.093Z</time></trkpt><trkpt lat="45.7135792" lon="9.4315432"><ele>321.0</ele><time>2026-04-15T14:11:49.093Z</time></trkpt><trkpt lat="45.7134942" lon="9.4315577"><ele>321.0</ele><time>2026-04-15T14:11:50.094Z</time></trkpt><trkpt lat="45.7134099" lon="9.4315773"><ele>321.0</ele><time>2026-04-15T14:11:51.093Z</time></trkpt><trkpt lat="45.7133323" lon="9.4315946"><ele>321.0</ele><time>2026-04-15T14:11:52.093Z</time></trkpt><trkpt lat="45.713258" lon="9.4315981"><ele>321.0</ele><time>2026-04-15T14:11:53.093Z</time></trkpt><trkpt lat="45.7131798" lon="9.4315933"><ele>321.2857142857143</ele><time>2026-04-15T14:11:54.094Z</time></trkpt><trkpt lat="45.7131055" lon="9.4315895"><ele>321.57142857142856</ele><time>2026-04-15T14:11:55.092Z</time></trkpt><trkpt lat="45.7130312" lon="9.4315949"><ele>321.8571428571429</ele><time>2026-04-15T14:11:56.093Z</time></trkpt><trkpt lat="45.7129586" lon="9.4316067"><ele>322.1428571428571</ele><time>2026-04-15T14:11:57.093Z</time></trkpt><trkpt lat="45.7128867" lon="9.4316171"><ele>322.42857142857144</ele><time>2026-04-15T14:11:58.093Z</time></trkpt><trkpt lat="45.7128177" lon="9.4316218"><ele>322.7142857142857</ele><time>2026-04-15T14:11:59.093Z</time></trkpt><trkpt lat="45.712746" lon="9.4316267"><ele>323.0</ele><time>2026-04-15T14:12:00.093Z</time></trkpt><trkpt lat="45.7126517" lon="9.4316344"><ele>323.14285714285717</ele><time>2026-04-15T14:12:01.093Z</time></trkpt><trkpt lat="45.7125867" lon="9.4316469"><ele>323.2857142857143</ele><time>2026-04-15T14:12:02.094Z</time></trkpt><trkpt lat="45.7125128" lon="9.4316624"><ele>323.42857142857144</ele><time>2026-04-15T14:12:03.094Z</time></trkpt><trkpt lat="45.712442" lon="9.4316758"><ele>323.57142857142856</ele><time>2026-04-15T14:12:04.094Z</time></trkpt><trkpt lat="45.712371" lon="9.431681"><ele>323.7142857142857</ele><time>2026-04-15T14:12:05.094Z</time></trkpt><trkpt lat="45.7122883" lon="9.4316776"><ele>323.8571428571429</ele><time>2026-04-15T14:12:06.093Z</time></trkpt><trkpt lat="45.712216" lon="9.4316845"><ele>324.0</ele><time>2026-04-15T14:12:07.093Z</time></trkpt><trkpt lat="45.7121383" lon="9.4316934"><ele>324.0</ele><time>2026-04-15T14:12:08.093Z</time></trkpt><trkpt lat="45.7120668" lon="9.431696"><ele>324.0</ele><time>2026-04-15T14:12:09.094Z</time></trkpt><trkpt lat="45.7119958" lon="9.4317067"><ele>324.0</ele><time>2026-04-15T14:12:10.093Z</time></trkpt><trkpt lat="45.7119212" lon="9.4317171"><ele>324.0</ele><time>2026-04-15T14:12:11.093Z</time></trkpt><trkpt lat="45.711844" lon="9.4317102"><ele>324.0</ele><time>2026-04-15T14:12:12.093Z</time></trkpt><trkpt lat="45.7117687" lon="9.4317209"><ele>324.0</ele><time>2026-04-15T14:12:13.093Z</time></trkpt><trkpt lat="45.7116977" lon="9.4317193"><ele>324.0</ele><time>2026-04-15T14:12:14.093Z</time></trkpt><trkpt lat="45.7116183" lon="9.4317268"><ele>324.0</ele><time>2026-04-15T14:12:15.093Z</time></trkpt><trkpt lat="45.7115398" lon="9.4317378"><ele>324.0</ele><time>2026-04-15T14:12:16.094Z</time></trkpt><trkpt lat="45.711466" lon="9.4317455"><ele>324.0</ele><time>2026-04-15T14:12:17.093Z</time></trkpt><trkpt lat="45.7113887" lon="9.4317548"><ele>324.0</ele><time>2026-04-15T14:12:18.093Z</time></trkpt><trkpt lat="45.7113141" lon="9.4317535"><ele>324.0</ele><time>2026-04-15T14:12:19.094Z</time></trkpt><trkpt lat="45.7112363" lon="9.431757"><ele>324.0</ele><time>2026-04-15T14:12:20.094Z</time></trkpt><trkpt lat="45.7111567" lon="9.431758"><ele>323.6666666666667</ele><time>2026-04-15T14:12:21.093Z</time></trkpt><trkpt lat="45.7110728" lon="9.4317701"><ele>323.3333333333333</ele><time>2026-04-15T14:12:22.094Z</time></trkpt><trkpt lat="45.7109909" lon="9.4317797"><ele>323.0</ele><time>2026-04-15T14:12:23.094Z</time></trkpt><trkpt lat="45.7109135" lon="9.4317812"><ele>322.66666666666663</ele><time>2026-04-15T14:12:24.093Z</time></trkpt><trkpt lat="45.7108371" lon="9.4317852"><ele>322.3333333333333</ele><time>2026-04-15T14:12:25.093Z</time></trkpt><trkpt lat="45.7107641" lon="9.4317842"><ele>322.0</ele><time>2026-04-15T14:12:26.093Z</time></trkpt><trkpt lat="45.7106933" lon="9.4318002"><ele>322.0</ele><time>2026-04-15T14:12:27.093Z</time></trkpt><trkpt lat="45.7106218" lon="9.4317885"><ele>322.0</ele><time>2026-04-15T14:12:28.093Z</time></trkpt><trkpt lat="45.7105515" lon="9.4317733"><ele>322.0</ele><time>2026-04-15T14:12:29.094Z</time></trkpt><trkpt lat="45.710476" lon="9.4317516"><ele>322.0</ele><time>2026-04-15T14:12:30.093Z</time></trkpt><trkpt lat="45.7104027" lon="9.4317291"><ele>322.0</ele><time>2026-04-15T14:12:31.093Z</time></trkpt><trkpt lat="45.7103258" lon="9.4317013"><ele>322.0</ele><time>2026-04-15T14:12:32.094Z</time></trkpt><trkpt lat="45.71025" lon="9.431677"><ele>321.5</ele><time>2026-04-15T14:12:33.093Z</time></trkpt><trkpt lat="45.7101722" lon="9.4316491"><ele>321.0</ele><time>2026-04-15T14:12:34.093Z</time></trkpt><trkpt lat="45.7100932" lon="9.4316255"><ele>320.5</ele><time>2026-04-15T14:12:35.093Z</time></trkpt><trkpt lat="45.710014" lon="9.4315979"><ele>320.0</ele><time>2026-04-15T14:12:36.093Z</time></trkpt><trkpt lat="45.7099323" lon="9.4315573"><ele>319.5</ele><time>2026-04-15T14:12:37.093Z</time></trkpt><trkpt lat="45.7098533" lon="9.4315333"><ele>319.0</ele><time>2026-04-15T14:12:38.093Z</time></trkpt><trkpt lat="45.7097763" lon="9.4315037"><ele>319.0</ele><time>2026-04-15T14:12:39.094Z</time></trkpt><trkpt lat="45.7096946" lon="9.4314761"><ele>319.0</ele><time>2026-04-15T14:12:40.093Z</time></trkpt><trkpt lat="45.709613" lon="9.4314394"><ele>319.0</ele><time>2026-04-15T14:12:41.093Z</time></trkpt><trkpt lat="45.7095352" lon="9.4314186"><ele>319.0</ele><time>2026-04-15T14:12:42.093Z</time></trkpt><trkpt lat="45.709455" lon="9.4313909"><ele>319.0</ele><time>2026-04-15T14:12:43.094Z</time></trkpt><trkpt lat="45.7093738" lon="9.4313629"><ele>319.0</ele><time>2026-04-15T14:12:44.094Z</time></trkpt><trkpt lat="45.7092972" lon="9.4313425"><ele>319.0</ele><time>2026-04-15T14:12:45.094Z</time></trkpt><trkpt lat="45.7092147" lon="9.4313178"><ele>319.0</ele><time>2026-04-15T14:12:46.094Z</time></trkpt><trkpt lat="45.7091389" lon="9.4312862"><ele>319.0</ele><time>2026-04-15T14:12:47.093Z</time></trkpt><trkpt lat="45.7090691" lon="9.4312666"><ele>319.0</ele><time>2026-04-15T14:12:48.094Z</time></trkpt><trkpt lat="45.7089928" lon="9.4312457"><ele>319.0</ele><time>2026-04-15T14:12:49.093Z</time></trkpt><trkpt lat="45.7089203" lon="9.4312224"><ele>319.0</ele><time>2026-04-15T14:12:50.093Z</time></trkpt><trkpt lat="45.708851" lon="9.4312023"><ele>319.0</ele><time>2026-04-15T14:12:51.093Z</time></trkpt><trkpt lat="45.7087788" lon="9.4311801"><ele>319.0</ele><time>2026-04-15T14:12:52.094Z</time></trkpt><trkpt lat="45.7087107" lon="9.4311627"><ele>319.0</ele><time>2026-04-15T14:12:53.093Z</time></trkpt><trkpt lat="45.708642" lon="9.4311381"><ele>319.0</ele><time>2026-04-15T14:12:54.093Z</time></trkpt><trkpt lat="45.7085775" lon="9.4311271"><ele>319.0</ele><time>2026-04-15T14:12:55.093Z</time></trkpt><trkpt lat="45.7085116" lon="9.4311122"><ele>319.0</ele><time>2026-04-15T14:12:56.093Z</time></trkpt><trkpt lat="45.7084473" lon="9.4310973"><ele>319.0</ele><time>2026-04-15T14:12:57.093Z</time></trkpt><trkpt lat="45.7083842" lon="9.4310731"><ele>319.2</ele><time>2026-04-15T14:12:58.093Z</time></trkpt><trkpt lat="45.7082867" lon="9.430998"><ele>319.4</ele><time>2026-04-15T14:13:00.093Z</time></trkpt><trkpt lat="45.7082163" lon="9.4308855"><ele>319.6</ele><time>2026-04-15T14:13:02.093Z</time></trkpt><trkpt lat="45.708173" lon="9.4307434"><ele>319.8</ele><time>2026-04-15T14:13:04.094Z</time></trkpt><trkpt lat="45.7081452" lon="9.4305748"><ele>320.0</ele><time>2026-04-15T14:13:06.093Z</time></trkpt><trkpt lat="45.708119" lon="9.4304759"><ele>320.0</ele><time>2026-04-15T14:13:07.093Z</time></trkpt><trkpt lat="45.7080997" lon="9.4303645"><ele>320.0</ele><time>2026-04-15T14:13:08.093Z</time></trkpt><trkpt lat="45.708061" lon="9.4302322"><ele>320.0</ele><time>2026-04-15T14:13:09.093Z</time></trkpt><trkpt lat="45.7080195" lon="9.4301298"><ele>320.0</ele><time>2026-04-15T14:13:10.093Z</time></trkpt><trkpt lat="45.7079955" lon="9.4300442"><ele>320.0</ele><time>2026-04-15T14:13:11.094Z</time></trkpt><trkpt lat="45.707944" lon="9.4298707"><ele>320.0</ele><time>2026-04-15T14:13:13.093Z</time></trkpt><trkpt lat="45.70791" lon="9.4297695"><ele>320.0</ele><time>2026-04-15T14:13:14.093Z</time></trkpt><trkpt lat="45.7078367" lon="9.4296115"><ele>320.0</ele><time>2026-04-15T14:13:16.093Z</time></trkpt><trkpt lat="45.7077885" lon="9.4295498"><ele>320.0</ele><time>2026-04-15T14:13:17.094Z</time></trkpt><trkpt lat="45.7077106" lon="9.4295136"><ele>320.0</ele><time>2026-04-15T14:13:19.093Z</time></trkpt><trkpt lat="45.7076246" lon="9.4295465"><ele>320.0</ele><time>2026-04-15T14:13:21.093Z</time></trkpt><trkpt lat="45.7075813" lon="9.4296186"><ele>320.0</ele><time>2026-04-15T14:13:23.093Z</time></trkpt><trkpt lat="45.7075147" lon="9.4296168"><ele>320.0</ele><time>2026-04-15T14:13:25.093Z</time></trkpt><trkpt lat="45.7074472" lon="9.4296714"><ele>320.0</ele><time>2026-04-15T14:13:27.093Z</time></trkpt><trkpt lat="45.7073773" lon="9.4297391"><ele>320.0</ele><time>2026-04-15T14:13:29.093Z</time></trkpt><trkpt lat="45.7072879" lon="9.4298355"><ele>320.0</ele><time>2026-04-15T14:13:31.094Z</time></trkpt><trkpt lat="45.7071976" lon="9.4299162"><ele>320.0</ele><time>2026-04-15T14:13:33.094Z</time></trkpt><trkpt lat="45.7071073" lon="9.4300198"><ele>320.0</ele><time>2026-04-15T14:13:36.094Z</time></trkpt><trkpt lat="45.7069946" lon="9.430088"><ele>320.0</ele><time>2026-04-15T14:13:38.093Z</time></trkpt><trkpt lat="45.7069284" lon="9.4301282"><ele>320.0</ele><time>2026-04-15T14:13:40.093Z</time></trkpt><trkpt lat="45.706845" lon="9.4301962"><ele>320.0</ele><time>2026-04-15T14:13:44.094Z</time></trkpt><trkpt lat="45.7068047" lon="9.4302682"><ele>320.0</ele><time>2026-04-15T14:13:48.093Z</time></trkpt><trkpt lat="45.7067295" lon="9.4302978"><ele>320.0</ele><time>2026-04-15T14:13:52.094Z</time></trkpt><trkpt lat="45.7066543" lon="9.4303017"><ele>321.33333333333337</ele><time>2026-04-15T14:13:55.093Z</time></trkpt><trkpt lat="45.7065848" lon="9.4302956"><ele>322.6666666666667</ele><time>2026-04-15T14:13:58.093Z</time></trkpt><trkpt lat="45.7065119" lon="9.4303239"><ele>324.0</ele><time>2026-04-15T14:14:01.094Z</time></trkpt><trkpt lat="45.7064464" lon="9.4303317"><ele>325.3333333333333</ele><time>2026-04-15T14:14:03.093Z</time></trkpt><trkpt lat="45.7063453" lon="9.4303696"><ele>326.66666666666663</ele><time>2026-04-15T14:14:06.093Z</time></trkpt><trkpt lat="45.7062644" lon="9.4304154"><ele>328.0</ele><time>2026-04-15T14:14:08.093Z</time></trkpt><trkpt lat="45.7061924" lon="9.4304708"><ele>327.2</ele><time>2026-04-15T14:14:10.093Z</time></trkpt><trkpt lat="45.7061114" lon="9.4305312"><ele>326.4</ele><time>2026-04-15T14:14:12.093Z</time></trkpt><trkpt lat="45.7060569" lon="9.4306418"><ele>325.59999999999997</ele><time>2026-04-15T14:14:13.093Z</time></trkpt><trkpt lat="45.7060014" lon="9.4306933"><ele>324.79999999999995</ele><time>2026-04-15T14:14:14.093Z</time></trkpt><trkpt lat="45.7059353" lon="9.4308001"><ele>324.0</ele><time>2026-04-15T14:14:16.093Z</time></trkpt><trkpt lat="45.7058412" lon="9.4308942"><ele>324.0</ele><time>2026-04-15T14:14:18.094Z</time></trkpt><trkpt lat="45.7057818" lon="9.4309444"><ele>324.0</ele><time>2026-04-15T14:14:19.093Z</time></trkpt><trkpt lat="45.7057338" lon="9.4310171"><ele>324.0</ele><time>2026-04-15T14:14:20.093Z</time></trkpt><trkpt lat="45.7056765" lon="9.4310678"><ele>324.0</ele><time>2026-04-15T14:14:21.093Z</time></trkpt><trkpt lat="45.7056341" lon="9.4311393"><ele>324.0</ele><time>2026-04-15T14:14:22.094Z</time></trkpt><trkpt lat="45.7055748" lon="9.4312251"><ele>324.0</ele><time>2026-04-15T14:14:24.094Z</time></trkpt><trkpt lat="45.7055121" lon="9.4313027"><ele>324.0</ele><time>2026-04-15T14:14:25.093Z</time></trkpt><trkpt lat="45.7054778" lon="9.4313816"><ele>323.6666666666667</ele><time>2026-04-15T14:14:26.093Z</time></trkpt><trkpt lat="45.7054161" lon="9.4314363"><ele>323.3333333333333</ele><time>2026-04-15T14:14:27.093Z</time></trkpt><trkpt lat="45.7053376" lon="9.4315569"><ele>323.0</ele><time>2026-04-15T14:14:29.094Z</time></trkpt><trkpt lat="45.705291" lon="9.4316372"><ele>322.66666666666663</ele><time>2026-04-15T14:14:30.093Z</time></trkpt><trkpt lat="45.7052247" lon="9.4317122"><ele>322.3333333333333</ele><time>2026-04-15T14:14:31.094Z</time></trkpt><trkpt lat="45.7051635" lon="9.431792"><ele>322.0</ele><time>2026-04-15T14:14:32.094Z</time></trkpt><trkpt lat="45.7050661" lon="9.4319076"><ele>322.0</ele><time>2026-04-15T14:14:34.094Z</time></trkpt><trkpt lat="45.704984" lon="9.432005"><ele>322.0</ele><time>2026-04-15T14:14:36.093Z</time></trkpt><trkpt lat="45.7049109" lon="9.4321263"><ele>322.0</ele><time>2026-04-15T14:14:38.093Z</time></trkpt><trkpt lat="45.7048534" lon="9.4321715"><ele>322.0</ele><time>2026-04-15T14:14:39.093Z</time></trkpt><trkpt lat="45.7047872" lon="9.4322763"><ele>322.0</ele><time>2026-04-15T14:14:41.094Z</time></trkpt><trkpt lat="45.7046914" lon="9.4323601"><ele>320.20000000000005</ele><time>2026-04-15T14:14:43.093Z</time></trkpt><trkpt lat="45.7045774" lon="9.4324501"><ele>318.40000000000003</ele><time>2026-04-15T14:14:45.093Z</time></trkpt><trkpt lat="45.7044952" lon="9.432521"><ele>316.6</ele><time>2026-04-15T14:14:46.093Z</time></trkpt><trkpt lat="45.7044281" lon="9.4325534"><ele>314.8</ele><time>2026-04-15T14:14:47.093Z</time></trkpt><trkpt lat="45.7043282" lon="9.4326031"><ele>313.0</ele><time>2026-04-15T14:14:49.093Z</time></trkpt><trkpt lat="45.7042111" lon="9.4326391"><ele>312.5</ele><time>2026-04-15T14:14:51.094Z</time></trkpt><trkpt lat="45.7041483" lon="9.43267"><ele>312.0</ele><time>2026-04-15T14:14:52.094Z</time></trkpt><trkpt lat="45.7040832" lon="9.4327171"><ele>311.5</ele><time>2026-04-15T14:14:53.093Z</time></trkpt><trkpt lat="45.7040202" lon="9.4327243"><ele>311.0</ele><time>2026-04-15T14:14:54.094Z</time></trkpt><trkpt lat="45.703909" lon="9.4327822"><ele>310.5</ele><time>2026-04-15T14:14:56.093Z</time></trkpt><trkpt lat="45.7038386" lon="9.4328216"><ele>310.0</ele><time>2026-04-15T14:14:57.093Z</time></trkpt><trkpt lat="45.7037745" lon="9.4328369"><ele>310.0</ele><time>2026-04-15T14:14:58.093Z</time></trkpt><trkpt lat="45.7037224" lon="9.4328969"><ele>310.0</ele><time>2026-04-15T14:14:59.093Z</time></trkpt><trkpt lat="45.7036548" lon="9.4329287"><ele>310.0</ele><time>2026-04-15T14:15:00.093Z</time></trkpt><trkpt lat="45.703577" lon="9.432964"><ele>310.0</ele><time>2026-04-15T14:15:01.093Z</time></trkpt><trkpt lat="45.7034595" lon="9.4330202"><ele>310.0</ele><time>2026-04-15T14:15:03.093Z</time></trkpt><trkpt lat="45.7033932" lon="9.4330439"><ele>310.0</ele><time>2026-04-15T14:15:04.093Z</time></trkpt><trkpt lat="45.7033336" lon="9.4330933"><ele>309.3333333333333</ele><time>2026-04-15T14:15:05.093Z</time></trkpt><trkpt lat="45.7032484" lon="9.4332303"><ele>308.66666666666663</ele><time>2026-04-15T14:15:07.093Z</time></trkpt><trkpt lat="45.7031892" lon="9.4333729"><ele>308.0</ele><time>2026-04-15T14:15:09.093Z</time></trkpt><trkpt lat="45.7031468" lon="9.4334552"><ele>307.3333333333333</ele><time>2026-04-15T14:15:10.094Z</time></trkpt><trkpt lat="45.703098" lon="9.4335156"><ele>306.6666666666667</ele><time>2026-04-15T14:15:12.094Z</time></trkpt><trkpt lat="45.7030326" lon="9.4335468"><ele>306.0</ele><time>2026-04-15T14:15:14.093Z</time></trkpt><trkpt lat="45.7029924" lon="9.4336418"><ele>306.0</ele><time>2026-04-15T14:15:16.093Z</time></trkpt><trkpt lat="45.7029522" lon="9.4337685"><ele>306.0</ele><time>2026-04-15T14:15:18.093Z</time></trkpt><trkpt lat="45.7029032" lon="9.4338875"><ele>306.0</ele><time>2026-04-15T14:15:20.093Z</time></trkpt><trkpt lat="45.7028366" lon="9.4340436"><ele>306.0</ele><time>2026-04-15T14:15:22.093Z</time></trkpt><trkpt lat="45.7027758" lon="9.4340996"><ele>306.0</ele><time>2026-04-15T14:15:23.093Z</time></trkpt><trkpt lat="45.7027291" lon="9.4342014"><ele>306.0</ele><time>2026-04-15T14:15:25.094Z</time></trkpt><trkpt lat="45.7026631" lon="9.4343144"><ele>306.0</ele><time>2026-04-15T14:15:27.093Z</time></trkpt><trkpt lat="45.7025919" lon="9.4344197"><ele>306.0</ele><time>2026-04-15T14:15:29.093Z</time></trkpt><trkpt lat="45.7025234" lon="9.4345076"><ele>306.0</ele><time>2026-04-15T14:15:31.094Z</time></trkpt><trkpt lat="45.7024412" lon="9.4346158"><ele>306.0</ele><time>2026-04-15T14:15:33.093Z</time></trkpt><trkpt lat="45.7023739" lon="9.4347441"><ele>306.0</ele><time>2026-04-15T14:15:35.093Z</time></trkpt><trkpt lat="45.7023087" lon="9.4348508"><ele>306.0</ele><time>2026-04-15T14:15:37.093Z</time></trkpt><trkpt lat="45.702245" lon="9.4349769"><ele>306.0</ele><time>2026-04-15T14:15:39.093Z</time></trkpt><trkpt lat="45.7021843" lon="9.435117"><ele>306.0</ele><time>2026-04-15T14:15:41.093Z</time></trkpt><trkpt lat="45.7021341" lon="9.4352653"><ele>306.0</ele><time>2026-04-15T14:15:43.093Z</time></trkpt><trkpt lat="45.7021074" lon="9.4354022"><ele>306.0</ele><time>2026-04-15T14:15:45.094Z</time></trkpt><trkpt lat="45.7020679" lon="9.4355418"><ele>306.0</ele><time>2026-04-15T14:15:47.093Z</time></trkpt><trkpt lat="45.7020283" lon="9.4357065"><ele>306.0</ele><time>2026-04-15T14:15:49.093Z</time></trkpt><trkpt lat="45.7019624" lon="9.4358547"><ele>306.0</ele><time>2026-04-15T14:15:51.093Z</time></trkpt><trkpt lat="45.701925" lon="9.4359274"><ele>306.0</ele><time>2026-04-15T14:15:52.093Z</time></trkpt><trkpt lat="45.7018467" lon="9.4360646"><ele>306.2</ele><time>2026-04-15T14:15:54.093Z</time></trkpt><trkpt lat="45.7017877" lon="9.4361337"><ele>306.40000000000003</ele><time>2026-04-15T14:15:55.093Z</time></trkpt><trkpt lat="45.7017138" lon="9.4362759"><ele>306.6</ele><time>2026-04-15T14:15:57.093Z</time></trkpt><trkpt lat="45.7016716" lon="9.4363613"><ele>306.8</ele><time>2026-04-15T14:15:58.093Z</time></trkpt><trkpt lat="45.7016047" lon="9.4364847"><ele>307.0</ele><time>2026-04-15T14:16:00.093Z</time></trkpt><trkpt lat="45.7015552" lon="9.4365655"><ele>306.71428571428567</ele><time>2026-04-15T14:16:01.094Z</time></trkpt><trkpt lat="45.7015244" lon="9.4366442"><ele>306.42857142857144</ele><time>2026-04-15T14:16:02.093Z</time></trkpt><trkpt lat="45.701489" lon="9.4367204"><ele>306.1428571428571</ele><time>2026-04-15T14:16:03.093Z</time></trkpt><trkpt lat="45.7014477" lon="9.4367979"><ele>305.85714285714283</ele><time>2026-04-15T14:16:04.093Z</time></trkpt><trkpt lat="45.7014053" lon="9.4368965"><ele>305.57142857142856</ele><time>2026-04-15T14:16:05.094Z</time></trkpt><trkpt lat="45.7013756" lon="9.4369862"><ele>305.2857142857143</ele><time>2026-04-15T14:16:06.093Z</time></trkpt><trkpt lat="45.7013466" lon="9.4370668"><ele>305.0</ele><time>2026-04-15T14:16:07.094Z</time></trkpt><trkpt lat="45.7012906" lon="9.4372181"><ele>305.0</ele><time>2026-04-15T14:16:09.093Z</time></trkpt><trkpt lat="45.7012245" lon="9.43735"><ele>305.0</ele><time>2026-04-15T14:16:11.093Z</time></trkpt><trkpt lat="45.7011419" lon="9.4374904"><ele>305.0</ele><time>2026-04-15T14:16:13.093Z</time></trkpt><trkpt lat="45.7010823" lon="9.4376338"><ele>305.0</ele><time>2026-04-15T14:16:15.093Z</time></trkpt><trkpt lat="45.7010307" lon="9.4376981"><ele>305.0</ele><time>2026-04-15T14:16:16.093Z</time></trkpt><trkpt lat="45.7009547" lon="9.4377674"><ele>304.8</ele><time>2026-04-15T14:16:18.093Z</time></trkpt><trkpt lat="45.7008482" lon="9.4377722"><ele>304.6</ele><time>2026-04-15T14:16:20.093Z</time></trkpt><trkpt lat="45.7007481" lon="9.4377759"><ele>304.4</ele><time>2026-04-15T14:16:22.093Z</time></trkpt><trkpt lat="45.7006348" lon="9.4377758"><ele>304.2</ele><time>2026-04-15T14:16:24.093Z</time></trkpt><trkpt lat="45.7005216" lon="9.4377901"><ele>304.0</ele><time>2026-04-15T14:16:26.093Z</time></trkpt><trkpt lat="45.7004306" lon="9.4378278"><ele>304.0</ele><time>2026-04-15T14:16:28.094Z</time></trkpt><trkpt lat="45.7003067" lon="9.4378753"><ele>304.0</ele><time>2026-04-15T14:16:30.093Z</time></trkpt><trkpt lat="45.7002027" lon="9.4379764"><ele>304.0</ele><time>2026-04-15T14:16:32.093Z</time></trkpt><trkpt lat="45.7001142" lon="9.4380781"><ele>304.0</ele><time>2026-04-15T14:16:34.094Z</time></trkpt><trkpt lat="45.7000475" lon="9.4381376"><ele>304.0</ele><time>2026-04-15T14:16:36.094Z</time></trkpt><trkpt lat="45.6999676" lon="9.4382026"><ele>304.8</ele><time>2026-04-15T14:16:38.093Z</time></trkpt><trkpt lat="45.6999004" lon="9.4381969"><ele>305.59999999999997</ele><time>2026-04-15T14:16:39.094Z</time></trkpt><trkpt lat="45.6998232" lon="9.4382189"><ele>306.4</ele><time>2026-04-15T14:16:41.093Z</time></trkpt><trkpt lat="45.6997183" lon="9.4382224"><ele>307.2</ele><time>2026-04-15T14:16:43.093Z</time></trkpt><trkpt lat="45.6996063" lon="9.4382569"><ele>308.0</ele><time>2026-04-15T14:16:45.093Z</time></trkpt><trkpt lat="45.6994917" lon="9.4383056"><ele>308.0</ele><time>2026-04-15T14:16:47.093Z</time></trkpt><trkpt lat="45.6994355" lon="9.4383483"><ele>308.0</ele><time>2026-04-15T14:16:48.094Z</time></trkpt><trkpt lat="45.6993521" lon="9.4384483"><ele>308.0</ele><time>2026-04-15T14:16:50.093Z</time></trkpt><trkpt lat="45.6992631" lon="9.4385321"><ele>308.0</ele><time>2026-04-15T14:16:52.094Z</time></trkpt><trkpt lat="45.6991605" lon="9.4386184"><ele>308.0</ele><time>2026-04-15T14:16:54.093Z</time></trkpt><trkpt lat="45.6990614" lon="9.4387591"><ele>307.8</ele><time>2026-04-15T14:16:56.094Z</time></trkpt><trkpt lat="45.6990161" lon="9.4389025"><ele>307.6</ele><time>2026-04-15T14:16:58.094Z</time></trkpt><trkpt lat="45.6989543" lon="9.4391017"><ele>307.4</ele><time>2026-04-15T14:17:00.094Z</time></trkpt><trkpt lat="45.6989339" lon="9.4392141"><ele>307.2</ele><time>2026-04-15T14:17:01.093Z</time></trkpt><trkpt lat="45.6989007" lon="9.4393109"><ele>307.0</ele><time>2026-04-15T14:17:02.094Z</time></trkpt><trkpt lat="45.6988721" lon="9.4393997"><ele>307.0</ele><time>2026-04-15T14:17:03.094Z</time></trkpt><trkpt lat="45.6988385" lon="9.4394972"><ele>307.0</ele><time>2026-04-15T14:17:04.094Z</time></trkpt><trkpt lat="45.6987957" lon="9.4395735"><ele>307.0</ele><time>2026-04-15T14:17:05.094Z</time></trkpt><trkpt lat="45.6987376" lon="9.4397198"><ele>307.0</ele><time>2026-04-15T14:17:07.094Z</time></trkpt><trkpt lat="45.6986859" lon="9.4397975"><ele>307.0</ele><time>2026-04-15T14:17:08.093Z</time></trkpt><trkpt lat="45.698575" lon="9.4399269"><ele>308.3333333333333</ele><time>2026-04-15T14:17:10.093Z</time></trkpt><trkpt lat="45.6985498" lon="9.4400214"><ele>309.66666666666663</ele><time>2026-04-15T14:17:11.093Z</time></trkpt><trkpt lat="45.6984916" lon="9.4401624"><ele>311.0</ele><time>2026-04-15T14:17:13.093Z</time></trkpt><trkpt lat="45.698442" lon="9.4402635"><ele>312.3333333333333</ele><time>2026-04-15T14:17:15.093Z</time></trkpt><trkpt lat="45.6984156" lon="9.4403797"><ele>313.6666666666667</ele><time>2026-04-15T14:17:18.093Z</time></trkpt><trkpt lat="45.6983325" lon="9.4403834"><ele>315.0</ele><time>2026-04-15T14:17:20.094Z</time></trkpt><trkpt lat="45.6982375" lon="9.4404176"><ele>315.0</ele><time>2026-04-15T14:17:22.093Z</time></trkpt><trkpt lat="45.6981119" lon="9.4404252"><ele>315.0</ele><time>2026-04-15T14:17:24.093Z</time></trkpt><trkpt lat="45.6980435" lon="9.4404436"><ele>315.0</ele><time>2026-04-15T14:17:25.093Z</time></trkpt><trkpt lat="45.6979645" lon="9.4404832"><ele>315.0</ele><time>2026-04-15T14:17:26.093Z</time></trkpt><trkpt lat="45.6978988" lon="9.4405306"><ele>315.0</ele><time>2026-04-15T14:17:27.093Z</time></trkpt><trkpt lat="45.6978391" lon="9.4405875"><ele>315.0</ele><time>2026-04-15T14:17:28.093Z</time></trkpt><trkpt lat="45.6977026" lon="9.4406394"><ele>313.3333333333333</ele><time>2026-04-15T14:17:30.094Z</time></trkpt><trkpt lat="45.6976002" lon="9.4406537"><ele>311.6666666666667</ele><time>2026-04-15T14:17:31.093Z</time></trkpt><trkpt lat="45.6975157" lon="9.4406593"><ele>310.0</ele><time>2026-04-15T14:17:32.093Z</time></trkpt><trkpt lat="45.6974515" lon="9.440639"><ele>308.33333333333337</ele><time>2026-04-15T14:17:33.094Z</time></trkpt><trkpt lat="45.6973728" lon="9.4406535"><ele>306.6666666666667</ele><time>2026-04-15T14:17:34.094Z</time></trkpt><trkpt lat="45.6972986" lon="9.4406935"><ele>305.0</ele><time>2026-04-15T14:17:35.093Z</time></trkpt><trkpt lat="45.6972304" lon="9.4407398"><ele>305.0</ele><time>2026-04-15T14:17:36.093Z</time></trkpt><trkpt lat="45.6971613" lon="9.4407682"><ele>305.0</ele><time>2026-04-15T14:17:37.093Z</time></trkpt><trkpt lat="45.6969072" lon="9.4408649"><ele>305.0</ele><time>2026-04-15T14:17:40.092Z</time></trkpt><trkpt lat="45.6968214" lon="9.4408733"><ele>305.0</ele><time>2026-04-15T14:17:41.088Z</time></trkpt><trkpt lat="45.6967371" lon="9.4408775"><ele>303.2</ele><time>2026-04-15T14:17:42.09Z</time></trkpt><trkpt lat="45.6966456" lon="9.440876"><ele>301.4</ele><time>2026-04-15T14:17:43.094Z</time></trkpt><trkpt lat="45.696541" lon="9.4408791"><ele>299.6</ele><time>2026-04-15T14:17:44.099Z</time></trkpt><trkpt lat="45.6964299" lon="9.440895"><ele>297.8</ele><time>2026-04-15T14:17:45.091Z</time></trkpt><trkpt lat="45.6963122" lon="9.4408965"><ele>296.0</ele><time>2026-04-15T14:17:46.091Z</time></trkpt><trkpt lat="45.6962157" lon="9.4409081"><ele>296.0</ele><time>2026-04-15T14:17:47.091Z</time></trkpt><trkpt lat="45.6961204" lon="9.4409053"><ele>296.0</ele><time>2026-04-15T14:17:48.092Z</time></trkpt><trkpt lat="45.6960218" lon="9.4408972"><ele>296.0</ele><time>2026-04-15T14:17:49.091Z</time></trkpt><trkpt lat="45.6959342" lon="9.4409082"><ele>296.0</ele><time>2026-04-15T14:17:50.091Z</time></trkpt><trkpt lat="45.6958418" lon="9.4409202"><ele>296.0</ele><time>2026-04-15T14:17:51.091Z</time></trkpt><trkpt lat="45.6957416" lon="9.4409222"><ele>295.2</ele><time>2026-04-15T14:17:52.091Z</time></trkpt><trkpt lat="45.6956347" lon="9.440903"><ele>294.40000000000003</ele><time>2026-04-15T14:17:53.091Z</time></trkpt><trkpt lat="45.6955199" lon="9.4408938"><ele>293.6</ele><time>2026-04-15T14:17:54.092Z</time></trkpt><trkpt lat="45.6954121" lon="9.4408884"><ele>292.8</ele><time>2026-04-15T14:17:55.091Z</time></trkpt><trkpt lat="45.6953037" lon="9.4408625"><ele>292.0</ele><time>2026-04-15T14:17:56.091Z</time></trkpt><trkpt lat="45.6952042" lon="9.4408372"><ele>290.8</ele><time>2026-04-15T14:17:57.092Z</time></trkpt><trkpt lat="45.6950833" lon="9.4408147"><ele>289.6</ele><time>2026-04-15T14:17:58.091Z</time></trkpt><trkpt lat="45.6949851" lon="9.4408108"><ele>288.40000000000003</ele><time>2026-04-15T14:17:59.092Z</time></trkpt><trkpt lat="45.6948936" lon="9.4408177"><ele>287.2</ele><time>2026-04-15T14:18:00.092Z</time></trkpt><trkpt lat="45.6948005" lon="9.4408575"><ele>286.0</ele><time>2026-04-15T14:18:01.092Z</time></trkpt><trkpt lat="45.6946971" lon="9.4409248"><ele>286.0</ele><time>2026-04-15T14:18:02.092Z</time></trkpt><trkpt lat="45.6945903" lon="9.4409957"><ele>286.0</ele><time>2026-04-15T14:18:03.091Z</time></trkpt><trkpt lat="45.6944977" lon="9.4410678"><ele>286.0</ele><time>2026-04-15T14:18:04.092Z</time></trkpt><trkpt lat="45.694412" lon="9.4411171"><ele>286.0</ele><time>2026-04-15T14:18:05.091Z</time></trkpt><trkpt lat="45.6943191" lon="9.4411752"><ele>286.0</ele><time>2026-04-15T14:18:06.092Z</time></trkpt><trkpt lat="45.6942083" lon="9.4412229"><ele>285.40000000000003</ele><time>2026-04-15T14:18:07.091Z</time></trkpt><trkpt lat="45.6941094" lon="9.4412573"><ele>284.8</ele><time>2026-04-15T14:18:08.091Z</time></trkpt><trkpt lat="45.6940092" lon="9.4413056"><ele>284.20000000000005</ele><time>2026-04-15T14:18:09.092Z</time></trkpt><trkpt lat="45.6939222" lon="9.4413531"><ele>283.6</ele><time>2026-04-15T14:18:10.092Z</time></trkpt><trkpt lat="45.6938441" lon="9.441381"><ele>283.0</ele><time>2026-04-15T14:18:11.091Z</time></trkpt><trkpt lat="45.6937374" lon="9.4414261"><ele>283.0</ele><time>2026-04-15T14:18:12.091Z</time></trkpt><trkpt lat="45.6936465" lon="9.4414536"><ele>283.0</ele><time>2026-04-15T14:18:13.091Z</time></trkpt><trkpt lat="45.693554" lon="9.4414842"><ele>283.0</ele><time>2026-04-15T14:18:14.091Z</time></trkpt><trkpt lat="45.6934573" lon="9.4415061"><ele>283.0</ele><time>2026-04-15T14:18:15.091Z</time></trkpt><trkpt lat="45.6933661" lon="9.4415371"><ele>283.0</ele><time>2026-04-15T14:18:16.092Z</time></trkpt><trkpt lat="45.6932863" lon="9.4415717"><ele>282.6</ele><time>2026-04-15T14:18:17.091Z</time></trkpt><trkpt lat="45.6931901" lon="9.4415947"><ele>282.20000000000005</ele><time>2026-04-15T14:18:18.091Z</time></trkpt><trkpt lat="45.6931013" lon="9.4416459"><ele>281.8</ele><time>2026-04-15T14:18:19.092Z</time></trkpt><trkpt lat="45.6929956" lon="9.4416856"><ele>281.40000000000003</ele><time>2026-04-15T14:18:20.092Z</time></trkpt><trkpt lat="45.6929058" lon="9.4417227"><ele>281.0</ele><time>2026-04-15T14:18:21.091Z</time></trkpt><trkpt lat="45.6928002" lon="9.441756"><ele>279.8</ele><time>2026-04-15T14:18:22.092Z</time></trkpt><trkpt lat="45.6927116" lon="9.441785"><ele>278.6</ele><time>2026-04-15T14:18:23.091Z</time></trkpt><trkpt lat="45.6926303" lon="9.4418031"><ele>277.4</ele><time>2026-04-15T14:18:24.091Z</time></trkpt><trkpt lat="45.6925472" lon="9.4418275"><ele>276.2</ele><time>2026-04-15T14:18:25.092Z</time></trkpt><trkpt lat="45.6924387" lon="9.4418397"><ele>275.0</ele><time>2026-04-15T14:18:26.091Z</time></trkpt><trkpt lat="45.6923521" lon="9.4418298"><ele>275.0</ele><time>2026-04-15T14:18:27.092Z</time></trkpt><trkpt lat="45.6922663" lon="9.4418365"><ele>275.0</ele><time>2026-04-15T14:18:28.092Z</time></trkpt><trkpt lat="45.6921751" lon="9.4418247"><ele>275.0</ele><time>2026-04-15T14:18:29.091Z</time></trkpt><trkpt lat="45.6920959" lon="9.4418016"><ele>275.0</ele><time>2026-04-15T14:18:30.091Z</time></trkpt><trkpt lat="45.6920214" lon="9.4417966"><ele>275.0</ele><time>2026-04-15T14:18:31.091Z</time></trkpt><trkpt lat="45.6919579" lon="9.4417829"><ele>275.0</ele><time>2026-04-15T14:18:32.091Z</time></trkpt><trkpt lat="45.6918652" lon="9.4417635"><ele>274.6666666666667</ele><time>2026-04-15T14:18:34.091Z</time></trkpt><trkpt lat="45.6917717" lon="9.441753"><ele>274.33333333333337</ele><time>2026-04-15T14:18:37.092Z</time></trkpt><trkpt lat="45.6916984" lon="9.4417268"><ele>274.0</ele><time>2026-04-15T14:18:39.092Z</time></trkpt><trkpt lat="45.6916067" lon="9.4417328"><ele>273.6666666666667</ele><time>2026-04-15T14:18:41.091Z</time></trkpt><trkpt lat="45.6915442" lon="9.4417619"><ele>273.3333333333333</ele><time>2026-04-15T14:18:43.091Z</time></trkpt><trkpt lat="45.6915043" lon="9.4418715"><ele>273.0</ele><time>2026-04-15T14:18:45.091Z</time></trkpt><trkpt lat="45.6914656" lon="9.4419859"><ele>273.0</ele><time>2026-04-15T14:18:47.091Z</time></trkpt><trkpt lat="45.6913697" lon="9.4420318"><ele>273.0</ele><time>2026-04-15T14:18:49.091Z</time></trkpt><trkpt lat="45.6912802" lon="9.4420656"><ele>273.0</ele><time>2026-04-15T14:18:51.091Z</time></trkpt><trkpt lat="45.6911688" lon="9.442104"><ele>273.0</ele><time>2026-04-15T14:18:53.092Z</time></trkpt><trkpt lat="45.6910759" lon="9.4421535"><ele>273.0</ele><time>2026-04-15T14:18:55.091Z</time></trkpt><trkpt lat="45.6909988" lon="9.4421046"><ele>273.2</ele><time>2026-04-15T14:18:56.091Z</time></trkpt><trkpt lat="45.6909073" lon="9.442091"><ele>273.4</ele><time>2026-04-15T14:18:57.091Z</time></trkpt><trkpt lat="45.6908463" lon="9.4421159"><ele>273.59999999999997</ele><time>2026-04-15T14:18:58.091Z</time></trkpt><trkpt lat="45.6907841" lon="9.4421454"><ele>273.8</ele><time>2026-04-15T14:18:59.091Z</time></trkpt><trkpt lat="45.6906843" lon="9.4422289"><ele>274.0</ele><time>2026-04-15T14:19:01.091Z</time></trkpt><trkpt lat="45.6905653" lon="9.4422906"><ele>273.8333333333333</ele><time>2026-04-15T14:19:03.091Z</time></trkpt><trkpt lat="45.6904993" lon="9.4423355"><ele>273.66666666666663</ele><time>2026-04-15T14:19:04.092Z</time></trkpt><trkpt lat="45.6904363" lon="9.4424"><ele>273.5</ele><time>2026-04-15T14:19:05.091Z</time></trkpt><trkpt lat="45.6903632" lon="9.4424447"><ele>273.3333333333333</ele><time>2026-04-15T14:19:06.091Z</time></trkpt><trkpt lat="45.6902843" lon="9.4424755"><ele>273.1666666666667</ele><time>2026-04-15T14:19:07.092Z</time></trkpt><trkpt lat="45.6902303" lon="9.4425234"><ele>273.0</ele><time>2026-04-15T14:19:08.091Z</time></trkpt><trkpt lat="45.6901762" lon="9.4425976"><ele>273.0</ele><time>2026-04-15T14:19:09.092Z</time></trkpt><trkpt lat="45.6901124" lon="9.4426547"><ele>273.0</ele><time>2026-04-15T14:19:10.092Z</time></trkpt><trkpt lat="45.6900591" lon="9.4427342"><ele>273.0</ele><time>2026-04-15T14:19:11.091Z</time></trkpt><trkpt lat="45.6899869" lon="9.4427902"><ele>273.0</ele><time>2026-04-15T14:19:12.091Z</time></trkpt><trkpt lat="45.6899243" lon="9.4428429"><ele>273.0</ele><time>2026-04-15T14:19:13.091Z</time></trkpt><trkpt lat="45.6898619" lon="9.4428868"><ele>273.0</ele><time>2026-04-15T14:19:14.091Z</time></trkpt><trkpt lat="45.6898015" lon="9.4429249"><ele>273.0</ele><time>2026-04-15T14:19:15.091Z</time></trkpt><trkpt lat="45.6897451" lon="9.4429855"><ele>273.3333333333333</ele><time>2026-04-15T14:19:16.091Z</time></trkpt><trkpt lat="45.6896853" lon="9.4430481"><ele>273.6666666666667</ele><time>2026-04-15T14:19:17.091Z</time></trkpt><trkpt lat="45.6896313" lon="9.443098"><ele>274.0</ele><time>2026-04-15T14:19:18.091Z</time></trkpt><trkpt lat="45.6895673" lon="9.4431504"><ele>274.33333333333337</ele><time>2026-04-15T14:19:19.091Z</time></trkpt><trkpt lat="45.6894893" lon="9.4432073"><ele>274.6666666666667</ele><time>2026-04-15T14:19:20.091Z</time></trkpt><trkpt lat="45.6894171" lon="9.443257"><ele>275.0</ele><time>2026-04-15T14:19:21.092Z</time></trkpt><trkpt lat="45.6893567" lon="9.4433089"><ele>275.0</ele><time>2026-04-15T14:19:22.091Z</time></trkpt><trkpt lat="45.6892919" lon="9.4433747"><ele>275.0</ele><time>2026-04-15T14:19:23.091Z</time></trkpt><trkpt lat="45.6892304" lon="9.4434343"><ele>275.0</ele><time>2026-04-15T14:19:24.091Z</time></trkpt><trkpt lat="45.6891618" lon="9.4434885"><ele>275.0</ele><time>2026-04-15T14:19:25.091Z</time></trkpt><trkpt lat="45.689106" lon="9.4435469"><ele>275.0</ele><time>2026-04-15T14:19:26.091Z</time></trkpt><trkpt lat="45.6889998" lon="9.4436405"><ele>275.0</ele><time>2026-04-15T14:19:28.091Z</time></trkpt><trkpt lat="45.6889457" lon="9.4437001"><ele>275.0</ele><time>2026-04-15T14:19:29.092Z</time></trkpt><trkpt lat="45.6888781" lon="9.4437504"><ele>275.0</ele><time>2026-04-15T14:19:30.091Z</time></trkpt><trkpt lat="45.6887631" lon="9.4438533"><ele>275.0</ele><time>2026-04-15T14:19:32.091Z</time></trkpt><trkpt lat="45.6887118" lon="9.4439112"><ele>275.0</ele><time>2026-04-15T14:19:33.091Z</time></trkpt><trkpt lat="45.6886465" lon="9.4439691"><ele>275.0</ele><time>2026-04-15T14:19:34.092Z</time></trkpt><trkpt lat="45.6885784" lon="9.4440313"><ele>275.0</ele><time>2026-04-15T14:19:35.091Z</time></trkpt><trkpt lat="45.6885115" lon="9.4440948"><ele>275.1666666666667</ele><time>2026-04-15T14:19:36.091Z</time></trkpt><trkpt lat="45.6884477" lon="9.4441532"><ele>275.33333333333337</ele><time>2026-04-15T14:19:37.091Z</time></trkpt><trkpt lat="45.6883822" lon="9.444203"><ele>275.5</ele><time>2026-04-15T14:19:38.091Z</time></trkpt><trkpt lat="45.6883233" lon="9.4442625"><ele>275.6666666666667</ele><time>2026-04-15T14:19:39.091Z</time></trkpt><trkpt lat="45.688258" lon="9.4443126"><ele>275.8333333333333</ele><time>2026-04-15T14:19:40.091Z</time></trkpt><trkpt lat="45.6881874" lon="9.4443645"><ele>276.0</ele><time>2026-04-15T14:19:41.091Z</time></trkpt><trkpt lat="45.6881247" lon="9.4444359"><ele>276.0</ele><time>2026-04-15T14:19:42.091Z</time></trkpt><trkpt lat="45.688069" lon="9.4444906"><ele>276.0</ele><time>2026-04-15T14:19:43.091Z</time></trkpt><trkpt lat="45.6880124" lon="9.4445447"><ele>276.0</ele><time>2026-04-15T14:19:44.091Z</time></trkpt><trkpt lat="45.687951" lon="9.4445961"><ele>276.0</ele><time>2026-04-15T14:19:45.091Z</time></trkpt><trkpt lat="45.6878891" lon="9.4446523"><ele>276.0</ele><time>2026-04-15T14:19:46.091Z</time></trkpt><trkpt lat="45.6878128" lon="9.4446986"><ele>276.0</ele><time>2026-04-15T14:19:47.091Z</time></trkpt><trkpt lat="45.6877481" lon="9.4447664"><ele>276.0</ele><time>2026-04-15T14:19:48.092Z</time></trkpt><trkpt lat="45.6876876" lon="9.4448175"><ele>275.8333333333333</ele><time>2026-04-15T14:19:49.092Z</time></trkpt><trkpt lat="45.6875961" lon="9.4448743"><ele>275.6666666666667</ele><time>2026-04-15T14:19:50.091Z</time></trkpt><trkpt lat="45.6875283" lon="9.4449398"><ele>275.5</ele><time>2026-04-15T14:19:51.091Z</time></trkpt><trkpt lat="45.6874522" lon="9.4449966"><ele>275.33333333333337</ele><time>2026-04-15T14:19:52.091Z</time></trkpt><trkpt lat="45.6873927" lon="9.4450562"><ele>275.1666666666667</ele><time>2026-04-15T14:19:53.091Z</time></trkpt><trkpt lat="45.6873238" lon="9.4451154"><ele>275.0</ele><time>2026-04-15T14:19:54.091Z</time></trkpt><trkpt lat="45.6872583" lon="9.4451535"><ele>275.0</ele><time>2026-04-15T14:19:55.091Z</time></trkpt><trkpt lat="45.6871822" lon="9.4451857"><ele>275.0</ele><time>2026-04-15T14:19:56.091Z</time></trkpt><trkpt lat="45.6870428" lon="9.4452332"><ele>275.0</ele><time>2026-04-15T14:19:58.091Z</time></trkpt><trkpt lat="45.686971" lon="9.4452453"><ele>275.0</ele><time>2026-04-15T14:19:59.091Z</time></trkpt><trkpt lat="45.6868897" lon="9.4452639"><ele>275.0</ele><time>2026-04-15T14:20:00.091Z</time></trkpt><trkpt lat="45.686764" lon="9.4452654"><ele>274.83333333333337</ele><time>2026-04-15T14:20:02.091Z</time></trkpt><trkpt lat="45.6866917" lon="9.4452304"><ele>274.6666666666667</ele><time>2026-04-15T14:20:04.091Z</time></trkpt><trkpt lat="45.6866532" lon="9.4451287"><ele>274.5</ele><time>2026-04-15T14:20:06.091Z</time></trkpt><trkpt lat="45.6866574" lon="9.4450085"><ele>274.3333333333333</ele><time>2026-04-15T14:20:08.091Z</time></trkpt><trkpt lat="45.6866691" lon="9.444892"><ele>274.16666666666663</ele><time>2026-04-15T14:20:10.091Z</time></trkpt><trkpt lat="45.6866735" lon="9.4447559"><ele>274.0</ele><time>2026-04-15T14:20:12.091Z</time></trkpt><trkpt lat="45.6866943" lon="9.4446111"><ele>274.59999999999997</ele><time>2026-04-15T14:20:14.091Z</time></trkpt><trkpt lat="45.686719" lon="9.4444664"><ele>275.2</ele><time>2026-04-15T14:20:16.091Z</time></trkpt><trkpt lat="45.6867413" lon="9.4443353"><ele>275.79999999999995</ele><time>2026-04-15T14:20:18.091Z</time></trkpt><trkpt lat="45.6867676" lon="9.4442018"><ele>276.4</ele><time>2026-04-15T14:20:20.091Z</time></trkpt><trkpt lat="45.6868087" lon="9.444072"><ele>277.0</ele><time>2026-04-15T14:20:22.091Z</time></trkpt><trkpt lat="45.6868301" lon="9.4439233"><ele>277.2</ele><time>2026-04-15T14:20:24.091Z</time></trkpt><trkpt lat="45.6868602" lon="9.4437828"><ele>277.4</ele><time>2026-04-15T14:20:26.091Z</time></trkpt><trkpt lat="45.6868719" lon="9.4436221"><ele>277.6</ele><time>2026-04-15T14:20:28.092Z</time></trkpt><trkpt lat="45.6868773" lon="9.4434685"><ele>277.8</ele><time>2026-04-15T14:20:30.091Z</time></trkpt><trkpt lat="45.6868972" lon="9.4433235"><ele>278.0</ele><time>2026-04-15T14:20:32.091Z</time></trkpt><trkpt lat="45.6868899" lon="9.4432279"><ele>278.0</ele><time>2026-04-15T14:20:33.092Z</time></trkpt><trkpt lat="45.6868956" lon="9.4430569"><ele>278.0</ele><time>2026-04-15T14:20:35.091Z</time></trkpt><trkpt lat="45.6868818" lon="9.4428809"><ele>278.0</ele><time>2026-04-15T14:20:37.091Z</time></trkpt><trkpt lat="45.6868685" lon="9.442784"><ele>278.0</ele><time>2026-04-15T14:20:38.091Z</time></trkpt><trkpt lat="45.6868629" lon="9.4426744"><ele>278.0</ele><time>2026-04-15T14:20:39.092Z</time></trkpt><trkpt lat="45.6868414" lon="9.4425046"><ele>278.0</ele><time>2026-04-15T14:20:41.091Z</time></trkpt><trkpt lat="45.6868299" lon="9.4424132"><ele>278.0</ele><time>2026-04-15T14:20:42.091Z</time></trkpt><trkpt lat="45.6868177" lon="9.4422996"><ele>278.0</ele><time>2026-04-15T14:20:43.092Z</time></trkpt><trkpt lat="45.6868069" lon="9.4421956"><ele>278.0</ele><time>2026-04-15T14:20:44.091Z</time></trkpt><trkpt lat="45.6868061" lon="9.4420921"><ele>278.0</ele><time>2026-04-15T14:20:45.092Z</time></trkpt><trkpt lat="45.6867786" lon="9.4418875"><ele>278.0</ele><time>2026-04-15T14:20:47.091Z</time></trkpt><trkpt lat="45.6867576" lon="9.4417827"><ele>277.33333333333337</ele><time>2026-04-15T14:20:48.091Z</time></trkpt><trkpt lat="45.6867394" lon="9.4416784"><ele>276.6666666666667</ele><time>2026-04-15T14:20:49.091Z</time></trkpt><trkpt lat="45.6867396" lon="9.4415666"><ele>276.0</ele><time>2026-04-15T14:20:50.092Z</time></trkpt><trkpt lat="45.6867199" lon="9.4414569"><ele>275.3333333333333</ele><time>2026-04-15T14:20:51.092Z</time></trkpt><trkpt lat="45.686731" lon="9.4413483"><ele>274.66666666666663</ele><time>2026-04-15T14:20:52.091Z</time></trkpt><trkpt lat="45.6867398" lon="9.4412392"><ele>274.0</ele><time>2026-04-15T14:20:53.091Z</time></trkpt><trkpt lat="45.6867507" lon="9.4411225"><ele>273.0</ele><time>2026-04-15T14:20:54.091Z</time></trkpt><trkpt lat="45.686775" lon="9.4410139"><ele>272.0</ele><time>2026-04-15T14:20:55.092Z</time></trkpt><trkpt lat="45.6867919" lon="9.4408907"><ele>271.0</ele><time>2026-04-15T14:20:56.091Z</time></trkpt><trkpt lat="45.6868093" lon="9.4407905"><ele>270.0</ele><time>2026-04-15T14:20:57.091Z</time></trkpt><trkpt lat="45.6868416" lon="9.4406617"><ele>269.0</ele><time>2026-04-15T14:20:58.092Z</time></trkpt><trkpt lat="45.6868564" lon="9.4405382"><ele>268.0</ele><time>2026-04-15T14:20:59.091Z</time></trkpt><trkpt lat="45.6868879" lon="9.4404337"><ele>267.8</ele><time>2026-04-15T14:21:00.091Z</time></trkpt><trkpt lat="45.686917" lon="9.4403358"><ele>267.6</ele><time>2026-04-15T14:21:01.091Z</time></trkpt><trkpt lat="45.6869603" lon="9.4401896"><ele>267.4</ele><time>2026-04-15T14:21:03.091Z</time></trkpt><trkpt lat="45.6869845" lon="9.4400466"><ele>267.2</ele><time>2026-04-15T14:21:05.092Z</time></trkpt><trkpt lat="45.6869889" lon="9.4399535"><ele>267.0</ele><time>2026-04-15T14:21:06.092Z</time></trkpt><trkpt lat="45.6870359" lon="9.4398017"><ele>267.0</ele><time>2026-04-15T14:21:08.091Z</time></trkpt><trkpt lat="45.6870573" lon="9.4396933"><ele>267.0</ele><time>2026-04-15T14:21:09.092Z</time></trkpt><trkpt lat="45.6870799" lon="9.4395434"><ele>267.0</ele><time>2026-04-15T14:21:11.091Z</time></trkpt><trkpt lat="45.6871111" lon="9.4394009"><ele>267.0</ele><time>2026-04-15T14:21:13.091Z</time></trkpt><trkpt lat="45.687142" lon="9.4392933"><ele>267.0</ele><time>2026-04-15T14:21:15.091Z</time></trkpt><trkpt lat="45.6871334" lon="9.4391623"><ele>266.8</ele><time>2026-04-15T14:21:19.091Z</time></trkpt><trkpt lat="45.6870499" lon="9.4390932"><ele>266.6</ele><time>2026-04-15T14:21:21.091Z</time></trkpt><trkpt lat="45.6869852" lon="9.4390695"><ele>266.40000000000003</ele><time>2026-04-15T14:21:22.091Z</time></trkpt><trkpt lat="45.6868754" lon="9.4390191"><ele>266.2</ele><time>2026-04-15T14:21:24.091Z</time></trkpt><trkpt lat="45.6867676" lon="9.4389574"><ele>266.0</ele><time>2026-04-15T14:21:26.091Z</time></trkpt><trkpt lat="45.6866512" lon="9.4389082"><ele>265.8</ele><time>2026-04-15T14:21:28.091Z</time></trkpt><trkpt lat="45.6865882" lon="9.4388752"><ele>265.6</ele><time>2026-04-15T14:21:29.092Z</time></trkpt><trkpt lat="45.6865224" lon="9.4388397"><ele>265.4</ele><time>2026-04-15T14:21:30.091Z</time></trkpt><trkpt lat="45.6863966" lon="9.4387859"><ele>265.2</ele><time>2026-04-15T14:21:32.091Z</time></trkpt><trkpt lat="45.6862883" lon="9.4387245"><ele>265.0</ele><time>2026-04-15T14:21:34.091Z</time></trkpt><trkpt lat="45.6861756" lon="9.4386676"><ele>265.2</ele><time>2026-04-15T14:21:36.091Z</time></trkpt><trkpt lat="45.6860646" lon="9.4386103"><ele>265.4</ele><time>2026-04-15T14:21:38.091Z</time></trkpt><trkpt lat="45.6859359" lon="9.4385718"><ele>265.6</ele><time>2026-04-15T14:21:40.091Z</time></trkpt><trkpt lat="45.685852" lon="9.4385383"><ele>265.8</ele><time>2026-04-15T14:21:42.092Z</time></trkpt><trkpt lat="45.6857837" lon="9.4384795"><ele>266.0</ele><time>2026-04-15T14:21:45.091Z</time></trkpt><trkpt lat="45.6857508" lon="9.4383973"><ele>266.0</ele><time>2026-04-15T14:21:48.091Z</time></trkpt><trkpt lat="45.6856728" lon="9.4384791"><ele>266.0</ele><time>2026-04-15T14:22:10.092Z</time></trkpt><trkpt lat="45.6856054" lon="9.4386202"><ele>266.0</ele><time>2026-04-15T14:22:12.091Z</time></trkpt><trkpt lat="45.6855702" lon="9.4387"><ele>266.0</ele><time>2026-04-15T14:22:13.091Z</time></trkpt><trkpt lat="45.6855361" lon="9.4387803"><ele>266.0</ele><time>2026-04-15T14:22:14.091Z</time></trkpt><trkpt lat="45.685505" lon="9.4388657"><ele>266.0</ele><time>2026-04-15T14:22:15.091Z</time></trkpt><trkpt lat="45.6854745" lon="9.4389472"><ele>265.8</ele><time>2026-04-15T14:22:16.091Z</time></trkpt><trkpt lat="45.6854261" lon="9.4390229"><ele>265.6</ele><time>2026-04-15T14:22:17.092Z</time></trkpt><trkpt lat="45.6853876" lon="9.4391062"><ele>265.4</ele><time>2026-04-15T14:22:18.091Z</time></trkpt><trkpt lat="45.6853706" lon="9.4391957"><ele>265.2</ele><time>2026-04-15T14:22:19.091Z</time></trkpt><trkpt lat="45.685325" lon="9.4393606"><ele>265.0</ele><time>2026-04-15T14:22:21.091Z</time></trkpt><trkpt lat="45.6852754" lon="9.4395233"><ele>265.0</ele><time>2026-04-15T14:22:23.092Z</time></trkpt><trkpt lat="45.6852503" lon="9.439607"><ele>265.0</ele><time>2026-04-15T14:22:24.091Z</time></trkpt><trkpt lat="45.6852278" lon="9.4396958"><ele>265.0</ele><time>2026-04-15T14:22:25.091Z</time></trkpt><trkpt lat="45.6851819" lon="9.439861"><ele>265.0</ele><time>2026-04-15T14:22:27.091Z</time></trkpt><trkpt lat="45.685154" lon="9.4399467"><ele>265.0</ele><time>2026-04-15T14:22:28.091Z</time></trkpt><trkpt lat="45.6851226" lon="9.4400455"><ele>265.0</ele><time>2026-04-15T14:22:29.091Z</time></trkpt><trkpt lat="45.6850886" lon="9.4401375"><ele>265.3333333333333</ele><time>2026-04-15T14:22:30.091Z</time></trkpt><trkpt lat="45.6850482" lon="9.4402163"><ele>265.66666666666663</ele><time>2026-04-15T14:22:31.091Z</time></trkpt><trkpt lat="45.685005" lon="9.4402884"><ele>266.0</ele><time>2026-04-15T14:22:32.091Z</time></trkpt><trkpt lat="45.6849239" lon="9.4404323"><ele>266.3333333333333</ele><time>2026-04-15T14:22:34.091Z</time></trkpt><trkpt lat="45.6848804" lon="9.4405088"><ele>266.6666666666667</ele><time>2026-04-15T14:22:35.092Z</time></trkpt><trkpt lat="45.6848388" lon="9.4405839"><ele>267.0</ele><time>2026-04-15T14:22:36.091Z</time></trkpt><trkpt lat="45.6847931" lon="9.4406621"><ele>268.0</ele><time>2026-04-15T14:22:37.091Z</time></trkpt><trkpt lat="45.6847423" lon="9.4407304"><ele>269.0</ele><time>2026-04-15T14:22:38.092Z</time></trkpt><trkpt lat="45.6846931" lon="9.4407982"><ele>270.0</ele><time>2026-04-15T14:22:39.091Z</time></trkpt><trkpt lat="45.6845848" lon="9.4408982"><ele>271.0</ele><time>2026-04-15T14:22:41.091Z</time></trkpt><trkpt lat="45.684534" lon="9.4409664"><ele>272.0</ele><time>2026-04-15T14:22:42.091Z</time></trkpt><trkpt lat="45.6844915" lon="9.4410426"><ele>273.0</ele><time>2026-04-15T14:22:43.091Z</time></trkpt><trkpt lat="45.6844583" lon="9.4411255"><ele>273.0</ele><time>2026-04-15T14:22:44.092Z</time></trkpt><trkpt lat="45.6844315" lon="9.4412189"><ele>273.0</ele><time>2026-04-15T14:22:45.091Z</time></trkpt><trkpt lat="45.6844032" lon="9.4413136"><ele>273.0</ele><time>2026-04-15T14:22:46.091Z</time></trkpt><trkpt lat="45.6843767" lon="9.441404"><ele>273.0</ele><time>2026-04-15T14:22:47.091Z</time></trkpt><trkpt lat="45.6843471" lon="9.4414986"><ele>273.0</ele><time>2026-04-15T14:22:48.091Z</time></trkpt><trkpt lat="45.6843168" lon="9.4415841"><ele>273.0</ele><time>2026-04-15T14:22:49.091Z</time></trkpt><trkpt lat="45.6842845" lon="9.4416685"><ele>273.0</ele><time>2026-04-15T14:22:50.092Z</time></trkpt><trkpt lat="45.684246" lon="9.4417573"><ele>273.2857142857143</ele><time>2026-04-15T14:22:51.091Z</time></trkpt><trkpt lat="45.6842057" lon="9.4418389"><ele>273.57142857142856</ele><time>2026-04-15T14:22:52.092Z</time></trkpt><trkpt lat="45.6841678" lon="9.4419264"><ele>273.8571428571429</ele><time>2026-04-15T14:22:53.091Z</time></trkpt><trkpt lat="45.6841205" lon="9.4420043"><ele>274.1428571428571</ele><time>2026-04-15T14:22:54.092Z</time></trkpt><trkpt lat="45.6840768" lon="9.4420865"><ele>274.42857142857144</ele><time>2026-04-15T14:22:55.091Z</time></trkpt><trkpt lat="45.6840394" lon="9.4421653"><ele>274.7142857142857</ele><time>2026-04-15T14:22:56.092Z</time></trkpt><trkpt lat="45.6840117" lon="9.4422668"><ele>275.0</ele><time>2026-04-15T14:22:57.091Z</time></trkpt><trkpt lat="45.6839552" lon="9.442313"><ele>275.0</ele><time>2026-04-15T14:22:58.091Z</time></trkpt><trkpt lat="45.6839236" lon="9.4424048"><ele>275.0</ele><time>2026-04-15T14:22:59.091Z</time></trkpt><trkpt lat="45.6838434" lon="9.4425577"><ele>275.0</ele><time>2026-04-15T14:23:01.091Z</time></trkpt><trkpt lat="45.6837842" lon="9.442695"><ele>275.0</ele><time>2026-04-15T14:23:03.091Z</time></trkpt><trkpt lat="45.6837194" lon="9.4428381"><ele>275.0</ele><time>2026-04-15T14:23:05.091Z</time></trkpt><trkpt lat="45.6836758" lon="9.4429169"><ele>275.2857142857143</ele><time>2026-04-15T14:23:06.091Z</time></trkpt><trkpt lat="45.6836341" lon="9.4429979"><ele>275.57142857142856</ele><time>2026-04-15T14:23:07.092Z</time></trkpt><trkpt lat="45.6836044" lon="9.4431048"><ele>275.85714285714283</ele><time>2026-04-15T14:23:08.091Z</time></trkpt><trkpt lat="45.6835622" lon="9.4431869"><ele>276.1428571428571</ele><time>2026-04-15T14:23:09.092Z</time></trkpt><trkpt lat="45.6835122" lon="9.4432658"><ele>276.4285714285714</ele><time>2026-04-15T14:23:10.092Z</time></trkpt><trkpt lat="45.6834889" lon="9.4433509"><ele>276.7142857142857</ele><time>2026-04-15T14:23:11.091Z</time></trkpt><trkpt lat="45.6834658" lon="9.4434349"><ele>277.0</ele><time>2026-04-15T14:23:12.092Z</time></trkpt><trkpt lat="45.6834088" lon="9.4435537"><ele>276.4</ele><time>2026-04-15T14:23:14.092Z</time></trkpt><trkpt lat="45.6833676" lon="9.4436718"><ele>275.79999999999995</ele><time>2026-04-15T14:23:16.092Z</time></trkpt><trkpt lat="45.683314" lon="9.4437936"><ele>275.2</ele><time>2026-04-15T14:23:18.091Z</time></trkpt><trkpt lat="45.683245" lon="9.4439149"><ele>274.59999999999997</ele><time>2026-04-15T14:23:20.092Z</time></trkpt><trkpt lat="45.6832051" lon="9.4440471"><ele>274.0</ele><time>2026-04-15T14:23:22.091Z</time></trkpt><trkpt lat="45.6831941" lon="9.4441818"><ele>274.0</ele><time>2026-04-15T14:23:24.092Z</time></trkpt><trkpt lat="45.6831469" lon="9.4442911"><ele>274.0</ele><time>2026-04-15T14:23:26.091Z</time></trkpt><trkpt lat="45.6830838" lon="9.4444407"><ele>274.0</ele><time>2026-04-15T14:23:28.092Z</time></trkpt><trkpt lat="45.6830138" lon="9.4444673"><ele>274.0</ele><time>2026-04-15T14:23:29.092Z</time></trkpt><trkpt lat="45.6828755" lon="9.4445597"><ele>274.0</ele><time>2026-04-15T14:23:31.091Z</time></trkpt><trkpt lat="45.6827823" lon="9.4445683"><ele>273.59999999999997</ele><time>2026-04-15T14:23:33.091Z</time></trkpt><trkpt lat="45.6826906" lon="9.4445582"><ele>273.2</ele><time>2026-04-15T14:23:35.092Z</time></trkpt><trkpt lat="45.6826112" lon="9.444607"><ele>272.79999999999995</ele><time>2026-04-15T14:23:41.092Z</time></trkpt><trkpt lat="45.6825279" lon="9.4446338"><ele>272.4</ele><time>2026-04-15T14:23:43.091Z</time></trkpt><trkpt lat="45.6823947" lon="9.4446495"><ele>272.0</ele><time>2026-04-15T14:23:45.092Z</time></trkpt><trkpt lat="45.6823194" lon="9.4446848"><ele>272.0</ele><time>2026-04-15T14:23:47.092Z</time></trkpt><trkpt lat="45.6822478" lon="9.4446999"><ele>272.0</ele><time>2026-04-15T14:23:49.092Z</time></trkpt><trkpt lat="45.6821832" lon="9.4446976"><ele>272.0</ele><time>2026-04-15T14:23:50.091Z</time></trkpt><trkpt lat="45.682098" lon="9.4447061"><ele>272.0</ele><time>2026-04-15T14:23:51.091Z</time></trkpt><trkpt lat="45.6820279" lon="9.4446989"><ele>272.0</ele><time>2026-04-15T14:23:52.091Z</time></trkpt><trkpt lat="45.6819039" lon="9.4447003"><ele>272.0</ele><time>2026-04-15T14:23:54.091Z</time></trkpt><trkpt lat="45.681805" lon="9.4446948"><ele>272.0</ele><time>2026-04-15T14:23:56.092Z</time></trkpt><trkpt lat="45.6817094" lon="9.4446725"><ele>272.0</ele><time>2026-04-15T14:23:58.091Z</time></trkpt><trkpt lat="45.6816009" lon="9.4446468"><ele>272.0</ele><time>2026-04-15T14:24:00.092Z</time></trkpt><trkpt lat="45.6815381" lon="9.4446943"><ele>272.0</ele><time>2026-04-15T14:24:01.091Z</time></trkpt><trkpt lat="45.681454" lon="9.4446773"><ele>272.0</ele><time>2026-04-15T14:24:03.092Z</time></trkpt><trkpt lat="45.6813903" lon="9.4446564"><ele>272.0</ele><time>2026-04-15T14:24:04.091Z</time></trkpt><trkpt lat="45.6812646" lon="9.4446558"><ele>272.0</ele><time>2026-04-15T14:24:06.092Z</time></trkpt><trkpt lat="45.6811624" lon="9.4446774"><ele>272.0</ele><time>2026-04-15T14:24:08.091Z</time></trkpt><trkpt lat="45.6810591" lon="9.4446352"><ele>272.0</ele><time>2026-04-15T14:24:10.092Z</time></trkpt><trkpt lat="45.6809305" lon="9.4446021"><ele>272.0</ele><time>2026-04-15T14:24:12.092Z</time></trkpt><trkpt lat="45.680861" lon="9.4445858"><ele>272.0</ele><time>2026-04-15T14:24:14.091Z</time></trkpt><trkpt lat="45.6807701" lon="9.4445807"><ele>272.1666666666667</ele><time>2026-04-15T14:24:16.091Z</time></trkpt><trkpt lat="45.6807053" lon="9.4445695"><ele>272.33333333333337</ele><time>2026-04-15T14:24:17.091Z</time></trkpt><trkpt lat="45.6806375" lon="9.4445614"><ele>272.5</ele><time>2026-04-15T14:24:18.091Z</time></trkpt><trkpt lat="45.6805376" lon="9.4445504"><ele>272.6666666666667</ele><time>2026-04-15T14:24:20.092Z</time></trkpt><trkpt lat="45.6804591" lon="9.4445537"><ele>272.8333333333333</ele><time>2026-04-15T14:24:22.092Z</time></trkpt><trkpt lat="45.6803815" lon="9.444545"><ele>273.0</ele><time>2026-04-15T14:24:24.091Z</time></trkpt><trkpt lat="45.6803203" lon="9.4445892"><ele>272.4</ele><time>2026-04-15T14:24:25.092Z</time></trkpt><trkpt lat="45.680233" lon="9.4445711"><ele>271.8</ele><time>2026-04-15T14:24:27.091Z</time></trkpt><trkpt lat="45.6801261" lon="9.444492"><ele>271.2</ele><time>2026-04-15T14:24:29.091Z</time></trkpt><trkpt lat="45.6800084" lon="9.4443966"><ele>270.6</ele><time>2026-04-15T14:24:31.092Z</time></trkpt><trkpt lat="45.6799245" lon="9.4443734"><ele>270.0</ele><time>2026-04-15T14:24:32.092Z</time></trkpt><trkpt lat="45.6798547" lon="9.4443294"><ele>270.0</ele><time>2026-04-15T14:24:33.092Z</time></trkpt><trkpt lat="45.6797898" lon="9.4443285"><ele>270.0</ele><time>2026-04-15T14:24:34.091Z</time></trkpt><trkpt lat="45.6796661" lon="9.444317"><ele>270.0</ele><time>2026-04-15T14:24:36.091Z</time></trkpt><trkpt lat="45.6795897" lon="9.4443064"><ele>270.0</ele><time>2026-04-15T14:24:37.091Z</time></trkpt><trkpt lat="45.6795227" lon="9.4442928"><ele>270.0</ele><time>2026-04-15T14:24:38.092Z</time></trkpt><trkpt lat="45.6794479" lon="9.4442704"><ele>270.0</ele><time>2026-04-15T14:24:39.091Z</time></trkpt><trkpt lat="45.6793817" lon="9.4442507"><ele>269.5</ele><time>2026-04-15T14:24:40.091Z</time></trkpt><trkpt lat="45.6793031" lon="9.4442439"><ele>269.0</ele><time>2026-04-15T14:24:41.092Z</time></trkpt><trkpt lat="45.679217" lon="9.4442243"><ele>268.5</ele><time>2026-04-15T14:24:42.092Z</time></trkpt><trkpt lat="45.6791429" lon="9.444209"><ele>268.0</ele><time>2026-04-15T14:24:43.092Z</time></trkpt><trkpt lat="45.6790753" lon="9.4441973"><ele>267.5</ele><time>2026-04-15T14:24:44.092Z</time></trkpt><trkpt lat="45.6790096" lon="9.4441799"><ele>267.0</ele><time>2026-04-15T14:24:45.092Z</time></trkpt><trkpt lat="45.678931" lon="9.4441786"><ele>267.00000000000006</ele><time>2026-04-15T14:24:46.091Z</time></trkpt><trkpt lat="45.6788612" lon="9.4441722"><ele>267.0</ele><time>2026-04-15T14:24:47.092Z</time></trkpt><trkpt lat="45.6787947" lon="9.444168"><ele>267.0</ele><time>2026-04-15T14:24:48.091Z</time></trkpt><trkpt lat="45.6787243" lon="9.4441539"><ele>267.0</ele><time>2026-04-15T14:24:49.091Z</time></trkpt><trkpt lat="45.6786511" lon="9.4441323"><ele>267.0</ele><time>2026-04-15T14:24:50.091Z</time></trkpt><trkpt lat="45.6785746" lon="9.4441112"><ele>267.00000000000006</ele><time>2026-04-15T14:24:51.091Z</time></trkpt><trkpt lat="45.6784962" lon="9.4440875"><ele>267.0</ele><time>2026-04-15T14:24:52.091Z</time></trkpt><trkpt lat="45.6784146" lon="9.4440718"><ele>267.0</ele><time>2026-04-15T14:24:53.091Z</time></trkpt><trkpt lat="45.6783311" lon="9.4440438"><ele>267.0</ele><time>2026-04-15T14:24:54.091Z</time></trkpt><trkpt lat="45.6782495" lon="9.4440373"><ele>267.0</ele><time>2026-04-15T14:24:55.092Z</time></trkpt><trkpt lat="45.6781758" lon="9.4440288"><ele>267.0</ele><time>2026-04-15T14:24:56.091Z</time></trkpt><trkpt lat="45.6781024" lon="9.4440329"><ele>267.0</ele><time>2026-04-15T14:24:57.092Z</time></trkpt><trkpt lat="45.6780258" lon="9.4440133"><ele>267.0</ele><time>2026-04-15T14:24:58.091Z</time></trkpt><trkpt lat="45.6779432" lon="9.4440067"><ele>267.0</ele><time>2026-04-15T14:24:59.091Z</time></trkpt><trkpt lat="45.6778606" lon="9.4439963"><ele>267.0</ele><time>2026-04-15T14:25:00.091Z</time></trkpt><trkpt lat="45.6777846" lon="9.4439839"><ele>267.0</ele><time>2026-04-15T14:25:01.091Z</time></trkpt><trkpt lat="45.6776942" lon="9.4439514"><ele>267.0</ele><time>2026-04-15T14:25:02.092Z</time></trkpt><trkpt lat="45.6776094" lon="9.4439428"><ele>267.0</ele><time>2026-04-15T14:25:03.091Z</time></trkpt><trkpt lat="45.6775346" lon="9.4439251"><ele>267.0</ele><time>2026-04-15T14:25:04.091Z</time></trkpt><trkpt lat="45.6774467" lon="9.4438961"><ele>266.8333333333333</ele><time>2026-04-15T14:25:05.091Z</time></trkpt><trkpt lat="45.6773685" lon="9.443874"><ele>266.6666666666667</ele><time>2026-04-15T14:25:06.092Z</time></trkpt><trkpt lat="45.67729" lon="9.4438513"><ele>266.5</ele><time>2026-04-15T14:25:07.092Z</time></trkpt><trkpt lat="45.6772179" lon="9.4438548"><ele>266.33333333333337</ele><time>2026-04-15T14:25:08.092Z</time></trkpt><trkpt lat="45.6771503" lon="9.4438416"><ele>266.1666666666667</ele><time>2026-04-15T14:25:09.091Z</time></trkpt><trkpt lat="45.6770792" lon="9.4438228"><ele>266.0</ele><time>2026-04-15T14:25:10.091Z</time></trkpt><trkpt lat="45.6769994" lon="9.4438144"><ele>265.83333333333337</ele><time>2026-04-15T14:25:11.092Z</time></trkpt><trkpt lat="45.6769248" lon="9.4437932"><ele>265.6666666666667</ele><time>2026-04-15T14:25:12.091Z</time></trkpt><trkpt lat="45.6768498" lon="9.4437764"><ele>265.5</ele><time>2026-04-15T14:25:13.091Z</time></trkpt><trkpt lat="45.6767671" lon="9.4437547"><ele>265.3333333333333</ele><time>2026-04-15T14:25:14.091Z</time></trkpt><trkpt lat="45.6766914" lon="9.4437264"><ele>265.16666666666663</ele><time>2026-04-15T14:25:15.092Z</time></trkpt><trkpt lat="45.67662" lon="9.4436883"><ele>265.0</ele><time>2026-04-15T14:25:16.091Z</time></trkpt><trkpt lat="45.6765444" lon="9.443665"><ele>265.0</ele><time>2026-04-15T14:25:17.091Z</time></trkpt><trkpt lat="45.6764405" lon="9.4436197"><ele>265.0</ele><time>2026-04-15T14:25:19.091Z</time></trkpt><trkpt lat="45.6763378" lon="9.4435825"><ele>265.0</ele><time>2026-04-15T14:25:20.091Z</time></trkpt><trkpt lat="45.6762283" lon="9.4435367"><ele>265.0</ele><time>2026-04-15T14:25:21.091Z</time></trkpt><trkpt lat="45.6761397" lon="9.4435059"><ele>265.0</ele><time>2026-04-15T14:25:22.092Z</time></trkpt><trkpt lat="45.6760748" lon="9.4434817"><ele>264.8333333333333</ele><time>2026-04-15T14:25:23.091Z</time></trkpt><trkpt lat="45.6759964" lon="9.4434589"><ele>264.66666666666663</ele><time>2026-04-15T14:25:24.091Z</time></trkpt><trkpt lat="45.6759252" lon="9.4433932"><ele>264.5</ele><time>2026-04-15T14:25:25.091Z</time></trkpt><trkpt lat="45.6758518" lon="9.4433502"><ele>264.3333333333333</ele><time>2026-04-15T14:25:26.091Z</time></trkpt><trkpt lat="45.6757648" lon="9.4433147"><ele>264.1666666666667</ele><time>2026-04-15T14:25:27.091Z</time></trkpt><trkpt lat="45.675683" lon="9.4432811"><ele>264.0</ele><time>2026-04-15T14:25:28.091Z</time></trkpt><trkpt lat="45.6756049" lon="9.4432592"><ele>264.0</ele><time>2026-04-15T14:25:29.091Z</time></trkpt><trkpt lat="45.6755219" lon="9.4432284"><ele>264.0</ele><time>2026-04-15T14:25:30.091Z</time></trkpt><trkpt lat="45.6754426" lon="9.443206"><ele>264.0</ele><time>2026-04-15T14:25:31.092Z</time></trkpt><trkpt lat="45.6753626" lon="9.4431912"><ele>264.0</ele><time>2026-04-15T14:25:32.091Z</time></trkpt><trkpt lat="45.6752817" lon="9.4431337"><ele>264.0</ele><time>2026-04-15T14:25:33.092Z</time></trkpt><trkpt lat="45.6751977" lon="9.4431056"><ele>264.0</ele><time>2026-04-15T14:25:34.091Z</time></trkpt><trkpt lat="45.6751252" lon="9.4430867"><ele>263.6666666666667</ele><time>2026-04-15T14:25:35.092Z</time></trkpt><trkpt lat="45.6750393" lon="9.4430612"><ele>263.3333333333333</ele><time>2026-04-15T14:25:36.091Z</time></trkpt><trkpt lat="45.6749539" lon="9.4430375"><ele>263.0</ele><time>2026-04-15T14:25:37.091Z</time></trkpt><trkpt lat="45.6748722" lon="9.4430095"><ele>262.66666666666663</ele><time>2026-04-15T14:25:38.091Z</time></trkpt><trkpt lat="45.6747965" lon="9.4429822"><ele>262.3333333333333</ele><time>2026-04-15T14:25:39.092Z</time></trkpt><trkpt lat="45.6747205" lon="9.4429546"><ele>262.0</ele><time>2026-04-15T14:25:40.091Z</time></trkpt><trkpt lat="45.6746464" lon="9.442947"><ele>261.8333333333333</ele><time>2026-04-15T14:25:41.091Z</time></trkpt><trkpt lat="45.6745675" lon="9.4429214"><ele>261.66666666666663</ele><time>2026-04-15T14:25:42.091Z</time></trkpt><trkpt lat="45.6744931" lon="9.4428857"><ele>261.5</ele><time>2026-04-15T14:25:43.092Z</time></trkpt><trkpt lat="45.674416" lon="9.4428632"><ele>261.3333333333333</ele><time>2026-04-15T14:25:44.091Z</time></trkpt><trkpt lat="45.6743447" lon="9.4428408"><ele>261.1666666666667</ele><time>2026-04-15T14:25:45.091Z</time></trkpt><trkpt lat="45.6742694" lon="9.4428145"><ele>261.0</ele><time>2026-04-15T14:25:46.091Z</time></trkpt><trkpt lat="45.6742014" lon="9.442802"><ele>261.0</ele><time>2026-04-15T14:25:47.092Z</time></trkpt><trkpt lat="45.6740948" lon="9.4428415"><ele>261.0</ele><time>2026-04-15T14:25:49.091Z</time></trkpt><trkpt lat="45.6740171" lon="9.4428884"><ele>261.0</ele><time>2026-04-15T14:25:51.092Z</time></trkpt><trkpt lat="45.6739353" lon="9.4427978"><ele>261.0</ele><time>2026-04-15T14:25:53.092Z</time></trkpt><trkpt lat="45.6738874" lon="9.442733"><ele>261.0</ele><time>2026-04-15T14:25:54.092Z</time></trkpt><trkpt lat="45.673788" lon="9.4426028"><ele>261.0</ele><time>2026-04-15T14:25:56.091Z</time></trkpt><trkpt lat="45.6737399" lon="9.4425427"><ele>261.0</ele><time>2026-04-15T14:25:57.092Z</time></trkpt><trkpt lat="45.6736889" lon="9.4424799"><ele>261.0</ele><time>2026-04-15T14:25:58.092Z</time></trkpt><trkpt lat="45.673642" lon="9.4424079"><ele>261.0</ele><time>2026-04-15T14:25:59.091Z</time></trkpt><trkpt lat="45.6735879" lon="9.4423404"><ele>261.0</ele><time>2026-04-15T14:26:00.091Z</time></trkpt><trkpt lat="45.6735355" lon="9.442269"><ele>261.0</ele><time>2026-04-15T14:26:01.091Z</time></trkpt><trkpt lat="45.6734875" lon="9.4421889"><ele>261.0</ele><time>2026-04-15T14:26:02.091Z</time></trkpt><trkpt lat="45.673434" lon="9.4421093"><ele>260.8333333333333</ele><time>2026-04-15T14:26:03.091Z</time></trkpt><trkpt lat="45.6733739" lon="9.4420276"><ele>260.6666666666667</ele><time>2026-04-15T14:26:04.091Z</time></trkpt><trkpt lat="45.6733074" lon="9.4419418"><ele>260.5</ele><time>2026-04-15T14:26:05.091Z</time></trkpt><trkpt lat="45.67325" lon="9.4418577"><ele>260.33333333333337</ele><time>2026-04-15T14:26:06.091Z</time></trkpt><trkpt lat="45.6731874" lon="9.441766"><ele>260.1666666666667</ele><time>2026-04-15T14:26:07.091Z</time></trkpt><trkpt lat="45.6731213" lon="9.4416596"><ele>260.0</ele><time>2026-04-15T14:26:08.091Z</time></trkpt><trkpt lat="45.6730564" lon="9.4415576"><ele>260.0</ele><time>2026-04-15T14:26:09.091Z</time></trkpt><trkpt lat="45.6729979" lon="9.4414806"><ele>260.0</ele><time>2026-04-15T14:26:10.092Z</time></trkpt><trkpt lat="45.6729382" lon="9.4414042"><ele>260.0</ele><time>2026-04-15T14:26:11.091Z</time></trkpt><trkpt lat="45.6728902" lon="9.441314"><ele>260.0</ele><time>2026-04-15T14:26:12.091Z</time></trkpt><trkpt lat="45.672842" lon="9.4411848"><ele>260.0</ele><time>2026-04-15T14:26:14.091Z</time></trkpt><trkpt lat="45.672802" lon="9.4410525"><ele>260.0</ele><time>2026-04-15T14:26:16.092Z</time></trkpt><trkpt lat="45.6727406" lon="9.4409931"><ele>259.5</ele><time>2026-04-15T14:26:17.091Z</time></trkpt><trkpt lat="45.6726766" lon="9.4409822"><ele>259.0</ele><time>2026-04-15T14:26:18.091Z</time></trkpt><trkpt lat="45.6725712" lon="9.4409181"><ele>258.5</ele><time>2026-04-15T14:26:20.091Z</time></trkpt><trkpt lat="45.6725193" lon="9.4408582"><ele>258.0</ele><time>2026-04-15T14:26:21.092Z</time></trkpt><trkpt lat="45.6724619" lon="9.4407858"><ele>257.5</ele><time>2026-04-15T14:26:22.091Z</time></trkpt><trkpt lat="45.6723912" lon="9.4407223"><ele>257.0</ele><time>2026-04-15T14:26:23.091Z</time></trkpt><trkpt lat="45.6723276" lon="9.4406496"><ele>257.0</ele><time>2026-04-15T14:26:24.092Z</time></trkpt><trkpt lat="45.67226" lon="9.4405971"><ele>257.0</ele><time>2026-04-15T14:26:25.091Z</time></trkpt><trkpt lat="45.672197" lon="9.4405244"><ele>257.0</ele><time>2026-04-15T14:26:26.091Z</time></trkpt><trkpt lat="45.6721374" lon="9.4404641"><ele>257.0</ele><time>2026-04-15T14:26:27.091Z</time></trkpt><trkpt lat="45.6720639" lon="9.4403942"><ele>257.0</ele><time>2026-04-15T14:26:28.091Z</time></trkpt><trkpt lat="45.6720062" lon="9.4403319"><ele>257.0</ele><time>2026-04-15T14:26:29.091Z</time></trkpt><trkpt lat="45.6719412" lon="9.4402597"><ele>256.6666666666667</ele><time>2026-04-15T14:26:30.092Z</time></trkpt><trkpt lat="45.6718726" lon="9.4401876"><ele>256.33333333333337</ele><time>2026-04-15T14:26:31.091Z</time></trkpt><trkpt lat="45.6718018" lon="9.4401395"><ele>256.0</ele><time>2026-04-15T14:26:32.091Z</time></trkpt><trkpt lat="45.6717308" lon="9.4400675"><ele>255.66666666666669</ele><time>2026-04-15T14:26:33.092Z</time></trkpt><trkpt lat="45.6716532" lon="9.4400074"><ele>255.33333333333334</ele><time>2026-04-15T14:26:34.091Z</time></trkpt><trkpt lat="45.6715848" lon="9.4399335"><ele>255.0</ele><time>2026-04-15T14:26:35.091Z</time></trkpt><trkpt lat="45.6715114" lon="9.4398642"><ele>255.0</ele><time>2026-04-15T14:26:36.092Z</time></trkpt><trkpt lat="45.6714334" lon="9.4398031"><ele>255.0</ele><time>2026-04-15T14:26:37.091Z</time></trkpt><trkpt lat="45.6713658" lon="9.4397415"><ele>255.0</ele><time>2026-04-15T14:26:38.092Z</time></trkpt><trkpt lat="45.6712849" lon="9.4396727"><ele>255.0</ele><time>2026-04-15T14:26:39.092Z</time></trkpt><trkpt lat="45.6712133" lon="9.4396005"><ele>255.0</ele><time>2026-04-15T14:26:40.091Z</time></trkpt><trkpt lat="45.6711455" lon="9.4395234"><ele>255.0</ele><time>2026-04-15T14:26:41.091Z</time></trkpt><trkpt lat="45.6710713" lon="9.4394589"><ele>254.66666666666666</ele><time>2026-04-15T14:26:42.092Z</time></trkpt><trkpt lat="45.6710021" lon="9.4393887"><ele>254.33333333333331</ele><time>2026-04-15T14:26:43.091Z</time></trkpt><trkpt lat="45.6709201" lon="9.4393269"><ele>254.0</ele><time>2026-04-15T14:26:44.091Z</time></trkpt><trkpt lat="45.670842" lon="9.4392611"><ele>253.66666666666666</ele><time>2026-04-15T14:26:45.091Z</time></trkpt><trkpt lat="45.6707678" lon="9.4391912"><ele>253.33333333333331</ele><time>2026-04-15T14:26:46.091Z</time></trkpt><trkpt lat="45.6706967" lon="9.4391281"><ele>253.0</ele><time>2026-04-15T14:26:47.091Z</time></trkpt><trkpt lat="45.6706063" lon="9.4390504"><ele>252.99999999999997</ele><time>2026-04-15T14:26:48.091Z</time></trkpt><trkpt lat="45.6705308" lon="9.4389856"><ele>253.0</ele><time>2026-04-15T14:26:49.092Z</time></trkpt><trkpt lat="45.6704621" lon="9.438913"><ele>253.0</ele><time>2026-04-15T14:26:50.091Z</time></trkpt><trkpt lat="45.6703827" lon="9.4388437"><ele>253.0</ele><time>2026-04-15T14:26:51.091Z</time></trkpt><trkpt lat="45.6703071" lon="9.4387738"><ele>252.99999999999997</ele><time>2026-04-15T14:26:52.091Z</time></trkpt><trkpt lat="45.6702377" lon="9.4386933"><ele>253.0</ele><time>2026-04-15T14:26:53.091Z</time></trkpt><trkpt lat="45.6701663" lon="9.4386098"><ele>252.49999999999997</ele><time>2026-04-15T14:26:54.091Z</time></trkpt><trkpt lat="45.6700879" lon="9.438527"><ele>252.0</ele><time>2026-04-15T14:26:55.091Z</time></trkpt><trkpt lat="45.6700163" lon="9.4384753"><ele>251.5</ele><time>2026-04-15T14:26:56.092Z</time></trkpt><trkpt lat="45.669952" lon="9.4384007"><ele>251.0</ele><time>2026-04-15T14:26:57.091Z</time></trkpt><trkpt lat="45.6698922" lon="9.4383406"><ele>250.49999999999997</ele><time>2026-04-15T14:26:58.091Z</time></trkpt><trkpt lat="45.6698446" lon="9.4382793"><ele>250.0</ele><time>2026-04-15T14:26:59.091Z</time></trkpt><trkpt lat="45.6697896" lon="9.4381173"><ele>250.0</ele><time>2026-04-15T14:27:01.092Z</time></trkpt><trkpt lat="45.6697546" lon="9.4379862"><ele>250.0</ele><time>2026-04-15T14:27:03.091Z</time></trkpt><trkpt lat="45.6696765" lon="9.4379445"><ele>250.0</ele><time>2026-04-15T14:27:05.091Z</time></trkpt><trkpt lat="45.6695932" lon="9.4379331"><ele>250.0</ele><time>2026-04-15T14:27:07.091Z</time></trkpt><trkpt lat="45.6695126" lon="9.4379774"><ele>250.0</ele><time>2026-04-15T14:27:09.091Z</time></trkpt><trkpt lat="45.6693944" lon="9.4378993"><ele>249.8</ele><time>2026-04-15T14:27:11.091Z</time></trkpt><trkpt lat="45.6693388" lon="9.437844"><ele>249.6</ele><time>2026-04-15T14:27:12.091Z</time></trkpt><trkpt lat="45.6692438" lon="9.4377463"><ele>249.39999999999998</ele><time>2026-04-15T14:27:14.092Z</time></trkpt><trkpt lat="45.6691279" lon="9.4376304"><ele>249.2</ele><time>2026-04-15T14:27:16.091Z</time></trkpt><trkpt lat="45.6690694" lon="9.4375902"><ele>249.0</ele><time>2026-04-15T14:27:17.091Z</time></trkpt><trkpt lat="45.6690065" lon="9.4375351"><ele>249.0</ele><time>2026-04-15T14:27:18.091Z</time></trkpt><trkpt lat="45.6689469" lon="9.437473"><ele>249.0</ele><time>2026-04-15T14:27:19.092Z</time></trkpt><trkpt lat="45.6688885" lon="9.4374092"><ele>249.0</ele><time>2026-04-15T14:27:20.091Z</time></trkpt><trkpt lat="45.6688245" lon="9.437357"><ele>249.0</ele><time>2026-04-15T14:27:21.091Z</time></trkpt><trkpt lat="45.6687538" lon="9.4373026"><ele>249.0</ele><time>2026-04-15T14:27:22.091Z</time></trkpt><trkpt lat="45.6686869" lon="9.4372427"><ele>249.0</ele><time>2026-04-15T14:27:23.091Z</time></trkpt><trkpt lat="45.6686158" lon="9.4371922"><ele>249.16666666666666</ele><time>2026-04-15T14:27:24.091Z</time></trkpt><trkpt lat="45.6685546" lon="9.4371428"><ele>249.33333333333331</ele><time>2026-04-15T14:27:25.091Z</time></trkpt><trkpt lat="45.6684883" lon="9.4370951"><ele>249.5</ele><time>2026-04-15T14:27:26.092Z</time></trkpt><trkpt lat="45.6684197" lon="9.4370758"><ele>249.66666666666666</ele><time>2026-04-15T14:27:27.091Z</time></trkpt><trkpt lat="45.6683396" lon="9.4370261"><ele>249.83333333333331</ele><time>2026-04-15T14:27:28.091Z</time></trkpt><trkpt lat="45.668268" lon="9.4369707"><ele>250.0</ele><time>2026-04-15T14:27:29.091Z</time></trkpt><trkpt lat="45.66819" lon="9.4369167"><ele>249.99999999999997</ele><time>2026-04-15T14:27:30.091Z</time></trkpt><trkpt lat="45.6681374" lon="9.4368526"><ele>250.0</ele><time>2026-04-15T14:27:31.092Z</time></trkpt><trkpt lat="45.6680702" lon="9.436789"><ele>250.0</ele><time>2026-04-15T14:27:32.091Z</time></trkpt><trkpt lat="45.668" lon="9.4367285"><ele>250.0</ele><time>2026-04-15T14:27:33.091Z</time></trkpt><trkpt lat="45.6679257" lon="9.4366643"><ele>249.99999999999997</ele><time>2026-04-15T14:27:34.092Z</time></trkpt><trkpt lat="45.6678606" lon="9.4366056"><ele>250.0</ele><time>2026-04-15T14:27:35.092Z</time></trkpt><trkpt lat="45.6677974" lon="9.4365281"><ele>249.49999999999997</ele><time>2026-04-15T14:27:36.091Z</time></trkpt><trkpt lat="45.6677386" lon="9.4364686"><ele>249.0</ele><time>2026-04-15T14:27:37.091Z</time></trkpt><trkpt lat="45.6676706" lon="9.4364054"><ele>248.5</ele><time>2026-04-15T14:27:38.092Z</time></trkpt><trkpt lat="45.6676047" lon="9.4363464"><ele>248.0</ele><time>2026-04-15T14:27:39.091Z</time></trkpt><trkpt lat="45.6675454" lon="9.4362752"><ele>247.49999999999997</ele><time>2026-04-15T14:27:40.091Z</time></trkpt><trkpt lat="45.667479" lon="9.4362117"><ele>247.0</ele><time>2026-04-15T14:27:41.091Z</time></trkpt><trkpt lat="45.6674191" lon="9.4361582"><ele>246.83333333333331</ele><time>2026-04-15T14:27:42.091Z</time></trkpt><trkpt lat="45.6673589" lon="9.4360907"><ele>246.66666666666666</ele><time>2026-04-15T14:27:43.091Z</time></trkpt><trkpt lat="45.6672947" lon="9.436023"><ele>246.5</ele><time>2026-04-15T14:27:44.092Z</time></trkpt><trkpt lat="45.6672335" lon="9.4359534"><ele>246.33333333333331</ele><time>2026-04-15T14:27:45.092Z</time></trkpt><trkpt lat="45.6671759" lon="9.4359002"><ele>246.16666666666666</ele><time>2026-04-15T14:27:46.091Z</time></trkpt><trkpt lat="45.6671179" lon="9.4358504"><ele>246.0</ele><time>2026-04-15T14:27:47.092Z</time></trkpt><trkpt lat="45.667015" lon="9.4357335"><ele>246.0</ele><time>2026-04-15T14:27:49.092Z</time></trkpt><trkpt lat="45.6669623" lon="9.4356701"><ele>246.0</ele><time>2026-04-15T14:27:50.092Z</time></trkpt><trkpt lat="45.6669145" lon="9.4356039"><ele>246.0</ele><time>2026-04-15T14:27:51.091Z</time></trkpt><trkpt lat="45.6668659" lon="9.4355441"><ele>246.0</ele><time>2026-04-15T14:27:52.091Z</time></trkpt><trkpt lat="45.6668142" lon="9.4354909"><ele>246.0</ele><time>2026-04-15T14:27:53.091Z</time></trkpt><trkpt lat="45.6667231" lon="9.4353651"><ele>246.0</ele><time>2026-04-15T14:27:55.091Z</time></trkpt><trkpt lat="45.6666364" lon="9.4352674"><ele>245.60000000000002</ele><time>2026-04-15T14:27:57.091Z</time></trkpt><trkpt lat="45.666581" lon="9.4352079"><ele>245.20000000000002</ele><time>2026-04-15T14:27:58.091Z</time></trkpt><trkpt lat="45.6665293" lon="9.4351503"><ele>244.79999999999998</ele><time>2026-04-15T14:27:59.091Z</time></trkpt><trkpt lat="45.6664548" lon="9.4350329"><ele>244.39999999999998</ele><time>2026-04-15T14:28:01.091Z</time></trkpt><trkpt lat="45.6663667" lon="9.4348997"><ele>244.0</ele><time>2026-04-15T14:28:03.091Z</time></trkpt><trkpt lat="45.6663079" lon="9.4347957"><ele>244.0</ele><time>2026-04-15T14:28:05.091Z</time></trkpt><trkpt lat="45.6662562" lon="9.4346721"><ele>244.0</ele><time>2026-04-15T14:28:07.091Z</time></trkpt><trkpt lat="45.6662843" lon="9.4345253"><ele>244.0</ele><time>2026-04-15T14:28:09.505Z</time></trkpt><trkpt lat="45.6663391" lon="9.4343415"><ele>244.0</ele><time>2026-04-15T14:28:11.092Z</time></trkpt><trkpt lat="45.666375" lon="9.4341927"><ele>243.66666666666666</ele><time>2026-04-15T14:28:13.092Z</time></trkpt><trkpt lat="45.666429" lon="9.4340332"><ele>243.33333333333331</ele><time>2026-04-15T14:28:15.095Z</time></trkpt><trkpt lat="45.6664562" lon="9.4339505"><ele>243.0</ele><time>2026-04-15T14:28:16.096Z</time></trkpt><trkpt lat="45.6664843" lon="9.43386"><ele>242.66666666666669</ele><time>2026-04-15T14:28:17.095Z</time></trkpt><trkpt lat="45.6665243" lon="9.433713"><ele>242.33333333333334</ele><time>2026-04-15T14:28:19.095Z</time></trkpt><trkpt lat="45.6665665" lon="9.4336191"><ele>242.0</ele><time>2026-04-15T14:28:20.095Z</time></trkpt><trkpt lat="45.6665945" lon="9.4335295"><ele>242.0</ele><time>2026-04-15T14:28:21.096Z</time></trkpt><trkpt lat="45.6666709" lon="9.4333685"><ele>242.0</ele><time>2026-04-15T14:28:23.095Z</time></trkpt><trkpt lat="45.666708" lon="9.4332932"><ele>242.0</ele><time>2026-04-15T14:28:24.095Z</time></trkpt><trkpt lat="45.6667416" lon="9.4332169"><ele>242.0</ele><time>2026-04-15T14:28:25.095Z</time></trkpt><trkpt lat="45.6668009" lon="9.4330643"><ele>242.0</ele><time>2026-04-15T14:28:27.095Z</time></trkpt><trkpt lat="45.666848" lon="9.4329168"><ele>242.16666666666669</ele><time>2026-04-15T14:28:29.095Z</time></trkpt><trkpt lat="45.6668916" lon="9.4328055"><ele>242.33333333333334</ele><time>2026-04-15T14:28:31.095Z</time></trkpt><trkpt lat="45.6669511" lon="9.4327391"><ele>242.5</ele><time>2026-04-15T14:28:35.095Z</time></trkpt><trkpt lat="45.6669791" lon="9.4326397"><ele>242.66666666666669</ele><time>2026-04-15T14:28:51.095Z</time></trkpt><trkpt lat="45.667019" lon="9.4325279"><ele>242.83333333333334</ele><time>2026-04-15T14:28:53.095Z</time></trkpt><trkpt lat="45.6670309" lon="9.4324363"><ele>243.0</ele><time>2026-04-15T14:28:54.096Z</time></trkpt><trkpt lat="45.6670013" lon="9.4322965"><ele>243.0</ele><time>2026-04-15T14:28:56.096Z</time></trkpt><trkpt lat="45.6669317" lon="9.4321766"><ele>243.0</ele><time>2026-04-15T14:28:58.095Z</time></trkpt><trkpt lat="45.666884" lon="9.4321156"><ele>243.0</ele><time>2026-04-15T14:28:59.096Z</time></trkpt><trkpt lat="45.666824" lon="9.4320576"><ele>243.0</ele><time>2026-04-15T14:29:00.095Z</time></trkpt><trkpt lat="45.6667714" lon="9.4320056"><ele>243.0</ele><time>2026-04-15T14:29:01.095Z</time></trkpt><trkpt lat="45.666662" lon="9.4318997"><ele>243.0</ele><time>2026-04-15T14:29:03.095Z</time></trkpt><trkpt lat="45.6666071" lon="9.4318434"><ele>242.71428571428572</ele><time>2026-04-15T14:29:04.095Z</time></trkpt><trkpt lat="45.6665507" lon="9.4317807"><ele>242.42857142857144</ele><time>2026-04-15T14:29:05.095Z</time></trkpt><trkpt lat="45.6664987" lon="9.4317279"><ele>242.14285714285717</ele><time>2026-04-15T14:29:06.095Z</time></trkpt><trkpt lat="45.6664436" lon="9.4316729"><ele>241.85714285714286</ele><time>2026-04-15T14:29:07.095Z</time></trkpt><trkpt lat="45.6663826" lon="9.4316269"><ele>241.5714285714286</ele><time>2026-04-15T14:29:08.095Z</time></trkpt><trkpt lat="45.6663186" lon="9.4315655"><ele>241.2857142857143</ele><time>2026-04-15T14:29:09.095Z</time></trkpt><trkpt lat="45.6662586" lon="9.4314877"><ele>241.0</ele><time>2026-04-15T14:29:10.095Z</time></trkpt><trkpt lat="45.6662105" lon="9.4314071"><ele>241.0</ele><time>2026-04-15T14:29:11.095Z</time></trkpt><trkpt lat="45.6661596" lon="9.4313222"><ele>241.00000000000003</ele><time>2026-04-15T14:29:12.095Z</time></trkpt><trkpt lat="45.6661048" lon="9.4312664"><ele>241.0</ele><time>2026-04-15T14:29:13.095Z</time></trkpt><trkpt lat="45.6660386" lon="9.4312397"><ele>241.0</ele><time>2026-04-15T14:29:14.095Z</time></trkpt><trkpt lat="45.6659719" lon="9.4311952"><ele>241.00000000000003</ele><time>2026-04-15T14:29:15.095Z</time></trkpt><trkpt lat="45.6659064" lon="9.4311536"><ele>241.0</ele><time>2026-04-15T14:29:16.095Z</time></trkpt><trkpt lat="45.665841" lon="9.4310942"><ele>241.0</ele><time>2026-04-15T14:29:17.095Z</time></trkpt><trkpt lat="45.6657765" lon="9.4310387"><ele>241.16666666666666</ele><time>2026-04-15T14:29:18.096Z</time></trkpt><trkpt lat="45.6657183" lon="9.4309818"><ele>241.33333333333331</ele><time>2026-04-15T14:29:19.095Z</time></trkpt><trkpt lat="45.6656513" lon="9.4309292"><ele>241.5</ele><time>2026-04-15T14:29:20.095Z</time></trkpt><trkpt lat="45.6655842" lon="9.4308695"><ele>241.66666666666669</ele><time>2026-04-15T14:29:21.095Z</time></trkpt><trkpt lat="45.6655191" lon="9.4307977"><ele>241.83333333333334</ele><time>2026-04-15T14:29:22.095Z</time></trkpt><trkpt lat="45.6654551" lon="9.4307337"><ele>242.0</ele><time>2026-04-15T14:29:23.095Z</time></trkpt><trkpt lat="45.6653852" lon="9.4306652"><ele>242.00000000000003</ele><time>2026-04-15T14:29:24.095Z</time></trkpt><trkpt lat="45.6653101" lon="9.4306057"><ele>242.0</ele><time>2026-04-15T14:29:25.095Z</time></trkpt><trkpt lat="45.6652447" lon="9.430545"><ele>242.0</ele><time>2026-04-15T14:29:26.095Z</time></trkpt><trkpt lat="45.6651787" lon="9.4304737"><ele>242.0</ele><time>2026-04-15T14:29:27.095Z</time></trkpt><trkpt lat="45.665109" lon="9.4304054"><ele>242.00000000000003</ele><time>2026-04-15T14:29:28.096Z</time></trkpt><trkpt lat="45.6650489" lon="9.4303257"><ele>242.0</ele><time>2026-04-15T14:29:29.096Z</time></trkpt><trkpt lat="45.664982" lon="9.4302588"><ele>241.83333333333334</ele><time>2026-04-15T14:29:30.096Z</time></trkpt><trkpt lat="45.664912" lon="9.4302"><ele>241.66666666666669</ele><time>2026-04-15T14:29:31.095Z</time></trkpt><trkpt lat="45.6648491" lon="9.4301421"><ele>241.5</ele><time>2026-04-15T14:29:32.095Z</time></trkpt><trkpt lat="45.6647795" lon="9.430079"><ele>241.33333333333331</ele><time>2026-04-15T14:29:33.095Z</time></trkpt><trkpt lat="45.6647136" lon="9.4300085"><ele>241.16666666666666</ele><time>2026-04-15T14:29:34.095Z</time></trkpt><trkpt lat="45.6646469" lon="9.429935"><ele>241.0</ele><time>2026-04-15T14:29:35.095Z</time></trkpt><trkpt lat="45.6645868" lon="9.4298708"><ele>240.99999999999997</ele><time>2026-04-15T14:29:36.095Z</time></trkpt><trkpt lat="45.6645184" lon="9.4298061"><ele>241.0</ele><time>2026-04-15T14:29:37.095Z</time></trkpt><trkpt lat="45.6644572" lon="9.4297549"><ele>241.0</ele><time>2026-04-15T14:29:38.095Z</time></trkpt><trkpt lat="45.6643867" lon="9.4296992"><ele>241.0</ele><time>2026-04-15T14:29:39.095Z</time></trkpt><trkpt lat="45.6643214" lon="9.429602"><ele>240.99999999999997</ele><time>2026-04-15T14:29:40.096Z</time></trkpt><trkpt lat="45.6642544" lon="9.4295416"><ele>241.0</ele><time>2026-04-15T14:29:41.095Z</time></trkpt><trkpt lat="45.6641915" lon="9.4294748"><ele>240.49999999999997</ele><time>2026-04-15T14:29:42.095Z</time></trkpt><trkpt lat="45.664128" lon="9.4294093"><ele>240.0</ele><time>2026-04-15T14:29:43.096Z</time></trkpt><trkpt lat="45.6640579" lon="9.4293421"><ele>239.5</ele><time>2026-04-15T14:29:44.095Z</time></trkpt><trkpt lat="45.6639931" lon="9.4292696"><ele>239.0</ele><time>2026-04-15T14:29:45.095Z</time></trkpt><trkpt lat="45.66393" lon="9.4292074"><ele>238.49999999999997</ele><time>2026-04-15T14:29:46.095Z</time></trkpt><trkpt lat="45.6638599" lon="9.429144"><ele>238.0</ele><time>2026-04-15T14:29:47.096Z</time></trkpt><trkpt lat="45.6637913" lon="9.4290794"><ele>237.99999999999997</ele><time>2026-04-15T14:29:48.096Z</time></trkpt><trkpt lat="45.6637176" lon="9.429012"><ele>238.0</ele><time>2026-04-15T14:29:49.096Z</time></trkpt><trkpt lat="45.663654" lon="9.4289527"><ele>238.0</ele><time>2026-04-15T14:29:50.095Z</time></trkpt><trkpt lat="45.6635896" lon="9.4288975"><ele>238.0</ele><time>2026-04-15T14:29:51.095Z</time></trkpt><trkpt lat="45.6635215" lon="9.4288385"><ele>237.99999999999997</ele><time>2026-04-15T14:29:52.096Z</time></trkpt><trkpt lat="45.6634546" lon="9.4287874"><ele>238.0</ele><time>2026-04-15T14:29:53.096Z</time></trkpt><trkpt lat="45.6633938" lon="9.428749"><ele>238.14285714285714</ele><time>2026-04-15T14:29:54.095Z</time></trkpt><trkpt lat="45.6633254" lon="9.4287074"><ele>238.28571428571428</ele><time>2026-04-15T14:29:55.096Z</time></trkpt><trkpt lat="45.6632664" lon="9.4286558"><ele>238.42857142857144</ele><time>2026-04-15T14:29:56.095Z</time></trkpt><trkpt lat="45.6632189" lon="9.4285812"><ele>238.57142857142858</ele><time>2026-04-15T14:29:57.095Z</time></trkpt><trkpt lat="45.6631771" lon="9.4284792"><ele>238.71428571428572</ele><time>2026-04-15T14:29:58.095Z</time></trkpt><trkpt lat="45.6631497" lon="9.4283874"><ele>238.8571428571429</ele><time>2026-04-15T14:29:59.095Z</time></trkpt><trkpt lat="45.6631296" lon="9.4282737"><ele>239.00000000000003</ele><time>2026-04-15T14:30:00.096Z</time></trkpt><trkpt lat="45.6631068" lon="9.4281541"><ele>239.00000000000003</ele><time>2026-04-15T14:30:01.095Z</time></trkpt><trkpt lat="45.6631096" lon="9.4280565"><ele>239.0</ele><time>2026-04-15T14:30:02.096Z</time></trkpt><trkpt lat="45.6631084" lon="9.4279458"><ele>239.00000000000003</ele><time>2026-04-15T14:30:03.095Z</time></trkpt><trkpt lat="45.6631138" lon="9.4278434"><ele>239.00000000000003</ele><time>2026-04-15T14:30:04.095Z</time></trkpt><trkpt lat="45.6631209" lon="9.4277409"><ele>239.0</ele><time>2026-04-15T14:30:05.095Z</time></trkpt><trkpt lat="45.663132" lon="9.427625"><ele>239.00000000000003</ele><time>2026-04-15T14:30:06.095Z</time></trkpt><trkpt lat="45.6631474" lon="9.4275213"><ele>239.00000000000003</ele><time>2026-04-15T14:30:07.095Z</time></trkpt><trkpt lat="45.6631695" lon="9.427424"><ele>239.16666666666669</ele><time>2026-04-15T14:30:08.095Z</time></trkpt><trkpt lat="45.6631753" lon="9.4273221"><ele>239.33333333333334</ele><time>2026-04-15T14:30:09.096Z</time></trkpt><trkpt lat="45.663224" lon="9.4271635"><ele>239.5</ele><time>2026-04-15T14:30:11.095Z</time></trkpt><trkpt lat="45.6632445" lon="9.4270637"><ele>239.66666666666669</ele><time>2026-04-15T14:30:13.095Z</time></trkpt><trkpt lat="45.6632124" lon="9.4269742"><ele>239.83333333333334</ele><time>2026-04-15T14:30:16.096Z</time></trkpt><trkpt lat="45.6631249" lon="9.4269291"><ele>240.0</ele><time>2026-04-15T14:30:18.094Z</time></trkpt><trkpt lat="45.6630646" lon="9.4268799"><ele>240.4</ele><time>2026-04-15T14:30:19.095Z</time></trkpt><trkpt lat="45.6629618" lon="9.426794"><ele>240.8</ele><time>2026-04-15T14:30:21.095Z</time></trkpt><trkpt lat="45.6628592" lon="9.4266888"><ele>241.2</ele><time>2026-04-15T14:30:23.096Z</time></trkpt><trkpt lat="45.6627993" lon="9.4266273"><ele>241.6</ele><time>2026-04-15T14:30:24.095Z</time></trkpt><trkpt lat="45.662736" lon="9.4265631"><ele>242.0</ele><time>2026-04-15T14:30:25.095Z</time></trkpt><trkpt lat="45.6626779" lon="9.4265047"><ele>241.28571428571428</ele><time>2026-04-15T14:30:26.096Z</time></trkpt><trkpt lat="45.6626179" lon="9.4264448"><ele>240.57142857142856</ele><time>2026-04-15T14:30:27.096Z</time></trkpt><trkpt lat="45.662561" lon="9.426394"><ele>239.85714285714283</ele><time>2026-04-15T14:30:28.095Z</time></trkpt><trkpt lat="45.6624954" lon="9.4263495"><ele>239.1428571428571</ele><time>2026-04-15T14:30:29.096Z</time></trkpt><trkpt lat="45.6624346" lon="9.4262998"><ele>238.42857142857142</ele><time>2026-04-15T14:30:30.096Z</time></trkpt><trkpt lat="45.6623664" lon="9.4262431"><ele>237.71428571428567</ele><time>2026-04-15T14:30:31.096Z</time></trkpt><trkpt lat="45.6623111" lon="9.4261932"><ele>236.99999999999997</ele><time>2026-04-15T14:30:32.095Z</time></trkpt><trkpt lat="45.662254" lon="9.4261496"><ele>237.0</ele><time>2026-04-15T14:30:33.096Z</time></trkpt><trkpt lat="45.6621844" lon="9.4260956"><ele>237.0</ele><time>2026-04-15T14:30:34.095Z</time></trkpt><trkpt lat="45.6620676" lon="9.4259819"><ele>237.0</ele><time>2026-04-15T14:30:36.095Z</time></trkpt><trkpt lat="45.6619983" lon="9.4259252"><ele>237.0</ele><time>2026-04-15T14:30:37.096Z</time></trkpt><trkpt lat="45.6619455" lon="9.4258671"><ele>237.0</ele><time>2026-04-15T14:30:38.095Z</time></trkpt><trkpt lat="45.6618716" lon="9.4258099"><ele>237.6</ele><time>2026-04-15T14:30:39.096Z</time></trkpt><trkpt lat="45.6617579" lon="9.4257096"><ele>238.2</ele><time>2026-04-15T14:30:41.095Z</time></trkpt><trkpt lat="45.6616844" lon="9.4256516"><ele>238.8</ele><time>2026-04-15T14:30:42.095Z</time></trkpt><trkpt lat="45.6616126" lon="9.4255876"><ele>239.4</ele><time>2026-04-15T14:30:43.096Z</time></trkpt><trkpt lat="45.6615299" lon="9.425529"><ele>240.0</ele><time>2026-04-15T14:30:44.096Z</time></trkpt><trkpt lat="45.6614705" lon="9.4254597"><ele>240.0</ele><time>2026-04-15T14:30:45.095Z</time></trkpt><trkpt lat="45.6614046" lon="9.4253979"><ele>240.0</ele><time>2026-04-15T14:30:46.095Z</time></trkpt><trkpt lat="45.6613379" lon="9.4253386"><ele>240.0</ele><time>2026-04-15T14:30:47.095Z</time></trkpt><trkpt lat="45.6612763" lon="9.4252753"><ele>240.0</ele><time>2026-04-15T14:30:48.095Z</time></trkpt><trkpt lat="45.6612088" lon="9.4252122"><ele>240.0</ele><time>2026-04-15T14:30:49.096Z</time></trkpt><trkpt lat="45.6611419" lon="9.4251452"><ele>240.0</ele><time>2026-04-15T14:30:50.095Z</time></trkpt><trkpt lat="45.6610791" lon="9.4250761"><ele>239.66666666666666</ele><time>2026-04-15T14:30:51.095Z</time></trkpt><trkpt lat="45.6610134" lon="9.4250144"><ele>239.33333333333331</ele><time>2026-04-15T14:30:52.095Z</time></trkpt><trkpt lat="45.6609462" lon="9.4249408"><ele>239.0</ele><time>2026-04-15T14:30:53.095Z</time></trkpt><trkpt lat="45.660882" lon="9.4248772"><ele>238.66666666666666</ele><time>2026-04-15T14:30:54.095Z</time></trkpt><trkpt lat="45.660819" lon="9.4248156"><ele>238.33333333333331</ele><time>2026-04-15T14:30:55.096Z</time></trkpt><trkpt lat="45.6607547" lon="9.4247441"><ele>238.0</ele><time>2026-04-15T14:30:56.096Z</time></trkpt><trkpt lat="45.6606905" lon="9.4246828"><ele>238.49999999999997</ele><time>2026-04-15T14:30:57.095Z</time></trkpt><trkpt lat="45.6606298" lon="9.4246154"><ele>239.0</ele><time>2026-04-15T14:30:58.096Z</time></trkpt><trkpt lat="45.6605585" lon="9.4245485"><ele>239.5</ele><time>2026-04-15T14:30:59.095Z</time></trkpt><trkpt lat="45.6604915" lon="9.4244768"><ele>240.0</ele><time>2026-04-15T14:31:00.095Z</time></trkpt><trkpt lat="45.6604273" lon="9.4244257"><ele>240.49999999999997</ele><time>2026-04-15T14:31:01.095Z</time></trkpt><trkpt lat="45.6603598" lon="9.4243562"><ele>241.0</ele><time>2026-04-15T14:31:02.095Z</time></trkpt><trkpt lat="45.6602946" lon="9.4243022"><ele>240.49999999999997</ele><time>2026-04-15T14:31:03.095Z</time></trkpt><trkpt lat="45.6602302" lon="9.4242453"><ele>240.0</ele><time>2026-04-15T14:31:04.096Z</time></trkpt><trkpt lat="45.6601642" lon="9.4241885"><ele>239.5</ele><time>2026-04-15T14:31:05.096Z</time></trkpt><trkpt lat="45.6600996" lon="9.4241363"><ele>239.0</ele><time>2026-04-15T14:31:06.095Z</time></trkpt><trkpt lat="45.6600377" lon="9.4240811"><ele>238.49999999999997</ele><time>2026-04-15T14:31:07.095Z</time></trkpt><trkpt lat="45.6599734" lon="9.4240276"><ele>238.0</ele><time>2026-04-15T14:31:08.095Z</time></trkpt><trkpt lat="45.6599055" lon="9.423962"><ele>238.0</ele><time>2026-04-15T14:31:09.095Z</time></trkpt><trkpt lat="45.6598437" lon="9.4239047"><ele>238.0</ele><time>2026-04-15T14:31:10.095Z</time></trkpt><trkpt lat="45.659776" lon="9.4238562"><ele>238.0</ele><time>2026-04-15T14:31:11.095Z</time></trkpt><trkpt lat="45.6597095" lon="9.4238252"><ele>238.0</ele><time>2026-04-15T14:31:12.096Z</time></trkpt><trkpt lat="45.659636" lon="9.4237983"><ele>238.0</ele><time>2026-04-15T14:31:13.096Z</time></trkpt><trkpt lat="45.6595669" lon="9.4237824"><ele>238.0</ele><time>2026-04-15T14:31:14.095Z</time></trkpt><trkpt lat="45.6595025" lon="9.4238412"><ele>238.0</ele><time>2026-04-15T14:31:15.096Z</time></trkpt><trkpt lat="45.659447" lon="9.4239015"><ele>237.49999999999997</ele><time>2026-04-15T14:31:16.096Z</time></trkpt><trkpt lat="45.6593981" lon="9.4239694"><ele>237.0</ele><time>2026-04-15T14:31:17.095Z</time></trkpt><trkpt lat="45.659349" lon="9.424032"><ele>236.5</ele><time>2026-04-15T14:31:18.095Z</time></trkpt><trkpt lat="45.6592933" lon="9.4240784"><ele>236.0</ele><time>2026-04-15T14:31:19.096Z</time></trkpt><trkpt lat="45.6592063" lon="9.4241016"><ele>235.49999999999997</ele><time>2026-04-15T14:31:21.095Z</time></trkpt><trkpt lat="45.6591006" lon="9.4240255"><ele>235.0</ele><time>2026-04-15T14:31:23.095Z</time></trkpt><trkpt lat="45.6590006" lon="9.4239085"><ele>235.0</ele><time>2026-04-15T14:31:25.095Z</time></trkpt><trkpt lat="45.6589006" lon="9.4238285"><ele>235.0</ele><time>2026-04-15T14:31:27.095Z</time></trkpt><trkpt lat="45.6587827" lon="9.4237417"><ele>235.0</ele><time>2026-04-15T14:31:29.095Z</time></trkpt><trkpt lat="45.6587295" lon="9.423693"><ele>235.0</ele><time>2026-04-15T14:31:30.095Z</time></trkpt><trkpt lat="45.6586605" lon="9.4236375"><ele>235.0</ele><time>2026-04-15T14:31:31.095Z</time></trkpt><trkpt lat="45.6586029" lon="9.4235834"><ele>235.0</ele><time>2026-04-15T14:31:32.095Z</time></trkpt><trkpt lat="45.6585362" lon="9.4235244"><ele>234.99999999999997</ele><time>2026-04-15T14:31:33.095Z</time></trkpt><trkpt lat="45.6584754" lon="9.4234728"><ele>235.0</ele><time>2026-04-15T14:31:34.096Z</time></trkpt><trkpt lat="45.6584158" lon="9.4234291"><ele>235.0</ele><time>2026-04-15T14:31:35.095Z</time></trkpt><trkpt lat="45.6583593" lon="9.4233686"><ele>234.99999999999997</ele><time>2026-04-15T14:31:36.096Z</time></trkpt><trkpt lat="45.6583045" lon="9.4233105"><ele>235.0</ele><time>2026-04-15T14:31:37.095Z</time></trkpt><trkpt lat="45.6582464" lon="9.4232633"><ele>235.0</ele><time>2026-04-15T14:31:38.095Z</time></trkpt><trkpt lat="45.6581926" lon="9.4232158"><ele>234.99999999999997</ele><time>2026-04-15T14:31:39.095Z</time></trkpt><trkpt lat="45.6581329" lon="9.4231826"><ele>235.0</ele><time>2026-04-15T14:31:40.095Z</time></trkpt><trkpt lat="45.6580719" lon="9.4231598"><ele>235.0</ele><time>2026-04-15T14:31:41.095Z</time></trkpt><trkpt lat="45.6580117" lon="9.4231248"><ele>235.0</ele><time>2026-04-15T14:31:42.096Z</time></trkpt><trkpt lat="45.6578871" lon="9.4230836"><ele>234.99999999999997</ele><time>2026-04-15T14:31:44.096Z</time></trkpt><trkpt lat="45.6578245" lon="9.4230724"><ele>235.0</ele><time>2026-04-15T14:31:45.095Z</time></trkpt><trkpt lat="45.6577562" lon="9.4230638"><ele>235.2</ele><time>2026-04-15T14:31:46.095Z</time></trkpt><trkpt lat="45.6576826" lon="9.4230593"><ele>235.4</ele><time>2026-04-15T14:31:47.096Z</time></trkpt><trkpt lat="45.6576167" lon="9.4230501"><ele>235.60000000000002</ele><time>2026-04-15T14:31:48.095Z</time></trkpt><trkpt lat="45.6574834" lon="9.4230131"><ele>235.8</ele><time>2026-04-15T14:31:50.096Z</time></trkpt><trkpt lat="45.6574059" lon="9.4229955"><ele>236.0</ele><time>2026-04-15T14:31:51.095Z</time></trkpt><trkpt lat="45.6573049" lon="9.4229435"><ele>236.0</ele><time>2026-04-15T14:31:53.096Z</time></trkpt><trkpt lat="45.6572415" lon="9.4229203"><ele>236.00000000000003</ele><time>2026-04-15T14:31:54.095Z</time></trkpt><trkpt lat="45.6571624" lon="9.4228974"><ele>236.00000000000003</ele><time>2026-04-15T14:31:55.095Z</time></trkpt><trkpt lat="45.6570471" lon="9.4228365"><ele>236.0</ele><time>2026-04-15T14:31:57.095Z</time></trkpt><trkpt lat="45.6569193" lon="9.4227968"><ele>236.0</ele><time>2026-04-15T14:31:59.095Z</time></trkpt><trkpt lat="45.6568453" lon="9.4227877"><ele>236.0</ele><time>2026-04-15T14:32:00.096Z</time></trkpt><trkpt lat="45.6567673" lon="9.4227358"><ele>236.00000000000003</ele><time>2026-04-15T14:32:02.095Z</time></trkpt><trkpt lat="45.6566514" lon="9.422657"><ele>236.00000000000003</ele><time>2026-04-15T14:32:04.095Z</time></trkpt><trkpt lat="45.6565346" lon="9.4226021"><ele>236.0</ele><time>2026-04-15T14:32:06.095Z</time></trkpt><trkpt lat="45.6564506" lon="9.4225602"><ele>236.0</ele><time>2026-04-15T14:32:08.095Z</time></trkpt><trkpt lat="45.6563324" lon="9.4225094"><ele>236.00000000000003</ele><time>2026-04-15T14:32:10.096Z</time></trkpt><trkpt lat="45.6562605" lon="9.4224742"><ele>236.0</ele><time>2026-04-15T14:32:11.095Z</time></trkpt><trkpt lat="45.6561831" lon="9.4224268"><ele>236.0</ele><time>2026-04-15T14:32:12.096Z</time></trkpt><trkpt lat="45.656113" lon="9.422393"><ele>236.0</ele><time>2026-04-15T14:32:13.095Z</time></trkpt><trkpt lat="45.6560415" lon="9.4223484"><ele>236.00000000000003</ele><time>2026-04-15T14:32:14.096Z</time></trkpt><trkpt lat="45.6559686" lon="9.4223041"><ele>236.0</ele><time>2026-04-15T14:32:15.095Z</time></trkpt><trkpt lat="45.6558543" lon="9.4222293"><ele>235.83333333333334</ele><time>2026-04-15T14:32:17.096Z</time></trkpt><trkpt lat="45.6557802" lon="9.4221674"><ele>235.66666666666669</ele><time>2026-04-15T14:32:18.096Z</time></trkpt><trkpt lat="45.6556755" lon="9.4221025"><ele>235.5</ele><time>2026-04-15T14:32:20.095Z</time></trkpt><trkpt lat="45.6556159" lon="9.4220346"><ele>235.33333333333331</ele><time>2026-04-15T14:32:21.095Z</time></trkpt><trkpt lat="45.6555502" lon="9.421996"><ele>235.16666666666666</ele><time>2026-04-15T14:32:22.095Z</time></trkpt><trkpt lat="45.6554893" lon="9.4219455"><ele>235.0</ele><time>2026-04-15T14:32:23.095Z</time></trkpt><trkpt lat="45.6554292" lon="9.4219108"><ele>235.16666666666666</ele><time>2026-04-15T14:32:24.095Z</time></trkpt><trkpt lat="45.6553215" lon="9.4218397"><ele>235.33333333333331</ele><time>2026-04-15T14:32:26.095Z</time></trkpt><trkpt lat="45.6552656" lon="9.4217955"><ele>235.5</ele><time>2026-04-15T14:32:27.096Z</time></trkpt><trkpt lat="45.6552003" lon="9.4217748"><ele>235.66666666666669</ele><time>2026-04-15T14:32:28.095Z</time></trkpt><trkpt lat="45.6551191" lon="9.4217535"><ele>235.83333333333334</ele><time>2026-04-15T14:32:29.095Z</time></trkpt><trkpt lat="45.6550575" lon="9.4217315"><ele>236.0</ele><time>2026-04-15T14:32:30.095Z</time></trkpt><trkpt lat="45.6549953" lon="9.4217151"><ele>236.00000000000003</ele><time>2026-04-15T14:32:31.095Z</time></trkpt><trkpt lat="45.6549192" lon="9.4216922"><ele>236.0</ele><time>2026-04-15T14:32:32.095Z</time></trkpt><trkpt lat="45.6548457" lon="9.4216821"><ele>236.0</ele><time>2026-04-15T14:32:33.096Z</time></trkpt><trkpt lat="45.6547826" lon="9.4216582"><ele>236.0</ele><time>2026-04-15T14:32:34.096Z</time></trkpt><trkpt lat="45.6547174" lon="9.4216645"><ele>236.00000000000003</ele><time>2026-04-15T14:32:35.096Z</time></trkpt><trkpt lat="45.6546043" lon="9.4216963"><ele>236.0</ele><time>2026-04-15T14:32:37.096Z</time></trkpt><trkpt lat="45.6544917" lon="9.4217121"><ele>235.8</ele><time>2026-04-15T14:32:39.095Z</time></trkpt><trkpt lat="45.654425" lon="9.4217158"><ele>235.60000000000002</ele><time>2026-04-15T14:32:40.095Z</time></trkpt><trkpt lat="45.6543114" lon="9.4217438"><ele>235.4</ele><time>2026-04-15T14:32:42.096Z</time></trkpt><trkpt lat="45.6541949" lon="9.4218045"><ele>235.2</ele><time>2026-04-15T14:32:44.095Z</time></trkpt><trkpt lat="45.6541356" lon="9.4218433"><ele>235.0</ele><time>2026-04-15T14:32:45.095Z</time></trkpt><trkpt lat="45.6540613" lon="9.4218849"><ele>234.99999999999997</ele><time>2026-04-15T14:32:46.095Z</time></trkpt><trkpt lat="45.6539551" lon="9.4219249"><ele>235.0</ele><time>2026-04-15T14:32:48.095Z</time></trkpt><trkpt lat="45.6538372" lon="9.4219165"><ele>235.0</ele><time>2026-04-15T14:32:50.095Z</time></trkpt><trkpt lat="45.6537689" lon="9.421909"><ele>235.0</ele><time>2026-04-15T14:32:51.096Z</time></trkpt><trkpt lat="45.6536994" lon="9.4219197"><ele>234.99999999999997</ele><time>2026-04-15T14:32:52.096Z</time></trkpt><trkpt lat="45.6536173" lon="9.4219206"><ele>235.0</ele><time>2026-04-15T14:32:53.096Z</time></trkpt><trkpt lat="45.653549" lon="9.4219246"><ele>235.28571428571428</ele><time>2026-04-15T14:32:54.095Z</time></trkpt><trkpt lat="45.6534736" lon="9.4219232"><ele>235.57142857142856</ele><time>2026-04-15T14:32:55.095Z</time></trkpt><trkpt lat="45.6534026" lon="9.4219363"><ele>235.85714285714283</ele><time>2026-04-15T14:32:56.095Z</time></trkpt><trkpt lat="45.6533364" lon="9.4219534"><ele>236.1428571428571</ele><time>2026-04-15T14:32:57.095Z</time></trkpt><trkpt lat="45.6532725" lon="9.4219664"><ele>236.42857142857142</ele><time>2026-04-15T14:32:58.096Z</time></trkpt><trkpt lat="45.6532043" lon="9.4219713"><ele>236.71428571428567</ele><time>2026-04-15T14:32:59.095Z</time></trkpt><trkpt lat="45.6531036" lon="9.421974"><ele>236.99999999999997</ele><time>2026-04-15T14:33:01.096Z</time></trkpt><trkpt lat="45.6530387" lon="9.421963"><ele>236.99999999999997</ele><time>2026-04-15T14:33:02.095Z</time></trkpt><trkpt lat="45.6529711" lon="9.4219455"><ele>237.0</ele><time>2026-04-15T14:33:03.095Z</time></trkpt><trkpt lat="45.6529069" lon="9.4219481"><ele>236.99999999999997</ele><time>2026-04-15T14:33:04.095Z</time></trkpt><trkpt lat="45.6527986" lon="9.4219493"><ele>236.99999999999997</ele><time>2026-04-15T14:33:06.095Z</time></trkpt><trkpt lat="45.6527333" lon="9.4219497"><ele>237.0</ele><time>2026-04-15T14:33:07.095Z</time></trkpt><trkpt lat="45.6526655" lon="9.4219308"><ele>236.99999999999997</ele><time>2026-04-15T14:33:08.095Z</time></trkpt><trkpt lat="45.6525995" lon="9.4219207"><ele>236.99999999999997</ele><time>2026-04-15T14:33:09.095Z</time></trkpt><trkpt lat="45.6525256" lon="9.4218914"><ele>237.16666666666666</ele><time>2026-04-15T14:33:10.095Z</time></trkpt><trkpt lat="45.6524469" lon="9.421844"><ele>237.33333333333331</ele><time>2026-04-15T14:33:11.095Z</time></trkpt><trkpt lat="45.6523842" lon="9.4218136"><ele>237.5</ele><time>2026-04-15T14:33:12.095Z</time></trkpt><trkpt lat="45.652315" lon="9.4217858"><ele>237.66666666666666</ele><time>2026-04-15T14:33:13.095Z</time></trkpt><trkpt lat="45.652241" lon="9.4217512"><ele>237.83333333333331</ele><time>2026-04-15T14:33:14.095Z</time></trkpt><trkpt lat="45.652176" lon="9.4217416"><ele>238.0</ele><time>2026-04-15T14:33:15.095Z</time></trkpt><trkpt lat="45.6520589" lon="9.4217355"><ele>238.0</ele><time>2026-04-15T14:33:17.095Z</time></trkpt><trkpt lat="45.6519955" lon="9.4217071"><ele>238.0</ele><time>2026-04-15T14:33:18.096Z</time></trkpt><trkpt lat="45.6519237" lon="9.4216768"><ele>238.0</ele><time>2026-04-15T14:33:19.096Z</time></trkpt><trkpt lat="45.651838" lon="9.4216546"><ele>238.0</ele><time>2026-04-15T14:33:21.096Z</time></trkpt><trkpt lat="45.6517606" lon="9.4216284"><ele>238.0</ele><time>2026-04-15T14:33:23.095Z</time></trkpt><trkpt lat="45.65172" lon="9.4217074"><ele>238.0</ele><time>2026-04-15T14:33:26.095Z</time></trkpt><trkpt lat="45.6517055" lon="9.4217982"><ele>238.0</ele><time>2026-04-15T14:33:28.095Z</time></trkpt><trkpt lat="45.6516835" lon="9.4219254"><ele>237.60000000000002</ele><time>2026-04-15T14:33:30.095Z</time></trkpt><trkpt lat="45.6516541" lon="9.4220651"><ele>237.20000000000002</ele><time>2026-04-15T14:33:32.096Z</time></trkpt><trkpt lat="45.6516373" lon="9.4221875"><ele>236.8</ele><time>2026-04-15T14:33:34.095Z</time></trkpt><trkpt lat="45.6516211" lon="9.4223176"><ele>236.4</ele><time>2026-04-15T14:33:36.096Z</time></trkpt><trkpt lat="45.651592" lon="9.4224773"><ele>236.0</ele><time>2026-04-15T14:33:38.096Z</time></trkpt><trkpt lat="45.6515413" lon="9.4225372"><ele>235.4</ele><time>2026-04-15T14:33:40.096Z</time></trkpt><trkpt lat="45.6514548" lon="9.4225416"><ele>234.8</ele><time>2026-04-15T14:33:42.095Z</time></trkpt><trkpt lat="45.6513817" lon="9.4225328"><ele>234.20000000000002</ele><time>2026-04-15T14:33:44.095Z</time></trkpt><trkpt lat="45.6512931" lon="9.4225314"><ele>233.60000000000002</ele><time>2026-04-15T14:33:46.095Z</time></trkpt><trkpt lat="45.6511464" lon="9.4225237"><ele>233.0</ele><time>2026-04-15T14:33:48.095Z</time></trkpt><trkpt lat="45.651023" lon="9.4225115"><ele>233.00000000000003</ele><time>2026-04-15T14:33:50.095Z</time></trkpt><trkpt lat="45.6509132" lon="9.4224858"><ele>233.0</ele><time>2026-04-15T14:33:52.095Z</time></trkpt><trkpt lat="45.6508448" lon="9.4224759"><ele>233.0</ele><time>2026-04-15T14:33:53.095Z</time></trkpt><trkpt lat="45.6507749" lon="9.4224545"><ele>233.0</ele><time>2026-04-15T14:33:54.096Z</time></trkpt><trkpt lat="45.6506976" lon="9.4224491"><ele>233.00000000000003</ele><time>2026-04-15T14:33:55.095Z</time></trkpt><trkpt lat="45.650629" lon="9.4224311"><ele>233.0</ele><time>2026-04-15T14:33:56.096Z</time></trkpt><trkpt lat="45.6505113" lon="9.4224299"><ele>233.0</ele><time>2026-04-15T14:33:58.095Z</time></trkpt><trkpt lat="45.6504084" lon="9.4224741"><ele>233.0</ele><time>2026-04-15T14:34:00.096Z</time></trkpt><trkpt lat="45.6503165" lon="9.422512"><ele>233.0</ele><time>2026-04-15T14:34:02.096Z</time></trkpt><trkpt lat="45.6502146" lon="9.422519"><ele>233.0</ele><time>2026-04-15T14:34:04.096Z</time></trkpt><trkpt lat="45.6501097" lon="9.4225022"><ele>233.0</ele><time>2026-04-15T14:34:06.095Z</time></trkpt><trkpt lat="45.650003" lon="9.4224763"><ele>233.16666666666669</ele><time>2026-04-15T14:34:08.095Z</time></trkpt><trkpt lat="45.6498953" lon="9.4224487"><ele>233.33333333333334</ele><time>2026-04-15T14:34:10.095Z</time></trkpt><trkpt lat="45.649771" lon="9.4224055"><ele>233.5</ele><time>2026-04-15T14:34:12.095Z</time></trkpt><trkpt lat="45.6497031" lon="9.4223862"><ele>233.66666666666669</ele><time>2026-04-15T14:34:13.095Z</time></trkpt><trkpt lat="45.6496323" lon="9.4223735"><ele>233.83333333333334</ele><time>2026-04-15T14:34:14.095Z</time></trkpt><trkpt lat="45.6495645" lon="9.4223679"><ele>234.0</ele><time>2026-04-15T14:34:15.095Z</time></trkpt><trkpt lat="45.6494973" lon="9.4223569"><ele>233.66666666666666</ele><time>2026-04-15T14:34:16.096Z</time></trkpt><trkpt lat="45.649432" lon="9.4223476"><ele>233.33333333333331</ele><time>2026-04-15T14:34:17.096Z</time></trkpt><trkpt lat="45.6493607" lon="9.4223281"><ele>233.0</ele><time>2026-04-15T14:34:18.095Z</time></trkpt><trkpt lat="45.6492951" lon="9.4223241"><ele>232.66666666666666</ele><time>2026-04-15T14:34:19.096Z</time></trkpt><trkpt lat="45.6491647" lon="9.4223123"><ele>232.33333333333331</ele><time>2026-04-15T14:34:21.095Z</time></trkpt><trkpt lat="45.6490975" lon="9.4222979"><ele>232.0</ele><time>2026-04-15T14:34:22.095Z</time></trkpt><trkpt lat="45.649006" lon="9.4223259"><ele>231.99999999999997</ele><time>2026-04-15T14:34:24.096Z</time></trkpt><trkpt lat="45.6489657" lon="9.4224109"><ele>232.0</ele><time>2026-04-15T14:34:26.095Z</time></trkpt><trkpt lat="45.6489698" lon="9.4225136"><ele>232.0</ele><time>2026-04-15T14:34:28.095Z</time></trkpt><trkpt lat="45.6489689" lon="9.4226165"><ele>232.0</ele><time>2026-04-15T14:34:30.095Z</time></trkpt><trkpt lat="45.6489741" lon="9.4227354"><ele>231.99999999999997</ele><time>2026-04-15T14:34:32.096Z</time></trkpt><trkpt lat="45.6489828" lon="9.4228471"><ele>232.0</ele><time>2026-04-15T14:34:34.095Z</time></trkpt><trkpt lat="45.6489808" lon="9.4229634"><ele>232.83333333333331</ele><time>2026-04-15T14:34:36.095Z</time></trkpt><trkpt lat="45.6489762" lon="9.4230844"><ele>233.66666666666666</ele><time>2026-04-15T14:34:38.096Z</time></trkpt><trkpt lat="45.6489748" lon="9.42321"><ele>234.5</ele><time>2026-04-15T14:34:40.095Z</time></trkpt><trkpt lat="45.6489682" lon="9.4233238"><ele>235.33333333333331</ele><time>2026-04-15T14:34:42.096Z</time></trkpt><trkpt lat="45.6488985" lon="9.4233864"><ele>236.16666666666666</ele><time>2026-04-15T14:34:44.095Z</time></trkpt><trkpt lat="45.6488189" lon="9.4234096"><ele>237.0</ele><time>2026-04-15T14:34:46.095Z</time></trkpt><trkpt lat="45.6487247" lon="9.4234291"><ele>237.0</ele><time>2026-04-15T14:34:48.096Z</time></trkpt><trkpt lat="45.6486158" lon="9.4234325"><ele>237.0</ele><time>2026-04-15T14:34:50.095Z</time></trkpt><trkpt lat="45.6485086" lon="9.4234564"><ele>237.0</ele><time>2026-04-15T14:34:52.095Z</time></trkpt><trkpt lat="45.6483909" lon="9.4234712"><ele>237.0</ele><time>2026-04-15T14:34:54.095Z</time></trkpt><trkpt lat="45.6483248" lon="9.4234666"><ele>237.0</ele><time>2026-04-15T14:34:55.095Z</time></trkpt><trkpt lat="45.6482523" lon="9.423466"><ele>237.0</ele><time>2026-04-15T14:34:56.095Z</time></trkpt><trkpt lat="45.6481829" lon="9.4234663"><ele>237.0</ele><time>2026-04-15T14:34:57.096Z</time></trkpt><trkpt lat="45.6480534" lon="9.4234818"><ele>237.0</ele><time>2026-04-15T14:34:59.095Z</time></trkpt><trkpt lat="45.6479414" lon="9.4234865"><ele>237.0</ele><time>2026-04-15T14:35:01.095Z</time></trkpt><trkpt lat="45.6478223" lon="9.4234898"><ele>237.0</ele><time>2026-04-15T14:35:03.095Z</time></trkpt><trkpt lat="45.6477001" lon="9.4235055"><ele>237.2</ele><time>2026-04-15T14:35:05.095Z</time></trkpt><trkpt lat="45.6475789" lon="9.4235285"><ele>237.39999999999998</ele><time>2026-04-15T14:35:07.096Z</time></trkpt><trkpt lat="45.6474762" lon="9.423547"><ele>237.60000000000002</ele><time>2026-04-15T14:35:09.095Z</time></trkpt><trkpt lat="45.6473746" lon="9.4235431"><ele>237.8</ele><time>2026-04-15T14:35:11.095Z</time></trkpt><trkpt lat="45.6472704" lon="9.4235337"><ele>238.0</ele><time>2026-04-15T14:35:13.095Z</time></trkpt><trkpt lat="45.6471596" lon="9.4234968"><ele>238.0</ele><time>2026-04-15T14:35:15.095Z</time></trkpt><trkpt lat="45.6470634" lon="9.4234155"><ele>238.0</ele><time>2026-04-15T14:35:17.096Z</time></trkpt><trkpt lat="45.6469599" lon="9.4233337"><ele>238.0</ele><time>2026-04-15T14:35:19.095Z</time></trkpt><trkpt lat="45.6468574" lon="9.4232561"><ele>238.0</ele><time>2026-04-15T14:35:21.095Z</time></trkpt><trkpt lat="45.6468012" lon="9.4232152"><ele>238.0</ele><time>2026-04-15T14:35:22.095Z</time></trkpt><trkpt lat="45.6467015" lon="9.4231309"><ele>238.2</ele><time>2026-04-15T14:35:24.096Z</time></trkpt><trkpt lat="45.6465904" lon="9.4230496"><ele>238.4</ele><time>2026-04-15T14:35:26.095Z</time></trkpt><trkpt lat="45.6464983" lon="9.4229732"><ele>238.59999999999997</ele><time>2026-04-15T14:35:28.096Z</time></trkpt><trkpt lat="45.6463974" lon="9.4228821"><ele>238.79999999999998</ele><time>2026-04-15T14:35:30.095Z</time></trkpt><trkpt lat="45.6463365" lon="9.4228366"><ele>239.0</ele><time>2026-04-15T14:35:31.095Z</time></trkpt><trkpt lat="45.6462711" lon="9.4227874"><ele>239.14285714285717</ele><time>2026-04-15T14:35:32.096Z</time></trkpt><trkpt lat="45.6462142" lon="9.4227368"><ele>239.28571428571428</ele><time>2026-04-15T14:35:33.095Z</time></trkpt><trkpt lat="45.6461567" lon="9.4226843"><ele>239.42857142857144</ele><time>2026-04-15T14:35:34.096Z</time></trkpt><trkpt lat="45.6460967" lon="9.4226439"><ele>239.57142857142858</ele><time>2026-04-15T14:35:35.095Z</time></trkpt><trkpt lat="45.6460442" lon="9.4225894"><ele>239.71428571428572</ele><time>2026-04-15T14:35:36.095Z</time></trkpt><trkpt lat="45.6459876" lon="9.4225379"><ele>239.85714285714286</ele><time>2026-04-15T14:35:37.096Z</time></trkpt><trkpt lat="45.6459289" lon="9.4224696"><ele>240.0</ele><time>2026-04-15T14:35:38.095Z</time></trkpt><trkpt lat="45.6458715" lon="9.4224186"><ele>240.0</ele><time>2026-04-15T14:35:39.095Z</time></trkpt><trkpt lat="45.6458131" lon="9.422362"><ele>240.0</ele><time>2026-04-15T14:35:40.096Z</time></trkpt><trkpt lat="45.6457584" lon="9.422311"><ele>240.0</ele><time>2026-04-15T14:35:41.095Z</time></trkpt><trkpt lat="45.6457028" lon="9.4222482"><ele>240.0</ele><time>2026-04-15T14:35:42.095Z</time></trkpt><trkpt lat="45.6456495" lon="9.4221915"><ele>240.0</ele><time>2026-04-15T14:35:43.095Z</time></trkpt><trkpt lat="45.6456032" lon="9.4221276"><ele>240.0</ele><time>2026-04-15T14:35:44.096Z</time></trkpt><trkpt lat="45.6455492" lon="9.4220612"><ele>240.0</ele><time>2026-04-15T14:35:45.095Z</time></trkpt><trkpt lat="45.6455085" lon="9.4219891"><ele>239.66666666666666</ele><time>2026-04-15T14:35:46.095Z</time></trkpt><trkpt lat="45.6454409" lon="9.4218407"><ele>239.33333333333331</ele><time>2026-04-15T14:35:48.096Z</time></trkpt><trkpt lat="45.6454065" lon="9.4217599"><ele>239.0</ele><time>2026-04-15T14:35:49.095Z</time></trkpt><trkpt lat="45.6453766" lon="9.4216723"><ele>238.66666666666666</ele><time>2026-04-15T14:35:50.095Z</time></trkpt><trkpt lat="45.6453487" lon="9.4215785"><ele>238.33333333333331</ele><time>2026-04-15T14:35:51.095Z</time></trkpt><trkpt lat="45.6453154" lon="9.42149"><ele>238.0</ele><time>2026-04-15T14:35:52.095Z</time></trkpt><trkpt lat="45.6452815" lon="9.4214029"><ele>238.0</ele><time>2026-04-15T14:35:53.095Z</time></trkpt><trkpt lat="45.6452526" lon="9.4213173"><ele>238.0</ele><time>2026-04-15T14:35:54.095Z</time></trkpt><trkpt lat="45.6452213" lon="9.4212229"><ele>238.0</ele><time>2026-04-15T14:35:55.095Z</time></trkpt><trkpt lat="45.6451934" lon="9.421129"><ele>238.0</ele><time>2026-04-15T14:35:56.095Z</time></trkpt><trkpt lat="45.6451577" lon="9.4210538"><ele>238.0</ele><time>2026-04-15T14:35:57.095Z</time></trkpt><trkpt lat="45.6451198" lon="9.4209647"><ele>238.0</ele><time>2026-04-15T14:35:58.095Z</time></trkpt><trkpt lat="45.6450784" lon="9.4208738"><ele>238.0</ele><time>2026-04-15T14:35:59.095Z</time></trkpt><trkpt lat="45.645034" lon="9.4207325"><ele>237.83333333333331</ele><time>2026-04-15T14:36:00.095Z</time></trkpt><trkpt lat="45.6449875" lon="9.4206163"><ele>237.66666666666666</ele><time>2026-04-15T14:36:01.096Z</time></trkpt><trkpt lat="45.6449433" lon="9.4205062"><ele>237.5</ele><time>2026-04-15T14:36:02.095Z</time></trkpt><trkpt lat="45.6449043" lon="9.4203868"><ele>237.33333333333331</ele><time>2026-04-15T14:36:03.095Z</time></trkpt><trkpt lat="45.644864" lon="9.4202836"><ele>237.16666666666666</ele><time>2026-04-15T14:36:04.096Z</time></trkpt><trkpt lat="45.6448207" lon="9.4201772"><ele>237.0</ele><time>2026-04-15T14:36:05.095Z</time></trkpt><trkpt lat="45.6447903" lon="9.4200549"><ele>236.2</ele><time>2026-04-15T14:36:06.096Z</time></trkpt><trkpt lat="45.6447463" lon="9.4199297"><ele>235.39999999999998</ele><time>2026-04-15T14:36:07.095Z</time></trkpt><trkpt lat="45.6446943" lon="9.4198091"><ele>234.60000000000002</ele><time>2026-04-15T14:36:08.096Z</time></trkpt><trkpt lat="45.6446448" lon="9.4196911"><ele>233.8</ele><time>2026-04-15T14:36:09.095Z</time></trkpt><trkpt lat="45.644601" lon="9.4195569"><ele>233.0</ele><time>2026-04-15T14:36:10.095Z</time></trkpt><trkpt lat="45.6445576" lon="9.419438"><ele>232.50000000000003</ele><time>2026-04-15T14:36:11.095Z</time></trkpt><trkpt lat="45.6445177" lon="9.4193428"><ele>232.0</ele><time>2026-04-15T14:36:12.095Z</time></trkpt><trkpt lat="45.6444822" lon="9.419229"><ele>231.5</ele><time>2026-04-15T14:36:13.096Z</time></trkpt><trkpt lat="45.6444461" lon="9.4191188"><ele>231.0</ele><time>2026-04-15T14:36:14.095Z</time></trkpt><trkpt lat="45.6444046" lon="9.4190147"><ele>230.50000000000003</ele><time>2026-04-15T14:36:15.095Z</time></trkpt><trkpt lat="45.6443735" lon="9.418913"><ele>230.0</ele><time>2026-04-15T14:36:16.096Z</time></trkpt><trkpt lat="45.6443395" lon="9.4188093"><ele>229.66666666666669</ele><time>2026-04-15T14:36:17.095Z</time></trkpt><trkpt lat="45.6442984" lon="9.4187081"><ele>229.33333333333334</ele><time>2026-04-15T14:36:18.096Z</time></trkpt><trkpt lat="45.6442697" lon="9.4186064"><ele>229.0</ele><time>2026-04-15T14:36:19.096Z</time></trkpt><trkpt lat="45.6442336" lon="9.4184921"><ele>228.66666666666669</ele><time>2026-04-15T14:36:20.095Z</time></trkpt><trkpt lat="45.6441989" lon="9.4183858"><ele>228.33333333333334</ele><time>2026-04-15T14:36:21.095Z</time></trkpt><trkpt lat="45.6441613" lon="9.4182926"><ele>228.0</ele><time>2026-04-15T14:36:22.095Z</time></trkpt><trkpt lat="45.6441198" lon="9.4182027"><ele>228.0</ele><time>2026-04-15T14:36:23.095Z</time></trkpt><trkpt lat="45.6440764" lon="9.4181177"><ele>227.99999999999997</ele><time>2026-04-15T14:36:24.095Z</time></trkpt><trkpt lat="45.6440189" lon="9.4180525"><ele>228.0</ele><time>2026-04-15T14:36:25.095Z</time></trkpt><trkpt lat="45.6439575" lon="9.4180016"><ele>228.0</ele><time>2026-04-15T14:36:26.095Z</time></trkpt><trkpt lat="45.6438956" lon="9.4179528"><ele>227.99999999999997</ele><time>2026-04-15T14:36:27.095Z</time></trkpt><trkpt lat="45.6438278" lon="9.4178988"><ele>228.0</ele><time>2026-04-15T14:36:28.095Z</time></trkpt><trkpt lat="45.6437619" lon="9.4178582"><ele>228.0</ele><time>2026-04-15T14:36:29.096Z</time></trkpt><trkpt lat="45.6436333" lon="9.4177751"><ele>228.14285714285714</ele><time>2026-04-15T14:36:31.095Z</time></trkpt><trkpt lat="45.6435676" lon="9.4177336"><ele>228.28571428571428</ele><time>2026-04-15T14:36:32.095Z</time></trkpt><trkpt lat="45.6434978" lon="9.4176884"><ele>228.42857142857142</ele><time>2026-04-15T14:36:33.095Z</time></trkpt><trkpt lat="45.6434339" lon="9.4176497"><ele>228.57142857142856</ele><time>2026-04-15T14:36:34.095Z</time></trkpt><trkpt lat="45.6433647" lon="9.4175999"><ele>228.71428571428572</ele><time>2026-04-15T14:36:35.095Z</time></trkpt><trkpt lat="45.6432962" lon="9.417552"><ele>228.85714285714283</ele><time>2026-04-15T14:36:36.095Z</time></trkpt><trkpt lat="45.6432335" lon="9.4175055"><ele>229.0</ele><time>2026-04-15T14:36:37.096Z</time></trkpt><trkpt lat="45.643162" lon="9.4174676"><ele>228.99999999999997</ele><time>2026-04-15T14:36:38.095Z</time></trkpt><trkpt lat="45.6430895" lon="9.4174208"><ele>229.0</ele><time>2026-04-15T14:36:39.096Z</time></trkpt><trkpt lat="45.6430113" lon="9.4173636"><ele>229.0</ele><time>2026-04-15T14:36:40.095Z</time></trkpt><trkpt lat="45.6429341" lon="9.4173194"><ele>229.0</ele><time>2026-04-15T14:36:41.095Z</time></trkpt><trkpt lat="45.6428647" lon="9.4172676"><ele>228.99999999999997</ele><time>2026-04-15T14:36:42.095Z</time></trkpt><trkpt lat="45.642789" lon="9.4172056"><ele>229.0</ele><time>2026-04-15T14:36:43.095Z</time></trkpt><trkpt lat="45.6427112" lon="9.4171583"><ele>228.99999999999997</ele><time>2026-04-15T14:36:44.095Z</time></trkpt><trkpt lat="45.6426394" lon="9.4171075"><ele>229.0</ele><time>2026-04-15T14:36:45.096Z</time></trkpt><trkpt lat="45.6425611" lon="9.4170522"><ele>229.0</ele><time>2026-04-15T14:36:46.096Z</time></trkpt><trkpt lat="45.6424857" lon="9.4170149"><ele>229.0</ele><time>2026-04-15T14:36:47.095Z</time></trkpt><trkpt lat="45.6424131" lon="9.4169769"><ele>228.99999999999997</ele><time>2026-04-15T14:36:48.095Z</time></trkpt><trkpt lat="45.6423443" lon="9.4169169"><ele>229.0</ele><time>2026-04-15T14:36:49.095Z</time></trkpt><trkpt lat="45.6422749" lon="9.4168596"><ele>228.99999999999997</ele><time>2026-04-15T14:36:50.095Z</time></trkpt><trkpt lat="45.6422062" lon="9.4168037"><ele>229.0</ele><time>2026-04-15T14:36:51.095Z</time></trkpt><trkpt lat="45.6421276" lon="9.4167537"><ele>229.0</ele><time>2026-04-15T14:36:52.095Z</time></trkpt><trkpt lat="45.6420466" lon="9.4166991"><ele>229.0</ele><time>2026-04-15T14:36:53.096Z</time></trkpt><trkpt lat="45.6419662" lon="9.4166477"><ele>228.99999999999997</ele><time>2026-04-15T14:36:54.096Z</time></trkpt><trkpt lat="45.641883" lon="9.4165963"><ele>229.0</ele><time>2026-04-15T14:36:55.096Z</time></trkpt><trkpt lat="45.641804" lon="9.4165478"><ele>228.99999999999997</ele><time>2026-04-15T14:36:56.095Z</time></trkpt><trkpt lat="45.6417239" lon="9.4164965"><ele>229.0</ele><time>2026-04-15T14:36:57.095Z</time></trkpt><trkpt lat="45.6416515" lon="9.4164339"><ele>229.0</ele><time>2026-04-15T14:36:58.095Z</time></trkpt><trkpt lat="45.6415827" lon="9.4163857"><ele>229.0</ele><time>2026-04-15T14:36:59.096Z</time></trkpt><trkpt lat="45.6415141" lon="9.4163343"><ele>228.99999999999997</ele><time>2026-04-15T14:37:00.095Z</time></trkpt><trkpt lat="45.6413964" lon="9.4163022"><ele>229.0</ele><time>2026-04-15T14:37:02.095Z</time></trkpt><trkpt lat="45.6413337" lon="9.4163478"><ele>229.0</ele><time>2026-04-15T14:37:03.096Z</time></trkpt><trkpt lat="45.6412563" lon="9.4164787"><ele>228.99999999999997</ele><time>2026-04-15T14:37:05.095Z</time></trkpt><trkpt lat="45.6412121" lon="9.4166216"><ele>228.99999999999997</ele><time>2026-04-15T14:37:07.095Z</time></trkpt><trkpt lat="45.6411542" lon="9.416792"><ele>229.0</ele><time>2026-04-15T14:37:09.095Z</time></trkpt><trkpt lat="45.6411237" lon="9.4168756"><ele>229.0</ele><time>2026-04-15T14:37:10.095Z</time></trkpt><trkpt lat="45.6410974" lon="9.4169602"><ele>228.99999999999997</ele><time>2026-04-15T14:37:11.096Z</time></trkpt><trkpt lat="45.6410763" lon="9.4170669"><ele>229.0</ele><time>2026-04-15T14:37:12.095Z</time></trkpt><trkpt lat="45.6410529" lon="9.4171626"><ele>229.0</ele><time>2026-04-15T14:37:13.096Z</time></trkpt><trkpt lat="45.6410305" lon="9.4172604"><ele>229.0</ele><time>2026-04-15T14:37:14.096Z</time></trkpt><trkpt lat="45.6409803" lon="9.417438"><ele>228.99999999999997</ele><time>2026-04-15T14:37:16.095Z</time></trkpt><trkpt lat="45.64096" lon="9.4175239"><ele>229.0</ele><time>2026-04-15T14:37:17.095Z</time></trkpt><trkpt lat="45.6409239" lon="9.4176093"><ele>228.99999999999997</ele><time>2026-04-15T14:37:18.096Z</time></trkpt><trkpt lat="45.640883" lon="9.4177103"><ele>229.0</ele><time>2026-04-15T14:37:19.095Z</time></trkpt><trkpt lat="45.6408462" lon="9.4178664"><ele>229.0</ele><time>2026-04-15T14:37:21.096Z</time></trkpt><trkpt lat="45.6407845" lon="9.4179359"><ele>229.0</ele><time>2026-04-15T14:37:22.096Z</time></trkpt><trkpt lat="45.6407309" lon="9.4180146"><ele>228.99999999999997</ele><time>2026-04-15T14:37:23.095Z</time></trkpt><trkpt lat="45.6406781" lon="9.41807"><ele>229.0</ele><time>2026-04-15T14:37:24.095Z</time></trkpt><trkpt lat="45.6406181" lon="9.4181313"><ele>228.99999999999997</ele><time>2026-04-15T14:37:25.095Z</time></trkpt><trkpt lat="45.6405427" lon="9.418178"><ele>229.0</ele><time>2026-04-15T14:37:26.095Z</time></trkpt><trkpt lat="45.6404809" lon="9.4182209"><ele>229.0</ele><time>2026-04-15T14:37:27.095Z</time></trkpt><trkpt lat="45.6404106" lon="9.4182497"><ele>229.0</ele><time>2026-04-15T14:37:28.096Z</time></trkpt><trkpt lat="45.6403302" lon="9.4182726"><ele>228.99999999999997</ele><time>2026-04-15T14:37:29.096Z</time></trkpt><trkpt lat="45.6402514" lon="9.4182829"><ele>229.0</ele><time>2026-04-15T14:37:30.095Z</time></trkpt><trkpt lat="45.640181" lon="9.418279"><ele>228.99999999999997</ele><time>2026-04-15T14:37:31.095Z</time></trkpt><trkpt lat="45.640094" lon="9.4182879"><ele>229.0</ele><time>2026-04-15T14:37:32.096Z</time></trkpt><trkpt lat="45.639997" lon="9.4182833"><ele>229.0</ele><time>2026-04-15T14:37:33.095Z</time></trkpt><trkpt lat="45.6399224" lon="9.418263"><ele>229.0</ele><time>2026-04-15T14:37:34.096Z</time></trkpt><trkpt lat="45.6398453" lon="9.4182559"><ele>228.99999999999997</ele><time>2026-04-15T14:37:35.095Z</time></trkpt><trkpt lat="45.6397589" lon="9.41824"><ele>229.0</ele><time>2026-04-15T14:37:36.096Z</time></trkpt><trkpt lat="45.6396835" lon="9.4182224"><ele>228.99999999999997</ele><time>2026-04-15T14:37:37.095Z</time></trkpt><trkpt lat="45.6396104" lon="9.4182129"><ele>229.0</ele><time>2026-04-15T14:37:38.096Z</time></trkpt><trkpt lat="45.6395288" lon="9.418192"><ele>229.0</ele><time>2026-04-15T14:37:39.095Z</time></trkpt><trkpt lat="45.6394542" lon="9.4181709"><ele>229.0</ele><time>2026-04-15T14:37:40.096Z</time></trkpt><trkpt lat="45.6393755" lon="9.4181526"><ele>228.99999999999997</ele><time>2026-04-15T14:37:41.095Z</time></trkpt><trkpt lat="45.6392967" lon="9.4181259"><ele>229.0</ele><time>2026-04-15T14:37:42.095Z</time></trkpt><trkpt lat="45.6392157" lon="9.4181168"><ele>228.66666666666666</ele><time>2026-04-15T14:37:43.095Z</time></trkpt><trkpt lat="45.6391352" lon="9.4181074"><ele>228.33333333333331</ele><time>2026-04-15T14:37:44.095Z</time></trkpt><trkpt lat="45.6390641" lon="9.4180975"><ele>228.0</ele><time>2026-04-15T14:37:45.095Z</time></trkpt><trkpt lat="45.6389946" lon="9.4180883"><ele>227.66666666666669</ele><time>2026-04-15T14:37:46.096Z</time></trkpt><trkpt lat="45.6389203" lon="9.4180751"><ele>227.33333333333334</ele><time>2026-04-15T14:37:47.095Z</time></trkpt><trkpt lat="45.638853" lon="9.4180581"><ele>227.0</ele><time>2026-04-15T14:37:48.095Z</time></trkpt><trkpt lat="45.6387383" lon="9.4180237"><ele>227.0</ele><time>2026-04-15T14:37:50.096Z</time></trkpt><trkpt lat="45.6386475" lon="9.4180204"><ele>227.0</ele><time>2026-04-15T14:37:52.095Z</time></trkpt><trkpt lat="45.6385851" lon="9.418059"><ele>227.0</ele><time>2026-04-15T14:37:54.095Z</time></trkpt><trkpt lat="45.6384961" lon="9.4181136"><ele>227.0</ele><time>2026-04-15T14:37:56.095Z</time></trkpt><trkpt lat="45.6383738" lon="9.4181453"><ele>227.0</ele><time>2026-04-15T14:37:58.096Z</time></trkpt><trkpt lat="45.6382477" lon="9.4181711"><ele>226.57142857142858</ele><time>2026-04-15T14:38:00.095Z</time></trkpt><trkpt lat="45.6381719" lon="9.4181654"><ele>226.14285714285717</ele><time>2026-04-15T14:38:01.096Z</time></trkpt><trkpt lat="45.6381016" lon="9.4181545"><ele>225.71428571428572</ele><time>2026-04-15T14:38:02.096Z</time></trkpt><trkpt lat="45.6380292" lon="9.4181333"><ele>225.28571428571428</ele><time>2026-04-15T14:38:03.095Z</time></trkpt><trkpt lat="45.637957" lon="9.4181129"><ele>224.85714285714286</ele><time>2026-04-15T14:38:04.095Z</time></trkpt><trkpt lat="45.6378831" lon="9.4180889"><ele>224.42857142857144</ele><time>2026-04-15T14:38:05.095Z</time></trkpt><trkpt lat="45.6378166" lon="9.4180691"><ele>224.0</ele><time>2026-04-15T14:38:06.095Z</time></trkpt><trkpt lat="45.6377457" lon="9.4180492"><ele>224.0</ele><time>2026-04-15T14:38:07.096Z</time></trkpt><trkpt lat="45.637677" lon="9.4180303"><ele>224.0</ele><time>2026-04-15T14:38:08.096Z</time></trkpt><trkpt lat="45.6376088" lon="9.4179971"><ele>224.0</ele><time>2026-04-15T14:38:09.096Z</time></trkpt><trkpt lat="45.6375382" lon="9.4179844"><ele>224.0</ele><time>2026-04-15T14:38:10.095Z</time></trkpt><trkpt lat="45.6374604" lon="9.4179654"><ele>224.0</ele><time>2026-04-15T14:38:11.095Z</time></trkpt><trkpt lat="45.6373814" lon="9.4179585"><ele>224.0</ele><time>2026-04-15T14:38:12.096Z</time></trkpt><trkpt lat="45.6373036" lon="9.417952"><ele>224.0</ele><time>2026-04-15T14:38:13.095Z</time></trkpt><trkpt lat="45.6372264" lon="9.417946"><ele>224.00000000000003</ele><time>2026-04-15T14:38:14.095Z</time></trkpt><trkpt lat="45.6371487" lon="9.4179353"><ele>224.0</ele><time>2026-04-15T14:38:15.096Z</time></trkpt><trkpt lat="45.6370775" lon="9.4179135"><ele>224.0</ele><time>2026-04-15T14:38:16.095Z</time></trkpt><trkpt lat="45.6370046" lon="9.4178748"><ele>224.0</ele><time>2026-04-15T14:38:17.096Z</time></trkpt><trkpt lat="45.636932" lon="9.4178423"><ele>224.00000000000003</ele><time>2026-04-15T14:38:18.095Z</time></trkpt><trkpt lat="45.6368633" lon="9.4178029"><ele>224.0</ele><time>2026-04-15T14:38:19.096Z</time></trkpt><trkpt lat="45.6367926" lon="9.4177612"><ele>223.83333333333334</ele><time>2026-04-15T14:38:20.095Z</time></trkpt><trkpt lat="45.6367243" lon="9.4177204"><ele>223.66666666666669</ele><time>2026-04-15T14:38:21.096Z</time></trkpt><trkpt lat="45.636657" lon="9.4176852"><ele>223.5</ele><time>2026-04-15T14:38:22.095Z</time></trkpt><trkpt lat="45.636592" lon="9.4176562"><ele>223.33333333333331</ele><time>2026-04-15T14:38:23.095Z</time></trkpt><trkpt lat="45.6365328" lon="9.4176255"><ele>223.16666666666666</ele><time>2026-04-15T14:38:24.096Z</time></trkpt><trkpt lat="45.6364255" lon="9.4175633"><ele>223.0</ele><time>2026-04-15T14:38:26.095Z</time></trkpt><trkpt lat="45.6363389" lon="9.4175908"><ele>223.0</ele><time>2026-04-15T14:38:28.096Z</time></trkpt><trkpt lat="45.6363037" lon="9.4176995"><ele>223.0</ele><time>2026-04-15T14:38:30.095Z</time></trkpt><trkpt lat="45.6362324" lon="9.4177942"><ele>223.0</ele><time>2026-04-15T14:38:32.095Z</time></trkpt><trkpt lat="45.6361829" lon="9.417941"><ele>223.0</ele><time>2026-04-15T14:38:34.096Z</time></trkpt><trkpt lat="45.6361322" lon="9.418083"><ele>223.0</ele><time>2026-04-15T14:38:36.096Z</time></trkpt><trkpt lat="45.6360686" lon="9.418201"><ele>223.4</ele><time>2026-04-15T14:38:38.095Z</time></trkpt><trkpt lat="45.6359982" lon="9.418339"><ele>223.8</ele><time>2026-04-15T14:38:40.095Z</time></trkpt><trkpt lat="45.6359407" lon="9.4184764"><ele>224.2</ele><time>2026-04-15T14:38:42.095Z</time></trkpt><trkpt lat="45.635868" lon="9.4186016"><ele>224.6</ele><time>2026-04-15T14:38:44.095Z</time></trkpt><trkpt lat="45.6358094" lon="9.4186964"><ele>225.0</ele><time>2026-04-15T14:38:46.096Z</time></trkpt><trkpt lat="45.6357694" lon="9.4188002"><ele>225.33333333333334</ele><time>2026-04-15T14:38:48.095Z</time></trkpt><trkpt lat="45.6357445" lon="9.4189173"><ele>225.66666666666669</ele><time>2026-04-15T14:38:50.096Z</time></trkpt><trkpt lat="45.635706" lon="9.4190472"><ele>226.0</ele><time>2026-04-15T14:38:52.096Z</time></trkpt><trkpt lat="45.6356643" lon="9.4191729"><ele>226.33333333333334</ele><time>2026-04-15T14:38:54.096Z</time></trkpt><trkpt lat="45.6356332" lon="9.4192733"><ele>226.66666666666669</ele><time>2026-04-15T14:38:56.095Z</time></trkpt><trkpt lat="45.635592" lon="9.419387"><ele>227.0</ele><time>2026-04-15T14:38:58.096Z</time></trkpt><trkpt lat="45.6355306" lon="9.4194267"><ele>227.0</ele><time>2026-04-15T14:39:02.095Z</time></trkpt><trkpt lat="45.6354278" lon="9.4193798"><ele>227.0</ele><time>2026-04-15T14:39:05.095Z</time></trkpt><trkpt lat="45.63532" lon="9.4193435"><ele>227.0</ele><time>2026-04-15T14:39:07.095Z</time></trkpt><trkpt lat="45.6352168" lon="9.4192872"><ele>227.0</ele><time>2026-04-15T14:39:09.095Z</time></trkpt><trkpt lat="45.635108" lon="9.4192209"><ele>227.0</ele><time>2026-04-15T14:39:11.096Z</time></trkpt><trkpt lat="45.635" lon="9.4191547"><ele>227.2857142857143</ele><time>2026-04-15T14:39:13.096Z</time></trkpt><trkpt lat="45.6349423" lon="9.4191104"><ele>227.5714285714286</ele><time>2026-04-15T14:39:14.095Z</time></trkpt><trkpt lat="45.6348773" lon="9.4190747"><ele>227.85714285714286</ele><time>2026-04-15T14:39:15.095Z</time></trkpt><trkpt lat="45.6348059" lon="9.4190316"><ele>228.14285714285717</ele><time>2026-04-15T14:39:16.095Z</time></trkpt><trkpt lat="45.6347427" lon="9.4190009"><ele>228.42857142857144</ele><time>2026-04-15T14:39:17.096Z</time></trkpt><trkpt lat="45.6346806" lon="9.418973"><ele>228.71428571428572</ele><time>2026-04-15T14:39:18.095Z</time></trkpt><trkpt lat="45.6346092" lon="9.4189413"><ele>229.0</ele><time>2026-04-15T14:39:19.095Z</time></trkpt><trkpt lat="45.634534" lon="9.4189034"><ele>228.57142857142856</ele><time>2026-04-15T14:39:20.095Z</time></trkpt><trkpt lat="45.6344647" lon="9.4188775"><ele>228.14285714285717</ele><time>2026-04-15T14:39:21.095Z</time></trkpt><trkpt lat="45.6343939" lon="9.4188517"><ele>227.71428571428572</ele><time>2026-04-15T14:39:22.095Z</time></trkpt><trkpt lat="45.6343265" lon="9.4188297"><ele>227.28571428571428</ele><time>2026-04-15T14:39:23.096Z</time></trkpt><trkpt lat="45.6342517" lon="9.4188023"><ele>226.85714285714283</ele><time>2026-04-15T14:39:24.095Z</time></trkpt><trkpt lat="45.6341797" lon="9.4187701"><ele>226.42857142857144</ele><time>2026-04-15T14:39:25.096Z</time></trkpt><trkpt lat="45.634106" lon="9.4187518"><ele>226.0</ele><time>2026-04-15T14:39:26.095Z</time></trkpt><trkpt lat="45.6340328" lon="9.4187363"><ele>225.71428571428572</ele><time>2026-04-15T14:39:27.095Z</time></trkpt><trkpt lat="45.6339587" lon="9.4187164"><ele>225.42857142857142</ele><time>2026-04-15T14:39:28.095Z</time></trkpt><trkpt lat="45.633893" lon="9.41869"><ele>225.14285714285714</ele><time>2026-04-15T14:39:29.095Z</time></trkpt><trkpt lat="45.633825" lon="9.4186629"><ele>224.85714285714286</ele><time>2026-04-15T14:39:30.095Z</time></trkpt><trkpt lat="45.6337586" lon="9.4186555"><ele>224.57142857142856</ele><time>2026-04-15T14:39:31.096Z</time></trkpt><trkpt lat="45.633687" lon="9.4186469"><ele>224.28571428571428</ele><time>2026-04-15T14:39:32.096Z</time></trkpt><trkpt lat="45.633622" lon="9.4186236"><ele>224.0</ele><time>2026-04-15T14:39:33.095Z</time></trkpt><trkpt lat="45.6335569" lon="9.4185996"><ele>223.83333333333334</ele><time>2026-04-15T14:39:34.095Z</time></trkpt><trkpt lat="45.6334875" lon="9.4185821"><ele>223.66666666666669</ele><time>2026-04-15T14:39:35.095Z</time></trkpt><trkpt lat="45.6334157" lon="9.4185605"><ele>223.5</ele><time>2026-04-15T14:39:36.096Z</time></trkpt><trkpt lat="45.6332903" lon="9.4185348"><ele>223.33333333333331</ele><time>2026-04-15T14:39:38.095Z</time></trkpt><trkpt lat="45.6332255" lon="9.418528"><ele>223.16666666666666</ele><time>2026-04-15T14:39:39.095Z</time></trkpt><trkpt lat="45.6331489" lon="9.418519"><ele>223.0</ele><time>2026-04-15T14:39:40.096Z</time></trkpt><trkpt lat="45.6330825" lon="9.4185032"><ele>223.0</ele><time>2026-04-15T14:39:41.095Z</time></trkpt><trkpt lat="45.6329356" lon="9.4184531"><ele>223.0</ele><time>2026-04-15T14:39:43.096Z</time></trkpt><trkpt lat="45.6328625" lon="9.4184546"><ele>223.0</ele><time>2026-04-15T14:39:44.095Z</time></trkpt><trkpt lat="45.63278" lon="9.4184514"><ele>223.0</ele><time>2026-04-15T14:39:45.095Z</time></trkpt><trkpt lat="45.6326953" lon="9.4184363"><ele>223.0</ele><time>2026-04-15T14:39:46.095Z</time></trkpt><trkpt lat="45.6326119" lon="9.4184218"><ele>223.16666666666666</ele><time>2026-04-15T14:39:47.096Z</time></trkpt><trkpt lat="45.6325373" lon="9.4183826"><ele>223.33333333333331</ele><time>2026-04-15T14:39:48.095Z</time></trkpt><trkpt lat="45.6324449" lon="9.4183579"><ele>223.5</ele><time>2026-04-15T14:39:49.095Z</time></trkpt><trkpt lat="45.6323799" lon="9.4183429"><ele>223.66666666666669</ele><time>2026-04-15T14:39:50.096Z</time></trkpt><trkpt lat="45.6322905" lon="9.4183402"><ele>223.83333333333334</ele><time>2026-04-15T14:39:51.095Z</time></trkpt><trkpt lat="45.6322116" lon="9.4183192"><ele>224.0</ele><time>2026-04-15T14:39:52.095Z</time></trkpt><trkpt lat="45.6321254" lon="9.4183003"><ele>224.0</ele><time>2026-04-15T14:39:53.095Z</time></trkpt><trkpt lat="45.6320419" lon="9.4182714"><ele>223.99999999999997</ele><time>2026-04-15T14:39:54.096Z</time></trkpt><trkpt lat="45.6319559" lon="9.4182611"><ele>223.99999999999997</ele><time>2026-04-15T14:39:55.095Z</time></trkpt><trkpt lat="45.631826" lon="9.4182308"><ele>224.0</ele><time>2026-04-15T14:39:57.095Z</time></trkpt><trkpt lat="45.6317479" lon="9.4182052"><ele>224.0</ele><time>2026-04-15T14:39:58.096Z</time></trkpt><trkpt lat="45.6316816" lon="9.4181939"><ele>223.83333333333334</ele><time>2026-04-15T14:39:59.095Z</time></trkpt><trkpt lat="45.6316072" lon="9.4181887"><ele>223.66666666666669</ele><time>2026-04-15T14:40:00.095Z</time></trkpt><trkpt lat="45.6315074" lon="9.4181873"><ele>223.5</ele><time>2026-04-15T14:40:01.095Z</time></trkpt><trkpt lat="45.631427" lon="9.4181846"><ele>223.33333333333331</ele><time>2026-04-15T14:40:02.095Z</time></trkpt><trkpt lat="45.6313567" lon="9.4181662"><ele>223.16666666666666</ele><time>2026-04-15T14:40:03.095Z</time></trkpt><trkpt lat="45.6312782" lon="9.418137"><ele>223.0</ele><time>2026-04-15T14:40:04.095Z</time></trkpt><trkpt lat="45.6311907" lon="9.4181113"><ele>223.33333333333331</ele><time>2026-04-15T14:40:05.095Z</time></trkpt><trkpt lat="45.6310998" lon="9.418114"><ele>223.66666666666666</ele><time>2026-04-15T14:40:06.096Z</time></trkpt><trkpt lat="45.6310024" lon="9.4180934"><ele>224.0</ele><time>2026-04-15T14:40:07.095Z</time></trkpt><trkpt lat="45.6309172" lon="9.4180902"><ele>224.33333333333331</ele><time>2026-04-15T14:40:08.095Z</time></trkpt><trkpt lat="45.6308336" lon="9.4180907"><ele>224.66666666666666</ele><time>2026-04-15T14:40:09.095Z</time></trkpt><trkpt lat="45.6307527" lon="9.4180903"><ele>225.0</ele><time>2026-04-15T14:40:10.095Z</time></trkpt><trkpt lat="45.6306666" lon="9.4180885"><ele>225.0</ele><time>2026-04-15T14:40:11.096Z</time></trkpt><trkpt lat="45.6305816" lon="9.4180991"><ele>225.0</ele><time>2026-04-15T14:40:12.096Z</time></trkpt><trkpt lat="45.6305042" lon="9.4181148"><ele>225.0</ele><time>2026-04-15T14:40:13.095Z</time></trkpt><trkpt lat="45.6304157" lon="9.4181314"><ele>225.0</ele><time>2026-04-15T14:40:14.095Z</time></trkpt><trkpt lat="45.6303426" lon="9.4181385"><ele>225.0</ele><time>2026-04-15T14:40:15.095Z</time></trkpt><trkpt lat="45.6302662" lon="9.4181448"><ele>225.0</ele><time>2026-04-15T14:40:16.096Z</time></trkpt><trkpt lat="45.6301413" lon="9.418168"><ele>224.2</ele><time>2026-04-15T14:40:18.096Z</time></trkpt><trkpt lat="45.6299957" lon="9.4181428"><ele>223.4</ele><time>2026-04-15T14:40:20.096Z</time></trkpt><trkpt lat="45.6299234" lon="9.4181245"><ele>222.60000000000002</ele><time>2026-04-15T14:40:21.095Z</time></trkpt><trkpt lat="45.6298304" lon="9.4181303"><ele>221.8</ele><time>2026-04-15T14:40:22.095Z</time></trkpt><trkpt lat="45.6297562" lon="9.4181768"><ele>221.0</ele><time>2026-04-15T14:40:23.095Z</time></trkpt><trkpt lat="45.6296881" lon="9.4182104"><ele>221.00000000000003</ele><time>2026-04-15T14:40:24.095Z</time></trkpt><trkpt lat="45.6296116" lon="9.4182507"><ele>221.0</ele><time>2026-04-15T14:40:25.095Z</time></trkpt><trkpt lat="45.6295304" lon="9.418284"><ele>221.0</ele><time>2026-04-15T14:40:26.096Z</time></trkpt><trkpt lat="45.6294522" lon="9.4182982"><ele>221.0</ele><time>2026-04-15T14:40:27.095Z</time></trkpt><trkpt lat="45.6293596" lon="9.4183071"><ele>221.00000000000003</ele><time>2026-04-15T14:40:28.095Z</time></trkpt><trkpt lat="45.6292783" lon="9.4183266"><ele>221.0</ele><time>2026-04-15T14:40:29.095Z</time></trkpt><trkpt lat="45.6291981" lon="9.4183383"><ele>220.66666666666669</ele><time>2026-04-15T14:40:30.095Z</time></trkpt><trkpt lat="45.6291062" lon="9.418354"><ele>220.33333333333334</ele><time>2026-04-15T14:40:31.095Z</time></trkpt><trkpt lat="45.6290161" lon="9.4183723"><ele>220.0</ele><time>2026-04-15T14:40:32.095Z</time></trkpt><trkpt lat="45.6289346" lon="9.4183869"><ele>219.66666666666669</ele><time>2026-04-15T14:40:33.096Z</time></trkpt><trkpt lat="45.6288487" lon="9.4183925"><ele>219.33333333333334</ele><time>2026-04-15T14:40:34.095Z</time></trkpt><trkpt lat="45.6287556" lon="9.4183969"><ele>219.0</ele><time>2026-04-15T14:40:35.095Z</time></trkpt><trkpt lat="45.6286636" lon="9.4184059"><ele>218.2</ele><time>2026-04-15T14:40:36.095Z</time></trkpt><trkpt lat="45.6285687" lon="9.4184062"><ele>217.39999999999998</ele><time>2026-04-15T14:40:37.096Z</time></trkpt><trkpt lat="45.6284777" lon="9.4184013"><ele>216.6</ele><time>2026-04-15T14:40:38.095Z</time></trkpt><trkpt lat="45.6283974" lon="9.4183985"><ele>215.8</ele><time>2026-04-15T14:40:39.095Z</time></trkpt><trkpt lat="45.6283024" lon="9.4183918"><ele>215.0</ele><time>2026-04-15T14:40:40.095Z</time></trkpt><trkpt lat="45.6282141" lon="9.4183858"><ele>215.0</ele><time>2026-04-15T14:40:41.095Z</time></trkpt><trkpt lat="45.628125" lon="9.4183716"><ele>215.0</ele><time>2026-04-15T14:40:42.095Z</time></trkpt><trkpt lat="45.6280413" lon="9.4183649"><ele>215.0</ele><time>2026-04-15T14:40:43.095Z</time></trkpt><trkpt lat="45.627948" lon="9.4183588"><ele>215.0</ele><time>2026-04-15T14:40:44.095Z</time></trkpt><trkpt lat="45.6278533" lon="9.4183504"><ele>215.0</ele><time>2026-04-15T14:40:45.095Z</time></trkpt><trkpt lat="45.6277618" lon="9.4183425"><ele>215.00000000000003</ele><time>2026-04-15T14:40:46.096Z</time></trkpt><trkpt lat="45.6276724" lon="9.418333"><ele>215.0</ele><time>2026-04-15T14:40:47.095Z</time></trkpt><trkpt lat="45.6275836" lon="9.4183298"><ele>215.0</ele><time>2026-04-15T14:40:48.096Z</time></trkpt><trkpt lat="45.6274919" lon="9.4183357"><ele>215.0</ele><time>2026-04-15T14:40:49.095Z</time></trkpt><trkpt lat="45.6274025" lon="9.418336"><ele>215.00000000000003</ele><time>2026-04-15T14:40:50.095Z</time></trkpt><trkpt lat="45.6273147" lon="9.4183453"><ele>215.0</ele><time>2026-04-15T14:40:51.095Z</time></trkpt><trkpt lat="45.6272308" lon="9.4183505"><ele>215.0</ele><time>2026-04-15T14:40:52.096Z</time></trkpt><trkpt lat="45.6271343" lon="9.4183409"><ele>215.0</ele><time>2026-04-15T14:40:53.095Z</time></trkpt><trkpt lat="45.6270465" lon="9.4183347"><ele>215.0</ele><time>2026-04-15T14:40:54.095Z</time></trkpt><trkpt lat="45.6269568" lon="9.418337"><ele>215.0</ele><time>2026-04-15T14:40:55.096Z</time></trkpt><trkpt lat="45.6268718" lon="9.4183411"><ele>215.0</ele><time>2026-04-15T14:40:56.095Z</time></trkpt><trkpt lat="45.6267761" lon="9.4183333"><ele>215.2</ele><time>2026-04-15T14:40:57.096Z</time></trkpt><trkpt lat="45.6266846" lon="9.4183121"><ele>215.4</ele><time>2026-04-15T14:40:58.095Z</time></trkpt><trkpt lat="45.6265891" lon="9.4183038"><ele>215.60000000000002</ele><time>2026-04-15T14:40:59.095Z</time></trkpt><trkpt lat="45.6264994" lon="9.4182973"><ele>215.8</ele><time>2026-04-15T14:41:00.095Z</time></trkpt><trkpt lat="45.6264116" lon="9.4182834"><ele>216.0</ele><time>2026-04-15T14:41:01.095Z</time></trkpt><trkpt lat="45.6263152" lon="9.4182701"><ele>216.0</ele><time>2026-04-15T14:41:02.096Z</time></trkpt><trkpt lat="45.6262234" lon="9.4182547"><ele>216.00000000000003</ele><time>2026-04-15T14:41:03.095Z</time></trkpt><trkpt lat="45.6261305" lon="9.4182527"><ele>216.00000000000003</ele><time>2026-04-15T14:41:04.095Z</time></trkpt><trkpt lat="45.6260395" lon="9.4182356"><ele>216.0</ele><time>2026-04-15T14:41:05.095Z</time></trkpt><trkpt lat="45.6259551" lon="9.4182295"><ele>216.0</ele><time>2026-04-15T14:41:06.095Z</time></trkpt><trkpt lat="45.6258643" lon="9.4182121"><ele>215.66666666666666</ele><time>2026-04-15T14:41:07.096Z</time></trkpt><trkpt lat="45.625777" lon="9.4181941"><ele>215.33333333333331</ele><time>2026-04-15T14:41:08.096Z</time></trkpt><trkpt lat="45.6256902" lon="9.4181761"><ele>215.0</ele><time>2026-04-15T14:41:09.095Z</time></trkpt><trkpt lat="45.6256056" lon="9.4181681"><ele>214.66666666666666</ele><time>2026-04-15T14:41:10.095Z</time></trkpt><trkpt lat="45.6255189" lon="9.4181642"><ele>214.33333333333331</ele><time>2026-04-15T14:41:11.095Z</time></trkpt><trkpt lat="45.6254363" lon="9.4181489"><ele>214.0</ele><time>2026-04-15T14:41:12.096Z</time></trkpt><trkpt lat="45.6253595" lon="9.4181121"><ele>213.85714285714286</ele><time>2026-04-15T14:41:13.095Z</time></trkpt><trkpt lat="45.6252887" lon="9.418055"><ele>213.71428571428572</ele><time>2026-04-15T14:41:14.095Z</time></trkpt><trkpt lat="45.6252351" lon="9.4179915"><ele>213.57142857142856</ele><time>2026-04-15T14:41:15.096Z</time></trkpt><trkpt lat="45.6251886" lon="9.4179296"><ele>213.42857142857144</ele><time>2026-04-15T14:41:16.095Z</time></trkpt><trkpt lat="45.6251243" lon="9.417835"><ele>213.28571428571428</ele><time>2026-04-15T14:41:18.095Z</time></trkpt><trkpt lat="45.62507" lon="9.4177812"><ele>213.14285714285714</ele><time>2026-04-15T14:41:21.095Z</time></trkpt><trkpt lat="45.6249992" lon="9.4177613"><ele>213.0</ele><time>2026-04-15T14:41:26.095Z</time></trkpt><trkpt lat="45.6249343" lon="9.4178356"><ele>213.0</ele><time>2026-04-15T14:41:28.095Z</time></trkpt><trkpt lat="45.6248612" lon="9.4179364"><ele>213.0</ele><time>2026-04-15T14:41:30.096Z</time></trkpt><trkpt lat="45.6247731" lon="9.418047"><ele>213.0</ele><time>2026-04-15T14:41:32.096Z</time></trkpt><trkpt lat="45.6247009" lon="9.4181679"><ele>213.0</ele><time>2026-04-15T14:41:34.095Z</time></trkpt><trkpt lat="45.6246558" lon="9.418232"><ele>213.0</ele><time>2026-04-15T14:41:35.096Z</time></trkpt><trkpt lat="45.6245716" lon="9.4183042"><ele>213.75</ele><time>2026-04-15T14:41:37.095Z</time></trkpt><trkpt lat="45.6244819" lon="9.4182521"><ele>214.5</ele><time>2026-04-15T14:41:39.095Z</time></trkpt><trkpt lat="45.6244033" lon="9.4181259"><ele>215.25</ele><time>2026-04-15T14:41:41.095Z</time></trkpt><trkpt lat="45.6243117" lon="9.4180088"><ele>216.0</ele><time>2026-04-15T14:41:43.095Z</time></trkpt><trkpt lat="45.6242005" lon="9.4179348"><ele>216.0</ele><time>2026-04-15T14:41:45.095Z</time></trkpt><trkpt lat="45.6241342" lon="9.4179222"><ele>216.0</ele><time>2026-04-15T14:41:46.095Z</time></trkpt><trkpt lat="45.6240663" lon="9.4179122"><ele>216.0</ele><time>2026-04-15T14:41:47.095Z</time></trkpt><trkpt lat="45.6240033" lon="9.4179027"><ele>216.0</ele><time>2026-04-15T14:41:48.095Z</time></trkpt><trkpt lat="45.6239337" lon="9.4178825"><ele>216.0</ele><time>2026-04-15T14:41:49.095Z</time></trkpt><trkpt lat="45.6238688" lon="9.4178661"><ele>216.0</ele><time>2026-04-15T14:41:50.096Z</time></trkpt><trkpt lat="45.623798" lon="9.4178507"><ele>216.0</ele><time>2026-04-15T14:41:51.095Z</time></trkpt><trkpt lat="45.6237231" lon="9.4178434"><ele>216.0</ele><time>2026-04-15T14:41:52.095Z</time></trkpt><trkpt lat="45.6236498" lon="9.4178272"><ele>216.0</ele><time>2026-04-15T14:41:53.095Z</time></trkpt><trkpt lat="45.6235807" lon="9.4178138"><ele>216.0</ele><time>2026-04-15T14:41:54.095Z</time></trkpt><trkpt lat="45.6235127" lon="9.4178089"><ele>216.0</ele><time>2026-04-15T14:41:55.096Z</time></trkpt><trkpt lat="45.6234403" lon="9.4177967"><ele>216.0</ele><time>2026-04-15T14:41:56.096Z</time></trkpt><trkpt lat="45.6233672" lon="9.4177842"><ele>216.0</ele><time>2026-04-15T14:41:57.096Z</time></trkpt><trkpt lat="45.6232971" lon="9.4177843"><ele>216.0</ele><time>2026-04-15T14:41:58.095Z</time></trkpt><trkpt lat="45.6232247" lon="9.4177804"><ele>215.85714285714286</ele><time>2026-04-15T14:41:59.095Z</time></trkpt><trkpt lat="45.6231481" lon="9.4177687"><ele>215.71428571428572</ele><time>2026-04-15T14:42:00.095Z</time></trkpt><trkpt lat="45.62308" lon="9.4177541"><ele>215.57142857142856</ele><time>2026-04-15T14:42:01.095Z</time></trkpt><trkpt lat="45.6230117" lon="9.4177474"><ele>215.42857142857144</ele><time>2026-04-15T14:42:02.096Z</time></trkpt><trkpt lat="45.6229369" lon="9.4177399"><ele>215.2857142857143</ele><time>2026-04-15T14:42:03.095Z</time></trkpt><trkpt lat="45.6228512" lon="9.4177333"><ele>215.14285714285714</ele><time>2026-04-15T14:42:04.095Z</time></trkpt><trkpt lat="45.6227882" lon="9.4177295"><ele>215.0</ele><time>2026-04-15T14:42:05.096Z</time></trkpt><trkpt lat="45.6227233" lon="9.4177033"><ele>214.83333333333334</ele><time>2026-04-15T14:42:06.095Z</time></trkpt><trkpt lat="45.622658" lon="9.4177078"><ele>214.66666666666669</ele><time>2026-04-15T14:42:07.095Z</time></trkpt><trkpt lat="45.6225917" lon="9.4177149"><ele>214.5</ele><time>2026-04-15T14:42:08.095Z</time></trkpt><trkpt lat="45.6225196" lon="9.4177389"><ele>214.33333333333331</ele><time>2026-04-15T14:42:09.095Z</time></trkpt><trkpt lat="45.622425" lon="9.4178465"><ele>214.16666666666666</ele><time>2026-04-15T14:42:11.095Z</time></trkpt><trkpt lat="45.6223896" lon="9.4179264"><ele>214.0</ele><time>2026-04-15T14:42:12.095Z</time></trkpt><trkpt lat="45.622305" lon="9.4180419"><ele>214.0</ele><time>2026-04-15T14:42:14.095Z</time></trkpt><trkpt lat="45.6222099" lon="9.4181016"><ele>213.99999999999997</ele><time>2026-04-15T14:42:16.095Z</time></trkpt><trkpt lat="45.6220713" lon="9.4181467"><ele>213.99999999999997</ele><time>2026-04-15T14:42:18.095Z</time></trkpt><trkpt lat="45.621974" lon="9.4181609"><ele>214.0</ele><time>2026-04-15T14:42:20.095Z</time></trkpt><trkpt lat="45.6219004" lon="9.4181396"><ele>214.0</ele><time>2026-04-15T14:42:21.096Z</time></trkpt><trkpt lat="45.6217989" lon="9.4181006"><ele>213.79999999999998</ele><time>2026-04-15T14:42:23.096Z</time></trkpt><trkpt lat="45.6216744" lon="9.4181138"><ele>213.59999999999997</ele><time>2026-04-15T14:42:25.095Z</time></trkpt><trkpt lat="45.6215978" lon="9.4180836"><ele>213.4</ele><time>2026-04-15T14:42:26.095Z</time></trkpt><trkpt lat="45.621541" lon="9.4181383"><ele>213.2</ele><time>2026-04-15T14:42:27.096Z</time></trkpt><trkpt lat="45.6214432" lon="9.4182075"><ele>213.0</ele><time>2026-04-15T14:42:29.095Z</time></trkpt><trkpt lat="45.6213214" lon="9.4182522"><ele>213.0</ele><time>2026-04-15T14:42:31.095Z</time></trkpt><trkpt lat="45.6212562" lon="9.418266"><ele>213.0</ele><time>2026-04-15T14:42:32.095Z</time></trkpt><trkpt lat="45.6211962" lon="9.4182971"><ele>213.0</ele><time>2026-04-15T14:42:33.096Z</time></trkpt><trkpt lat="45.6211311" lon="9.4183209"><ele>213.0</ele><time>2026-04-15T14:42:34.095Z</time></trkpt><trkpt lat="45.6210527" lon="9.4183375"><ele>213.0</ele><time>2026-04-15T14:42:35.095Z</time></trkpt><trkpt lat="45.6209167" lon="9.4183712"><ele>213.0</ele><time>2026-04-15T14:42:37.096Z</time></trkpt><trkpt lat="45.6208393" lon="9.4183928"><ele>212.8</ele><time>2026-04-15T14:42:39.095Z</time></trkpt><trkpt lat="45.6207793" lon="9.4184382"><ele>212.60000000000002</ele><time>2026-04-15T14:42:41.096Z</time></trkpt><trkpt lat="45.6207234" lon="9.4185839"><ele>212.39999999999998</ele><time>2026-04-15T14:42:43.096Z</time></trkpt><trkpt lat="45.6207042" lon="9.4186981"><ele>212.2</ele><time>2026-04-15T14:42:45.095Z</time></trkpt><trkpt lat="45.6206969" lon="9.418849"><ele>212.0</ele><time>2026-04-15T14:42:47.095Z</time></trkpt><trkpt lat="45.6206943" lon="9.4189961"><ele>211.6</ele><time>2026-04-15T14:42:49.095Z</time></trkpt><trkpt lat="45.6207031" lon="9.4191487"><ele>211.2</ele><time>2026-04-15T14:42:51.096Z</time></trkpt><trkpt lat="45.6207218" lon="9.4193003"><ele>210.8</ele><time>2026-04-15T14:42:53.096Z</time></trkpt><trkpt lat="45.6207296" lon="9.4194439"><ele>210.4</ele><time>2026-04-15T14:42:55.096Z</time></trkpt><trkpt lat="45.6207431" lon="9.4195823"><ele>210.0</ele><time>2026-04-15T14:42:57.095Z</time></trkpt><trkpt lat="45.6207387" lon="9.419698"><ele>210.0</ele><time>2026-04-15T14:42:59.096Z</time></trkpt><trkpt lat="45.6207184" lon="9.4197835"><ele>210.0</ele><time>2026-04-15T14:43:01.095Z</time></trkpt><trkpt lat="45.6206259" lon="9.4197956"><ele>210.0</ele><time>2026-04-15T14:43:03.095Z</time></trkpt><trkpt lat="45.6205105" lon="9.4197933"><ele>210.0</ele><time>2026-04-15T14:43:05.095Z</time></trkpt><trkpt lat="45.620383" lon="9.419804"><ele>210.0</ele><time>2026-04-15T14:43:07.095Z</time></trkpt><trkpt lat="45.6203188" lon="9.4198127"><ele>209.66666666666666</ele><time>2026-04-15T14:43:08.095Z</time></trkpt><trkpt lat="45.6202546" lon="9.4198147"><ele>209.33333333333331</ele><time>2026-04-15T14:43:09.095Z</time></trkpt><trkpt lat="45.6201844" lon="9.4198208"><ele>209.0</ele><time>2026-04-15T14:43:10.095Z</time></trkpt><trkpt lat="45.620115" lon="9.4198284"><ele>208.66666666666666</ele><time>2026-04-15T14:43:11.096Z</time></trkpt><trkpt lat="45.6200385" lon="9.4198358"><ele>208.33333333333331</ele><time>2026-04-15T14:43:12.095Z</time></trkpt><trkpt lat="45.6199712" lon="9.4198355"><ele>208.0</ele><time>2026-04-15T14:43:13.095Z</time></trkpt><trkpt lat="45.6198432" lon="9.4198319"><ele>208.0</ele><time>2026-04-15T14:43:15.095Z</time></trkpt><trkpt lat="45.6197128" lon="9.4198488"><ele>208.0</ele><time>2026-04-15T14:43:17.096Z</time></trkpt><trkpt lat="45.6196893" lon="9.420012"><ele>208.0</ele><time>2026-04-15T14:43:19.095Z</time></trkpt><trkpt lat="45.6196824" lon="9.4201615"><ele>208.0</ele><time>2026-04-15T14:43:21.095Z</time></trkpt><trkpt lat="45.6196692" lon="9.4203112"><ele>208.0</ele><time>2026-04-15T14:43:23.095Z</time></trkpt><trkpt lat="45.6196533" lon="9.4204156"><ele>208.0</ele><time>2026-04-15T14:43:25.095Z</time></trkpt><trkpt lat="45.6196325" lon="9.4205919"><ele>208.0</ele><time>2026-04-15T14:43:27.095Z</time></trkpt><trkpt lat="45.6196149" lon="9.4207754"><ele>208.0</ele><time>2026-04-15T14:43:29.096Z</time></trkpt><trkpt lat="45.6196008" lon="9.4209386"><ele>208.0</ele><time>2026-04-15T14:43:31.095Z</time></trkpt><trkpt lat="45.6195889" lon="9.4210293"><ele>208.2</ele><time>2026-04-15T14:43:32.095Z</time></trkpt><trkpt lat="45.619577" lon="9.4212079"><ele>208.4</ele><time>2026-04-15T14:43:34.095Z</time></trkpt><trkpt lat="45.6195839" lon="9.4213001"><ele>208.6</ele><time>2026-04-15T14:43:35.095Z</time></trkpt><trkpt lat="45.619575" lon="9.4214778"><ele>208.79999999999998</ele><time>2026-04-15T14:43:37.095Z</time></trkpt><trkpt lat="45.6195761" lon="9.4215687"><ele>209.0</ele><time>2026-04-15T14:43:38.096Z</time></trkpt><trkpt lat="45.619579" lon="9.4216704"><ele>209.25</ele><time>2026-04-15T14:43:39.096Z</time></trkpt><trkpt lat="45.61958" lon="9.4218536"><ele>209.5</ele><time>2026-04-15T14:43:41.095Z</time></trkpt><trkpt lat="45.6195479" lon="9.4220465"><ele>209.75</ele><time>2026-04-15T14:43:43.095Z</time></trkpt><trkpt lat="45.6195473" lon="9.4222214"><ele>210.0</ele><time>2026-04-15T14:43:45.096Z</time></trkpt><trkpt lat="45.6195511" lon="9.4223263"><ele>210.0</ele><time>2026-04-15T14:43:46.096Z</time></trkpt><trkpt lat="45.6195411" lon="9.422504"><ele>210.0</ele><time>2026-04-15T14:43:48.095Z</time></trkpt><trkpt lat="45.619535" lon="9.4226025"><ele>210.0</ele><time>2026-04-15T14:43:49.095Z</time></trkpt><trkpt lat="45.6195387" lon="9.422779"><ele>210.0</ele><time>2026-04-15T14:43:51.095Z</time></trkpt><trkpt lat="45.6195373" lon="9.4229212"><ele>210.0</ele><time>2026-04-15T14:43:53.095Z</time></trkpt><trkpt lat="45.6195327" lon="9.4230448"><ele>210.0</ele><time>2026-04-15T14:43:55.095Z</time></trkpt><trkpt lat="45.6195151" lon="9.4231464"><ele>210.0</ele><time>2026-04-15T14:43:58.096Z</time></trkpt><trkpt lat="45.6194636" lon="9.4232138"><ele>210.0</ele><time>2026-04-15T14:44:01.095Z</time></trkpt><trkpt lat="45.6194246" lon="9.4233041"><ele>210.0</ele><time>2026-04-15T14:44:40.095Z</time></trkpt><trkpt lat="45.619461" lon="9.4233972"><ele>210.0</ele><time>2026-04-15T14:44:43.095Z</time></trkpt><trkpt lat="45.6195074" lon="9.4234791"><ele>210.0</ele><time>2026-04-15T14:44:45.095Z</time></trkpt><trkpt lat="45.6195128" lon="9.4236171"><ele>210.0</ele><time>2026-04-15T14:44:47.096Z</time></trkpt><trkpt lat="45.6195135" lon="9.4237668"><ele>210.0</ele><time>2026-04-15T14:44:49.096Z</time></trkpt><trkpt lat="45.6195144" lon="9.4239369"><ele>210.0</ele><time>2026-04-15T14:44:51.095Z</time></trkpt><trkpt lat="45.6195045" lon="9.4241007"><ele>210.0</ele><time>2026-04-15T14:44:53.095Z</time></trkpt><trkpt lat="45.619511" lon="9.4242514"><ele>210.0</ele><time>2026-04-15T14:44:55.095Z</time></trkpt><trkpt lat="45.6195172" lon="9.4244117"><ele>209.8</ele><time>2026-04-15T14:44:57.095Z</time></trkpt><trkpt lat="45.6195133" lon="9.4245782"><ele>209.6</ele><time>2026-04-15T14:44:59.096Z</time></trkpt><trkpt lat="45.6195108" lon="9.4246699"><ele>209.39999999999998</ele><time>2026-04-15T14:45:00.095Z</time></trkpt><trkpt lat="45.6195002" lon="9.4248328"><ele>209.2</ele><time>2026-04-15T14:45:02.095Z</time></trkpt><trkpt lat="45.6194965" lon="9.4249973"><ele>209.0</ele><time>2026-04-15T14:45:04.095Z</time></trkpt><trkpt lat="45.6194947" lon="9.4250919"><ele>209.00000000000003</ele><time>2026-04-15T14:45:05.096Z</time></trkpt><trkpt lat="45.6194928" lon="9.4251837"><ele>209.0</ele><time>2026-04-15T14:45:06.096Z</time></trkpt><trkpt lat="45.6194876" lon="9.4252755"><ele>209.0</ele><time>2026-04-15T14:45:07.095Z</time></trkpt><trkpt lat="45.619482" lon="9.4253702"><ele>209.0</ele><time>2026-04-15T14:45:08.096Z</time></trkpt><trkpt lat="45.6194694" lon="9.4254595"><ele>209.00000000000003</ele><time>2026-04-15T14:45:09.095Z</time></trkpt><trkpt lat="45.6194634" lon="9.4256212"><ele>209.0</ele><time>2026-04-15T14:45:11.096Z</time></trkpt><trkpt lat="45.6194506" lon="9.4257788"><ele>209.0</ele><time>2026-04-15T14:45:13.095Z</time></trkpt><trkpt lat="45.6194426" lon="9.425947"><ele>209.0</ele><time>2026-04-15T14:45:15.096Z</time></trkpt><trkpt lat="45.6194407" lon="9.426107"><ele>209.0</ele><time>2026-04-15T14:45:17.095Z</time></trkpt><trkpt lat="45.619438" lon="9.4262967"><ele>209.0</ele><time>2026-04-15T14:45:19.096Z</time></trkpt><trkpt lat="45.6194579" lon="9.4264546"><ele>209.00000000000003</ele><time>2026-04-15T14:45:21.095Z</time></trkpt><trkpt lat="45.619472" lon="9.4265643"><ele>209.0</ele><time>2026-04-15T14:45:23.095Z</time></trkpt><trkpt lat="45.6194597" lon="9.4266828"><ele>209.0</ele><time>2026-04-15T14:45:25.095Z</time></trkpt><trkpt lat="45.6194543" lon="9.4268114"><ele>209.0</ele><time>2026-04-15T14:45:27.095Z</time></trkpt><trkpt lat="45.6194562" lon="9.4269545"><ele>209.00000000000003</ele><time>2026-04-15T14:45:29.095Z</time></trkpt><trkpt lat="45.6194813" lon="9.4270558"><ele>209.0</ele><time>2026-04-15T14:45:31.096Z</time></trkpt><trkpt lat="45.619492" lon="9.4271691"><ele>209.00000000000003</ele><time>2026-04-15T14:45:33.096Z</time></trkpt><trkpt lat="45.6194792" lon="9.4272928"><ele>209.0</ele><time>2026-04-15T14:45:35.095Z</time></trkpt><trkpt lat="45.619458" lon="9.4274102"><ele>209.0</ele><time>2026-04-15T14:45:37.096Z</time></trkpt><trkpt lat="45.6194749" lon="9.427505"><ele>209.0</ele><time>2026-04-15T14:45:39.095Z</time></trkpt><trkpt lat="45.6195156" lon="9.4275837"><ele>209.00000000000003</ele><time>2026-04-15T14:45:41.095Z</time></trkpt><trkpt lat="45.6195691" lon="9.4276774"><ele>209.0</ele><time>2026-04-15T14:45:43.095Z</time></trkpt><trkpt lat="45.6196335" lon="9.4277901"><ele>208.79999999999998</ele><time>2026-04-15T14:45:45.095Z</time></trkpt><trkpt lat="45.6196971" lon="9.4279025"><ele>208.6</ele><time>2026-04-15T14:45:47.096Z</time></trkpt><trkpt lat="45.6197521" lon="9.4279931"><ele>208.4</ele><time>2026-04-15T14:45:49.095Z</time></trkpt><trkpt lat="45.6198255" lon="9.4280985"><ele>208.2</ele><time>2026-04-15T14:45:51.095Z</time></trkpt><trkpt lat="45.6198835" lon="9.4282499"><ele>208.0</ele><time>2026-04-15T14:45:53.096Z</time></trkpt><trkpt lat="45.6198987" lon="9.4283402"><ele>208.0</ele><time>2026-04-15T14:45:54.095Z</time></trkpt><trkpt lat="45.6199099" lon="9.4284318"><ele>208.0</ele><time>2026-04-15T14:45:55.095Z</time></trkpt><trkpt lat="45.6199099" lon="9.428558"><ele>208.0</ele><time>2026-04-15T14:45:56.095Z</time></trkpt><trkpt lat="45.6199111" lon="9.4286555"><ele>208.0</ele><time>2026-04-15T14:45:57.096Z</time></trkpt><trkpt lat="45.6198996" lon="9.4287462"><ele>208.0</ele><time>2026-04-15T14:45:58.096Z</time></trkpt><trkpt lat="45.6198824" lon="9.428846"><ele>208.0</ele><time>2026-04-15T14:45:59.095Z</time></trkpt><trkpt lat="45.619869" lon="9.4289378"><ele>208.0</ele><time>2026-04-15T14:46:00.096Z</time></trkpt><trkpt lat="45.6198497" lon="9.4290304"><ele>208.0</ele><time>2026-04-15T14:46:01.095Z</time></trkpt><trkpt lat="45.619836" lon="9.4291204"><ele>208.0</ele><time>2026-04-15T14:46:02.095Z</time></trkpt><trkpt lat="45.6198097" lon="9.4292211"><ele>208.0</ele><time>2026-04-15T14:46:03.095Z</time></trkpt><trkpt lat="45.6197928" lon="9.4293315"><ele>208.0</ele><time>2026-04-15T14:46:04.095Z</time></trkpt><trkpt lat="45.619775" lon="9.4294201"><ele>208.0</ele><time>2026-04-15T14:46:05.095Z</time></trkpt><trkpt lat="45.6197555" lon="9.4295162"><ele>208.0</ele><time>2026-04-15T14:46:06.095Z</time></trkpt><trkpt lat="45.6197365" lon="9.4296144"><ele>208.0</ele><time>2026-04-15T14:46:07.095Z</time></trkpt><trkpt lat="45.6197185" lon="9.4297092"><ele>207.99999999999997</ele><time>2026-04-15T14:46:08.095Z</time></trkpt><trkpt lat="45.6197017" lon="9.4297985"><ele>208.0</ele><time>2026-04-15T14:46:09.095Z</time></trkpt><trkpt lat="45.6196452" lon="9.4299588"><ele>208.0</ele><time>2026-04-15T14:46:11.095Z</time></trkpt><trkpt lat="45.6195696" lon="9.430087"><ele>208.0</ele><time>2026-04-15T14:46:13.095Z</time></trkpt><trkpt lat="45.6195087" lon="9.4301381"><ele>207.99999999999997</ele><time>2026-04-15T14:46:14.095Z</time></trkpt><trkpt lat="45.6194494" lon="9.4301858"><ele>208.0</ele><time>2026-04-15T14:46:15.095Z</time></trkpt><trkpt lat="45.6193363" lon="9.4302616"><ele>207.99999999999997</ele><time>2026-04-15T14:46:17.095Z</time></trkpt><trkpt lat="45.6192091" lon="9.4303271"><ele>208.0</ele><time>2026-04-15T14:46:19.095Z</time></trkpt><trkpt lat="45.6191373" lon="9.4303588"><ele>208.0</ele><time>2026-04-15T14:46:20.096Z</time></trkpt><trkpt lat="45.6190612" lon="9.4303894"><ele>208.0</ele><time>2026-04-15T14:46:21.095Z</time></trkpt><trkpt lat="45.6189979" lon="9.4304241"><ele>207.99999999999997</ele><time>2026-04-15T14:46:22.095Z</time></trkpt><trkpt lat="45.6189375" lon="9.4304496"><ele>208.0</ele><time>2026-04-15T14:46:23.095Z</time></trkpt><trkpt lat="45.6188639" lon="9.4304802"><ele>207.99999999999997</ele><time>2026-04-15T14:46:24.095Z</time></trkpt><trkpt lat="45.6187923" lon="9.4305151"><ele>208.0</ele><time>2026-04-15T14:46:25.096Z</time></trkpt><trkpt lat="45.6187151" lon="9.4305547"><ele>208.0</ele><time>2026-04-15T14:46:26.095Z</time></trkpt><trkpt lat="45.6186476" lon="9.4305848"><ele>208.0</ele><time>2026-04-15T14:46:27.095Z</time></trkpt><trkpt lat="45.618569" lon="9.4306164"><ele>207.99999999999997</ele><time>2026-04-15T14:46:28.095Z</time></trkpt><trkpt lat="45.6185062" lon="9.4306448"><ele>208.0</ele><time>2026-04-15T14:46:29.095Z</time></trkpt><trkpt lat="45.6183927" lon="9.4307054"><ele>208.0</ele><time>2026-04-15T14:46:31.095Z</time></trkpt><trkpt lat="45.6183414" lon="9.4307602"><ele>208.0</ele><time>2026-04-15T14:46:32.095Z</time></trkpt><trkpt lat="45.618281" lon="9.4308254"><ele>208.0</ele><time>2026-04-15T14:46:33.095Z</time></trkpt><trkpt lat="45.6182343" lon="9.4308923"><ele>208.0</ele><time>2026-04-15T14:46:34.095Z</time></trkpt><trkpt lat="45.6181908" lon="9.4309615"><ele>208.0</ele><time>2026-04-15T14:46:35.095Z</time></trkpt><trkpt lat="45.6181435" lon="9.4310425"><ele>208.0</ele><time>2026-04-15T14:46:36.095Z</time></trkpt><trkpt lat="45.6180954" lon="9.431125"><ele>208.0</ele><time>2026-04-15T14:46:37.096Z</time></trkpt><trkpt lat="45.6180489" lon="9.4312051"><ele>208.0</ele><time>2026-04-15T14:46:38.095Z</time></trkpt><trkpt lat="45.6180113" lon="9.4312956"><ele>208.0</ele><time>2026-04-15T14:46:39.096Z</time></trkpt><trkpt lat="45.6179661" lon="9.4313859"><ele>208.0</ele><time>2026-04-15T14:46:40.096Z</time></trkpt><trkpt lat="45.6179367" lon="9.4314809"><ele>208.0</ele><time>2026-04-15T14:46:41.095Z</time></trkpt><trkpt lat="45.6179071" lon="9.4315669"><ele>208.0</ele><time>2026-04-15T14:46:42.095Z</time></trkpt><trkpt lat="45.6178792" lon="9.4316601"><ele>208.0</ele><time>2026-04-15T14:46:43.096Z</time></trkpt><trkpt lat="45.6178517" lon="9.4317501"><ele>208.0</ele><time>2026-04-15T14:46:44.096Z</time></trkpt><trkpt lat="45.6178146" lon="9.4318372"><ele>207.7142857142857</ele><time>2026-04-15T14:46:45.095Z</time></trkpt><trkpt lat="45.6177874" lon="9.431932"><ele>207.42857142857144</ele><time>2026-04-15T14:46:46.096Z</time></trkpt><trkpt lat="45.6177482" lon="9.4320156"><ele>207.14285714285714</ele><time>2026-04-15T14:46:47.095Z</time></trkpt><trkpt lat="45.6177177" lon="9.4320947"><ele>206.85714285714283</ele><time>2026-04-15T14:46:48.095Z</time></trkpt><trkpt lat="45.617688" lon="9.4321828"><ele>206.57142857142856</ele><time>2026-04-15T14:46:49.095Z</time></trkpt><trkpt lat="45.6176538" lon="9.4322748"><ele>206.28571428571428</ele><time>2026-04-15T14:46:50.095Z</time></trkpt><trkpt lat="45.617622" lon="9.4323619"><ele>206.0</ele><time>2026-04-15T14:46:51.096Z</time></trkpt><trkpt lat="45.6175854" lon="9.4324556"><ele>206.00000000000003</ele><time>2026-04-15T14:46:52.095Z</time></trkpt><trkpt lat="45.6175499" lon="9.4325379"><ele>206.0</ele><time>2026-04-15T14:46:53.095Z</time></trkpt><trkpt lat="45.6174702" lon="9.4326873"><ele>206.0</ele><time>2026-04-15T14:46:55.096Z</time></trkpt><trkpt lat="45.6174225" lon="9.432767"><ele>206.0</ele><time>2026-04-15T14:46:56.095Z</time></trkpt><trkpt lat="45.617373" lon="9.4328482"><ele>206.00000000000003</ele><time>2026-04-15T14:46:57.096Z</time></trkpt><trkpt lat="45.617325" lon="9.4329266"><ele>206.0</ele><time>2026-04-15T14:46:58.095Z</time></trkpt><trkpt lat="45.6172792" lon="9.4330118"><ele>205.99999999999997</ele><time>2026-04-15T14:46:59.095Z</time></trkpt><trkpt lat="45.6172367" lon="9.4330911"><ele>206.0</ele><time>2026-04-15T14:47:00.095Z</time></trkpt><trkpt lat="45.6171925" lon="9.4331732"><ele>206.0</ele><time>2026-04-15T14:47:01.096Z</time></trkpt><trkpt lat="45.6171422" lon="9.4332485"><ele>206.0</ele><time>2026-04-15T14:47:02.095Z</time></trkpt><trkpt lat="45.6170943" lon="9.4333293"><ele>206.0</ele><time>2026-04-15T14:47:03.095Z</time></trkpt><trkpt lat="45.6170437" lon="9.4334076"><ele>205.99999999999997</ele><time>2026-04-15T14:47:04.095Z</time></trkpt><trkpt lat="45.6169858" lon="9.4334822"><ele>206.0</ele><time>2026-04-15T14:47:05.095Z</time></trkpt><trkpt lat="45.6169362" lon="9.4335566"><ele>206.0</ele><time>2026-04-15T14:47:06.095Z</time></trkpt><trkpt lat="45.6168546" lon="9.4336932"><ele>206.0</ele><time>2026-04-15T14:47:08.096Z</time></trkpt><trkpt lat="45.6168063" lon="9.43378"><ele>206.0</ele><time>2026-04-15T14:47:09.096Z</time></trkpt><trkpt lat="45.6167615" lon="9.4338477"><ele>206.0</ele><time>2026-04-15T14:47:10.096Z</time></trkpt><trkpt lat="45.6166661" lon="9.4339464"><ele>206.0</ele><time>2026-04-15T14:47:12.095Z</time></trkpt><trkpt lat="45.6165569" lon="9.4339342"><ele>206.00000000000003</ele><time>2026-04-15T14:47:14.095Z</time></trkpt><trkpt lat="45.6164893" lon="9.4339007"><ele>206.0</ele><time>2026-04-15T14:47:15.095Z</time></trkpt><trkpt lat="45.6164058" lon="9.4337932"><ele>206.0</ele><time>2026-04-15T14:47:17.096Z</time></trkpt><trkpt lat="45.6163591" lon="9.4336452"><ele>206.0</ele><time>2026-04-15T14:47:19.096Z</time></trkpt><trkpt lat="45.6163267" lon="9.4335622"><ele>206.00000000000003</ele><time>2026-04-15T14:47:20.095Z</time></trkpt><trkpt lat="45.6163101" lon="9.433469"><ele>206.0</ele><time>2026-04-15T14:47:21.095Z</time></trkpt><trkpt lat="45.6162898" lon="9.4333721"><ele>205.85714285714283</ele><time>2026-04-15T14:47:22.096Z</time></trkpt><trkpt lat="45.6162743" lon="9.4332755"><ele>205.71428571428572</ele><time>2026-04-15T14:47:23.096Z</time></trkpt><trkpt lat="45.6162597" lon="9.433183"><ele>205.57142857142856</ele><time>2026-04-15T14:47:24.095Z</time></trkpt><trkpt lat="45.6162497" lon="9.4330887"><ele>205.42857142857142</ele><time>2026-04-15T14:47:25.095Z</time></trkpt><trkpt lat="45.6162358" lon="9.4329931"><ele>205.28571428571428</ele><time>2026-04-15T14:47:26.095Z</time></trkpt><trkpt lat="45.6162245" lon="9.4329044"><ele>205.14285714285714</ele><time>2026-04-15T14:47:27.095Z</time></trkpt><trkpt lat="45.6162184" lon="9.4328138"><ele>205.0</ele><time>2026-04-15T14:47:28.096Z</time></trkpt><trkpt lat="45.6162003" lon="9.4326719"><ele>205.0</ele><time>2026-04-15T14:47:30.096Z</time></trkpt><trkpt lat="45.6161746" lon="9.4325226"><ele>205.0</ele><time>2026-04-15T14:47:32.095Z</time></trkpt><trkpt lat="45.6161619" lon="9.432347"><ele>205.0</ele><time>2026-04-15T14:47:34.095Z</time></trkpt><trkpt lat="45.6161586" lon="9.4321901"><ele>205.0</ele><time>2026-04-15T14:47:36.095Z</time></trkpt><trkpt lat="45.6161427" lon="9.432073"><ele>205.0</ele><time>2026-04-15T14:47:38.096Z</time></trkpt><trkpt lat="45.616083" lon="9.4320325"><ele>204.99999999999997</ele><time>2026-04-15T14:47:40.095Z</time></trkpt><trkpt lat="45.6160201" lon="9.4320217"><ele>205.0</ele><time>2026-04-15T14:47:42.095Z</time></trkpt><trkpt lat="45.6159768" lon="9.432094"><ele>205.0</ele><time>2026-04-15T14:47:44.095Z</time></trkpt><trkpt lat="45.6159694" lon="9.4322288"><ele>205.0</ele><time>2026-04-15T14:47:46.095Z</time></trkpt><trkpt lat="45.6159455" lon="9.4323526"><ele>204.99999999999997</ele><time>2026-04-15T14:47:48.095Z</time></trkpt><trkpt lat="45.6159178" lon="9.4324987"><ele>205.0</ele><time>2026-04-15T14:47:50.096Z</time></trkpt><trkpt lat="45.6158898" lon="9.4326378"><ele>204.75</ele><time>2026-04-15T14:47:52.095Z</time></trkpt><trkpt lat="45.6158811" lon="9.432765"><ele>204.5</ele><time>2026-04-15T14:47:54.096Z</time></trkpt><trkpt lat="45.6158423" lon="9.4328651"><ele>204.25</ele><time>2026-04-15T14:47:57.096Z</time></trkpt><trkpt lat="45.6157117" lon="9.4330788"><ele>204.0</ele><time>2026-04-15T14:48:02.086Z</time></trkpt><trkpt lat="45.6156227" lon="9.4331676"><ele>204.0</ele><time>2026-04-15T14:48:03.088Z</time></trkpt><trkpt lat="45.6156386" lon="9.4332642"><ele>204.0</ele><time>2026-04-15T14:48:04.097Z</time></trkpt><trkpt lat="45.6156433" lon="9.4334091"><ele>204.0</ele><time>2026-04-15T14:48:06.091Z</time></trkpt><trkpt lat="45.6156011" lon="9.4335116"><ele>204.0</ele><time>2026-04-15T14:48:08.093Z</time></trkpt><trkpt lat="45.615532" lon="9.4335023"><ele>204.0</ele><time>2026-04-15T14:48:10.094Z</time></trkpt><trkpt lat="45.6154521" lon="9.4334775"><ele>204.0</ele><time>2026-04-15T14:48:12.093Z</time></trkpt><trkpt lat="45.6153455" lon="9.4334242"><ele>204.25</ele><time>2026-04-15T14:48:14.093Z</time></trkpt><trkpt lat="45.6152378" lon="9.433378"><ele>204.5</ele><time>2026-04-15T14:48:16.093Z</time></trkpt><trkpt lat="45.6151205" lon="9.4333403"><ele>204.75</ele><time>2026-04-15T14:48:18.093Z</time></trkpt><trkpt lat="45.6150216" lon="9.4332849"><ele>205.0</ele><time>2026-04-15T14:48:20.093Z</time></trkpt><trkpt lat="45.6149087" lon="9.4332293"><ele>204.99999999999997</ele><time>2026-04-15T14:48:22.094Z</time></trkpt><trkpt lat="45.614846" lon="9.4331984"><ele>205.0</ele><time>2026-04-15T14:48:23.093Z</time></trkpt><trkpt lat="45.6147277" lon="9.4331345"><ele>205.0</ele><time>2026-04-15T14:48:25.093Z</time></trkpt><trkpt lat="45.6146626" lon="9.4331013"><ele>205.0</ele><time>2026-04-15T14:48:26.093Z</time></trkpt><trkpt lat="45.6145917" lon="9.4330627"><ele>204.99999999999997</ele><time>2026-04-15T14:48:27.093Z</time></trkpt><trkpt lat="45.6145235" lon="9.4330239"><ele>205.0</ele><time>2026-04-15T14:48:28.093Z</time></trkpt><trkpt lat="45.6144615" lon="9.433003"><ele>204.66666666666666</ele><time>2026-04-15T14:48:29.093Z</time></trkpt><trkpt lat="45.6143866" lon="9.4329666"><ele>204.33333333333331</ele><time>2026-04-15T14:48:30.094Z</time></trkpt><trkpt lat="45.614319" lon="9.4329557"><ele>204.0</ele><time>2026-04-15T14:48:31.093Z</time></trkpt><trkpt lat="45.6142428" lon="9.4329264"><ele>203.66666666666669</ele><time>2026-04-15T14:48:32.093Z</time></trkpt><trkpt lat="45.6141335" lon="9.4328747"><ele>203.33333333333334</ele><time>2026-04-15T14:48:34.093Z</time></trkpt><trkpt lat="45.6140718" lon="9.4328426"><ele>203.0</ele><time>2026-04-15T14:48:35.094Z</time></trkpt><trkpt lat="45.6139544" lon="9.4328468"><ele>203.0</ele><time>2026-04-15T14:48:37.094Z</time></trkpt><trkpt lat="45.6138331" lon="9.432898"><ele>203.0</ele><time>2026-04-15T14:48:39.093Z</time></trkpt><trkpt lat="45.6137665" lon="9.4329031"><ele>203.0</ele><time>2026-04-15T14:48:40.093Z</time></trkpt><trkpt lat="45.6136925" lon="9.4328915"><ele>203.0</ele><time>2026-04-15T14:48:41.093Z</time></trkpt><trkpt lat="45.613625" lon="9.4328622"><ele>203.0</ele><time>2026-04-15T14:48:42.094Z</time></trkpt><trkpt lat="45.6135196" lon="9.4328006"><ele>203.00000000000003</ele><time>2026-04-15T14:48:44.093Z</time></trkpt><trkpt lat="45.613457" lon="9.4327745"><ele>203.0</ele><time>2026-04-15T14:48:45.094Z</time></trkpt><trkpt lat="45.6133977" lon="9.4327352"><ele>203.0</ele><time>2026-04-15T14:48:46.093Z</time></trkpt><trkpt lat="45.613287" lon="9.432679"><ele>203.0</ele><time>2026-04-15T14:48:48.094Z</time></trkpt><trkpt lat="45.613221" lon="9.4326324"><ele>203.00000000000003</ele><time>2026-04-15T14:48:49.094Z</time></trkpt><trkpt lat="45.6131588" lon="9.432608"><ele>203.0</ele><time>2026-04-15T14:48:50.093Z</time></trkpt><trkpt lat="45.6130318" lon="9.4325586"><ele>203.0</ele><time>2026-04-15T14:48:52.094Z</time></trkpt><trkpt lat="45.6129632" lon="9.4325293"><ele>203.0</ele><time>2026-04-15T14:48:53.093Z</time></trkpt><trkpt lat="45.6128997" lon="9.432508"><ele>203.0</ele><time>2026-04-15T14:48:54.093Z</time></trkpt><trkpt lat="45.612806" lon="9.4324414"><ele>203.0</ele><time>2026-04-15T14:48:56.094Z</time></trkpt><trkpt lat="45.612769" lon="9.4322938"><ele>203.0</ele><time>2026-04-15T14:48:58.093Z</time></trkpt><trkpt lat="45.6127761" lon="9.4321203"><ele>202.83333333333334</ele><time>2026-04-15T14:49:00.093Z</time></trkpt><trkpt lat="45.6127873" lon="9.4320305"><ele>202.66666666666669</ele><time>2026-04-15T14:49:01.093Z</time></trkpt><trkpt lat="45.6128109" lon="9.4318645"><ele>202.5</ele><time>2026-04-15T14:49:03.093Z</time></trkpt><trkpt lat="45.6128357" lon="9.4316896"><ele>202.33333333333331</ele><time>2026-04-15T14:49:05.093Z</time></trkpt><trkpt lat="45.6128451" lon="9.4315934"><ele>202.16666666666666</ele><time>2026-04-15T14:49:06.093Z</time></trkpt><trkpt lat="45.612859" lon="9.4314983"><ele>202.0</ele><time>2026-04-15T14:49:07.093Z</time></trkpt><trkpt lat="45.6128841" lon="9.4314"><ele>201.99999999999997</ele><time>2026-04-15T14:49:08.094Z</time></trkpt><trkpt lat="45.6129028" lon="9.431313"><ele>202.0</ele><time>2026-04-15T14:49:09.093Z</time></trkpt><trkpt lat="45.6129163" lon="9.4312165"><ele>202.0</ele><time>2026-04-15T14:49:10.093Z</time></trkpt><trkpt lat="45.6129274" lon="9.4311215"><ele>202.0</ele><time>2026-04-15T14:49:11.094Z</time></trkpt><trkpt lat="45.6129329" lon="9.4310284"><ele>201.99999999999997</ele><time>2026-04-15T14:49:12.093Z</time></trkpt><trkpt lat="45.6129464" lon="9.4308582"><ele>202.0</ele><time>2026-04-15T14:49:14.093Z</time></trkpt><trkpt lat="45.6129631" lon="9.4306693"><ele>202.0</ele><time>2026-04-15T14:49:16.093Z</time></trkpt><trkpt lat="45.612967" lon="9.4305775"><ele>202.0</ele><time>2026-04-15T14:49:17.093Z</time></trkpt><trkpt lat="45.6129733" lon="9.4304819"><ele>202.0</ele><time>2026-04-15T14:49:18.093Z</time></trkpt><trkpt lat="45.6129761" lon="9.4303857"><ele>202.0</ele><time>2026-04-15T14:49:19.093Z</time></trkpt><trkpt lat="45.6129822" lon="9.4302905"><ele>202.0</ele><time>2026-04-15T14:49:20.093Z</time></trkpt><trkpt lat="45.6129921" lon="9.4301946"><ele>202.0</ele><time>2026-04-15T14:49:21.094Z</time></trkpt><trkpt lat="45.612999" lon="9.4300973"><ele>202.0</ele><time>2026-04-15T14:49:22.093Z</time></trkpt><trkpt lat="45.6130006" lon="9.430003"><ele>202.0</ele><time>2026-04-15T14:49:23.093Z</time></trkpt><trkpt lat="45.6129981" lon="9.4299016"><ele>202.0</ele><time>2026-04-15T14:49:24.093Z</time></trkpt><trkpt lat="45.6129889" lon="9.4298036"><ele>202.0</ele><time>2026-04-15T14:49:25.093Z</time></trkpt><trkpt lat="45.6129644" lon="9.4297117"><ele>202.0</ele><time>2026-04-15T14:49:26.094Z</time></trkpt><trkpt lat="45.6129264" lon="9.429632"><ele>202.0</ele><time>2026-04-15T14:49:27.093Z</time></trkpt><trkpt lat="45.6128785" lon="9.4295604"><ele>202.0</ele><time>2026-04-15T14:49:28.094Z</time></trkpt><trkpt lat="45.6128278" lon="9.429497"><ele>202.0</ele><time>2026-04-15T14:49:29.094Z</time></trkpt><trkpt lat="45.61278" lon="9.4294274"><ele>202.0</ele><time>2026-04-15T14:49:30.094Z</time></trkpt><trkpt lat="45.6127249" lon="9.4292591"><ele>202.0</ele><time>2026-04-15T14:49:32.093Z</time></trkpt><trkpt lat="45.6127295" lon="9.4290835"><ele>202.0</ele><time>2026-04-15T14:49:34.093Z</time></trkpt><trkpt lat="45.6127533" lon="9.428987"><ele>202.0</ele><time>2026-04-15T14:49:35.093Z</time></trkpt><trkpt lat="45.612766" lon="9.42889"><ele>202.0</ele><time>2026-04-15T14:49:36.093Z</time></trkpt><trkpt lat="45.6127819" lon="9.4287993"><ele>201.85714285714286</ele><time>2026-04-15T14:49:37.094Z</time></trkpt><trkpt lat="45.6127951" lon="9.4287031"><ele>201.71428571428572</ele><time>2026-04-15T14:49:38.093Z</time></trkpt><trkpt lat="45.6128119" lon="9.4286061"><ele>201.57142857142856</ele><time>2026-04-15T14:49:39.093Z</time></trkpt><trkpt lat="45.6128347" lon="9.428512"><ele>201.42857142857144</ele><time>2026-04-15T14:49:40.093Z</time></trkpt><trkpt lat="45.6128541" lon="9.4284209"><ele>201.2857142857143</ele><time>2026-04-15T14:49:41.093Z</time></trkpt><trkpt lat="45.6128741" lon="9.4283169"><ele>201.14285714285714</ele><time>2026-04-15T14:49:42.093Z</time></trkpt><trkpt lat="45.6128896" lon="9.4282184"><ele>201.0</ele><time>2026-04-15T14:49:43.093Z</time></trkpt><trkpt lat="45.6129088" lon="9.4281154"><ele>201.0</ele><time>2026-04-15T14:49:44.094Z</time></trkpt><trkpt lat="45.6129267" lon="9.4280137"><ele>201.0</ele><time>2026-04-15T14:49:45.093Z</time></trkpt><trkpt lat="45.612949" lon="9.4279062"><ele>201.0</ele><time>2026-04-15T14:49:46.094Z</time></trkpt><trkpt lat="45.6129689" lon="9.4277899"><ele>201.0</ele><time>2026-04-15T14:49:47.093Z</time></trkpt><trkpt lat="45.6129854" lon="9.427697"><ele>201.0</ele><time>2026-04-15T14:49:48.093Z</time></trkpt><trkpt lat="45.6130032" lon="9.4276054"><ele>201.0</ele><time>2026-04-15T14:49:49.093Z</time></trkpt><trkpt lat="45.6130197" lon="9.4275182"><ele>201.0</ele><time>2026-04-15T14:49:50.093Z</time></trkpt><trkpt lat="45.6130423" lon="9.4274185"><ele>201.16666666666666</ele><time>2026-04-15T14:49:51.093Z</time></trkpt><trkpt lat="45.6130586" lon="9.4273261"><ele>201.33333333333331</ele><time>2026-04-15T14:49:52.094Z</time></trkpt><trkpt lat="45.6130737" lon="9.4272304"><ele>201.5</ele><time>2026-04-15T14:49:53.094Z</time></trkpt><trkpt lat="45.6130874" lon="9.4271346"><ele>201.66666666666666</ele><time>2026-04-15T14:49:54.093Z</time></trkpt><trkpt lat="45.6131052" lon="9.4269692"><ele>201.83333333333331</ele><time>2026-04-15T14:49:56.093Z</time></trkpt><trkpt lat="45.6130835" lon="9.4268038"><ele>202.0</ele><time>2026-04-15T14:49:58.093Z</time></trkpt><trkpt lat="45.6129962" lon="9.426696"><ele>202.0</ele><time>2026-04-15T14:50:00.093Z</time></trkpt><trkpt lat="45.6128798" lon="9.4266593"><ele>202.0</ele><time>2026-04-15T14:50:02.094Z</time></trkpt><trkpt lat="45.6127647" lon="9.426631"><ele>202.0</ele><time>2026-04-15T14:50:04.094Z</time></trkpt><trkpt lat="45.6126394" lon="9.4266015"><ele>202.0</ele><time>2026-04-15T14:50:06.094Z</time></trkpt><trkpt lat="45.612578" lon="9.4265731"><ele>202.0</ele><time>2026-04-15T14:50:07.094Z</time></trkpt><trkpt lat="45.6125252" lon="9.4265236"><ele>201.99999999999997</ele><time>2026-04-15T14:50:08.093Z</time></trkpt><trkpt lat="45.6124737" lon="9.4264695"><ele>202.0</ele><time>2026-04-15T14:50:09.093Z</time></trkpt><trkpt lat="45.6123607" lon="9.4263899"><ele>202.0</ele><time>2026-04-15T14:50:11.094Z</time></trkpt><trkpt lat="45.6122981" lon="9.4263599"><ele>202.0</ele><time>2026-04-15T14:50:12.093Z</time></trkpt><trkpt lat="45.612232" lon="9.4263304"><ele>201.99999999999997</ele><time>2026-04-15T14:50:13.093Z</time></trkpt><trkpt lat="45.6121258" lon="9.4262382"><ele>202.0</ele><time>2026-04-15T14:50:15.093Z</time></trkpt><trkpt lat="45.6120647" lon="9.4261805"><ele>201.42857142857142</ele><time>2026-04-15T14:50:16.093Z</time></trkpt><trkpt lat="45.6120028" lon="9.4261394"><ele>200.85714285714283</ele><time>2026-04-15T14:50:17.094Z</time></trkpt><trkpt lat="45.6119344" lon="9.4261116"><ele>200.28571428571428</ele><time>2026-04-15T14:50:18.093Z</time></trkpt><trkpt lat="45.6118615" lon="9.4260987"><ele>199.71428571428572</ele><time>2026-04-15T14:50:19.093Z</time></trkpt><trkpt lat="45.6117868" lon="9.4260806"><ele>199.14285714285714</ele><time>2026-04-15T14:50:20.093Z</time></trkpt><trkpt lat="45.6117089" lon="9.4260739"><ele>198.57142857142858</ele><time>2026-04-15T14:50:21.094Z</time></trkpt><trkpt lat="45.611636" lon="9.4260634"><ele>198.0</ele><time>2026-04-15T14:50:22.094Z</time></trkpt><trkpt lat="45.6115638" lon="9.4260618"><ele>198.0</ele><time>2026-04-15T14:50:23.093Z</time></trkpt><trkpt lat="45.6114969" lon="9.4260571"><ele>198.0</ele><time>2026-04-15T14:50:24.093Z</time></trkpt><trkpt lat="45.6114346" lon="9.4260399"><ele>198.0</ele><time>2026-04-15T14:50:25.094Z</time></trkpt><trkpt lat="45.6113234" lon="9.4260074"><ele>198.0</ele><time>2026-04-15T14:50:27.093Z</time></trkpt><trkpt lat="45.6112199" lon="9.4259779"><ele>198.0</ele><time>2026-04-15T14:50:29.093Z</time></trkpt><trkpt lat="45.6111069" lon="9.4259405"><ele>198.66666666666666</ele><time>2026-04-15T14:50:31.093Z</time></trkpt><trkpt lat="45.6110197" lon="9.4259047"><ele>199.33333333333331</ele><time>2026-04-15T14:50:33.093Z</time></trkpt><trkpt lat="45.6109498" lon="9.4258729"><ele>200.0</ele><time>2026-04-15T14:50:36.093Z</time></trkpt><trkpt lat="45.6108809" lon="9.425842"><ele>200.66666666666666</ele><time>2026-04-15T14:50:40.093Z</time></trkpt><trkpt lat="45.6108404" lon="9.425759"><ele>201.33333333333331</ele><time>2026-04-15T14:50:42.094Z</time></trkpt><trkpt lat="45.6108029" lon="9.4256516"><ele>202.0</ele><time>2026-04-15T14:50:44.094Z</time></trkpt><trkpt lat="45.6107565" lon="9.425561"><ele>201.99999999999997</ele><time>2026-04-15T14:50:46.094Z</time></trkpt><trkpt lat="45.6106806" lon="9.4255384"><ele>202.0</ele><time>2026-04-15T14:50:49.094Z</time></trkpt><trkpt lat="45.6106175" lon="9.4255412"><ele>202.0</ele><time>2026-04-15T14:50:51.093Z</time></trkpt><trkpt lat="45.6105456" lon="9.4255117"><ele>202.0</ele><time>2026-04-15T14:50:53.093Z</time></trkpt><trkpt lat="45.6104148" lon="9.4254878"><ele>201.99999999999997</ele><time>2026-04-15T14:50:55.093Z</time></trkpt><trkpt lat="45.6103197" lon="9.4254606"><ele>202.0</ele><time>2026-04-15T14:50:57.094Z</time></trkpt><trkpt lat="45.6102123" lon="9.4254243"><ele>201.0</ele><time>2026-04-15T14:50:59.093Z</time></trkpt><trkpt lat="45.6101214" lon="9.4253823"><ele>200.0</ele><time>2026-04-15T14:51:01.093Z</time></trkpt><trkpt lat="45.6100279" lon="9.4253476"><ele>199.0</ele><time>2026-04-15T14:51:03.093Z</time></trkpt><trkpt lat="45.6099327" lon="9.4252979"><ele>198.0</ele><time>2026-04-15T14:51:05.093Z</time></trkpt><trkpt lat="45.6098541" lon="9.4252596"><ele>197.0</ele><time>2026-04-15T14:51:07.094Z</time></trkpt><trkpt lat="45.6097826" lon="9.4252811"><ele>197.00000000000003</ele><time>2026-04-15T14:51:09.093Z</time></trkpt><trkpt lat="45.6097197" lon="9.4253415"><ele>197.0</ele><time>2026-04-15T14:51:11.094Z</time></trkpt><trkpt lat="45.6096831" lon="9.4254184"><ele>197.0</ele><time>2026-04-15T14:51:13.094Z</time></trkpt><trkpt lat="45.6096255" lon="9.4255311"><ele>197.0</ele><time>2026-04-15T14:51:15.093Z</time></trkpt><trkpt lat="45.6095738" lon="9.4256471"><ele>197.00000000000003</ele><time>2026-04-15T14:51:17.093Z</time></trkpt><trkpt lat="45.6095186" lon="9.4257356"><ele>197.0</ele><time>2026-04-15T14:51:19.094Z</time></trkpt><trkpt lat="45.6095322" lon="9.4258649"><ele>202.0</ele><time>2026-04-15T14:51:21.093Z</time></trkpt><trkpt lat="45.6095944" lon="9.4259608"><ele>202.0</ele><time>2026-04-15T14:51:24.093Z</time></trkpt></trkseg></trk></gpx>